﻿<?xml version="1.0" encoding="utf-8"?><gpx creator="Garmin Desktop App" version="1.1" xsi:schemaLocation="http://www.topografix.com/GPX/1/1 http://www.topografix.com/GPX/1/1/gpx.xsd http://www.garmin.com/xmlschemas/WaypointExtension/v1 http://www8.garmin.com/xmlschemas/WaypointExtensionv1.xsd http://www.garmin.com/xmlschemas/TrackPointExtension/v1 http://www.garmin.com/xmlschemas/TrackPointExtensionv1.xsd http://www.garmin.com/xmlschemas/GpxExtensions/v3 http://www8.garmin.com/xmlschemas/GpxExtensionsv3.xsd http://www.garmin.com/xmlschemas/ActivityExtension/v1 http://www8.garmin.com/xmlschemas/ActivityExtensionv1.xsd http://www.garmin.com/xmlschemas/AdventuresExtensions/v1 http://www8.garmin.com/xmlschemas/AdventuresExtensionv1.xsd http://www.garmin.com/xmlschemas/PressureExtension/v1 http://www.garmin.com/xmlschemas/PressureExtensionv1.xsd http://www.garmin.com/xmlschemas/TripExtensions/v1 http://www.garmin.com/xmlschemas/TripExtensionsv1.xsd http://www.garmin.com/xmlschemas/TripMetaDataExtensions/v1 http://www.garmin.com/xmlschemas/TripMetaDataExtensionsv1.xsd http://www.garmin.com/xmlschemas/ViaPointTransportationModeExtensions/v1 http://www.garmin.com/xmlschemas/ViaPointTransportationModeExtensionsv1.xsd http://www.garmin.com/xmlschemas/CreationTimeExtension/v1 http://www.garmin.com/xmlschemas/CreationTimeExtensionsv1.xsd http://www.garmin.com/xmlschemas/AccelerationExtension/v1 http://www.garmin.com/xmlschemas/AccelerationExtensionv1.xsd http://www.garmin.com/xmlschemas/PowerExtension/v1 http://www.garmin.com/xmlschemas/PowerExtensionv1.xsd http://www.garmin.com/xmlschemas/VideoExtension/v1 http://www.garmin.com/xmlschemas/VideoExtensionv1.xsd" xmlns="http://www.topografix.com/GPX/1/1" xmlns:xsi="http://www.w3.org/2001/XMLSchema-instance" xmlns:wptx1="http://www.garmin.com/xmlschemas/WaypointExtension/v1" xmlns:gpxtrx="http://www.garmin.com/xmlschemas/GpxExtensions/v3" xmlns:gpxtpx="http://www.garmin.com/xmlschemas/TrackPointExtension/v1" xmlns:gpxx="http://www.garmin.com/xmlschemas/GpxExtensions/v3" xmlns:trp="http://www.garmin.com/xmlschemas/TripExtensions/v1" xmlns:adv="http://www.garmin.com/xmlschemas/AdventuresExtensions/v1" xmlns:prs="http://www.garmin.com/xmlschemas/PressureExtension/v1" xmlns:tmd="http://www.garmin.com/xmlschemas/TripMetaDataExtensions/v1" xmlns:vptm="http://www.garmin.com/xmlschemas/ViaPointTransportationModeExtensions/v1" xmlns:ctx="http://www.garmin.com/xmlschemas/CreationTimeExtension/v1" xmlns:gpxacc="http://www.garmin.com/xmlschemas/AccelerationExtension/v1" xmlns:gpxpx="http://www.garmin.com/xmlschemas/PowerExtension/v1" xmlns:vidx1="http://www.garmin.com/xmlschemas/VideoExtension/v1">

  <metadata>
    <link href="http://www.garmin.com">
      <text>Garmin International</text>
    </link>
    <time>2023-08-25T18:18:15Z</time>
    <bounds maxlat="58.379396013915539" maxlon="-4.401424024254084" minlat="57.433416014537215" minlon="-5.864037964493036" />
  </metadata>

  <trk>
    <name>Track vom: 2023-08-25 09:17</name>
    <extensions>
      <gpxx:TrackExtension>
        <gpxx:DisplayColor>DarkGray</gpxx:DisplayColor>
      </gpxx:TrackExtension>
    </extensions>
    <trkseg>
      <trkpt lat="57.977829007431865" lon="-4.56601501442492">
        <ele>79.930000000000007</ele>
        <time>2023-08-25T08:17:10Z</time>
      </trkpt>
      <trkpt lat="57.977880975231528" lon="-4.565947959199548">
        <ele>72.239999999999995</ele>
        <time>2023-08-25T08:17:49Z</time>
      </trkpt>
      <trkpt lat="57.977894973009825" lon="-4.565962040796876">
        <ele>65.030000000000001</ele>
        <time>2023-08-25T08:18:27Z</time>
      </trkpt>
      <trkpt lat="57.977894973009825" lon="-4.565962040796876">
        <ele>65.030000000000001</ele>
        <time>2023-08-25T08:18:43Z</time>
      </trkpt>
      <trkpt lat="57.977864965796471" lon="-4.565708991140127">
        <ele>63.100000000000001</ele>
        <time>2023-08-25T08:18:52Z</time>
      </trkpt>
      <trkpt lat="57.977887010201812" lon="-4.565587034448981">
        <ele>62.140000000000001</ele>
        <time>2023-08-25T08:19:09Z</time>
      </trkpt>
      <trkpt lat="57.978056995198131" lon="-4.565642019733787">
        <ele>59.259999999999998</ele>
        <time>2023-08-25T08:19:17Z</time>
      </trkpt>
      <trkpt lat="57.978263022378087" lon="-4.565877970308065">
        <ele>56.369999999999997</ele>
        <time>2023-08-25T08:19:20Z</time>
      </trkpt>
      <trkpt lat="57.978616990149021" lon="-4.567162999883294">
        <ele>52.049999999999997</ele>
        <time>2023-08-25T08:19:29Z</time>
      </trkpt>
      <trkpt lat="57.978646997362375" lon="-4.567291997373104">
        <ele>51.57</ele>
        <time>2023-08-25T08:19:30Z</time>
      </trkpt>
      <trkpt lat="57.978695025667548" lon="-4.567545969039202">
        <ele>51.090000000000003</ele>
        <time>2023-08-25T08:19:32Z</time>
      </trkpt>
      <trkpt lat="57.978695025667548" lon="-4.567631967365742">
        <ele>50.609999999999999</ele>
        <time>2023-08-25T08:19:33Z</time>
      </trkpt>
      <trkpt lat="57.978695025667548" lon="-4.567673038691282">
        <ele>50.609999999999999</ele>
        <time>2023-08-25T08:19:34Z</time>
      </trkpt>
      <trkpt lat="57.978670969605446" lon="-4.567745039239526">
        <ele>50.130000000000003</ele>
        <time>2023-08-25T08:19:35Z</time>
      </trkpt>
      <trkpt lat="57.978658983483911" lon="-4.567780997604132">
        <ele>50.130000000000003</ele>
        <time>2023-08-25T08:19:36Z</time>
      </trkpt>
      <trkpt lat="57.978594023734331" lon="-4.567807987332344">
        <ele>50.130000000000003</ele>
        <time>2023-08-25T08:19:37Z</time>
      </trkpt>
      <trkpt lat="57.978567034006119" lon="-4.567763982340694">
        <ele>50.130000000000003</ele>
        <time>2023-08-25T08:19:38Z</time>
      </trkpt>
      <trkpt lat="57.978526968508959" lon="-4.567700028419495">
        <ele>50.609999999999999</ele>
        <time>2023-08-25T08:19:39Z</time>
      </trkpt>
      <trkpt lat="57.978475000709295" lon="-4.567616963759065">
        <ele>50.609999999999999</ele>
        <time>2023-08-25T08:19:40Z</time>
      </trkpt>
      <trkpt lat="57.978085996583104" lon="-4.566994020715356">
        <ele>51.090000000000003</ele>
        <time>2023-08-25T08:19:45Z</time>
      </trkpt>
      <trkpt lat="57.977991029620171" lon="-4.566843984648585">
        <ele>51.090000000000003</ele>
        <time>2023-08-25T08:19:46Z</time>
      </trkpt>
      <trkpt lat="57.977900002151728" lon="-4.566697971895337">
        <ele>51.57</ele>
        <time>2023-08-25T08:19:47Z</time>
      </trkpt>
      <trkpt lat="57.97781802713871" lon="-4.566566040739417">
        <ele>51.57</ele>
        <time>2023-08-25T08:19:48Z</time>
      </trkpt>
      <trkpt lat="57.977743009105325" lon="-4.566446011886001">
        <ele>51.57</ele>
        <time>2023-08-25T08:19:49Z</time>
      </trkpt>
      <trkpt lat="57.977666985243559" lon="-4.566324977204204">
        <ele>51.57</ele>
        <time>2023-08-25T08:19:50Z</time>
      </trkpt>
      <trkpt lat="57.977585010230541" lon="-4.566192962229252">
        <ele>51.090000000000003</ele>
        <time>2023-08-25T08:19:51Z</time>
      </trkpt>
      <trkpt lat="57.977498006075621" lon="-4.566053990274668">
        <ele>51.090000000000003</ele>
        <time>2023-08-25T08:19:52Z</time>
      </trkpt>
      <trkpt lat="57.977404966950417" lon="-4.565915018320084">
        <ele>51.090000000000003</ele>
        <time>2023-08-25T08:19:53Z</time>
      </trkpt>
      <trkpt lat="57.9773039650172" lon="-4.565774034708738">
        <ele>51.090000000000003</ele>
        <time>2023-08-25T08:19:54Z</time>
      </trkpt>
      <trkpt lat="57.976999031379819" lon="-4.565352005884051">
        <ele>51.57</ele>
        <time>2023-08-25T08:19:57Z</time>
      </trkpt>
      <trkpt lat="57.975619034841657" lon="-4.563699010759592">
        <ele>49.159999999999997</ele>
        <time>2023-08-25T08:20:09Z</time>
      </trkpt>
      <trkpt lat="57.974724015221" lon="-4.562657978385687">
        <ele>43.880000000000003</ele>
        <time>2023-08-25T08:20:17Z</time>
      </trkpt>
      <trkpt lat="57.973997974768281" lon="-4.561513010412455">
        <ele>43.399999999999999</ele>
        <time>2023-08-25T08:20:24Z</time>
      </trkpt>
      <trkpt lat="57.973600002005696" lon="-4.560738019645214">
        <ele>42.439999999999998</ele>
        <time>2023-08-25T08:20:28Z</time>
      </trkpt>
      <trkpt lat="57.973397998139262" lon="-4.560341974720359">
        <ele>41.950000000000003</ele>
        <time>2023-08-25T08:20:30Z</time>
      </trkpt>
      <trkpt lat="57.973299007862806" lon="-4.560148017480969">
        <ele>41.469999999999999</ele>
        <time>2023-08-25T08:20:31Z</time>
      </trkpt>
      <trkpt lat="57.97300698235631" lon="-4.559576958417893">
        <ele>40.509999999999998</ele>
        <time>2023-08-25T08:20:34Z</time>
      </trkpt>
      <trkpt lat="57.97292198985815" lon="-4.559408985078335">
        <ele>40.030000000000001</ele>
        <time>2023-08-25T08:20:35Z</time>
      </trkpt>
      <trkpt lat="57.972810007631779" lon="-4.559294991195202">
        <ele>39.549999999999997</ele>
        <time>2023-08-25T08:20:36Z</time>
      </trkpt>
      <trkpt lat="57.972585959360003" lon="-4.559115031734109">
        <ele>38.590000000000003</ele>
        <time>2023-08-25T08:20:38Z</time>
      </trkpt>
      <trkpt lat="57.972099976614118" lon="-4.558671964332461">
        <ele>35.229999999999997</ele>
        <time>2023-08-25T08:20:42Z</time>
      </trkpt>
      <trkpt lat="57.971985982730985" lon="-4.558532992377877">
        <ele>34.740000000000002</ele>
        <time>2023-08-25T08:20:43Z</time>
      </trkpt>
      <trkpt lat="57.971876012161374" lon="-4.558370970189571">
        <ele>34.259999999999998</ele>
        <time>2023-08-25T08:20:44Z</time>
      </trkpt>
      <trkpt lat="57.971762018278241" lon="-4.558204002678394">
        <ele>33.780000000000001</ele>
        <time>2023-08-25T08:20:45Z</time>
      </trkpt>
      <trkpt lat="57.971645006909966" lon="-4.558033011853695">
        <ele>33.299999999999997</ele>
        <time>2023-08-25T08:20:46Z</time>
      </trkpt>
      <trkpt lat="57.971527995541692" lon="-4.557861015200615">
        <ele>32.82</ele>
        <time>2023-08-25T08:20:47Z</time>
      </trkpt>
      <trkpt lat="57.971409978345037" lon="-4.557688012719154">
        <ele>32.340000000000003</ele>
        <time>2023-08-25T08:20:48Z</time>
      </trkpt>
      <trkpt lat="57.971290033310652" lon="-4.557510986924171">
        <ele>31.859999999999999</ele>
        <time>2023-08-25T08:20:49Z</time>
      </trkpt>
      <trkpt lat="57.971165981143713" lon="-4.557330021634698">
        <ele>31.379999999999999</ele>
        <time>2023-08-25T08:20:50Z</time>
      </trkpt>
      <trkpt lat="57.970074992626905" lon="-4.555726982653141">
        <ele>27.530000000000001</ele>
        <time>2023-08-25T08:20:59Z</time>
      </trkpt>
      <trkpt lat="57.96907301992178" lon="-4.55411396920681">
        <ele>22.25</ele>
        <time>2023-08-25T08:21:08Z</time>
      </trkpt>
      <trkpt lat="57.968961037695408" lon="-4.553922023624182">
        <ele>21.289999999999999</ele>
        <time>2023-08-25T08:21:09Z</time>
      </trkpt>
      <trkpt lat="57.968202978372574" lon="-4.552403977140784">
        <ele>13.6</ele>
        <time>2023-08-25T08:21:17Z</time>
      </trkpt>
      <trkpt lat="57.968067023903131" lon="-4.55209200270474">
        <ele>12.15</ele>
        <time>2023-08-25T08:21:19Z</time>
      </trkpt>
      <trkpt lat="57.967894021421671" lon="-4.551826966926456">
        <ele>10.23</ele>
        <time>2023-08-25T08:21:21Z</time>
      </trkpt>
      <trkpt lat="57.967598978430033" lon="-4.551423965021968">
        <ele>6.87</ele>
        <time>2023-08-25T08:21:24Z</time>
      </trkpt>
      <trkpt lat="57.967531001195312" lon="-4.551264038309455">
        <ele>6.39</ele>
        <time>2023-08-25T08:21:25Z</time>
      </trkpt>
      <trkpt lat="57.967466963455081" lon="-4.551111990585923">
        <ele>5.42</ele>
        <time>2023-08-25T08:21:26Z</time>
      </trkpt>
      <trkpt lat="57.967403009533882" lon="-4.550960026681423">
        <ele>4.94</ele>
        <time>2023-08-25T08:21:27Z</time>
      </trkpt>
      <trkpt lat="57.967351963743567" lon="-4.550775038078427">
        <ele>4.46</ele>
        <time>2023-08-25T08:21:28Z</time>
      </trkpt>
      <trkpt lat="57.967327991500497" lon="-4.550591977313161">
        <ele>4.46</ele>
        <time>2023-08-25T08:21:29Z</time>
      </trkpt>
      <trkpt lat="57.967301001772285" lon="-4.55039600841701">
        <ele>4.46</ele>
        <time>2023-08-25T08:21:30Z</time>
      </trkpt>
      <trkpt lat="57.967249033972621" lon="-4.550003986805677">
        <ele>4.94</ele>
        <time>2023-08-25T08:21:32Z</time>
      </trkpt>
      <trkpt lat="57.96716496348381" lon="-4.54962101764977">
        <ele>5.91</ele>
        <time>2023-08-25T08:21:34Z</time>
      </trkpt>
      <trkpt lat="57.967101009562612" lon="-4.549447009339929">
        <ele>6.39</ele>
        <time>2023-08-25T08:21:35Z</time>
      </trkpt>
      <trkpt lat="57.967025991529226" lon="-4.549289010465145">
        <ele>6.39</ele>
        <time>2023-08-25T08:21:36Z</time>
      </trkpt>
      <trkpt lat="57.966932030394673" lon="-4.549144003540278">
        <ele>5.91</ele>
        <time>2023-08-25T08:21:37Z</time>
      </trkpt>
      <trkpt lat="57.966835973784328" lon="-4.548997990787029">
        <ele>5.42</ele>
        <time>2023-08-25T08:21:38Z</time>
      </trkpt>
      <trkpt lat="57.96673396602273" lon="-4.548843009397388">
        <ele>4.46</ele>
        <time>2023-08-25T08:21:39Z</time>
      </trkpt>
      <trkpt lat="57.966630030423403" lon="-4.548682998865843">
        <ele>3.5</ele>
        <time>2023-08-25T08:21:40Z</time>
      </trkpt>
      <trkpt lat="57.966099036857486" lon="-4.547871965914965">
        <ele>0.14</ele>
        <time>2023-08-25T08:21:45Z</time>
      </trkpt>
      <trkpt lat="57.965988982468843" lon="-4.547703992575407">
        <ele>-0.82</ele>
        <time>2023-08-25T08:21:46Z</time>
      </trkpt>
      <trkpt lat="57.965880017727613" lon="-4.547565020620823">
        <ele>-1.79</ele>
        <time>2023-08-25T08:21:47Z</time>
      </trkpt>
      <trkpt lat="57.965759988874197" lon="-4.547452032566071">
        <ele>-2.75</ele>
        <time>2023-08-25T08:21:48Z</time>
      </trkpt>
      <trkpt lat="57.965641971677542" lon="-4.547340972349048">
        <ele>-3.71</ele>
        <time>2023-08-25T08:21:49Z</time>
      </trkpt>
      <trkpt lat="57.965514985844493" lon="-4.547204012051225">
        <ele>-4.67</ele>
        <time>2023-08-25T08:21:50Z</time>
      </trkpt>
      <trkpt lat="57.965412978082895" lon="-4.547048024833202">
        <ele>-5.15</ele>
        <time>2023-08-25T08:21:51Z</time>
      </trkpt>
      <trkpt lat="57.965309964492917" lon="-4.546891031786799">
        <ele>-5.63</ele>
        <time>2023-08-25T08:21:52Z</time>
      </trkpt>
      <trkpt lat="57.96499396674335" lon="-4.546406976878643">
        <ele>-6.59</ele>
        <time>2023-08-25T08:21:55Z</time>
      </trkpt>
      <trkpt lat="57.964399019256234" lon="-4.545341972261667">
        <ele>-8.51</ele>
        <time>2023-08-25T08:22:01Z</time>
      </trkpt>
      <trkpt lat="57.963653029873967" lon="-4.543340960517526">
        <ele>-9.960000000000001</ele>
        <time>2023-08-25T08:22:10Z</time>
      </trkpt>
      <trkpt lat="57.963079959154129" lon="-4.541804976761341">
        <ele>-9</ele>
        <time>2023-08-25T08:22:17Z</time>
      </trkpt>
      <trkpt lat="57.962789023295045" lon="-4.541168035939336">
        <ele>-9</ele>
        <time>2023-08-25T08:22:20Z</time>
      </trkpt>
      <trkpt lat="57.962677041068673" lon="-4.540984975174069">
        <ele>-9</ele>
        <time>2023-08-25T08:22:21Z</time>
      </trkpt>
      <trkpt lat="57.961645983159542" lon="-4.539300967007875">
        <ele>-9</ele>
        <time>2023-08-25T08:22:31Z</time>
      </trkpt>
      <trkpt lat="57.961140973493457" lon="-4.53815096989274">
        <ele>-7.55</ele>
        <time>2023-08-25T08:22:37Z</time>
      </trkpt>
      <trkpt lat="57.960510989651084" lon="-4.536361014470458">
        <ele>-3.23</ele>
        <time>2023-08-25T08:22:45Z</time>
      </trkpt>
      <trkpt lat="57.959890980273485" lon="-4.534825030714274">
        <ele>-1.3</ele>
        <time>2023-08-25T08:22:52Z</time>
      </trkpt>
      <trkpt lat="57.95964103192091" lon="-4.534208960831165">
        <ele>-1.79</ele>
        <time>2023-08-25T08:22:55Z</time>
      </trkpt>
      <trkpt lat="57.959559978917241" lon="-4.533999999985099">
        <ele>-1.79</ele>
        <time>2023-08-25T08:22:56Z</time>
      </trkpt>
      <trkpt lat="57.959484038874507" lon="-4.533773018047214">
        <ele>-1.79</ele>
        <time>2023-08-25T08:22:57Z</time>
      </trkpt>
      <trkpt lat="57.959110960364342" lon="-4.532286990433931">
        <ele>-0.82</ele>
        <time>2023-08-25T08:23:03Z</time>
      </trkpt>
      <trkpt lat="57.959063015878201" lon="-4.532034024596214">
        <ele>-0.82</ele>
        <time>2023-08-25T08:23:04Z</time>
      </trkpt>
      <trkpt lat="57.958511989563704" lon="-4.529160959646106">
        <ele>-0.34</ele>
        <time>2023-08-25T08:23:15Z</time>
      </trkpt>
      <trkpt lat="57.958463961258531" lon="-4.528912017121911">
        <ele>0.14</ele>
        <time>2023-08-25T08:23:16Z</time>
      </trkpt>
      <trkpt lat="57.958128014579415" lon="-4.526806985959411">
        <ele>-0.34</ele>
        <time>2023-08-25T08:23:24Z</time>
      </trkpt>
      <trkpt lat="57.958100019022822" lon="-4.526532981544733">
        <ele>-0.34</ele>
        <time>2023-08-25T08:23:25Z</time>
      </trkpt>
      <trkpt lat="57.95807302929461" lon="-4.526259982958436">
        <ele>-0.82</ele>
        <time>2023-08-25T08:23:26Z</time>
      </trkpt>
      <trkpt lat="57.957842024043202" lon="-4.523983038961887">
        <ele>-1.3</ele>
        <time>2023-08-25T08:23:35Z</time>
      </trkpt>
      <trkpt lat="57.957736998796463" lon="-4.521295968443155">
        <ele>-3.71</ele>
        <time>2023-08-25T08:23:45Z</time>
      </trkpt>
      <trkpt lat="57.957609007135034" lon="-4.518849039450288">
        <ele>-7.07</ele>
        <time>2023-08-25T08:23:54Z</time>
      </trkpt>
      <trkpt lat="57.957581011578441" lon="-4.518304970115423">
        <ele>-8.029999999999999</ele>
        <time>2023-08-25T08:23:56Z</time>
      </trkpt>
      <trkpt lat="57.957581011578441" lon="-4.518050998449326">
        <ele>-8.029999999999999</ele>
        <time>2023-08-25T08:23:57Z</time>
      </trkpt>
      <trkpt lat="57.957624010741711" lon="-4.517563004046679">
        <ele>-8.51</ele>
        <time>2023-08-25T08:23:59Z</time>
      </trkpt>
      <trkpt lat="57.957954006269574" lon="-4.515556963160634">
        <ele>-9.48</ele>
        <time>2023-08-25T08:24:07Z</time>
      </trkpt>
      <trkpt lat="57.95815902762115" lon="-4.514015028253198">
        <ele>-9.48</ele>
        <time>2023-08-25T08:24:13Z</time>
      </trkpt>
      <trkpt lat="57.958296993747354" lon="-4.513322012498975">
        <ele>-9.48</ele>
        <time>2023-08-25T08:24:16Z</time>
      </trkpt>
      <trkpt lat="57.958313003182411" lon="-4.51309503056109">
        <ele>-9.48</ele>
        <time>2023-08-25T08:24:17Z</time>
      </trkpt>
      <trkpt lat="57.958435965701938" lon="-4.510786989703775">
        <ele>-9.960000000000001</ele>
        <time>2023-08-25T08:24:26Z</time>
      </trkpt>
      <trkpt lat="57.958451975136995" lon="-4.508566958829761">
        <ele>-9.960000000000001</ele>
        <time>2023-08-25T08:24:35Z</time>
      </trkpt>
      <trkpt lat="57.95839698985219" lon="-4.507637992501259">
        <ele>-11.4</ele>
        <time>2023-08-25T08:24:39Z</time>
      </trkpt>
      <trkpt lat="57.958404030650854" lon="-4.507398018613458">
        <ele>-11.4</ele>
        <time>2023-08-25T08:24:40Z</time>
      </trkpt>
      <trkpt lat="57.958539985120296" lon="-4.505290975794196">
        <ele>-8.51</ele>
        <time>2023-08-25T08:24:49Z</time>
      </trkpt>
      <trkpt lat="57.958621960133314" lon="-4.504854027181864">
        <ele>-8.029999999999999</ele>
        <time>2023-08-25T08:24:51Z</time>
      </trkpt>
      <trkpt lat="57.958910968154669" lon="-4.50330002233386">
        <ele>-5.15</ele>
        <time>2023-08-25T08:24:58Z</time>
      </trkpt>
      <trkpt lat="57.958905017003417" lon="-4.503122996538878">
        <ele>-4.67</ele>
        <time>2023-08-25T08:24:59Z</time>
      </trkpt>
      <trkpt lat="57.958896970376372" lon="-4.502908000722528">
        <ele>-4.19</ele>
        <time>2023-08-25T08:25:00Z</time>
      </trkpt>
      <trkpt lat="57.958889007568359" lon="-4.502688981592655">
        <ele>-3.23</ele>
        <time>2023-08-25T08:25:01Z</time>
      </trkpt>
      <trkpt lat="57.958880038931966" lon="-4.502469040453434">
        <ele>-2.27</ele>
        <time>2023-08-25T08:25:02Z</time>
      </trkpt>
      <trkpt lat="57.958871992304921" lon="-4.502250021323562">
        <ele>-1.79</ele>
        <time>2023-08-25T08:25:03Z</time>
      </trkpt>
      <trkpt lat="57.958856988698244" lon="-4.502026978880167">
        <ele>-0.82</ele>
        <time>2023-08-25T08:25:04Z</time>
      </trkpt>
      <trkpt lat="57.958814995363355" lon="-4.501598998904228">
        <ele>-0.34</ele>
        <time>2023-08-25T08:25:06Z</time>
      </trkpt>
      <trkpt lat="57.958795968443155" lon="-4.501402024179697">
        <ele>0.14</ele>
        <time>2023-08-25T08:25:07Z</time>
      </trkpt>
      <trkpt lat="57.958781970664859" lon="-4.501261962577701">
        <ele>0.62</ele>
        <time>2023-08-25T08:25:08Z</time>
      </trkpt>
      <trkpt lat="57.958708964288235" lon="-4.501054007560015">
        <ele>0.62</ele>
        <time>2023-08-25T08:25:09Z</time>
      </trkpt>
      <trkpt lat="57.958653979003429" lon="-4.50089399702847">
        <ele>1.1</ele>
        <time>2023-08-25T08:25:10Z</time>
      </trkpt>
      <trkpt lat="57.958593964576721" lon="-4.500724012032151">
        <ele>1.1</ele>
        <time>2023-08-25T08:25:11Z</time>
      </trkpt>
      <trkpt lat="57.958110999315977" lon="-4.498928021639586">
        <ele>-1.79</ele>
        <time>2023-08-25T08:25:20Z</time>
      </trkpt>
      <trkpt lat="57.958087027072906" lon="-4.498711014166474">
        <ele>-2.27</ele>
        <time>2023-08-25T08:25:21Z</time>
      </trkpt>
      <trkpt lat="57.958061965182424" lon="-4.498491995036602">
        <ele>-2.75</ele>
        <time>2023-08-25T08:25:22Z</time>
      </trkpt>
      <trkpt lat="57.958042016252875" lon="-4.497822029516101">
        <ele>-4.19</ele>
        <time>2023-08-25T08:25:25Z</time>
      </trkpt>
      <trkpt lat="57.958036987110972" lon="-4.497592030093074">
        <ele>-4.67</ele>
        <time>2023-08-25T08:25:26Z</time>
      </trkpt>
      <trkpt lat="57.95803296379745" lon="-4.497362030670047">
        <ele>-5.15</ele>
        <time>2023-08-25T08:25:27Z</time>
      </trkpt>
      <trkpt lat="57.95792399905622" lon="-4.494556020945311">
        <ele>-9</ele>
        <time>2023-08-25T08:25:39Z</time>
      </trkpt>
      <trkpt lat="57.95792399905622" lon="-4.493837021291256">
        <ele>-8.029999999999999</ele>
        <time>2023-08-25T08:25:42Z</time>
      </trkpt>
      <trkpt lat="57.957960963249207" lon="-4.493595035746694">
        <ele>-7.55</ele>
        <time>2023-08-25T08:25:43Z</time>
      </trkpt>
      <trkpt lat="57.957994993776083" lon="-4.493371993303299">
        <ele>-7.55</ele>
        <time>2023-08-25T08:25:44Z</time>
      </trkpt>
      <trkpt lat="57.958134971559048" lon="-4.492444032803178">
        <ele>-7.07</ele>
        <time>2023-08-25T08:25:48Z</time>
      </trkpt>
      <trkpt lat="57.958246031776071" lon="-4.490514015778899">
        <ele>-5.15</ele>
        <time>2023-08-25T08:25:56Z</time>
      </trkpt>
      <trkpt lat="57.958230022341013" lon="-4.489798033609986">
        <ele>-4.19</ele>
        <time>2023-08-25T08:25:59Z</time>
      </trkpt>
      <trkpt lat="57.958200015127659" lon="-4.489578008651733">
        <ele>-4.19</ele>
        <time>2023-08-25T08:26:00Z</time>
      </trkpt>
      <trkpt lat="57.958108987659216" lon="-4.488921035081148">
        <ele>-3.23</ele>
        <time>2023-08-25T08:26:03Z</time>
      </trkpt>
      <trkpt lat="57.958076968789101" lon="-4.488692041486502">
        <ele>-2.75</ele>
        <time>2023-08-25T08:26:04Z</time>
      </trkpt>
      <trkpt lat="57.957984013482928" lon="-4.487473983317614">
        <ele>-1.79</ele>
        <time>2023-08-25T08:26:09Z</time>
      </trkpt>
      <trkpt lat="57.957971021533012" lon="-4.48722898028791">
        <ele>-1.79</ele>
        <time>2023-08-25T08:26:10Z</time>
      </trkpt>
      <trkpt lat="57.958037992939353" lon="-4.486043024808168">
        <ele>-0.34</ele>
        <time>2023-08-25T08:26:15Z</time>
      </trkpt>
      <trkpt lat="57.958054002374411" lon="-4.48578997515142">
        <ele>0.14</ele>
        <time>2023-08-25T08:26:16Z</time>
      </trkpt>
      <trkpt lat="57.958166990429163" lon="-4.484000019729137">
        <ele>0.14</ele>
        <time>2023-08-25T08:26:23Z</time>
      </trkpt>
      <trkpt lat="57.958101024851203" lon="-4.482522960752249">
        <ele>-1.3</ele>
        <time>2023-08-25T08:26:29Z</time>
      </trkpt>
      <trkpt lat="57.958085015416145" lon="-4.48226697742939">
        <ele>-1.79</ele>
        <time>2023-08-25T08:26:30Z</time>
      </trkpt>
      <trkpt lat="57.957595009356737" lon="-4.479562975466251">
        <ele>-5.63</ele>
        <time>2023-08-25T08:26:41Z</time>
      </trkpt>
      <trkpt lat="57.957051023840904" lon="-4.477444030344486">
        <ele>-5.63</ele>
        <time>2023-08-25T08:26:50Z</time>
      </trkpt>
      <trkpt lat="57.956880033016205" lon="-4.476774986833334">
        <ele>-4.67</ele>
        <time>2023-08-25T08:26:53Z</time>
      </trkpt>
      <trkpt lat="57.956796968355775" lon="-4.476450020447373">
        <ele>-4.19</ele>
        <time>2023-08-25T08:26:55Z</time>
      </trkpt>
      <trkpt lat="57.956694960594177" lon="-4.476051963865757">
        <ele>-3.23</ele>
        <time>2023-08-25T08:26:57Z</time>
      </trkpt>
      <trkpt lat="57.956493962556124" lon="-4.475149987265468">
        <ele>-1.79</ele>
        <time>2023-08-25T08:27:01Z</time>
      </trkpt>
      <trkpt lat="57.956458004191518" lon="-4.474935997277498">
        <ele>-1.79</ele>
        <time>2023-08-25T08:27:02Z</time>
      </trkpt>
      <trkpt lat="57.956423973664641" lon="-4.474730975925922">
        <ele>-1.3</ele>
        <time>2023-08-25T08:27:03Z</time>
      </trkpt>
      <trkpt lat="57.956402013078332" lon="-4.474555039778352">
        <ele>-1.3</ele>
        <time>2023-08-25T08:27:04Z</time>
      </trkpt>
      <trkpt lat="57.956410981714725" lon="-4.474371979013085">
        <ele>-1.3</ele>
        <time>2023-08-25T08:27:05Z</time>
      </trkpt>
      <trkpt lat="57.95642196200788" lon="-4.474161006510258">
        <ele>-0.82</ele>
        <time>2023-08-25T08:27:06Z</time>
      </trkpt>
      <trkpt lat="57.956454986706376" lon="-4.47399202734232">
        <ele>-0.82</ele>
        <time>2023-08-25T08:27:07Z</time>
      </trkpt>
      <trkpt lat="57.956493962556124" lon="-4.473784994333983">
        <ele>-0.82</ele>
        <time>2023-08-25T08:27:08Z</time>
      </trkpt>
      <trkpt lat="57.957040965557098" lon="-4.471971988677979">
        <ele>0.62</ele>
        <time>2023-08-25T08:27:17Z</time>
      </trkpt>
      <trkpt lat="57.957100979983807" lon="-4.47177903726697">
        <ele>0.62</ele>
        <time>2023-08-25T08:27:18Z</time>
      </trkpt>
      <trkpt lat="57.957222014665604" lon="-4.47137201204896">
        <ele>1.58</ele>
        <time>2023-08-25T08:27:20Z</time>
      </trkpt>
      <trkpt lat="57.957282029092312" lon="-4.47092299349606">
        <ele>3.02</ele>
        <time>2023-08-25T08:27:22Z</time>
      </trkpt>
      <trkpt lat="57.957495013251901" lon="-4.468990964815021">
        <ele>5.42</ele>
        <time>2023-08-25T08:27:31Z</time>
      </trkpt>
      <trkpt lat="57.957495013251901" lon="-4.468807987868786">
        <ele>5.42</ele>
        <time>2023-08-25T08:27:32Z</time>
      </trkpt>
      <trkpt lat="57.957482021301985" lon="-4.468627022579312">
        <ele>5.42</ele>
        <time>2023-08-25T08:27:33Z</time>
      </trkpt>
      <trkpt lat="57.957442039623857" lon="-4.468434993177652">
        <ele>5.42</ele>
        <time>2023-08-25T08:27:34Z</time>
      </trkpt>
      <trkpt lat="57.957399962469935" lon="-4.468229971826077">
        <ele>4.94</ele>
        <time>2023-08-25T08:27:35Z</time>
      </trkpt>
      <trkpt lat="57.957097962498665" lon="-4.466729024425149">
        <ele>2.54</ele>
        <time>2023-08-25T08:27:42Z</time>
      </trkpt>
      <trkpt lat="57.956898976117373" lon="-4.465577015653253">
        <ele>2.06</ele>
        <time>2023-08-25T08:27:47Z</time>
      </trkpt>
      <trkpt lat="57.956856982782483" lon="-4.465359002351761">
        <ele>2.06</ele>
        <time>2023-08-25T08:27:48Z</time>
      </trkpt>
      <trkpt lat="57.956809960305691" lon="-4.465153981000185">
        <ele>2.06</ele>
        <time>2023-08-25T08:27:49Z</time>
      </trkpt>
      <trkpt lat="57.956723961979151" lon="-4.46499003097415">
        <ele>2.06</ele>
        <time>2023-08-25T08:27:50Z</time>
      </trkpt>
      <trkpt lat="57.956638969480991" lon="-4.464830020442605">
        <ele>2.06</ele>
        <time>2023-08-25T08:27:51Z</time>
      </trkpt>
      <trkpt lat="57.956038992851973" lon="-4.463623026385903">
        <ele>4.46</ele>
        <time>2023-08-25T08:27:59Z</time>
      </trkpt>
      <trkpt lat="57.955993982031941" lon="-4.463450023904443">
        <ele>4.46</ele>
        <time>2023-08-25T08:28:00Z</time>
      </trkpt>
      <trkpt lat="57.955949977040291" lon="-4.463281966745853">
        <ele>4.94</ele>
        <time>2023-08-25T08:28:01Z</time>
      </trkpt>
      <trkpt lat="57.955954000353813" lon="-4.463105024769902">
        <ele>5.42</ele>
        <time>2023-08-25T08:28:02Z</time>
      </trkpt>
      <trkpt lat="57.955958023667336" lon="-4.462903020903468">
        <ele>5.42</ele>
        <time>2023-08-25T08:28:03Z</time>
      </trkpt>
      <trkpt lat="57.955962968990207" lon="-4.462681990116835">
        <ele>5.91</ele>
        <time>2023-08-25T08:28:04Z</time>
      </trkpt>
      <trkpt lat="57.95596900396049" lon="-4.462446039542556">
        <ele>5.91</ele>
        <time>2023-08-25T08:28:05Z</time>
      </trkpt>
      <trkpt lat="57.956319032236934" lon="-4.459543973207474">
        <ele>5.42</ele>
        <time>2023-08-25T08:28:16Z</time>
      </trkpt>
      <trkpt lat="57.956611979752779" lon="-4.45721497759223">
        <ele>3.5</ele>
        <time>2023-08-25T08:28:25Z</time>
      </trkpt>
      <trkpt lat="57.956637041643262" lon="-4.457015991210938">
        <ele>3.02</ele>
        <time>2023-08-25T08:28:26Z</time>
      </trkpt>
      <trkpt lat="57.95661399140954" lon="-4.456786997616291">
        <ele>2.54</ele>
        <time>2023-08-25T08:28:27Z</time>
      </trkpt>
      <trkpt lat="57.956592030823231" lon="-4.456568984314799">
        <ele>2.06</ele>
        <time>2023-08-25T08:28:28Z</time>
      </trkpt>
      <trkpt lat="57.956568980589509" lon="-4.456356000155211">
        <ele>2.06</ele>
        <time>2023-08-25T08:28:29Z</time>
      </trkpt>
      <trkpt lat="57.956523969769478" lon="-4.456132035702467">
        <ele>2.06</ele>
        <time>2023-08-25T08:28:30Z</time>
      </trkpt>
      <trkpt lat="57.956430008634925" lon="-4.455658961087465">
        <ele>1.58</ele>
        <time>2023-08-25T08:28:32Z</time>
      </trkpt>
      <trkpt lat="57.955931033939123" lon="-4.453256959095597">
        <ele>2.06</ele>
        <time>2023-08-25T08:28:42Z</time>
      </trkpt>
      <trkpt lat="57.955803964287043" lon="-4.45280802436173">
        <ele>2.06</ele>
        <time>2023-08-25T08:28:44Z</time>
      </trkpt>
      <trkpt lat="57.955739004537463" lon="-4.452595040202141">
        <ele>1.58</ele>
        <time>2023-08-25T08:28:45Z</time>
      </trkpt>
      <trkpt lat="57.955654012039304" lon="-4.452391024678946">
        <ele>1.58</ele>
        <time>2023-08-25T08:28:46Z</time>
      </trkpt>
      <trkpt lat="57.955542029812932" lon="-4.452223973348737">
        <ele>1.58</ele>
        <time>2023-08-25T08:28:47Z</time>
      </trkpt>
      <trkpt lat="57.95542904175818" lon="-4.452060023322702">
        <ele>1.1</ele>
        <time>2023-08-25T08:28:48Z</time>
      </trkpt>
      <trkpt lat="57.955035008490086" lon="-4.451486030593514">
        <ele>0.62</ele>
        <time>2023-08-25T08:28:52Z</time>
      </trkpt>
      <trkpt lat="57.954940963536501" lon="-4.451347980648279">
        <ele>0.62</ele>
        <time>2023-08-25T08:28:53Z</time>
      </trkpt>
      <trkpt lat="57.954848008230329" lon="-4.451188975945115">
        <ele>0.62</ele>
        <time>2023-08-25T08:28:54Z</time>
      </trkpt>
      <trkpt lat="57.954105036333203" lon="-4.449389968067408">
        <ele>3.02</ele>
        <time>2023-08-25T08:29:03Z</time>
      </trkpt>
      <trkpt lat="57.95395097695291" lon="-4.448985038325191">
        <ele>3.02</ele>
        <time>2023-08-25T08:29:05Z</time>
      </trkpt>
      <trkpt lat="57.953850980848074" lon="-4.448829973116517">
        <ele>3.02</ele>
        <time>2023-08-25T08:29:06Z</time>
      </trkpt>
      <trkpt lat="57.952883960679173" lon="-4.447232969105244">
        <ele>6.87</ele>
        <time>2023-08-25T08:29:16Z</time>
      </trkpt>
      <trkpt lat="57.952049039304256" lon="-4.445230029523373">
        <ele>10.23</ele>
        <time>2023-08-25T08:29:26Z</time>
      </trkpt>
      <trkpt lat="57.950860988348722" lon="-4.442350007593632">
        <ele>16</ele>
        <time>2023-08-25T08:29:40Z</time>
      </trkpt>
      <trkpt lat="57.949839988723397" lon="-4.439527988433838">
        <ele>20.32</ele>
        <time>2023-08-25T08:29:53Z</time>
      </trkpt>
      <trkpt lat="57.94978098012507" lon="-4.439335959032178">
        <ele>20.32</ele>
        <time>2023-08-25T08:29:54Z</time>
      </trkpt>
      <trkpt lat="57.949719037860632" lon="-4.439150970429182">
        <ele>20.809999999999999</ele>
        <time>2023-08-25T08:29:55Z</time>
      </trkpt>
      <trkpt lat="57.949625998735428" lon="-4.439020967110992">
        <ele>20.809999999999999</ele>
        <time>2023-08-25T08:29:56Z</time>
      </trkpt>
      <trkpt lat="57.949528014287353" lon="-4.438885012641549">
        <ele>20.809999999999999</ele>
        <time>2023-08-25T08:29:57Z</time>
      </trkpt>
      <trkpt lat="57.949426006525755" lon="-4.438741011545062">
        <ele>20.809999999999999</ele>
        <time>2023-08-25T08:29:58Z</time>
      </trkpt>
      <trkpt lat="57.949111014604568" lon="-4.438300039619207">
        <ele>20.809999999999999</ele>
        <time>2023-08-25T08:30:01Z</time>
      </trkpt>
      <trkpt lat="57.949004983529449" lon="-4.438152015209198">
        <ele>20.32</ele>
        <time>2023-08-25T08:30:02Z</time>
      </trkpt>
      <trkpt lat="57.948913034051657" lon="-4.437969038262963">
        <ele>20.32</ele>
        <time>2023-08-25T08:30:03Z</time>
      </trkpt>
      <trkpt lat="57.948030000552535" lon="-4.435929972678423">
        <ele>20.32</ele>
        <time>2023-08-25T08:30:13Z</time>
      </trkpt>
      <trkpt lat="57.947471011430025" lon="-4.433443984016776">
        <ele>20.32</ele>
        <time>2023-08-25T08:30:23Z</time>
      </trkpt>
      <trkpt lat="57.946787970140576" lon="-4.430220974609256">
        <ele>17.440000000000001</ele>
        <time>2023-08-25T08:30:36Z</time>
      </trkpt>
      <trkpt lat="57.946584960445762" lon="-4.429575987160206">
        <ele>16.960000000000001</ele>
        <time>2023-08-25T08:30:39Z</time>
      </trkpt>
      <trkpt lat="57.945765964686871" lon="-4.428064981475473">
        <ele>17.440000000000001</ele>
        <time>2023-08-25T08:30:47Z</time>
      </trkpt>
      <trkpt lat="57.945360029116273" lon="-4.427130986005068">
        <ele>17.440000000000001</ele>
        <time>2023-08-25T08:30:52Z</time>
      </trkpt>
      <trkpt lat="57.945305965840816" lon="-4.426924958825111">
        <ele>17.440000000000001</ele>
        <time>2023-08-25T08:30:53Z</time>
      </trkpt>
      <trkpt lat="57.945271013304591" lon="-4.426695965230465">
        <ele>17.920000000000002</ele>
        <time>2023-08-25T08:30:54Z</time>
      </trkpt>
      <trkpt lat="57.945245029404759" lon="-4.426436964422464">
        <ele>17.920000000000002</ele>
        <time>2023-08-25T08:30:55Z</time>
      </trkpt>
      <trkpt lat="57.945218039676547" lon="-4.426162037998438">
        <ele>18.399999999999999</ele>
        <time>2023-08-25T08:30:56Z</time>
      </trkpt>
      <trkpt lat="57.944881003350019" lon="-4.423357034102082">
        <ele>20.809999999999999</ele>
        <time>2023-08-25T08:31:05Z</time>
      </trkpt>
      <trkpt lat="57.944478001445532" lon="-4.420420015230775">
        <ele>20.809999999999999</ele>
        <time>2023-08-25T08:31:15Z</time>
      </trkpt>
      <trkpt lat="57.944284966215491" lon="-4.417661027982831">
        <ele>18.399999999999999</ele>
        <time>2023-08-25T08:31:25Z</time>
      </trkpt>
      <trkpt lat="57.944148005917668" lon="-4.415060039609671">
        <ele>14.08</ele>
        <time>2023-08-25T08:31:35Z</time>
      </trkpt>
      <trkpt lat="57.943934015929699" lon="-4.413420036435127">
        <ele>13.119999999999999</ele>
        <time>2023-08-25T08:31:42Z</time>
      </trkpt>
      <trkpt lat="57.943953964859247" lon="-4.412796003744006">
        <ele>12.630000000000001</ele>
        <time>2023-08-25T08:31:47Z</time>
      </trkpt>
      <trkpt lat="57.943968968465924" lon="-4.412499032914639">
        <ele>13.119999999999999</ele>
        <time>2023-08-25T08:31:49Z</time>
      </trkpt>
      <trkpt lat="57.944053038954735" lon="-4.411001019179821">
        <ele>11.19</ele>
        <time>2023-08-25T08:31:57Z</time>
      </trkpt>
      <trkpt lat="57.94406795874238" lon="-4.410818964242935">
        <ele>11.19</ele>
        <time>2023-08-25T08:31:58Z</time>
      </trkpt>
      <trkpt lat="57.944110035896301" lon="-4.410678986459971">
        <ele>11.19</ele>
        <time>2023-08-25T08:31:59Z</time>
      </trkpt>
      <trkpt lat="57.944153035059571" lon="-4.410538002848625">
        <ele>11.19</ele>
        <time>2023-08-25T08:32:00Z</time>
      </trkpt>
      <trkpt lat="57.9441930167377" lon="-4.410404982045293">
        <ele>10.710000000000001</ele>
        <time>2023-08-25T08:32:01Z</time>
      </trkpt>
      <trkpt lat="57.944231992587447" lon="-4.410273972898722">
        <ele>10.710000000000001</ele>
        <time>2023-08-25T08:32:02Z</time>
      </trkpt>
      <trkpt lat="57.944274991750717" lon="-4.410142041742802">
        <ele>10.23</ele>
        <time>2023-08-25T08:32:03Z</time>
      </trkpt>
      <trkpt lat="57.944317990913987" lon="-4.410022012889385">
        <ele>9.75</ele>
        <time>2023-08-25T08:32:04Z</time>
      </trkpt>
      <trkpt lat="57.944965995848179" lon="-4.408911997452378">
        <ele>5.91</ele>
        <time>2023-08-25T08:32:13Z</time>
      </trkpt>
      <trkpt lat="57.945318035781384" lon="-4.408361976966262">
        <ele>4.94</ele>
        <time>2023-08-25T08:32:17Z</time>
      </trkpt>
      <trkpt lat="57.945404034107924" lon="-4.408228034153581">
        <ele>5.42</ele>
        <time>2023-08-25T08:32:18Z</time>
      </trkpt>
      <trkpt lat="57.945521967485547" lon="-4.408042961731553">
        <ele>5.42</ele>
        <time>2023-08-25T08:32:20Z</time>
      </trkpt>
      <trkpt lat="57.945563960820436" lon="-4.407976996153593">
        <ele>5.91</ele>
        <time>2023-08-25T08:32:21Z</time>
      </trkpt>
      <trkpt lat="57.945645013824105" lon="-4.407851016148925">
        <ele>5.91</ele>
        <time>2023-08-25T08:32:23Z</time>
      </trkpt>
      <trkpt lat="57.945793038234115" lon="-4.40762696787715">
        <ele>6.39</ele>
        <time>2023-08-25T08:32:26Z</time>
      </trkpt>
      <trkpt lat="57.946400977671146" lon="-4.406952979043126">
        <ele>6.39</ele>
        <time>2023-08-25T08:32:34Z</time>
      </trkpt>
      <trkpt lat="57.947019981220365" lon="-4.406203972175717">
        <ele>4.94</ele>
        <time>2023-08-25T08:32:40Z</time>
      </trkpt>
      <trkpt lat="57.947389958426356" lon="-4.405741039663553">
        <ele>3.98</ele>
        <time>2023-08-25T08:32:44Z</time>
      </trkpt>
      <trkpt lat="57.947652982547879" lon="-4.405333008617163">
        <ele>3.98</ele>
        <time>2023-08-25T08:32:47Z</time>
      </trkpt>
      <trkpt lat="57.94782699085772" lon="-4.405016005039215">
        <ele>4.46</ele>
        <time>2023-08-25T08:32:49Z</time>
      </trkpt>
      <trkpt lat="57.947908965870738" lon="-4.404864963144064">
        <ele>4.94</ele>
        <time>2023-08-25T08:32:50Z</time>
      </trkpt>
      <trkpt lat="57.948687979951501" lon="-4.403463006019592">
        <ele>11.19</ele>
        <time>2023-08-25T08:33:00Z</time>
      </trkpt>
      <trkpt lat="57.948762997984886" lon="-4.403353035449982">
        <ele>11.67</ele>
        <time>2023-08-25T08:33:01Z</time>
      </trkpt>
      <trkpt lat="57.948912028223276" lon="-4.403136027976871">
        <ele>12.15</ele>
        <time>2023-08-25T08:33:03Z</time>
      </trkpt>
      <trkpt lat="57.948978999629617" lon="-4.403068972751498">
        <ele>12.630000000000001</ele>
        <time>2023-08-25T08:33:04Z</time>
      </trkpt>
      <trkpt lat="57.949061980471015" lon="-4.4029859919101">
        <ele>13.6</ele>
        <time>2023-08-25T08:33:05Z</time>
      </trkpt>
      <trkpt lat="57.949125012382865" lon="-4.403010969981551">
        <ele>15.039999999999999</ele>
        <time>2023-08-25T08:33:06Z</time>
      </trkpt>
      <trkpt lat="57.949187960475683" lon="-4.403036031872034">
        <ele>15.52</ele>
        <time>2023-08-25T08:33:07Z</time>
      </trkpt>
      <trkpt lat="57.949276976287365" lon="-4.403070984408259">
        <ele>16.960000000000001</ele>
        <time>2023-08-25T08:33:08Z</time>
      </trkpt>
      <trkpt lat="57.949347971007228" lon="-4.403160000219941">
        <ele>17.440000000000001</ele>
        <time>2023-08-25T08:33:09Z</time>
      </trkpt>
      <trkpt lat="57.949530025944114" lon="-4.403383964672685">
        <ele>18.879999999999999</ele>
        <time>2023-08-25T08:33:11Z</time>
      </trkpt>
      <trkpt lat="57.949724989011884" lon="-4.403627961874008">
        <ele>19.84</ele>
        <time>2023-08-25T08:33:13Z</time>
      </trkpt>
      <trkpt lat="57.94982397928834" lon="-4.403753019869328">
        <ele>19.84</ele>
        <time>2023-08-25T08:33:14Z</time>
      </trkpt>
      <trkpt lat="57.950611039996147" lon="-4.404728002846241">
        <ele>20.809999999999999</ele>
        <time>2023-08-25T08:33:21Z</time>
      </trkpt>
      <trkpt lat="57.950732996687293" lon="-4.404849959537387">
        <ele>21.289999999999999</ele>
        <time>2023-08-25T08:33:22Z</time>
      </trkpt>
      <trkpt lat="57.95085595920682" lon="-4.404973005875945">
        <ele>21.77</ele>
        <time>2023-08-25T08:33:23Z</time>
      </trkpt>
      <trkpt lat="57.951598009094596" lon="-4.405916975811124">
        <ele>22.25</ele>
        <time>2023-08-25T08:33:30Z</time>
      </trkpt>
      <trkpt lat="57.951962035149336" lon="-4.406541008502245">
        <ele>20.809999999999999</ele>
        <time>2023-08-25T08:33:34Z</time>
      </trkpt>
      <trkpt lat="57.952121961861849" lon="-4.406814007088542">
        <ele>19.84</ele>
        <time>2023-08-25T08:33:36Z</time>
      </trkpt>
      <trkpt lat="57.95218700543046" lon="-4.406925989314914">
        <ele>18.879999999999999</ele>
        <time>2023-08-25T08:33:37Z</time>
      </trkpt>
      <trkpt lat="57.952265040948987" lon="-4.407007964327931">
        <ele>18.399999999999999</ele>
        <time>2023-08-25T08:33:38Z</time>
      </trkpt>
      <trkpt lat="57.952375011518598" lon="-4.407080970704556">
        <ele>17.440000000000001</ele>
        <time>2023-08-25T08:33:39Z</time>
      </trkpt>
      <trkpt lat="57.952491017058492" lon="-4.407155988737941">
        <ele>16.960000000000001</ele>
        <time>2023-08-25T08:33:40Z</time>
      </trkpt>
      <trkpt lat="57.953061992302537" lon="-4.407527977600694">
        <ele>13.119999999999999</ele>
        <time>2023-08-25T08:33:45Z</time>
      </trkpt>
      <trkpt lat="57.953401040285826" lon="-4.407657980918884">
        <ele>11.19</ele>
        <time>2023-08-25T08:33:48Z</time>
      </trkpt>
      <trkpt lat="57.954241996631026" lon="-4.407655969262123">
        <ele>10.710000000000001</ele>
        <time>2023-08-25T08:33:55Z</time>
      </trkpt>
      <trkpt lat="57.954360013827682" lon="-4.407686982303858">
        <ele>11.19</ele>
        <time>2023-08-25T08:33:56Z</time>
      </trkpt>
      <trkpt lat="57.954715993255377" lon="-4.407836012542248">
        <ele>12.15</ele>
        <time>2023-08-25T08:33:59Z</time>
      </trkpt>
      <trkpt lat="57.954940041527152" lon="-4.408000968396664">
        <ele>12.630000000000001</ele>
        <time>2023-08-25T08:34:01Z</time>
      </trkpt>
      <trkpt lat="57.955038025975227" lon="-4.408094007521868">
        <ele>13.119999999999999</ele>
        <time>2023-08-25T08:34:02Z</time>
      </trkpt>
      <trkpt lat="57.955114971846342" lon="-4.408202972263098">
        <ele>12.630000000000001</ele>
        <time>2023-08-25T08:34:03Z</time>
      </trkpt>
      <trkpt lat="57.955193007364869" lon="-4.40831202082336">
        <ele>12.630000000000001</ele>
        <time>2023-08-25T08:34:04Z</time>
      </trkpt>
      <trkpt lat="57.955277999863029" lon="-4.408430960029364">
        <ele>12.15</ele>
        <time>2023-08-25T08:34:05Z</time>
      </trkpt>
      <trkpt lat="57.955380007624626" lon="-4.408529028296471">
        <ele>11.67</ele>
        <time>2023-08-25T08:34:06Z</time>
      </trkpt>
      <trkpt lat="57.955486960709095" lon="-4.408588958904147">
        <ele>11.19</ele>
        <time>2023-08-25T08:34:07Z</time>
      </trkpt>
      <trkpt lat="57.955607995390892" lon="-4.408598011359572">
        <ele>10.23</ele>
        <time>2023-08-25T08:34:08Z</time>
      </trkpt>
      <trkpt lat="57.95573104172945" lon="-4.408585019409657">
        <ele>9.75</ele>
        <time>2023-08-25T08:34:09Z</time>
      </trkpt>
      <trkpt lat="57.955858027562499" lon="-4.40857102163136">
        <ele>9.27</ele>
        <time>2023-08-25T08:34:10Z</time>
      </trkpt>
      <trkpt lat="57.95646202750504" lon="-4.408504972234368">
        <ele>10.23</ele>
        <time>2023-08-25T08:34:15Z</time>
      </trkpt>
      <trkpt lat="57.956568980589509" lon="-4.408492986112833">
        <ele>10.710000000000001</ele>
        <time>2023-08-25T08:34:16Z</time>
      </trkpt>
      <trkpt lat="57.956700995564461" lon="-4.408478988334537">
        <ele>11.19</ele>
        <time>2023-08-25T08:34:17Z</time>
      </trkpt>
      <trkpt lat="57.956993021070957" lon="-4.40867998637259">
        <ele>11.67</ele>
        <time>2023-08-25T08:34:20Z</time>
      </trkpt>
      <trkpt lat="57.957091005519032" lon="-4.408747041597962">
        <ele>11.67</ele>
        <time>2023-08-25T08:34:21Z</time>
      </trkpt>
      <trkpt lat="57.957189995795488" lon="-4.408816024661064">
        <ele>12.630000000000001</ele>
        <time>2023-08-25T08:34:22Z</time>
      </trkpt>
      <trkpt lat="57.957483027130365" lon="-4.409018028527498">
        <ele>14.56</ele>
        <time>2023-08-25T08:34:25Z</time>
      </trkpt>
      <trkpt lat="57.957571037113667" lon="-4.409077959135175">
        <ele>15.52</ele>
        <time>2023-08-25T08:34:26Z</time>
      </trkpt>
      <trkpt lat="57.957667009904981" lon="-4.409144008532167">
        <ele>16</ele>
        <time>2023-08-25T08:34:27Z</time>
      </trkpt>
      <trkpt lat="57.957770023494959" lon="-4.409096986055374">
        <ele>16.48</ele>
        <time>2023-08-25T08:34:28Z</time>
      </trkpt>
      <trkpt lat="57.957883011549711" lon="-4.409046024084091">
        <ele>16.960000000000001</ele>
        <time>2023-08-25T08:34:29Z</time>
      </trkpt>
      <trkpt lat="57.958237985149026" lon="-4.408817030489445">
        <ele>19.359999999999999</ele>
        <time>2023-08-25T08:34:32Z</time>
      </trkpt>
      <trkpt lat="57.958925971761346" lon="-4.407444996759296">
        <ele>29.940000000000001</ele>
        <time>2023-08-25T08:34:40Z</time>
      </trkpt>
      <trkpt lat="57.959006018936634" lon="-4.407341983169317">
        <ele>30.899999999999999</ele>
        <time>2023-08-25T08:34:41Z</time>
      </trkpt>
      <trkpt lat="57.959094028919935" lon="-4.407294038683176">
        <ele>32.340000000000003</ele>
        <time>2023-08-25T08:34:42Z</time>
      </trkpt>
      <trkpt lat="57.959177009761333" lon="-4.407286997884512">
        <ele>33.780000000000001</ele>
        <time>2023-08-25T08:34:43Z</time>
      </trkpt>
      <trkpt lat="57.959265019744635" lon="-4.40728004090488">
        <ele>35.229999999999997</ele>
        <time>2023-08-25T08:34:44Z</time>
      </trkpt>
      <trkpt lat="57.959360992535949" lon="-4.407309964299202">
        <ele>36.189999999999998</ele>
        <time>2023-08-25T08:34:45Z</time>
      </trkpt>
      <trkpt lat="57.959455959498882" lon="-4.407357992604375">
        <ele>37.630000000000003</ele>
        <time>2023-08-25T08:34:46Z</time>
      </trkpt>
      <trkpt lat="57.959540029987693" lon="-4.407400991767645">
        <ele>38.590000000000003</ele>
        <time>2023-08-25T08:34:47Z</time>
      </trkpt>
      <trkpt lat="57.959605995565653" lon="-4.407435022294521">
        <ele>39.07</ele>
        <time>2023-08-25T08:34:48Z</time>
      </trkpt>
      <trkpt lat="57.959758965298533" lon="-4.407512973994017">
        <ele>40.030000000000001</ele>
        <time>2023-08-25T08:34:51Z</time>
      </trkpt>
      <trkpt lat="57.96005099080503" lon="-4.407663010060787">
        <ele>42.439999999999998</ele>
        <time>2023-08-25T08:35:01Z</time>
      </trkpt>
      <trkpt lat="57.960193986073136" lon="-4.407984036952257">
        <ele>43.880000000000003</ele>
        <time>2023-08-25T08:35:10Z</time>
      </trkpt>
      <trkpt lat="57.960189962759614" lon="-4.408023012802005">
        <ele>44.359999999999999</ele>
        <time>2023-08-25T08:35:11Z</time>
      </trkpt>
      <trkpt lat="57.960176970809698" lon="-4.408134995028377">
        <ele>44.840000000000003</ele>
        <time>2023-08-25T08:35:12Z</time>
      </trkpt>
      <trkpt lat="57.960152998566628" lon="-4.408122003078461">
        <ele>45.32</ele>
        <time>2023-08-25T08:35:13Z</time>
      </trkpt>
      <trkpt lat="57.960131959989667" lon="-4.408111022785306">
        <ele>45.32</ele>
        <time>2023-08-25T08:35:14Z</time>
      </trkpt>
      <trkpt lat="57.960118968039751" lon="-4.408103981986642">
        <ele>45.799999999999997</ele>
        <time>2023-08-25T08:35:15Z</time>
      </trkpt>
      <trkpt lat="57.960111005231738" lon="-4.40809995867312">
        <ele>45.799999999999997</ele>
        <time>2023-08-25T08:35:16Z</time>
      </trkpt>
      <trkpt lat="57.960194991901517" lon="-4.407976996153593">
        <ele>45.32</ele>
        <time>2023-08-25T08:35:27Z</time>
      </trkpt>
      <trkpt lat="57.960194991901517" lon="-4.407976996153593">
        <ele>46.759999999999998</ele>
        <time>2023-08-25T08:35:44Z</time>
      </trkpt>
      <trkpt lat="57.960013020783663" lon="-4.407849004492164">
        <ele>47.719999999999999</ele>
        <time>2023-08-25T08:49:47Z</time>
      </trkpt>
      <trkpt lat="57.9600749630481" lon="-4.407903989776969">
        <ele>60.219999999999999</ele>
        <time>2023-08-25T08:50:23Z</time>
      </trkpt>
      <trkpt lat="57.960100024938583" lon="-4.407902983948588">
        <ele>57.82</ele>
        <time>2023-08-25T08:51:22Z</time>
      </trkpt>
      <trkpt lat="57.960088038817048" lon="-4.407902983948588">
        <ele>56.369999999999997</ele>
        <time>2023-08-25T08:51:49Z</time>
      </trkpt>
      <trkpt lat="57.960091978311539" lon="-4.407683964818716">
        <ele>55.890000000000001</ele>
        <time>2023-08-25T08:51:52Z</time>
      </trkpt>
      <trkpt lat="57.960065994411707" lon="-4.40766996704042">
        <ele>55.890000000000001</ele>
        <time>2023-08-25T08:51:53Z</time>
      </trkpt>
      <trkpt lat="57.960027018561959" lon="-4.407650018110871">
        <ele>55.409999999999997</ele>
        <time>2023-08-25T08:51:54Z</time>
      </trkpt>
      <trkpt lat="57.9599420260638" lon="-4.407607018947601">
        <ele>54.93</ele>
        <time>2023-08-25T08:51:56Z</time>
      </trkpt>
      <trkpt lat="57.95989902690053" lon="-4.40758497454226">
        <ele>54.93</ele>
        <time>2023-08-25T08:51:57Z</time>
      </trkpt>
      <trkpt lat="57.959855021908879" lon="-4.40756200812757">
        <ele>54.450000000000003</ele>
        <time>2023-08-25T08:51:58Z</time>
      </trkpt>
      <trkpt lat="57.959818979725242" lon="-4.407543987035751">
        <ele>54.450000000000003</ele>
        <time>2023-08-25T08:51:59Z</time>
      </trkpt>
      <trkpt lat="57.959747985005379" lon="-4.407898960635066">
        <ele>53.969999999999999</ele>
        <time>2023-08-25T08:52:01Z</time>
      </trkpt>
      <trkpt lat="57.959747985005379" lon="-4.407898960635066">
        <ele>53.969999999999999</ele>
        <time>2023-08-25T08:52:02Z</time>
      </trkpt>
      <trkpt lat="57.959747985005379" lon="-4.407898960635066">
        <ele>53.969999999999999</ele>
        <time>2023-08-25T08:52:03Z</time>
      </trkpt>
      <trkpt lat="57.959787966683507" lon="-4.407921005040407">
        <ele>53.490000000000002</ele>
        <time>2023-08-25T08:52:07Z</time>
      </trkpt>
      <trkpt lat="57.959829038009048" lon="-4.407943971455097">
        <ele>53.009999999999998</ele>
        <time>2023-08-25T08:52:08Z</time>
      </trkpt>
      <trkpt lat="57.960494980216026" lon="-4.407874988391995">
        <ele>50.609999999999999</ele>
        <time>2023-08-25T08:52:15Z</time>
      </trkpt>
      <trkpt lat="57.9608020093292" lon="-4.408016977831721">
        <ele>50.609999999999999</ele>
        <time>2023-08-25T08:52:18Z</time>
      </trkpt>
      <trkpt lat="57.960913991555572" lon="-4.408068023622036">
        <ele>51.090000000000003</ele>
        <time>2023-08-25T08:52:19Z</time>
      </trkpt>
      <trkpt lat="57.961219009011984" lon="-4.408101970329881">
        <ele>51.090000000000003</ele>
        <time>2023-08-25T08:52:22Z</time>
      </trkpt>
      <trkpt lat="57.961321016773582" lon="-4.408096019178629">
        <ele>51.090000000000003</ele>
        <time>2023-08-25T08:52:23Z</time>
      </trkpt>
      <trkpt lat="57.96163902617991" lon="-4.40807799808681">
        <ele>50.130000000000003</ele>
        <time>2023-08-25T08:52:26Z</time>
      </trkpt>
      <trkpt lat="57.962034987285733" lon="-4.40805503167212">
        <ele>47.719999999999999</ele>
        <time>2023-08-25T08:52:30Z</time>
      </trkpt>
      <trkpt lat="57.962151998654008" lon="-4.408058971166611">
        <ele>46.759999999999998</ele>
        <time>2023-08-25T08:52:31Z</time>
      </trkpt>
      <trkpt lat="57.962259035557508" lon="-4.408103981986642">
        <ele>46.280000000000001</ele>
        <time>2023-08-25T08:52:32Z</time>
      </trkpt>
      <trkpt lat="57.962375041097403" lon="-4.408152010291815">
        <ele>45.32</ele>
        <time>2023-08-25T08:52:33Z</time>
      </trkpt>
      <trkpt lat="57.962495991960168" lon="-4.408201966434717">
        <ele>44.840000000000003</ele>
        <time>2023-08-25T08:52:34Z</time>
      </trkpt>
      <trkpt lat="57.962609985843301" lon="-4.40824999473989">
        <ele>43.880000000000003</ele>
        <time>2023-08-25T08:52:35Z</time>
      </trkpt>
      <trkpt lat="57.962833028286695" lon="-4.40842199139297">
        <ele>42.439999999999998</ele>
        <time>2023-08-25T08:52:37Z</time>
      </trkpt>
      <trkpt lat="57.963866014033556" lon="-4.409543992951512">
        <ele>39.07</ele>
        <time>2023-08-25T08:52:47Z</time>
      </trkpt>
      <trkpt lat="57.964571015909314" lon="-4.410675968974829">
        <ele>36.670000000000002</ele>
        <time>2023-08-25T08:52:55Z</time>
      </trkpt>
      <trkpt lat="57.964661037549376" lon="-4.410783005878329">
        <ele>36.189999999999998</ele>
        <time>2023-08-25T08:52:56Z</time>
      </trkpt>
      <trkpt lat="57.964764973148704" lon="-4.410857018083334">
        <ele>36.189999999999998</ele>
        <time>2023-08-25T08:52:57Z</time>
      </trkpt>
      <trkpt lat="57.964886007830501" lon="-4.410894988104701">
        <ele>35.710000000000001</ele>
        <time>2023-08-25T08:52:58Z</time>
      </trkpt>
      <trkpt lat="57.965019028633833" lon="-4.410933963954449">
        <ele>35.710000000000001</ele>
        <time>2023-08-25T08:52:59Z</time>
      </trkpt>
      <trkpt lat="57.965159006416798" lon="-4.41097604110837">
        <ele>35.229999999999997</ele>
        <time>2023-08-25T08:53:00Z</time>
      </trkpt>
      <trkpt lat="57.965303007513285" lon="-4.411018034443259">
        <ele>35.229999999999997</ele>
        <time>2023-08-25T08:53:01Z</time>
      </trkpt>
      <trkpt lat="57.966491980478168" lon="-4.411453977227211">
        <ele>34.259999999999998</ele>
        <time>2023-08-25T08:53:10Z</time>
      </trkpt>
      <trkpt lat="57.966890037059784" lon="-4.411597978323698">
        <ele>34.259999999999998</ele>
        <time>2023-08-25T08:53:14Z</time>
      </trkpt>
      <trkpt lat="57.967178961262107" lon="-4.411681964993477">
        <ele>34.259999999999998</ele>
        <time>2023-08-25T08:53:17Z</time>
      </trkpt>
      <trkpt lat="57.967266971245408" lon="-4.411703003570437">
        <ele>34.259999999999998</ele>
        <time>2023-08-25T08:53:18Z</time>
      </trkpt>
      <trkpt lat="57.967361016198993" lon="-4.411724964156747">
        <ele>34.259999999999998</ele>
        <time>2023-08-25T08:53:19Z</time>
      </trkpt>
      <trkpt lat="57.967567965388298" lon="-4.4117739982903">
        <ele>34.259999999999998</ele>
        <time>2023-08-25T08:53:21Z</time>
      </trkpt>
      <trkpt lat="57.967679025605321" lon="-4.411799982190132">
        <ele>34.259999999999998</ele>
        <time>2023-08-25T08:53:22Z</time>
      </trkpt>
      <trkpt lat="57.968811001628637" lon="-4.412124026566744">
        <ele>33.780000000000001</ele>
        <time>2023-08-25T08:53:31Z</time>
      </trkpt>
      <trkpt lat="57.968934969976544" lon="-4.412189992144704">
        <ele>32.82</ele>
        <time>2023-08-25T08:53:32Z</time>
      </trkpt>
      <trkpt lat="57.969411984086037" lon="-4.41243901848793">
        <ele>30.899999999999999</ele>
        <time>2023-08-25T08:53:36Z</time>
      </trkpt>
      <trkpt lat="57.969510974362493" lon="-4.412490986287594">
        <ele>29.460000000000001</ele>
        <time>2023-08-25T08:53:37Z</time>
      </trkpt>
      <trkpt lat="57.969607030972838" lon="-4.412486962974072">
        <ele>28.02</ele>
        <time>2023-08-25T08:53:38Z</time>
      </trkpt>
      <trkpt lat="57.969724964350462" lon="-4.41248101182282">
        <ele>27.530000000000001</ele>
        <time>2023-08-25T08:53:39Z</time>
      </trkpt>
      <trkpt lat="57.969838036224246" lon="-4.412475982680917">
        <ele>26.57</ele>
        <time>2023-08-25T08:53:40Z</time>
      </trkpt>
      <trkpt lat="57.970194015651941" lon="-4.412539014592767">
        <ele>24.649999999999999</ele>
        <time>2023-08-25T08:53:43Z</time>
      </trkpt>
      <trkpt lat="57.971449960023165" lon="-4.413293972611427">
        <ele>24.170000000000002</ele>
        <time>2023-08-25T08:53:53Z</time>
      </trkpt>
      <trkpt lat="57.971578035503626" lon="-4.413377959281206">
        <ele>24.170000000000002</ele>
        <time>2023-08-25T08:53:54Z</time>
      </trkpt>
      <trkpt lat="57.972809001803398" lon="-4.414005009457469">
        <ele>23.210000000000001</ele>
        <time>2023-08-25T08:54:03Z</time>
      </trkpt>
      <trkpt lat="57.972945040091872" lon="-4.414070975035429">
        <ele>23.210000000000001</ele>
        <time>2023-08-25T08:54:04Z</time>
      </trkpt>
      <trkpt lat="57.974128983914852" lon="-4.414643961936235">
        <ele>19.359999999999999</ele>
        <time>2023-08-25T08:54:13Z</time>
      </trkpt>
      <trkpt lat="57.974257981404662" lon="-4.414705988019705">
        <ele>18.879999999999999</ele>
        <time>2023-08-25T08:54:14Z</time>
      </trkpt>
      <trkpt lat="57.974762991070747" lon="-4.414868010208011">
        <ele>15.52</ele>
        <time>2023-08-25T08:54:18Z</time>
      </trkpt>
      <trkpt lat="57.975524989888072" lon="-4.415072025731206">
        <ele>12.15</ele>
        <time>2023-08-25T08:54:24Z</time>
      </trkpt>
      <trkpt lat="57.975659016519785" lon="-4.415085017681122">
        <ele>12.15</ele>
        <time>2023-08-25T08:54:25Z</time>
      </trkpt>
      <trkpt lat="57.975795976817608" lon="-4.415078982710838">
        <ele>12.630000000000001</ele>
        <time>2023-08-25T08:54:26Z</time>
      </trkpt>
      <trkpt lat="57.976340968161821" lon="-4.415056016296148">
        <ele>16.48</ele>
        <time>2023-08-25T08:54:30Z</time>
      </trkpt>
      <trkpt lat="57.977229030802846" lon="-4.41501896828413">
        <ele>24.649999999999999</ele>
        <time>2023-08-25T08:54:37Z</time>
      </trkpt>
      <trkpt lat="57.978243995457888" lon="-4.415161963552237">
        <ele>29.940000000000001</ele>
        <time>2023-08-25T08:54:44Z</time>
      </trkpt>
      <trkpt lat="57.978393025696278" lon="-4.415200017392635">
        <ele>30.420000000000002</ele>
        <time>2023-08-25T08:54:45Z</time>
      </trkpt>
      <trkpt lat="57.978683039546013" lon="-4.415275035426021">
        <ele>31.379999999999999</ele>
        <time>2023-08-25T08:54:47Z</time>
      </trkpt>
      <trkpt lat="57.979261977598071" lon="-4.415422976016998">
        <ele>31.859999999999999</ele>
        <time>2023-08-25T08:54:51Z</time>
      </trkpt>
      <trkpt lat="57.979398015886545" lon="-4.415458012372255">
        <ele>32.340000000000003</ele>
        <time>2023-08-25T08:54:52Z</time>
      </trkpt>
      <trkpt lat="57.979533970355988" lon="-4.415492964908481">
        <ele>32.82</ele>
        <time>2023-08-25T08:54:53Z</time>
      </trkpt>
      <trkpt lat="57.979793976992369" lon="-4.415560020133853">
        <ele>33.299999999999997</ele>
        <time>2023-08-25T08:54:55Z</time>
      </trkpt>
      <trkpt lat="57.979930015280843" lon="-4.415608970448375">
        <ele>33.299999999999997</ele>
        <time>2023-08-25T08:54:56Z</time>
      </trkpt>
      <trkpt lat="57.980065969750285" lon="-4.415677031502128">
        <ele>33.299999999999997</ele>
        <time>2023-08-25T08:54:57Z</time>
      </trkpt>
      <trkpt lat="57.980597969144583" lon="-4.415967967361212">
        <ele>34.740000000000002</ele>
        <time>2023-08-25T08:55:01Z</time>
      </trkpt>
      <trkpt lat="57.980971969664097" lon="-4.416277008131146">
        <ele>36.670000000000002</ele>
        <time>2023-08-25T08:55:04Z</time>
      </trkpt>
      <trkpt lat="57.981074983254075" lon="-4.416362000629306">
        <ele>37.630000000000003</ele>
        <time>2023-08-25T08:55:05Z</time>
      </trkpt>
      <trkpt lat="57.981339013203979" lon="-4.416580013930798">
        <ele>40.030000000000001</ele>
        <time>2023-08-25T08:55:08Z</time>
      </trkpt>
      <trkpt lat="57.981424005702138" lon="-4.416676992550492">
        <ele>40.509999999999998</ele>
        <time>2023-08-25T08:55:09Z</time>
      </trkpt>
      <trkpt lat="57.982537960633636" lon="-4.418224040418863">
        <ele>42.920000000000002</ele>
        <time>2023-08-25T08:55:21Z</time>
      </trkpt>
      <trkpt lat="57.983227958902717" lon="-4.418901968747377">
        <ele>44.840000000000003</ele>
        <time>2023-08-25T08:55:28Z</time>
      </trkpt>
      <trkpt lat="57.983326027169824" lon="-4.418972041457892">
        <ele>45.32</ele>
        <time>2023-08-25T08:55:29Z</time>
      </trkpt>
      <trkpt lat="57.983443038538098" lon="-4.41903498955071">
        <ele>45.32</ele>
        <time>2023-08-25T08:55:30Z</time>
      </trkpt>
      <trkpt lat="57.983548985794187" lon="-4.419031972065568">
        <ele>45.799999999999997</ele>
        <time>2023-08-25T08:55:31Z</time>
      </trkpt>
      <trkpt lat="57.983659040182829" lon="-4.419029038399458">
        <ele>46.280000000000001</ele>
        <time>2023-08-25T08:55:32Z</time>
      </trkpt>
      <trkpt lat="57.983771022409201" lon="-4.419025015085936">
        <ele>46.759999999999998</ele>
        <time>2023-08-25T08:55:33Z</time>
      </trkpt>
      <trkpt lat="57.984438976272941" lon="-4.418965000659227">
        <ele>50.609999999999999</ele>
        <time>2023-08-25T08:55:40Z</time>
      </trkpt>
      <trkpt lat="57.984762014821172" lon="-4.41899299621582">
        <ele>52.049999999999997</ele>
        <time>2023-08-25T08:55:44Z</time>
      </trkpt>
      <trkpt lat="57.984875002875924" lon="-4.419015040621162">
        <ele>51.57</ele>
        <time>2023-08-25T08:55:45Z</time>
      </trkpt>
      <trkpt lat="57.984949015080929" lon="-4.418931975960732">
        <ele>52.049999999999997</ele>
        <time>2023-08-25T08:55:46Z</time>
      </trkpt>
      <trkpt lat="57.985026966780424" lon="-4.418844971805811">
        <ele>52.049999999999997</ele>
        <time>2023-08-25T08:55:47Z</time>
      </trkpt>
      <trkpt lat="57.985106008127332" lon="-4.418670041486621">
        <ele>51.57</ele>
        <time>2023-08-25T08:55:48Z</time>
      </trkpt>
      <trkpt lat="57.985161999240518" lon="-4.418480023741722">
        <ele>52.049999999999997</ele>
        <time>2023-08-25T08:55:49Z</time>
      </trkpt>
      <trkpt lat="57.985226036980748" lon="-4.418264022096992">
        <ele>52.049999999999997</ele>
        <time>2023-08-25T08:55:50Z</time>
      </trkpt>
      <trkpt lat="57.985514039173722" lon="-4.417287027463317">
        <ele>50.609999999999999</ele>
        <time>2023-08-25T08:55:54Z</time>
      </trkpt>
      <trkpt lat="57.985872030258179" lon="-4.415964027866721">
        <ele>48.200000000000003</ele>
        <time>2023-08-25T08:55:59Z</time>
      </trkpt>
      <trkpt lat="57.985932966694236" lon="-4.415721036493778">
        <ele>47.719999999999999</ele>
        <time>2023-08-25T08:56:00Z</time>
      </trkpt>
      <trkpt lat="57.986613996326923" lon="-4.413996962830424">
        <ele>47.719999999999999</ele>
        <time>2023-08-25T08:56:08Z</time>
      </trkpt>
      <trkpt lat="57.986802002415061" lon="-4.413627991452813">
        <ele>47.240000000000002</ele>
        <time>2023-08-25T08:56:10Z</time>
      </trkpt>
      <trkpt lat="57.987339030951262" lon="-4.412711011245847">
        <ele>47.240000000000002</ele>
        <time>2023-08-25T08:56:15Z</time>
      </trkpt>
      <trkpt lat="57.98804797232151" lon="-4.411842981353402">
        <ele>49.159999999999997</ele>
        <time>2023-08-25T08:56:21Z</time>
      </trkpt>
      <trkpt lat="57.988170012831688" lon="-4.411727981641889">
        <ele>50.130000000000003</ele>
        <time>2023-08-25T08:56:22Z</time>
      </trkpt>
      <trkpt lat="57.988277971744537" lon="-4.411657992750406">
        <ele>51.57</ele>
        <time>2023-08-25T08:56:23Z</time>
      </trkpt>
      <trkpt lat="57.988394983112812" lon="-4.411583980545402">
        <ele>52.049999999999997</ele>
        <time>2023-08-25T08:56:24Z</time>
      </trkpt>
      <trkpt lat="57.988516017794609" lon="-4.411508962512016">
        <ele>52.530000000000001</ele>
        <time>2023-08-25T08:56:25Z</time>
      </trkpt>
      <trkpt lat="57.988633029162884" lon="-4.411487001925707">
        <ele>53.009999999999998</ele>
        <time>2023-08-25T08:56:26Z</time>
      </trkpt>
      <trkpt lat="57.988767977803946" lon="-4.411465963348746">
        <ele>53.490000000000002</ele>
        <time>2023-08-25T08:56:27Z</time>
      </trkpt>
      <trkpt lat="57.989602982997894" lon="-4.411335038021207">
        <ele>54.93</ele>
        <time>2023-08-25T08:56:33Z</time>
      </trkpt>
      <trkpt lat="57.989739021286368" lon="-4.411313999444246">
        <ele>55.409999999999997</ele>
        <time>2023-08-25T08:56:34Z</time>
      </trkpt>
      <trkpt lat="57.990971999242902" lon="-4.411093974485993">
        <ele>58.780000000000001</ele>
        <time>2023-08-25T08:56:44Z</time>
      </trkpt>
      <trkpt lat="57.991973971948028" lon="-4.410836985334754">
        <ele>62.140000000000001</ele>
        <time>2023-08-25T08:56:53Z</time>
      </trkpt>
      <trkpt lat="57.992083020508289" lon="-4.410808989778161">
        <ele>62.619999999999997</ele>
        <time>2023-08-25T08:56:54Z</time>
      </trkpt>
      <trkpt lat="57.992197014391422" lon="-4.410779988393188">
        <ele>63.100000000000001</ele>
        <time>2023-08-25T08:56:55Z</time>
      </trkpt>
      <trkpt lat="57.992749968543649" lon="-4.410639004781842">
        <ele>65.030000000000001</ele>
        <time>2023-08-25T08:57:00Z</time>
      </trkpt>
      <trkpt lat="57.992836972698569" lon="-4.410616038367152">
        <ele>65.510000000000005</ele>
        <time>2023-08-25T08:57:01Z</time>
      </trkpt>
      <trkpt lat="57.993088010698557" lon="-4.410552000626922">
        <ele>66.469999999999999</ele>
        <time>2023-08-25T08:57:04Z</time>
      </trkpt>
      <trkpt lat="57.993171997368336" lon="-4.410530040040612">
        <ele>66.469999999999999</ele>
        <time>2023-08-25T08:57:05Z</time>
      </trkpt>
      <trkpt lat="57.993256989866495" lon="-4.41050598397851">
        <ele>66.950000000000003</ele>
        <time>2023-08-25T08:57:06Z</time>
      </trkpt>
      <trkpt lat="57.993349023163319" lon="-4.410474970936775">
        <ele>67.430000000000007</ele>
        <time>2023-08-25T08:57:07Z</time>
      </trkpt>
      <trkpt lat="57.993444995954633" lon="-4.410443035885692">
        <ele>67.430000000000007</ele>
        <time>2023-08-25T08:57:08Z</time>
      </trkpt>
      <trkpt lat="57.993548009544611" lon="-4.410407999530435">
        <ele>67.430000000000007</ele>
        <time>2023-08-25T08:57:09Z</time>
      </trkpt>
      <trkpt lat="57.993657980114222" lon="-4.410372041165829">
        <ele>67.430000000000007</ele>
        <time>2023-08-25T08:57:10Z</time>
      </trkpt>
      <trkpt lat="57.993772979825735" lon="-4.41033398732543">
        <ele>67.430000000000007</ele>
        <time>2023-08-25T08:57:11Z</time>
      </trkpt>
      <trkpt lat="57.994422996416688" lon="-4.410116979852319">
        <ele>68.870000000000005</ele>
        <time>2023-08-25T08:57:17Z</time>
      </trkpt>
      <trkpt lat="57.994526010006666" lon="-4.410083033144474">
        <ele>69.349999999999994</ele>
        <time>2023-08-25T08:57:18Z</time>
      </trkpt>
      <trkpt lat="57.994969999417663" lon="-4.409935008734465">
        <ele>70.310000000000002</ele>
        <time>2023-08-25T08:57:22Z</time>
      </trkpt>
      <trkpt lat="57.995092961937189" lon="-4.409894021227956">
        <ele>70.790000000000006</ele>
        <time>2023-08-25T08:57:23Z</time>
      </trkpt>
      <trkpt lat="57.995221959426999" lon="-4.409851022064686">
        <ele>70.790000000000006</ele>
        <time>2023-08-25T08:57:24Z</time>
      </trkpt>
      <trkpt lat="57.995765022933483" lon="-4.409728981554508">
        <ele>71.760000000000005</ele>
        <time>2023-08-25T08:57:28Z</time>
      </trkpt>
      <trkpt lat="57.995896032080054" lon="-4.409734010696411">
        <ele>71.760000000000005</ele>
        <time>2023-08-25T08:57:29Z</time>
      </trkpt>
      <trkpt lat="57.996032992377877" lon="-4.409739039838314">
        <ele>72.239999999999995</ele>
        <time>2023-08-25T08:57:30Z</time>
      </trkpt>
      <trkpt lat="57.996174981817603" lon="-4.409743985161185">
        <ele>72.239999999999995</ele>
        <time>2023-08-25T08:57:31Z</time>
      </trkpt>
      <trkpt lat="57.996320994570851" lon="-4.409750020131469">
        <ele>72.719999999999999</ele>
        <time>2023-08-25T08:57:32Z</time>
      </trkpt>
      <trkpt lat="57.996625006198883" lon="-4.409761000424624">
        <ele>72.719999999999999</ele>
        <time>2023-08-25T08:57:34Z</time>
      </trkpt>
      <trkpt lat="57.998135006055236" lon="-4.409726969897747">
        <ele>75.599999999999994</ele>
        <time>2023-08-25T08:57:44Z</time>
      </trkpt>
      <trkpt lat="58.000227967277169" lon="-4.408924989402294">
        <ele>77.519999999999996</ele>
        <time>2023-08-25T08:57:57Z</time>
      </trkpt>
      <trkpt lat="58.001621039584279" lon="-4.408390978351235">
        <ele>77.519999999999996</ele>
        <time>2023-08-25T08:58:06Z</time>
      </trkpt>
      <trkpt lat="58.003102038055658" lon="-4.407760994508863">
        <ele>75.120000000000005</ele>
        <time>2023-08-25T08:58:16Z</time>
      </trkpt>
      <trkpt lat="58.004162013530731" lon="-4.407141990959644">
        <ele>76.079999999999998</ele>
        <time>2023-08-25T08:58:24Z</time>
      </trkpt>
      <trkpt lat="58.004277013242245" lon="-4.407033026218414">
        <ele>76.560000000000002</ele>
        <time>2023-08-25T08:58:25Z</time>
      </trkpt>
      <trkpt lat="58.004791997373104" lon="-4.406497003510594">
        <ele>77.519999999999996</ele>
        <time>2023-08-25T08:58:30Z</time>
      </trkpt>
      <trkpt lat="58.004876989871264" lon="-4.406408993527293">
        <ele>77.519999999999996</ele>
        <time>2023-08-25T08:58:31Z</time>
      </trkpt>
      <trkpt lat="58.005753988400102" lon="-4.405641965568066">
        <ele>77.519999999999996</ele>
        <time>2023-08-25T08:58:39Z</time>
      </trkpt>
      <trkpt lat="58.0074049718678" lon="-4.404374035075307">
        <ele>81.849999999999994</ele>
        <time>2023-08-25T08:58:51Z</time>
      </trkpt>
      <trkpt lat="58.008462013676763" lon="-4.403725024312735">
        <ele>81.849999999999994</ele>
        <time>2023-08-25T08:58:59Z</time>
      </trkpt>
      <trkpt lat="58.009987017139792" lon="-4.403048017993569">
        <ele>84.25</ele>
        <time>2023-08-25T08:59:11Z</time>
      </trkpt>
      <trkpt lat="58.010982032865286" lon="-4.402866968885064">
        <ele>86.659999999999997</ele>
        <time>2023-08-25T08:59:21Z</time>
      </trkpt>
      <trkpt lat="58.011398026719689" lon="-4.402897981926799">
        <ele>87.620000000000005</ele>
        <time>2023-08-25T08:59:25Z</time>
      </trkpt>
      <trkpt lat="58.011473966762424" lon="-4.402965037152171">
        <ele>88.099999999999994</ele>
        <time>2023-08-25T08:59:26Z</time>
      </trkpt>
      <trkpt lat="58.011546973139048" lon="-4.403050029650331">
        <ele>88.099999999999994</ele>
        <time>2023-08-25T08:59:27Z</time>
      </trkpt>
      <trkpt lat="58.011572035029531" lon="-4.403125969693065">
        <ele>88.579999999999998</ele>
        <time>2023-08-25T08:59:28Z</time>
      </trkpt>
      <trkpt lat="58.011598018929362" lon="-4.403204005211592">
        <ele>89.060000000000002</ele>
        <time>2023-08-25T08:59:29Z</time>
      </trkpt>
      <trkpt lat="58.011619979515672" lon="-4.403269970789552">
        <ele>89.060000000000002</ele>
        <time>2023-08-25T08:59:30Z</time>
      </trkpt>
      <trkpt lat="58.011640012264252" lon="-4.40332998521626">
        <ele>89.540000000000006</ele>
        <time>2023-08-25T08:59:31Z</time>
      </trkpt>
      <trkpt lat="58.011688962578773" lon="-4.403428975492716">
        <ele>89.540000000000006</ele>
        <time>2023-08-25T08:59:32Z</time>
      </trkpt>
      <trkpt lat="58.011746965348721" lon="-4.403397962450981">
        <ele>90.019999999999996</ele>
        <time>2023-08-25T08:59:33Z</time>
      </trkpt>
      <trkpt lat="58.011821983382106" lon="-4.403357980772853">
        <ele>90.019999999999996</ele>
        <time>2023-08-25T08:59:34Z</time>
      </trkpt>
      <trkpt lat="58.011914016678929" lon="-4.403310036286712">
        <ele>90.019999999999996</ele>
        <time>2023-08-25T08:59:35Z</time>
      </trkpt>
      <trkpt lat="58.012025998905301" lon="-4.403272988274694">
        <ele>90.019999999999996</ele>
        <time>2023-08-25T08:59:36Z</time>
      </trkpt>
      <trkpt lat="58.012137981131673" lon="-4.40330701880157">
        <ele>89.540000000000006</ele>
        <time>2023-08-25T08:59:37Z</time>
      </trkpt>
      <trkpt lat="58.012258009985089" lon="-4.403343982994556">
        <ele>89.060000000000002</ele>
        <time>2023-08-25T08:59:38Z</time>
      </trkpt>
      <trkpt lat="58.01238801330328" lon="-4.403383964672685">
        <ele>88.579999999999998</ele>
        <time>2023-08-25T08:59:39Z</time>
      </trkpt>
      <trkpt lat="58.013584027066827" lon="-4.404005985707045">
        <ele>83.290000000000006</ele>
        <time>2023-08-25T08:59:47Z</time>
      </trkpt>
      <trkpt lat="58.015198968350887" lon="-4.405161011964083">
        <ele>81.370000000000005</ele>
        <time>2023-08-25T08:59:57Z</time>
      </trkpt>
      <trkpt lat="58.016577959060669" lon="-4.406345039606094">
        <ele>82.810000000000002</ele>
        <time>2023-08-25T09:00:06Z</time>
      </trkpt>
      <trkpt lat="58.016822962090373" lon="-4.406503960490227">
        <ele>83.769999999999996</ele>
        <time>2023-08-25T09:00:08Z</time>
      </trkpt>
      <trkpt lat="58.016941985115409" lon="-4.406533967703581">
        <ele>83.769999999999996</ele>
        <time>2023-08-25T09:00:09Z</time>
      </trkpt>
      <trkpt lat="58.017058996483684" lon="-4.406562969088554">
        <ele>83.769999999999996</ele>
        <time>2023-08-25T09:00:10Z</time>
      </trkpt>
      <trkpt lat="58.017173996195197" lon="-4.406503038480878">
        <ele>83.769999999999996</ele>
        <time>2023-08-25T09:00:11Z</time>
      </trkpt>
      <trkpt lat="58.017283966764808" lon="-4.40642299130559">
        <ele>83.290000000000006</ele>
        <time>2023-08-25T09:00:12Z</time>
      </trkpt>
      <trkpt lat="58.017381029203534" lon="-4.406287958845496">
        <ele>83.290000000000006</ele>
        <time>2023-08-25T09:00:13Z</time>
      </trkpt>
      <trkpt lat="58.017477001994848" lon="-4.406119985505939">
        <ele>82.810000000000002</ele>
        <time>2023-08-25T09:00:14Z</time>
      </trkpt>
      <trkpt lat="58.017579009756446" lon="-4.405942959710956">
        <ele>82.810000000000002</ele>
        <time>2023-08-25T09:00:15Z</time>
      </trkpt>
      <trkpt lat="58.017973965033889" lon="-4.405250027775765">
        <ele>80.890000000000001</ele>
        <time>2023-08-25T09:00:19Z</time>
      </trkpt>
      <trkpt lat="58.018074966967106" lon="-4.405137039721012">
        <ele>80.409999999999997</ele>
        <time>2023-08-25T09:00:20Z</time>
      </trkpt>
      <trkpt lat="58.018184015527368" lon="-4.405042994767427">
        <ele>79.930000000000007</ele>
        <time>2023-08-25T09:00:21Z</time>
      </trkpt>
      <trkpt lat="58.018286023288965" lon="-4.404954984784126">
        <ele>79.450000000000003</ele>
        <time>2023-08-25T09:00:22Z</time>
      </trkpt>
      <trkpt lat="58.018385013565421" lon="-4.404922965914011">
        <ele>79.450000000000003</ele>
        <time>2023-08-25T09:00:23Z</time>
      </trkpt>
      <trkpt lat="58.018488027155399" lon="-4.404904022812843">
        <ele>79.450000000000003</ele>
        <time>2023-08-25T09:00:24Z</time>
      </trkpt>
      <trkpt lat="58.018588023260236" lon="-4.404884995892644">
        <ele>79.450000000000003</ele>
        <time>2023-08-25T09:00:25Z</time>
      </trkpt>
      <trkpt lat="58.018686007708311" lon="-4.404865968972445">
        <ele>79.450000000000003</ele>
        <time>2023-08-25T09:00:26Z</time>
      </trkpt>
      <trkpt lat="58.01958697848022" lon="-4.405044000595808">
        <ele>82.329999999999998</ele>
        <time>2023-08-25T09:00:36Z</time>
      </trkpt>
      <trkpt lat="58.019712958484888" lon="-4.405067972838879">
        <ele>82.329999999999998</ele>
        <time>2023-08-25T09:00:38Z</time>
      </trkpt>
      <trkpt lat="58.019760986790061" lon="-4.405077025294304">
        <ele>82.329999999999998</ele>
        <time>2023-08-25T09:00:39Z</time>
      </trkpt>
      <trkpt lat="58.019805997610092" lon="-4.405085993930697">
        <ele>82.329999999999998</ele>
        <time>2023-08-25T09:00:40Z</time>
      </trkpt>
      <trkpt lat="58.019837010651827" lon="-4.405092028900981">
        <ele>82.329999999999998</ele>
        <time>2023-08-25T09:00:41Z</time>
      </trkpt>
      <trkpt lat="58.019857965409756" lon="-4.405095968395472">
        <ele>82.329999999999998</ele>
        <time>2023-08-25T09:00:42Z</time>
      </trkpt>
      <trkpt lat="58.019872969016433" lon="-4.405098985880613">
        <ele>82.810000000000002</ele>
        <time>2023-08-25T09:00:43Z</time>
      </trkpt>
      <trkpt lat="58.019885038957" lon="-4.405100997537375">
        <ele>82.810000000000002</ele>
        <time>2023-08-25T09:00:44Z</time>
      </trkpt>
      <trkpt lat="58.019885038957" lon="-4.405100997537375">
        <ele>82.329999999999998</ele>
        <time>2023-08-25T09:00:56Z</time>
      </trkpt>
      <trkpt lat="58.019885038957" lon="-4.405100997537375">
        <ele>82.329999999999998</ele>
        <time>2023-08-25T09:01:39Z</time>
      </trkpt>
      <trkpt lat="58.019967013970017" lon="-4.405332002788782">
        <ele>79.450000000000003</ele>
        <time>2023-08-25T09:03:39Z</time>
      </trkpt>
      <trkpt lat="58.01995100453496" lon="-4.405336026102305">
        <ele>77.519999999999996</ele>
        <time>2023-08-25T09:04:03Z</time>
      </trkpt>
      <trkpt lat="58.020001966506243" lon="-4.40530501306057">
        <ele>80.890000000000001</ele>
        <time>2023-08-25T09:04:30Z</time>
      </trkpt>
      <trkpt lat="58.020051000639796" lon="-4.405282968655229">
        <ele>82.810000000000002</ele>
        <time>2023-08-25T09:05:11Z</time>
      </trkpt>
      <trkpt lat="58.020062986761332" lon="-4.405268970876932">
        <ele>88.579999999999998</ele>
        <time>2023-08-25T09:06:02Z</time>
      </trkpt>
      <trkpt lat="58.020062986761332" lon="-4.405268970876932">
        <ele>88.579999999999998</ele>
        <time>2023-08-25T09:06:10Z</time>
      </trkpt>
      <trkpt lat="58.02008000202477" lon="-4.405208034440875">
        <ele>87.620000000000005</ele>
        <time>2023-08-25T09:06:25Z</time>
      </trkpt>
      <trkpt lat="58.020072961226106" lon="-4.405205016955733">
        <ele>87.140000000000001</ele>
        <time>2023-08-25T09:07:15Z</time>
      </trkpt>
      <trkpt lat="58.020070027559996" lon="-4.40519998781383">
        <ele>87.140000000000001</ele>
        <time>2023-08-25T09:08:05Z</time>
      </trkpt>
      <trkpt lat="58.020129958167672" lon="-4.405065039172769">
        <ele>85.209999999999994</ele>
        <time>2023-08-25T09:08:13Z</time>
      </trkpt>
      <trkpt lat="58.02018603309989" lon="-4.405021034181118">
        <ele>85.209999999999994</ele>
        <time>2023-08-25T09:08:14Z</time>
      </trkpt>
      <trkpt lat="58.020245963707566" lon="-4.404959008097649">
        <ele>84.730000000000004</ele>
        <time>2023-08-25T09:08:15Z</time>
      </trkpt>
      <trkpt lat="58.020281000062823" lon="-4.404863035306335">
        <ele>84.730000000000004</ele>
        <time>2023-08-25T09:08:16Z</time>
      </trkpt>
      <trkpt lat="58.020311007276177" lon="-4.404758010059595">
        <ele>84.25</ele>
        <time>2023-08-25T09:08:17Z</time>
      </trkpt>
      <trkpt lat="58.020331962034106" lon="-4.404642004519701">
        <ele>83.769999999999996</ele>
        <time>2023-08-25T09:08:18Z</time>
      </trkpt>
      <trkpt lat="58.020355012267828" lon="-4.404521975666285">
        <ele>83.290000000000006</ele>
        <time>2023-08-25T09:08:19Z</time>
      </trkpt>
      <trkpt lat="58.020417038351297" lon="-4.404185023158789">
        <ele>82.810000000000002</ele>
        <time>2023-08-25T09:08:22Z</time>
      </trkpt>
      <trkpt lat="58.020430030301213" lon="-4.404113022610545">
        <ele>82.810000000000002</ele>
        <time>2023-08-25T09:08:23Z</time>
      </trkpt>
      <trkpt lat="58.020501025021076" lon="-4.404003974050283">
        <ele>82.810000000000002</ele>
        <time>2023-08-25T09:08:24Z</time>
      </trkpt>
      <trkpt lat="58.020555004477501" lon="-4.404015960171819">
        <ele>82.810000000000002</ele>
        <time>2023-08-25T09:08:25Z</time>
      </trkpt>
      <trkpt lat="58.020625999197364" lon="-4.404030963778496">
        <ele>82.810000000000002</ele>
        <time>2023-08-25T09:08:26Z</time>
      </trkpt>
      <trkpt lat="58.020709985867143" lon="-4.404047979041934">
        <ele>82.810000000000002</ele>
        <time>2023-08-25T09:08:27Z</time>
      </trkpt>
      <trkpt lat="58.021505009382963" lon="-4.404173959046602">
        <ele>81.370000000000005</ele>
        <time>2023-08-25T09:08:34Z</time>
      </trkpt>
      <trkpt lat="58.02162797190249" lon="-4.404141018167138">
        <ele>80.890000000000001</ele>
        <time>2023-08-25T09:08:35Z</time>
      </trkpt>
      <trkpt lat="58.022870002314448" lon="-4.403225965797901">
        <ele>82.329999999999998</ele>
        <time>2023-08-25T09:08:45Z</time>
      </trkpt>
      <trkpt lat="58.023902988061309" lon="-4.402333041653037">
        <ele>81.849999999999994</ele>
        <time>2023-08-25T09:08:53Z</time>
      </trkpt>
      <trkpt lat="58.025251971557736" lon="-4.401617981493473">
        <ele>83.290000000000006</ele>
        <time>2023-08-25T09:09:03Z</time>
      </trkpt>
      <trkpt lat="58.026109021157026" lon="-4.401424024254084">
        <ele>84.730000000000004</ele>
        <time>2023-08-25T09:09:11Z</time>
      </trkpt>
      <trkpt lat="58.026343965902925" lon="-4.401435004547238">
        <ele>85.209999999999994</ele>
        <time>2023-08-25T09:09:14Z</time>
      </trkpt>
      <trkpt lat="58.02641998976469" lon="-4.401457970961928">
        <ele>85.209999999999994</ele>
        <time>2023-08-25T09:09:15Z</time>
      </trkpt>
      <trkpt lat="58.02650598809123" lon="-4.401487978175283">
        <ele>85.209999999999994</ele>
        <time>2023-08-25T09:09:16Z</time>
      </trkpt>
      <trkpt lat="58.0265680141747" lon="-4.401582023128867">
        <ele>85.209999999999994</ele>
        <time>2023-08-25T09:09:17Z</time>
      </trkpt>
      <trkpt lat="58.026615958660841" lon="-4.401710014790297">
        <ele>85.209999999999994</ele>
        <time>2023-08-25T09:09:18Z</time>
      </trkpt>
      <trkpt lat="58.026653006672859" lon="-4.401841023936868">
        <ele>85.209999999999994</ele>
        <time>2023-08-25T09:09:19Z</time>
      </trkpt>
      <trkpt lat="58.026690976694226" lon="-4.401977984234691">
        <ele>85.209999999999994</ele>
        <time>2023-08-25T09:09:20Z</time>
      </trkpt>
      <trkpt lat="58.026946960017085" lon="-4.402893036603928">
        <ele>86.180000000000007</ele>
        <time>2023-08-25T09:09:27Z</time>
      </trkpt>
      <trkpt lat="58.027026001363993" lon="-4.403124041855335">
        <ele>86.180000000000007</ele>
        <time>2023-08-25T09:09:29Z</time>
      </trkpt>
      <trkpt lat="58.027087021619081" lon="-4.403229989111424">
        <ele>86.180000000000007</ele>
        <time>2023-08-25T09:09:30Z</time>
      </trkpt>
      <trkpt lat="58.027210989966989" lon="-4.403450014069676">
        <ele>86.659999999999997</ele>
        <time>2023-08-25T09:09:32Z</time>
      </trkpt>
      <trkpt lat="58.027275027707219" lon="-4.403564007952809">
        <ele>86.659999999999997</ele>
        <time>2023-08-25T09:09:33Z</time>
      </trkpt>
      <trkpt lat="58.027871986851096" lon="-4.404701013118029">
        <ele>86.180000000000007</ele>
        <time>2023-08-25T09:09:42Z</time>
      </trkpt>
      <trkpt lat="58.02807399071753" lon="-4.405412971973419">
        <ele>86.659999999999997</ele>
        <time>2023-08-25T09:09:47Z</time>
      </trkpt>
      <trkpt lat="58.028107015416026" lon="-4.405597038567066">
        <ele>86.659999999999997</ele>
        <time>2023-08-25T09:09:48Z</time>
      </trkpt>
      <trkpt lat="58.028384959325194" lon="-4.407189013436437">
        <ele>87.140000000000001</ele>
        <time>2023-08-25T09:09:56Z</time>
      </trkpt>
      <trkpt lat="58.028915030881763" lon="-4.409220032393932">
        <ele>88.099999999999994</ele>
        <time>2023-08-25T09:10:06Z</time>
      </trkpt>
      <trkpt lat="58.029819019138813" lon="-4.410972017794848">
        <ele>90.980000000000004</ele>
        <time>2023-08-25T09:10:15Z</time>
      </trkpt>
      <trkpt lat="58.030343977734447" lon="-4.412040961906314">
        <ele>91.459999999999994</ele>
        <time>2023-08-25T09:10:20Z</time>
      </trkpt>
      <trkpt lat="58.03041597828269" lon="-4.412294011563063">
        <ele>91.459999999999994</ele>
        <time>2023-08-25T09:10:21Z</time>
      </trkpt>
      <trkpt lat="58.030492002144456" lon="-4.412558041512966">
        <ele>91.459999999999994</ele>
        <time>2023-08-25T09:10:22Z</time>
      </trkpt>
      <trkpt lat="58.03056500852108" lon="-4.412827016785741">
        <ele>91.939999999999998</ele>
        <time>2023-08-25T09:10:23Z</time>
      </trkpt>
      <trkpt lat="58.030616976320744" lon="-4.413112001493573">
        <ele>92.420000000000002</ele>
        <time>2023-08-25T09:10:24Z</time>
      </trkpt>
      <trkpt lat="58.031010003760457" lon="-4.415120976045728">
        <ele>92.900000000000006</ele>
        <time>2023-08-25T09:10:31Z</time>
      </trkpt>
      <trkpt lat="58.031116034835577" lon="-4.415353992953897">
        <ele>92.900000000000006</ele>
        <time>2023-08-25T09:10:32Z</time>
      </trkpt>
      <trkpt lat="58.031838973984122" lon="-4.417187031358481">
        <ele>90.5</ele>
        <time>2023-08-25T09:10:39Z</time>
      </trkpt>
      <trkpt lat="58.03189798258245" lon="-4.41748802550137">
        <ele>90.019999999999996</ele>
        <time>2023-08-25T09:10:40Z</time>
      </trkpt>
      <trkpt lat="58.032067967578769" lon="-4.418365024030209">
        <ele>89.540000000000006</ele>
        <time>2023-08-25T09:10:43Z</time>
      </trkpt>
      <trkpt lat="58.032135022804141" lon="-4.418636010959745">
        <ele>89.540000000000006</ele>
        <time>2023-08-25T09:10:44Z</time>
      </trkpt>
      <trkpt lat="58.032212974503636" lon="-4.418891994282603">
        <ele>89.540000000000006</ele>
        <time>2023-08-25T09:10:45Z</time>
      </trkpt>
      <trkpt lat="58.032320011407137" lon="-4.419115036725998">
        <ele>89.540000000000006</ele>
        <time>2023-08-25T09:10:46Z</time>
      </trkpt>
      <trkpt lat="58.032426964491606" lon="-4.419337995350361">
        <ele>89.540000000000006</ele>
        <time>2023-08-25T09:10:47Z</time>
      </trkpt>
      <trkpt lat="58.032553028315306" lon="-4.419531030580401">
        <ele>89.540000000000006</ele>
        <time>2023-08-25T09:10:48Z</time>
      </trkpt>
      <trkpt lat="58.033926989883184" lon="-4.421482002362609">
        <ele>89.060000000000002</ele>
        <time>2023-08-25T09:10:58Z</time>
      </trkpt>
      <trkpt lat="58.035131972283125" lon="-4.422722021117806">
        <ele>90.5</ele>
        <time>2023-08-25T09:11:06Z</time>
      </trkpt>
      <trkpt lat="58.036536024883389" lon="-4.424032028764486">
        <ele>90.019999999999996</ele>
        <time>2023-08-25T09:11:15Z</time>
      </trkpt>
      <trkpt lat="58.037790963426232" lon="-4.424698976799846">
        <ele>90.980000000000004</ele>
        <time>2023-08-25T09:11:23Z</time>
      </trkpt>
      <trkpt lat="58.038431005552411" lon="-4.424978010356426">
        <ele>91.939999999999998</ele>
        <time>2023-08-25T09:11:27Z</time>
      </trkpt>
      <trkpt lat="58.039841009303927" lon="-4.424837026745081">
        <ele>93.870000000000005</ele>
        <time>2023-08-25T09:11:36Z</time>
      </trkpt>
      <trkpt lat="58.041022019460797" lon="-4.424531003460288">
        <ele>95.310000000000002</ele>
        <time>2023-08-25T09:11:43Z</time>
      </trkpt>
      <trkpt lat="58.041198961436749" lon="-4.424484986811876">
        <ele>95.310000000000002</ele>
        <time>2023-08-25T09:11:44Z</time>
      </trkpt>
      <trkpt lat="58.042803006246686" lon="-4.424048038199544">
        <ele>97.230000000000004</ele>
        <time>2023-08-25T09:11:53Z</time>
      </trkpt>
      <trkpt lat="58.043505996465683" lon="-4.423745032399893">
        <ele>98.189999999999998</ele>
        <time>2023-08-25T09:11:57Z</time>
      </trkpt>
      <trkpt lat="58.043677993118763" lon="-4.423671020194888">
        <ele>98.670000000000002</ele>
        <time>2023-08-25T09:11:58Z</time>
      </trkpt>
      <trkpt lat="58.044181996956468" lon="-4.423380000516772">
        <ele>99.629999999999995</ele>
        <time>2023-08-25T09:12:01Z</time>
      </trkpt>
      <trkpt lat="58.044343013316393" lon="-4.423262989148498">
        <ele>99.629999999999995</ele>
        <time>2023-08-25T09:12:02Z</time>
      </trkpt>
      <trkpt lat="58.044505035504699" lon="-4.423146983608604">
        <ele>99.629999999999995</ele>
        <time>2023-08-25T09:12:03Z</time>
      </trkpt>
      <trkpt lat="58.044674014672637" lon="-4.423026032745838">
        <ele>99.629999999999995</ele>
        <time>2023-08-25T09:12:04Z</time>
      </trkpt>
      <trkpt lat="58.044837964698672" lon="-4.422907009720802">
        <ele>100.11</ele>
        <time>2023-08-25T09:12:05Z</time>
      </trkpt>
      <trkpt lat="58.045677999034524" lon="-4.422496967017651">
        <ele>100.11</ele>
        <time>2023-08-25T09:12:10Z</time>
      </trkpt>
      <trkpt lat="58.046918017789721" lon="-4.4220419973135">
        <ele>99.150000000000006</ele>
        <time>2023-08-25T09:12:17Z</time>
      </trkpt>
      <trkpt lat="58.049123967066407" lon="-4.421321991831064">
        <ele>95.790000000000006</ele>
        <time>2023-08-25T09:12:29Z</time>
      </trkpt>
      <trkpt lat="58.052697004750371" lon="-4.420155985280871">
        <ele>93.870000000000005</ele>
        <time>2023-08-25T09:12:48Z</time>
      </trkpt>
      <trkpt lat="58.055000016465783" lon="-4.419377977028489">
        <ele>96.269999999999996</ele>
        <time>2023-08-25T09:13:00Z</time>
      </trkpt>
      <trkpt lat="58.05546403862536" lon="-4.419202962890267">
        <ele>97.230000000000004</ele>
        <time>2023-08-25T09:13:04Z</time>
      </trkpt>
      <trkpt lat="58.055515000596642" lon="-4.4191840197891">
        <ele>97.709999999999994</ele>
        <time>2023-08-25T09:13:05Z</time>
      </trkpt>
      <trkpt lat="58.05563704110682" lon="-4.419390968978405">
        <ele>97.709999999999994</ele>
        <time>2023-08-25T09:13:06Z</time>
      </trkpt>
      <trkpt lat="58.055647015571594" lon="-4.419533964246512">
        <ele>97.709999999999994</ele>
        <time>2023-08-25T09:13:07Z</time>
      </trkpt>
      <trkpt lat="58.05565900169313" lon="-4.419707972556353">
        <ele>98.189999999999998</ele>
        <time>2023-08-25T09:13:08Z</time>
      </trkpt>
      <trkpt lat="58.055671993643045" lon="-4.419911988079548">
        <ele>98.189999999999998</ele>
        <time>2023-08-25T09:13:09Z</time>
      </trkpt>
      <trkpt lat="58.055820018053055" lon="-4.422436030581594">
        <ele>95.310000000000002</ele>
        <time>2023-08-25T09:13:19Z</time>
      </trkpt>
      <trkpt lat="58.055943986400962" lon="-4.424149040132761">
        <ele>94.349999999999994</ele>
        <time>2023-08-25T09:13:25Z</time>
      </trkpt>
      <trkpt lat="58.055974999442697" lon="-4.424431007355452">
        <ele>94.349999999999994</ele>
        <time>2023-08-25T09:13:26Z</time>
      </trkpt>
      <trkpt lat="58.056569024920464" lon="-4.427442038431764">
        <ele>92.420000000000002</ele>
        <time>2023-08-25T09:13:37Z</time>
      </trkpt>
      <trkpt lat="58.056925004348159" lon="-4.429245991632342">
        <ele>91.459999999999994</ele>
        <time>2023-08-25T09:13:43Z</time>
      </trkpt>
      <trkpt lat="58.05701301433146" lon="-4.42949702963233">
        <ele>90.980000000000004</ele>
        <time>2023-08-25T09:13:44Z</time>
      </trkpt>
      <trkpt lat="58.057098006829619" lon="-4.429729962721467">
        <ele>90.980000000000004</ele>
        <time>2023-08-25T09:13:45Z</time>
      </trkpt>
      <trkpt lat="58.057535039260983" lon="-4.430673010647297">
        <ele>92.420000000000002</ele>
        <time>2023-08-25T09:13:51Z</time>
      </trkpt>
      <trkpt lat="58.058140967041254" lon="-4.432044960558415">
        <ele>94.349999999999994</ele>
        <time>2023-08-25T09:13:59Z</time>
      </trkpt>
      <trkpt lat="58.058224031701684" lon="-4.432324999943376">
        <ele>95.310000000000002</ele>
        <time>2023-08-25T09:14:01Z</time>
      </trkpt>
      <trkpt lat="58.058241968974471" lon="-4.432447962462902">
        <ele>95.310000000000002</ele>
        <time>2023-08-25T09:14:02Z</time>
      </trkpt>
      <trkpt lat="58.058256972581148" lon="-4.432556005194783">
        <ele>94.829999999999998</ele>
        <time>2023-08-25T09:14:03Z</time>
      </trkpt>
      <trkpt lat="58.058213973417878" lon="-4.432666981592774">
        <ele>94.829999999999998</ele>
        <time>2023-08-25T09:14:04Z</time>
      </trkpt>
      <trkpt lat="58.058160999789834" lon="-4.432774018496275">
        <ele>94.829999999999998</ele>
        <time>2023-08-25T09:14:05Z</time>
      </trkpt>
      <trkpt lat="58.058096040040255" lon="-4.432877032086253">
        <ele>94.829999999999998</ele>
        <time>2023-08-25T09:14:06Z</time>
      </trkpt>
      <trkpt lat="58.058011969551444" lon="-4.43298096768558">
        <ele>94.829999999999998</ele>
        <time>2023-08-25T09:14:07Z</time>
      </trkpt>
      <trkpt lat="58.057919014245272" lon="-4.433094039559364">
        <ele>94.349999999999994</ele>
        <time>2023-08-25T09:14:08Z</time>
      </trkpt>
      <trkpt lat="58.056939002126455" lon="-4.434364987537265">
        <ele>93.870000000000005</ele>
        <time>2023-08-25T09:14:17Z</time>
      </trkpt>
      <trkpt lat="58.056858032941818" lon="-4.434533966705203">
        <ele>93.870000000000005</ele>
        <time>2023-08-25T09:14:18Z</time>
      </trkpt>
      <trkpt lat="58.056775974109769" lon="-4.434704035520554">
        <ele>93.870000000000005</ele>
        <time>2023-08-25T09:14:19Z</time>
      </trkpt>
      <trkpt lat="58.056711014360189" lon="-4.43488902412355">
        <ele>93.390000000000001</ele>
        <time>2023-08-25T09:14:20Z</time>
      </trkpt>
      <trkpt lat="58.056657034903765" lon="-4.435106031596661">
        <ele>93.390000000000001</ele>
        <time>2023-08-25T09:14:21Z</time>
      </trkpt>
      <trkpt lat="58.05660598911345" lon="-4.435323039069772">
        <ele>93.390000000000001</ele>
        <time>2023-08-25T09:14:22Z</time>
      </trkpt>
      <trkpt lat="58.05658302269876" lon="-4.435558989644051">
        <ele>93.390000000000001</ele>
        <time>2023-08-25T09:14:23Z</time>
      </trkpt>
      <trkpt lat="58.056560978293419" lon="-4.435789994895458">
        <ele>92.900000000000006</ele>
        <time>2023-08-25T09:14:24Z</time>
      </trkpt>
      <trkpt lat="58.056460982188582" lon="-4.437237968668342">
        <ele>92.900000000000006</ele>
        <time>2023-08-25T09:14:30Z</time>
      </trkpt>
      <trkpt lat="58.056474979966879" lon="-4.437476014718413">
        <ele>92.420000000000002</ele>
        <time>2023-08-25T09:14:31Z</time>
      </trkpt>
      <trkpt lat="58.056505993008614" lon="-4.437715988606215">
        <ele>92.420000000000002</ele>
        <time>2023-08-25T09:14:32Z</time>
      </trkpt>
      <trkpt lat="58.056537006050348" lon="-4.437951017171145">
        <ele>92.420000000000002</ele>
        <time>2023-08-25T09:14:33Z</time>
      </trkpt>
      <trkpt lat="58.056591991335154" lon="-4.438151009380817">
        <ele>92.420000000000002</ele>
        <time>2023-08-25T09:14:34Z</time>
      </trkpt>
      <trkpt lat="58.056659968569875" lon="-4.438354019075632">
        <ele>91.939999999999998</ele>
        <time>2023-08-25T09:14:35Z</time>
      </trkpt>
      <trkpt lat="58.056731969118118" lon="-4.438547976315022">
        <ele>91.939999999999998</ele>
        <time>2023-08-25T09:14:36Z</time>
      </trkpt>
      <trkpt lat="58.056829031556845" lon="-4.438708992674947">
        <ele>91.939999999999998</ele>
        <time>2023-08-25T09:14:37Z</time>
      </trkpt>
      <trkpt lat="58.056928021833301" lon="-4.438875038176775">
        <ele>91.939999999999998</ele>
        <time>2023-08-25T09:14:38Z</time>
      </trkpt>
      <trkpt lat="58.057029023766518" lon="-4.439042005687952">
        <ele>91.459999999999994</ele>
        <time>2023-08-25T09:14:39Z</time>
      </trkpt>
      <trkpt lat="58.05819695815444" lon="-4.440911002457142">
        <ele>91.939999999999998</ele>
        <time>2023-08-25T09:14:49Z</time>
      </trkpt>
      <trkpt lat="58.059318959712982" lon="-4.442639015614986">
        <ele>93.870000000000005</ele>
        <time>2023-08-25T09:14:58Z</time>
      </trkpt>
      <trkpt lat="58.060699040070176" lon="-4.444513041526079">
        <ele>95.790000000000006</ele>
        <time>2023-08-25T09:15:08Z</time>
      </trkpt>
      <trkpt lat="58.06129097007215" lon="-4.445162974298">
        <ele>96.269999999999996</ele>
        <time>2023-08-25T09:15:12Z</time>
      </trkpt>
      <trkpt lat="58.061441006138921" lon="-4.445327008143067">
        <ele>96.269999999999996</ele>
        <time>2023-08-25T09:15:13Z</time>
      </trkpt>
      <trkpt lat="58.062874982133508" lon="-4.446903979405761">
        <ele>99.629999999999995</ele>
        <time>2023-08-25T09:15:24Z</time>
      </trkpt>
      <trkpt lat="58.064173003658652" lon="-4.448330998420715">
        <ele>99.150000000000006</ele>
        <time>2023-08-25T09:15:34Z</time>
      </trkpt>
      <trkpt lat="58.065716028213501" lon="-4.450341984629631">
        <ele>97.709999999999994</ele>
        <time>2023-08-25T09:15:45Z</time>
      </trkpt>
      <trkpt lat="58.067594999447465" lon="-4.453183030709624">
        <ele>97.709999999999994</ele>
        <time>2023-08-25T09:15:58Z</time>
      </trkpt>
      <trkpt lat="58.069387972354889" lon="-4.456195989623666">
        <ele>97.230000000000004</ele>
        <time>2023-08-25T09:16:12Z</time>
      </trkpt>
      <trkpt lat="58.071073992177844" lon="-4.459027983248234">
        <ele>97.709999999999994</ele>
        <time>2023-08-25T09:16:25Z</time>
      </trkpt>
      <trkpt lat="58.072154000401497" lon="-4.460510993376374">
        <ele>96.75</ele>
        <time>2023-08-25T09:16:33Z</time>
      </trkpt>
      <trkpt lat="58.073365017771721" lon="-4.462015964090824">
        <ele>96.269999999999996</ele>
        <time>2023-08-25T09:16:42Z</time>
      </trkpt>
      <trkpt lat="58.073585964739323" lon="-4.462433969601989">
        <ele>96.269999999999996</ele>
        <time>2023-08-25T09:16:44Z</time>
      </trkpt>
      <trkpt lat="58.0739860329777" lon="-4.46331599727273">
        <ele>97.230000000000004</ele>
        <time>2023-08-25T09:16:48Z</time>
      </trkpt>
      <trkpt lat="58.07420102879405" lon="-4.463869035243988">
        <ele>98.670000000000002</ele>
        <time>2023-08-25T09:16:51Z</time>
      </trkpt>
      <trkpt lat="58.074231036007404" lon="-4.463947992771864">
        <ele>98.670000000000002</ele>
        <time>2023-08-25T09:16:52Z</time>
      </trkpt>
      <trkpt lat="58.074252996593714" lon="-4.46400498971343">
        <ele>99.150000000000006</ele>
        <time>2023-08-25T09:16:53Z</time>
      </trkpt>
      <trkpt lat="58.074275040999055" lon="-4.464061986654997">
        <ele>99.150000000000006</ele>
        <time>2023-08-25T09:16:54Z</time>
      </trkpt>
      <trkpt lat="58.074298007413745" lon="-4.464122001081705">
        <ele>99.629999999999995</ele>
        <time>2023-08-25T09:16:55Z</time>
      </trkpt>
      <trkpt lat="58.074328014627099" lon="-4.464200958609581">
        <ele>99.629999999999995</ele>
        <time>2023-08-25T09:16:56Z</time>
      </trkpt>
      <trkpt lat="58.074364978820086" lon="-4.464288968592882">
        <ele>100.11</ele>
        <time>2023-08-25T09:16:57Z</time>
      </trkpt>
      <trkpt lat="58.074410995468497" lon="-4.464370021596551">
        <ele>100.59999999999999</ele>
        <time>2023-08-25T09:16:58Z</time>
      </trkpt>
      <trkpt lat="58.074901001527905" lon="-4.465230004861951">
        <ele>100.59999999999999</ele>
        <time>2023-08-25T09:17:04Z</time>
      </trkpt>
      <trkpt lat="58.075887970626354" lon="-4.467152981087565">
        <ele>98.670000000000002</ele>
        <time>2023-08-25T09:17:13Z</time>
      </trkpt>
      <trkpt lat="58.076916011050344" lon="-4.468914018943906">
        <ele>96.75</ele>
        <time>2023-08-25T09:17:22Z</time>
      </trkpt>
      <trkpt lat="58.078125016763806" lon="-4.470337014645338">
        <ele>94.829999999999998</ele>
        <time>2023-08-25T09:17:31Z</time>
      </trkpt>
      <trkpt lat="58.079183986410499" lon="-4.471357008442283">
        <ele>94.829999999999998</ele>
        <time>2023-08-25T09:17:39Z</time>
      </trkpt>
      <trkpt lat="58.080537999048829" lon="-4.472657041624188">
        <ele>97.230000000000004</ele>
        <time>2023-08-25T09:17:48Z</time>
      </trkpt>
      <trkpt lat="58.082400960847735" lon="-4.474750002846122">
        <ele>100.59999999999999</ele>
        <time>2023-08-25T09:18:01Z</time>
      </trkpt>
      <trkpt lat="58.083714991807938" lon="-4.476568037644029">
        <ele>102.52</ele>
        <time>2023-08-25T09:18:11Z</time>
      </trkpt>
      <trkpt lat="58.083931999281049" lon="-4.4768319837749">
        <ele>103</ele>
        <time>2023-08-25T09:18:14Z</time>
      </trkpt>
      <trkpt lat="58.084006011486053" lon="-4.476922005414963">
        <ele>104.44</ele>
        <time>2023-08-25T09:18:25Z</time>
      </trkpt>
      <trkpt lat="58.084560977295041" lon="-4.477507984265685">
        <ele>104.92</ele>
        <time>2023-08-25T09:18:31Z</time>
      </trkpt>
      <trkpt lat="58.085893029347062" lon="-4.478779016062617">
        <ele>103.48</ele>
        <time>2023-08-25T09:18:40Z</time>
      </trkpt>
      <trkpt lat="58.086919980123639" lon="-4.479760034009814">
        <ele>103</ele>
        <time>2023-08-25T09:18:47Z</time>
      </trkpt>
      <trkpt lat="58.088667020201683" lon="-4.48142702691257">
        <ele>100.59999999999999</ele>
        <time>2023-08-25T09:18:58Z</time>
      </trkpt>
      <trkpt lat="58.089734958484769" lon="-4.482813980430365">
        <ele>99.150000000000006</ele>
        <time>2023-08-25T09:19:06Z</time>
      </trkpt>
      <trkpt lat="58.091330034658313" lon="-4.485222017392516">
        <ele>97.709999999999994</ele>
        <time>2023-08-25T09:19:18Z</time>
      </trkpt>
      <trkpt lat="58.092537028715014" lon="-4.487258987501264">
        <ele>98.670000000000002</ele>
        <time>2023-08-25T09:19:28Z</time>
      </trkpt>
      <trkpt lat="58.093040026724339" lon="-4.487973041832447">
        <ele>98.670000000000002</ele>
        <time>2023-08-25T09:19:32Z</time>
      </trkpt>
      <trkpt lat="58.094754964113235" lon="-4.489623019471765">
        <ele>102.04000000000001</ele>
        <time>2023-08-25T09:19:43Z</time>
      </trkpt>
      <trkpt lat="58.095744028687477" lon="-4.490513009950519">
        <ele>100.59999999999999</ele>
        <time>2023-08-25T09:19:50Z</time>
      </trkpt>
      <trkpt lat="58.095886018127203" lon="-4.490633960813284">
        <ele>100.59999999999999</ele>
        <time>2023-08-25T09:19:51Z</time>
      </trkpt>
      <trkpt lat="58.096318021416664" lon="-4.490791959688067">
        <ele>99.629999999999995</ele>
        <time>2023-08-25T09:19:54Z</time>
      </trkpt>
      <trkpt lat="58.096897965297103" lon="-4.491015002131462">
        <ele>96.269999999999996</ele>
        <time>2023-08-25T09:19:58Z</time>
      </trkpt>
      <trkpt lat="58.097044983878732" lon="-4.491104017943144">
        <ele>95.790000000000006</ele>
        <time>2023-08-25T09:19:59Z</time>
      </trkpt>
      <trkpt lat="58.097193008288741" lon="-4.491194039583206">
        <ele>95.310000000000002</ele>
        <time>2023-08-25T09:20:00Z</time>
      </trkpt>
      <trkpt lat="58.098516007885337" lon="-4.492605971172452">
        <ele>97.230000000000004</ele>
        <time>2023-08-25T09:20:10Z</time>
      </trkpt>
      <trkpt lat="58.099589981138706" lon="-4.493921007961035">
        <ele>101.08</ele>
        <time>2023-08-25T09:20:19Z</time>
      </trkpt>
      <trkpt lat="58.099710009992123" lon="-4.494068026542664">
        <ele>100.59999999999999</ele>
        <time>2023-08-25T09:20:20Z</time>
      </trkpt>
      <trkpt lat="58.100698990747333" lon="-4.495303016155958">
        <ele>94.829999999999998</ele>
        <time>2023-08-25T09:20:28Z</time>
      </trkpt>
      <trkpt lat="58.100809967145324" lon="-4.495463026687503">
        <ele>94.829999999999998</ele>
        <time>2023-08-25T09:20:29Z</time>
      </trkpt>
      <trkpt lat="58.10110199265182" lon="-4.495882960036397">
        <ele>96.269999999999996</ele>
        <time>2023-08-25T09:20:33Z</time>
      </trkpt>
      <trkpt lat="58.101632986217737" lon="-4.496646970510483">
        <ele>97.709999999999994</ele>
        <time>2023-08-25T09:20:40Z</time>
      </trkpt>
      <trkpt lat="58.102516019716859" lon="-4.497916996479034">
        <ele>100.11</ele>
        <time>2023-08-25T09:20:47Z</time>
      </trkpt>
      <trkpt lat="58.103828961029649" lon="-4.499986991286278">
        <ele>105.88</ele>
        <time>2023-08-25T09:20:57Z</time>
      </trkpt>
      <trkpt lat="58.105353964492679" lon="-4.502532994374633">
        <ele>111.65000000000001</ele>
        <time>2023-08-25T09:21:07Z</time>
      </trkpt>
      <trkpt lat="58.107592016458511" lon="-4.506539041176438">
        <ele>115.98</ele>
        <time>2023-08-25T09:21:22Z</time>
      </trkpt>
      <trkpt lat="58.108593989163637" lon="-4.508332014083862">
        <ele>117.42</ele>
        <time>2023-08-25T09:21:30Z</time>
      </trkpt>
      <trkpt lat="58.109841970726848" lon="-4.510565036907792">
        <ele>122.22</ele>
        <time>2023-08-25T09:21:42Z</time>
      </trkpt>
      <trkpt lat="58.111623963341117" lon="-4.513674974441528">
        <ele>126.55</ele>
        <time>2023-08-25T09:21:55Z</time>
      </trkpt>
      <trkpt lat="58.113334961235523" lon="-4.516211003065109">
        <ele>129.43000000000001</ele>
        <time>2023-08-25T09:22:07Z</time>
      </trkpt>
      <trkpt lat="58.113511987030506" lon="-4.51644997112453">
        <ele>131.36000000000001</ele>
        <time>2023-08-25T09:22:12Z</time>
      </trkpt>
      <trkpt lat="58.113621035590768" lon="-4.516585003584623">
        <ele>132.31999999999999</ele>
        <time>2023-08-25T09:22:15Z</time>
      </trkpt>
      <trkpt lat="58.11427298001945" lon="-4.517390001565218">
        <ele>132.80000000000001</ele>
        <time>2023-08-25T09:22:22Z</time>
      </trkpt>
      <trkpt lat="58.115548035129905" lon="-4.518966972827911">
        <ele>134.72</ele>
        <time>2023-08-25T09:22:31Z</time>
      </trkpt>
      <trkpt lat="58.117759013548493" lon="-4.521883958950639">
        <ele>141.93000000000001</ele>
        <time>2023-08-25T09:22:45Z</time>
      </trkpt>
      <trkpt lat="58.119475962594151" lon="-4.524024026468396">
        <ele>142.88999999999999</ele>
        <time>2023-08-25T09:22:56Z</time>
      </trkpt>
      <trkpt lat="58.121213028207421" lon="-4.52671998180449">
        <ele>146.25999999999999</ele>
        <time>2023-08-25T09:23:09Z</time>
      </trkpt>
      <trkpt lat="58.122809026390314" lon="-4.529677033424377">
        <ele>147.69999999999999</ele>
        <time>2023-08-25T09:23:21Z</time>
      </trkpt>
      <trkpt lat="58.123858021572232" lon="-4.532163022086024">
        <ele>150.58000000000001</ele>
        <time>2023-08-25T09:23:30Z</time>
      </trkpt>
      <trkpt lat="58.125733975321054" lon="-4.535926999524236">
        <ele>154.91</ele>
        <time>2023-08-25T09:23:44Z</time>
      </trkpt>
      <trkpt lat="58.127014981582761" lon="-4.538220036774874">
        <ele>151.53999999999999</ele>
        <time>2023-08-25T09:23:53Z</time>
      </trkpt>
      <trkpt lat="58.128081997856498" lon="-4.540057014673948">
        <ele>149.62</ele>
        <time>2023-08-25T09:24:02Z</time>
      </trkpt>
      <trkpt lat="58.129427041858435" lon="-4.541548993438482">
        <ele>149.62</ele>
        <time>2023-08-25T09:24:11Z</time>
      </trkpt>
      <trkpt lat="58.131787972524762" lon="-4.544232962653041">
        <ele>148.18000000000001</ele>
        <time>2023-08-25T09:24:27Z</time>
      </trkpt>
      <trkpt lat="58.133517997339368" lon="-4.546522982418537">
        <ele>149.13999999999999</ele>
        <time>2023-08-25T09:24:40Z</time>
      </trkpt>
      <trkpt lat="58.134127026423812" lon="-4.547329992055893">
        <ele>150.09999999999999</ele>
        <time>2023-08-25T09:24:47Z</time>
      </trkpt>
      <trkpt lat="58.135135034099221" lon="-4.548724992200732">
        <ele>151.53999999999999</ele>
        <time>2023-08-25T09:24:55Z</time>
      </trkpt>
      <trkpt lat="58.136009015142918" lon="-4.550670012831688">
        <ele>150.58000000000001</ele>
        <time>2023-08-25T09:25:04Z</time>
      </trkpt>
      <trkpt lat="58.136386033147573" lon="-4.552026959136128">
        <ele>149.13999999999999</ele>
        <time>2023-08-25T09:25:09Z</time>
      </trkpt>
      <trkpt lat="58.136463984847069" lon="-4.55230800434947">
        <ele>148.66</ele>
        <time>2023-08-25T09:25:10Z</time>
      </trkpt>
      <trkpt lat="58.137341989204288" lon="-4.554555024951696">
        <ele>140.97</ele>
        <time>2023-08-25T09:25:19Z</time>
      </trkpt>
      <trkpt lat="58.137511974200606" lon="-4.554984010756016">
        <ele>138.09</ele>
        <time>2023-08-25T09:25:24Z</time>
      </trkpt>
      <trkpt lat="58.137525971978903" lon="-4.555018041282892">
        <ele>137.13</ele>
        <time>2023-08-25T09:25:33Z</time>
      </trkpt>
      <trkpt lat="58.13754198141396" lon="-4.555060034617782">
        <ele>136.63999999999999</ele>
        <time>2023-08-25T09:25:34Z</time>
      </trkpt>
      <trkpt lat="58.137574000284076" lon="-4.555138992145658">
        <ele>136.16</ele>
        <time>2023-08-25T09:25:35Z</time>
      </trkpt>
      <trkpt lat="58.137998040765524" lon="-4.556210031732917">
        <ele>134.72</ele>
        <time>2023-08-25T09:25:41Z</time>
      </trkpt>
      <trkpt lat="58.138919966295362" lon="-4.558459986001253">
        <ele>132.80000000000001</ele>
        <time>2023-08-25T09:25:50Z</time>
      </trkpt>
      <trkpt lat="58.14033298753202" lon="-4.561839988455176">
        <ele>127.03</ele>
        <time>2023-08-25T09:26:03Z</time>
      </trkpt>
      <trkpt lat="58.140895999968052" lon="-4.563322998583317">
        <ele>126.06999999999999</ele>
        <time>2023-08-25T09:26:09Z</time>
      </trkpt>
      <trkpt lat="58.141510980203748" lon="-4.566135965287685">
        <ele>121.73999999999999</ele>
        <time>2023-08-25T09:26:18Z</time>
      </trkpt>
      <trkpt lat="58.141841981559992" lon="-4.568243008106947">
        <ele>119.34</ele>
        <time>2023-08-25T09:26:26Z</time>
      </trkpt>
      <trkpt lat="58.141850028187037" lon="-4.568374017253518">
        <ele>118.86</ele>
        <time>2023-08-25T09:26:32Z</time>
      </trkpt>
      <trkpt lat="58.1419019959867" lon="-4.56926099024713">
        <ele>118.86</ele>
        <time>2023-08-25T09:26:37Z</time>
      </trkpt>
      <trkpt lat="58.141852961853147" lon="-4.571706997230649">
        <ele>119.81999999999999</ele>
        <time>2023-08-25T09:26:45Z</time>
      </trkpt>
      <trkpt lat="58.141605025157332" lon="-4.576793974265456">
        <ele>115.98</ele>
        <time>2023-08-25T09:26:59Z</time>
      </trkpt>
      <trkpt lat="58.14136303961277" lon="-4.579876000061631">
        <ele>109.73</ele>
        <time>2023-08-25T09:27:08Z</time>
      </trkpt>
      <trkpt lat="58.141328003257513" lon="-4.580316971987486">
        <ele>108.77</ele>
        <time>2023-08-25T09:27:10Z</time>
      </trkpt>
      <trkpt lat="58.141177967190742" lon="-4.582231985405088">
        <ele>105.40000000000001</ele>
        <time>2023-08-25T09:27:17Z</time>
      </trkpt>
      <trkpt lat="58.141028014943004" lon="-4.584783017635346">
        <ele>103.95999999999999</ele>
        <time>2023-08-25T09:27:26Z</time>
      </trkpt>
      <trkpt lat="58.141218032687902" lon="-4.587188037112355">
        <ele>102.04000000000001</ele>
        <time>2023-08-25T09:27:35Z</time>
      </trkpt>
      <trkpt lat="58.141909036785364" lon="-4.591402960941196">
        <ele>96.269999999999996</ele>
        <time>2023-08-25T09:27:49Z</time>
      </trkpt>
      <trkpt lat="58.14211699180305" lon="-4.593514027073979">
        <ele>94.829999999999998</ele>
        <time>2023-08-25T09:27:57Z</time>
      </trkpt>
      <trkpt lat="58.142140964046121" lon="-4.593870006501675">
        <ele>95.310000000000002</ele>
        <time>2023-08-25T09:27:59Z</time>
      </trkpt>
      <trkpt lat="58.142154039815068" lon="-4.594066981226206">
        <ele>95.310000000000002</ele>
        <time>2023-08-25T09:28:00Z</time>
      </trkpt>
      <trkpt lat="58.142396025359631" lon="-4.595546973869205">
        <ele>94.349999999999994</ele>
        <time>2023-08-25T09:28:06Z</time>
      </trkpt>
      <trkpt lat="58.142456039786339" lon="-4.595741014927626">
        <ele>94.349999999999994</ele>
        <time>2023-08-25T09:28:07Z</time>
      </trkpt>
      <trkpt lat="58.142640022560954" lon="-4.596153991296887">
        <ele>92.900000000000006</ele>
        <time>2023-08-25T09:28:11Z</time>
      </trkpt>
      <trkpt lat="58.142727026715875" lon="-4.596321964636445">
        <ele>91.939999999999998</ele>
        <time>2023-08-25T09:28:14Z</time>
      </trkpt>
      <trkpt lat="58.143257014453411" lon="-4.597117993980646">
        <ele>89.540000000000006</ele>
        <time>2023-08-25T09:28:20Z</time>
      </trkpt>
      <trkpt lat="58.144485969096422" lon="-4.599069971591234">
        <ele>87.140000000000001</ele>
        <time>2023-08-25T09:28:30Z</time>
      </trkpt>
      <trkpt lat="58.145290967077017" lon="-4.601618992164731">
        <ele>88.099999999999994</ele>
        <time>2023-08-25T09:28:40Z</time>
      </trkpt>
      <trkpt lat="58.146080961450934" lon="-4.604743011295795">
        <ele>86.180000000000007</ele>
        <time>2023-08-25T09:28:52Z</time>
      </trkpt>
      <trkpt lat="58.146103005856276" lon="-4.604964964091778">
        <ele>85.689999999999998</ele>
        <time>2023-08-25T09:28:53Z</time>
      </trkpt>
      <trkpt lat="58.146108034998178" lon="-4.605181971564889">
        <ele>85.689999999999998</ele>
        <time>2023-08-25T09:28:54Z</time>
      </trkpt>
      <trkpt lat="58.146108034998178" lon="-4.605374000966549">
        <ele>85.209999999999994</ele>
        <time>2023-08-25T09:28:55Z</time>
      </trkpt>
      <trkpt lat="58.146080039441586" lon="-4.605623027309775">
        <ele>85.209999999999994</ele>
        <time>2023-08-25T09:28:56Z</time>
      </trkpt>
      <trkpt lat="58.146053971722722" lon="-4.605853026732802">
        <ele>85.209999999999994</ele>
        <time>2023-08-25T09:28:57Z</time>
      </trkpt>
      <trkpt lat="58.145829001441598" lon="-4.608099963515997">
        <ele>87.140000000000001</ele>
        <time>2023-08-25T09:29:06Z</time>
      </trkpt>
      <trkpt lat="58.145845010876656" lon="-4.608380002900958">
        <ele>87.620000000000005</ele>
        <time>2023-08-25T09:29:07Z</time>
      </trkpt>
      <trkpt lat="58.145863031968474" lon="-4.608636992052198">
        <ele>87.620000000000005</ele>
        <time>2023-08-25T09:29:08Z</time>
      </trkpt>
      <trkpt lat="58.145882980898023" lon="-4.608904961496592">
        <ele>87.620000000000005</ele>
        <time>2023-08-25T09:29:09Z</time>
      </trkpt>
      <trkpt lat="58.145912988111377" lon="-4.609172008931637">
        <ele>87.620000000000005</ele>
        <time>2023-08-25T09:29:10Z</time>
      </trkpt>
      <trkpt lat="58.146373992785811" lon="-4.612256968393922">
        <ele>87.620000000000005</ele>
        <time>2023-08-25T09:29:21Z</time>
      </trkpt>
      <trkpt lat="58.146767020225525" lon="-4.616069979965687">
        <ele>89.060000000000002</ele>
        <time>2023-08-25T09:29:34Z</time>
      </trkpt>
      <trkpt lat="58.147215032950044" lon="-4.619473032653332">
        <ele>90.980000000000004</ele>
        <time>2023-08-25T09:29:45Z</time>
      </trkpt>
      <trkpt lat="58.147688023746014" lon="-4.623029977083206">
        <ele>92.420000000000002</ele>
        <time>2023-08-25T09:29:56Z</time>
      </trkpt>
      <trkpt lat="58.14781098626554" lon="-4.624335039407015">
        <ele>93.390000000000001</ele>
        <time>2023-08-25T09:30:01Z</time>
      </trkpt>
      <trkpt lat="58.147844010964036" lon="-4.624608037993312">
        <ele>93.390000000000001</ele>
        <time>2023-08-25T09:30:02Z</time>
      </trkpt>
      <trkpt lat="58.148251958191395" lon="-4.627234004437923">
        <ele>94.829999999999998</ele>
        <time>2023-08-25T09:30:10Z</time>
      </trkpt>
      <trkpt lat="58.148876996710896" lon="-4.630865966901183">
        <ele>95.310000000000002</ele>
        <time>2023-08-25T09:30:21Z</time>
      </trkpt>
      <trkpt lat="58.149348981678486" lon="-4.633169984444976">
        <ele>96.269999999999996</ele>
        <time>2023-08-25T09:30:29Z</time>
      </trkpt>
      <trkpt lat="58.149466998875141" lon="-4.633630989119411">
        <ele>96.75</ele>
        <time>2023-08-25T09:30:31Z</time>
      </trkpt>
      <trkpt lat="58.150064963847399" lon="-4.635600987821817">
        <ele>95.790000000000006</ele>
        <time>2023-08-25T09:30:38Z</time>
      </trkpt>
      <trkpt lat="58.151528025045991" lon="-4.640185972675681">
        <ele>92.900000000000006</ele>
        <time>2023-08-25T09:30:54Z</time>
      </trkpt>
      <trkpt lat="58.152104029431939" lon="-4.641985986381769">
        <ele>92.420000000000002</ele>
        <time>2023-08-25T09:31:02Z</time>
      </trkpt>
      <trkpt lat="58.152895029634237" lon="-4.644098980352283">
        <ele>90.5</ele>
        <time>2023-08-25T09:31:11Z</time>
      </trkpt>
      <trkpt lat="58.15404100343585" lon="-4.647160973399878">
        <ele>92.900000000000006</ele>
        <time>2023-08-25T09:31:23Z</time>
      </trkpt>
      <trkpt lat="58.154723038896918" lon="-4.649345967918634">
        <ele>92.420000000000002</ele>
        <time>2023-08-25T09:31:31Z</time>
      </trkpt>
      <trkpt lat="58.155527031049132" lon="-4.652490019798279">
        <ele>90.5</ele>
        <time>2023-08-25T09:31:42Z</time>
      </trkpt>
      <trkpt lat="58.156670993193984" lon="-4.655859963968396">
        <ele>87.140000000000001</ele>
        <time>2023-08-25T09:31:53Z</time>
      </trkpt>
      <trkpt lat="58.157626027241349" lon="-4.658677037805319">
        <ele>92.420000000000002</ele>
        <time>2023-08-25T09:32:03Z</time>
      </trkpt>
      <trkpt lat="58.158102035522461" lon="-4.659861987456679">
        <ele>94.829999999999998</ele>
        <time>2023-08-25T09:32:09Z</time>
      </trkpt>
      <trkpt lat="58.15829599276185" lon="-4.660214027389884">
        <ele>95.310000000000002</ele>
        <time>2023-08-25T09:32:11Z</time>
      </trkpt>
      <trkpt lat="58.15840202383697" lon="-4.660393986850977">
        <ele>95.310000000000002</ele>
        <time>2023-08-25T09:32:12Z</time>
      </trkpt>
      <trkpt lat="58.158798990771174" lon="-4.660853985697031">
        <ele>95.790000000000006</ele>
        <time>2023-08-25T09:32:15Z</time>
      </trkpt>
      <trkpt lat="58.158928994089365" lon="-4.661005027592182">
        <ele>95.310000000000002</ele>
        <time>2023-08-25T09:32:16Z</time>
      </trkpt>
      <trkpt lat="58.159982012584805" lon="-4.66239701025188">
        <ele>96.75</ele>
        <time>2023-08-25T09:32:24Z</time>
      </trkpt>
      <trkpt lat="58.161885961890221" lon="-4.665224980562925">
        <ele>95.310000000000002</ele>
        <time>2023-08-25T09:32:38Z</time>
      </trkpt>
      <trkpt lat="58.162725996226072" lon="-4.667061036452651">
        <ele>96.75</ele>
        <time>2023-08-25T09:32:46Z</time>
      </trkpt>
      <trkpt lat="58.163246009498835" lon="-4.669827986508608">
        <ele>100.59999999999999</ele>
        <time>2023-08-25T09:32:55Z</time>
      </trkpt>
      <trkpt lat="58.163932990282774" lon="-4.674046011641622">
        <ele>103.48</ele>
        <time>2023-08-25T09:33:08Z</time>
      </trkpt>
      <trkpt lat="58.164494996890426" lon="-4.677171036601067">
        <ele>103</ele>
        <time>2023-08-25T09:33:18Z</time>
      </trkpt>
      <trkpt lat="58.165201004594564" lon="-4.679320994764566">
        <ele>102.04000000000001</ele>
        <time>2023-08-25T09:33:26Z</time>
      </trkpt>
      <trkpt lat="58.16594498232007" lon="-4.681716961786151">
        <ele>102.52</ele>
        <time>2023-08-25T09:33:35Z</time>
      </trkpt>
      <trkpt lat="58.166942009702325" lon="-4.685528967529535">
        <ele>105.40000000000001</ele>
        <time>2023-08-25T09:33:48Z</time>
      </trkpt>
      <trkpt lat="58.167687999084592" lon="-4.687414979562163">
        <ele>107.81</ele>
        <time>2023-08-25T09:33:56Z</time>
      </trkpt>
      <trkpt lat="58.168836990371346" lon="-4.690129039809108">
        <ele>109.73</ele>
        <time>2023-08-25T09:34:07Z</time>
      </trkpt>
      <trkpt lat="58.169466974213719" lon="-4.691863004118204">
        <ele>110.20999999999999</ele>
        <time>2023-08-25T09:34:15Z</time>
      </trkpt>
      <trkpt lat="58.170033004134893" lon="-4.694252014160156">
        <ele>109.73</ele>
        <time>2023-08-25T09:34:25Z</time>
      </trkpt>
      <trkpt lat="58.170181028544903" lon="-4.695049971342087">
        <ele>109.25</ele>
        <time>2023-08-25T09:34:28Z</time>
      </trkpt>
      <trkpt lat="58.170470036566257" lon="-4.697024999186397">
        <ele>109.25</ele>
        <time>2023-08-25T09:34:36Z</time>
      </trkpt>
      <trkpt lat="58.170547988265753" lon="-4.697237983345985">
        <ele>109.25</ele>
        <time>2023-08-25T09:34:37Z</time>
      </trkpt>
      <trkpt lat="58.170888964086771" lon="-4.698174996301532">
        <ele>108.77</ele>
        <time>2023-08-25T09:34:41Z</time>
      </trkpt>
      <trkpt lat="58.171239998191595" lon="-4.699138998985291">
        <ele>109.25</ele>
        <time>2023-08-25T09:34:45Z</time>
      </trkpt>
      <trkpt lat="58.171325996518135" lon="-4.699386013671756">
        <ele>109.25</ele>
        <time>2023-08-25T09:34:46Z</time>
      </trkpt>
      <trkpt lat="58.171378970146179" lon="-4.699667980894446">
        <ele>109.25</ele>
        <time>2023-08-25T09:34:47Z</time>
      </trkpt>
      <trkpt lat="58.171433033421636" lon="-4.699955983087421">
        <ele>109.25</ele>
        <time>2023-08-25T09:34:48Z</time>
      </trkpt>
      <trkpt lat="58.171488018706441" lon="-4.700244991108775">
        <ele>109.25</ele>
        <time>2023-08-25T09:34:49Z</time>
      </trkpt>
      <trkpt lat="58.172129988670349" lon="-4.703052006661892">
        <ele>112.13</ele>
        <time>2023-08-25T09:34:59Z</time>
      </trkpt>
      <trkpt lat="58.172765001654625" lon="-4.705723989754915">
        <ele>116.45999999999999</ele>
        <time>2023-08-25T09:35:09Z</time>
      </trkpt>
      <trkpt lat="58.173583997413516" lon="-4.707885012030602">
        <ele>116.94</ele>
        <time>2023-08-25T09:35:17Z</time>
      </trkpt>
      <trkpt lat="58.174610026180744" lon="-4.710844997316599">
        <ele>117.90000000000001</ele>
        <time>2023-08-25T09:35:28Z</time>
      </trkpt>
      <trkpt lat="58.174865003675222" lon="-4.71146903000772">
        <ele>117.90000000000001</ele>
        <time>2023-08-25T09:35:31Z</time>
      </trkpt>
      <trkpt lat="58.174966005608439" lon="-4.711680002510548">
        <ele>117.42</ele>
        <time>2023-08-25T09:35:32Z</time>
      </trkpt>
      <trkpt lat="58.176207030192018" lon="-4.71323300153017">
        <ele>115.5</ele>
        <time>2023-08-25T09:35:40Z</time>
      </trkpt>
      <trkpt lat="58.177981982007623" lon="-4.715331997722387">
        <ele>110.69</ele>
        <time>2023-08-25T09:35:51Z</time>
      </trkpt>
      <trkpt lat="58.179105995222926" lon="-4.716493980959058">
        <ele>111.17</ele>
        <time>2023-08-25T09:35:59Z</time>
      </trkpt>
      <trkpt lat="58.17977998405695" lon="-4.717083983123303">
        <ele>112.13</ele>
        <time>2023-08-25T09:36:04Z</time>
      </trkpt>
      <trkpt lat="58.18111295811832" lon="-4.71813197247684">
        <ele>111.65000000000001</ele>
        <time>2023-08-25T09:36:13Z</time>
      </trkpt>
      <trkpt lat="58.183301975950599" lon="-4.720463985577226">
        <ele>115.01000000000001</ele>
        <time>2023-08-25T09:36:27Z</time>
      </trkpt>
      <trkpt lat="58.184417020529509" lon="-4.7217190079391">
        <ele>117.90000000000001</ele>
        <time>2023-08-25T09:36:35Z</time>
      </trkpt>
      <trkpt lat="58.186249975115061" lon="-4.723633015528321">
        <ele>120.78</ele>
        <time>2023-08-25T09:36:48Z</time>
      </trkpt>
      <trkpt lat="58.187532993033528" lon="-4.724594000726938">
        <ele>120.3</ele>
        <time>2023-08-25T09:36:57Z</time>
      </trkpt>
      <trkpt lat="58.189111975952983" lon="-4.725733017548919">
        <ele>117.90000000000001</ele>
        <time>2023-08-25T09:37:08Z</time>
      </trkpt>
      <trkpt lat="58.189222030341625" lon="-4.725920017808676">
        <ele>117.90000000000001</ele>
        <time>2023-08-25T09:37:09Z</time>
      </trkpt>
      <trkpt lat="58.189320014789701" lon="-4.726134007796645">
        <ele>117.42</ele>
        <time>2023-08-25T09:37:10Z</time>
      </trkpt>
      <trkpt lat="58.190217968076468" lon="-4.72769103012979">
        <ele>111.65000000000001</ele>
        <time>2023-08-25T09:37:18Z</time>
      </trkpt>
      <trkpt lat="58.192022005096078" lon="-4.730496034026146">
        <ele>103</ele>
        <time>2023-08-25T09:37:32Z</time>
      </trkpt>
      <trkpt lat="58.193267975002527" lon="-4.7319679800421">
        <ele>97.709999999999994</ele>
        <time>2023-08-25T09:37:41Z</time>
      </trkpt>
      <trkpt lat="58.19449701346457" lon="-4.732749005779624">
        <ele>92.900000000000006</ele>
        <time>2023-08-25T09:37:49Z</time>
      </trkpt>
      <trkpt lat="58.195941969752312" lon="-4.733560960739851">
        <ele>88.579999999999998</ele>
        <time>2023-08-25T09:37:58Z</time>
      </trkpt>
      <trkpt lat="58.196161994710565" lon="-4.733672020956874">
        <ele>86.659999999999997</ele>
        <time>2023-08-25T09:38:01Z</time>
      </trkpt>
      <trkpt lat="58.196247993037105" lon="-4.733704039826989">
        <ele>86.180000000000007</ele>
        <time>2023-08-25T09:38:02Z</time>
      </trkpt>
      <trkpt lat="58.197046034038067" lon="-4.733997993171215">
        <ele>84.25</ele>
        <time>2023-08-25T09:38:08Z</time>
      </trkpt>
      <trkpt lat="58.199100019410253" lon="-4.73469796590507">
        <ele>82.329999999999998</ele>
        <time>2023-08-25T09:38:20Z</time>
      </trkpt>
      <trkpt lat="58.201002040877938" lon="-4.735131980851293">
        <ele>82.329999999999998</ele>
        <time>2023-08-25T09:38:31Z</time>
      </trkpt>
      <trkpt lat="58.202623017132282" lon="-4.735933961346746">
        <ele>82.329999999999998</ele>
        <time>2023-08-25T09:38:41Z</time>
      </trkpt>
      <trkpt lat="58.203748036175966" lon="-4.736654972657561">
        <ele>80.890000000000001</ele>
        <time>2023-08-25T09:38:49Z</time>
      </trkpt>
      <trkpt lat="58.205530028790236" lon="-4.736940041184425">
        <ele>79.930000000000007</ele>
        <time>2023-08-25T09:39:00Z</time>
      </trkpt>
      <trkpt lat="58.207208001986146" lon="-4.736925037577748">
        <ele>79.930000000000007</ele>
        <time>2023-08-25T09:39:11Z</time>
      </trkpt>
      <trkpt lat="58.208296978846192" lon="-4.736149040982127">
        <ele>79.930000000000007</ele>
        <time>2023-08-25T09:39:18Z</time>
      </trkpt>
      <trkpt lat="58.209866993129253" lon="-4.734767032787204">
        <ele>80.409999999999997</ele>
        <time>2023-08-25T09:39:28Z</time>
      </trkpt>
      <trkpt lat="58.211523005738854" lon="-4.733220990747213">
        <ele>82.329999999999998</ele>
        <time>2023-08-25T09:39:39Z</time>
      </trkpt>
      <trkpt lat="58.21327499113977" lon="-4.731497000902891">
        <ele>81.849999999999994</ele>
        <time>2023-08-25T09:39:51Z</time>
      </trkpt>
      <trkpt lat="58.213973036035895" lon="-4.73100196570158">
        <ele>81.370000000000005</ele>
        <time>2023-08-25T09:39:56Z</time>
      </trkpt>
      <trkpt lat="58.214111002162099" lon="-4.730900041759014">
        <ele>81.370000000000005</ele>
        <time>2023-08-25T09:39:57Z</time>
      </trkpt>
      <trkpt lat="58.21454300545156" lon="-4.730500979349017">
        <ele>81.370000000000005</ele>
        <time>2023-08-25T09:40:00Z</time>
      </trkpt>
      <trkpt lat="58.214697986841202" lon="-4.730383967980743">
        <ele>80.890000000000001</ele>
        <time>2023-08-25T09:40:01Z</time>
      </trkpt>
      <trkpt lat="58.215773971751332" lon="-4.729844005778432">
        <ele>79.930000000000007</ele>
        <time>2023-08-25T09:40:08Z</time>
      </trkpt>
      <trkpt lat="58.217296963557601" lon="-4.728671964257956">
        <ele>80.890000000000001</ele>
        <time>2023-08-25T09:40:18Z</time>
      </trkpt>
      <trkpt lat="58.217419004067779" lon="-4.728522012010217">
        <ele>80.409999999999997</ele>
        <time>2023-08-25T09:40:19Z</time>
      </trkpt>
      <trkpt lat="58.218401027843356" lon="-4.727322980761528">
        <ele>83.290000000000006</ele>
        <time>2023-08-25T09:40:27Z</time>
      </trkpt>
      <trkpt lat="58.2201739680022" lon="-4.725822033360601">
        <ele>87.620000000000005</ele>
        <time>2023-08-25T09:40:39Z</time>
      </trkpt>
      <trkpt lat="58.221554970368743" lon="-4.724692991003394">
        <ele>90.5</ele>
        <time>2023-08-25T09:40:49Z</time>
      </trkpt>
      <trkpt lat="58.221820006147027" lon="-4.724481012672186">
        <ele>91.459999999999994</ele>
        <time>2023-08-25T09:40:51Z</time>
      </trkpt>
      <trkpt lat="58.221947997808456" lon="-4.724381016567349">
        <ele>91.939999999999998</ele>
        <time>2023-08-25T09:40:52Z</time>
      </trkpt>
      <trkpt lat="58.222302971407771" lon="-4.724106006324291">
        <ele>93.390000000000001</ele>
        <time>2023-08-25T09:40:55Z</time>
      </trkpt>
      <trkpt lat="58.223391026258469" lon="-4.723751032724977">
        <ele>93.870000000000005</ele>
        <time>2023-08-25T09:41:04Z</time>
      </trkpt>
      <trkpt lat="58.223757985979319" lon="-4.723713984712958">
        <ele>93.870000000000005</ele>
        <time>2023-08-25T09:41:07Z</time>
      </trkpt>
      <trkpt lat="58.22386996820569" lon="-4.723703004419804">
        <ele>93.390000000000001</ele>
        <time>2023-08-25T09:41:08Z</time>
      </trkpt>
      <trkpt lat="58.224006006494164" lon="-4.723699986934662">
        <ele>93.390000000000001</ele>
        <time>2023-08-25T09:41:09Z</time>
      </trkpt>
      <trkpt lat="58.225087020546198" lon="-4.723997041583061">
        <ele>90.019999999999996</ele>
        <time>2023-08-25T09:41:17Z</time>
      </trkpt>
      <trkpt lat="58.226888962090015" lon="-4.724614033475518">
        <ele>87.620000000000005</ele>
        <time>2023-08-25T09:41:29Z</time>
      </trkpt>
      <trkpt lat="58.228217996656895" lon="-4.725448032841086">
        <ele>86.659999999999997</ele>
        <time>2023-08-25T09:41:38Z</time>
      </trkpt>
      <trkpt lat="58.229950033128262" lon="-4.726614961400628">
        <ele>86.659999999999997</ele>
        <time>2023-08-25T09:41:49Z</time>
      </trkpt>
      <trkpt lat="58.231025012210011" lon="-4.727466981858015">
        <ele>90.5</ele>
        <time>2023-08-25T09:41:56Z</time>
      </trkpt>
      <trkpt lat="58.232046011835337" lon="-4.728283965960145">
        <ele>95.310000000000002</ele>
        <time>2023-08-25T09:42:03Z</time>
      </trkpt>
      <trkpt lat="58.234015004709363" lon="-4.729792959988117">
        <ele>101.08</ele>
        <time>2023-08-25T09:42:15Z</time>
      </trkpt>
      <trkpt lat="58.236181978136301" lon="-4.731418965384364">
        <ele>106.36</ele>
        <time>2023-08-25T09:42:27Z</time>
      </trkpt>
      <trkpt lat="58.238232024013996" lon="-4.733143039047718">
        <ele>111.17</ele>
        <time>2023-08-25T09:42:39Z</time>
      </trkpt>
      <trkpt lat="58.240392040461302" lon="-4.735212028026581">
        <ele>111.17</ele>
        <time>2023-08-25T09:42:52Z</time>
      </trkpt>
      <trkpt lat="58.242007987573743" lon="-4.737178003415465">
        <ele>110.20999999999999</ele>
        <time>2023-08-25T09:43:03Z</time>
      </trkpt>
      <trkpt lat="58.243930963799357" lon="-4.739255961030722">
        <ele>108.29000000000001</ele>
        <time>2023-08-25T09:43:15Z</time>
      </trkpt>
      <trkpt lat="58.245221022516489" lon="-4.740857994183898">
        <ele>107.31999999999999</ele>
        <time>2023-08-25T09:43:24Z</time>
      </trkpt>
      <trkpt lat="58.245469965040684" lon="-4.741088999435306">
        <ele>107.81</ele>
        <time>2023-08-25T09:43:26Z</time>
      </trkpt>
      <trkpt lat="58.245590999722481" lon="-4.741168962791562">
        <ele>108.29000000000001</ele>
        <time>2023-08-25T09:43:27Z</time>
      </trkpt>
      <trkpt lat="58.24653496965766" lon="-4.74182803183794">
        <ele>109.25</ele>
        <time>2023-08-25T09:43:33Z</time>
      </trkpt>
      <trkpt lat="58.247917983680964" lon="-4.743639025837183">
        <ele>106.84</ele>
        <time>2023-08-25T09:43:42Z</time>
      </trkpt>
      <trkpt lat="58.248388962820172" lon="-4.74425601772964">
        <ele>107.81</ele>
        <time>2023-08-25T09:43:46Z</time>
      </trkpt>
      <trkpt lat="58.249698970466852" lon="-4.745756965130568">
        <ele>107.81</ele>
        <time>2023-08-25T09:43:55Z</time>
      </trkpt>
      <trkpt lat="58.250748971477151" lon="-4.746796991676092">
        <ele>106.84</ele>
        <time>2023-08-25T09:44:02Z</time>
      </trkpt>
      <trkpt lat="58.252040036022663" lon="-4.74876799620688">
        <ele>105.40000000000001</ele>
        <time>2023-08-25T09:44:11Z</time>
      </trkpt>
      <trkpt lat="58.253253987058997" lon="-4.751194976270199">
        <ele>102.04000000000001</ele>
        <time>2023-08-25T09:44:21Z</time>
      </trkpt>
      <trkpt lat="58.254130985587835" lon="-4.752801032736898">
        <ele>100.11</ele>
        <time>2023-08-25T09:44:28Z</time>
      </trkpt>
      <trkpt lat="58.255033968016505" lon="-4.75454798899591">
        <ele>100.59999999999999</ele>
        <time>2023-08-25T09:44:36Z</time>
      </trkpt>
      <trkpt lat="58.255113009363413" lon="-4.75471998564899">
        <ele>101.08</ele>
        <time>2023-08-25T09:44:37Z</time>
      </trkpt>
      <trkpt lat="58.255162965506315" lon="-4.754921989515424">
        <ele>101.08</ele>
        <time>2023-08-25T09:44:38Z</time>
      </trkpt>
      <trkpt lat="58.255216022953391" lon="-4.755132040008903">
        <ele>101.08</ele>
        <time>2023-08-25T09:44:39Z</time>
      </trkpt>
      <trkpt lat="58.255249969661236" lon="-4.755347035825253">
        <ele>101.08</ele>
        <time>2023-08-25T09:44:40Z</time>
      </trkpt>
      <trkpt lat="58.255265979096293" lon="-4.755576029419899">
        <ele>101.56</ele>
        <time>2023-08-25T09:44:41Z</time>
      </trkpt>
      <trkpt lat="58.255284000188112" lon="-4.755825977772474">
        <ele>102.52</ele>
        <time>2023-08-25T09:44:42Z</time>
      </trkpt>
      <trkpt lat="58.255302021279931" lon="-4.756084978580475">
        <ele>103.48</ele>
        <time>2023-08-25T09:44:43Z</time>
      </trkpt>
      <trkpt lat="58.255321970209479" lon="-4.756363006308675">
        <ele>103.95999999999999</ele>
        <time>2023-08-25T09:44:44Z</time>
      </trkpt>
      <trkpt lat="58.25534300878644" lon="-4.756650002673268">
        <ele>104.44</ele>
        <time>2023-08-25T09:44:45Z</time>
      </trkpt>
      <trkpt lat="58.255527997389436" lon="-4.759758012369275">
        <ele>109.25</ele>
        <time>2023-08-25T09:44:55Z</time>
      </trkpt>
      <trkpt lat="58.255712985992432" lon="-4.764223974198103">
        <ele>107.31999999999999</ele>
        <time>2023-08-25T09:45:08Z</time>
      </trkpt>
      <trkpt lat="58.255746010690928" lon="-4.764828979969025">
        <ele>106.84</ele>
        <time>2023-08-25T09:45:10Z</time>
      </trkpt>
      <trkpt lat="58.25579303316772" lon="-4.765126034617424">
        <ele>106.36</ele>
        <time>2023-08-25T09:45:11Z</time>
      </trkpt>
      <trkpt lat="58.256321009248495" lon="-4.768344014883041">
        <ele>104.44</ele>
        <time>2023-08-25T09:45:20Z</time>
      </trkpt>
      <trkpt lat="58.256850996986032" lon="-4.771714964881539">
        <ele>104.44</ele>
        <time>2023-08-25T09:45:30Z</time>
      </trkpt>
      <trkpt lat="58.25706297531724" lon="-4.773684041574597">
        <ele>107.81</ele>
        <time>2023-08-25T09:45:37Z</time>
      </trkpt>
      <trkpt lat="58.257122989743948" lon="-4.773931978270412">
        <ele>107.81</ele>
        <time>2023-08-25T09:45:38Z</time>
      </trkpt>
      <trkpt lat="58.257690025493503" lon="-4.776343032717705">
        <ele>107.31999999999999</ele>
        <time>2023-08-25T09:45:46Z</time>
      </trkpt>
      <trkpt lat="58.25802898965776" lon="-4.778858022764325">
        <ele>109.73</ele>
        <time>2023-08-25T09:45:54Z</time>
      </trkpt>
      <trkpt lat="58.258037958294153" lon="-4.779173014685512">
        <ele>110.20999999999999</ele>
        <time>2023-08-25T09:45:55Z</time>
      </trkpt>
      <trkpt lat="58.258044999092817" lon="-4.779490018263459">
        <ele>110.69</ele>
        <time>2023-08-25T09:45:56Z</time>
      </trkpt>
      <trkpt lat="58.25805296190083" lon="-4.779824959114194">
        <ele>111.65000000000001</ele>
        <time>2023-08-25T09:45:57Z</time>
      </trkpt>
      <trkpt lat="58.257702011615038" lon="-4.783115023747087">
        <ele>121.73999999999999</ele>
        <time>2023-08-25T09:46:07Z</time>
      </trkpt>
      <trkpt lat="58.25732097029686" lon="-4.785948023200035">
        <ele>130.40000000000001</ele>
        <time>2023-08-25T09:46:16Z</time>
      </trkpt>
      <trkpt lat="58.256953004747629" lon="-4.788694018498063">
        <ele>136.16</ele>
        <time>2023-08-25T09:46:25Z</time>
      </trkpt>
      <trkpt lat="58.256807997822762" lon="-4.790103016421199">
        <ele>139.05000000000001</ele>
        <time>2023-08-25T09:46:31Z</time>
      </trkpt>
      <trkpt lat="58.256832975894213" lon="-4.790358999744058">
        <ele>138.56999999999999</ele>
        <time>2023-08-25T09:46:32Z</time>
      </trkpt>
      <trkpt lat="58.257057024165988" lon="-4.792618006467819">
        <ele>133.75999999999999</ele>
        <time>2023-08-25T09:46:39Z</time>
      </trkpt>
      <trkpt lat="58.257396994158626" lon="-4.796043019741774">
        <ele>126.55</ele>
        <time>2023-08-25T09:46:49Z</time>
      </trkpt>
      <trkpt lat="58.257904015481472" lon="-4.800056023523212">
        <ele>119.34</ele>
        <time>2023-08-25T09:47:01Z</time>
      </trkpt>
      <trkpt lat="58.258635001257062" lon="-4.804383013397455">
        <ele>115.5</ele>
        <time>2023-08-25T09:47:15Z</time>
      </trkpt>
      <trkpt lat="58.25920999981463" lon="-4.806557027623057">
        <ele>111.65000000000001</ele>
        <time>2023-08-25T09:47:23Z</time>
      </trkpt>
      <trkpt lat="58.259928999468684" lon="-4.808790972456336">
        <ele>103.48</ele>
        <time>2023-08-25T09:47:32Z</time>
      </trkpt>
      <trkpt lat="58.260669037699699" lon="-4.811352984979749">
        <ele>97.709999999999994</ele>
        <time>2023-08-25T09:47:43Z</time>
      </trkpt>
      <trkpt lat="58.260794011875987" lon="-4.811783982440829">
        <ele>95.790000000000006</ele>
        <time>2023-08-25T09:47:48Z</time>
      </trkpt>
      <trkpt lat="58.260903982445598" lon="-4.812165023759008">
        <ele>92.420000000000002</ele>
        <time>2023-08-25T09:47:57Z</time>
      </trkpt>
      <trkpt lat="58.2609280385077" lon="-4.812248004600406">
        <ele>91.939999999999998</ele>
        <time>2023-08-25T09:47:58Z</time>
      </trkpt>
      <trkpt lat="58.260938012972474" lon="-4.812276000156999">
        <ele>92.420000000000002</ele>
        <time>2023-08-25T09:47:59Z</time>
      </trkpt>
      <trkpt lat="58.261014958843589" lon="-4.812499964609742">
        <ele>92.420000000000002</ele>
        <time>2023-08-25T09:48:02Z</time>
      </trkpt>
      <trkpt lat="58.261142028495669" lon="-4.812846975401044">
        <ele>88.579999999999998</ele>
        <time>2023-08-25T09:48:12Z</time>
      </trkpt>
      <trkpt lat="58.261142028495669" lon="-4.812846975401044">
        <ele>89.060000000000002</ele>
        <time>2023-08-25T09:48:52Z</time>
      </trkpt>
      <trkpt lat="58.261291980743408" lon="-4.813134977594018">
        <ele>86.659999999999997</ele>
        <time>2023-08-25T09:49:05Z</time>
      </trkpt>
      <trkpt lat="58.26189698651433" lon="-4.814092023298144">
        <ele>83.290000000000006</ele>
        <time>2023-08-25T09:49:12Z</time>
      </trkpt>
      <trkpt lat="58.262091027572751" lon="-4.814381031319499">
        <ele>82.329999999999998</ele>
        <time>2023-08-25T09:49:14Z</time>
      </trkpt>
      <trkpt lat="58.262190017849207" lon="-4.814527966082096">
        <ele>81.849999999999994</ele>
        <time>2023-08-25T09:49:15Z</time>
      </trkpt>
      <trkpt lat="58.263542018830776" lon="-4.815997984260321">
        <ele>74.640000000000001</ele>
        <time>2023-08-25T09:49:25Z</time>
      </trkpt>
      <trkpt lat="58.264782037585974" lon="-4.816967016085982">
        <ele>66.950000000000003</ele>
        <time>2023-08-25T09:49:34Z</time>
      </trkpt>
      <trkpt lat="58.26627996750176" lon="-4.817847032099962">
        <ele>55.409999999999997</ele>
        <time>2023-08-25T09:49:44Z</time>
      </trkpt>
      <trkpt lat="58.267644960433245" lon="-4.819051008671522">
        <ele>41.469999999999999</ele>
        <time>2023-08-25T09:49:54Z</time>
      </trkpt>
      <trkpt lat="58.268711976706982" lon="-4.819505978375673">
        <ele>31.379999999999999</ele>
        <time>2023-08-25T09:50:03Z</time>
      </trkpt>
      <trkpt lat="58.26973901130259" lon="-4.819749975576997">
        <ele>27.530000000000001</ele>
        <time>2023-08-25T09:50:11Z</time>
      </trkpt>
      <trkpt lat="58.271312965080142" lon="-4.819999001920223">
        <ele>24.649999999999999</ele>
        <time>2023-08-25T09:50:23Z</time>
      </trkpt>
      <trkpt lat="58.272206978872418" lon="-4.820581963285804">
        <ele>22.25</ele>
        <time>2023-08-25T09:50:30Z</time>
      </trkpt>
      <trkpt lat="58.273497959598899" lon="-4.822050975635648">
        <ele>21.77</ele>
        <time>2023-08-25T09:50:40Z</time>
      </trkpt>
      <trkpt lat="58.274456011131406" lon="-4.823037022724748">
        <ele>19.359999999999999</ele>
        <time>2023-08-25T09:50:48Z</time>
      </trkpt>
      <trkpt lat="58.274561036378145" lon="-4.823144981637597">
        <ele>19.359999999999999</ele>
        <time>2023-08-25T09:50:49Z</time>
      </trkpt>
      <trkpt lat="58.275548005476594" lon="-4.824541993439198">
        <ele>18.879999999999999</ele>
        <time>2023-08-25T09:50:58Z</time>
      </trkpt>
      <trkpt lat="58.276604041457176" lon="-4.826541999354959">
        <ele>18.879999999999999</ele>
        <time>2023-08-25T09:51:08Z</time>
      </trkpt>
      <trkpt lat="58.27783701941371" lon="-4.828275963664055">
        <ele>17.440000000000001</ele>
        <time>2023-08-25T09:51:18Z</time>
      </trkpt>
      <trkpt lat="58.27955698594451" lon="-4.830532036721706">
        <ele>13.119999999999999</ele>
        <time>2023-08-25T09:51:31Z</time>
      </trkpt>
      <trkpt lat="58.279670979827642" lon="-4.830687018111348">
        <ele>12.630000000000001</ele>
        <time>2023-08-25T09:51:32Z</time>
      </trkpt>
      <trkpt lat="58.279986977577209" lon="-4.831168977543712">
        <ele>11.19</ele>
        <time>2023-08-25T09:51:35Z</time>
      </trkpt>
      <trkpt lat="58.280714023858309" lon="-4.833026994019747">
        <ele>9.75</ele>
        <time>2023-08-25T09:51:42Z</time>
      </trkpt>
      <trkpt lat="58.281649025157094" lon="-4.835299998521805">
        <ele>10.710000000000001</ele>
        <time>2023-08-25T09:51:51Z</time>
      </trkpt>
      <trkpt lat="58.283063974231482" lon="-4.838410019874573">
        <ele>11.19</ele>
        <time>2023-08-25T09:52:04Z</time>
      </trkpt>
      <trkpt lat="58.28417700715363" lon="-4.840748989954591">
        <ele>11.19</ele>
        <time>2023-08-25T09:52:14Z</time>
      </trkpt>
      <trkpt lat="58.285019975155592" lon="-4.84317597001791">
        <ele>17.440000000000001</ele>
        <time>2023-08-25T09:52:23Z</time>
      </trkpt>
      <trkpt lat="58.28604600392282" lon="-4.845767989754677">
        <ele>20.809999999999999</ele>
        <time>2023-08-25T09:52:33Z</time>
      </trkpt>
      <trkpt lat="58.287373026832938" lon="-4.84893199056387">
        <ele>24.649999999999999</ele>
        <time>2023-08-25T09:52:45Z</time>
      </trkpt>
      <trkpt lat="58.288291012868285" lon="-4.851501965895295">
        <ele>28.5</ele>
        <time>2023-08-25T09:52:55Z</time>
      </trkpt>
      <trkpt lat="58.288899036124349" lon="-4.853398958221078">
        <ele>31.859999999999999</ele>
        <time>2023-08-25T09:53:02Z</time>
      </trkpt>
      <trkpt lat="58.290050039067864" lon="-4.857043996453285">
        <ele>27.050000000000001</ele>
        <time>2023-08-25T09:53:14Z</time>
      </trkpt>
      <trkpt lat="58.291054023429751" lon="-4.860121998935938">
        <ele>25.609999999999999</ele>
        <time>2023-08-25T09:53:24Z</time>
      </trkpt>
      <trkpt lat="58.291808981448412" lon="-4.862251002341509">
        <ele>24.649999999999999</ele>
        <time>2023-08-25T09:53:32Z</time>
      </trkpt>
      <trkpt lat="58.292395966127515" lon="-4.864543033763766">
        <ele>21.289999999999999</ele>
        <time>2023-08-25T09:53:40Z</time>
      </trkpt>
      <trkpt lat="58.293324010446668" lon="-4.866775972768664">
        <ele>19.84</ele>
        <time>2023-08-25T09:53:49Z</time>
      </trkpt>
      <trkpt lat="58.294019037857652" lon="-4.868757035583258">
        <ele>18.399999999999999</ele>
        <time>2023-08-25T09:53:56Z</time>
      </trkpt>
      <trkpt lat="58.294785981997848" lon="-4.870861982926726">
        <ele>19.359999999999999</ele>
        <time>2023-08-25T09:54:04Z</time>
      </trkpt>
      <trkpt lat="58.295854004099965" lon="-4.874397972598672">
        <ele>26.09</ele>
        <time>2023-08-25T09:54:17Z</time>
      </trkpt>
      <trkpt lat="58.296268992125988" lon="-4.87593999132514">
        <ele>28.5</ele>
        <time>2023-08-25T09:54:24Z</time>
      </trkpt>
      <trkpt lat="58.296334035694599" lon="-4.876181976869702">
        <ele>28.5</ele>
        <time>2023-08-25T09:54:30Z</time>
      </trkpt>
      <trkpt lat="58.296334035694599" lon="-4.876181976869702">
        <ele>28.5</ele>
        <time>2023-08-25T09:55:01Z</time>
      </trkpt>
      <trkpt lat="58.296369994059205" lon="-4.876395966857672">
        <ele>44.359999999999999</ele>
        <time>2023-08-25T09:57:27Z</time>
      </trkpt>
      <trkpt lat="58.296400001272559" lon="-4.876234028488398">
        <ele>40.990000000000002</ele>
        <time>2023-08-25T09:57:51Z</time>
      </trkpt>
      <trkpt lat="58.29637804068625" lon="-4.876225981861353">
        <ele>40.509999999999998</ele>
        <time>2023-08-25T09:58:18Z</time>
      </trkpt>
      <trkpt lat="58.296368988230824" lon="-4.876313991844654">
        <ele>40.509999999999998</ele>
        <time>2023-08-25T09:58:20Z</time>
      </trkpt>
      <trkpt lat="58.296393966302276" lon="-4.876407030969858">
        <ele>40.030000000000001</ele>
        <time>2023-08-25T09:58:21Z</time>
      </trkpt>
      <trkpt lat="58.296421961858869" lon="-4.876510966569185">
        <ele>40.030000000000001</ele>
        <time>2023-08-25T09:58:22Z</time>
      </trkpt>
      <trkpt lat="58.296454986557364" lon="-4.876630995422602">
        <ele>40.030000000000001</ele>
        <time>2023-08-25T09:58:23Z</time>
      </trkpt>
      <trkpt lat="58.296494968235493" lon="-4.876780025660992">
        <ele>39.549999999999997</ele>
        <time>2023-08-25T09:58:24Z</time>
      </trkpt>
      <trkpt lat="58.296926971524954" lon="-4.878396978601813">
        <ele>37.149999999999999</ele>
        <time>2023-08-25T09:58:32Z</time>
      </trkpt>
      <trkpt lat="58.297656029462814" lon="-4.881149008870125">
        <ele>34.259999999999998</ele>
        <time>2023-08-25T09:58:43Z</time>
      </trkpt>
      <trkpt lat="58.29870100133121" lon="-4.885090012103319">
        <ele>34.740000000000002</ele>
        <time>2023-08-25T09:58:57Z</time>
      </trkpt>
      <trkpt lat="58.299570037052035" lon="-4.888095008209348">
        <ele>31.859999999999999</ele>
        <time>2023-08-25T09:59:08Z</time>
      </trkpt>
      <trkpt lat="58.300521969795227" lon="-4.890963966026902">
        <ele>30.899999999999999</ele>
        <time>2023-08-25T09:59:18Z</time>
      </trkpt>
      <trkpt lat="58.301858967170119" lon="-4.894992979243398">
        <ele>29.940000000000001</ele>
        <time>2023-08-25T09:59:31Z</time>
      </trkpt>
      <trkpt lat="58.302536979317665" lon="-4.89714696072042">
        <ele>28.98</ele>
        <time>2023-08-25T09:59:39Z</time>
      </trkpt>
      <trkpt lat="58.303443985059857" lon="-4.900771966204047">
        <ele>27.530000000000001</ele>
        <time>2023-08-25T09:59:51Z</time>
      </trkpt>
      <trkpt lat="58.304145969450474" lon="-4.90311898291111">
        <ele>26.57</ele>
        <time>2023-08-25T10:00:01Z</time>
      </trkpt>
      <trkpt lat="58.305015005171299" lon="-4.905228037387133">
        <ele>26.09</ele>
        <time>2023-08-25T10:00:10Z</time>
      </trkpt>
      <trkpt lat="58.306187968701124" lon="-4.907895997166634">
        <ele>26.57</ele>
        <time>2023-08-25T10:00:21Z</time>
      </trkpt>
      <trkpt lat="58.307903995737433" lon="-4.91141396574676">
        <ele>28.02</ele>
        <time>2023-08-25T10:00:36Z</time>
      </trkpt>
      <trkpt lat="58.309333026409149" lon="-4.914132971316576">
        <ele>30.420000000000002</ele>
        <time>2023-08-25T10:00:48Z</time>
      </trkpt>
      <trkpt lat="58.310394007712603" lon="-4.915790995582938">
        <ele>31.859999999999999</ele>
        <time>2023-08-25T10:00:57Z</time>
      </trkpt>
      <trkpt lat="58.310508001595736" lon="-4.915916975587606">
        <ele>31.859999999999999</ele>
        <time>2023-08-25T10:00:58Z</time>
      </trkpt>
      <trkpt lat="58.310630964115262" lon="-4.916005991399288">
        <ele>31.859999999999999</ele>
        <time>2023-08-25T10:00:59Z</time>
      </trkpt>
      <trkpt lat="58.310759039595723" lon="-4.916059970855713">
        <ele>31.859999999999999</ele>
        <time>2023-08-25T10:01:00Z</time>
      </trkpt>
      <trkpt lat="58.310887031257153" lon="-4.916070029139519">
        <ele>32.340000000000003</ele>
        <time>2023-08-25T10:01:01Z</time>
      </trkpt>
      <trkpt lat="58.31101099960506" lon="-4.916077991947532">
        <ele>32.340000000000003</ele>
        <time>2023-08-25T10:01:02Z</time>
      </trkpt>
      <trkpt lat="58.311239993199706" lon="-4.915981013327837">
        <ele>33.299999999999997</ele>
        <time>2023-08-25T10:01:04Z</time>
      </trkpt>
      <trkpt lat="58.31133202649653" lon="-4.915930973365903">
        <ele>33.780000000000001</ele>
        <time>2023-08-25T10:01:05Z</time>
      </trkpt>
      <trkpt lat="58.311438979580998" lon="-4.915842041373253">
        <ele>34.259999999999998</ele>
        <time>2023-08-25T10:01:06Z</time>
      </trkpt>
      <trkpt lat="58.312441958114505" lon="-4.914749041199684">
        <ele>37.630000000000003</ele>
        <time>2023-08-25T10:01:15Z</time>
      </trkpt>
      <trkpt lat="58.313953969627619" lon="-4.913118006661534">
        <ele>36.189999999999998</ele>
        <time>2023-08-25T10:01:26Z</time>
      </trkpt>
      <trkpt lat="58.315001036971807" lon="-4.912590030580759">
        <ele>34.259999999999998</ele>
        <time>2023-08-25T10:01:33Z</time>
      </trkpt>
      <trkpt lat="58.316023964434862" lon="-4.911638014018536">
        <ele>35.229999999999997</ele>
        <time>2023-08-25T10:01:40Z</time>
      </trkpt>
      <trkpt lat="58.317662039771676" lon="-4.909920981153846">
        <ele>36.670000000000002</ele>
        <time>2023-08-25T10:01:52Z</time>
      </trkpt>
      <trkpt lat="58.317983988672495" lon="-4.909730041399598">
        <ele>36.670000000000002</ele>
        <time>2023-08-25T10:01:54Z</time>
      </trkpt>
      <trkpt lat="58.318122960627079" lon="-4.909726018086076">
        <ele>36.670000000000002</ele>
        <time>2023-08-25T10:01:55Z</time>
      </trkpt>
      <trkpt lat="58.319793976843357" lon="-4.909943025559187">
        <ele>36.670000000000002</ele>
        <time>2023-08-25T10:02:05Z</time>
      </trkpt>
      <trkpt lat="58.322000009939075" lon="-4.910958996042609">
        <ele>34.740000000000002</ele>
        <time>2023-08-25T10:02:18Z</time>
      </trkpt>
      <trkpt lat="58.324524974450469" lon="-4.91276596672833">
        <ele>35.710000000000001</ele>
        <time>2023-08-25T10:02:33Z</time>
      </trkpt>
      <trkpt lat="58.325829030945897" lon="-4.913698034361005">
        <ele>40.030000000000001</ele>
        <time>2023-08-25T10:02:42Z</time>
      </trkpt>
      <trkpt lat="58.327665003016591" lon="-4.915010975673795">
        <ele>44.359999999999999</ele>
        <time>2023-08-25T10:02:53Z</time>
      </trkpt>
      <trkpt lat="58.328112009912729" lon="-4.915329990908504">
        <ele>47.240000000000002</ele>
        <time>2023-08-25T10:02:56Z</time>
      </trkpt>
      <trkpt lat="58.328245030716062" lon="-4.915525959804654">
        <ele>48.200000000000003</ele>
        <time>2023-08-25T10:02:57Z</time>
      </trkpt>
      <trkpt lat="58.328358018770814" lon="-4.915692005306482">
        <ele>49.159999999999997</ele>
        <time>2023-08-25T10:02:58Z</time>
      </trkpt>
      <trkpt lat="58.329109959304333" lon="-4.917109971866012">
        <ele>52.530000000000001</ele>
        <time>2023-08-25T10:03:05Z</time>
      </trkpt>
      <trkpt lat="58.32923199981451" lon="-4.917264031246305">
        <ele>52.049999999999997</ele>
        <time>2023-08-25T10:03:06Z</time>
      </trkpt>
      <trkpt lat="58.329356973990798" lon="-4.917422030121088">
        <ele>51.57</ele>
        <time>2023-08-25T10:03:07Z</time>
      </trkpt>
      <trkpt lat="58.329501980915666" lon="-4.917527977377176">
        <ele>51.090000000000003</ele>
        <time>2023-08-25T10:03:08Z</time>
      </trkpt>
      <trkpt lat="58.329653022810817" lon="-4.917602995410562">
        <ele>50.130000000000003</ele>
        <time>2023-08-25T10:03:09Z</time>
      </trkpt>
      <trkpt lat="58.329802975058556" lon="-4.917678013443947">
        <ele>50.130000000000003</ele>
        <time>2023-08-25T10:03:10Z</time>
      </trkpt>
      <trkpt lat="58.330465983599424" lon="-4.918034998700023">
        <ele>47.240000000000002</ele>
        <time>2023-08-25T10:03:15Z</time>
      </trkpt>
      <trkpt lat="58.330551981925964" lon="-4.918172964826226">
        <ele>46.759999999999998</ele>
        <time>2023-08-25T10:03:16Z</time>
      </trkpt>
      <trkpt lat="58.330625994130969" lon="-4.918319983407855">
        <ele>46.280000000000001</ele>
        <time>2023-08-25T10:03:17Z</time>
      </trkpt>
      <trkpt lat="58.330678967759013" lon="-4.918489968404174">
        <ele>45.32</ele>
        <time>2023-08-25T10:03:18Z</time>
      </trkpt>
      <trkpt lat="58.330730013549328" lon="-4.918683003634214">
        <ele>44.840000000000003</ele>
        <time>2023-08-25T10:03:19Z</time>
      </trkpt>
      <trkpt lat="58.330759014934301" lon="-4.918882995843887">
        <ele>44.359999999999999</ele>
        <time>2023-08-25T10:03:20Z</time>
      </trkpt>
      <trkpt lat="58.330772006884217" lon="-4.919083993881941">
        <ele>44.359999999999999</ele>
        <time>2023-08-25T10:03:21Z</time>
      </trkpt>
      <trkpt lat="58.330783993005753" lon="-4.919266970828176">
        <ele>43.880000000000003</ele>
        <time>2023-08-25T10:03:22Z</time>
      </trkpt>
      <trkpt lat="58.330829003825784" lon="-4.919977001845837">
        <ele>43.399999999999999</ele>
        <time>2023-08-25T10:03:26Z</time>
      </trkpt>
      <trkpt lat="58.330860016867518" lon="-4.920175988227129">
        <ele>42.920000000000002</ele>
        <time>2023-08-25T10:03:27Z</time>
      </trkpt>
      <trkpt lat="58.330907039344311" lon="-4.920347984880209">
        <ele>42.439999999999998</ele>
        <time>2023-08-25T10:03:28Z</time>
      </trkpt>
      <trkpt lat="58.330958001315594" lon="-4.920531967654824">
        <ele>41.950000000000003</ele>
        <time>2023-08-25T10:03:29Z</time>
      </trkpt>
      <trkpt lat="58.331008963286877" lon="-4.920717962086201">
        <ele>40.990000000000002</ele>
        <time>2023-08-25T10:03:30Z</time>
      </trkpt>
      <trkpt lat="58.331406014040112" lon="-4.921950018033385">
        <ele>33.299999999999997</ele>
        <time>2023-08-25T10:03:36Z</time>
      </trkpt>
      <trkpt lat="58.331500981003046" lon="-4.922129977494478">
        <ele>32.340000000000003</ele>
        <time>2023-08-25T10:03:37Z</time>
      </trkpt>
      <trkpt lat="58.331943964585662" lon="-4.922989038750529">
        <ele>28.02</ele>
        <time>2023-08-25T10:03:42Z</time>
      </trkpt>
      <trkpt lat="58.332010013982654" lon="-4.923202022910118">
        <ele>27.530000000000001</ele>
        <time>2023-08-25T10:03:43Z</time>
      </trkpt>
      <trkpt lat="58.332080002874136" lon="-4.923427999019623">
        <ele>27.530000000000001</ele>
        <time>2023-08-25T10:03:44Z</time>
      </trkpt>
      <trkpt lat="58.332719961181283" lon="-4.925193982198834">
        <ele>26.57</ele>
        <time>2023-08-25T10:03:51Z</time>
      </trkpt>
      <trkpt lat="58.333699973300099" lon="-4.927430022507906">
        <ele>26.09</ele>
        <time>2023-08-25T10:04:00Z</time>
      </trkpt>
      <trkpt lat="58.334210012108088" lon="-4.928642967715859">
        <ele>25.609999999999999</ele>
        <time>2023-08-25T10:04:05Z</time>
      </trkpt>
      <trkpt lat="58.334328029304743" lon="-4.928834997117519">
        <ele>25.129999999999999</ele>
        <time>2023-08-25T10:04:06Z</time>
      </trkpt>
      <trkpt lat="58.334445962682366" lon="-4.929025014862418">
        <ele>25.129999999999999</ele>
        <time>2023-08-25T10:04:07Z</time>
      </trkpt>
      <trkpt lat="58.334579989314079" lon="-4.929187959060073">
        <ele>24.649999999999999</ele>
        <time>2023-08-25T10:04:08Z</time>
      </trkpt>
      <trkpt lat="58.334712004289031" lon="-4.929347969591618">
        <ele>24.649999999999999</ele>
        <time>2023-08-25T10:04:09Z</time>
      </trkpt>
      <trkpt lat="58.33509799093008" lon="-4.929815009236336">
        <ele>24.649999999999999</ele>
        <time>2023-08-25T10:04:12Z</time>
      </trkpt>
      <trkpt lat="58.335208967328072" lon="-4.930036962032318">
        <ele>24.649999999999999</ele>
        <time>2023-08-25T10:04:13Z</time>
      </trkpt>
      <trkpt lat="58.335684975609183" lon="-4.931304976344109">
        <ele>25.609999999999999</ele>
        <time>2023-08-25T10:04:19Z</time>
      </trkpt>
      <trkpt lat="58.335751025006175" lon="-4.931482002139092">
        <ele>24.649999999999999</ele>
        <time>2023-08-25T10:04:22Z</time>
      </trkpt>
      <trkpt lat="58.335758987814188" lon="-4.931503962725401">
        <ele>24.649999999999999</ele>
        <time>2023-08-25T10:04:23Z</time>
      </trkpt>
      <trkpt lat="58.335964009165764" lon="-4.93195197544992">
        <ele>22.25</ele>
        <time>2023-08-25T10:04:30Z</time>
      </trkpt>
      <trkpt lat="58.336589969694614" lon="-4.932779017835856">
        <ele>19.84</ele>
        <time>2023-08-25T10:04:36Z</time>
      </trkpt>
      <trkpt lat="58.336688037961721" lon="-4.932975992560387">
        <ele>19.84</ele>
        <time>2023-08-25T10:04:37Z</time>
      </trkpt>
      <trkpt lat="58.336802031844854" lon="-4.933204986155033">
        <ele>19.84</ele>
        <time>2023-08-25T10:04:38Z</time>
      </trkpt>
      <trkpt lat="58.337496975436807" lon="-4.935227036476135">
        <ele>23.210000000000001</ele>
        <time>2023-08-25T10:04:46Z</time>
      </trkpt>
      <trkpt lat="58.338500037789345" lon="-4.938219962641597">
        <ele>25.609999999999999</ele>
        <time>2023-08-25T10:04:57Z</time>
      </trkpt>
      <trkpt lat="58.3387700188905" lon="-4.938886994495988">
        <ele>25.609999999999999</ele>
        <time>2023-08-25T10:05:02Z</time>
      </trkpt>
      <trkpt lat="58.338807988911867" lon="-4.938990008085966">
        <ele>25.609999999999999</ele>
        <time>2023-08-25T10:05:03Z</time>
      </trkpt>
      <trkpt lat="58.338848976418376" lon="-4.939126968383789">
        <ele>25.609999999999999</ele>
        <time>2023-08-25T10:05:04Z</time>
      </trkpt>
      <trkpt lat="58.338901028037071" lon="-4.939298965036869">
        <ele>25.129999999999999</ele>
        <time>2023-08-25T10:05:05Z</time>
      </trkpt>
      <trkpt lat="58.338958024978638" lon="-4.939486971125007">
        <ele>25.129999999999999</ele>
        <time>2023-08-25T10:05:06Z</time>
      </trkpt>
      <trkpt lat="58.339525982737541" lon="-4.940900998190045">
        <ele>23.690000000000001</ele>
        <time>2023-08-25T10:05:13Z</time>
      </trkpt>
      <trkpt lat="58.339608041569591" lon="-4.94112404063344">
        <ele>23.690000000000001</ele>
        <time>2023-08-25T10:05:14Z</time>
      </trkpt>
      <trkpt lat="58.339679958298802" lon="-4.941368959844112">
        <ele>23.690000000000001</ele>
        <time>2023-08-25T10:05:15Z</time>
      </trkpt>
      <trkpt lat="58.340097041800618" lon="-4.942689025774598">
        <ele>22.73</ele>
        <time>2023-08-25T10:05:20Z</time>
      </trkpt>
      <trkpt lat="58.340211035683751" lon="-4.942911984398961">
        <ele>22.25</ele>
        <time>2023-08-25T10:05:21Z</time>
      </trkpt>
      <trkpt lat="58.340660976245999" lon="-4.943836005404592">
        <ele>22.25</ele>
        <time>2023-08-25T10:05:25Z</time>
      </trkpt>
      <trkpt lat="58.34156203083694" lon="-4.945838022977114">
        <ele>20.809999999999999</ele>
        <time>2023-08-25T10:05:33Z</time>
      </trkpt>
      <trkpt lat="58.34223099052906" lon="-4.947474002838135">
        <ele>22.73</ele>
        <time>2023-08-25T10:05:40Z</time>
      </trkpt>
      <trkpt lat="58.342278013005853" lon="-4.947755970060825">
        <ele>23.690000000000001</ele>
        <time>2023-08-25T10:05:41Z</time>
      </trkpt>
      <trkpt lat="58.342869020998478" lon="-4.951192969456315">
        <ele>27.050000000000001</ele>
        <time>2023-08-25T10:05:52Z</time>
      </trkpt>
      <trkpt lat="58.34360302425921" lon="-4.953697985038161">
        <ele>29.940000000000001</ele>
        <time>2023-08-25T10:06:01Z</time>
      </trkpt>
      <trkpt lat="58.343821037560701" lon="-4.954375997185707">
        <ele>29.940000000000001</ele>
        <time>2023-08-25T10:06:05Z</time>
      </trkpt>
      <trkpt lat="58.344080038368702" lon="-4.955186024308205">
        <ele>29.460000000000001</ele>
        <time>2023-08-25T10:06:10Z</time>
      </trkpt>
      <trkpt lat="58.344982014968991" lon="-4.957736972719431">
        <ele>25.129999999999999</ele>
        <time>2023-08-25T10:06:21Z</time>
      </trkpt>
      <trkpt lat="58.345855996012688" lon="-4.960192032158375">
        <ele>25.609999999999999</ele>
        <time>2023-08-25T10:06:31Z</time>
      </trkpt>
      <trkpt lat="58.347247978672385" lon="-4.96471700258553">
        <ele>22.25</ele>
        <time>2023-08-25T10:06:46Z</time>
      </trkpt>
      <trkpt lat="58.348008971661329" lon="-4.967020014300942">
        <ele>24.170000000000002</ele>
        <time>2023-08-25T10:06:55Z</time>
      </trkpt>
      <trkpt lat="58.349110018461943" lon="-4.968938967213035">
        <ele>25.129999999999999</ele>
        <time>2023-08-25T10:07:03Z</time>
      </trkpt>
      <trkpt lat="58.351180013269186" lon="-4.972389964386821">
        <ele>28.98</ele>
        <time>2023-08-25T10:07:17Z</time>
      </trkpt>
      <trkpt lat="58.351400038227439" lon="-4.972758013755083">
        <ele>29.940000000000001</ele>
        <time>2023-08-25T10:07:20Z</time>
      </trkpt>
      <trkpt lat="58.351429039612412" lon="-4.972805958241224">
        <ele>29.940000000000001</ele>
        <time>2023-08-25T10:07:21Z</time>
      </trkpt>
      <trkpt lat="58.351449994370341" lon="-4.972840994596481">
        <ele>29.940000000000001</ele>
        <time>2023-08-25T10:07:22Z</time>
      </trkpt>
      <trkpt lat="58.351472038775682" lon="-4.972877958789468">
        <ele>29.940000000000001</ele>
        <time>2023-08-25T10:07:23Z</time>
      </trkpt>
      <trkpt lat="58.351504979655147" lon="-4.972932022064924">
        <ele>30.420000000000002</ele>
        <time>2023-08-25T10:07:24Z</time>
      </trkpt>
      <trkpt lat="58.351613022387028" lon="-4.973112987354398">
        <ele>30.420000000000002</ele>
        <time>2023-08-25T10:07:26Z</time>
      </trkpt>
      <trkpt lat="58.351687034592032" lon="-4.973236033692956">
        <ele>30.420000000000002</ele>
        <time>2023-08-25T10:07:27Z</time>
      </trkpt>
      <trkpt lat="58.352465964853764" lon="-4.974534977227449">
        <ele>28.5</ele>
        <time>2023-08-25T10:07:34Z</time>
      </trkpt>
      <trkpt lat="58.353772033005953" lon="-4.976713014766574">
        <ele>24.170000000000002</ele>
        <time>2023-08-25T10:07:44Z</time>
      </trkpt>
      <trkpt lat="58.354972992092371" lon="-4.978716960176826">
        <ele>21.77</ele>
        <time>2023-08-25T10:07:54Z</time>
      </trkpt>
      <trkpt lat="58.356634033843875" lon="-4.98158298432827">
        <ele>19.84</ele>
        <time>2023-08-25T10:08:08Z</time>
      </trkpt>
      <trkpt lat="58.35795502178371" lon="-4.983961014077067">
        <ele>20.809999999999999</ele>
        <time>2023-08-25T10:08:20Z</time>
      </trkpt>
      <trkpt lat="58.358077984303236" lon="-4.984127981588244">
        <ele>20.32</ele>
        <time>2023-08-25T10:08:21Z</time>
      </trkpt>
      <trkpt lat="58.358221985399723" lon="-4.984239041805267">
        <ele>19.84</ele>
        <time>2023-08-25T10:08:22Z</time>
      </trkpt>
      <trkpt lat="58.358381995931268" lon="-4.984342977404594">
        <ele>19.359999999999999</ele>
        <time>2023-08-25T10:08:23Z</time>
      </trkpt>
      <trkpt lat="58.358549969270825" lon="-4.984416989609599">
        <ele>18.879999999999999</ele>
        <time>2023-08-25T10:08:24Z</time>
      </trkpt>
      <trkpt lat="58.360390970483422" lon="-4.985240008682013">
        <ele>16.48</ele>
        <time>2023-08-25T10:08:34Z</time>
      </trkpt>
      <trkpt lat="58.362256027758121" lon="-4.986074008047581">
        <ele>14.56</ele>
        <time>2023-08-25T10:08:45Z</time>
      </trkpt>
      <trkpt lat="58.36242601275444" lon="-4.986186996102333">
        <ele>14.56</ele>
        <time>2023-08-25T10:08:46Z</time>
      </trkpt>
      <trkpt lat="58.362588034942746" lon="-4.986349018290639">
        <ele>14.56</ele>
        <time>2023-08-25T10:08:47Z</time>
      </trkpt>
      <trkpt lat="58.36274997331202" lon="-4.986511040478945">
        <ele>14.56</ele>
        <time>2023-08-25T10:08:48Z</time>
      </trkpt>
      <trkpt lat="58.36317602545023" lon="-4.98691001906991">
        <ele>15.039999999999999</ele>
        <time>2023-08-25T10:08:51Z</time>
      </trkpt>
      <trkpt lat="58.36330896243453" lon="-4.987001968547702">
        <ele>15.52</ele>
        <time>2023-08-25T10:08:52Z</time>
      </trkpt>
      <trkpt lat="58.363439971581101" lon="-4.987037004902959">
        <ele>15.52</ele>
        <time>2023-08-25T10:08:53Z</time>
      </trkpt>
      <trkpt lat="58.363589001819491" lon="-4.987026024609804">
        <ele>16</ele>
        <time>2023-08-25T10:08:54Z</time>
      </trkpt>
      <trkpt lat="58.363743983209133" lon="-4.987014960497618">
        <ele>16</ele>
        <time>2023-08-25T10:08:55Z</time>
      </trkpt>
      <trkpt lat="58.364413026720285" lon="-4.987032981589437">
        <ele>16.48</ele>
        <time>2023-08-25T10:08:59Z</time>
      </trkpt>
      <trkpt lat="58.36457597091794" lon="-4.987092996016145">
        <ele>16.960000000000001</ele>
        <time>2023-08-25T10:09:00Z</time>
      </trkpt>
      <trkpt lat="58.364729024469852" lon="-4.987248983234167">
        <ele>17.440000000000001</ele>
        <time>2023-08-25T10:09:01Z</time>
      </trkpt>
      <trkpt lat="58.366126036271453" lon="-4.988916981965303">
        <ele>23.210000000000001</ele>
        <time>2023-08-25T10:09:10Z</time>
      </trkpt>
      <trkpt lat="58.367311991751194" lon="-4.990308964625001">
        <ele>33.780000000000001</ele>
        <time>2023-08-25T10:09:18Z</time>
      </trkpt>
      <trkpt lat="58.368524014949799" lon="-4.991459967568517">
        <ele>39.07</ele>
        <time>2023-08-25T10:09:26Z</time>
      </trkpt>
      <trkpt lat="58.369991015642881" lon="-4.992421958595514">
        <ele>39.07</ele>
        <time>2023-08-25T10:09:35Z</time>
      </trkpt>
      <trkpt lat="58.371710982173681" lon="-4.993494004011154">
        <ele>27.530000000000001</ele>
        <time>2023-08-25T10:09:46Z</time>
      </trkpt>
      <trkpt lat="58.37181500159204" lon="-4.993581008166075">
        <ele>26.09</ele>
        <time>2023-08-25T10:09:47Z</time>
      </trkpt>
      <trkpt lat="58.371911980211735" lon="-4.993676980957389">
        <ele>24.649999999999999</ele>
        <time>2023-08-25T10:09:48Z</time>
      </trkpt>
      <trkpt lat="58.372314982116222" lon="-4.994079982861877">
        <ele>19.359999999999999</ele>
        <time>2023-08-25T10:09:52Z</time>
      </trkpt>
      <trkpt lat="58.372474992647767" lon="-4.994435962289572">
        <ele>16.48</ele>
        <time>2023-08-25T10:09:54Z</time>
      </trkpt>
      <trkpt lat="58.372559985145926" lon="-4.994625980034471">
        <ele>15.039999999999999</ele>
        <time>2023-08-25T10:09:55Z</time>
      </trkpt>
      <trkpt lat="58.373483000323176" lon="-4.997023036703467">
        <ele>6.87</ele>
        <time>2023-08-25T10:10:05Z</time>
      </trkpt>
      <trkpt lat="58.374140979722142" lon="-4.999265028163791">
        <ele>4.94</ele>
        <time>2023-08-25T10:10:14Z</time>
      </trkpt>
      <trkpt lat="58.374201999977231" lon="-4.99952101148665">
        <ele>4.94</ele>
        <time>2023-08-25T10:10:15Z</time>
      </trkpt>
      <trkpt lat="58.374797031283379" lon="-5.00201404094696">
        <ele>3.02</ele>
        <time>2023-08-25T10:10:25Z</time>
      </trkpt>
      <trkpt lat="58.375267004594207" lon="-5.004317974671722">
        <ele>-0.82</ele>
        <time>2023-08-25T10:10:34Z</time>
      </trkpt>
      <trkpt lat="58.375411005690694" lon="-5.005434025079012">
        <ele>-2.75</ele>
        <time>2023-08-25T10:10:38Z</time>
      </trkpt>
      <trkpt lat="58.375417040660977" lon="-5.007811971008778">
        <ele>-2.27</ele>
        <time>2023-08-25T10:10:47Z</time>
      </trkpt>
      <trkpt lat="58.375109005719423" lon="-5.00970896333456">
        <ele>0.14</ele>
        <time>2023-08-25T10:10:56Z</time>
      </trkpt>
      <trkpt lat="58.374726958572865" lon="-5.012031001970172">
        <ele>1.1</ele>
        <time>2023-08-25T10:11:07Z</time>
      </trkpt>
      <trkpt lat="58.374261008575559" lon="-5.014231000095606">
        <ele>3.02</ele>
        <time>2023-08-25T10:11:18Z</time>
      </trkpt>
      <trkpt lat="58.374128993600607" lon="-5.014720000326634">
        <ele>3.98</ele>
        <time>2023-08-25T10:11:24Z</time>
      </trkpt>
      <trkpt lat="58.374128993600607" lon="-5.014720000326634">
        <ele>3.98</ele>
        <time>2023-08-25T10:11:55Z</time>
      </trkpt>
      <trkpt lat="58.374085994437337" lon="-5.014876993373036">
        <ele>4.94</ele>
        <time>2023-08-25T10:12:14Z</time>
      </trkpt>
      <trkpt lat="58.373817019164562" lon="-5.015871003270149">
        <ele>5.91</ele>
        <time>2023-08-25T10:12:21Z</time>
      </trkpt>
      <trkpt lat="58.373708976432681" lon="-5.016266964375973">
        <ele>6.39</ele>
        <time>2023-08-25T10:12:24Z</time>
      </trkpt>
      <trkpt lat="58.373708976432681" lon="-5.016467040404677">
        <ele>6.39</ele>
        <time>2023-08-25T10:12:25Z</time>
      </trkpt>
      <trkpt lat="58.373708976432681" lon="-5.016545997932553">
        <ele>6.39</ele>
        <time>2023-08-25T10:12:26Z</time>
      </trkpt>
      <trkpt lat="58.373738983646035" lon="-5.016726963222027">
        <ele>6.39</ele>
        <time>2023-08-25T10:12:27Z</time>
      </trkpt>
      <trkpt lat="58.373761028051376" lon="-5.016856966540217">
        <ele>6.39</ele>
        <time>2023-08-25T10:12:28Z</time>
      </trkpt>
      <trkpt lat="58.373800003901124" lon="-5.017091995105147">
        <ele>6.39</ele>
        <time>2023-08-25T10:12:31Z</time>
      </trkpt>
      <trkpt lat="58.373780976980925" lon="-5.017233984544873">
        <ele>6.39</ele>
        <time>2023-08-25T10:12:32Z</time>
      </trkpt>
      <trkpt lat="58.373748958110809" lon="-5.017273966223002">
        <ele>6.87</ele>
        <time>2023-08-25T10:12:33Z</time>
      </trkpt>
      <trkpt lat="58.373694978654385" lon="-5.017340015619993">
        <ele>6.87</ele>
        <time>2023-08-25T10:12:34Z</time>
      </trkpt>
      <trkpt lat="58.373630018904805" lon="-5.01741997897625">
        <ele>6.87</ele>
        <time>2023-08-25T10:12:35Z</time>
      </trkpt>
      <trkpt lat="58.373558018356562" lon="-5.017508994787931">
        <ele>7.35</ele>
        <time>2023-08-25T10:12:36Z</time>
      </trkpt>
      <trkpt lat="58.373492974787951" lon="-5.017622988671064">
        <ele>7.83</ele>
        <time>2023-08-25T10:12:37Z</time>
      </trkpt>
      <trkpt lat="58.373421980068088" lon="-5.01776397228241">
        <ele>8.310000000000001</ele>
        <time>2023-08-25T10:12:38Z</time>
      </trkpt>
      <trkpt lat="58.372852010652423" lon="-5.019342033192515">
        <ele>9.75</ele>
        <time>2023-08-25T10:12:46Z</time>
      </trkpt>
      <trkpt lat="58.372026979923248" lon="-5.02100701443851">
        <ele>11.67</ele>
        <time>2023-08-25T10:12:54Z</time>
      </trkpt>
      <trkpt lat="58.3710209839046" lon="-5.022448031231761">
        <ele>13.119999999999999</ele>
        <time>2023-08-25T10:13:02Z</time>
      </trkpt>
      <trkpt lat="58.370919981971383" lon="-5.022682975977659">
        <ele>12.630000000000001</ele>
        <time>2023-08-25T10:13:03Z</time>
      </trkpt>
      <trkpt lat="58.370830966159701" lon="-5.022929990664125">
        <ele>12.630000000000001</ele>
        <time>2023-08-25T10:13:04Z</time>
      </trkpt>
      <trkpt lat="58.37076298892498" lon="-5.023203995078802">
        <ele>12.15</ele>
        <time>2023-08-25T10:13:05Z</time>
      </trkpt>
      <trkpt lat="58.37069601751864" lon="-5.023472970351577">
        <ele>11.67</ele>
        <time>2023-08-25T10:13:06Z</time>
      </trkpt>
      <trkpt lat="58.370656035840511" lon="-5.023755021393299">
        <ele>11.67</ele>
        <time>2023-08-25T10:13:07Z</time>
      </trkpt>
      <trkpt lat="58.370642038062215" lon="-5.024050986394286">
        <ele>11.19</ele>
        <time>2023-08-25T10:13:08Z</time>
      </trkpt>
      <trkpt lat="58.370628040283918" lon="-5.024345023557544">
        <ele>10.710000000000001</ele>
        <time>2023-08-25T10:13:09Z</time>
      </trkpt>
      <trkpt lat="58.37063298560679" lon="-5.02463998273015">
        <ele>10.710000000000001</ele>
        <time>2023-08-25T10:13:10Z</time>
      </trkpt>
      <trkpt lat="58.370668021962047" lon="-5.024936031550169">
        <ele>10.23</ele>
        <time>2023-08-25T10:13:11Z</time>
      </trkpt>
      <trkpt lat="58.370704986155033" lon="-5.02523903734982">
        <ele>9.75</ele>
        <time>2023-08-25T10:13:12Z</time>
      </trkpt>
      <trkpt lat="58.370747985318303" lon="-5.025600967928767">
        <ele>9.27</ele>
        <time>2023-08-25T10:13:13Z</time>
      </trkpt>
      <trkpt lat="58.370801964774728" lon="-5.025844965130091">
        <ele>9.27</ele>
        <time>2023-08-25T10:13:14Z</time>
      </trkpt>
      <trkpt lat="58.371711988002062" lon="-5.029971962794662">
        <ele>5.91</ele>
        <time>2023-08-25T10:13:27Z</time>
      </trkpt>
      <trkpt lat="58.372469963505864" lon="-5.033782040700316">
        <ele>3.5</ele>
        <time>2023-08-25T10:13:38Z</time>
      </trkpt>
      <trkpt lat="58.372471975162625" lon="-5.034125028178096">
        <ele>3.5</ele>
        <time>2023-08-25T10:13:39Z</time>
      </trkpt>
      <trkpt lat="58.372444985434413" lon="-5.034461980685592">
        <ele>3.02</ele>
        <time>2023-08-25T10:13:40Z</time>
      </trkpt>
      <trkpt lat="58.372411960735917" lon="-5.034788036718965">
        <ele>3.02</ele>
        <time>2023-08-25T10:13:41Z</time>
      </trkpt>
      <trkpt lat="58.372343983501196" lon="-5.035108979791403">
        <ele>2.54</ele>
        <time>2023-08-25T10:13:42Z</time>
      </trkpt>
      <trkpt lat="58.372271982952952" lon="-5.035450961440802">
        <ele>3.02</ele>
        <time>2023-08-25T10:13:43Z</time>
      </trkpt>
      <trkpt lat="58.372181039303541" lon="-5.035737035796046">
        <ele>3.02</ele>
        <time>2023-08-25T10:13:44Z</time>
      </trkpt>
      <trkpt lat="58.371885996311903" lon="-5.036673964932561">
        <ele>3.02</ele>
        <time>2023-08-25T10:13:47Z</time>
      </trkpt>
      <trkpt lat="58.371840985491872" lon="-5.037043020129204">
        <ele>2.54</ele>
        <time>2023-08-25T10:13:48Z</time>
      </trkpt>
      <trkpt lat="58.371798992156982" lon="-5.037395982071757">
        <ele>2.54</ele>
        <time>2023-08-25T10:13:49Z</time>
      </trkpt>
      <trkpt lat="58.371758004650474" lon="-5.037739975377917">
        <ele>2.54</ele>
        <time>2023-08-25T10:13:50Z</time>
      </trkpt>
      <trkpt lat="58.371787006035447" lon="-5.038086986169219">
        <ele>2.54</ele>
        <time>2023-08-25T10:13:51Z</time>
      </trkpt>
      <trkpt lat="58.371816007420421" lon="-5.038426034152508">
        <ele>2.54</ele>
        <time>2023-08-25T10:13:52Z</time>
      </trkpt>
      <trkpt lat="58.371846014633775" lon="-5.038760975003243">
        <ele>2.54</ele>
        <time>2023-08-25T10:13:53Z</time>
      </trkpt>
      <trkpt lat="58.371891025453806" lon="-5.039094993844628">
        <ele>2.06</ele>
        <time>2023-08-25T10:13:54Z</time>
      </trkpt>
      <trkpt lat="58.37196403183043" lon="-5.039428006857634">
        <ele>2.54</ele>
        <time>2023-08-25T10:13:55Z</time>
      </trkpt>
      <trkpt lat="58.372901966795325" lon="-5.043794978410006">
        <ele>2.54</ele>
        <time>2023-08-25T10:14:08Z</time>
      </trkpt>
      <trkpt lat="58.373834034428" lon="-5.048485994338989">
        <ele>0.14</ele>
        <time>2023-08-25T10:14:22Z</time>
      </trkpt>
      <trkpt lat="58.374677002429962" lon="-5.052748024463654">
        <ele>12.630000000000001</ele>
        <time>2023-08-25T10:14:35Z</time>
      </trkpt>
      <trkpt lat="58.375517036765814" lon="-5.055746985599399">
        <ele>19.359999999999999</ele>
        <time>2023-08-25T10:14:44Z</time>
      </trkpt>
      <trkpt lat="58.376822015270591" lon="-5.05871300585568">
        <ele>22.25</ele>
        <time>2023-08-25T10:14:54Z</time>
      </trkpt>
      <trkpt lat="58.377258041873574" lon="-5.059612970799208">
        <ele>22.73</ele>
        <time>2023-08-25T10:14:59Z</time>
      </trkpt>
      <trkpt lat="58.377435989677906" lon="-5.059980014339089">
        <ele>23.210000000000001</ele>
        <time>2023-08-25T10:15:02Z</time>
      </trkpt>
      <trkpt lat="58.377522993832827" lon="-5.060158967971802">
        <ele>23.210000000000001</ele>
        <time>2023-08-25T10:15:03Z</time>
      </trkpt>
      <trkpt lat="58.378385994583368" lon="-5.061883963644505">
        <ele>22.73</ele>
        <time>2023-08-25T10:15:10Z</time>
      </trkpt>
      <trkpt lat="58.379127038642764" lon="-5.06352799013257">
        <ele>22.73</ele>
        <time>2023-08-25T10:15:16Z</time>
      </trkpt>
      <trkpt lat="58.379211025312543" lon="-5.063801994547248">
        <ele>23.210000000000001</ele>
        <time>2023-08-25T10:15:17Z</time>
      </trkpt>
      <trkpt lat="58.379274979233742" lon="-5.064097959548235">
        <ele>24.170000000000002</ele>
        <time>2023-08-25T10:15:18Z</time>
      </trkpt>
      <trkpt lat="58.379335999488831" lon="-5.064405994489789">
        <ele>25.129999999999999</ele>
        <time>2023-08-25T10:15:19Z</time>
      </trkpt>
      <trkpt lat="58.379366006702185" lon="-5.064725009724498">
        <ele>26.09</ele>
        <time>2023-08-25T10:15:20Z</time>
      </trkpt>
      <trkpt lat="58.379396013915539" lon="-5.065038995817304">
        <ele>27.050000000000001</ele>
        <time>2023-08-25T10:15:21Z</time>
      </trkpt>
      <trkpt lat="58.379378998652101" lon="-5.06535398773849">
        <ele>28.5</ele>
        <time>2023-08-25T10:15:22Z</time>
      </trkpt>
      <trkpt lat="58.379362989217043" lon="-5.06565498188138">
        <ele>28.98</ele>
        <time>2023-08-25T10:15:23Z</time>
      </trkpt>
      <trkpt lat="58.379335999488831" lon="-5.065953964367509">
        <ele>29.940000000000001</ele>
        <time>2023-08-25T10:15:24Z</time>
      </trkpt>
      <trkpt lat="58.379285959526896" lon="-5.066248001530767">
        <ele>30.420000000000002</ele>
        <time>2023-08-25T10:15:25Z</time>
      </trkpt>
      <trkpt lat="58.379234997555614" lon="-5.066543966531754">
        <ele>30.899999999999999</ele>
        <time>2023-08-25T10:15:26Z</time>
      </trkpt>
      <trkpt lat="58.378709033131599" lon="-5.068695014342666">
        <ele>35.229999999999997</ele>
        <time>2023-08-25T10:15:33Z</time>
      </trkpt>
      <trkpt lat="58.378580035641789" lon="-5.068967007100582">
        <ele>35.229999999999997</ele>
        <time>2023-08-25T10:15:34Z</time>
      </trkpt>
      <trkpt lat="58.378435028716922" lon="-5.069188037887216">
        <ele>35.229999999999997</ele>
        <time>2023-08-25T10:15:35Z</time>
      </trkpt>
      <trkpt lat="58.37733599357307" lon="-5.070310039445758">
        <ele>36.670000000000002</ele>
        <time>2023-08-25T10:15:41Z</time>
      </trkpt>
      <trkpt lat="58.375041028484702" lon="-5.071917017921805">
        <ele>40.509999999999998</ele>
        <time>2023-08-25T10:15:52Z</time>
      </trkpt>
      <trkpt lat="58.374483967199922" lon="-5.072409035637975">
        <ele>42.439999999999998</ele>
        <time>2023-08-25T10:15:55Z</time>
      </trkpt>
      <trkpt lat="58.37430601939559" lon="-5.072611961513758">
        <ele>42.920000000000002</ele>
        <time>2023-08-25T10:15:56Z</time>
      </trkpt>
      <trkpt lat="58.37366203777492" lon="-5.073555009439588">
        <ele>43.880000000000003</ele>
        <time>2023-08-25T10:16:00Z</time>
      </trkpt>
      <trkpt lat="58.373495992273092" lon="-5.073704039677978">
        <ele>44.359999999999999</ele>
        <time>2023-08-25T10:16:01Z</time>
      </trkpt>
      <trkpt lat="58.373322989791632" lon="-5.073860026896">
        <ele>44.359999999999999</ele>
        <time>2023-08-25T10:16:02Z</time>
      </trkpt>
      <trkpt lat="58.372052041813731" lon="-5.074572991579771">
        <ele>44.840000000000003</ele>
        <time>2023-08-25T10:16:09Z</time>
      </trkpt>
      <trkpt lat="58.371881972998381" lon="-5.074728978797793">
        <ele>44.359999999999999</ele>
        <time>2023-08-25T10:16:10Z</time>
      </trkpt>
      <trkpt lat="58.370479010045528" lon="-5.0766989775002">
        <ele>41.469999999999999</ele>
        <time>2023-08-25T10:16:19Z</time>
      </trkpt>
      <trkpt lat="58.369728997349739" lon="-5.078850025311112">
        <ele>42.920000000000002</ele>
        <time>2023-08-25T10:16:26Z</time>
      </trkpt>
      <trkpt lat="58.369519030675292" lon="-5.079428963363171">
        <ele>44.840000000000003</ele>
        <time>2023-08-25T10:16:28Z</time>
      </trkpt>
      <trkpt lat="58.369391961023211" lon="-5.079684024676681">
        <ele>45.799999999999997</ele>
        <time>2023-08-25T10:16:29Z</time>
      </trkpt>
      <trkpt lat="58.369265981018543" lon="-5.079935984686017">
        <ele>46.759999999999998</ele>
        <time>2023-08-25T10:16:30Z</time>
      </trkpt>
      <trkpt lat="58.369142012670636" lon="-5.080184005200863">
        <ele>47.240000000000002</ele>
        <time>2023-08-25T10:16:31Z</time>
      </trkpt>
      <trkpt lat="58.368998011574149" lon="-5.080392966046929">
        <ele>48.68</ele>
        <time>2023-08-25T10:16:32Z</time>
      </trkpt>
      <trkpt lat="58.368846969678998" lon="-5.080574015155435">
        <ele>49.649999999999999</ele>
        <time>2023-08-25T10:16:33Z</time>
      </trkpt>
      <trkpt lat="58.367533022537827" lon="-5.081774974241853">
        <ele>57.82</ele>
        <time>2023-08-25T10:16:41Z</time>
      </trkpt>
      <trkpt lat="58.365356996655464" lon="-5.084126014262438">
        <ele>62.140000000000001</ele>
        <time>2023-08-25T10:16:54Z</time>
      </trkpt>
      <trkpt lat="58.36459499783814" lon="-5.085771968588233">
        <ele>65.030000000000001</ele>
        <time>2023-08-25T10:17:00Z</time>
      </trkpt>
      <trkpt lat="58.36448703892529" lon="-5.08604496717453">
        <ele>65.510000000000005</ele>
        <time>2023-08-25T10:17:01Z</time>
      </trkpt>
      <trkpt lat="58.36440104059875" lon="-5.086362976580858">
        <ele>65.989999999999995</ele>
        <time>2023-08-25T10:17:02Z</time>
      </trkpt>
      <trkpt lat="58.36436097510159" lon="-5.086698001250625">
        <ele>66.950000000000003</ele>
        <time>2023-08-25T10:17:03Z</time>
      </trkpt>
      <trkpt lat="58.364320993423462" lon="-5.08703101426363">
        <ele>67.909999999999997</ele>
        <time>2023-08-25T10:17:04Z</time>
      </trkpt>
      <trkpt lat="58.36429400369525" lon="-5.087379030883312">
        <ele>68.390000000000001</ele>
        <time>2023-08-25T10:17:05Z</time>
      </trkpt>
      <trkpt lat="58.364311018958688" lon="-5.087717995047569">
        <ele>68.870000000000005</ele>
        <time>2023-08-25T10:17:06Z</time>
      </trkpt>
      <trkpt lat="58.364329040050507" lon="-5.088057965040207">
        <ele>69.349999999999994</ele>
        <time>2023-08-25T10:17:07Z</time>
      </trkpt>
      <trkpt lat="58.364397017285228" lon="-5.088398018851876">
        <ele>69.829999999999998</ele>
        <time>2023-08-25T10:17:08Z</time>
      </trkpt>
      <trkpt lat="58.364473041146994" lon="-5.088718961924315">
        <ele>70.310000000000002</ele>
        <time>2023-08-25T10:17:09Z</time>
      </trkpt>
      <trkpt lat="58.364547975361347" lon="-5.089034037664533">
        <ele>70.310000000000002</ele>
        <time>2023-08-25T10:17:10Z</time>
      </trkpt>
      <trkpt lat="58.364760037511587" lon="-5.089924028143287">
        <ele>69.829999999999998</ele>
        <time>2023-08-25T10:17:13Z</time>
      </trkpt>
      <trkpt lat="58.36478803306818" lon="-5.09021395817399">
        <ele>69.349999999999994</ele>
        <time>2023-08-25T10:17:14Z</time>
      </trkpt>
      <trkpt lat="58.364795995876193" lon="-5.090483017265797">
        <ele>68.870000000000005</ele>
        <time>2023-08-25T10:17:15Z</time>
      </trkpt>
      <trkpt lat="58.364774035289884" lon="-5.090765990316868">
        <ele>68.390000000000001</ele>
        <time>2023-08-25T10:17:16Z</time>
      </trkpt>
      <trkpt lat="58.364736987277865" lon="-5.091039994731545">
        <ele>68.390000000000001</ele>
        <time>2023-08-25T10:17:17Z</time>
      </trkpt>
      <trkpt lat="58.364675967022777" lon="-5.091292038559914">
        <ele>67.909999999999997</ele>
        <time>2023-08-25T10:17:18Z</time>
      </trkpt>
      <trkpt lat="58.364584017544985" lon="-5.091517008841038">
        <ele>67.430000000000007</ele>
        <time>2023-08-25T10:17:19Z</time>
      </trkpt>
      <trkpt lat="58.364495001733303" lon="-5.091738039627671">
        <ele>67.430000000000007</ele>
        <time>2023-08-25T10:17:20Z</time>
      </trkpt>
      <trkpt lat="58.364386036992073" lon="-5.091901989653707">
        <ele>67.430000000000007</ele>
        <time>2023-08-25T10:17:21Z</time>
      </trkpt>
      <trkpt lat="58.364261984825134" lon="-5.0920370221138">
        <ele>67.430000000000007</ele>
        <time>2023-08-25T10:17:22Z</time>
      </trkpt>
      <trkpt lat="58.364121001213789" lon="-5.092115979641676">
        <ele>67.909999999999997</ele>
        <time>2023-08-25T10:17:23Z</time>
      </trkpt>
      <trkpt lat="58.363965013995767" lon="-5.092136012390256">
        <ele>67.909999999999997</ele>
        <time>2023-08-25T10:17:24Z</time>
      </trkpt>
      <trkpt lat="58.36380198597908" lon="-5.092126037925482">
        <ele>67.909999999999997</ele>
        <time>2023-08-25T10:17:25Z</time>
      </trkpt>
      <trkpt lat="58.363633006811142" lon="-5.092115979641676">
        <ele>68.390000000000001</ele>
        <time>2023-08-25T10:17:26Z</time>
      </trkpt>
      <trkpt lat="58.362213028594851" lon="-5.091762011870742">
        <ele>69.349999999999994</ele>
        <time>2023-08-25T10:17:34Z</time>
      </trkpt>
      <trkpt lat="58.362033991143107" lon="-5.091746002435684">
        <ele>69.349999999999994</ele>
        <time>2023-08-25T10:17:35Z</time>
      </trkpt>
      <trkpt lat="58.361849002540112" lon="-5.091767041012645">
        <ele>69.349999999999994</ele>
        <time>2023-08-25T10:17:36Z</time>
      </trkpt>
      <trkpt lat="58.361666025593877" lon="-5.091836024075747">
        <ele>69.349999999999994</ele>
        <time>2023-08-25T10:17:37Z</time>
      </trkpt>
      <trkpt lat="58.361486988142133" lon="-5.091953035444021">
        <ele>68.870000000000005</ele>
        <time>2023-08-25T10:17:38Z</time>
      </trkpt>
      <trkpt lat="58.36130702868104" lon="-5.09208002127707">
        <ele>68.870000000000005</ele>
        <time>2023-08-25T10:17:39Z</time>
      </trkpt>
      <trkpt lat="58.361142994835973" lon="-5.092272972688079">
        <ele>68.390000000000001</ele>
        <time>2023-08-25T10:17:40Z</time>
      </trkpt>
      <trkpt lat="58.360977033153176" lon="-5.092466007918119">
        <ele>68.390000000000001</ele>
        <time>2023-08-25T10:17:41Z</time>
      </trkpt>
      <trkpt lat="58.360820040106773" lon="-5.092701036483049">
        <ele>68.870000000000005</ele>
        <time>2023-08-25T10:17:42Z</time>
      </trkpt>
      <trkpt lat="58.360265996307135" lon="-5.093705020844936">
        <ele>71.269999999999996</ele>
        <time>2023-08-25T10:17:46Z</time>
      </trkpt>
      <trkpt lat="58.359255976974964" lon="-5.095885992050171">
        <ele>77.519999999999996</ele>
        <time>2023-08-25T10:17:54Z</time>
      </trkpt>
      <trkpt lat="58.358659017831087" lon="-5.09680800139904">
        <ele>80.409999999999997</ele>
        <time>2023-08-25T10:17:58Z</time>
      </trkpt>
      <trkpt lat="58.358520967885852" lon="-5.097040012478828">
        <ele>81.370000000000005</ele>
        <time>2023-08-25T10:17:59Z</time>
      </trkpt>
      <trkpt lat="58.358391970396042" lon="-5.097305970266461">
        <ele>81.849999999999994</ele>
        <time>2023-08-25T10:18:00Z</time>
      </trkpt>
      <trkpt lat="58.358290968462825" lon="-5.097621968016028">
        <ele>82.329999999999998</ele>
        <time>2023-08-25T10:18:01Z</time>
      </trkpt>
      <trkpt lat="58.358188960701227" lon="-5.097940983250737">
        <ele>82.810000000000002</ele>
        <time>2023-08-25T10:18:02Z</time>
      </trkpt>
      <trkpt lat="58.357886960729957" lon="-5.098887970671058">
        <ele>83.769999999999996</ele>
        <time>2023-08-25T10:18:05Z</time>
      </trkpt>
      <trkpt lat="58.357787970453501" lon="-5.099201034754515">
        <ele>83.769999999999996</ele>
        <time>2023-08-25T10:18:06Z</time>
      </trkpt>
      <trkpt lat="58.357644975185394" lon="-5.099434973672032">
        <ele>83.769999999999996</ele>
        <time>2023-08-25T10:18:07Z</time>
      </trkpt>
      <trkpt lat="58.356811981648207" lon="-5.100875990465283">
        <ele>86.180000000000007</ele>
        <time>2023-08-25T10:18:13Z</time>
      </trkpt>
      <trkpt lat="58.356690024957061" lon="-5.101137002930045">
        <ele>86.180000000000007</ele>
        <time>2023-08-25T10:18:14Z</time>
      </trkpt>
      <trkpt lat="58.356607966125011" lon="-5.101464986801148">
        <ele>86.659999999999997</ele>
        <time>2023-08-25T10:18:15Z</time>
      </trkpt>
      <trkpt lat="58.356532026082277" lon="-5.101803028956056">
        <ele>87.140000000000001</ele>
        <time>2023-08-25T10:18:16Z</time>
      </trkpt>
      <trkpt lat="58.356472011655569" lon="-5.10215699672699">
        <ele>87.140000000000001</ele>
        <time>2023-08-25T10:18:17Z</time>
      </trkpt>
      <trkpt lat="58.356422977522016" lon="-5.102520016953349">
        <ele>87.620000000000005</ele>
        <time>2023-08-25T10:18:18Z</time>
      </trkpt>
      <trkpt lat="58.355926014482975" lon="-5.105720981955528">
        <ele>90.980000000000004</ele>
        <time>2023-08-25T10:18:27Z</time>
      </trkpt>
      <trkpt lat="58.35522604174912" lon="-5.108422972261906">
        <ele>93.870000000000005</ele>
        <time>2023-08-25T10:18:35Z</time>
      </trkpt>
      <trkpt lat="58.353716041892767" lon="-5.113467033952475">
        <ele>84.730000000000004</ele>
        <time>2023-08-25T10:18:49Z</time>
      </trkpt>
      <trkpt lat="58.353469027206302" lon="-5.114076985046268">
        <ele>83.769999999999996</ele>
        <time>2023-08-25T10:18:51Z</time>
      </trkpt>
      <trkpt lat="58.353336006402969" lon="-5.114360963925719">
        <ele>83.290000000000006</ele>
        <time>2023-08-25T10:18:52Z</time>
      </trkpt>
      <trkpt lat="58.352318024262786" lon="-5.116071039810777">
        <ele>79.930000000000007</ele>
        <time>2023-08-25T10:18:59Z</time>
      </trkpt>
      <trkpt lat="58.35215600207448" lon="-5.116233984008431">
        <ele>79.450000000000003</ele>
        <time>2023-08-25T10:19:00Z</time>
      </trkpt>
      <trkpt lat="58.351977970451117" lon="-5.116335991770029">
        <ele>78.969999999999999</ele>
        <time>2023-08-25T10:19:01Z</time>
      </trkpt>
      <trkpt lat="58.351793987676501" lon="-5.116417966783047">
        <ele>78.480000000000004</ele>
        <time>2023-08-25T10:19:02Z</time>
      </trkpt>
      <trkpt lat="58.351604975759983" lon="-5.116440011188388">
        <ele>77.519999999999996</ele>
        <time>2023-08-25T10:19:03Z</time>
      </trkpt>
      <trkpt lat="58.351416969671845" lon="-5.116417966783047">
        <ele>77.040000000000006</ele>
        <time>2023-08-25T10:19:04Z</time>
      </trkpt>
      <trkpt lat="58.351225024089217" lon="-5.116396006196737">
        <ele>76.079999999999998</ele>
        <time>2023-08-25T10:19:05Z</time>
      </trkpt>
      <trkpt lat="58.350462019443512" lon="-5.116376979276538">
        <ele>71.269999999999996</ele>
        <time>2023-08-25T10:19:09Z</time>
      </trkpt>
      <trkpt lat="58.350284993648529" lon="-5.116480998694897">
        <ele>69.349999999999994</ele>
        <time>2023-08-25T10:19:10Z</time>
      </trkpt>
      <trkpt lat="58.350107967853546" lon="-5.11659599840641">
        <ele>67.430000000000007</ele>
        <time>2023-08-25T10:19:11Z</time>
      </trkpt>
      <trkpt lat="58.34994301199913" lon="-5.11676799505949">
        <ele>65.510000000000005</ele>
        <time>2023-08-25T10:19:12Z</time>
      </trkpt>
      <trkpt lat="58.349778978154063" lon="-5.116965975612402">
        <ele>63.100000000000001</ele>
        <time>2023-08-25T10:19:13Z</time>
      </trkpt>
      <trkpt lat="58.349634977057576" lon="-5.117232017219067">
        <ele>60.700000000000003</ele>
        <time>2023-08-25T10:19:14Z</time>
      </trkpt>
      <trkpt lat="58.349494999274611" lon="-5.117523036897183">
        <ele>57.82</ele>
        <time>2023-08-25T10:19:15Z</time>
      </trkpt>
      <trkpt lat="58.349356027320027" lon="-5.117813972756267">
        <ele>55.409999999999997</ele>
        <time>2023-08-25T10:19:16Z</time>
      </trkpt>
      <trkpt lat="58.349226024001837" lon="-5.118084037676454">
        <ele>52.049999999999997</ele>
        <time>2023-08-25T10:19:17Z</time>
      </trkpt>
      <trkpt lat="58.349013039842248" lon="-5.118755009025335">
        <ele>46.280000000000001</ele>
        <time>2023-08-25T10:19:19Z</time>
      </trkpt>
      <trkpt lat="58.348923018202186" lon="-5.119058014824987">
        <ele>42.920000000000002</ele>
        <time>2023-08-25T10:19:20Z</time>
      </trkpt>
      <trkpt lat="58.348887981846929" lon="-5.119397984817624">
        <ele>40.030000000000001</ele>
        <time>2023-08-25T10:19:21Z</time>
      </trkpt>
      <trkpt lat="58.348852023482323" lon="-5.119749018922448">
        <ele>37.149999999999999</ele>
        <time>2023-08-25T10:19:22Z</time>
      </trkpt>
      <trkpt lat="58.348831990733743" lon="-5.120125031098723">
        <ele>34.259999999999998</ele>
        <time>2023-08-25T10:19:23Z</time>
      </trkpt>
      <trkpt lat="58.348733000457287" lon="-5.124124959111214">
        <ele>14.08</ele>
        <time>2023-08-25T10:19:33Z</time>
      </trkpt>
      <trkpt lat="58.348587993532419" lon="-5.128094963729382">
        <ele>16.960000000000001</ele>
        <time>2023-08-25T10:19:44Z</time>
      </trkpt>
      <trkpt lat="58.348622024059296" lon="-5.131081016734242">
        <ele>16</ele>
        <time>2023-08-25T10:19:52Z</time>
      </trkpt>
      <trkpt lat="58.348540971055627" lon="-5.133207002654672">
        <ele>15.52</ele>
        <time>2023-08-25T10:19:58Z</time>
      </trkpt>
      <trkpt lat="58.34856603294611" lon="-5.133555019274354">
        <ele>15.039999999999999</ele>
        <time>2023-08-25T10:19:59Z</time>
      </trkpt>
      <trkpt lat="58.348594028502703" lon="-5.133909992873669">
        <ele>15.039999999999999</ele>
        <time>2023-08-25T10:20:00Z</time>
      </trkpt>
      <trkpt lat="58.349228035658598" lon="-5.136870983988047">
        <ele>12.630000000000001</ele>
        <time>2023-08-25T10:20:09Z</time>
      </trkpt>
      <trkpt lat="58.350334027782083" lon="-5.139322020113468">
        <ele>12.15</ele>
        <time>2023-08-25T10:20:18Z</time>
      </trkpt>
      <trkpt lat="58.35118998773396" lon="-5.141770960763097">
        <ele>11.19</ele>
        <time>2023-08-25T10:20:26Z</time>
      </trkpt>
      <trkpt lat="58.351693991571665" lon="-5.14445903711021">
        <ele>12.630000000000001</ele>
        <time>2023-08-25T10:20:34Z</time>
      </trkpt>
      <trkpt lat="58.35202700458467" lon="-5.146381007507443">
        <ele>14.08</ele>
        <time>2023-08-25T10:20:42Z</time>
      </trkpt>
      <trkpt lat="58.352201012894511" lon="-5.148412026464939">
        <ele>14.56</ele>
        <time>2023-08-25T10:20:51Z</time>
      </trkpt>
      <trkpt lat="58.35217896848917" lon="-5.148630039766431">
        <ele>14.56</ele>
        <time>2023-08-25T10:20:52Z</time>
      </trkpt>
      <trkpt lat="58.35215600207448" lon="-5.148848975077272">
        <ele>14.08</ele>
        <time>2023-08-25T10:20:53Z</time>
      </trkpt>
      <trkpt lat="58.351961961016059" lon="-5.150462994351983">
        <ele>13.6</ele>
        <time>2023-08-25T10:21:02Z</time>
      </trkpt>
      <trkpt lat="58.351673036813736" lon="-5.152567019686103">
        <ele>13.6</ele>
        <time>2023-08-25T10:21:14Z</time>
      </trkpt>
      <trkpt lat="58.351443037390709" lon="-5.154794007539749">
        <ele>12.15</ele>
        <time>2023-08-25T10:21:25Z</time>
      </trkpt>
      <trkpt lat="58.351417975500226" lon="-5.155068011954427">
        <ele>12.15</ele>
        <time>2023-08-25T10:21:27Z</time>
      </trkpt>
      <trkpt lat="58.351406995207071" lon="-5.155173959210515">
        <ele>11.67</ele>
        <time>2023-08-25T10:21:28Z</time>
      </trkpt>
      <trkpt lat="58.35146801546216" lon="-5.155134983360767">
        <ele>11.67</ele>
        <time>2023-08-25T10:21:29Z</time>
      </trkpt>
      <trkpt lat="58.351501962170005" lon="-5.15515903942287">
        <ele>11.19</ele>
        <time>2023-08-25T10:21:30Z</time>
      </trkpt>
      <trkpt lat="58.351534986868501" lon="-5.155181000009179">
        <ele>11.19</ele>
        <time>2023-08-25T10:21:31Z</time>
      </trkpt>
      <trkpt lat="58.351394003257155" lon="-5.155299017205834">
        <ele>11.19</ele>
        <time>2023-08-25T10:21:32Z</time>
      </trkpt>
      <trkpt lat="58.351388974115252" lon="-5.155345033854246">
        <ele>10.710000000000001</ele>
        <time>2023-08-25T10:21:33Z</time>
      </trkpt>
      <trkpt lat="58.351384028792381" lon="-5.155394989997149">
        <ele>10.710000000000001</ele>
        <time>2023-08-25T10:21:34Z</time>
      </trkpt>
      <trkpt lat="58.351378999650478" lon="-5.155447041615844">
        <ele>10.710000000000001</ele>
        <time>2023-08-25T10:21:35Z</time>
      </trkpt>
      <trkpt lat="58.351372964680195" lon="-5.155500015243888">
        <ele>10.23</ele>
        <time>2023-08-25T10:21:36Z</time>
      </trkpt>
      <trkpt lat="58.351369025185704" lon="-5.155539996922016">
        <ele>9.75</ele>
        <time>2023-08-25T10:21:45Z</time>
      </trkpt>
      <trkpt lat="58.351351004093885" lon="-5.15572096221149">
        <ele>9.75</ele>
        <time>2023-08-25T10:21:59Z</time>
      </trkpt>
      <trkpt lat="58.351351004093885" lon="-5.15572096221149">
        <ele>10.710000000000001</ele>
        <time>2023-08-25T10:22:00Z</time>
      </trkpt>
      <trkpt lat="58.351351004093885" lon="-5.15572096221149">
        <ele>10.710000000000001</ele>
        <time>2023-08-25T10:22:01Z</time>
      </trkpt>
      <trkpt lat="58.351351004093885" lon="-5.15572096221149">
        <ele>10.710000000000001</ele>
        <time>2023-08-25T10:22:15Z</time>
      </trkpt>
      <trkpt lat="58.351351004093885" lon="-5.15572096221149">
        <ele>11.19</ele>
        <time>2023-08-25T10:22:50Z</time>
      </trkpt>
      <trkpt lat="58.351351004093885" lon="-5.15572096221149">
        <ele>11.67</ele>
        <time>2023-08-25T10:23:31Z</time>
      </trkpt>
      <trkpt lat="58.351351004093885" lon="-5.15572096221149">
        <ele>12.15</ele>
        <time>2023-08-25T10:24:14Z</time>
      </trkpt>
      <trkpt lat="58.351351004093885" lon="-5.15572096221149">
        <ele>12.15</ele>
        <time>2023-08-25T10:25:11Z</time>
      </trkpt>
      <trkpt lat="58.351351004093885" lon="-5.15572096221149">
        <ele>12.630000000000001</ele>
        <time>2023-08-25T10:25:59Z</time>
      </trkpt>
      <trkpt lat="58.351351004093885" lon="-5.15572096221149">
        <ele>12.630000000000001</ele>
        <time>2023-08-25T10:26:40Z</time>
      </trkpt>
      <trkpt lat="58.351351004093885" lon="-5.15572096221149">
        <ele>13.119999999999999</ele>
        <time>2023-08-25T10:26:44Z</time>
      </trkpt>
      <trkpt lat="58.351351004093885" lon="-5.15572096221149">
        <ele>13.119999999999999</ele>
        <time>2023-08-25T10:26:45Z</time>
      </trkpt>
      <trkpt lat="58.35153004154563" lon="-5.155702019110322">
        <ele>13.6</ele>
        <time>2023-08-25T10:26:47Z</time>
      </trkpt>
      <trkpt lat="58.351394003257155" lon="-5.155299017205834">
        <ele>11.67</ele>
        <time>2023-08-25T10:26:59Z</time>
      </trkpt>
      <trkpt lat="58.351540016010404" lon="-5.155185023322702">
        <ele>11.67</ele>
        <time>2023-08-25T10:27:06Z</time>
      </trkpt>
      <trkpt lat="58.351517971605062" lon="-5.155169013887644">
        <ele>11.67</ele>
        <time>2023-08-25T10:27:07Z</time>
      </trkpt>
      <trkpt lat="58.35149098187685" lon="-5.155150992795825">
        <ele>11.67</ele>
        <time>2023-08-25T10:27:08Z</time>
      </trkpt>
      <trkpt lat="58.351466003805399" lon="-5.155132971704006">
        <ele>11.67</ele>
        <time>2023-08-25T10:27:09Z</time>
      </trkpt>
      <trkpt lat="58.3514469768852" lon="-5.155120985582471">
        <ele>11.67</ele>
        <time>2023-08-25T10:27:10Z</time>
      </trkpt>
      <trkpt lat="58.351426022127271" lon="-5.155105981975794">
        <ele>11.19</ele>
        <time>2023-08-25T10:27:12Z</time>
      </trkpt>
      <trkpt lat="58.351415963843465" lon="-5.155100030824542">
        <ele>11.19</ele>
        <time>2023-08-25T10:27:13Z</time>
      </trkpt>
      <trkpt lat="58.35140498355031" lon="-5.155196003615856">
        <ele>10.710000000000001</ele>
        <time>2023-08-25T10:27:14Z</time>
      </trkpt>
      <trkpt lat="58.351394003257155" lon="-5.155303040519357">
        <ele>10.710000000000001</ele>
        <time>2023-08-25T10:27:15Z</time>
      </trkpt>
      <trkpt lat="58.351380005478859" lon="-5.15544100664556">
        <ele>10.23</ele>
        <time>2023-08-25T10:27:16Z</time>
      </trkpt>
      <trkpt lat="58.351363996043801" lon="-5.15558903105557">
        <ele>10.23</ele>
        <time>2023-08-25T10:27:17Z</time>
      </trkpt>
      <trkpt lat="58.351343041285872" lon="-5.15576496720314">
        <ele>10.710000000000001</ele>
        <time>2023-08-25T10:27:18Z</time>
      </trkpt>
      <trkpt lat="58.350911037996411" lon="-5.157435983419418">
        <ele>11.67</ele>
        <time>2023-08-25T10:27:26Z</time>
      </trkpt>
      <trkpt lat="58.350015012547374" lon="-5.159118985757232">
        <ele>13.119999999999999</ele>
        <time>2023-08-25T10:27:34Z</time>
      </trkpt>
      <trkpt lat="58.349065007641912" lon="-5.159900011494756">
        <ele>16</ele>
        <time>2023-08-25T10:27:41Z</time>
      </trkpt>
      <trkpt lat="58.347054021432996" lon="-5.160796036943793">
        <ele>28.98</ele>
        <time>2023-08-25T10:27:56Z</time>
      </trkpt>
      <trkpt lat="58.346509030088782" lon="-5.160725964233279">
        <ele>32.340000000000003</ele>
        <time>2023-08-25T10:28:02Z</time>
      </trkpt>
      <trkpt lat="58.345666984096169" lon="-5.159951979294419">
        <ele>37.630000000000003</ele>
        <time>2023-08-25T10:28:11Z</time>
      </trkpt>
      <trkpt lat="58.345001041889191" lon="-5.15902703627944">
        <ele>40.990000000000002</ele>
        <time>2023-08-25T10:28:18Z</time>
      </trkpt>
      <trkpt lat="58.344891993328929" lon="-5.158917987719178">
        <ele>41.469999999999999</ele>
        <time>2023-08-25T10:28:19Z</time>
      </trkpt>
      <trkpt lat="58.344781016930938" lon="-5.158841041848064">
        <ele>41.950000000000003</ele>
        <time>2023-08-25T10:28:20Z</time>
      </trkpt>
      <trkpt lat="58.344654031097889" lon="-5.158804999664426">
        <ele>42.439999999999998</ele>
        <time>2023-08-25T10:28:21Z</time>
      </trkpt>
      <trkpt lat="58.344517992809415" lon="-5.158767029643059">
        <ele>42.439999999999998</ele>
        <time>2023-08-25T10:28:22Z</time>
      </trkpt>
      <trkpt lat="58.344380026683211" lon="-5.158727969974279">
        <ele>42.439999999999998</ele>
        <time>2023-08-25T10:28:23Z</time>
      </trkpt>
      <trkpt lat="58.344240970909595" lon="-5.158702991902828">
        <ele>42.439999999999998</ele>
        <time>2023-08-25T10:28:24Z</time>
      </trkpt>
      <trkpt lat="58.344096969813108" lon="-5.158707015216351">
        <ele>42.439999999999998</ele>
        <time>2023-08-25T10:28:25Z</time>
      </trkpt>
      <trkpt lat="58.343209996819496" lon="-5.158729981631041">
        <ele>41.950000000000003</ele>
        <time>2023-08-25T10:28:31Z</time>
      </trkpt>
      <trkpt lat="58.343055015429854" lon="-5.158668039366603">
        <ele>41.950000000000003</ele>
        <time>2023-08-25T10:28:32Z</time>
      </trkpt>
      <trkpt lat="58.342906991019845" lon="-5.158554967492819">
        <ele>42.439999999999998</ele>
        <time>2023-08-25T10:28:33Z</time>
      </trkpt>
      <trkpt lat="58.342763995751739" lon="-5.158396968618035">
        <ele>42.920000000000002</ele>
        <time>2023-08-25T10:28:34Z</time>
      </trkpt>
      <trkpt lat="58.342596022412181" lon="-5.158209968358278">
        <ele>43.399999999999999</ele>
        <time>2023-08-25T10:28:35Z</time>
      </trkpt>
      <trkpt lat="58.34248898550868" lon="-5.158038977533579">
        <ele>43.880000000000003</ele>
        <time>2023-08-25T10:28:36Z</time>
      </trkpt>
      <trkpt lat="58.342366022989154" lon="-5.157814007252455">
        <ele>44.840000000000003</ele>
        <time>2023-08-25T10:28:37Z</time>
      </trkpt>
      <trkpt lat="58.342285975813866" lon="-5.1575440261513">
        <ele>45.799999999999997</ele>
        <time>2023-08-25T10:28:38Z</time>
      </trkpt>
      <trkpt lat="58.34220701828599" lon="-5.157276978716254">
        <ele>46.759999999999998</ele>
        <time>2023-08-25T10:28:39Z</time>
      </trkpt>
      <trkpt lat="58.342135017737746" lon="-5.15700800344348">
        <ele>47.719999999999999</ele>
        <time>2023-08-25T10:28:40Z</time>
      </trkpt>
      <trkpt lat="58.342107022181153" lon="-5.156703991815448">
        <ele>48.68</ele>
        <time>2023-08-25T10:28:41Z</time>
      </trkpt>
      <trkpt lat="58.342089001089334" lon="-5.1564060151577">
        <ele>49.649999999999999</ele>
        <time>2023-08-25T10:28:42Z</time>
      </trkpt>
      <trkpt lat="58.342084977775812" lon="-5.156109966337681">
        <ele>50.609999999999999</ele>
        <time>2023-08-25T10:28:43Z</time>
      </trkpt>
      <trkpt lat="58.342094030231237" lon="-5.155798997730017">
        <ele>51.090000000000003</ele>
        <time>2023-08-25T10:28:44Z</time>
      </trkpt>
      <trkpt lat="58.342105010524392" lon="-5.155470008030534">
        <ele>51.57</ele>
        <time>2023-08-25T10:28:45Z</time>
      </trkpt>
      <trkpt lat="58.342166030779481" lon="-5.155158033594489">
        <ele>52.049999999999997</ele>
        <time>2023-08-25T10:28:46Z</time>
      </trkpt>
      <trkpt lat="58.342227973043919" lon="-5.154840024188161">
        <ele>52.530000000000001</ele>
        <time>2023-08-25T10:28:47Z</time>
      </trkpt>
      <trkpt lat="58.342557968571782" lon="-5.15181097202003">
        <ele>56.369999999999997</ele>
        <time>2023-08-25T10:28:56Z</time>
      </trkpt>
      <trkpt lat="58.342525027692318" lon="-5.151467984542251">
        <ele>56.859999999999999</ele>
        <time>2023-08-25T10:28:57Z</time>
      </trkpt>
      <trkpt lat="58.342492002993822" lon="-5.151127008721232">
        <ele>57.82</ele>
        <time>2023-08-25T10:28:58Z</time>
      </trkpt>
      <trkpt lat="58.342421008273959" lon="-5.150806987658143">
        <ele>58.780000000000001</ele>
        <time>2023-08-25T10:28:59Z</time>
      </trkpt>
      <trkpt lat="58.342342972755432" lon="-5.150490989908576">
        <ele>59.740000000000002</ele>
        <time>2023-08-25T10:29:00Z</time>
      </trkpt>
      <trkpt lat="58.342264015227556" lon="-5.150179015472531">
        <ele>60.219999999999999</ele>
        <time>2023-08-25T10:29:01Z</time>
      </trkpt>
      <trkpt lat="58.342161001637578" lon="-5.149885984137654">
        <ele>61.18</ele>
        <time>2023-08-25T10:29:02Z</time>
      </trkpt>
      <trkpt lat="58.342054970562458" lon="-5.149587001651526">
        <ele>61.659999999999997</ele>
        <time>2023-08-25T10:29:03Z</time>
      </trkpt>
      <trkpt lat="58.341923961415887" lon="-5.149326995015144">
        <ele>62.619999999999997</ele>
        <time>2023-08-25T10:29:04Z</time>
      </trkpt>
      <trkpt lat="58.341776020824909" lon="-5.149088026955724">
        <ele>63.100000000000001</ele>
        <time>2023-08-25T10:29:05Z</time>
      </trkpt>
      <trkpt lat="58.341625984758139" lon="-5.148845035582781">
        <ele>63.579999999999998</ele>
        <time>2023-08-25T10:29:06Z</time>
      </trkpt>
      <trkpt lat="58.3414760325104" lon="-5.148601038381457">
        <ele>64.069999999999993</ele>
        <time>2023-08-25T10:29:07Z</time>
      </trkpt>
      <trkpt lat="58.341029025614262" lon="-5.147823030129075">
        <ele>65.030000000000001</ele>
        <time>2023-08-25T10:29:10Z</time>
      </trkpt>
      <trkpt lat="58.340240037068725" lon="-5.146144973114133">
        <ele>66.950000000000003</ele>
        <time>2023-08-25T10:29:16Z</time>
      </trkpt>
      <trkpt lat="58.340103998780251" lon="-5.145947998389602">
        <ele>67.430000000000007</ele>
        <time>2023-08-25T10:29:17Z</time>
      </trkpt>
      <trkpt lat="58.339961003512144" lon="-5.145782958716154">
        <ele>67.909999999999997</ele>
        <time>2023-08-25T10:29:18Z</time>
      </trkpt>
      <trkpt lat="58.339798981323838" lon="-5.145657984539866">
        <ele>67.909999999999997</ele>
        <time>2023-08-25T10:29:19Z</time>
      </trkpt>
      <trkpt lat="58.339635031297803" lon="-5.145532004535198">
        <ele>67.909999999999997</ele>
        <time>2023-08-25T10:29:20Z</time>
      </trkpt>
      <trkpt lat="58.339463034644723" lon="-5.145399989560247">
        <ele>68.390000000000001</ele>
        <time>2023-08-25T10:29:21Z</time>
      </trkpt>
      <trkpt lat="58.339287014678121" lon="-5.145350033417344">
        <ele>68.870000000000005</ele>
        <time>2023-08-25T10:29:22Z</time>
      </trkpt>
      <trkpt lat="58.339102026075125" lon="-5.145296975970268">
        <ele>69.349999999999994</ele>
        <time>2023-08-25T10:29:23Z</time>
      </trkpt>
      <trkpt lat="58.338344972580671" lon="-5.145040992647409">
        <ele>70.790000000000006</ele>
        <time>2023-08-25T10:29:27Z</time>
      </trkpt>
      <trkpt lat="58.338165013119578" lon="-5.144885005429387">
        <ele>71.269999999999996</ele>
        <time>2023-08-25T10:29:28Z</time>
      </trkpt>
      <trkpt lat="58.337982036173344" lon="-5.144726000726223">
        <ele>71.269999999999996</ele>
        <time>2023-08-25T10:29:29Z</time>
      </trkpt>
      <trkpt lat="58.337810039520264" lon="-5.144520979374647">
        <ele>71.760000000000005</ele>
        <time>2023-08-25T10:29:30Z</time>
      </trkpt>
      <trkpt lat="58.337647011503577" lon="-5.144295003265142">
        <ele>71.760000000000005</ele>
        <time>2023-08-25T10:29:31Z</time>
      </trkpt>
      <trkpt lat="58.337517008185387" lon="-5.143999038264155">
        <ele>71.760000000000005</ele>
        <time>2023-08-25T10:29:32Z</time>
      </trkpt>
      <trkpt lat="58.337390022352338" lon="-5.143702989444137">
        <ele>72.239999999999995</ele>
        <time>2023-08-25T10:29:33Z</time>
      </trkpt>
      <trkpt lat="58.337252978235483" lon="-5.143382968381047">
        <ele>72.239999999999995</ele>
        <time>2023-08-25T10:29:34Z</time>
      </trkpt>
      <trkpt lat="58.337172009050846" lon="-5.143073005601764">
        <ele>72.239999999999995</ele>
        <time>2023-08-25T10:29:35Z</time>
      </trkpt>
      <trkpt lat="58.337081987410784" lon="-5.142731023952365">
        <ele>72.719999999999999</ele>
        <time>2023-08-25T10:29:36Z</time>
      </trkpt>
      <trkpt lat="58.337007975205779" lon="-5.142382001504302">
        <ele>72.719999999999999</ele>
        <time>2023-08-25T10:29:37Z</time>
      </trkpt>
      <trkpt lat="58.336974028497934" lon="-5.142016969621182">
        <ele>73.200000000000003</ele>
        <time>2023-08-25T10:29:38Z</time>
      </trkpt>
      <trkpt lat="58.336938992142677" lon="-5.141649004071951">
        <ele>73.680000000000007</ele>
        <time>2023-08-25T10:29:39Z</time>
      </trkpt>
      <trkpt lat="58.336931029334664" lon="-5.141272991895676">
        <ele>74.159999999999997</ele>
        <time>2023-08-25T10:29:40Z</time>
      </trkpt>
      <trkpt lat="58.336931029334664" lon="-5.1408969797194">
        <ele>74.640000000000001</ele>
        <time>2023-08-25T10:29:41Z</time>
      </trkpt>
      <trkpt lat="58.336952989920974" lon="-5.140516022220254">
        <ele>75.120000000000005</ele>
        <time>2023-08-25T10:29:42Z</time>
      </trkpt>
      <trkpt lat="58.336996994912624" lon="-5.14014302752912">
        <ele>76.079999999999998</ele>
        <time>2023-08-25T10:29:43Z</time>
      </trkpt>
      <trkpt lat="58.337042005732656" lon="-5.139762992039323">
        <ele>76.560000000000002</ele>
        <time>2023-08-25T10:29:44Z</time>
      </trkpt>
      <trkpt lat="58.337125992402434" lon="-5.139012979343534">
        <ele>77.040000000000006</ele>
        <time>2023-08-25T10:29:46Z</time>
      </trkpt>
      <trkpt lat="58.337136972695589" lon="-5.138638978824019">
        <ele>77.040000000000006</ele>
        <time>2023-08-25T10:29:47Z</time>
      </trkpt>
      <trkpt lat="58.33713898435235" lon="-5.138265984132886">
        <ele>77.040000000000006</ele>
        <time>2023-08-25T10:29:48Z</time>
      </trkpt>
      <trkpt lat="58.337111994624138" lon="-5.137897012755275">
        <ele>77.040000000000006</ele>
        <time>2023-08-25T10:29:49Z</time>
      </trkpt>
      <trkpt lat="58.337085004895926" lon="-5.137531980872154">
        <ele>77.519999999999996</ele>
        <time>2023-08-25T10:29:50Z</time>
      </trkpt>
      <trkpt lat="58.337006969377398" lon="-5.137176001444459">
        <ele>77.519999999999996</ele>
        <time>2023-08-25T10:29:51Z</time>
      </trkpt>
      <trkpt lat="58.336926000192761" lon="-5.136842988431454">
        <ele>78</ele>
        <time>2023-08-25T10:29:52Z</time>
      </trkpt>
      <trkpt lat="58.336806977167726" lon="-5.136551968753338">
        <ele>78.480000000000004</ele>
        <time>2023-08-25T10:29:53Z</time>
      </trkpt>
      <trkpt lat="58.336682002991438" lon="-5.136280981823802">
        <ele>78.969999999999999</ele>
        <time>2023-08-25T10:29:54Z</time>
      </trkpt>
      <trkpt lat="58.336555017158389" lon="-5.136006977409124">
        <ele>79.450000000000003</ele>
        <time>2023-08-25T10:29:55Z</time>
      </trkpt>
      <trkpt lat="58.336401041597128" lon="-5.135786030441523">
        <ele>79.930000000000007</ele>
        <time>2023-08-25T10:29:56Z</time>
      </trkpt>
      <trkpt lat="58.33623600192368" lon="-5.135581009089947">
        <ele>80.409999999999997</ele>
        <time>2023-08-25T10:29:57Z</time>
      </trkpt>
      <trkpt lat="58.336070962250233" lon="-5.135375987738371">
        <ele>80.890000000000001</ele>
        <time>2023-08-25T10:29:58Z</time>
      </trkpt>
      <trkpt lat="58.335900977253914" lon="-5.135188987478614">
        <ele>81.370000000000005</ele>
        <time>2023-08-25T10:29:59Z</time>
      </trkpt>
      <trkpt lat="58.334043966606259" lon="-5.133770015090704">
        <ele>78.969999999999999</ele>
        <time>2023-08-25T10:30:09Z</time>
      </trkpt>
      <trkpt lat="58.333833999931812" lon="-5.133729027584195">
        <ele>78</ele>
        <time>2023-08-25T10:30:10Z</time>
      </trkpt>
      <trkpt lat="58.333392022177577" lon="-5.133750988170505">
        <ele>74.159999999999997</ele>
        <time>2023-08-25T10:30:12Z</time>
      </trkpt>
      <trkpt lat="58.330709980800748" lon="-5.133884008973837">
        <ele>52.049999999999997</ele>
        <time>2023-08-25T10:30:24Z</time>
      </trkpt>
      <trkpt lat="58.328896975144744" lon="-5.134487003087997">
        <ele>38.109999999999999</ele>
        <time>2023-08-25T10:30:33Z</time>
      </trkpt>
      <trkpt lat="58.327389992773533" lon="-5.135298036038876">
        <ele>24.649999999999999</ele>
        <time>2023-08-25T10:30:41Z</time>
      </trkpt>
      <trkpt lat="58.326735030859709" lon="-5.135304993018508">
        <ele>19.84</ele>
        <time>2023-08-25T10:30:45Z</time>
      </trkpt>
      <trkpt lat="58.32658801227808" lon="-5.135250007733703">
        <ele>18.879999999999999</ele>
        <time>2023-08-25T10:30:46Z</time>
      </trkpt>
      <trkpt lat="58.326467983424664" lon="-5.135152023285627">
        <ele>17.920000000000002</ele>
        <time>2023-08-25T10:30:47Z</time>
      </trkpt>
      <trkpt lat="58.326340997591615" lon="-5.13505001552403">
        <ele>17.440000000000001</ele>
        <time>2023-08-25T10:30:48Z</time>
      </trkpt>
      <trkpt lat="58.326219962909818" lon="-5.134926969185472">
        <ele>16.960000000000001</ele>
        <time>2023-08-25T10:30:49Z</time>
      </trkpt>
      <trkpt lat="58.326118038967252" lon="-5.13474902138114">
        <ele>16.960000000000001</ele>
        <time>2023-08-25T10:30:50Z</time>
      </trkpt>
      <trkpt lat="58.326013013720512" lon="-5.134565038606525">
        <ele>16.960000000000001</ele>
        <time>2023-08-25T10:30:51Z</time>
      </trkpt>
      <trkpt lat="58.325907988473773" lon="-5.134380972012878">
        <ele>16.960000000000001</ele>
        <time>2023-08-25T10:30:52Z</time>
      </trkpt>
      <trkpt lat="58.324710968881845" lon="-5.131927002221346">
        <ele>24.649999999999999</ele>
        <time>2023-08-25T10:31:05Z</time>
      </trkpt>
      <trkpt lat="58.32347203977406" lon="-5.129735972732306">
        <ele>24.170000000000002</ele>
        <time>2023-08-25T10:31:16Z</time>
      </trkpt>
      <trkpt lat="58.322747005149722" lon="-5.128453960642219">
        <ele>20.809999999999999</ele>
        <time>2023-08-25T10:31:22Z</time>
      </trkpt>
      <trkpt lat="58.322638962417841" lon="-5.128242988139391">
        <ele>20.32</ele>
        <time>2023-08-25T10:31:23Z</time>
      </trkpt>
      <trkpt lat="58.322537960484624" lon="-5.128016006201506">
        <ele>19.84</ele>
        <time>2023-08-25T10:31:24Z</time>
      </trkpt>
      <trkpt lat="58.321627015247941" lon="-5.125990016385913">
        <ele>14.56</ele>
        <time>2023-08-25T10:31:33Z</time>
      </trkpt>
      <trkpt lat="58.321383018046618" lon="-5.125566981732845">
        <ele>13.119999999999999</ele>
        <time>2023-08-25T10:31:35Z</time>
      </trkpt>
      <trkpt lat="58.321240022778511" lon="-5.125364977866411">
        <ele>12.15</ele>
        <time>2023-08-25T10:31:36Z</time>
      </trkpt>
      <trkpt lat="58.319997992366552" lon="-5.123668983578682">
        <ele>10.23</ele>
        <time>2023-08-25T10:31:44Z</time>
      </trkpt>
      <trkpt lat="58.319835970178246" lon="-5.12349002994597">
        <ele>10.710000000000001</ele>
        <time>2023-08-25T10:31:45Z</time>
      </trkpt>
      <trkpt lat="58.319672020152211" lon="-5.123331025242806">
        <ele>10.710000000000001</ele>
        <time>2023-08-25T10:31:46Z</time>
      </trkpt>
      <trkpt lat="58.318908009678125" lon="-5.123002035543323">
        <ele>12.15</ele>
        <time>2023-08-25T10:31:50Z</time>
      </trkpt>
      <trkpt lat="58.318709023296833" lon="-5.12297797948122">
        <ele>12.630000000000001</ele>
        <time>2023-08-25T10:31:51Z</time>
      </trkpt>
      <trkpt lat="58.318507019430399" lon="-5.123033970594406">
        <ele>12.630000000000001</ele>
        <time>2023-08-25T10:31:52Z</time>
      </trkpt>
      <trkpt lat="58.316074004396796" lon="-5.123712988570333">
        <ele>13.119999999999999</ele>
        <time>2023-08-25T10:32:04Z</time>
      </trkpt>
      <trkpt lat="58.313402021303773" lon="-5.12443701736629">
        <ele>19.359999999999999</ele>
        <time>2023-08-25T10:32:17Z</time>
      </trkpt>
      <trkpt lat="58.311813985928893" lon="-5.124236019328237">
        <ele>25.609999999999999</ele>
        <time>2023-08-25T10:32:25Z</time>
      </trkpt>
      <trkpt lat="58.310267021879554" lon="-5.1231690030545">
        <ele>33.299999999999997</ele>
        <time>2023-08-25T10:32:33Z</time>
      </trkpt>
      <trkpt lat="58.308555018156767" lon="-5.122398035600781">
        <ele>32.340000000000003</ele>
        <time>2023-08-25T10:32:41Z</time>
      </trkpt>
      <trkpt lat="58.307409966364503" lon="-5.122098969295621">
        <ele>31.379999999999999</ele>
        <time>2023-08-25T10:32:47Z</time>
      </trkpt>
      <trkpt lat="58.307232018560171" lon="-5.121993022039533">
        <ele>31.859999999999999</ele>
        <time>2023-08-25T10:32:48Z</time>
      </trkpt>
      <trkpt lat="58.30705801025033" lon="-5.121876010671258">
        <ele>32.340000000000003</ele>
        <time>2023-08-25T10:32:49Z</time>
      </trkpt>
      <trkpt lat="58.306895988062024" lon="-5.121695967391133">
        <ele>32.340000000000003</ele>
        <time>2023-08-25T10:32:50Z</time>
      </trkpt>
      <trkpt lat="58.306734971702099" lon="-5.121517013758421">
        <ele>32.82</ele>
        <time>2023-08-25T10:32:51Z</time>
      </trkpt>
      <trkpt lat="58.306592982262373" lon="-5.121286008507013">
        <ele>33.299999999999997</ele>
        <time>2023-08-25T10:32:52Z</time>
      </trkpt>
      <trkpt lat="58.306455016136169" lon="-5.121034970507026">
        <ele>33.780000000000001</ele>
        <time>2023-08-25T10:32:53Z</time>
      </trkpt>
      <trkpt lat="58.306323001161218" lon="-5.120773036032915">
        <ele>34.259999999999998</ele>
        <time>2023-08-25T10:32:54Z</time>
      </trkpt>
      <trkpt lat="58.306210013106465" lon="-5.120476987212896">
        <ele>34.740000000000002</ele>
        <time>2023-08-25T10:32:55Z</time>
      </trkpt>
      <trkpt lat="58.306094007566571" lon="-5.120183033868671">
        <ele>35.229999999999997</ele>
        <time>2023-08-25T10:32:56Z</time>
      </trkpt>
      <trkpt lat="58.305021040141582" lon="-5.11796903796494">
        <ele>42.439999999999998</ele>
        <time>2023-08-25T10:33:04Z</time>
      </trkpt>
      <trkpt lat="58.303627967834473" lon="-5.116586023941636">
        <ele>57.82</ele>
        <time>2023-08-25T10:33:12Z</time>
      </trkpt>
      <trkpt lat="58.301840024068952" lon="-5.115806004032493">
        <ele>76.079999999999998</ele>
        <time>2023-08-25T10:33:21Z</time>
      </trkpt>
      <trkpt lat="58.300860011950135" lon="-5.115441977977753">
        <ele>84.25</ele>
        <time>2023-08-25T10:33:26Z</time>
      </trkpt>
      <trkpt lat="58.300661025568843" lon="-5.115367965772748">
        <ele>85.209999999999994</ele>
        <time>2023-08-25T10:33:27Z</time>
      </trkpt>
      <trkpt lat="58.300244025886059" lon="-5.115212984383106">
        <ele>87.620000000000005</ele>
        <time>2023-08-25T10:33:29Z</time>
      </trkpt>
      <trkpt lat="58.300002040341496" lon="-5.115122962743044">
        <ele>88.099999999999994</ele>
        <time>2023-08-25T10:33:30Z</time>
      </trkpt>
      <trkpt lat="58.299463000148535" lon="-5.114691965281963">
        <ele>87.140000000000001</ele>
        <time>2023-08-25T10:33:33Z</time>
      </trkpt>
      <trkpt lat="58.299288991838694" lon="-5.114515023306012">
        <ele>87.140000000000001</ele>
        <time>2023-08-25T10:33:34Z</time>
      </trkpt>
      <trkpt lat="58.298353990539908" lon="-5.112759014591575">
        <ele>81.370000000000005</ele>
        <time>2023-08-25T10:33:41Z</time>
      </trkpt>
      <trkpt lat="58.297916036099195" lon="-5.110725983977318">
        <ele>71.760000000000005</ele>
        <time>2023-08-25T10:33:47Z</time>
      </trkpt>
      <trkpt lat="58.297879993915558" lon="-5.110361035913229">
        <ele>70.310000000000002</ele>
        <time>2023-08-25T10:33:48Z</time>
      </trkpt>
      <trkpt lat="58.297877982258797" lon="-5.110002039000392">
        <ele>68.870000000000005</ele>
        <time>2023-08-25T10:33:49Z</time>
      </trkpt>
      <trkpt lat="58.297877982258797" lon="-5.109628960490227">
        <ele>67.430000000000007</ele>
        <time>2023-08-25T10:33:50Z</time>
      </trkpt>
      <trkpt lat="58.297893991693854" lon="-5.109265018254519">
        <ele>66.469999999999999</ele>
        <time>2023-08-25T10:33:51Z</time>
      </trkpt>
      <trkpt lat="58.297920981422067" lon="-5.108895041048527">
        <ele>65.510000000000005</ele>
        <time>2023-08-25T10:33:52Z</time>
      </trkpt>
      <trkpt lat="58.298079986125231" lon="-5.106397988274694">
        <ele>64.069999999999993</ele>
        <time>2023-08-25T10:33:59Z</time>
      </trkpt>
      <trkpt lat="58.298087026923895" lon="-5.106047037988901">
        <ele>64.549999999999997</ele>
        <time>2023-08-25T10:34:00Z</time>
      </trkpt>
      <trkpt lat="58.298014020547271" lon="-5.105341030284762">
        <ele>65.510000000000005</ele>
        <time>2023-08-25T10:34:02Z</time>
      </trkpt>
      <trkpt lat="58.297958029434085" lon="-5.10499301366508">
        <ele>65.989999999999995</ele>
        <time>2023-08-25T10:34:03Z</time>
      </trkpt>
      <trkpt lat="58.2978830114007" lon="-5.10464902035892">
        <ele>66.950000000000003</ele>
        <time>2023-08-25T10:34:04Z</time>
      </trkpt>
      <trkpt lat="58.29777798615396" lon="-5.104340985417366">
        <ele>67.430000000000007</ele>
        <time>2023-08-25T10:34:05Z</time>
      </trkpt>
      <trkpt lat="58.297672038897872" lon="-5.104029010981321">
        <ele>67.909999999999997</ele>
        <time>2023-08-25T10:34:06Z</time>
      </trkpt>
      <trkpt lat="58.297544969245791" lon="-5.103737991303206">
        <ele>68.870000000000005</ele>
        <time>2023-08-25T10:34:07Z</time>
      </trkpt>
      <trkpt lat="58.297401973977685" lon="-5.103469016030431">
        <ele>69.829999999999998</ele>
        <time>2023-08-25T10:34:08Z</time>
      </trkpt>
      <trkpt lat="58.297257972881198" lon="-5.103199034929276">
        <ele>70.790000000000006</ele>
        <time>2023-08-25T10:34:09Z</time>
      </trkpt>
      <trkpt lat="58.295979984104633" lon="-5.100434012711048">
        <ele>78.969999999999999</ele>
        <time>2023-08-25T10:34:18Z</time>
      </trkpt>
      <trkpt lat="58.294252976775169" lon="-5.09642100892961">
        <ele>87.620000000000005</ele>
        <time>2023-08-25T10:34:30Z</time>
      </trkpt>
      <trkpt lat="58.292454974725842" lon="-5.093148965388537">
        <ele>91.459999999999994</ele>
        <time>2023-08-25T10:34:41Z</time>
      </trkpt>
      <trkpt lat="58.291182015091181" lon="-5.09051201865077">
        <ele>91.459999999999994</ele>
        <time>2023-08-25T10:34:50Z</time>
      </trkpt>
      <trkpt lat="58.290785970166326" lon="-5.088804960250855">
        <ele>86.180000000000007</ele>
        <time>2023-08-25T10:34:55Z</time>
      </trkpt>
      <trkpt lat="58.290755962952971" lon="-5.088422996923327">
        <ele>84.730000000000004</ele>
        <time>2023-08-25T10:34:56Z</time>
      </trkpt>
      <trkpt lat="58.290725033730268" lon="-5.08804296143353">
        <ele>82.810000000000002</ele>
        <time>2023-08-25T10:34:57Z</time>
      </trkpt>
      <trkpt lat="58.290696032345295" lon="-5.087669966742396">
        <ele>81.370000000000005</ele>
        <time>2023-08-25T10:34:58Z</time>
      </trkpt>
      <trkpt lat="58.290682034566998" lon="-5.087293032556772">
        <ele>79.450000000000003</ele>
        <time>2023-08-25T10:34:59Z</time>
      </trkpt>
      <trkpt lat="58.2904729899019" lon="-5.084169013425708">
        <ele>65.030000000000001</ele>
        <time>2023-08-25T10:35:07Z</time>
      </trkpt>
      <trkpt lat="58.290181970223784" lon="-5.083086993545294">
        <ele>59.259999999999998</ele>
        <time>2023-08-25T10:35:10Z</time>
      </trkpt>
      <trkpt lat="58.290066970512271" lon="-5.082740988582373">
        <ele>56.859999999999999</ele>
        <time>2023-08-25T10:35:11Z</time>
      </trkpt>
      <trkpt lat="58.289930010214448" lon="-5.082420967519283">
        <ele>54.93</ele>
        <time>2023-08-25T10:35:12Z</time>
      </trkpt>
      <trkpt lat="58.289788020774722" lon="-5.082105975598097">
        <ele>52.530000000000001</ele>
        <time>2023-08-25T10:35:13Z</time>
      </trkpt>
      <trkpt lat="58.289643013849854" lon="-5.081796012818813">
        <ele>50.609999999999999</ele>
        <time>2023-08-25T10:35:14Z</time>
      </trkpt>
      <trkpt lat="58.289467999711633" lon="-5.081542963162065">
        <ele>48.68</ele>
        <time>2023-08-25T10:35:15Z</time>
      </trkpt>
      <trkpt lat="58.28795799985528" lon="-5.079212039709091">
        <ele>35.710000000000001</ele>
        <time>2023-08-25T10:35:24Z</time>
      </trkpt>
      <trkpt lat="58.286522012203932" lon="-5.076491022482514">
        <ele>36.189999999999998</ele>
        <time>2023-08-25T10:35:33Z</time>
      </trkpt>
      <trkpt lat="58.284913022071123" lon="-5.074404012411833">
        <ele>47.240000000000002</ele>
        <time>2023-08-25T10:35:42Z</time>
      </trkpt>
      <trkpt lat="58.282460980117321" lon="-5.071921041235328">
        <ele>63.100000000000001</ele>
        <time>2023-08-25T10:35:55Z</time>
      </trkpt>
      <trkpt lat="58.280254025012255" lon="-5.069791032001376">
        <ele>72.239999999999995</ele>
        <time>2023-08-25T10:36:06Z</time>
      </trkpt>
      <trkpt lat="58.278660038486123" lon="-5.0673290155828">
        <ele>79.930000000000007</ele>
        <time>2023-08-25T10:36:15Z</time>
      </trkpt>
      <trkpt lat="58.277390012517571" lon="-5.06485803052783">
        <ele>84.730000000000004</ele>
        <time>2023-08-25T10:36:23Z</time>
      </trkpt>
      <trkpt lat="58.27539000660181" lon="-5.061838030815125">
        <ele>89.060000000000002</ele>
        <time>2023-08-25T10:36:34Z</time>
      </trkpt>
      <trkpt lat="58.272951040416956" lon="-5.058834962546825">
        <ele>93.870000000000005</ele>
        <time>2023-08-25T10:36:46Z</time>
      </trkpt>
      <trkpt lat="58.270603017881513" lon="-5.056512001901865">
        <ele>98.670000000000002</ele>
        <time>2023-08-25T10:36:57Z</time>
      </trkpt>
      <trkpt lat="58.269232995808125" lon="-5.055069979280233">
        <ele>103</ele>
        <time>2023-08-25T10:37:04Z</time>
      </trkpt>
      <trkpt lat="58.268163967877626" lon="-5.053018005564809">
        <ele>107.81</ele>
        <time>2023-08-25T10:37:11Z</time>
      </trkpt>
      <trkpt lat="58.267383025959134" lon="-5.050135971978307">
        <ele>107.31999999999999</ele>
        <time>2023-08-25T10:37:19Z</time>
      </trkpt>
      <trkpt lat="58.26709502376616" lon="-5.047806976363063">
        <ele>99.629999999999995</ele>
        <time>2023-08-25T10:37:25Z</time>
      </trkpt>
      <trkpt lat="58.267005002126098" lon="-5.046366965398192">
        <ele>91.459999999999994</ele>
        <time>2023-08-25T10:37:31Z</time>
      </trkpt>
      <trkpt lat="58.266732003539801" lon="-5.044216001406312">
        <ele>80.409999999999997</ele>
        <time>2023-08-25T10:37:39Z</time>
      </trkpt>
      <trkpt lat="58.266297988593578" lon="-5.042862994596362">
        <ele>72.719999999999999</ele>
        <time>2023-08-25T10:37:45Z</time>
      </trkpt>
      <trkpt lat="58.265478992834687" lon="-5.041610989719629">
        <ele>66.469999999999999</ele>
        <time>2023-08-25T10:37:51Z</time>
      </trkpt>
      <trkpt lat="58.264170996844769" lon="-5.040694009512663">
        <ele>58.299999999999997</ele>
        <time>2023-08-25T10:37:58Z</time>
      </trkpt>
      <trkpt lat="58.263991037383676" lon="-5.040633995085955">
        <ele>56.859999999999999</ele>
        <time>2023-08-25T10:37:59Z</time>
      </trkpt>
      <trkpt lat="58.263807976618409" lon="-5.040642041712999">
        <ele>55.890000000000001</ele>
        <time>2023-08-25T10:38:00Z</time>
      </trkpt>
      <trkpt lat="58.263627011328936" lon="-5.040667019784451">
        <ele>54.450000000000003</ele>
        <time>2023-08-25T10:38:01Z</time>
      </trkpt>
      <trkpt lat="58.263448979705572" lon="-5.040690992027521">
        <ele>53.009999999999998</ele>
        <time>2023-08-25T10:38:02Z</time>
      </trkpt>
      <trkpt lat="58.26309802941978" lon="-5.040724016726017">
        <ele>49.649999999999999</ele>
        <time>2023-08-25T10:38:04Z</time>
      </trkpt>
      <trkpt lat="58.26292896643281" lon="-5.04068898037076">
        <ele>48.200000000000003</ele>
        <time>2023-08-25T10:38:05Z</time>
      </trkpt>
      <trkpt lat="58.26275797560811" lon="-5.0406230147928">
        <ele>47.240000000000002</ele>
        <time>2023-08-25T10:38:06Z</time>
      </trkpt>
      <trkpt lat="58.262590002268553" lon="-5.040530981495976">
        <ele>45.799999999999997</ele>
        <time>2023-08-25T10:38:07Z</time>
      </trkpt>
      <trkpt lat="58.262430997565389" lon="-5.040367031469941">
        <ele>44.359999999999999</ele>
        <time>2023-08-25T10:38:08Z</time>
      </trkpt>
      <trkpt lat="58.262286996468902" lon="-5.040156980976462">
        <ele>42.920000000000002</ele>
        <time>2023-08-25T10:38:09Z</time>
      </trkpt>
      <trkpt lat="58.262139977887273" lon="-5.039943996816874">
        <ele>41.469999999999999</ele>
        <time>2023-08-25T10:38:10Z</time>
      </trkpt>
      <trkpt lat="58.261680984869599" lon="-5.039293980225921">
        <ele>38.109999999999999</ele>
        <time>2023-08-25T10:38:13Z</time>
      </trkpt>
      <trkpt lat="58.261529020965099" lon="-5.03914101049304">
        <ele>36.670000000000002</ele>
        <time>2023-08-25T10:38:14Z</time>
      </trkpt>
      <trkpt lat="58.261326011270285" lon="-5.039050988852978">
        <ele>34.740000000000002</ele>
        <time>2023-08-25T10:38:15Z</time>
      </trkpt>
      <trkpt lat="58.261139011010528" lon="-5.03896800801158">
        <ele>32.82</ele>
        <time>2023-08-25T10:38:16Z</time>
      </trkpt>
      <trkpt lat="58.260952010750771" lon="-5.038885027170181">
        <ele>30.899999999999999</ele>
        <time>2023-08-25T10:38:17Z</time>
      </trkpt>
      <trkpt lat="58.260396039113402" lon="-5.038638012483716">
        <ele>25.609999999999999</ele>
        <time>2023-08-25T10:38:20Z</time>
      </trkpt>
      <trkpt lat="58.260236028581858" lon="-5.038459980860353">
        <ele>23.690000000000001</ele>
        <time>2023-08-25T10:38:21Z</time>
      </trkpt>
      <trkpt lat="58.260079035535455" lon="-5.038267029449344">
        <ele>21.77</ele>
        <time>2023-08-25T10:38:22Z</time>
      </trkpt>
      <trkpt lat="58.259935034438968" lon="-5.038042981177568">
        <ele>20.32</ele>
        <time>2023-08-25T10:38:23Z</time>
      </trkpt>
      <trkpt lat="58.259797990322113" lon="-5.037781968712807">
        <ele>18.879999999999999</ele>
        <time>2023-08-25T10:38:24Z</time>
      </trkpt>
      <trkpt lat="58.259351989254355" lon="-5.0370570179075">
        <ele>14.56</ele>
        <time>2023-08-25T10:38:27Z</time>
      </trkpt>
      <trkpt lat="58.259191978722811" lon="-5.036850990727544">
        <ele>13.6</ele>
        <time>2023-08-25T10:38:28Z</time>
      </trkpt>
      <trkpt lat="58.259015958756208" lon="-5.036688968539238">
        <ele>12.630000000000001</ele>
        <time>2023-08-25T10:38:29Z</time>
      </trkpt>
      <trkpt lat="58.258825019001961" lon="-5.03658402711153">
        <ele>11.67</ele>
        <time>2023-08-25T10:38:30Z</time>
      </trkpt>
      <trkpt lat="58.258635001257062" lon="-5.036480007693172">
        <ele>11.19</ele>
        <time>2023-08-25T10:38:31Z</time>
      </trkpt>
      <trkpt lat="58.258282961323857" lon="-5.036226036027074">
        <ele>10.23</ele>
        <time>2023-08-25T10:38:33Z</time>
      </trkpt>
      <trkpt lat="58.258116999641061" lon="-5.036084968596697">
        <ele>9.75</ele>
        <time>2023-08-25T10:38:34Z</time>
      </trkpt>
      <trkpt lat="58.25796696357429" lon="-5.035886988043785">
        <ele>9.75</ele>
        <time>2023-08-25T10:38:35Z</time>
      </trkpt>
      <trkpt lat="58.25783796608448" lon="-5.035641985014081">
        <ele>9.27</ele>
        <time>2023-08-25T10:38:36Z</time>
      </trkpt>
      <trkpt lat="58.257742999121547" lon="-5.035358006134629">
        <ele>9.27</ele>
        <time>2023-08-25T10:38:37Z</time>
      </trkpt>
      <trkpt lat="58.257647026330233" lon="-5.035070003941655">
        <ele>9.27</ele>
        <time>2023-08-25T10:38:38Z</time>
      </trkpt>
      <trkpt lat="58.257564967498183" lon="-5.034760041162372">
        <ele>9.27</ele>
        <time>2023-08-25T10:38:39Z</time>
      </trkpt>
      <trkpt lat="58.257497996091843" lon="-5.034437002614141">
        <ele>9.27</ele>
        <time>2023-08-25T10:38:40Z</time>
      </trkpt>
      <trkpt lat="58.257430018857121" lon="-5.034111030399799">
        <ele>9.75</ele>
        <time>2023-08-25T10:38:41Z</time>
      </trkpt>
      <trkpt lat="58.256794000044465" lon="-5.03168698400259">
        <ele>15.52</ele>
        <time>2023-08-25T10:38:49Z</time>
      </trkpt>
      <trkpt lat="58.256709007546306" lon="-5.031410967931151">
        <ele>16.48</ele>
        <time>2023-08-25T10:38:50Z</time>
      </trkpt>
      <trkpt lat="58.256636001169682" lon="-5.031125983223319">
        <ele>17.920000000000002</ele>
        <time>2023-08-25T10:38:51Z</time>
      </trkpt>
      <trkpt lat="58.256582021713257" lon="-5.030834963545203">
        <ele>19.359999999999999</ele>
        <time>2023-08-25T10:38:52Z</time>
      </trkpt>
      <trkpt lat="58.256551008671522" lon="-5.030538998544216">
        <ele>20.809999999999999</ele>
        <time>2023-08-25T10:38:53Z</time>
      </trkpt>
      <trkpt lat="58.256551008671522" lon="-5.03024403937161">
        <ele>22.25</ele>
        <time>2023-08-25T10:38:54Z</time>
      </trkpt>
      <trkpt lat="58.256551008671522" lon="-5.029936004430056">
        <ele>23.690000000000001</ele>
        <time>2023-08-25T10:38:55Z</time>
      </trkpt>
      <trkpt lat="58.256586967036128" lon="-5.029658982530236">
        <ele>24.649999999999999</ele>
        <time>2023-08-25T10:38:56Z</time>
      </trkpt>
      <trkpt lat="58.256668020039797" lon="-5.029392018914223">
        <ele>26.09</ele>
        <time>2023-08-25T10:38:57Z</time>
      </trkpt>
      <trkpt lat="58.256751000881195" lon="-5.029142992570996">
        <ele>27.050000000000001</ele>
        <time>2023-08-25T10:38:58Z</time>
      </trkpt>
      <trkpt lat="58.256834987550974" lon="-5.028890026733279">
        <ele>28.02</ele>
        <time>2023-08-25T10:38:59Z</time>
      </trkpt>
      <trkpt lat="58.256942024454474" lon="-5.028662038967013">
        <ele>28.98</ele>
        <time>2023-08-25T10:39:00Z</time>
      </trkpt>
      <trkpt lat="58.257051995024085" lon="-5.028446037322283">
        <ele>29.940000000000001</ele>
        <time>2023-08-25T10:39:01Z</time>
      </trkpt>
      <trkpt lat="58.257571002468467" lon="-5.027422020211816">
        <ele>31.379999999999999</ele>
        <time>2023-08-25T10:39:06Z</time>
      </trkpt>
      <trkpt lat="58.257651971653104" lon="-5.027210963889957">
        <ele>31.379999999999999</ele>
        <time>2023-08-25T10:39:07Z</time>
      </trkpt>
      <trkpt lat="58.257715003564954" lon="-5.026973001658917">
        <ele>31.379999999999999</ele>
        <time>2023-08-25T10:39:08Z</time>
      </trkpt>
      <trkpt lat="58.257778035476804" lon="-5.026737973093987">
        <ele>31.379999999999999</ele>
        <time>2023-08-25T10:39:09Z</time>
      </trkpt>
      <trkpt lat="58.257807958871126" lon="-5.026488024741411">
        <ele>31.379999999999999</ele>
        <time>2023-08-25T10:39:10Z</time>
      </trkpt>
      <trkpt lat="58.257826985791326" lon="-5.026229023933411">
        <ele>31.859999999999999</ele>
        <time>2023-08-25T10:39:11Z</time>
      </trkpt>
      <trkpt lat="58.257845006883144" lon="-5.025971028953791">
        <ele>31.859999999999999</ele>
        <time>2023-08-25T10:39:12Z</time>
      </trkpt>
      <trkpt lat="58.257853975519538" lon="-5.025713033974171">
        <ele>31.859999999999999</ele>
        <time>2023-08-25T10:39:13Z</time>
      </trkpt>
      <trkpt lat="58.257827991619706" lon="-5.025446992367506">
        <ele>31.859999999999999</ele>
        <time>2023-08-25T10:39:14Z</time>
      </trkpt>
      <trkpt lat="58.257801001891494" lon="-5.025166030973196">
        <ele>32.340000000000003</ele>
        <time>2023-08-25T10:39:15Z</time>
      </trkpt>
      <trkpt lat="58.257744004949927" lon="-5.024894960224628">
        <ele>32.340000000000003</ele>
        <time>2023-08-25T10:39:16Z</time>
      </trkpt>
      <trkpt lat="58.257677033543587" lon="-5.024618022143841">
        <ele>32.340000000000003</ele>
        <time>2023-08-25T10:39:17Z</time>
      </trkpt>
      <trkpt lat="58.25757997110486" lon="-5.024366984143853">
        <ele>32.340000000000003</ele>
        <time>2023-08-25T10:39:18Z</time>
      </trkpt>
      <trkpt lat="58.257459020242095" lon="-5.02414402551949">
        <ele>32.340000000000003</ele>
        <time>2023-08-25T10:39:19Z</time>
      </trkpt>
      <trkpt lat="58.257334968075156" lon="-5.023916037753224">
        <ele>32.82</ele>
        <time>2023-08-25T10:39:20Z</time>
      </trkpt>
      <trkpt lat="58.257203958928585" lon="-5.023695006966591">
        <ele>32.82</ele>
        <time>2023-08-25T10:39:21Z</time>
      </trkpt>
      <trkpt lat="58.257050989195704" lon="-5.023512030020356">
        <ele>33.299999999999997</ele>
        <time>2023-08-25T10:39:22Z</time>
      </trkpt>
      <trkpt lat="58.255727989599109" lon="-5.022348035126925">
        <ele>34.740000000000002</ele>
        <time>2023-08-25T10:39:30Z</time>
      </trkpt>
      <trkpt lat="58.255541995167732" lon="-5.022320039570332">
        <ele>34.259999999999998</ele>
        <time>2023-08-25T10:39:31Z</time>
      </trkpt>
      <trkpt lat="58.255357006564736" lon="-5.022292966023088">
        <ele>33.780000000000001</ele>
        <time>2023-08-25T10:39:32Z</time>
      </trkpt>
      <trkpt lat="58.255177969112992" lon="-5.022276034578681">
        <ele>33.299999999999997</ele>
        <time>2023-08-25T10:39:33Z</time>
      </trkpt>
      <trkpt lat="58.255000021308661" lon="-5.022320039570332">
        <ele>32.82</ele>
        <time>2023-08-25T10:39:34Z</time>
      </trkpt>
      <trkpt lat="58.254820983856916" lon="-5.022369995713234">
        <ele>31.859999999999999</ele>
        <time>2023-08-25T10:39:35Z</time>
      </trkpt>
      <trkpt lat="58.253514999523759" lon="-5.02231702208519">
        <ele>26.09</ele>
        <time>2023-08-25T10:39:42Z</time>
      </trkpt>
      <trkpt lat="58.252685023471713" lon="-5.021557034924626">
        <ele>26.09</ele>
        <time>2023-08-25T10:39:47Z</time>
      </trkpt>
      <trkpt lat="58.252544039860368" lon="-5.021341033279896">
        <ele>26.57</ele>
        <time>2023-08-25T10:39:48Z</time>
      </trkpt>
      <trkpt lat="58.25242199935019" lon="-5.021080020815134">
        <ele>27.050000000000001</ele>
        <time>2023-08-25T10:39:49Z</time>
      </trkpt>
      <trkpt lat="58.252299958840013" lon="-5.020818002521992">
        <ele>28.02</ele>
        <time>2023-08-25T10:39:50Z</time>
      </trkpt>
      <trkpt lat="58.252188982442021" lon="-5.020533017814159">
        <ele>28.98</ele>
        <time>2023-08-25T10:39:51Z</time>
      </trkpt>
      <trkpt lat="58.2514320127666" lon="-5.018130009993911">
        <ele>39.07</ele>
        <time>2023-08-25T10:39:59Z</time>
      </trkpt>
      <trkpt lat="58.250828012824059" lon="-5.01638900488615">
        <ele>49.159999999999997</ele>
        <time>2023-08-25T10:40:05Z</time>
      </trkpt>
      <trkpt lat="58.250756012275815" lon="-5.016063032671809">
        <ele>50.609999999999999</ele>
        <time>2023-08-25T10:40:06Z</time>
      </trkpt>
      <trkpt lat="58.250695997849107" lon="-5.015720967203379">
        <ele>51.57</ele>
        <time>2023-08-25T10:40:07Z</time>
      </trkpt>
      <trkpt lat="58.250044975429773" lon="-5.011391965672374">
        <ele>53.490000000000002</ele>
        <time>2023-08-25T10:40:20Z</time>
      </trkpt>
      <trkpt lat="58.249883037060499" lon="-5.009176963940263">
        <ele>42.920000000000002</ele>
        <time>2023-08-25T10:40:27Z</time>
      </trkpt>
      <trkpt lat="58.249838026240468" lon="-5.008893990889192">
        <ele>41.469999999999999</ele>
        <time>2023-08-25T10:40:28Z</time>
      </trkpt>
      <trkpt lat="58.249753033742309" lon="-5.008621998131275">
        <ele>39.549999999999997</ele>
        <time>2023-08-25T10:40:29Z</time>
      </trkpt>
      <trkpt lat="58.249639961868525" lon="-5.008370960131288">
        <ele>38.109999999999999</ele>
        <time>2023-08-25T10:40:30Z</time>
      </trkpt>
      <trkpt lat="58.24952001683414" lon="-5.008111037313938">
        <ele>36.670000000000002</ele>
        <time>2023-08-25T10:40:31Z</time>
      </trkpt>
      <trkpt lat="58.249397976323962" lon="-5.007846001535654">
        <ele>34.740000000000002</ele>
        <time>2023-08-25T10:40:32Z</time>
      </trkpt>
      <trkpt lat="58.248259965330362" lon="-5.006106002256274">
        <ele>25.129999999999999</ele>
        <time>2023-08-25T10:40:40Z</time>
      </trkpt>
      <trkpt lat="58.247382966801524" lon="-5.005030017346144">
        <ele>20.32</ele>
        <time>2023-08-25T10:40:46Z</time>
      </trkpt>
      <trkpt lat="58.247232008725405" lon="-5.00491401180625">
        <ele>19.84</ele>
        <time>2023-08-25T10:40:47Z</time>
      </trkpt>
      <trkpt lat="58.247079961001873" lon="-5.004819966852665">
        <ele>19.359999999999999</ele>
        <time>2023-08-25T10:40:48Z</time>
      </trkpt>
      <trkpt lat="58.246772009879351" lon="-5.004683006554842">
        <ele>18.399999999999999</ele>
        <time>2023-08-25T10:40:50Z</time>
      </trkpt>
      <trkpt lat="58.246610993519425" lon="-5.004716031253338">
        <ele>17.920000000000002</ele>
        <time>2023-08-25T10:40:51Z</time>
      </trkpt>
      <trkpt lat="58.246454000473022" lon="-5.004760036244988">
        <ele>17.440000000000001</ele>
        <time>2023-08-25T10:40:52Z</time>
      </trkpt>
      <trkpt lat="58.246296001598239" lon="-5.004833964630961">
        <ele>16.960000000000001</ele>
        <time>2023-08-25T10:40:53Z</time>
      </trkpt>
      <trkpt lat="58.246138002723455" lon="-5.004906971007586">
        <ele>16.48</ele>
        <time>2023-08-25T10:40:54Z</time>
      </trkpt>
      <trkpt lat="58.245981009677052" lon="-5.00497997738421">
        <ele>16.48</ele>
        <time>2023-08-25T10:40:55Z</time>
      </trkpt>
      <trkpt lat="58.245842959731817" lon="-5.005045020952821">
        <ele>16</ele>
        <time>2023-08-25T10:40:56Z</time>
      </trkpt>
      <trkpt lat="58.245676998049021" lon="-5.004990035668016">
        <ele>16</ele>
        <time>2023-08-25T10:40:57Z</time>
      </trkpt>
      <trkpt lat="58.245535008609295" lon="-5.004943013191223">
        <ele>16.48</ele>
        <time>2023-08-25T10:40:58Z</time>
      </trkpt>
      <trkpt lat="58.245400981977582" lon="-5.004844022914767">
        <ele>16.48</ele>
        <time>2023-08-25T10:40:59Z</time>
      </trkpt>
      <trkpt lat="58.245275001972914" lon="-5.004682000726461">
        <ele>16.960000000000001</ele>
        <time>2023-08-25T10:41:00Z</time>
      </trkpt>
      <trkpt lat="58.245144998654723" lon="-5.004513021558523">
        <ele>17.440000000000001</ele>
        <time>2023-08-25T10:41:01Z</time>
      </trkpt>
      <trkpt lat="58.244747025892138" lon="-5.003997031599283">
        <ele>18.399999999999999</ele>
        <time>2023-08-25T10:41:04Z</time>
      </trkpt>
      <trkpt lat="58.24460101313889" lon="-5.003936011344194">
        <ele>18.879999999999999</ele>
        <time>2023-08-25T10:41:05Z</time>
      </trkpt>
      <trkpt lat="58.244458017870784" lon="-5.003896029666066">
        <ele>19.359999999999999</ele>
        <time>2023-08-25T10:41:06Z</time>
      </trkpt>
      <trkpt lat="58.244317034259439" lon="-5.003937017172575">
        <ele>20.32</ele>
        <time>2023-08-25T10:41:07Z</time>
      </trkpt>
      <trkpt lat="58.244163980707526" lon="-5.004009017720819">
        <ele>20.809999999999999</ele>
        <time>2023-08-25T10:41:08Z</time>
      </trkpt>
      <trkpt lat="58.244025008752942" lon="-5.004138015210629">
        <ele>21.289999999999999</ele>
        <time>2023-08-25T10:41:09Z</time>
      </trkpt>
      <trkpt lat="58.243886958807707" lon="-5.004311017692089">
        <ele>21.289999999999999</ele>
        <time>2023-08-25T10:41:10Z</time>
      </trkpt>
      <trkpt lat="58.24374102987349" lon="-5.004495000466704">
        <ele>21.77</ele>
        <time>2023-08-25T10:41:11Z</time>
      </trkpt>
      <trkpt lat="58.242978025227785" lon="-5.005524968728423">
        <ele>24.170000000000002</ele>
        <time>2023-08-25T10:41:16Z</time>
      </trkpt>
      <trkpt lat="58.242859002202749" lon="-5.005824035033584">
        <ele>25.129999999999999</ele>
        <time>2023-08-25T10:41:17Z</time>
      </trkpt>
      <trkpt lat="58.241935987025499" lon="-5.007817000150681">
        <ele>32.340000000000003</ele>
        <time>2023-08-25T10:41:24Z</time>
      </trkpt>
      <trkpt lat="58.241763990372419" lon="-5.008026966825128">
        <ele>33.299999999999997</ele>
        <time>2023-08-25T10:41:25Z</time>
      </trkpt>
      <trkpt lat="58.239805977791548" lon="-5.010253032669425">
        <ele>47.719999999999999</ele>
        <time>2023-08-25T10:41:36Z</time>
      </trkpt>
      <trkpt lat="58.239620989188552" lon="-5.010339030995965">
        <ele>49.159999999999997</ele>
        <time>2023-08-25T10:41:37Z</time>
      </trkpt>
      <trkpt lat="58.238339982926846" lon="-5.010698027908802">
        <ele>55.409999999999997</ele>
        <time>2023-08-25T10:41:44Z</time>
      </trkpt>
      <trkpt lat="58.238161029294133" lon="-5.010687969624996">
        <ele>55.890000000000001</ele>
        <time>2023-08-25T10:41:45Z</time>
      </trkpt>
      <trkpt lat="58.238010993227363" lon="-5.010613035410643">
        <ele>56.369999999999997</ele>
        <time>2023-08-25T10:41:46Z</time>
      </trkpt>
      <trkpt lat="58.237583013251424" lon="-5.01045998185873">
        <ele>57.82</ele>
        <time>2023-08-25T10:41:49Z</time>
      </trkpt>
      <trkpt lat="58.237452004104853" lon="-5.010469034314156">
        <ele>58.299999999999997</ele>
        <time>2023-08-25T10:41:50Z</time>
      </trkpt>
      <trkpt lat="58.237340021878481" lon="-5.010533994063735">
        <ele>58.299999999999997</ele>
        <time>2023-08-25T10:41:51Z</time>
      </trkpt>
      <trkpt lat="58.23723298497498" lon="-5.010663997381926">
        <ele>58.780000000000001</ele>
        <time>2023-08-25T10:41:52Z</time>
      </trkpt>
      <trkpt lat="58.237115973606706" lon="-5.010806992650032">
        <ele>59.259999999999998</ele>
        <time>2023-08-25T10:41:53Z</time>
      </trkpt>
      <trkpt lat="58.236998040229082" lon="-5.010955017060041">
        <ele>59.740000000000002</ele>
        <time>2023-08-25T10:41:54Z</time>
      </trkpt>
      <trkpt lat="58.236293960362673" lon="-5.012388993054628">
        <ele>64.549999999999997</ele>
        <time>2023-08-25T10:42:02Z</time>
      </trkpt>
      <trkpt lat="58.235629023984075" lon="-5.013628005981445">
        <ele>68.870000000000005</ele>
        <time>2023-08-25T10:42:09Z</time>
      </trkpt>
      <trkpt lat="58.234501993283629" lon="-5.014927033334971">
        <ele>77.519999999999996</ele>
        <time>2023-08-25T10:42:17Z</time>
      </trkpt>
      <trkpt lat="58.234356986358762" lon="-5.014963997527957">
        <ele>78.969999999999999</ele>
        <time>2023-08-25T10:42:18Z</time>
      </trkpt>
      <trkpt lat="58.234219020232558" lon="-5.01499199308455">
        <ele>79.450000000000003</ele>
        <time>2023-08-25T10:42:19Z</time>
      </trkpt>
      <trkpt lat="58.234082981944084" lon="-5.014947988092899">
        <ele>80.409999999999997</ele>
        <time>2023-08-25T10:42:20Z</time>
      </trkpt>
      <trkpt lat="58.233949039131403" lon="-5.014866013079882">
        <ele>81.370000000000005</ele>
        <time>2023-08-25T10:42:21Z</time>
      </trkpt>
      <trkpt lat="58.233813000842929" lon="-5.014783032238483">
        <ele>82.329999999999998</ele>
        <time>2023-08-25T10:42:22Z</time>
      </trkpt>
      <trkpt lat="58.233690960332751" lon="-5.014612963423133">
        <ele>83.290000000000006</ele>
        <time>2023-08-25T10:42:23Z</time>
      </trkpt>
      <trkpt lat="58.233572021126747" lon="-5.014415988698602">
        <ele>84.25</ele>
        <time>2023-08-25T10:42:24Z</time>
      </trkpt>
      <trkpt lat="58.233446963131428" lon="-5.014211973175407">
        <ele>85.209999999999994</ele>
        <time>2023-08-25T10:42:25Z</time>
      </trkpt>
      <trkpt lat="58.233319977298379" lon="-5.01400301232934">
        <ele>86.180000000000007</ele>
        <time>2023-08-25T10:42:26Z</time>
      </trkpt>
      <trkpt lat="58.232981013134122" lon="-5.013308990746737">
        <ele>89.540000000000006</ele>
        <time>2023-08-25T10:42:29Z</time>
      </trkpt>
      <trkpt lat="58.232899038121104" lon="-5.013031968846917">
        <ele>90.5</ele>
        <time>2023-08-25T10:42:30Z</time>
      </trkpt>
      <trkpt lat="58.232824020087719" lon="-5.012742038816214">
        <ele>91.939999999999998</ele>
        <time>2023-08-25T10:42:31Z</time>
      </trkpt>
      <trkpt lat="58.232605000957847" lon="-5.011892030015588">
        <ele>95.790000000000006</ele>
        <time>2023-08-25T10:42:34Z</time>
      </trkpt>
      <trkpt lat="58.232496958225965" lon="-5.0116600189358">
        <ele>97.230000000000004</ele>
        <time>2023-08-25T10:42:35Z</time>
      </trkpt>
      <trkpt lat="58.232367038726807" lon="-5.011443011462688">
        <ele>98.189999999999998</ele>
        <time>2023-08-25T10:42:36Z</time>
      </trkpt>
      <trkpt lat="58.231844007968903" lon="-5.010610017925501">
        <ele>103.48</ele>
        <time>2023-08-25T10:42:40Z</time>
      </trkpt>
      <trkpt lat="58.231700006872416" lon="-5.010453024879098">
        <ele>104.92</ele>
        <time>2023-08-25T10:42:41Z</time>
      </trkpt>
      <trkpt lat="58.231541002169251" lon="-5.010338025167584">
        <ele>105.88</ele>
        <time>2023-08-25T10:42:42Z</time>
      </trkpt>
      <trkpt lat="58.231374034658074" lon="-5.010238029062748">
        <ele>107.31999999999999</ele>
        <time>2023-08-25T10:42:43Z</time>
      </trkpt>
      <trkpt lat="58.231203965842724" lon="-5.01013602130115">
        <ele>108.29000000000001</ele>
        <time>2023-08-25T10:42:44Z</time>
      </trkpt>
      <trkpt lat="58.230705996975303" lon="-5.009765038266778">
        <ele>112.61</ele>
        <time>2023-08-25T10:42:47Z</time>
      </trkpt>
      <trkpt lat="58.230565013363957" lon="-5.009574014693499">
        <ele>114.53</ele>
        <time>2023-08-25T10:42:48Z</time>
      </trkpt>
      <trkpt lat="58.229906028136611" lon="-5.008681006729603">
        <ele>122.22</ele>
        <time>2023-08-25T10:42:53Z</time>
      </trkpt>
      <trkpt lat="58.229764960706234" lon="-5.008553015068173">
        <ele>123.67</ele>
        <time>2023-08-25T10:42:54Z</time>
      </trkpt>
      <trkpt lat="58.229610985144973" lon="-5.008480008691549">
        <ele>125.11</ele>
        <time>2023-08-25T10:42:55Z</time>
      </trkpt>
      <trkpt lat="58.22945499792695" lon="-5.008407002314925">
        <ele>126.06999999999999</ele>
        <time>2023-08-25T10:42:56Z</time>
      </trkpt>
      <trkpt lat="58.229296999052167" lon="-5.008332990109921">
        <ele>127.51000000000001</ele>
        <time>2023-08-25T10:42:57Z</time>
      </trkpt>
      <trkpt lat="58.228063015267253" lon="-5.007427996024489">
        <ele>138.56999999999999</ele>
        <time>2023-08-25T10:43:05Z</time>
      </trkpt>
      <trkpt lat="58.227110998705029" lon="-5.006587961688638">
        <ele>142.88999999999999</ele>
        <time>2023-08-25T10:43:11Z</time>
      </trkpt>
      <trkpt lat="58.226612024009228" lon="-5.006041964516044">
        <ele>144.81999999999999</ele>
        <time>2023-08-25T10:43:15Z</time>
      </trkpt>
      <trkpt lat="58.226504987105727" lon="-5.005847001448274">
        <ele>144.81999999999999</ele>
        <time>2023-08-25T10:43:16Z</time>
      </trkpt>
      <trkpt lat="58.226395016536117" lon="-5.005647009238601">
        <ele>144.81999999999999</ele>
        <time>2023-08-25T10:43:17Z</time>
      </trkpt>
      <trkpt lat="58.226299965754151" lon="-5.0054070353508">
        <ele>144.81999999999999</ele>
        <time>2023-08-25T10:43:18Z</time>
      </trkpt>
      <trkpt lat="58.226206004619598" lon="-5.005135964602232">
        <ele>144.81999999999999</ele>
        <time>2023-08-25T10:43:19Z</time>
      </trkpt>
      <trkpt lat="58.226110031828284" lon="-5.004858020693064">
        <ele>144.34</ele>
        <time>2023-08-25T10:43:20Z</time>
      </trkpt>
      <trkpt lat="58.225589012727141" lon="-5.003468971699476">
        <ele>144.81999999999999</ele>
        <time>2023-08-25T10:43:25Z</time>
      </trkpt>
      <trkpt lat="58.225101018324494" lon="-5.002525001764298">
        <ele>146.25999999999999</ele>
        <time>2023-08-25T10:43:29Z</time>
      </trkpt>
      <trkpt lat="58.224987024441361" lon="-5.002362979575992">
        <ele>146.74000000000001</ele>
        <time>2023-08-25T10:43:30Z</time>
      </trkpt>
      <trkpt lat="58.224863978102803" lon="-5.002289973199368">
        <ele>147.22</ele>
        <time>2023-08-25T10:43:31Z</time>
      </trkpt>
      <trkpt lat="58.224737998098135" lon="-5.00227203592658">
        <ele>148.18000000000001</ele>
        <time>2023-08-25T10:43:32Z</time>
      </trkpt>
      <trkpt lat="58.224601959809661" lon="-5.002268012613058">
        <ele>149.13999999999999</ele>
        <time>2023-08-25T10:43:33Z</time>
      </trkpt>
      <trkpt lat="58.224463993683457" lon="-5.002356022596359">
        <ele>150.09999999999999</ele>
        <time>2023-08-25T10:43:34Z</time>
      </trkpt>
      <trkpt lat="58.224310018122196" lon="-5.002454007044435">
        <ele>151.06</ele>
        <time>2023-08-25T10:43:35Z</time>
      </trkpt>
      <trkpt lat="58.223849013447762" lon="-5.002748966217041">
        <ele>154.91</ele>
        <time>2023-08-25T10:43:38Z</time>
      </trkpt>
      <trkpt lat="58.223684979602695" lon="-5.002707978710532">
        <ele>156.34999999999999</ele>
        <time>2023-08-25T10:43:39Z</time>
      </trkpt>
      <trkpt lat="58.22356796823442" lon="-5.002678977325559">
        <ele>157.31</ele>
        <time>2023-08-25T10:43:40Z</time>
      </trkpt>
      <trkpt lat="58.223465960472822" lon="-5.002584010362625">
        <ele>158.27000000000001</ele>
        <time>2023-08-25T10:43:41Z</time>
      </trkpt>
      <trkpt lat="58.223376022651792" lon="-5.002404972910881">
        <ele>159.24000000000001</ele>
        <time>2023-08-25T10:43:42Z</time>
      </trkpt>
      <trkpt lat="58.223286001011729" lon="-5.002157036215067">
        <ele>160.19999999999999</ele>
        <time>2023-08-25T10:43:43Z</time>
      </trkpt>
      <trkpt lat="58.223200002685189" lon="-5.001867022365332">
        <ele>161.16</ele>
        <time>2023-08-25T10:43:44Z</time>
      </trkpt>
      <trkpt lat="58.222547974437475" lon="-4.999850001186132">
        <ele>165</ele>
        <time>2023-08-25T10:43:51Z</time>
      </trkpt>
      <trkpt lat="58.222414031624794" lon="-4.999690996482968">
        <ele>165</ele>
        <time>2023-08-25T10:43:52Z</time>
      </trkpt>
      <trkpt lat="58.222270030528307" lon="-4.999530985951424">
        <ele>165</ele>
        <time>2023-08-25T10:43:53Z</time>
      </trkpt>
      <trkpt lat="58.222117982804775" lon="-4.999381033703685">
        <ele>165</ele>
        <time>2023-08-25T10:43:54Z</time>
      </trkpt>
      <trkpt lat="58.221947997808456" lon="-4.999281959608197">
        <ele>165</ele>
        <time>2023-08-25T10:43:55Z</time>
      </trkpt>
      <trkpt lat="58.220155024901032" lon="-4.998003970831633">
        <ele>166.93000000000001</ele>
        <time>2023-08-25T10:44:05Z</time>
      </trkpt>
      <trkpt lat="58.219583965837955" lon="-4.997584037482739">
        <ele>169.81</ele>
        <time>2023-08-25T10:44:09Z</time>
      </trkpt>
      <trkpt lat="58.21944298222661" lon="-4.997527962550521">
        <ele>170.28999999999999</ele>
        <time>2023-08-25T10:44:10Z</time>
      </trkpt>
      <trkpt lat="58.219299986958504" lon="-4.997469959780574">
        <ele>171.25</ele>
        <time>2023-08-25T10:44:11Z</time>
      </trkpt>
      <trkpt lat="58.219145005568862" lon="-4.997536009177566">
        <ele>172.21000000000001</ele>
        <time>2023-08-25T10:44:12Z</time>
      </trkpt>
      <trkpt lat="58.218988012522459" lon="-4.997601974755526">
        <ele>173.16999999999999</ele>
        <time>2023-08-25T10:44:13Z</time>
      </trkpt>
      <trkpt lat="58.218837976455688" lon="-4.997711023315787">
        <ele>174.13999999999999</ele>
        <time>2023-08-25T10:44:14Z</time>
      </trkpt>
      <trkpt lat="58.218695987015963" lon="-4.99789098277688">
        <ele>175.58000000000001</ele>
        <time>2023-08-25T10:44:15Z</time>
      </trkpt>
      <trkpt lat="58.218548968434334" lon="-4.998076977208257">
        <ele>177.02000000000001</ele>
        <time>2023-08-25T10:44:16Z</time>
      </trkpt>
      <trkpt lat="58.218397004529834" lon="-4.998269006609917">
        <ele>178.94</ele>
        <time>2023-08-25T10:44:17Z</time>
      </trkpt>
      <trkpt lat="58.218248980119824" lon="-4.998457012698054">
        <ele>180.38</ele>
        <time>2023-08-25T10:44:18Z</time>
      </trkpt>
      <trkpt lat="58.218091987073421" lon="-4.998614005744457">
        <ele>182.31</ele>
        <time>2023-08-25T10:44:19Z</time>
      </trkpt>
      <trkpt lat="58.217934994027019" lon="-4.998744009062648">
        <ele>183.75</ele>
        <time>2023-08-25T10:44:20Z</time>
      </trkpt>
      <trkpt lat="58.217771966010332" lon="-4.998779967427254">
        <ele>185.66999999999999</ele>
        <time>2023-08-25T10:44:21Z</time>
      </trkpt>
      <trkpt lat="58.217601981014013" lon="-4.998818021267653">
        <ele>187.11000000000001</ele>
        <time>2023-08-25T10:44:22Z</time>
      </trkpt>
      <trkpt lat="58.217429984360933" lon="-4.99885599128902">
        <ele>189.03999999999999</ele>
        <time>2023-08-25T10:44:23Z</time>
      </trkpt>
      <trkpt lat="58.21727198548615" lon="-4.998891027644277">
        <ele>190.47999999999999</ele>
        <time>2023-08-25T10:44:24Z</time>
      </trkpt>
      <trkpt lat="58.217137036845088" lon="-4.998951964080334">
        <ele>191.91999999999999</ele>
        <time>2023-08-25T10:44:25Z</time>
      </trkpt>
      <trkpt lat="58.217016002163291" lon="-4.999039974063635">
        <ele>192.88</ele>
        <time>2023-08-25T10:44:26Z</time>
      </trkpt>
      <trkpt lat="58.216912988573313" lon="-4.999176012352109">
        <ele>194.31999999999999</ele>
        <time>2023-08-25T10:44:27Z</time>
      </trkpt>
      <trkpt lat="58.216826990246773" lon="-4.99934901483357">
        <ele>195.28</ele>
        <time>2023-08-25T10:44:28Z</time>
      </trkpt>
      <trkpt lat="58.216764964163303" lon="-4.999592006206513">
        <ele>196.72999999999999</ele>
        <time>2023-08-25T10:44:29Z</time>
      </trkpt>
      <trkpt lat="58.216707967221737" lon="-4.999859975650907">
        <ele>198.16999999999999</ele>
        <time>2023-08-25T10:44:30Z</time>
      </trkpt>
      <trkpt lat="58.21664803661406" lon="-5.000139009207487">
        <ele>199.61000000000001</ele>
        <time>2023-08-25T10:44:31Z</time>
      </trkpt>
      <trkpt lat="58.216591961681843" lon="-5.00040396116674">
        <ele>201.05000000000001</ele>
        <time>2023-08-25T10:44:32Z</time>
      </trkpt>
      <trkpt lat="58.216535970568657" lon="-5.000599008053541">
        <ele>202.49000000000001</ele>
        <time>2023-08-25T10:44:33Z</time>
      </trkpt>
      <trkpt lat="58.216449972242117" lon="-5.000685006380081">
        <ele>203.94</ele>
        <time>2023-08-25T10:44:34Z</time>
      </trkpt>
      <trkpt lat="58.216374032199383" lon="-5.000750971958041">
        <ele>204.90000000000001</ele>
        <time>2023-08-25T10:44:35Z</time>
      </trkpt>
      <trkpt lat="58.216291973367333" lon="-5.000728005543351">
        <ele>204.90000000000001</ele>
        <time>2023-08-25T10:44:36Z</time>
      </trkpt>
      <trkpt lat="58.216213015839458" lon="-5.000680983066559">
        <ele>205.86000000000001</ele>
        <time>2023-08-25T10:44:37Z</time>
      </trkpt>
      <trkpt lat="58.216124000027776" lon="-5.000538993626833">
        <ele>206.34</ele>
        <time>2023-08-25T10:44:38Z</time>
      </trkpt>
      <trkpt lat="58.216107990592718" lon="-5.000355010852218">
        <ele>207.30000000000001</ele>
        <time>2023-08-25T10:44:39Z</time>
      </trkpt>
      <trkpt lat="58.216088963672519" lon="-5.0001469720155">
        <ele>208.25999999999999</ele>
        <time>2023-08-25T10:44:40Z</time>
      </trkpt>
      <trkpt lat="58.216105978935957" lon="-4.99988897703588">
        <ele>209.69999999999999</ele>
        <time>2023-08-25T10:44:41Z</time>
      </trkpt>
      <trkpt lat="58.216141015291214" lon="-4.999641962349415">
        <ele>210.66999999999999</ele>
        <time>2023-08-25T10:44:42Z</time>
      </trkpt>
      <trkpt lat="58.216365985572338" lon="-4.998032972216606">
        <ele>219.80000000000001</ele>
        <time>2023-08-25T10:44:49Z</time>
      </trkpt>
      <trkpt lat="58.216374032199383" lon="-4.997808001935482">
        <ele>220.75999999999999</ele>
        <time>2023-08-25T10:44:50Z</time>
      </trkpt>
      <trkpt lat="58.216343019157648" lon="-4.997608009725809">
        <ele>221.72</ele>
        <time>2023-08-25T10:44:51Z</time>
      </trkpt>
      <trkpt lat="58.216299014165998" lon="-4.99741698615253">
        <ele>222.68000000000001</ele>
        <time>2023-08-25T10:44:52Z</time>
      </trkpt>
      <trkpt lat="58.216221984475851" lon="-4.997285977005959">
        <ele>223.16</ele>
        <time>2023-08-25T10:44:53Z</time>
      </trkpt>
      <trkpt lat="58.216124000027776" lon="-4.99718002974987">
        <ele>224.12</ele>
        <time>2023-08-25T10:44:54Z</time>
      </trkpt>
      <trkpt lat="58.216013023629785" lon="-4.997149016708136">
        <ele>224.61000000000001</ele>
        <time>2023-08-25T10:44:55Z</time>
      </trkpt>
      <trkpt lat="58.215886037796736" lon="-4.997140970081091">
        <ele>225.09</ele>
        <time>2023-08-25T10:44:56Z</time>
      </trkpt>
      <trkpt lat="58.21574698202312" lon="-4.997182041406632">
        <ele>226.05000000000001</ele>
        <time>2023-08-25T10:44:57Z</time>
      </trkpt>
      <trkpt lat="58.214481985196471" lon="-4.997599963098764">
        <ele>229.41</ele>
        <time>2023-08-25T10:45:04Z</time>
      </trkpt>
      <trkpt lat="58.211808996275067" lon="-4.998740991577506">
        <ele>237.58000000000001</ele>
        <time>2023-08-25T10:45:17Z</time>
      </trkpt>
      <trkpt lat="58.209669012576342" lon="-5.000129034742713">
        <ele>248.63999999999999</ele>
        <time>2023-08-25T10:45:28Z</time>
      </trkpt>
      <trkpt lat="58.209499027580023" lon="-5.00031603500247">
        <ele>249.59999999999999</ele>
        <time>2023-08-25T10:45:29Z</time>
      </trkpt>
      <trkpt lat="58.208144009113312" lon="-5.001991996541619">
        <ele>256.81</ele>
        <time>2023-08-25T10:45:37Z</time>
      </trkpt>
      <trkpt lat="58.207961032167077" lon="-5.002125017344952">
        <ele>257.29000000000002</ele>
        <time>2023-08-25T10:45:38Z</time>
      </trkpt>
      <trkpt lat="58.207416040822864" lon="-5.002555008977652">
        <ele>258.73000000000002</ele>
        <time>2023-08-25T10:45:41Z</time>
      </trkpt>
      <trkpt lat="58.207275979220867" lon="-5.002782996743918">
        <ele>259.20999999999998</ele>
        <time>2023-08-25T10:45:42Z</time>
      </trkpt>
      <trkpt lat="58.207134995609522" lon="-5.003015007823706">
        <ele>259.20999999999998</ele>
        <time>2023-08-25T10:45:43Z</time>
      </trkpt>
      <trkpt lat="58.206997029483318" lon="-5.003262022510171">
        <ele>259.69</ele>
        <time>2023-08-25T10:45:44Z</time>
      </trkpt>
      <trkpt lat="58.206869037821889" lon="-5.003528986126185">
        <ele>260.17000000000002</ele>
        <time>2023-08-25T10:45:45Z</time>
      </trkpt>
      <trkpt lat="58.206366039812565" lon="-5.004446972161531">
        <ele>261.62</ele>
        <time>2023-08-25T10:45:49Z</time>
      </trkpt>
      <trkpt lat="58.206253973767161" lon="-5.00459399074316">
        <ele>262.10000000000002</ele>
        <time>2023-08-25T10:45:50Z</time>
      </trkpt>
      <trkpt lat="58.206089017912745" lon="-5.004664985463023">
        <ele>262.10000000000002</ele>
        <time>2023-08-25T10:45:51Z</time>
      </trkpt>
      <trkpt lat="58.205925989896059" lon="-5.004734974354506">
        <ele>261.62</ele>
        <time>2023-08-25T10:45:52Z</time>
      </trkpt>
      <trkpt lat="58.205750975757837" lon="-5.004809992387891">
        <ele>261.62</ele>
        <time>2023-08-25T10:45:53Z</time>
      </trkpt>
      <trkpt lat="58.204414984211326" lon="-5.00560199841857">
        <ele>259.20999999999998</ele>
        <time>2023-08-25T10:46:00Z</time>
      </trkpt>
      <trkpt lat="58.203210001811385" lon="-5.006917035207152">
        <ele>256.32999999999998</ele>
        <time>2023-08-25T10:46:07Z</time>
      </trkpt>
      <trkpt lat="58.203060971572995" lon="-5.006961962208152">
        <ele>255.84999999999999</ele>
        <time>2023-08-25T10:46:08Z</time>
      </trkpt>
      <trkpt lat="58.202913030982018" lon="-5.006955005228519">
        <ele>255.84999999999999</ele>
        <time>2023-08-25T10:46:09Z</time>
      </trkpt>
      <trkpt lat="58.20274899713695" lon="-5.006919968873262">
        <ele>255.37</ele>
        <time>2023-08-25T10:46:10Z</time>
      </trkpt>
      <trkpt lat="58.202569959685206" lon="-5.006881998851895">
        <ele>254.88999999999999</ele>
        <time>2023-08-25T10:46:11Z</time>
      </trkpt>
      <trkpt lat="58.202003007754683" lon="-5.006866995245218">
        <ele>253.44</ele>
        <time>2023-08-25T10:46:14Z</time>
      </trkpt>
      <trkpt lat="58.201813995838165" lon="-5.006949976086617">
        <ele>252.96000000000001</ele>
        <time>2023-08-25T10:46:15Z</time>
      </trkpt>
      <trkpt lat="58.200529972091317" lon="-5.007581971585751">
        <ele>250.08000000000001</ele>
        <time>2023-08-25T10:46:22Z</time>
      </trkpt>
      <trkpt lat="58.200432993471622" lon="-5.007731001824141">
        <ele>249.59999999999999</ele>
        <time>2023-08-25T10:46:23Z</time>
      </trkpt>
      <trkpt lat="58.200343977659941" lon="-5.007867962121964">
        <ele>249.12</ele>
        <time>2023-08-25T10:46:24Z</time>
      </trkpt>
      <trkpt lat="58.200269965454936" lon="-5.008029984310269">
        <ele>248.63999999999999</ele>
        <time>2023-08-25T10:46:25Z</time>
      </trkpt>
      <trkpt lat="58.200194025412202" lon="-5.008242968469858">
        <ele>248.16</ele>
        <time>2023-08-25T10:46:26Z</time>
      </trkpt>
      <trkpt lat="58.199765039607882" lon="-5.009430013597012">
        <ele>247.19999999999999</ele>
        <time>2023-08-25T10:46:31Z</time>
      </trkpt>
      <trkpt lat="58.199648028239608" lon="-5.009632017463446">
        <ele>247.19999999999999</ele>
        <time>2023-08-25T10:46:32Z</time>
      </trkpt>
      <trkpt lat="58.199536968022585" lon="-5.009808959439397">
        <ele>246.72</ele>
        <time>2023-08-25T10:46:33Z</time>
      </trkpt>
      <trkpt lat="58.199391961097717" lon="-5.009953966364265">
        <ele>246.72</ele>
        <time>2023-08-25T10:46:34Z</time>
      </trkpt>
      <trkpt lat="58.199247037991881" lon="-5.010079024359584">
        <ele>246.72</ele>
        <time>2023-08-25T10:46:35Z</time>
      </trkpt>
      <trkpt lat="58.199084009975195" lon="-5.010140966624022">
        <ele>246.22999999999999</ele>
        <time>2023-08-25T10:46:36Z</time>
      </trkpt>
      <trkpt lat="58.198914024978876" lon="-5.010205004364252">
        <ele>245.75</ele>
        <time>2023-08-25T10:46:37Z</time>
      </trkpt>
      <trkpt lat="58.198741022497416" lon="-5.010238029062748">
        <ele>245.75</ele>
        <time>2023-08-25T10:46:38Z</time>
      </trkpt>
      <trkpt lat="58.19855603389442" lon="-5.010238029062748">
        <ele>245.27000000000001</ele>
        <time>2023-08-25T10:46:39Z</time>
      </trkpt>
      <trkpt lat="58.19836501032114" lon="-5.010238029062748">
        <ele>245.27000000000001</ele>
        <time>2023-08-25T10:46:40Z</time>
      </trkpt>
      <trkpt lat="58.196164006367326" lon="-5.010515972971916">
        <ele>243.34999999999999</ele>
        <time>2023-08-25T10:46:51Z</time>
      </trkpt>
      <trkpt lat="58.194745033979416" lon="-5.011098012328148">
        <ele>239.99000000000001</ele>
        <time>2023-08-25T10:46:58Z</time>
      </trkpt>
      <trkpt lat="58.194352006539702" lon="-5.01129599288106">
        <ele>239.02000000000001</ele>
        <time>2023-08-25T10:47:00Z</time>
      </trkpt>
      <trkpt lat="58.194179004058242" lon="-5.01146899536252">
        <ele>238.53999999999999</ele>
        <time>2023-08-25T10:47:01Z</time>
      </trkpt>
      <trkpt lat="58.192514022812247" lon="-5.013086032122374">
        <ele>234.69999999999999</ele>
        <time>2023-08-25T10:47:11Z</time>
      </trkpt>
      <trkpt lat="58.190772011876106" lon="-5.013866974040866">
        <ele>226.53</ele>
        <time>2023-08-25T10:47:20Z</time>
      </trkpt>
      <trkpt lat="58.18983499892056" lon="-5.014404002577066">
        <ele>219.80000000000001</ele>
        <time>2023-08-25T10:47:25Z</time>
      </trkpt>
      <trkpt lat="58.189687980338931" lon="-5.014442978426814">
        <ele>218.36000000000001</ele>
        <time>2023-08-25T10:47:26Z</time>
      </trkpt>
      <trkpt lat="58.189537022262812" lon="-5.014354968443513">
        <ele>216.91</ele>
        <time>2023-08-25T10:47:27Z</time>
      </trkpt>
      <trkpt lat="58.189408024773002" lon="-5.014269975945354">
        <ele>214.99000000000001</ele>
        <time>2023-08-25T10:47:28Z</time>
      </trkpt>
      <trkpt lat="58.189272992312908" lon="-5.014129998162389">
        <ele>213.55000000000001</ele>
        <time>2023-08-25T10:47:29Z</time>
      </trkpt>
      <trkpt lat="58.189141983166337" lon="-5.0139170140028">
        <ele>212.11000000000001</ele>
        <time>2023-08-25T10:47:30Z</time>
      </trkpt>
      <trkpt lat="58.188690030947328" lon="-5.013231039047241">
        <ele>208.25999999999999</ele>
        <time>2023-08-25T10:47:33Z</time>
      </trkpt>
      <trkpt lat="58.188511999323964" lon="-5.013052001595497">
        <ele>206.81999999999999</ele>
        <time>2023-08-25T10:47:34Z</time>
      </trkpt>
      <trkpt lat="58.187255971133709" lon="-5.011628000065684">
        <ele>196.25</ele>
        <time>2023-08-25T10:47:41Z</time>
      </trkpt>
      <trkpt lat="58.185953004285693" lon="-5.010269964113832">
        <ele>184.71000000000001</ele>
        <time>2023-08-25T10:47:48Z</time>
      </trkpt>
      <trkpt lat="58.185101989656687" lon="-5.00873900949955">
        <ele>175.09999999999999</ele>
        <time>2023-08-25T10:47:54Z</time>
      </trkpt>
      <trkpt lat="58.184783980250359" lon="-5.007882965728641">
        <ele>170.77000000000001</ele>
        <time>2023-08-25T10:47:57Z</time>
      </trkpt>
      <trkpt lat="58.184728994965553" lon="-5.007602004334331">
        <ele>169.33000000000001</ele>
        <time>2023-08-25T10:47:58Z</time>
      </trkpt>
      <trkpt lat="58.184671998023987" lon="-5.007312996312976">
        <ele>168.37</ele>
        <time>2023-08-25T10:47:59Z</time>
      </trkpt>
      <trkpt lat="58.18461500108242" lon="-5.007022982463241">
        <ele>166.93000000000001</ele>
        <time>2023-08-25T10:48:00Z</time>
      </trkpt>
      <trkpt lat="58.184558004140854" lon="-5.006733974441886">
        <ele>165.47999999999999</ele>
        <time>2023-08-25T10:48:01Z</time>
      </trkpt>
      <trkpt lat="58.184417020529509" lon="-5.006174985319376">
        <ele>162.12</ele>
        <time>2023-08-25T10:48:03Z</time>
      </trkpt>
      <trkpt lat="58.184315012767911" lon="-5.005934005603194">
        <ele>160.19999999999999</ele>
        <time>2023-08-25T10:48:04Z</time>
      </trkpt>
      <trkpt lat="58.184200013056397" lon="-5.005703000351787">
        <ele>158.75</ele>
        <time>2023-08-25T10:48:05Z</time>
      </trkpt>
      <trkpt lat="58.184061963111162" lon="-5.005522035062313">
        <ele>156.83000000000001</ele>
        <time>2023-08-25T10:48:06Z</time>
      </trkpt>
      <trkpt lat="58.183931959792972" lon="-5.005351966246963">
        <ele>154.91</ele>
        <time>2023-08-25T10:48:07Z</time>
      </trkpt>
      <trkpt lat="58.183799022808671" lon="-5.005268985405564">
        <ele>153.47</ele>
        <time>2023-08-25T10:48:08Z</time>
      </trkpt>
      <trkpt lat="58.183657033368945" lon="-5.005219029262662">
        <ele>152.03</ele>
        <time>2023-08-25T10:48:09Z</time>
      </trkpt>
      <trkpt lat="58.183504985645413" lon="-5.005177035927773">
        <ele>150.09999999999999</ele>
        <time>2023-08-25T10:48:10Z</time>
      </trkpt>
      <trkpt lat="58.183337012305856" lon="-5.00519497320056">
        <ele>148.66</ele>
        <time>2023-08-25T10:48:11Z</time>
      </trkpt>
      <trkpt lat="58.181608999148011" lon="-5.005389014258981">
        <ele>133.75999999999999</ele>
        <time>2023-08-25T10:48:20Z</time>
      </trkpt>
      <trkpt lat="58.180952025577426" lon="-5.005370993167162">
        <ele>127.98999999999999</ele>
        <time>2023-08-25T10:48:24Z</time>
      </trkpt>
      <trkpt lat="58.180827973410487" lon="-5.005282983183861">
        <ele>126.55</ele>
        <time>2023-08-25T10:48:25Z</time>
      </trkpt>
      <trkpt lat="58.180711967870593" lon="-5.005198996514082">
        <ele>125.59</ele>
        <time>2023-08-25T10:48:26Z</time>
      </trkpt>
      <trkpt lat="58.180613983422518" lon="-5.005048960447311">
        <ele>124.63</ele>
        <time>2023-08-25T10:48:27Z</time>
      </trkpt>
      <trkpt lat="58.180521028116345" lon="-5.004862966015935">
        <ele>123.67</ele>
        <time>2023-08-25T10:48:28Z</time>
      </trkpt>
      <trkpt lat="58.18042203783989" lon="-5.004664985463023">
        <ele>122.70999999999999</ele>
        <time>2023-08-25T10:48:29Z</time>
      </trkpt>
      <trkpt lat="58.179852990433574" lon="-5.003576008602977">
        <ele>118.38</ele>
        <time>2023-08-25T10:48:34Z</time>
      </trkpt>
      <trkpt lat="58.179706977680326" lon="-5.003419015556574">
        <ele>117.42</ele>
        <time>2023-08-25T10:48:35Z</time>
      </trkpt>
      <trkpt lat="58.179553002119064" lon="-5.003285994753242">
        <ele>116.45999999999999</ele>
        <time>2023-08-25T10:48:36Z</time>
      </trkpt>
      <trkpt lat="58.179382011294365" lon="-5.003215000033379">
        <ele>115.5</ele>
        <time>2023-08-25T10:48:37Z</time>
      </trkpt>
      <trkpt lat="58.179209008812904" lon="-5.003141993656755">
        <ele>114.05</ele>
        <time>2023-08-25T10:48:38Z</time>
      </trkpt>
      <trkpt lat="58.179039023816586" lon="-5.003070998936892">
        <ele>113.09</ele>
        <time>2023-08-25T10:48:39Z</time>
      </trkpt>
      <trkpt lat="58.178537031635642" lon="-5.002903025597334">
        <ele>109.25</ele>
        <time>2023-08-25T10:48:42Z</time>
      </trkpt>
      <trkpt lat="58.178380038589239" lon="-5.002948036417365">
        <ele>107.81</ele>
        <time>2023-08-25T10:48:43Z</time>
      </trkpt>
      <trkpt lat="58.17823201417923" lon="-5.00300302170217">
        <ele>107.31999999999999</ele>
        <time>2023-08-25T10:48:44Z</time>
      </trkpt>
      <trkpt lat="58.178092036396265" lon="-5.003108968958259">
        <ele>106.36</ele>
        <time>2023-08-25T10:48:45Z</time>
      </trkpt>
      <trkpt lat="58.177964966744184" lon="-5.003250036388636">
        <ele>105.40000000000001</ele>
        <time>2023-08-25T10:48:46Z</time>
      </trkpt>
      <trkpt lat="58.177835969254375" lon="-5.003393031656742">
        <ele>104.44</ele>
        <time>2023-08-25T10:48:47Z</time>
      </trkpt>
      <trkpt lat="58.17722300067544" lon="-5.003967024385929">
        <ele>100.59999999999999</ele>
        <time>2023-08-25T10:48:52Z</time>
      </trkpt>
      <trkpt lat="58.177100038155913" lon="-5.004015974700451">
        <ele>100.11</ele>
        <time>2023-08-25T10:48:53Z</time>
      </trkpt>
      <trkpt lat="58.176977997645736" lon="-5.004065008834004">
        <ele>99.150000000000006</ele>
        <time>2023-08-25T10:48:54Z</time>
      </trkpt>
      <trkpt lat="58.176840031519532" lon="-5.004017986357212">
        <ele>98.670000000000002</ele>
        <time>2023-08-25T10:48:55Z</time>
      </trkpt>
      <trkpt lat="58.176712039858103" lon="-5.003941040486097">
        <ele>97.709999999999994</ele>
        <time>2023-08-25T10:48:56Z</time>
      </trkpt>
      <trkpt lat="58.17657901905477" lon="-5.00386199913919">
        <ele>97.230000000000004</ele>
        <time>2023-08-25T10:48:57Z</time>
      </trkpt>
      <trkpt lat="58.176445998251438" lon="-5.003749011084437">
        <ele>96.269999999999996</ele>
        <time>2023-08-25T10:48:58Z</time>
      </trkpt>
      <trkpt lat="58.175169015303254" lon="-5.002464987337589">
        <ele>87.140000000000001</ele>
        <time>2023-08-25T10:49:08Z</time>
      </trkpt>
      <trkpt lat="58.175031971186399" lon="-5.002362979575992">
        <ele>86.180000000000007</ele>
        <time>2023-08-25T10:49:09Z</time>
      </trkpt>
      <trkpt lat="58.174885036423802" lon="-5.002332972362638">
        <ele>84.730000000000004</ele>
        <time>2023-08-25T10:49:10Z</time>
      </trkpt>
      <trkpt lat="58.174741035327315" lon="-5.002304976806045">
        <ele>83.769999999999996</ele>
        <time>2023-08-25T10:49:11Z</time>
      </trkpt>
      <trkpt lat="58.174596028402448" lon="-5.002302965149283">
        <ele>82.329999999999998</ele>
        <time>2023-08-25T10:49:12Z</time>
      </trkpt>
      <trkpt lat="58.173348968848586" lon="-5.002688029780984">
        <ele>69.829999999999998</ele>
        <time>2023-08-25T10:49:22Z</time>
      </trkpt>
      <trkpt lat="58.172974968329072" lon="-5.002891961485148">
        <ele>63.579999999999998</ele>
        <time>2023-08-25T10:49:29Z</time>
      </trkpt>
      <trkpt lat="58.17281898111105" lon="-5.002919035032392">
        <ele>61.18</ele>
        <time>2023-08-25T10:49:32Z</time>
      </trkpt>
      <trkpt lat="58.17277698777616" lon="-5.002846028655767">
        <ele>60.700000000000003</ele>
        <time>2023-08-25T10:49:33Z</time>
      </trkpt>
      <trkpt lat="58.172718985006213" lon="-5.002743015065789">
        <ele>60.219999999999999</ele>
        <time>2023-08-25T10:49:34Z</time>
      </trkpt>
      <trkpt lat="58.172090006992221" lon="-5.001769037917256">
        <ele>61.659999999999997</ele>
        <time>2023-08-25T10:49:40Z</time>
      </trkpt>
      <trkpt lat="58.170357970520854" lon="-4.999060006812215">
        <ele>65.510000000000005</ele>
        <time>2023-08-25T10:49:53Z</time>
      </trkpt>
      <trkpt lat="58.169922027736902" lon="-4.998127017170191">
        <ele>66.469999999999999</ele>
        <time>2023-08-25T10:49:57Z</time>
      </trkpt>
      <trkpt lat="58.169851033017039" lon="-4.997860975563526">
        <ele>66.469999999999999</ele>
        <time>2023-08-25T10:49:58Z</time>
      </trkpt>
      <trkpt lat="58.169803004711866" lon="-4.997570961713791">
        <ele>66.469999999999999</ele>
        <time>2023-08-25T10:49:59Z</time>
      </trkpt>
      <trkpt lat="58.169509973376989" lon="-4.995090002194047">
        <ele>66.950000000000003</ele>
        <time>2023-08-25T10:50:08Z</time>
      </trkpt>
      <trkpt lat="58.169453982263803" lon="-4.994788002222776">
        <ele>66.950000000000003</ele>
        <time>2023-08-25T10:50:09Z</time>
      </trkpt>
      <trkpt lat="58.169384999200702" lon="-4.994609970599413">
        <ele>66.950000000000003</ele>
        <time>2023-08-25T10:50:10Z</time>
      </trkpt>
      <trkpt lat="58.169304030016065" lon="-4.994402015581727">
        <ele>66.950000000000003</ele>
        <time>2023-08-25T10:50:11Z</time>
      </trkpt>
      <trkpt lat="58.169205039739609" lon="-4.994221972301602">
        <ele>67.430000000000007</ele>
        <time>2023-08-25T10:50:12Z</time>
      </trkpt>
      <trkpt lat="58.169107977300882" lon="-4.994044024497271">
        <ele>67.430000000000007</ele>
        <time>2023-08-25T10:50:13Z</time>
      </trkpt>
      <trkpt lat="58.168601039797068" lon="-4.993082033470273">
        <ele>67.909999999999997</ele>
        <time>2023-08-25T10:50:19Z</time>
      </trkpt>
      <trkpt lat="58.168546976521611" lon="-4.992958987131715">
        <ele>68.390000000000001</ele>
        <time>2023-08-25T10:50:20Z</time>
      </trkpt>
      <trkpt lat="58.168497020378709" lon="-4.992847004905343">
        <ele>68.390000000000001</ele>
        <time>2023-08-25T10:50:21Z</time>
      </trkpt>
      <trkpt lat="58.168054036796093" lon="-4.991199960932136">
        <ele>68.870000000000005</ele>
        <time>2023-08-25T10:50:32Z</time>
      </trkpt>
      <trkpt lat="58.16800600849092" lon="-4.99101203866303">
        <ele>69.349999999999994</ele>
        <time>2023-08-25T10:50:33Z</time>
      </trkpt>
      <trkpt lat="58.167972983792424" lon="-4.99088304117322">
        <ele>69.349999999999994</ele>
        <time>2023-08-25T10:50:34Z</time>
      </trkpt>
      <trkpt lat="58.167868964374065" lon="-4.990673996508122">
        <ele>69.349999999999994</ele>
        <time>2023-08-25T10:50:35Z</time>
      </trkpt>
      <trkpt lat="58.167784977704287" lon="-4.990506023168564">
        <ele>69.829999999999998</ele>
        <time>2023-08-25T10:50:36Z</time>
      </trkpt>
      <trkpt lat="58.167675007134676" lon="-4.990361016243696">
        <ele>69.829999999999998</ele>
        <time>2023-08-25T10:50:37Z</time>
      </trkpt>
      <trkpt lat="58.167561013251543" lon="-4.990236964076757">
        <ele>70.310000000000002</ele>
        <time>2023-08-25T10:50:38Z</time>
      </trkpt>
      <trkpt lat="58.167440984398127" lon="-4.990130010992289">
        <ele>70.310000000000002</ele>
        <time>2023-08-25T10:50:39Z</time>
      </trkpt>
      <trkpt lat="58.16637204028666" lon="-4.989116974174976">
        <ele>70.790000000000006</ele>
        <time>2023-08-25T10:50:48Z</time>
      </trkpt>
      <trkpt lat="58.165983036160469" lon="-4.988507023081183">
        <ele>69.349999999999994</ele>
        <time>2023-08-25T10:50:54Z</time>
      </trkpt>
      <trkpt lat="58.165838029235601" lon="-4.988280041143298">
        <ele>68.390000000000001</ele>
        <time>2023-08-25T10:51:00Z</time>
      </trkpt>
      <trkpt lat="58.165774997323751" lon="-4.988385988399386">
        <ele>67.909999999999997</ele>
        <time>2023-08-25T10:51:03Z</time>
      </trkpt>
      <trkpt lat="58.165751025080681" lon="-4.988502999767661">
        <ele>67.430000000000007</ele>
        <time>2023-08-25T10:51:06Z</time>
      </trkpt>
      <trkpt lat="58.165883040055633" lon="-4.988351035863161">
        <ele>66.469999999999999</ele>
        <time>2023-08-25T10:51:09Z</time>
      </trkpt>
      <trkpt lat="58.165897959843278" lon="-4.988375008106232">
        <ele>66.469999999999999</ele>
        <time>2023-08-25T10:51:10Z</time>
      </trkpt>
      <trkpt lat="58.165907012298703" lon="-4.988389005884528">
        <ele>66.469999999999999</ele>
        <time>2023-08-25T10:51:11Z</time>
      </trkpt>
      <trkpt lat="58.165907012298703" lon="-4.988389005884528">
        <ele>65.989999999999995</ele>
        <time>2023-08-25T10:51:26Z</time>
      </trkpt>
      <trkpt lat="58.165907012298703" lon="-4.988389005884528">
        <ele>65.989999999999995</ele>
        <time>2023-08-25T10:52:19Z</time>
      </trkpt>
      <trkpt lat="58.165883040055633" lon="-4.988524038344622">
        <ele>75.120000000000005</ele>
        <time>2023-08-25T11:03:06Z</time>
      </trkpt>
      <trkpt lat="58.165833000093699" lon="-4.988545998930931">
        <ele>76.560000000000002</ele>
        <time>2023-08-25T11:03:32Z</time>
      </trkpt>
      <trkpt lat="58.165850015357137" lon="-4.988522026687861">
        <ele>73.680000000000007</ele>
        <time>2023-08-25T11:04:14Z</time>
      </trkpt>
      <trkpt lat="58.165840040892363" lon="-4.988518003374338">
        <ele>76.560000000000002</ele>
        <time>2023-08-25T11:04:54Z</time>
      </trkpt>
      <trkpt lat="58.16581598483026" lon="-4.988469975069165">
        <ele>75.599999999999994</ele>
        <time>2023-08-25T11:05:10Z</time>
      </trkpt>
      <trkpt lat="58.16581598483026" lon="-4.988479027524591">
        <ele>75.120000000000005</ele>
        <time>2023-08-25T11:06:01Z</time>
      </trkpt>
      <trkpt lat="58.16581598483026" lon="-4.988483972847462">
        <ele>74.640000000000001</ele>
        <time>2023-08-25T11:06:48Z</time>
      </trkpt>
      <trkpt lat="58.16581598483026" lon="-4.988486990332604">
        <ele>74.640000000000001</ele>
        <time>2023-08-25T11:07:05Z</time>
      </trkpt>
      <trkpt lat="58.16585898399353" lon="-4.988313987851143">
        <ele>74.159999999999997</ele>
        <time>2023-08-25T11:07:07Z</time>
      </trkpt>
      <trkpt lat="58.165846997871995" lon="-4.988294960930944">
        <ele>74.159999999999997</ele>
        <time>2023-08-25T11:07:08Z</time>
      </trkpt>
      <trkpt lat="58.165808022022247" lon="-4.988360004499555">
        <ele>74.159999999999997</ele>
        <time>2023-08-25T11:07:09Z</time>
      </trkpt>
      <trkpt lat="58.165828976780176" lon="-4.988266965374351">
        <ele>73.680000000000007</ele>
        <time>2023-08-25T11:07:11Z</time>
      </trkpt>
      <trkpt lat="58.165806010365486" lon="-4.988230001181364">
        <ele>73.680000000000007</ele>
        <time>2023-08-25T11:07:12Z</time>
      </trkpt>
      <trkpt lat="58.165769968181849" lon="-4.988175015896559">
        <ele>73.680000000000007</ele>
        <time>2023-08-25T11:07:13Z</time>
      </trkpt>
      <trkpt lat="58.165718000382185" lon="-4.988093040883541">
        <ele>73.680000000000007</ele>
        <time>2023-08-25T11:07:14Z</time>
      </trkpt>
      <trkpt lat="58.165662009268999" lon="-4.988006036728621">
        <ele>73.200000000000003</ele>
        <time>2023-08-25T11:07:15Z</time>
      </trkpt>
      <trkpt lat="58.165596965700388" lon="-4.987905034795404">
        <ele>72.719999999999999</ele>
        <time>2023-08-25T11:07:16Z</time>
      </trkpt>
      <trkpt lat="58.164863968268037" lon="-4.986814968287945">
        <ele>70.310000000000002</ele>
        <time>2023-08-25T11:07:24Z</time>
      </trkpt>
      <trkpt lat="58.164742011576891" lon="-4.986680019646883">
        <ele>70.310000000000002</ele>
        <time>2023-08-25T11:07:25Z</time>
      </trkpt>
      <trkpt lat="58.164615025743842" lon="-4.986538030207157">
        <ele>70.310000000000002</ele>
        <time>2023-08-25T11:07:26Z</time>
      </trkpt>
      <trkpt lat="58.164465995505452" lon="-4.986496958881617">
        <ele>69.829999999999998</ele>
        <time>2023-08-25T11:07:27Z</time>
      </trkpt>
      <trkpt lat="58.164312019944191" lon="-4.986464018002152">
        <ele>69.829999999999998</ele>
        <time>2023-08-25T11:07:28Z</time>
      </trkpt>
      <trkpt lat="58.164158966392279" lon="-4.986429987475276">
        <ele>69.349999999999994</ele>
        <time>2023-08-25T11:07:29Z</time>
      </trkpt>
      <trkpt lat="58.16400901414454" lon="-4.986468041315675">
        <ele>69.349999999999994</ele>
        <time>2023-08-25T11:07:30Z</time>
      </trkpt>
      <trkpt lat="58.163853026926517" lon="-4.986541969701648">
        <ele>69.349999999999994</ele>
        <time>2023-08-25T11:07:31Z</time>
      </trkpt>
      <trkpt lat="58.163693016394973" lon="-4.986617993563414">
        <ele>69.349999999999994</ele>
        <time>2023-08-25T11:07:32Z</time>
      </trkpt>
      <trkpt lat="58.163195969536901" lon="-4.98682402074337">
        <ele>69.829999999999998</ele>
        <time>2023-08-25T11:07:35Z</time>
      </trkpt>
      <trkpt lat="58.163027996197343" lon="-4.986856039613485">
        <ele>70.310000000000002</ele>
        <time>2023-08-25T11:07:36Z</time>
      </trkpt>
      <trkpt lat="58.162863040342927" lon="-4.986870037391782">
        <ele>70.790000000000006</ele>
        <time>2023-08-25T11:07:37Z</time>
      </trkpt>
      <trkpt lat="58.162695989012718" lon="-4.986772974953055">
        <ele>71.269999999999996</ele>
        <time>2023-08-25T11:07:38Z</time>
      </trkpt>
      <trkpt lat="58.162544025108218" lon="-4.986655963584781">
        <ele>71.760000000000005</ele>
        <time>2023-08-25T11:07:39Z</time>
      </trkpt>
      <trkpt lat="58.162405975162983" lon="-4.986439039930701">
        <ele>72.239999999999995</ele>
        <time>2023-08-25T11:07:40Z</time>
      </trkpt>
      <trkpt lat="58.162265997380018" lon="-4.98622102662921">
        <ele>72.239999999999995</ele>
        <time>2023-08-25T11:07:41Z</time>
      </trkpt>
      <trkpt lat="58.162124007940292" lon="-4.985979041084647">
        <ele>72.239999999999995</ele>
        <time>2023-08-25T11:07:42Z</time>
      </trkpt>
      <trkpt lat="58.161092028021812" lon="-4.98418296687305">
        <ele>70.790000000000006</ele>
        <time>2023-08-25T11:07:49Z</time>
      </trkpt>
      <trkpt lat="58.160912990570068" lon="-4.984021028503776">
        <ele>70.790000000000006</ele>
        <time>2023-08-25T11:07:50Z</time>
      </trkpt>
      <trkpt lat="58.160389037802815" lon="-4.983493974432349">
        <ele>71.269999999999996</ele>
        <time>2023-08-25T11:07:53Z</time>
      </trkpt>
      <trkpt lat="58.160229027271271" lon="-4.983285013586283">
        <ele>71.269999999999996</ele>
        <time>2023-08-25T11:07:54Z</time>
      </trkpt>
      <trkpt lat="58.160073962062597" lon="-4.983056019991636">
        <ele>71.760000000000005</ele>
        <time>2023-08-25T11:07:55Z</time>
      </trkpt>
      <trkpt lat="58.159952005371451" lon="-4.982754020020366">
        <ele>72.719999999999999</ele>
        <time>2023-08-25T11:07:56Z</time>
      </trkpt>
      <trkpt lat="58.159827031195164" lon="-4.982444979250431">
        <ele>73.680000000000007</ele>
        <time>2023-08-25T11:07:57Z</time>
      </trkpt>
      <trkpt lat="58.158199014142156" lon="-4.978848975151777">
        <ele>92.420000000000002</ele>
        <time>2023-08-25T11:08:09Z</time>
      </trkpt>
      <trkpt lat="58.158073034137487" lon="-4.978593997657299">
        <ele>93.870000000000005</ele>
        <time>2023-08-25T11:08:10Z</time>
      </trkpt>
      <trkpt lat="58.157916041091084" lon="-4.978414038196206">
        <ele>95.310000000000002</ele>
        <time>2023-08-25T11:08:11Z</time>
      </trkpt>
      <trkpt lat="58.157748989760876" lon="-4.978265007957816">
        <ele>96.269999999999996</ele>
        <time>2023-08-25T11:08:12Z</time>
      </trkpt>
      <trkpt lat="58.157573975622654" lon="-4.978127963840962">
        <ele>97.230000000000004</ele>
        <time>2023-08-25T11:08:13Z</time>
      </trkpt>
      <trkpt lat="58.157387981191278" lon="-4.978026039898396">
        <ele>98.189999999999998</ele>
        <time>2023-08-25T11:08:14Z</time>
      </trkpt>
      <trkpt lat="58.156129019334912" lon="-4.977301005274057">
        <ele>97.230000000000004</ele>
        <time>2023-08-25T11:08:21Z</time>
      </trkpt>
      <trkpt lat="58.155964985489845" lon="-4.97713697142899">
        <ele>96.269999999999996</ele>
        <time>2023-08-25T11:08:22Z</time>
      </trkpt>
      <trkpt lat="58.15580396912992" lon="-4.976968998089433">
        <ele>95.310000000000002</ele>
        <time>2023-08-25T11:08:23Z</time>
      </trkpt>
      <trkpt lat="58.155163004994392" lon="-4.97616802342236">
        <ele>90.5</ele>
        <time>2023-08-25T11:08:27Z</time>
      </trkpt>
      <trkpt lat="58.154987990856171" lon="-4.976056041195989">
        <ele>89.540000000000006</ele>
        <time>2023-08-25T11:08:28Z</time>
      </trkpt>
      <trkpt lat="58.154824962839484" lon="-4.975966019555926">
        <ele>89.060000000000002</ele>
        <time>2023-08-25T11:08:29Z</time>
      </trkpt>
      <trkpt lat="58.152869967743754" lon="-4.974963963031769">
        <ele>85.209999999999994</ele>
        <time>2023-08-25T11:08:40Z</time>
      </trkpt>
      <trkpt lat="58.151152012869716" lon="-4.974466999992728">
        <ele>76.560000000000002</ele>
        <time>2023-08-25T11:08:49Z</time>
      </trkpt>
      <trkpt lat="58.149815015494823" lon="-4.973921002820134">
        <ele>72.719999999999999</ele>
        <time>2023-08-25T11:08:57Z</time>
      </trkpt>
      <trkpt lat="58.149508992210031" lon="-4.973755963146687">
        <ele>73.200000000000003</ele>
        <time>2023-08-25T11:08:59Z</time>
      </trkpt>
      <trkpt lat="58.149353004992008" lon="-4.973737020045519">
        <ele>73.200000000000003</ele>
        <time>2023-08-25T11:09:00Z</time>
      </trkpt>
      <trkpt lat="58.149195006117225" lon="-4.97371799312532">
        <ele>73.200000000000003</ele>
        <time>2023-08-25T11:09:01Z</time>
      </trkpt>
      <trkpt lat="58.149031978100538" lon="-4.97369896620512">
        <ele>73.200000000000003</ele>
        <time>2023-08-25T11:09:02Z</time>
      </trkpt>
      <trkpt lat="58.148867022246122" lon="-4.973765015602112">
        <ele>73.680000000000007</ele>
        <time>2023-08-25T11:09:03Z</time>
      </trkpt>
      <trkpt lat="58.148697037249804" lon="-4.973851013928652">
        <ele>73.680000000000007</ele>
        <time>2023-08-25T11:09:04Z</time>
      </trkpt>
      <trkpt lat="58.147030966356397" lon="-4.974818034097552">
        <ele>72.239999999999995</ele>
        <time>2023-08-25T11:09:13Z</time>
      </trkpt>
      <trkpt lat="58.145810980349779" lon="-4.975848002359271">
        <ele>72.239999999999995</ele>
        <time>2023-08-25T11:09:20Z</time>
      </trkpt>
      <trkpt lat="58.145643007010221" lon="-4.975929977372289">
        <ele>72.239999999999995</ele>
        <time>2023-08-25T11:09:21Z</time>
      </trkpt>
      <trkpt lat="58.145452989265323" lon="-4.975968031212688">
        <ele>72.239999999999995</ele>
        <time>2023-08-25T11:09:22Z</time>
      </trkpt>
      <trkpt lat="58.145248973742127" lon="-4.97595302760601">
        <ele>72.719999999999999</ele>
        <time>2023-08-25T11:09:23Z</time>
      </trkpt>
      <trkpt lat="58.145044036209583" lon="-4.975938023999333">
        <ele>72.719999999999999</ele>
        <time>2023-08-25T11:09:24Z</time>
      </trkpt>
      <trkpt lat="58.144646985456347" lon="-4.97591002844274">
        <ele>73.200000000000003</ele>
        <time>2023-08-25T11:09:26Z</time>
      </trkpt>
      <trkpt lat="58.144451016560197" lon="-4.975971970707178">
        <ele>73.200000000000003</ele>
        <time>2023-08-25T11:09:27Z</time>
      </trkpt>
      <trkpt lat="58.144257981330156" lon="-4.976069033145905">
        <ele>73.200000000000003</ele>
        <time>2023-08-25T11:09:28Z</time>
      </trkpt>
      <trkpt lat="58.142682015895844" lon="-4.976660963147879">
        <ele>71.269999999999996</ele>
        <time>2023-08-25T11:09:36Z</time>
      </trkpt>
      <trkpt lat="58.141967039555311" lon="-4.976720977574587">
        <ele>71.269999999999996</ele>
        <time>2023-08-25T11:09:40Z</time>
      </trkpt>
      <trkpt lat="58.141796970739961" lon="-4.976666998118162">
        <ele>71.269999999999996</ele>
        <time>2023-08-25T11:09:41Z</time>
      </trkpt>
      <trkpt lat="58.140588970854878" lon="-4.976109014824033">
        <ele>72.239999999999995</ele>
        <time>2023-08-25T11:09:48Z</time>
      </trkpt>
      <trkpt lat="58.140403982251883" lon="-4.976090993732214">
        <ele>72.239999999999995</ele>
        <time>2023-08-25T11:09:49Z</time>
      </trkpt>
      <trkpt lat="58.140219999477267" lon="-4.976089987903833">
        <ele>72.239999999999995</ele>
        <time>2023-08-25T11:09:50Z</time>
      </trkpt>
      <trkpt lat="58.140030987560749" lon="-4.976139022037387">
        <ele>72.239999999999995</ele>
        <time>2023-08-25T11:09:51Z</time>
      </trkpt>
      <trkpt lat="58.139841975644231" lon="-4.976187972351909">
        <ele>72.719999999999999</ele>
        <time>2023-08-25T11:09:52Z</time>
      </trkpt>
      <trkpt lat="58.13708801753819" lon="-4.97689900919795">
        <ele>74.640000000000001</ele>
        <time>2023-08-25T11:10:06Z</time>
      </trkpt>
      <trkpt lat="58.135326979681849" lon="-4.976977966725826">
        <ele>78</ele>
        <time>2023-08-25T11:10:15Z</time>
      </trkpt>
      <trkpt lat="58.133701980113983" lon="-4.977215006947517">
        <ele>79.450000000000003</ele>
        <time>2023-08-25T11:10:23Z</time>
      </trkpt>
      <trkpt lat="58.13253303989768" lon="-4.977768966928124">
        <ele>79.930000000000007</ele>
        <time>2023-08-25T11:10:29Z</time>
      </trkpt>
      <trkpt lat="58.132347967475653" lon="-4.977751029655337">
        <ele>79.930000000000007</ele>
        <time>2023-08-25T11:10:30Z</time>
      </trkpt>
      <trkpt lat="58.132156021893024" lon="-4.977733008563519">
        <ele>79.930000000000007</ele>
        <time>2023-08-25T11:10:31Z</time>
      </trkpt>
      <trkpt lat="58.129681013524532" lon="-4.976913006976247">
        <ele>86.180000000000007</ele>
        <time>2023-08-25T11:10:43Z</time>
      </trkpt>
      <trkpt lat="58.128348039463162" lon="-4.976496007293463">
        <ele>91.459999999999994</ele>
        <time>2023-08-25T11:10:50Z</time>
      </trkpt>
      <trkpt lat="58.127230983227491" lon="-4.976390982046723">
        <ele>94.829999999999998</ele>
        <time>2023-08-25T11:10:56Z</time>
      </trkpt>
      <trkpt lat="58.127041971310973" lon="-4.976287968456745">
        <ele>95.310000000000002</ele>
        <time>2023-08-25T11:10:57Z</time>
      </trkpt>
      <trkpt lat="58.125663986429572" lon="-4.975774995982647">
        <ele>98.670000000000002</ele>
        <time>2023-08-25T11:11:04Z</time>
      </trkpt>
      <trkpt lat="58.125328961759806" lon="-4.975650021806359">
        <ele>101.56</ele>
        <time>2023-08-25T11:11:06Z</time>
      </trkpt>
      <trkpt lat="58.125163000077009" lon="-4.975538961589336">
        <ele>103</ele>
        <time>2023-08-25T11:11:07Z</time>
      </trkpt>
      <trkpt lat="58.125003995373845" lon="-4.975355984643102">
        <ele>104.44</ele>
        <time>2023-08-25T11:11:08Z</time>
      </trkpt>
      <trkpt lat="58.124849013984203" lon="-4.975130008533597">
        <ele>105.88</ele>
        <time>2023-08-25T11:11:09Z</time>
      </trkpt>
      <trkpt lat="58.124700989574194" lon="-4.974853992462158">
        <ele>106.84</ele>
        <time>2023-08-25T11:11:10Z</time>
      </trkpt>
      <trkpt lat="58.124551037326455" lon="-4.974561966955662">
        <ele>108.29000000000001</ele>
        <time>2023-08-25T11:11:11Z</time>
      </trkpt>
      <trkpt lat="58.123344965279102" lon="-4.972560033202171">
        <ele>114.05</ele>
        <time>2023-08-25T11:11:18Z</time>
      </trkpt>
      <trkpt lat="58.122174013406038" lon="-4.971369970589876">
        <ele>118.38</ele>
        <time>2023-08-25T11:11:24Z</time>
      </trkpt>
      <trkpt lat="58.12063098885119" lon="-4.970159037038684">
        <ele>127.03</ele>
        <time>2023-08-25T11:11:33Z</time>
      </trkpt>
      <trkpt lat="58.119008000940084" lon="-4.969277009367943">
        <ele>134.72</ele>
        <time>2023-08-25T11:11:41Z</time>
      </trkpt>
      <trkpt lat="58.116958038881421" lon="-4.968388024717569">
        <ele>141.44999999999999</ele>
        <time>2023-08-25T11:11:51Z</time>
      </trkpt>
      <trkpt lat="58.115875013172626" lon="-4.96804503723979">
        <ele>140.00999999999999</ele>
        <time>2023-08-25T11:11:57Z</time>
      </trkpt>
      <trkpt lat="58.115742998197675" lon="-4.967942023649812">
        <ele>140.00999999999999</ele>
        <time>2023-08-25T11:11:58Z</time>
      </trkpt>
      <trkpt lat="58.115629004314542" lon="-4.967829035595059">
        <ele>140.00999999999999</ele>
        <time>2023-08-25T11:11:59Z</time>
      </trkpt>
      <trkpt lat="58.115531019866467" lon="-4.967729961499572">
        <ele>140.49000000000001</ele>
        <time>2023-08-25T11:12:00Z</time>
      </trkpt>
      <trkpt lat="58.115452984347939" lon="-4.967644969001412">
        <ele>140.49000000000001</ele>
        <time>2023-08-25T11:12:01Z</time>
      </trkpt>
      <trkpt lat="58.115392969921231" lon="-4.967551007866859">
        <ele>140.00999999999999</ele>
        <time>2023-08-25T11:12:02Z</time>
      </trkpt>
      <trkpt lat="58.115303032100201" lon="-4.967407006770372">
        <ele>140.00999999999999</ele>
        <time>2023-08-25T11:12:04Z</time>
      </trkpt>
      <trkpt lat="58.115276964381337" lon="-4.967366019263864">
        <ele>140.00999999999999</ele>
        <time>2023-08-25T11:12:05Z</time>
      </trkpt>
      <trkpt lat="58.115258021280169" lon="-4.96733701787889">
        <ele>139.53</ele>
        <time>2023-08-25T11:12:06Z</time>
      </trkpt>
      <trkpt lat="58.115243017673492" lon="-4.967312961816788">
        <ele>139.53</ele>
        <time>2023-08-25T11:12:07Z</time>
      </trkpt>
      <trkpt lat="58.115233965218067" lon="-4.967298964038491">
        <ele>140.00999999999999</ele>
        <time>2023-08-25T11:12:08Z</time>
      </trkpt>
      <trkpt lat="58.115322981029749" lon="-4.967102995142341">
        <ele>140.00999999999999</ele>
        <time>2023-08-25T11:12:09Z</time>
      </trkpt>
      <trkpt lat="58.115368997678161" lon="-4.966982966288924">
        <ele>140.97</ele>
        <time>2023-08-25T11:12:11Z</time>
      </trkpt>
      <trkpt lat="58.115506963804364" lon="-4.966723965480924">
        <ele>142.88999999999999</ele>
        <time>2023-08-25T11:12:20Z</time>
      </trkpt>
      <trkpt lat="58.115502018481493" lon="-4.966722037643194">
        <ele>143.84999999999999</ele>
        <time>2023-08-25T11:12:53Z</time>
      </trkpt>
      <trkpt lat="58.115511992946267" lon="-4.966786997392774">
        <ele>143.84999999999999</ele>
        <time>2023-08-25T11:12:58Z</time>
      </trkpt>
      <trkpt lat="58.115478968247771" lon="-4.966901997104287">
        <ele>143.37</ele>
        <time>2023-08-25T11:13:02Z</time>
      </trkpt>
      <trkpt lat="58.115210998803377" lon="-4.967261999845505">
        <ele>138.56999999999999</ele>
        <time>2023-08-25T11:13:14Z</time>
      </trkpt>
      <trkpt lat="58.115160958841443" lon="-4.967183964326978">
        <ele>138.56999999999999</ele>
        <time>2023-08-25T11:13:15Z</time>
      </trkpt>
      <trkpt lat="58.115094993263483" lon="-4.967080028727651">
        <ele>138.09</ele>
        <time>2023-08-25T11:13:16Z</time>
      </trkpt>
      <trkpt lat="58.115015029907227" lon="-4.96695295907557">
        <ele>138.09</ele>
        <time>2023-08-25T11:13:17Z</time>
      </trkpt>
      <trkpt lat="58.114920984953642" lon="-4.966805018484592">
        <ele>138.09</ele>
        <time>2023-08-25T11:13:18Z</time>
      </trkpt>
      <trkpt lat="58.11444103717804" lon="-4.966144021600485">
        <ele>138.09</ele>
        <time>2023-08-25T11:13:22Z</time>
      </trkpt>
      <trkpt lat="58.114285971969366" lon="-4.965971019119024">
        <ele>138.09</ele>
        <time>2023-08-25T11:13:23Z</time>
      </trkpt>
      <trkpt lat="58.114126967266202" lon="-4.965880997478962">
        <ele>137.61000000000001</ele>
        <time>2023-08-25T11:13:24Z</time>
      </trkpt>
      <trkpt lat="58.113942984491587" lon="-4.965776978060603">
        <ele>138.09</ele>
        <time>2023-08-25T11:13:25Z</time>
      </trkpt>
      <trkpt lat="58.113749027252197" lon="-4.965741019695997">
        <ele>138.09</ele>
        <time>2023-08-25T11:13:26Z</time>
      </trkpt>
      <trkpt lat="58.112038029357791" lon="-4.965637000277638">
        <ele>141.44999999999999</ele>
        <time>2023-08-25T11:13:34Z</time>
      </trkpt>
      <trkpt lat="58.109371997416019" lon="-4.966313000768423">
        <ele>150.09999999999999</ele>
        <time>2023-08-25T11:13:46Z</time>
      </trkpt>
      <trkpt lat="58.107299990952015" lon="-4.966952037066221">
        <ele>155.38999999999999</ele>
        <time>2023-08-25T11:13:55Z</time>
      </trkpt>
      <trkpt lat="58.106597000733018" lon="-4.967096960172057">
        <ele>156.83000000000001</ele>
        <time>2023-08-25T11:13:58Z</time>
      </trkpt>
      <trkpt lat="58.106367001309991" lon="-4.967217994853854">
        <ele>156.83000000000001</ele>
        <time>2023-08-25T11:13:59Z</time>
      </trkpt>
      <trkpt lat="58.103779004886746" lon="-4.968507969751954">
        <ele>163.08000000000001</ele>
        <time>2023-08-25T11:14:10Z</time>
      </trkpt>
      <trkpt lat="58.101374991238117" lon="-4.969690991565585">
        <ele>165</ele>
        <time>2023-08-25T11:14:20Z</time>
      </trkpt>
      <trkpt lat="58.099845964461565" lon="-4.970475034788251">
        <ele>165.47999999999999</ele>
        <time>2023-08-25T11:14:27Z</time>
      </trkpt>
      <trkpt lat="58.097290992736816" lon="-4.971153968945146">
        <ele>164.03999999999999</ele>
        <time>2023-08-25T11:14:38Z</time>
      </trkpt>
      <trkpt lat="58.096173014491796" lon="-4.97129000723362">
        <ele>164.03999999999999</ele>
        <time>2023-08-25T11:14:43Z</time>
      </trkpt>
      <trkpt lat="58.095973022282124" lon="-4.971321020275354">
        <ele>164.03999999999999</ele>
        <time>2023-08-25T11:14:44Z</time>
      </trkpt>
      <trkpt lat="58.095783004537225" lon="-4.971468038856983">
        <ele>163.56</ele>
        <time>2023-08-25T11:14:45Z</time>
      </trkpt>
      <trkpt lat="58.095588041469455" lon="-4.971620002761483">
        <ele>163.56</ele>
        <time>2023-08-25T11:14:46Z</time>
      </trkpt>
      <trkpt lat="58.09538796544075" lon="-4.971774984151125">
        <ele>163.56</ele>
        <time>2023-08-25T11:14:47Z</time>
      </trkpt>
      <trkpt lat="58.093744022771716" lon="-4.97281601652503">
        <ele>164.03999999999999</ele>
        <time>2023-08-25T11:14:55Z</time>
      </trkpt>
      <trkpt lat="58.093533972278237" lon="-4.972826996818185">
        <ele>164.03999999999999</ele>
        <time>2023-08-25T11:14:56Z</time>
      </trkpt>
      <trkpt lat="58.091060975566506" lon="-4.972754996269941">
        <ele>166.93000000000001</ele>
        <time>2023-08-25T11:15:07Z</time>
      </trkpt>
      <trkpt lat="58.089261967688799" lon="-4.972963035106659">
        <ele>166.44999999999999</ele>
        <time>2023-08-25T11:15:15Z</time>
      </trkpt>
      <trkpt lat="58.0863849632442" lon="-4.972176980227232">
        <ele>159.24000000000001</ele>
        <time>2023-08-25T11:15:27Z</time>
      </trkpt>
      <trkpt lat="58.083555987104774" lon="-4.97120501473546">
        <ele>154.43000000000001</ele>
        <time>2023-08-25T11:15:39Z</time>
      </trkpt>
      <trkpt lat="58.082715030759573" lon="-4.970956994220614">
        <ele>153.47</ele>
        <time>2023-08-25T11:15:43Z</time>
      </trkpt>
      <trkpt lat="58.0825150385499" lon="-4.970977026969194">
        <ele>152.99000000000001</ele>
        <time>2023-08-25T11:15:44Z</time>
      </trkpt>
      <trkpt lat="58.082315968349576" lon="-4.971016002818942">
        <ele>152.50999999999999</ele>
        <time>2023-08-25T11:15:45Z</time>
      </trkpt>
      <trkpt lat="58.082119999453425" lon="-4.971134020015597">
        <ele>152.50999999999999</ele>
        <time>2023-08-25T11:15:46Z</time>
      </trkpt>
      <trkpt lat="58.081921013072133" lon="-4.971252959221602">
        <ele>152.03</ele>
        <time>2023-08-25T11:15:47Z</time>
      </trkpt>
      <trkpt lat="58.080317974090576" lon="-4.972659023478627">
        <ele>151.53999999999999</ele>
        <time>2023-08-25T11:15:55Z</time>
      </trkpt>
      <trkpt lat="58.078828006982803" lon="-4.973758980631828">
        <ele>150.58000000000001</ele>
        <time>2023-08-25T11:16:02Z</time>
      </trkpt>
      <trkpt lat="58.076245039701462" lon="-4.975832998752594">
        <ele>149.13999999999999</ele>
        <time>2023-08-25T11:16:14Z</time>
      </trkpt>
      <trkpt lat="58.07516603730619" lon="-4.977140994742513">
        <ele>149.13999999999999</ele>
        <time>2023-08-25T11:16:20Z</time>
      </trkpt>
      <trkpt lat="58.073918977752328" lon="-4.978550998494029">
        <ele>147.69999999999999</ele>
        <time>2023-08-25T11:16:27Z</time>
      </trkpt>
      <trkpt lat="58.072980036959052" lon="-4.979224987328053">
        <ele>147.69999999999999</ele>
        <time>2023-08-25T11:16:32Z</time>
      </trkpt>
      <trkpt lat="58.072785995900631" lon="-4.97930696234107">
        <ele>147.69999999999999</ele>
        <time>2023-08-25T11:16:33Z</time>
      </trkpt>
      <trkpt lat="58.072593966498971" lon="-4.979344010353088">
        <ele>147.22</ele>
        <time>2023-08-25T11:16:34Z</time>
      </trkpt>
      <trkpt lat="58.072403026744723" lon="-4.979293970391154">
        <ele>147.22</ele>
        <time>2023-08-25T11:16:35Z</time>
      </trkpt>
      <trkpt lat="58.072217032313347" lon="-4.979246025905013">
        <ele>146.74000000000001</ele>
        <time>2023-08-25T11:16:36Z</time>
      </trkpt>
      <trkpt lat="58.072034977376461" lon="-4.979168996214867">
        <ele>146.25999999999999</ele>
        <time>2023-08-25T11:16:37Z</time>
      </trkpt>
      <trkpt lat="58.071865998208523" lon="-4.979009991511703">
        <ele>145.78</ele>
        <time>2023-08-25T11:16:38Z</time>
      </trkpt>
      <trkpt lat="58.071696013212204" lon="-4.978840006515384">
        <ele>145.78</ele>
        <time>2023-08-25T11:16:39Z</time>
      </trkpt>
      <trkpt lat="58.071545977145433" lon="-4.978619981557131">
        <ele>145.78</ele>
        <time>2023-08-25T11:16:40Z</time>
      </trkpt>
      <trkpt lat="58.071392001584172" lon="-4.978395011276007">
        <ele>145.78</ele>
        <time>2023-08-25T11:16:41Z</time>
      </trkpt>
      <trkpt lat="58.071254035457969" lon="-4.97812301851809">
        <ele>145.78</ele>
        <time>2023-08-25T11:16:42Z</time>
      </trkpt>
      <trkpt lat="58.069745041429996" lon="-4.975273003801704">
        <ele>146.74000000000001</ele>
        <time>2023-08-25T11:16:53Z</time>
      </trkpt>
      <trkpt lat="58.068483984097838" lon="-4.973812960088253">
        <ele>146.74000000000001</ele>
        <time>2023-08-25T11:17:01Z</time>
      </trkpt>
      <trkpt lat="58.067242037504911" lon="-4.972541006281972">
        <ele>146.25999999999999</ele>
        <time>2023-08-25T11:17:10Z</time>
      </trkpt>
      <trkpt lat="58.06672696955502" lon="-4.972052006050944">
        <ele>145.78</ele>
        <time>2023-08-25T11:17:16Z</time>
      </trkpt>
      <trkpt lat="58.066686987876892" lon="-4.972014036029577">
        <ele>145.78</ele>
        <time>2023-08-25T11:17:17Z</time>
      </trkpt>
      <trkpt lat="58.06661699898541" lon="-4.972131969407201">
        <ele>145.30000000000001</ele>
        <time>2023-08-25T11:17:18Z</time>
      </trkpt>
      <trkpt lat="58.066593026742339" lon="-4.972243029624224">
        <ele>145.30000000000001</ele>
        <time>2023-08-25T11:17:19Z</time>
      </trkpt>
      <trkpt lat="58.066563019528985" lon="-4.972380995750427">
        <ele>145.30000000000001</ele>
        <time>2023-08-25T11:17:20Z</time>
      </trkpt>
      <trkpt lat="58.066527983173728" lon="-4.972542012110353">
        <ele>145.30000000000001</ele>
        <time>2023-08-25T11:17:21Z</time>
      </trkpt>
      <trkpt lat="58.066318016499281" lon="-4.973927959799767">
        <ele>144.81999999999999</ele>
        <time>2023-08-25T11:17:27Z</time>
      </trkpt>
      <trkpt lat="58.066192958503962" lon="-4.97616701759398">
        <ele>140.97</ele>
        <time>2023-08-25T11:17:33Z</time>
      </trkpt>
      <trkpt lat="58.066153982654214" lon="-4.979426991194487">
        <ele>133.75999999999999</ele>
        <time>2023-08-25T11:17:41Z</time>
      </trkpt>
      <trkpt lat="58.066152976825833" lon="-4.979793028905988">
        <ele>133.28</ele>
        <time>2023-08-25T11:17:42Z</time>
      </trkpt>
      <trkpt lat="58.066126992926002" lon="-4.980130987241864">
        <ele>132.31999999999999</ele>
        <time>2023-08-25T11:17:43Z</time>
      </trkpt>
      <trkpt lat="58.06608097627759" lon="-4.98044203966856">
        <ele>131.84</ele>
        <time>2023-08-25T11:17:44Z</time>
      </trkpt>
      <trkpt lat="58.066005958244205" lon="-4.980725012719631">
        <ele>131.36000000000001</ele>
        <time>2023-08-25T11:17:45Z</time>
      </trkpt>
      <trkpt lat="58.065900010988116" lon="-4.980995999649167">
        <ele>131.84</ele>
        <time>2023-08-25T11:17:46Z</time>
      </trkpt>
      <trkpt lat="58.065776964649558" lon="-4.981271009892225">
        <ele>131.84</ele>
        <time>2023-08-25T11:17:47Z</time>
      </trkpt>
      <trkpt lat="58.065633969381452" lon="-4.981538979336619">
        <ele>132.31999999999999</ele>
        <time>2023-08-25T11:17:48Z</time>
      </trkpt>
      <trkpt lat="58.064136961475015" lon="-4.984448002651334">
        <ele>136.16</ele>
        <time>2023-08-25T11:17:58Z</time>
      </trkpt>
      <trkpt lat="58.063940992578864" lon="-4.985044961795211">
        <ele>137.13</ele>
        <time>2023-08-25T11:18:00Z</time>
      </trkpt>
      <trkpt lat="58.063863040879369" lon="-4.985359031707048">
        <ele>138.09</ele>
        <time>2023-08-25T11:18:01Z</time>
      </trkpt>
      <trkpt lat="58.063811995089054" lon="-4.985694978386164">
        <ele>138.09</ele>
        <time>2023-08-25T11:18:02Z</time>
      </trkpt>
      <trkpt lat="58.063772013410926" lon="-4.986039977520704">
        <ele>138.56999999999999</ele>
        <time>2023-08-25T11:18:03Z</time>
      </trkpt>
      <trkpt lat="58.063752986490726" lon="-4.986406015232205">
        <ele>138.56999999999999</ele>
        <time>2023-08-25T11:18:04Z</time>
      </trkpt>
      <trkpt lat="58.063752986490726" lon="-4.986785966902971">
        <ele>139.05000000000001</ele>
        <time>2023-08-25T11:18:05Z</time>
      </trkpt>
      <trkpt lat="58.063752986490726" lon="-4.987175976857543">
        <ele>139.05000000000001</ele>
        <time>2023-08-25T11:18:06Z</time>
      </trkpt>
      <trkpt lat="58.063863962888718" lon="-4.992455989122391">
        <ele>135.19999999999999</ele>
        <time>2023-08-25T11:18:19Z</time>
      </trkpt>
      <trkpt lat="58.063825992867351" lon="-4.992850022390485">
        <ele>134.24000000000001</ele>
        <time>2023-08-25T11:18:20Z</time>
      </trkpt>
      <trkpt lat="58.063768995925784" lon="-4.993231985718012">
        <ele>133.75999999999999</ele>
        <time>2023-08-25T11:18:21Z</time>
      </trkpt>
      <trkpt lat="58.063698001205921" lon="-4.993607997894287">
        <ele>133.28</ele>
        <time>2023-08-25T11:18:22Z</time>
      </trkpt>
      <trkpt lat="58.063604962080717" lon="-4.993965988978744">
        <ele>132.80000000000001</ele>
        <time>2023-08-25T11:18:23Z</time>
      </trkpt>
      <trkpt lat="58.063512006774545" lon="-4.9943239800632">
        <ele>132.80000000000001</ele>
        <time>2023-08-25T11:18:24Z</time>
      </trkpt>
      <trkpt lat="58.063101964071393" lon="-4.9968590028584">
        <ele>135.19999999999999</ele>
        <time>2023-08-25T11:18:31Z</time>
      </trkpt>
      <trkpt lat="58.062598966062069" lon="-5.001790998503566">
        <ele>132.80000000000001</ele>
        <time>2023-08-25T11:18:43Z</time>
      </trkpt>
      <trkpt lat="58.06251397356391" lon="-5.002151001244783">
        <ele>132.31999999999999</ele>
        <time>2023-08-25T11:18:44Z</time>
      </trkpt>
      <trkpt lat="58.062425041571259" lon="-5.002507986500859">
        <ele>132.31999999999999</ele>
        <time>2023-08-25T11:18:45Z</time>
      </trkpt>
      <trkpt lat="58.061883989721537" lon="-5.004170034080744">
        <ele>131.36000000000001</ele>
        <time>2023-08-25T11:18:50Z</time>
      </trkpt>
      <trkpt lat="58.061795979738235" lon="-5.004512015730143">
        <ele>131.36000000000001</ele>
        <time>2023-08-25T11:18:51Z</time>
      </trkpt>
      <trkpt lat="58.061749041080475" lon="-5.004909988492727">
        <ele>130.88</ele>
        <time>2023-08-25T11:18:52Z</time>
      </trkpt>
      <trkpt lat="58.061735965311527" lon="-5.0052809715271">
        <ele>131.36000000000001</ele>
        <time>2023-08-25T11:18:53Z</time>
      </trkpt>
      <trkpt lat="58.061772007495165" lon="-5.005681039765477">
        <ele>131.36000000000001</ele>
        <time>2023-08-25T11:18:54Z</time>
      </trkpt>
      <trkpt lat="58.06180696003139" lon="-5.006070965901017">
        <ele>131.84</ele>
        <time>2023-08-25T11:18:55Z</time>
      </trkpt>
      <trkpt lat="58.061844008043408" lon="-5.00648302026093">
        <ele>131.84</ele>
        <time>2023-08-25T11:18:56Z</time>
      </trkpt>
      <trkpt lat="58.061913996934891" lon="-5.006843023002148">
        <ele>132.31999999999999</ele>
        <time>2023-08-25T11:18:57Z</time>
      </trkpt>
      <trkpt lat="58.062398973852396" lon="-5.009653978049755">
        <ele>133.28</ele>
        <time>2023-08-25T11:19:04Z</time>
      </trkpt>
      <trkpt lat="58.062868025153875" lon="-5.013686008751392">
        <ele>134.72</ele>
        <time>2023-08-25T11:19:14Z</time>
      </trkpt>
      <trkpt lat="58.06285796687007" lon="-5.014041988179088">
        <ele>135.19999999999999</ele>
        <time>2023-08-25T11:19:15Z</time>
      </trkpt>
      <trkpt lat="58.062519002705812" lon="-5.016542980447412">
        <ele>138.09</ele>
        <time>2023-08-25T11:19:22Z</time>
      </trkpt>
      <trkpt lat="58.061913996934891" lon="-5.019791973754764">
        <ele>143.37</ele>
        <time>2023-08-25T11:19:31Z</time>
      </trkpt>
      <trkpt lat="58.061882983893156" lon="-5.020125992596149">
        <ele>143.84999999999999</ele>
        <time>2023-08-25T11:19:32Z</time>
      </trkpt>
      <trkpt lat="58.061658013612032" lon="-5.022539980709553">
        <ele>144.81999999999999</ele>
        <time>2023-08-25T11:19:39Z</time>
      </trkpt>
      <trkpt lat="58.06159095838666" lon="-5.022871987894177">
        <ele>144.81999999999999</ele>
        <time>2023-08-25T11:19:40Z</time>
      </trkpt>
      <trkpt lat="58.061519041657448" lon="-5.023197960108519">
        <ele>145.30000000000001</ele>
        <time>2023-08-25T11:19:41Z</time>
      </trkpt>
      <trkpt lat="58.060980001464486" lon="-5.025114985182881">
        <ele>144.34</ele>
        <time>2023-08-25T11:19:48Z</time>
      </trkpt>
      <trkpt lat="58.060135021805763" lon="-5.027742041274905">
        <ele>141.44999999999999</ele>
        <time>2023-08-25T11:19:59Z</time>
      </trkpt>
      <trkpt lat="58.060048017650843" lon="-5.027956031262875">
        <ele>141.44999999999999</ele>
        <time>2023-08-25T11:20:00Z</time>
      </trkpt>
      <trkpt lat="58.059951961040497" lon="-5.028159040957689">
        <ele>141.44999999999999</ele>
        <time>2023-08-25T11:20:01Z</time>
      </trkpt>
      <trkpt lat="58.059837967157364" lon="-5.028320979326963">
        <ele>141.44999999999999</ele>
        <time>2023-08-25T11:20:02Z</time>
      </trkpt>
      <trkpt lat="58.059718022122979" lon="-5.028475038707256">
        <ele>141.44999999999999</ele>
        <time>2023-08-25T11:20:03Z</time>
      </trkpt>
      <trkpt lat="58.059591958299279" lon="-5.028618033975363">
        <ele>141.44999999999999</ele>
        <time>2023-08-25T11:20:04Z</time>
      </trkpt>
      <trkpt lat="58.059458015486598" lon="-5.028728004544973">
        <ele>141.44999999999999</ele>
        <time>2023-08-25T11:20:05Z</time>
      </trkpt>
      <trkpt lat="58.058906989172101" lon="-5.029121031984687">
        <ele>141.44999999999999</ele>
        <time>2023-08-25T11:20:09Z</time>
      </trkpt>
      <trkpt lat="58.058762988075614" lon="-5.02917199395597">
        <ele>141.44999999999999</ele>
        <time>2023-08-25T11:20:10Z</time>
      </trkpt>
      <trkpt lat="58.056839006021619" lon="-5.029439041391015">
        <ele>141.44999999999999</ele>
        <time>2023-08-25T11:20:23Z</time>
      </trkpt>
      <trkpt lat="58.05495098233223" lon="-5.029970034956932">
        <ele>143.84999999999999</ele>
        <time>2023-08-25T11:20:36Z</time>
      </trkpt>
      <trkpt lat="58.052908983081579" lon="-5.030672019347549">
        <ele>147.69999999999999</ele>
        <time>2023-08-25T11:20:50Z</time>
      </trkpt>
      <trkpt lat="58.052766993641853" lon="-5.030707977712154">
        <ele>147.69999999999999</ele>
        <time>2023-08-25T11:20:51Z</time>
      </trkpt>
      <trkpt lat="58.052637996152043" lon="-5.030836975201964">
        <ele>147.69999999999999</ele>
        <time>2023-08-25T11:20:52Z</time>
      </trkpt>
      <trkpt lat="58.052514027804136" lon="-5.0309750251472">
        <ele>147.69999999999999</ele>
        <time>2023-08-25T11:20:53Z</time>
      </trkpt>
      <trkpt lat="58.052407996729016" lon="-5.031167976558209">
        <ele>147.22</ele>
        <time>2023-08-25T11:20:54Z</time>
      </trkpt>
      <trkpt lat="58.052300959825516" lon="-5.03136302344501">
        <ele>147.22</ele>
        <time>2023-08-25T11:20:55Z</time>
      </trkpt>
      <trkpt lat="58.051774995401502" lon="-5.032320991158485">
        <ele>147.69999999999999</ele>
        <time>2023-08-25T11:21:00Z</time>
      </trkpt>
      <trkpt lat="58.051669970154762" lon="-5.032487036660314">
        <ele>148.18000000000001</ele>
        <time>2023-08-25T11:21:01Z</time>
      </trkpt>
      <trkpt lat="58.051543990150094" lon="-5.03258602693677">
        <ele>149.13999999999999</ele>
        <time>2023-08-25T11:21:02Z</time>
      </trkpt>
      <trkpt lat="58.051413986831903" lon="-5.032688034698367">
        <ele>150.09999999999999</ele>
        <time>2023-08-25T11:21:03Z</time>
      </trkpt>
      <trkpt lat="58.051269985735416" lon="-5.032712006941438">
        <ele>151.06</ele>
        <time>2023-08-25T11:21:04Z</time>
      </trkpt>
      <trkpt lat="58.051125984638929" lon="-5.032721981406212">
        <ele>152.50999999999999</ele>
        <time>2023-08-25T11:21:05Z</time>
      </trkpt>
      <trkpt lat="58.050981983542442" lon="-5.032684011384845">
        <ele>153.47</ele>
        <time>2023-08-25T11:21:06Z</time>
      </trkpt>
      <trkpt lat="58.050835970789194" lon="-5.032617039978504">
        <ele>154.43000000000001</ele>
        <time>2023-08-25T11:21:07Z</time>
      </trkpt>
      <trkpt lat="58.05069699883461" lon="-5.032506985589862">
        <ele>155.38999999999999</ele>
        <time>2023-08-25T11:21:08Z</time>
      </trkpt>
      <trkpt lat="58.050570013001561" lon="-5.032388968393207">
        <ele>156.83000000000001</ele>
        <time>2023-08-25T11:21:09Z</time>
      </trkpt>
      <trkpt lat="58.050471022725105" lon="-5.032296013087034">
        <ele>157.78999999999999</ele>
        <time>2023-08-25T11:21:10Z</time>
      </trkpt>
      <trkpt lat="58.050386030226946" lon="-5.0320940092206">
        <ele>159.24000000000001</ele>
        <time>2023-08-25T11:21:11Z</time>
      </trkpt>
      <trkpt lat="58.050319980829954" lon="-5.031936010345817">
        <ele>160.19999999999999</ele>
        <time>2023-08-25T11:21:12Z</time>
      </trkpt>
      <trkpt lat="58.050258960574865" lon="-5.031791003420949">
        <ele>161.16</ele>
        <time>2023-08-25T11:21:13Z</time>
      </trkpt>
      <trkpt lat="58.049766020849347" lon="-5.030616028234363">
        <ele>164.03999999999999</ele>
        <time>2023-08-25T11:21:20Z</time>
      </trkpt>
      <trkpt lat="58.049654960632324" lon="-5.03046004101634">
        <ele>164.03999999999999</ele>
        <time>2023-08-25T11:21:21Z</time>
      </trkpt>
      <trkpt lat="58.049540966749191" lon="-5.03033003769815">
        <ele>164.03999999999999</ele>
        <time>2023-08-25T11:21:22Z</time>
      </trkpt>
      <trkpt lat="58.049422027543187" lon="-5.030205985531211">
        <ele>164.03999999999999</ele>
        <time>2023-08-25T11:21:23Z</time>
      </trkpt>
      <trkpt lat="58.049295963719487" lon="-5.030142031610012">
        <ele>164.52000000000001</ele>
        <time>2023-08-25T11:21:24Z</time>
      </trkpt>
      <trkpt lat="58.049178030341864" lon="-5.030114036053419">
        <ele>164.52000000000001</ele>
        <time>2023-08-25T11:21:25Z</time>
      </trkpt>
      <trkpt lat="58.049059007316828" lon="-5.030129961669445">
        <ele>164.52000000000001</ele>
        <time>2023-08-25T11:21:26Z</time>
      </trkpt>
      <trkpt lat="58.048938978463411" lon="-5.030146976932883">
        <ele>165</ele>
        <time>2023-08-25T11:21:27Z</time>
      </trkpt>
      <trkpt lat="58.048819033429027" lon="-5.030162986367941">
        <ele>165</ele>
        <time>2023-08-25T11:21:28Z</time>
      </trkpt>
      <trkpt lat="58.048702022060752" lon="-5.03022400662303">
        <ele>165.47999999999999</ele>
        <time>2023-08-25T11:21:29Z</time>
      </trkpt>
      <trkpt lat="58.04859003983438" lon="-5.030335988849402">
        <ele>165.47999999999999</ele>
        <time>2023-08-25T11:21:30Z</time>
      </trkpt>
      <trkpt lat="58.048475040122867" lon="-5.030450988560915">
        <ele>165.96000000000001</ele>
        <time>2023-08-25T11:21:31Z</time>
      </trkpt>
      <trkpt lat="58.048375966027379" lon="-5.030617034062743">
        <ele>166.44999999999999</ele>
        <time>2023-08-25T11:21:32Z</time>
      </trkpt>
      <trkpt lat="58.048285022377968" lon="-5.030818032100797">
        <ele>166.44999999999999</ele>
        <time>2023-08-25T11:21:33Z</time>
      </trkpt>
      <trkpt lat="58.048198018223047" lon="-5.031029004603624">
        <ele>166.93000000000001</ele>
        <time>2023-08-25T11:21:34Z</time>
      </trkpt>
      <trkpt lat="58.048120988532901" lon="-5.031269984319806">
        <ele>166.93000000000001</ele>
        <time>2023-08-25T11:21:35Z</time>
      </trkpt>
      <trkpt lat="58.048041025176644" lon="-5.031518004834652">
        <ele>166.93000000000001</ele>
        <time>2023-08-25T11:21:36Z</time>
      </trkpt>
      <trkpt lat="58.047062018886209" lon="-5.03454202786088">
        <ele>170.28999999999999</ele>
        <time>2023-08-25T11:21:47Z</time>
      </trkpt>
      <trkpt lat="58.046922963112593" lon="-5.034756017848849">
        <ele>170.28999999999999</ele>
        <time>2023-08-25T11:21:48Z</time>
      </trkpt>
      <trkpt lat="58.045847984030843" lon="-5.036658039316535">
        <ele>171.72999999999999</ele>
        <time>2023-08-25T11:21:57Z</time>
      </trkpt>
      <trkpt lat="58.045829040929675" lon="-5.036855014041066">
        <ele>172.21000000000001</ele>
        <time>2023-08-25T11:21:58Z</time>
      </trkpt>
      <trkpt lat="58.045810014009476" lon="-5.037043020129204">
        <ele>172.21000000000001</ele>
        <time>2023-08-25T11:21:59Z</time>
      </trkpt>
      <trkpt lat="58.045795010402799" lon="-5.037218034267426">
        <ele>172.21000000000001</ele>
        <time>2023-08-25T11:22:00Z</time>
      </trkpt>
      <trkpt lat="58.045827029272914" lon="-5.037398999556899">
        <ele>172.21000000000001</ele>
        <time>2023-08-25T11:22:01Z</time>
      </trkpt>
      <trkpt lat="58.045860975980759" lon="-5.03759304061532">
        <ele>172.21000000000001</ele>
        <time>2023-08-25T11:22:02Z</time>
      </trkpt>
      <trkpt lat="58.045898023992777" lon="-5.037802001461387">
        <ele>172.21000000000001</ele>
        <time>2023-08-25T11:22:03Z</time>
      </trkpt>
      <trkpt lat="58.045947980135679" lon="-5.038012973964214">
        <ele>172.69</ele>
        <time>2023-08-25T11:22:04Z</time>
      </trkpt>
      <trkpt lat="58.046020986512303" lon="-5.038224030286074">
        <ele>173.16999999999999</ele>
        <time>2023-08-25T11:22:05Z</time>
      </trkpt>
      <trkpt lat="58.046317035332322" lon="-5.039175963029265">
        <ele>174.62</ele>
        <time>2023-08-25T11:22:09Z</time>
      </trkpt>
      <trkpt lat="58.046361962333322" lon="-5.039460025727749">
        <ele>174.62</ele>
        <time>2023-08-25T11:22:10Z</time>
      </trkpt>
      <trkpt lat="58.046391969546676" lon="-5.039747022092342">
        <ele>175.09999999999999</ele>
        <time>2023-08-25T11:22:11Z</time>
      </trkpt>
      <trkpt lat="58.046386018395424" lon="-5.040066037327051">
        <ele>175.09999999999999</ele>
        <time>2023-08-25T11:22:12Z</time>
      </trkpt>
      <trkpt lat="58.04637998342514" lon="-5.040393015369773">
        <ele>175.58000000000001</ele>
        <time>2023-08-25T11:22:13Z</time>
      </trkpt>
      <trkpt lat="58.046373026445508" lon="-5.040751006454229">
        <ele>175.58000000000001</ele>
        <time>2023-08-25T11:22:14Z</time>
      </trkpt>
      <trkpt lat="58.046332038938999" lon="-5.041046971455216">
        <ele>176.06</ele>
        <time>2023-08-25T11:22:15Z</time>
      </trkpt>
      <trkpt lat="58.045875979587436" lon="-5.044155986979604">
        <ele>180.87</ele>
        <time>2023-08-25T11:22:24Z</time>
      </trkpt>
      <trkpt lat="58.045278014615178" lon="-5.048301005735993">
        <ele>196.72999999999999</ele>
        <time>2023-08-25T11:22:36Z</time>
      </trkpt>
      <trkpt lat="58.044405961409211" lon="-5.051084971055389">
        <ele>213.55000000000001</ele>
        <time>2023-08-25T11:22:45Z</time>
      </trkpt>
      <trkpt lat="58.042756989598274" lon="-5.055503994226456">
        <ele>235.66</ele>
        <time>2023-08-25T11:23:00Z</time>
      </trkpt>
      <trkpt lat="58.041209019720554" lon="-5.05895096808672">
        <ele>246.22999999999999</ele>
        <time>2023-08-25T11:23:11Z</time>
      </trkpt>
      <trkpt lat="58.039471032097936" lon="-5.062789041548967">
        <ele>255.37</ele>
        <time>2023-08-25T11:23:23Z</time>
      </trkpt>
      <trkpt lat="58.039106000214815" lon="-5.063728988170624">
        <ele>256.81</ele>
        <time>2023-08-25T11:23:26Z</time>
      </trkpt>
      <trkpt lat="58.038954958319664" lon="-5.064011039212346">
        <ele>256.32999999999998</ele>
        <time>2023-08-25T11:23:27Z</time>
      </trkpt>
      <trkpt lat="58.037446970120072" lon="-5.067214015871286">
        <ele>251.52000000000001</ele>
        <time>2023-08-25T11:23:37Z</time>
      </trkpt>
      <trkpt lat="58.036424964666367" lon="-5.06954301148653">
        <ele>244.31</ele>
        <time>2023-08-25T11:23:45Z</time>
      </trkpt>
      <trkpt lat="58.035172037780285" lon="-5.070996014401317">
        <ele>237.58000000000001</ele>
        <time>2023-08-25T11:23:52Z</time>
      </trkpt>
      <trkpt lat="58.032948989421129" lon="-5.072610033676028">
        <ele>235.18000000000001</ele>
        <time>2023-08-25T11:24:03Z</time>
      </trkpt>
      <trkpt lat="58.031241009011865" lon="-5.073566995561123">
        <ele>236.13999999999999</ele>
        <time>2023-08-25T11:24:11Z</time>
      </trkpt>
      <trkpt lat="58.031018972396851" lon="-5.073579987511039">
        <ele>236.13999999999999</ele>
        <time>2023-08-25T11:24:12Z</time>
      </trkpt>
      <trkpt lat="58.030792996287346" lon="-5.073592979460955">
        <ele>236.62</ele>
        <time>2023-08-25T11:24:13Z</time>
      </trkpt>
      <trkpt lat="58.028833977878094" lon="-5.073140021413565">
        <ele>239.02000000000001</ele>
        <time>2023-08-25T11:24:22Z</time>
      </trkpt>
      <trkpt lat="58.028637003153563" lon="-5.073089981451631">
        <ele>239.50999999999999</ele>
        <time>2023-08-25T11:24:23Z</time>
      </trkpt>
      <trkpt lat="58.028426030650735" lon="-5.073127029463649">
        <ele>239.50999999999999</ele>
        <time>2023-08-25T11:24:24Z</time>
      </trkpt>
      <trkpt lat="58.028195025399327" lon="-5.073173968121409">
        <ele>239.99000000000001</ele>
        <time>2023-08-25T11:24:25Z</time>
      </trkpt>
      <trkpt lat="58.026613024994731" lon="-5.073892967775464">
        <ele>245.75</ele>
        <time>2023-08-25T11:24:31Z</time>
      </trkpt>
      <trkpt lat="58.024008013308048" lon="-5.075246980413795">
        <ele>261.62</ele>
        <time>2023-08-25T11:24:42Z</time>
      </trkpt>
      <trkpt lat="58.020992958918214" lon="-5.076812971383333">
        <ele>247.68000000000001</ele>
        <time>2023-08-25T11:24:54Z</time>
      </trkpt>
      <trkpt lat="58.017255971208215" lon="-5.078637041151524">
        <ele>239.02000000000001</ele>
        <time>2023-08-25T11:25:10Z</time>
      </trkpt>
      <trkpt lat="58.016046965494752" lon="-5.079135010018945">
        <ele>237.09999999999999</ele>
        <time>2023-08-25T11:25:15Z</time>
      </trkpt>
      <trkpt lat="58.015817971900105" lon="-5.079286973923445">
        <ele>236.62</ele>
        <time>2023-08-25T11:25:16Z</time>
      </trkpt>
      <trkpt lat="58.015602976083755" lon="-5.079477997496724">
        <ele>236.13999999999999</ele>
        <time>2023-08-25T11:25:17Z</time>
      </trkpt>
      <trkpt lat="58.01539896056056" lon="-5.079725012183189">
        <ele>235.18000000000001</ele>
        <time>2023-08-25T11:25:18Z</time>
      </trkpt>
      <trkpt lat="58.015198968350887" lon="-5.079986024647951">
        <ele>234.69999999999999</ele>
        <time>2023-08-25T11:25:19Z</time>
      </trkpt>
      <trkpt lat="58.012996036559343" lon="-5.082926983013749">
        <ele>225.56999999999999</ele>
        <time>2023-08-25T11:25:30Z</time>
      </trkpt>
      <trkpt lat="58.010336039587855" lon="-5.085584968328476">
        <ele>210.66999999999999</ele>
        <time>2023-08-25T11:25:42Z</time>
      </trkpt>
      <trkpt lat="58.00888798199594" lon="-5.087103014811873">
        <ele>199.13</ele>
        <time>2023-08-25T11:25:49Z</time>
      </trkpt>
      <trkpt lat="58.006729977205396" lon="-5.089643988758326">
        <ele>183.27000000000001</ele>
        <time>2023-08-25T11:26:00Z</time>
      </trkpt>
      <trkpt lat="58.005756000056863" lon="-5.090629030019045">
        <ele>176.06</ele>
        <time>2023-08-25T11:26:05Z</time>
      </trkpt>
      <trkpt lat="58.005605963990092" lon="-5.090866992250085">
        <ele>174.62</ele>
        <time>2023-08-25T11:26:06Z</time>
      </trkpt>
      <trkpt lat="58.005485013127327" lon="-5.091165974736214">
        <ele>173.16999999999999</ele>
        <time>2023-08-25T11:26:07Z</time>
      </trkpt>
      <trkpt lat="58.005360960960388" lon="-5.091471998021007">
        <ele>171.72999999999999</ele>
        <time>2023-08-25T11:26:08Z</time>
      </trkpt>
      <trkpt lat="58.005233975127339" lon="-5.091784978285432">
        <ele>170.28999999999999</ele>
        <time>2023-08-25T11:26:09Z</time>
      </trkpt>
      <trkpt lat="58.004206018522382" lon="-5.093893026933074">
        <ele>160.68000000000001</ele>
        <time>2023-08-25T11:26:16Z</time>
      </trkpt>
      <trkpt lat="58.002688977867365" lon="-5.09710798971355">
        <ele>147.69999999999999</ele>
        <time>2023-08-25T11:26:26Z</time>
      </trkpt>
      <trkpt lat="58.00235596485436" lon="-5.098107028752565">
        <ele>143.84999999999999</ele>
        <time>2023-08-25T11:26:29Z</time>
      </trkpt>
      <trkpt lat="58.002299973741174" lon="-5.098452027887106">
        <ele>142.88999999999999</ele>
        <time>2023-08-25T11:26:30Z</time>
      </trkpt>
      <trkpt lat="58.002250017598271" lon="-5.098818987607956">
        <ele>141.93000000000001</ele>
        <time>2023-08-25T11:26:31Z</time>
      </trkpt>
      <trkpt lat="58.001932008191943" lon="-5.100463014096022">
        <ele>136.63999999999999</ele>
        <time>2023-08-25T11:26:36Z</time>
      </trkpt>
      <trkpt lat="58.001848021522164" lon="-5.100702987983823">
        <ele>136.16</ele>
        <time>2023-08-25T11:26:37Z</time>
      </trkpt>
      <trkpt lat="58.001723969355226" lon="-5.100924018770456">
        <ele>135.19999999999999</ele>
        <time>2023-08-25T11:26:38Z</time>
      </trkpt>
      <trkpt lat="58.001591032370925" lon="-5.101119987666607">
        <ele>134.24000000000001</ele>
        <time>2023-08-25T11:26:39Z</time>
      </trkpt>
      <trkpt lat="58.001437978819013" lon="-5.101295001804829">
        <ele>133.75999999999999</ele>
        <time>2023-08-25T11:26:40Z</time>
      </trkpt>
      <trkpt lat="58.001277968287468" lon="-5.101477978751063">
        <ele>132.80000000000001</ele>
        <time>2023-08-25T11:26:41Z</time>
      </trkpt>
      <trkpt lat="57.999696973711252" lon="-5.10335803963244">
        <ele>125.11</ele>
        <time>2023-08-25T11:26:52Z</time>
      </trkpt>
      <trkpt lat="57.998453015461564" lon="-5.105234999209642">
        <ele>122.22</ele>
        <time>2023-08-25T11:27:01Z</time>
      </trkpt>
      <trkpt lat="57.996849976480007" lon="-5.107388980686665">
        <ele>120.78</ele>
        <time>2023-08-25T11:27:11Z</time>
      </trkpt>
      <trkpt lat="57.99513403326273" lon="-5.108936028555036">
        <ele>117.90000000000001</ele>
        <time>2023-08-25T11:27:20Z</time>
      </trkpt>
      <trkpt lat="57.992722978815436" lon="-5.110593969002366">
        <ele>121.73999999999999</ele>
        <time>2023-08-25T11:27:32Z</time>
      </trkpt>
      <trkpt lat="57.990484004840255" lon="-5.112464977428317">
        <ele>123.67</ele>
        <time>2023-08-25T11:27:43Z</time>
      </trkpt>
      <trkpt lat="57.988763032481074" lon="-5.113739026710391">
        <ele>124.15000000000001</ele>
        <time>2023-08-25T11:27:51Z</time>
      </trkpt>
      <trkpt lat="57.986849024891853" lon="-5.115167973563075">
        <ele>126.55</ele>
        <time>2023-08-25T11:28:00Z</time>
      </trkpt>
      <trkpt lat="57.983955005183816" lon="-5.117536028847098">
        <ele>134.24000000000001</ele>
        <time>2023-08-25T11:28:14Z</time>
      </trkpt>
      <trkpt lat="57.982764020562172" lon="-5.118460971862078">
        <ele>133.28</ele>
        <time>2023-08-25T11:28:21Z</time>
      </trkpt>
      <trkpt lat="57.981217978522182" lon="-5.119164967909455">
        <ele>127.98999999999999</ele>
        <time>2023-08-25T11:28:29Z</time>
      </trkpt>
      <trkpt lat="57.979240017011762" lon="-5.119047034531832">
        <ele>114.05</ele>
        <time>2023-08-25T11:28:38Z</time>
      </trkpt>
      <trkpt lat="57.979020997881889" lon="-5.11910998262465">
        <ele>112.61</ele>
        <time>2023-08-25T11:28:39Z</time>
      </trkpt>
      <trkpt lat="57.978811031207442" lon="-5.119212996214628">
        <ele>111.65000000000001</ele>
        <time>2023-08-25T11:28:40Z</time>
      </trkpt>
      <trkpt lat="57.976796021685004" lon="-5.120796002447605">
        <ele>106.36</ele>
        <time>2023-08-25T11:28:50Z</time>
      </trkpt>
      <trkpt lat="57.974629970267415" lon="-5.122752003371716">
        <ele>108.77</ele>
        <time>2023-08-25T11:29:01Z</time>
      </trkpt>
      <trkpt lat="57.971651963889599" lon="-5.124913025647402">
        <ele>98.670000000000002</ele>
        <time>2023-08-25T11:29:15Z</time>
      </trkpt>
      <trkpt lat="57.970140036195517" lon="-5.126631986349821">
        <ele>92.900000000000006</ele>
        <time>2023-08-25T11:29:23Z</time>
      </trkpt>
      <trkpt lat="57.968310015276074" lon="-5.128829972818494">
        <ele>80.409999999999997</ele>
        <time>2023-08-25T11:29:33Z</time>
      </trkpt>
      <trkpt lat="57.966713011264801" lon="-5.131177995353937">
        <ele>64.069999999999993</ele>
        <time>2023-08-25T11:29:42Z</time>
      </trkpt>
      <trkpt lat="57.964852983132005" lon="-5.133499028161168">
        <ele>41.469999999999999</ele>
        <time>2023-08-25T11:29:51Z</time>
      </trkpt>
      <trkpt lat="57.963120024651289" lon="-5.135296024382114">
        <ele>25.609999999999999</ele>
        <time>2023-08-25T11:30:00Z</time>
      </trkpt>
      <trkpt lat="57.962937969714403" lon="-5.135441031306982">
        <ele>24.170000000000002</ele>
        <time>2023-08-25T11:30:01Z</time>
      </trkpt>
      <trkpt lat="57.962742000818253" lon="-5.135572040453553">
        <ele>22.25</ele>
        <time>2023-08-25T11:30:02Z</time>
      </trkpt>
      <trkpt lat="57.96254200860858" lon="-5.135704977437854">
        <ele>20.809999999999999</ele>
        <time>2023-08-25T11:30:03Z</time>
      </trkpt>
      <trkpt lat="57.962342016398907" lon="-5.135818971320987">
        <ele>19.84</ele>
        <time>2023-08-25T11:30:04Z</time>
      </trkpt>
      <trkpt lat="57.962127020582557" lon="-5.135873034596443">
        <ele>18.879999999999999</ele>
        <time>2023-08-25T11:30:05Z</time>
      </trkpt>
      <trkpt lat="57.96190096065402" lon="-5.135896001011133">
        <ele>18.399999999999999</ele>
        <time>2023-08-25T11:30:06Z</time>
      </trkpt>
      <trkpt lat="57.961679007858038" lon="-5.135817965492606">
        <ele>17.920000000000002</ele>
        <time>2023-08-25T11:30:07Z</time>
      </trkpt>
      <trkpt lat="57.96144800260663" lon="-5.135733978822827">
        <ele>17.920000000000002</ele>
        <time>2023-08-25T11:30:08Z</time>
      </trkpt>
      <trkpt lat="57.961225965991616" lon="-5.135606992989779">
        <ele>18.399999999999999</ele>
        <time>2023-08-25T11:30:09Z</time>
      </trkpt>
      <trkpt lat="57.958851959556341" lon="-5.134302014485002">
        <ele>30.420000000000002</ele>
        <time>2023-08-25T11:30:20Z</time>
      </trkpt>
      <trkpt lat="57.958653979003429" lon="-5.134293967857957">
        <ele>32.340000000000003</ele>
        <time>2023-08-25T11:30:21Z</time>
      </trkpt>
      <trkpt lat="57.95768796466291" lon="-5.134326992556453">
        <ele>39.549999999999997</ele>
        <time>2023-08-25T11:30:26Z</time>
      </trkpt>
      <trkpt lat="57.957502976059914" lon="-5.13447199948132">
        <ele>40.990000000000002</ele>
        <time>2023-08-25T11:30:27Z</time>
      </trkpt>
      <trkpt lat="57.957326034083962" lon="-5.134609965607524">
        <ele>42.920000000000002</ele>
        <time>2023-08-25T11:30:28Z</time>
      </trkpt>
      <trkpt lat="57.957155965268612" lon="-5.134773999452591">
        <ele>44.359999999999999</ele>
        <time>2023-08-25T11:30:29Z</time>
      </trkpt>
      <trkpt lat="57.956995032727718" lon="-5.135025959461927">
        <ele>46.280000000000001</ele>
        <time>2023-08-25T11:30:30Z</time>
      </trkpt>
      <trkpt lat="57.956823036074638" lon="-5.135296024382114">
        <ele>48.200000000000003</ele>
        <time>2023-08-25T11:30:31Z</time>
      </trkpt>
      <trkpt lat="57.955236006528139" lon="-5.138131035491824">
        <ele>57.340000000000003</ele>
        <time>2023-08-25T11:30:40Z</time>
      </trkpt>
      <trkpt lat="57.952495962381363" lon="-5.142834959551692">
        <ele>57.82</ele>
        <time>2023-08-25T11:30:55Z</time>
      </trkpt>
      <trkpt lat="57.951286034658551" lon="-5.145527981221676">
        <ele>62.619999999999997</ele>
        <time>2023-08-25T11:31:03Z</time>
      </trkpt>
      <trkpt lat="57.949945013970137" lon="-5.149041004478931">
        <ele>50.609999999999999</ele>
        <time>2023-08-25T11:31:12Z</time>
      </trkpt>
      <trkpt lat="57.949004983529449" lon="-5.152114983648062">
        <ele>40.990000000000002</ele>
        <time>2023-08-25T11:31:20Z</time>
      </trkpt>
      <trkpt lat="57.947677038609982" lon="-5.156957041472197">
        <ele>29.460000000000001</ele>
        <time>2023-08-25T11:31:31Z</time>
      </trkpt>
      <trkpt lat="57.946196040138602" lon="-5.161489974707365">
        <ele>26.09</ele>
        <time>2023-08-25T11:31:42Z</time>
      </trkpt>
      <trkpt lat="57.944350009784102" lon="-5.166469998657703">
        <ele>23.210000000000001</ele>
        <time>2023-08-25T11:31:55Z</time>
      </trkpt>
      <trkpt lat="57.944177007302642" lon="-5.166767975315452">
        <ele>22.73</ele>
        <time>2023-08-25T11:31:56Z</time>
      </trkpt>
      <trkpt lat="57.942822994664311" lon="-5.168539993464947">
        <ele>21.77</ele>
        <time>2023-08-25T11:32:03Z</time>
      </trkpt>
      <trkpt lat="57.941825967282057" lon="-5.170633038505912">
        <ele>22.25</ele>
        <time>2023-08-25T11:32:10Z</time>
      </trkpt>
      <trkpt lat="57.94118600897491" lon="-5.172798000276089">
        <ele>24.170000000000002</ele>
        <time>2023-08-25T11:32:16Z</time>
      </trkpt>
      <trkpt lat="57.940969001501799" lon="-5.173952020704746">
        <ele>24.649999999999999</ele>
        <time>2023-08-25T11:32:19Z</time>
      </trkpt>
      <trkpt lat="57.940389979630709" lon="-5.177066987380385">
        <ele>26.57</ele>
        <time>2023-08-25T11:32:27Z</time>
      </trkpt>
      <trkpt lat="57.940214965492487" lon="-5.177801996469498">
        <ele>27.050000000000001</ele>
        <time>2023-08-25T11:32:29Z</time>
      </trkpt>
      <trkpt lat="57.940082028508186" lon="-5.178555026650429">
        <ele>28.02</ele>
        <time>2023-08-25T11:32:31Z</time>
      </trkpt>
      <trkpt lat="57.939524967223406" lon="-5.180870024487376">
        <ele>32.82</ele>
        <time>2023-08-25T11:32:38Z</time>
      </trkpt>
      <trkpt lat="57.938660038635135" lon="-5.183303039520979">
        <ele>37.149999999999999</ele>
        <time>2023-08-25T11:32:48Z</time>
      </trkpt>
      <trkpt lat="57.938485024496913" lon="-5.183676034212112">
        <ele>36.670000000000002</ele>
        <time>2023-08-25T11:32:50Z</time>
      </trkpt>
      <trkpt lat="57.938377987593412" lon="-5.183816011995077">
        <ele>35.229999999999997</ele>
        <time>2023-08-25T11:32:51Z</time>
      </trkpt>
      <trkpt lat="57.938269022852182" lon="-5.183959007263184">
        <ele>34.259999999999998</ele>
        <time>2023-08-25T11:32:52Z</time>
      </trkpt>
      <trkpt lat="57.938145976513624" lon="-5.184024972841144">
        <ele>32.82</ele>
        <time>2023-08-25T11:32:53Z</time>
      </trkpt>
      <trkpt lat="57.937997030094266" lon="-5.184106025844812">
        <ele>31.859999999999999</ele>
        <time>2023-08-25T11:32:54Z</time>
      </trkpt>
      <trkpt lat="57.937839031219482" lon="-5.184190012514591">
        <ele>30.899999999999999</ele>
        <time>2023-08-25T11:32:55Z</time>
      </trkpt>
      <trkpt lat="57.937281969934702" lon="-5.184538029134274">
        <ele>27.530000000000001</ele>
        <time>2023-08-25T11:32:59Z</time>
      </trkpt>
      <trkpt lat="57.937156995758414" lon="-5.184755958616734">
        <ele>26.57</ele>
        <time>2023-08-25T11:33:00Z</time>
      </trkpt>
      <trkpt lat="57.937078038230538" lon="-5.184895014390349">
        <ele>26.09</ele>
        <time>2023-08-25T11:33:01Z</time>
      </trkpt>
      <trkpt lat="57.937010983005166" lon="-5.185026023536921">
        <ele>25.129999999999999</ele>
        <time>2023-08-25T11:33:02Z</time>
      </trkpt>
      <trkpt lat="57.936949040740728" lon="-5.18519701436162">
        <ele>24.170000000000002</ele>
        <time>2023-08-25T11:33:03Z</time>
      </trkpt>
      <trkpt lat="57.936383010819554" lon="-5.186869958415628">
        <ele>19.84</ele>
        <time>2023-08-25T11:33:10Z</time>
      </trkpt>
      <trkpt lat="57.936326013877988" lon="-5.187172964215279">
        <ele>19.359999999999999</ele>
        <time>2023-08-25T11:33:11Z</time>
      </trkpt>
      <trkpt lat="57.936276979744434" lon="-5.187488039955497">
        <ele>18.879999999999999</ele>
        <time>2023-08-25T11:33:12Z</time>
      </trkpt>
      <trkpt lat="57.936134990304708" lon="-5.188385993242264">
        <ele>16.960000000000001</ele>
        <time>2023-08-25T11:33:15Z</time>
      </trkpt>
      <trkpt lat="57.936057038605213" lon="-5.188669972121716">
        <ele>16.48</ele>
        <time>2023-08-25T11:33:16Z</time>
      </trkpt>
      <trkpt lat="57.935349019244313" lon="-5.19112897105515">
        <ele>10.710000000000001</ele>
        <time>2023-08-25T11:33:24Z</time>
      </trkpt>
      <trkpt lat="57.934679975733161" lon="-5.193783016875386">
        <ele>6.87</ele>
        <time>2023-08-25T11:33:33Z</time>
      </trkpt>
      <trkpt lat="57.93415904045105" lon="-5.195683026686311">
        <ele>6.87</ele>
        <time>2023-08-25T11:33:40Z</time>
      </trkpt>
      <trkpt lat="57.934063989669085" lon="-5.19591998308897">
        <ele>6.87</ele>
        <time>2023-08-25T11:33:41Z</time>
      </trkpt>
      <trkpt lat="57.933974973857403" lon="-5.196103965863586">
        <ele>7.35</ele>
        <time>2023-08-25T11:33:42Z</time>
      </trkpt>
      <trkpt lat="57.933849999681115" lon="-5.19621997140348">
        <ele>7.35</ele>
        <time>2023-08-25T11:33:43Z</time>
      </trkpt>
      <trkpt lat="57.933719996362925" lon="-5.196340000256896">
        <ele>7.83</ele>
        <time>2023-08-25T11:33:44Z</time>
      </trkpt>
      <trkpt lat="57.933578006923199" lon="-5.196359027177095">
        <ele>8.310000000000001</ele>
        <time>2023-08-25T11:33:45Z</time>
      </trkpt>
      <trkpt lat="57.933397963643074" lon="-5.196382999420166">
        <ele>8.310000000000001</ele>
        <time>2023-08-25T11:33:46Z</time>
      </trkpt>
      <trkpt lat="57.933257985860109" lon="-5.196351986378431">
        <ele>8.310000000000001</ele>
        <time>2023-08-25T11:33:47Z</time>
      </trkpt>
      <trkpt lat="57.931759972125292" lon="-5.196273028850555">
        <ele>10.710000000000001</ele>
        <time>2023-08-25T11:33:56Z</time>
      </trkpt>
      <trkpt lat="57.930458011105657" lon="-5.196768986061215">
        <ele>11.19</ele>
        <time>2023-08-25T11:34:04Z</time>
      </trkpt>
      <trkpt lat="57.929346989840269" lon="-5.197583036497235">
        <ele>15.52</ele>
        <time>2023-08-25T11:34:11Z</time>
      </trkpt>
      <trkpt lat="57.92919603176415" lon="-5.197633998468518">
        <ele>16.48</ele>
        <time>2023-08-25T11:34:12Z</time>
      </trkpt>
      <trkpt lat="57.929021017625928" lon="-5.197692001238465">
        <ele>17.920000000000002</ele>
        <time>2023-08-25T11:34:13Z</time>
      </trkpt>
      <trkpt lat="57.928893025964499" lon="-5.19763701595366">
        <ele>19.359999999999999</ele>
        <time>2023-08-25T11:34:14Z</time>
      </trkpt>
      <trkpt lat="57.928720023483038" lon="-5.197563003748655">
        <ele>20.32</ele>
        <time>2023-08-25T11:34:15Z</time>
      </trkpt>
      <trkpt lat="57.928602006286383" lon="-5.197417996823788">
        <ele>21.77</ele>
        <time>2023-08-25T11:34:16Z</time>
      </trkpt>
      <trkpt lat="57.928465967997909" lon="-5.19725002348423">
        <ele>22.73</ele>
        <time>2023-08-25T11:34:17Z</time>
      </trkpt>
      <trkpt lat="57.928348034620285" lon="-5.196999991312623">
        <ele>23.690000000000001</ele>
        <time>2023-08-25T11:34:18Z</time>
      </trkpt>
      <trkpt lat="57.928237980231643" lon="-5.196741996333003">
        <ele>24.649999999999999</ele>
        <time>2023-08-25T11:34:19Z</time>
      </trkpt>
      <trkpt lat="57.927447985857725" lon="-5.194936031475663">
        <ele>36.670000000000002</ele>
        <time>2023-08-25T11:34:26Z</time>
      </trkpt>
      <trkpt lat="57.927333991974592" lon="-5.194765040650964">
        <ele>38.109999999999999</ele>
        <time>2023-08-25T11:34:27Z</time>
      </trkpt>
      <trkpt lat="57.927225027233362" lon="-5.194602012634277">
        <ele>40.030000000000001</ele>
        <time>2023-08-25T11:34:28Z</time>
      </trkpt>
      <trkpt lat="57.927094018086791" lon="-5.19452003762126">
        <ele>41.469999999999999</ele>
        <time>2023-08-25T11:34:29Z</time>
      </trkpt>
      <trkpt lat="57.9269640147686" lon="-5.194471003487706">
        <ele>42.439999999999998</ele>
        <time>2023-08-25T11:34:30Z</time>
      </trkpt>
      <trkpt lat="57.926826970651746" lon="-5.194419035688043">
        <ele>44.359999999999999</ele>
        <time>2023-08-25T11:34:31Z</time>
      </trkpt>
      <trkpt lat="57.925041038542986" lon="-5.193721996620297">
        <ele>60.700000000000003</ele>
        <time>2023-08-25T11:34:42Z</time>
      </trkpt>
      <trkpt lat="57.924698973074555" lon="-5.193489985540509">
        <ele>61.659999999999997</ele>
        <time>2023-08-25T11:34:44Z</time>
      </trkpt>
      <trkpt lat="57.924532005563378" lon="-5.193300973623991">
        <ele>61.659999999999997</ele>
        <time>2023-08-25T11:34:45Z</time>
      </trkpt>
      <trkpt lat="57.922874987125397" lon="-5.191169958561659">
        <ele>56.859999999999999</ele>
        <time>2023-08-25T11:34:55Z</time>
      </trkpt>
      <trkpt lat="57.922707013785839" lon="-5.191025035455823">
        <ele>55.890000000000001</ele>
        <time>2023-08-25T11:34:56Z</time>
      </trkpt>
      <trkpt lat="57.92253602296114" lon="-5.190877011045814">
        <ele>54.93</ele>
        <time>2023-08-25T11:34:57Z</time>
      </trkpt>
      <trkpt lat="57.922349022701383" lon="-5.190787995234132">
        <ele>54.450000000000003</ele>
        <time>2023-08-25T11:34:58Z</time>
      </trkpt>
      <trkpt lat="57.92215196415782" lon="-5.190730998292565">
        <ele>53.490000000000002</ele>
        <time>2023-08-25T11:34:59Z</time>
      </trkpt>
      <trkpt lat="57.921949038282037" lon="-5.190721023827791">
        <ele>52.530000000000001</ele>
        <time>2023-08-25T11:35:00Z</time>
      </trkpt>
      <trkpt lat="57.921738987788558" lon="-5.190724963322282">
        <ele>51.090000000000003</ele>
        <time>2023-08-25T11:35:01Z</time>
      </trkpt>
      <trkpt lat="57.920914040878415" lon="-5.190738961100578">
        <ele>45.799999999999997</ele>
        <time>2023-08-25T11:35:05Z</time>
      </trkpt>
      <trkpt lat="57.920736009255052" lon="-5.190840968862176">
        <ele>44.840000000000003</ele>
        <time>2023-08-25T11:35:06Z</time>
      </trkpt>
      <trkpt lat="57.920557977631688" lon="-5.190958986058831">
        <ele>44.359999999999999</ele>
        <time>2023-08-25T11:35:07Z</time>
      </trkpt>
      <trkpt lat="57.920372989028692" lon="-5.19108303822577">
        <ele>43.399999999999999</ele>
        <time>2023-08-25T11:35:08Z</time>
      </trkpt>
      <trkpt lat="57.920229993760586" lon="-5.191282024607062">
        <ele>42.439999999999998</ele>
        <time>2023-08-25T11:35:09Z</time>
      </trkpt>
      <trkpt lat="57.920074006542563" lon="-5.191499032080174">
        <ele>41.950000000000003</ele>
        <time>2023-08-25T11:35:10Z</time>
      </trkpt>
      <trkpt lat="57.919087037444115" lon="-5.192720023915172">
        <ele>37.149999999999999</ele>
        <time>2023-08-25T11:35:16Z</time>
      </trkpt>
      <trkpt lat="57.918916968628764" lon="-5.192833011969924">
        <ele>36.670000000000002</ele>
        <time>2023-08-25T11:35:17Z</time>
      </trkpt>
      <trkpt lat="57.918745977804065" lon="-5.192864025011659">
        <ele>36.189999999999998</ele>
        <time>2023-08-25T11:35:18Z</time>
      </trkpt>
      <trkpt lat="57.918575992807746" lon="-5.192864025011659">
        <ele>36.189999999999998</ele>
        <time>2023-08-25T11:35:19Z</time>
      </trkpt>
      <trkpt lat="57.918423023074865" lon="-5.192799987271428">
        <ele>36.670000000000002</ele>
        <time>2023-08-25T11:35:20Z</time>
      </trkpt>
      <trkpt lat="57.918279021978378" lon="-5.192690016701818">
        <ele>36.670000000000002</ele>
        <time>2023-08-25T11:35:21Z</time>
      </trkpt>
      <trkpt lat="57.918130997568369" lon="-5.192561019212008">
        <ele>37.630000000000003</ele>
        <time>2023-08-25T11:35:22Z</time>
      </trkpt>
      <trkpt lat="57.918023960664868" lon="-5.192328002303839">
        <ele>38.590000000000003</ele>
        <time>2023-08-25T11:35:23Z</time>
      </trkpt>
      <trkpt lat="57.917912984266877" lon="-5.192086016759276">
        <ele>39.549999999999997</ele>
        <time>2023-08-25T11:35:24Z</time>
      </trkpt>
      <trkpt lat="57.917797984555364" lon="-5.191833972930908">
        <ele>40.990000000000002</ele>
        <time>2023-08-25T11:35:25Z</time>
      </trkpt>
      <trkpt lat="57.917712992057204" lon="-5.191552005708218">
        <ele>42.439999999999998</ele>
        <time>2023-08-25T11:35:26Z</time>
      </trkpt>
      <trkpt lat="57.916714958846569" lon="-5.188240986317396">
        <ele>63.579999999999998</ele>
        <time>2023-08-25T11:35:38Z</time>
      </trkpt>
      <trkpt lat="57.915732013061643" lon="-5.185337997972965">
        <ele>84.730000000000004</ele>
        <time>2023-08-25T11:35:49Z</time>
      </trkpt>
      <trkpt lat="57.915630005300045" lon="-5.185102969408035">
        <ele>86.659999999999997</ele>
        <time>2023-08-25T11:35:50Z</time>
      </trkpt>
      <trkpt lat="57.915523974224925" lon="-5.184859978035092">
        <ele>88.099999999999994</ele>
        <time>2023-08-25T11:35:51Z</time>
      </trkpt>
      <trkpt lat="57.915409980341792" lon="-5.184704996645451">
        <ele>89.540000000000006</ele>
        <time>2023-08-25T11:35:52Z</time>
      </trkpt>
      <trkpt lat="57.91529699228704" lon="-5.184551021084189">
        <ele>90.980000000000004</ele>
        <time>2023-08-25T11:35:53Z</time>
      </trkpt>
      <trkpt lat="57.915161959826946" lon="-5.184483965858817">
        <ele>92.420000000000002</ele>
        <time>2023-08-25T11:35:54Z</time>
      </trkpt>
      <trkpt lat="57.915021982043982" lon="-5.18442302942276">
        <ele>93.390000000000001</ele>
        <time>2023-08-25T11:35:55Z</time>
      </trkpt>
      <trkpt lat="57.914874041453004" lon="-5.184406014159322">
        <ele>94.829999999999998</ele>
        <time>2023-08-25T11:35:56Z</time>
      </trkpt>
      <trkpt lat="57.914722999557853" lon="-5.184443984180689">
        <ele>95.790000000000006</ele>
        <time>2023-08-25T11:35:57Z</time>
      </trkpt>
      <trkpt lat="57.914560977369547" lon="-5.184483965858817">
        <ele>96.269999999999996</ele>
        <time>2023-08-25T11:35:58Z</time>
      </trkpt>
      <trkpt lat="57.914401972666383" lon="-5.184524031355977">
        <ele>97.230000000000004</ele>
        <time>2023-08-25T11:35:59Z</time>
      </trkpt>
      <trkpt lat="57.914242967963219" lon="-5.184563007205725">
        <ele>97.709999999999994</ele>
        <time>2023-08-25T11:36:00Z</time>
      </trkpt>
      <trkpt lat="57.913941973820329" lon="-5.184599971398711">
        <ele>98.670000000000002</ele>
        <time>2023-08-25T11:36:02Z</time>
      </trkpt>
      <trkpt lat="57.913794033229351" lon="-5.184612963348627">
        <ele>99.150000000000006</ele>
        <time>2023-08-25T11:36:03Z</time>
      </trkpt>
      <trkpt lat="57.913656989112496" lon="-5.184624027460814">
        <ele>99.629999999999995</ele>
        <time>2023-08-25T11:36:04Z</time>
      </trkpt>
      <trkpt lat="57.913522040471435" lon="-5.1845090277493">
        <ele>99.629999999999995</ele>
        <time>2023-08-25T11:36:05Z</time>
      </trkpt>
      <trkpt lat="57.913387008011341" lon="-5.184393022209406">
        <ele>99.629999999999995</ele>
        <time>2023-08-25T11:36:06Z</time>
      </trkpt>
      <trkpt lat="57.913247030228376" lon="-5.18427299335599">
        <ele>99.629999999999995</ele>
        <time>2023-08-25T11:36:07Z</time>
      </trkpt>
      <trkpt lat="57.913119038566947" lon="-5.18410099670291">
        <ele>99.629999999999995</ele>
        <time>2023-08-25T11:36:08Z</time>
      </trkpt>
      <trkpt lat="57.911822022870183" lon="-5.1820810418576">
        <ele>87.620000000000005</ele>
        <time>2023-08-25T11:36:17Z</time>
      </trkpt>
      <trkpt lat="57.91041998192668" lon="-5.179765960201621">
        <ele>69.349999999999994</ele>
        <time>2023-08-25T11:36:28Z</time>
      </trkpt>
      <trkpt lat="57.909115003421903" lon="-5.177258010953665">
        <ele>54.450000000000003</ele>
        <time>2023-08-25T11:36:39Z</time>
      </trkpt>
      <trkpt lat="57.908106995746493" lon="-5.175220035016537">
        <ele>47.240000000000002</ele>
        <time>2023-08-25T11:36:48Z</time>
      </trkpt>
      <trkpt lat="57.90803499519825" lon="-5.174924992024899">
        <ele>47.240000000000002</ele>
        <time>2023-08-25T11:36:49Z</time>
      </trkpt>
      <trkpt lat="57.907967017963529" lon="-5.17462701536715">
        <ele>46.759999999999998</ele>
        <time>2023-08-25T11:36:50Z</time>
      </trkpt>
      <trkpt lat="57.907615983858705" lon="-5.17168496735394">
        <ele>43.399999999999999</ele>
        <time>2023-08-25T11:36:59Z</time>
      </trkpt>
      <trkpt lat="57.907555969431996" lon="-5.170333972200751">
        <ele>39.549999999999997</ele>
        <time>2023-08-25T11:37:03Z</time>
      </trkpt>
      <trkpt lat="57.907529985532165" lon="-5.170004982501268">
        <ele>38.590000000000003</ele>
        <time>2023-08-25T11:37:04Z</time>
      </trkpt>
      <trkpt lat="57.907465025782585" lon="-5.169696025550365">
        <ele>37.630000000000003</ele>
        <time>2023-08-25T11:37:05Z</time>
      </trkpt>
      <trkpt lat="57.907379027456045" lon="-5.169401988387108">
        <ele>36.670000000000002</ele>
        <time>2023-08-25T11:37:06Z</time>
      </trkpt>
      <trkpt lat="57.907292023301125" lon="-5.169106023386121">
        <ele>35.710000000000001</ele>
        <time>2023-08-25T11:37:07Z</time>
      </trkpt>
      <trkpt lat="57.906523989513516" lon="-5.166486008092761">
        <ele>27.530000000000001</ele>
        <time>2023-08-25T11:37:16Z</time>
      </trkpt>
      <trkpt lat="57.906211009249091" lon="-5.165397031232715">
        <ele>23.690000000000001</ele>
        <time>2023-08-25T11:37:22Z</time>
      </trkpt>
      <trkpt lat="57.906089974567294" lon="-5.164953963831067">
        <ele>22.25</ele>
        <time>2023-08-25T11:37:26Z</time>
      </trkpt>
      <trkpt lat="57.906072037294507" lon="-5.164886992424727">
        <ele>22.25</ele>
        <time>2023-08-25T11:37:27Z</time>
      </trkpt>
      <trkpt lat="57.90605996735394" lon="-5.164843993261457">
        <ele>21.77</ele>
        <time>2023-08-25T11:37:28Z</time>
      </trkpt>
      <trkpt lat="57.905984027311206" lon="-5.164740979671478">
        <ele>21.289999999999999</ele>
        <time>2023-08-25T11:37:29Z</time>
      </trkpt>
      <trkpt lat="57.905954020097852" lon="-5.164785990491509">
        <ele>20.809999999999999</ele>
        <time>2023-08-25T11:37:30Z</time>
      </trkpt>
      <trkpt lat="57.905922001227736" lon="-5.164835024625063">
        <ele>20.809999999999999</ele>
        <time>2023-08-25T11:37:31Z</time>
      </trkpt>
      <trkpt lat="57.905886964872479" lon="-5.164885986596346">
        <ele>20.32</ele>
        <time>2023-08-25T11:37:32Z</time>
      </trkpt>
      <trkpt lat="57.905857963487506" lon="-5.164930997416377">
        <ele>20.32</ele>
        <time>2023-08-25T11:37:33Z</time>
      </trkpt>
      <trkpt lat="57.905826028436422" lon="-5.164978019893169">
        <ele>20.32</ele>
        <time>2023-08-25T11:37:34Z</time>
      </trkpt>
      <trkpt lat="57.905759979039431" lon="-5.165076004341245">
        <ele>19.84</ele>
        <time>2023-08-25T11:37:35Z</time>
      </trkpt>
      <trkpt lat="57.905750004574656" lon="-5.165141969919205">
        <ele>19.84</ele>
        <time>2023-08-25T11:37:36Z</time>
      </trkpt>
      <trkpt lat="57.905717985704541" lon="-5.165333999320865">
        <ele>19.84</ele>
        <time>2023-08-25T11:37:37Z</time>
      </trkpt>
      <trkpt lat="57.905724020674825" lon="-5.165384961292148">
        <ele>19.84</ele>
        <time>2023-08-25T11:37:38Z</time>
      </trkpt>
      <trkpt lat="57.905731983482838" lon="-5.165460985153914">
        <ele>19.84</ele>
        <time>2023-08-25T11:37:39Z</time>
      </trkpt>
      <trkpt lat="57.905740030109882" lon="-5.165528040379286">
        <ele>19.84</ele>
        <time>2023-08-25T11:37:40Z</time>
      </trkpt>
      <trkpt lat="57.90575897321105" lon="-5.165687967091799">
        <ele>19.84</ele>
        <time>2023-08-25T11:37:44Z</time>
      </trkpt>
      <trkpt lat="57.905780011788011" lon="-5.165604986250401">
        <ele>20.32</ele>
        <time>2023-08-25T11:37:51Z</time>
      </trkpt>
      <trkpt lat="57.905780011788011" lon="-5.165604986250401">
        <ele>20.32</ele>
        <time>2023-08-25T11:38:28Z</time>
      </trkpt>
      <trkpt lat="57.905771965160966" lon="-5.165617978200316">
        <ele>19.84</ele>
        <time>2023-08-25T11:38:49Z</time>
      </trkpt>
      <trkpt lat="57.905766014009714" lon="-5.165645973756909">
        <ele>49.649999999999999</ele>
        <time>2023-08-25T12:19:56Z</time>
      </trkpt>
      <trkpt lat="57.90573600679636" lon="-5.165571039542556">
        <ele>11.19</ele>
        <time>2023-08-25T12:20:41Z</time>
      </trkpt>
      <trkpt lat="57.905754027888179" lon="-5.165601968765259">
        <ele>21.289999999999999</ele>
        <time>2023-08-25T12:21:23Z</time>
      </trkpt>
      <trkpt lat="57.905744975432754" lon="-5.165589982643724">
        <ele>22.73</ele>
        <time>2023-08-25T12:22:01Z</time>
      </trkpt>
      <trkpt lat="57.905745981261134" lon="-5.165588976815343">
        <ele>22.73</ele>
        <time>2023-08-25T12:22:48Z</time>
      </trkpt>
      <trkpt lat="57.905745981261134" lon="-5.165588976815343">
        <ele>22.73</ele>
        <time>2023-08-25T12:22:54Z</time>
      </trkpt>
      <trkpt lat="57.905739024281502" lon="-5.165518987923861">
        <ele>22.25</ele>
        <time>2023-08-25T12:22:57Z</time>
      </trkpt>
      <trkpt lat="57.905732989311218" lon="-5.165464002639055">
        <ele>22.25</ele>
        <time>2023-08-25T12:22:58Z</time>
      </trkpt>
      <trkpt lat="57.905717985704541" lon="-5.165333999320865">
        <ele>22.25</ele>
        <time>2023-08-25T12:22:59Z</time>
      </trkpt>
      <trkpt lat="57.905725026503205" lon="-5.165292005985975">
        <ele>21.77</ele>
        <time>2023-08-25T12:23:00Z</time>
      </trkpt>
      <trkpt lat="57.905750004574656" lon="-5.165138030424714">
        <ele>21.77</ele>
        <time>2023-08-25T12:23:02Z</time>
      </trkpt>
      <trkpt lat="57.905759979039431" lon="-5.165076004341245">
        <ele>22.25</ele>
        <time>2023-08-25T12:23:03Z</time>
      </trkpt>
      <trkpt lat="57.905812030658126" lon="-5.164997968822718">
        <ele>21.77</ele>
        <time>2023-08-25T12:23:04Z</time>
      </trkpt>
      <trkpt lat="57.905845977365971" lon="-5.164948012679815">
        <ele>21.77</ele>
        <time>2023-08-25T12:23:05Z</time>
      </trkpt>
      <trkpt lat="57.905881013721228" lon="-5.164895039051771">
        <ele>21.77</ele>
        <time>2023-08-25T12:23:06Z</time>
      </trkpt>
      <trkpt lat="57.905913032591343" lon="-5.164848016574979">
        <ele>21.77</ele>
        <time>2023-08-25T12:23:07Z</time>
      </trkpt>
      <trkpt lat="57.905941028147936" lon="-5.164805017411709">
        <ele>21.77</ele>
        <time>2023-08-25T12:23:08Z</time>
      </trkpt>
      <trkpt lat="57.905980003997684" lon="-5.164747014641762">
        <ele>21.77</ele>
        <time>2023-08-25T12:23:15Z</time>
      </trkpt>
      <trkpt lat="57.906000958755612" lon="-5.164714995771647">
        <ele>21.77</ele>
        <time>2023-08-25T12:23:20Z</time>
      </trkpt>
      <trkpt lat="57.906017974019051" lon="-5.164690017700195">
        <ele>21.77</ele>
        <time>2023-08-25T12:23:21Z</time>
      </trkpt>
      <trkpt lat="57.906001964583993" lon="-5.164627991616726">
        <ele>21.77</ele>
        <time>2023-08-25T12:23:22Z</time>
      </trkpt>
      <trkpt lat="57.905974974855781" lon="-5.164523972198367">
        <ele>21.77</ele>
        <time>2023-08-25T12:23:23Z</time>
      </trkpt>
      <trkpt lat="57.905941028147936" lon="-5.164393968880177">
        <ele>21.289999999999999</ele>
        <time>2023-08-25T12:23:24Z</time>
      </trkpt>
      <trkpt lat="57.905544983223081" lon="-5.162934008985758">
        <ele>20.32</ele>
        <time>2023-08-25T12:23:32Z</time>
      </trkpt>
      <trkpt lat="57.905040979385376" lon="-5.16107096336782">
        <ele>20.32</ele>
        <time>2023-08-25T12:23:42Z</time>
      </trkpt>
      <trkpt lat="57.904697991907597" lon="-5.159835973754525">
        <ele>20.809999999999999</ele>
        <time>2023-08-25T12:23:49Z</time>
      </trkpt>
      <trkpt lat="57.904649041593075" lon="-5.159712005406618">
        <ele>20.809999999999999</ele>
        <time>2023-08-25T12:23:50Z</time>
      </trkpt>
      <trkpt lat="57.904546028003097" lon="-5.159484017640352">
        <ele>20.809999999999999</ele>
        <time>2023-08-25T12:23:52Z</time>
      </trkpt>
      <trkpt lat="57.904493976384401" lon="-5.159369017928839">
        <ele>20.809999999999999</ele>
        <time>2023-08-25T12:23:53Z</time>
      </trkpt>
      <trkpt lat="57.904250985011458" lon="-5.158994011580944">
        <ele>20.32</ele>
        <time>2023-08-25T12:23:57Z</time>
      </trkpt>
      <trkpt lat="57.904179990291595" lon="-5.158916981890798">
        <ele>20.32</ele>
        <time>2023-08-25T12:23:58Z</time>
      </trkpt>
      <trkpt lat="57.903703982010484" lon="-5.158570976927877">
        <ele>19.84</ele>
        <time>2023-08-25T12:24:04Z</time>
      </trkpt>
      <trkpt lat="57.903009038418531" lon="-5.158437034115195">
        <ele>17.440000000000001</ele>
        <time>2023-08-25T12:24:12Z</time>
      </trkpt>
      <trkpt lat="57.9021489713341" lon="-5.157914003357291">
        <ele>12.15</ele>
        <time>2023-08-25T12:24:22Z</time>
      </trkpt>
      <trkpt lat="57.901239031925797" lon="-5.157385021448135">
        <ele>11.19</ele>
        <time>2023-08-25T12:24:32Z</time>
      </trkpt>
      <trkpt lat="57.901145992800593" lon="-5.15735300257802">
        <ele>11.67</ele>
        <time>2023-08-25T12:24:33Z</time>
      </trkpt>
      <trkpt lat="57.899873033165932" lon="-5.157186035066843">
        <ele>13.119999999999999</ele>
        <time>2023-08-25T12:24:46Z</time>
      </trkpt>
      <trkpt lat="57.899396019056439" lon="-5.157109005376697">
        <ele>13.119999999999999</ele>
        <time>2023-08-25T12:24:51Z</time>
      </trkpt>
      <trkpt lat="57.899246988818049" lon="-5.157034993171692">
        <ele>12.630000000000001</ele>
        <time>2023-08-25T12:24:53Z</time>
      </trkpt>
      <trkpt lat="57.899054959416389" lon="-5.156891997903585">
        <ele>11.19</ele>
        <time>2023-08-25T12:24:56Z</time>
      </trkpt>
      <trkpt lat="57.898940965533257" lon="-5.156797030940652">
        <ele>10.23</ele>
        <time>2023-08-25T12:24:58Z</time>
      </trkpt>
      <trkpt lat="57.898698979988694" lon="-5.156597038730979">
        <ele>8.789999999999999</ele>
        <time>2023-08-25T12:25:02Z</time>
      </trkpt>
      <trkpt lat="57.898640977218747" lon="-5.156549010425806">
        <ele>8.310000000000001</ele>
        <time>2023-08-25T12:25:03Z</time>
      </trkpt>
      <trkpt lat="57.898571994155645" lon="-5.15649301931262">
        <ele>8.310000000000001</ele>
        <time>2023-08-25T12:25:04Z</time>
      </trkpt>
      <trkpt lat="57.897883001714945" lon="-5.155883990228176">
        <ele>7.35</ele>
        <time>2023-08-25T12:25:15Z</time>
      </trkpt>
      <trkpt lat="57.897066017612815" lon="-5.155227016657591">
        <ele>4.94</ele>
        <time>2023-08-25T12:25:27Z</time>
      </trkpt>
      <trkpt lat="57.89692796766758" lon="-5.155107993632555">
        <ele>3.98</ele>
        <time>2023-08-25T12:25:29Z</time>
      </trkpt>
      <trkpt lat="57.89686200208962" lon="-5.155052002519369">
        <ele>3.98</ele>
        <time>2023-08-25T12:25:30Z</time>
      </trkpt>
      <trkpt lat="57.896730992943048" lon="-5.154940020292997">
        <ele>3.5</ele>
        <time>2023-08-25T12:25:32Z</time>
      </trkpt>
      <trkpt lat="57.896675001829863" lon="-5.154891991987824">
        <ele>2.54</ele>
        <time>2023-08-25T12:25:33Z</time>
      </trkpt>
      <trkpt lat="57.896649017930031" lon="-5.154746985062957">
        <ele>2.54</ele>
        <time>2023-08-25T12:25:34Z</time>
      </trkpt>
      <trkpt lat="57.896656980738044" lon="-5.154621005058289">
        <ele>2.06</ele>
        <time>2023-08-25T12:25:35Z</time>
      </trkpt>
      <trkpt lat="57.89666703902185" lon="-5.154475998133421">
        <ele>1.58</ele>
        <time>2023-08-25T12:25:36Z</time>
      </trkpt>
      <trkpt lat="57.896793019026518" lon="-5.152570037171245">
        <ele>0.14</ele>
        <time>2023-08-25T12:25:47Z</time>
      </trkpt>
      <trkpt lat="57.89682000875473" lon="-5.151775013655424">
        <ele>0.62</ele>
        <time>2023-08-25T12:25:51Z</time>
      </trkpt>
      <trkpt lat="57.896783966571093" lon="-5.151359019801021">
        <ele>0.62</ele>
        <time>2023-08-25T12:25:53Z</time>
      </trkpt>
      <trkpt lat="57.896752031520009" lon="-5.151134971529245">
        <ele>1.1</ele>
        <time>2023-08-25T12:25:54Z</time>
      </trkpt>
      <trkpt lat="57.896694028750062" lon="-5.150940008461475">
        <ele>1.58</ele>
        <time>2023-08-25T12:25:55Z</time>
      </trkpt>
      <trkpt lat="57.896640971302986" lon="-5.150763988494873">
        <ele>2.06</ele>
        <time>2023-08-25T12:25:56Z</time>
      </trkpt>
      <trkpt lat="57.896553967148066" lon="-5.150582017377019">
        <ele>3.02</ele>
        <time>2023-08-25T12:25:57Z</time>
      </trkpt>
      <trkpt lat="57.896472997963428" lon="-5.15041496604681">
        <ele>3.98</ele>
        <time>2023-08-25T12:25:58Z</time>
      </trkpt>
      <trkpt lat="57.896391022950411" lon="-5.150243975222111">
        <ele>4.46</ele>
        <time>2023-08-25T12:25:59Z</time>
      </trkpt>
      <trkpt lat="57.8958769608289" lon="-5.148699022829533">
        <ele>8.789999999999999</ele>
        <time>2023-08-25T12:26:07Z</time>
      </trkpt>
      <trkpt lat="57.89533699862659" lon="-5.146169029176235">
        <ele>14.08</ele>
        <time>2023-08-25T12:26:19Z</time>
      </trkpt>
      <trkpt lat="57.894924022257328" lon="-5.144519973546267">
        <ele>19.359999999999999</ele>
        <time>2023-08-25T12:26:27Z</time>
      </trkpt>
      <trkpt lat="57.894837018102407" lon="-5.144357029348612">
        <ele>19.84</ele>
        <time>2023-08-25T12:26:28Z</time>
      </trkpt>
      <trkpt lat="57.894741967320442" lon="-5.14418100938201">
        <ele>20.32</ele>
        <time>2023-08-25T12:26:29Z</time>
      </trkpt>
      <trkpt lat="57.894645994529128" lon="-5.144000966101885">
        <ele>21.289999999999999</ele>
        <time>2023-08-25T12:26:30Z</time>
      </trkpt>
      <trkpt lat="57.894544992595911" lon="-5.143813965842128">
        <ele>22.25</ele>
        <time>2023-08-25T12:26:31Z</time>
      </trkpt>
      <trkpt lat="57.893563974648714" lon="-5.142580987885594">
        <ele>30.899999999999999</ele>
        <time>2023-08-25T12:26:39Z</time>
      </trkpt>
      <trkpt lat="57.893419973552227" lon="-5.142500018700957">
        <ele>32.340000000000003</ele>
        <time>2023-08-25T12:26:40Z</time>
      </trkpt>
      <trkpt lat="57.893269015476108" lon="-5.14242198318243">
        <ele>33.299999999999997</ele>
        <time>2023-08-25T12:26:41Z</time>
      </trkpt>
      <trkpt lat="57.891959007829428" lon="-5.141684962436557">
        <ele>41.950000000000003</ele>
        <time>2023-08-25T12:26:50Z</time>
      </trkpt>
      <trkpt lat="57.891824981197715" lon="-5.14158396050334">
        <ele>42.439999999999998</ele>
        <time>2023-08-25T12:26:51Z</time>
      </trkpt>
      <trkpt lat="57.891716016456485" lon="-5.141411041840911">
        <ele>42.439999999999998</ele>
        <time>2023-08-25T12:26:52Z</time>
      </trkpt>
      <trkpt lat="57.891617026180029" lon="-5.141215994954109">
        <ele>42.439999999999998</ele>
        <time>2023-08-25T12:26:53Z</time>
      </trkpt>
      <trkpt lat="57.891514012590051" lon="-5.141011979430914">
        <ele>42.439999999999998</ele>
        <time>2023-08-25T12:26:54Z</time>
      </trkpt>
      <trkpt lat="57.890448002144694" lon="-5.139138959348202">
        <ele>37.149999999999999</ele>
        <time>2023-08-25T12:27:03Z</time>
      </trkpt>
      <trkpt lat="57.890304001048207" lon="-5.138985989615321">
        <ele>36.670000000000002</ele>
        <time>2023-08-25T12:27:04Z</time>
      </trkpt>
      <trkpt lat="57.889376962557435" lon="-5.138010000810027">
        <ele>34.740000000000002</ele>
        <time>2023-08-25T12:27:11Z</time>
      </trkpt>
      <trkpt lat="57.889261962845922" lon="-5.137835992500186">
        <ele>34.259999999999998</ele>
        <time>2023-08-25T12:27:12Z</time>
      </trkpt>
      <trkpt lat="57.889158027246594" lon="-5.137636000290513">
        <ele>34.259999999999998</ele>
        <time>2023-08-25T12:27:13Z</time>
      </trkpt>
      <trkpt lat="57.888484038412571" lon="-5.136095993220806">
        <ele>32.82</ele>
        <time>2023-08-25T12:27:20Z</time>
      </trkpt>
      <trkpt lat="57.888378007337451" lon="-5.135903963819146">
        <ele>32.340000000000003</ele>
        <time>2023-08-25T12:27:21Z</time>
      </trkpt>
      <trkpt lat="57.888254960998893" lon="-5.135755017399788">
        <ele>32.340000000000003</ele>
        <time>2023-08-25T12:27:22Z</time>
      </trkpt>
      <trkpt lat="57.88811800070107" lon="-5.135630965232849">
        <ele>31.859999999999999</ele>
        <time>2023-08-25T12:27:23Z</time>
      </trkpt>
      <trkpt lat="57.887978022918105" lon="-5.13550297357142">
        <ele>31.859999999999999</ele>
        <time>2023-08-25T12:27:24Z</time>
      </trkpt>
      <trkpt lat="57.887836033478379" lon="-5.13537397608161">
        <ele>31.379999999999999</ele>
        <time>2023-08-25T12:27:25Z</time>
      </trkpt>
      <trkpt lat="57.886707996949553" lon="-5.134262032806873">
        <ele>28.02</ele>
        <time>2023-08-25T12:27:33Z</time>
      </trkpt>
      <trkpt lat="57.886169962584972" lon="-5.133275985717773">
        <ele>27.530000000000001</ele>
        <time>2023-08-25T12:27:38Z</time>
      </trkpt>
      <trkpt lat="57.885435959324241" lon="-5.131029970943928">
        <ele>36.189999999999998</ele>
        <time>2023-08-25T12:27:46Z</time>
      </trkpt>
      <trkpt lat="57.885333029553294" lon="-5.130765018984675">
        <ele>38.109999999999999</ele>
        <time>2023-08-25T12:27:47Z</time>
      </trkpt>
      <trkpt lat="57.885188022628427" lon="-5.13053803704679">
        <ele>40.030000000000001</ele>
        <time>2023-08-25T12:27:48Z</time>
      </trkpt>
      <trkpt lat="57.885041004046798" lon="-5.130307031795383">
        <ele>41.469999999999999</ele>
        <time>2023-08-25T12:27:49Z</time>
      </trkpt>
      <trkpt lat="57.884881999343634" lon="-5.130056999623776">
        <ele>42.439999999999998</ele>
        <time>2023-08-25T12:27:50Z</time>
      </trkpt>
      <trkpt lat="57.883124984800816" lon="-5.127625996246934">
        <ele>51.090000000000003</ele>
        <time>2023-08-25T12:28:01Z</time>
      </trkpt>
      <trkpt lat="57.882428029552102" lon="-5.126258991658688">
        <ele>53.009999999999998</ele>
        <time>2023-08-25T12:28:06Z</time>
      </trkpt>
      <trkpt lat="57.881068987771869" lon="-5.123941982164979">
        <ele>54.450000000000003</ele>
        <time>2023-08-25T12:28:15Z</time>
      </trkpt>
      <trkpt lat="57.880177991464734" lon="-5.121992016211152">
        <ele>47.719999999999999</ele>
        <time>2023-08-25T12:28:22Z</time>
      </trkpt>
      <trkpt lat="57.879369975998998" lon="-5.11971197091043">
        <ele>40.030000000000001</ele>
        <time>2023-08-25T12:28:29Z</time>
      </trkpt>
      <trkpt lat="57.87816901691258" lon="-5.116427019238472">
        <ele>32.340000000000003</ele>
        <time>2023-08-25T12:28:39Z</time>
      </trkpt>
      <trkpt lat="57.877251030877233" lon="-5.113805998116732">
        <ele>29.460000000000001</ele>
        <time>2023-08-25T12:28:47Z</time>
      </trkpt>
      <trkpt lat="57.876130035147071" lon="-5.110478969290853">
        <ele>27.050000000000001</ele>
        <time>2023-08-25T12:28:57Z</time>
      </trkpt>
      <trkpt lat="57.87486202083528" lon="-5.106704011559486">
        <ele>24.170000000000002</ele>
        <time>2023-08-25T12:29:08Z</time>
      </trkpt>
      <trkpt lat="57.873611021786928" lon="-5.102981021627784">
        <ele>25.609999999999999</ele>
        <time>2023-08-25T12:29:19Z</time>
      </trkpt>
      <trkpt lat="57.872692029923201" lon="-5.100566027686">
        <ele>27.530000000000001</ele>
        <time>2023-08-25T12:29:27Z</time>
      </trkpt>
      <trkpt lat="57.871825005859137" lon="-5.098491003736854">
        <ele>27.530000000000001</ele>
        <time>2023-08-25T12:29:34Z</time>
      </trkpt>
      <trkpt lat="57.871013972908258" lon="-5.096910009160638">
        <ele>27.530000000000001</ele>
        <time>2023-08-25T12:29:40Z</time>
      </trkpt>
      <trkpt lat="57.87069202400744" lon="-5.096481023356319">
        <ele>26.57</ele>
        <time>2023-08-25T12:29:42Z</time>
      </trkpt>
      <trkpt lat="57.87035197019577" lon="-5.096153039485216">
        <ele>25.609999999999999</ele>
        <time>2023-08-25T12:29:44Z</time>
      </trkpt>
      <trkpt lat="57.870175028219819" lon="-5.096008032560349">
        <ele>25.129999999999999</ele>
        <time>2023-08-25T12:29:45Z</time>
      </trkpt>
      <trkpt lat="57.868829984217882" lon="-5.095546022057533">
        <ele>22.25</ele>
        <time>2023-08-25T12:29:52Z</time>
      </trkpt>
      <trkpt lat="57.867915015667677" lon="-5.095358015969396">
        <ele>19.84</ele>
        <time>2023-08-25T12:29:57Z</time>
      </trkpt>
      <trkpt lat="57.867757016792893" lon="-5.095263971015811">
        <ele>19.359999999999999</ele>
        <time>2023-08-25T12:29:58Z</time>
      </trkpt>
      <trkpt lat="57.867608992382884" lon="-5.095146037638187">
        <ele>18.879999999999999</ele>
        <time>2023-08-25T12:29:59Z</time>
      </trkpt>
      <trkpt lat="57.867469014599919" lon="-5.094956019893289">
        <ele>18.399999999999999</ele>
        <time>2023-08-25T12:30:00Z</time>
      </trkpt>
      <trkpt lat="57.867329036816955" lon="-5.09476600214839">
        <ele>17.920000000000002</ele>
        <time>2023-08-25T12:30:01Z</time>
      </trkpt>
      <trkpt lat="57.867196016013622" lon="-5.094559974968433">
        <ele>17.440000000000001</ele>
        <time>2023-08-25T12:30:02Z</time>
      </trkpt>
      <trkpt lat="57.866022968664765" lon="-5.092707993462682">
        <ele>21.77</ele>
        <time>2023-08-25T12:30:10Z</time>
      </trkpt>
      <trkpt lat="57.864874983206391" lon="-5.091065978631377">
        <ele>23.210000000000001</ele>
        <time>2023-08-25T12:30:17Z</time>
      </trkpt>
      <trkpt lat="57.863587019965053" lon="-5.089538963511586">
        <ele>22.25</ele>
        <time>2023-08-25T12:30:25Z</time>
      </trkpt>
      <trkpt lat="57.862071990966797" lon="-5.087983030825853">
        <ele>22.25</ele>
        <time>2023-08-25T12:30:34Z</time>
      </trkpt>
      <trkpt lat="57.860842030495405" lon="-5.087019028142095">
        <ele>25.129999999999999</ele>
        <time>2023-08-25T12:30:41Z</time>
      </trkpt>
      <trkpt lat="57.86046601831913" lon="-5.086963037028909">
        <ele>26.57</ele>
        <time>2023-08-25T12:30:43Z</time>
      </trkpt>
      <trkpt lat="57.858648989349604" lon="-5.087234023958445">
        <ele>36.189999999999998</ele>
        <time>2023-08-25T12:30:52Z</time>
      </trkpt>
      <trkpt lat="57.857374018058181" lon="-5.087241986766458">
        <ele>39.549999999999997</ele>
        <time>2023-08-25T12:30:58Z</time>
      </trkpt>
      <trkpt lat="57.856822991743684" lon="-5.087149031460285">
        <ele>41.469999999999999</ele>
        <time>2023-08-25T12:31:01Z</time>
      </trkpt>
      <trkpt lat="57.856660969555378" lon="-5.087044006213546">
        <ele>42.439999999999998</ele>
        <time>2023-08-25T12:31:02Z</time>
      </trkpt>
      <trkpt lat="57.856494002044201" lon="-5.086917020380497">
        <ele>42.920000000000002</ele>
        <time>2023-08-25T12:31:03Z</time>
      </trkpt>
      <trkpt lat="57.856357963755727" lon="-5.086713004857302">
        <ele>43.399999999999999</ele>
        <time>2023-08-25T12:31:04Z</time>
      </trkpt>
      <trkpt lat="57.856221003457904" lon="-5.086507983505726">
        <ele>43.880000000000003</ele>
        <time>2023-08-25T12:31:05Z</time>
      </trkpt>
      <trkpt lat="57.856088988482952" lon="-5.086278989911079">
        <ele>44.359999999999999</ele>
        <time>2023-08-25T12:31:06Z</time>
      </trkpt>
      <trkpt lat="57.855969965457916" lon="-5.086009008809924">
        <ele>44.359999999999999</ele>
        <time>2023-08-25T12:31:07Z</time>
      </trkpt>
      <trkpt lat="57.855849014595151" lon="-5.085733998566866">
        <ele>44.359999999999999</ele>
        <time>2023-08-25T12:31:08Z</time>
      </trkpt>
      <trkpt lat="57.855466967448592" lon="-5.08488298393786">
        <ele>43.880000000000003</ele>
        <time>2023-08-25T12:31:11Z</time>
      </trkpt>
      <trkpt lat="57.855309974402189" lon="-5.084648039191961">
        <ele>43.880000000000003</ele>
        <time>2023-08-25T12:31:12Z</time>
      </trkpt>
      <trkpt lat="57.853870969265699" lon="-5.082536973059177">
        <ele>40.030000000000001</ele>
        <time>2023-08-25T12:31:21Z</time>
      </trkpt>
      <trkpt lat="57.852176986634731" lon="-5.080444011837244">
        <ele>34.259999999999998</ele>
        <time>2023-08-25T12:31:31Z</time>
      </trkpt>
      <trkpt lat="57.85069297067821" lon="-5.078967036679387">
        <ele>28.98</ele>
        <time>2023-08-25T12:31:40Z</time>
      </trkpt>
      <trkpt lat="57.849114993587136" lon="-5.078143011778593">
        <ele>25.609999999999999</ele>
        <time>2023-08-25T12:31:51Z</time>
      </trkpt>
      <trkpt lat="57.847621003165841" lon="-5.077503975480795">
        <ele>24.649999999999999</ele>
        <time>2023-08-25T12:32:00Z</time>
      </trkpt>
      <trkpt lat="57.844886993989348" lon="-5.077067026868463">
        <ele>22.25</ele>
        <time>2023-08-25T12:32:13Z</time>
      </trkpt>
      <trkpt lat="57.842037985101342" lon="-5.076303016394377">
        <ele>25.129999999999999</ele>
        <time>2023-08-25T12:32:27Z</time>
      </trkpt>
      <trkpt lat="57.839370025321841" lon="-5.074455980211496">
        <ele>22.73</ele>
        <time>2023-08-25T12:32:40Z</time>
      </trkpt>
      <trkpt lat="57.836223039776087" lon="-5.072476007044315">
        <ele>19.84</ele>
        <time>2023-08-25T12:32:55Z</time>
      </trkpt>
      <trkpt lat="57.833965960890055" lon="-5.070988973602653">
        <ele>18.879999999999999</ele>
        <time>2023-08-25T12:33:06Z</time>
      </trkpt>
      <trkpt lat="57.833557007834315" lon="-5.070663001388311">
        <ele>18.879999999999999</ele>
        <time>2023-08-25T12:33:08Z</time>
      </trkpt>
      <trkpt lat="57.831753976643085" lon="-5.068885032087565">
        <ele>17.920000000000002</ele>
        <time>2023-08-25T12:33:17Z</time>
      </trkpt>
      <trkpt lat="57.829630002379417" lon="-5.066676987335086">
        <ele>19.359999999999999</ele>
        <time>2023-08-25T12:33:28Z</time>
      </trkpt>
      <trkpt lat="57.827483983710408" lon="-5.065340995788574">
        <ele>12.630000000000001</ele>
        <time>2023-08-25T12:33:38Z</time>
      </trkpt>
      <trkpt lat="57.825340982526541" lon="-5.06442803889513">
        <ele>8.789999999999999</ele>
        <time>2023-08-25T12:33:48Z</time>
      </trkpt>
      <trkpt lat="57.822320982813835" lon="-5.063372002914548">
        <ele>13.6</ele>
        <time>2023-08-25T12:34:02Z</time>
      </trkpt>
      <trkpt lat="57.819702979177237" lon="-5.062653003260493">
        <ele>14.08</ele>
        <time>2023-08-25T12:34:14Z</time>
      </trkpt>
      <trkpt lat="57.818490033969283" lon="-5.061854040250182">
        <ele>14.56</ele>
        <time>2023-08-25T12:34:20Z</time>
      </trkpt>
      <trkpt lat="57.818315019831061" lon="-5.061609959229827">
        <ele>14.56</ele>
        <time>2023-08-25T12:34:21Z</time>
      </trkpt>
      <trkpt lat="57.816785993054509" lon="-5.059455977752805">
        <ele>11.19</ele>
        <time>2023-08-25T12:34:30Z</time>
      </trkpt>
      <trkpt lat="57.816612990573049" lon="-5.05929496139288">
        <ele>10.710000000000001</ele>
        <time>2023-08-25T12:34:31Z</time>
      </trkpt>
      <trkpt lat="57.816424984484911" lon="-5.059196976944804">
        <ele>10.23</ele>
        <time>2023-08-25T12:34:32Z</time>
      </trkpt>
      <trkpt lat="57.816230021417141" lon="-5.059124976396561">
        <ele>9.75</ele>
        <time>2023-08-25T12:34:33Z</time>
      </trkpt>
      <trkpt lat="57.816034974530339" lon="-5.059051970019937">
        <ele>9.27</ele>
        <time>2023-08-25T12:34:34Z</time>
      </trkpt>
      <trkpt lat="57.81584202311933" lon="-5.059049036353827">
        <ele>9.27</ele>
        <time>2023-08-25T12:34:35Z</time>
      </trkpt>
      <trkpt lat="57.815645970404148" lon="-5.059073008596897">
        <ele>8.789999999999999</ele>
        <time>2023-08-25T12:34:36Z</time>
      </trkpt>
      <trkpt lat="57.815451007336378" lon="-5.059095975011587">
        <ele>8.310000000000001</ele>
        <time>2023-08-25T12:34:37Z</time>
      </trkpt>
      <trkpt lat="57.813879987224936" lon="-5.059126988053322">
        <ele>6.87</ele>
        <time>2023-08-25T12:34:45Z</time>
      </trkpt>
      <trkpt lat="57.813679995015264" lon="-5.059049958363175">
        <ele>6.87</ele>
        <time>2023-08-25T12:34:46Z</time>
      </trkpt>
      <trkpt lat="57.812080979347229" lon="-5.058072963729501">
        <ele>7.83</ele>
        <time>2023-08-25T12:34:54Z</time>
      </trkpt>
      <trkpt lat="57.81167596578598" lon="-5.057907002046704">
        <ele>7.83</ele>
        <time>2023-08-25T12:34:56Z</time>
      </trkpt>
      <trkpt lat="57.811469016596675" lon="-5.057848999276757">
        <ele>8.310000000000001</ele>
        <time>2023-08-25T12:34:57Z</time>
      </trkpt>
      <trkpt lat="57.809429029002786" lon="-5.057258997112513">
        <ele>10.23</ele>
        <time>2023-08-25T12:35:07Z</time>
      </trkpt>
      <trkpt lat="57.807526001706719" lon="-5.056654997169972">
        <ele>9.27</ele>
        <time>2023-08-25T12:35:16Z</time>
      </trkpt>
      <trkpt lat="57.805867977440357" lon="-5.056141018867493">
        <ele>8.789999999999999</ele>
        <time>2023-08-25T12:35:24Z</time>
      </trkpt>
      <trkpt lat="57.805054010823369" lon="-5.05590196698904">
        <ele>9.27</ele>
        <time>2023-08-25T12:35:28Z</time>
      </trkpt>
      <trkpt lat="57.803819021210074" lon="-5.056196004152298">
        <ele>8.789999999999999</ele>
        <time>2023-08-25T12:35:34Z</time>
      </trkpt>
      <trkpt lat="57.803195994347334" lon="-5.05632902495563">
        <ele>7.35</ele>
        <time>2023-08-25T12:35:37Z</time>
      </trkpt>
      <trkpt lat="57.801329009234905" lon="-5.055679008364677">
        <ele>3.5</ele>
        <time>2023-08-25T12:35:46Z</time>
      </trkpt>
      <trkpt lat="57.799925040453672" lon="-5.054721040651202">
        <ele>2.54</ele>
        <time>2023-08-25T12:35:53Z</time>
      </trkpt>
      <trkpt lat="57.798553006723523" lon="-5.053498037159443">
        <ele>1.58</ele>
        <time>2023-08-25T12:36:00Z</time>
      </trkpt>
      <trkpt lat="57.796818036586046" lon="-5.051953000947833">
        <ele>2.06</ele>
        <time>2023-08-25T12:36:09Z</time>
      </trkpt>
      <trkpt lat="57.795313987880945" lon="-5.050417017191649">
        <ele>3.02</ele>
        <time>2023-08-25T12:36:17Z</time>
      </trkpt>
      <trkpt lat="57.793913036584854" lon="-5.048794029280543">
        <ele>3.5</ele>
        <time>2023-08-25T12:36:25Z</time>
      </trkpt>
      <trkpt lat="57.793641965836287" lon="-5.048412987962365">
        <ele>3.5</ele>
        <time>2023-08-25T12:36:27Z</time>
      </trkpt>
      <trkpt lat="57.793511962518096" lon="-5.04818600602448">
        <ele>3.98</ele>
        <time>2023-08-25T12:36:28Z</time>
      </trkpt>
      <trkpt lat="57.793381037190557" lon="-5.047927005216479">
        <ele>3.98</ele>
        <time>2023-08-25T12:36:29Z</time>
      </trkpt>
      <trkpt lat="57.79237998649478" lon="-5.04562902264297">
        <ele>3.5</ele>
        <time>2023-08-25T12:36:37Z</time>
      </trkpt>
      <trkpt lat="57.791201993823051" lon="-5.044136960059404">
        <ele>4.94</ele>
        <time>2023-08-25T12:36:44Z</time>
      </trkpt>
      <trkpt lat="57.789806993678212" lon="-5.04307103343308">
        <ele>5.91</ele>
        <time>2023-08-25T12:36:51Z</time>
      </trkpt>
      <trkpt lat="57.789605995640159" lon="-5.042925020679832">
        <ele>5.91</ele>
        <time>2023-08-25T12:36:52Z</time>
      </trkpt>
      <trkpt lat="57.787801958620548" lon="-5.041489033028483">
        <ele>9.27</ele>
        <time>2023-08-25T12:37:01Z</time>
      </trkpt>
      <trkpt lat="57.786219036206603" lon="-5.040259994566441">
        <ele>15.039999999999999</ele>
        <time>2023-08-25T12:37:09Z</time>
      </trkpt>
      <trkpt lat="57.785427030175924" lon="-5.039664041250944">
        <ele>17.920000000000002</ele>
        <time>2023-08-25T12:37:13Z</time>
      </trkpt>
      <trkpt lat="57.785228965803981" lon="-5.039515011012554">
        <ele>18.879999999999999</ele>
        <time>2023-08-25T12:37:14Z</time>
      </trkpt>
      <trkpt lat="57.785029979422688" lon="-5.039364974945784">
        <ele>19.359999999999999</ele>
        <time>2023-08-25T12:37:15Z</time>
      </trkpt>
      <trkpt lat="57.783558033406734" lon="-5.038113975897431">
        <ele>20.809999999999999</ele>
        <time>2023-08-25T12:37:23Z</time>
      </trkpt>
      <trkpt lat="57.781743016093969" lon="-5.037106974050403">
        <ele>19.84</ele>
        <time>2023-08-25T12:37:32Z</time>
      </trkpt>
      <trkpt lat="57.779648965224624" lon="-5.03641203045845">
        <ele>19.84</ele>
        <time>2023-08-25T12:37:42Z</time>
      </trkpt>
      <trkpt lat="57.777625992894173" lon="-5.035888999700546">
        <ele>23.210000000000001</ele>
        <time>2023-08-25T12:37:52Z</time>
      </trkpt>
      <trkpt lat="57.776178019121289" lon="-5.035879025235772">
        <ele>28.5</ele>
        <time>2023-08-25T12:37:59Z</time>
      </trkpt>
      <trkpt lat="57.774502979591489" lon="-5.036117993295193">
        <ele>34.740000000000002</ele>
        <time>2023-08-25T12:38:07Z</time>
      </trkpt>
      <trkpt lat="57.772344974800944" lon="-5.036367019638419">
        <ele>40.509999999999998</ele>
        <time>2023-08-25T12:38:17Z</time>
      </trkpt>
      <trkpt lat="57.772130984812975" lon="-5.036376994103193">
        <ele>41.469999999999999</ele>
        <time>2023-08-25T12:38:18Z</time>
      </trkpt>
      <trkpt lat="57.771255997940898" lon="-5.03643399104476">
        <ele>44.840000000000003</ele>
        <time>2023-08-25T12:38:22Z</time>
      </trkpt>
      <trkpt lat="57.76954198256135" lon="-5.036544967442751">
        <ele>50.130000000000003</ele>
        <time>2023-08-25T12:38:30Z</time>
      </trkpt>
      <trkpt lat="57.768956003710628" lon="-5.036524012684822">
        <ele>51.090000000000003</ele>
        <time>2023-08-25T12:38:33Z</time>
      </trkpt>
      <trkpt lat="57.767768036574125" lon="-5.035987989977002">
        <ele>53.490000000000002</ele>
        <time>2023-08-25T12:38:39Z</time>
      </trkpt>
      <trkpt lat="57.767571983858943" lon="-5.03589796833694">
        <ele>54.450000000000003</ele>
        <time>2023-08-25T12:38:40Z</time>
      </trkpt>
      <trkpt lat="57.767366040498018" lon="-5.035818004980683">
        <ele>55.409999999999997</ele>
        <time>2023-08-25T12:38:41Z</time>
      </trkpt>
      <trkpt lat="57.766334982588887" lon="-5.035391030833125">
        <ele>61.18</ele>
        <time>2023-08-25T12:38:46Z</time>
      </trkpt>
      <trkpt lat="57.764779971912503" lon="-5.034325020387769">
        <ele>74.640000000000001</ele>
        <time>2023-08-25T12:38:54Z</time>
      </trkpt>
      <trkpt lat="57.763046007603407" lon="-5.032039023935795">
        <ele>95.310000000000002</ele>
        <time>2023-08-25T12:39:04Z</time>
      </trkpt>
      <trkpt lat="57.762135984376073" lon="-5.030541010200977">
        <ele>102.04000000000001</ele>
        <time>2023-08-25T12:39:10Z</time>
      </trkpt>
      <trkpt lat="57.760804016143084" lon="-5.028809979557991">
        <ele>114.05</ele>
        <time>2023-08-25T12:39:19Z</time>
      </trkpt>
      <trkpt lat="57.759789973497391" lon="-5.026450976729393">
        <ele>130.40000000000001</ele>
        <time>2023-08-25T12:39:28Z</time>
      </trkpt>
      <trkpt lat="57.759468024596572" lon="-5.02569199539721">
        <ele>135.68000000000001</ele>
        <time>2023-08-25T12:39:31Z</time>
      </trkpt>
      <trkpt lat="57.759216986596584" lon="-5.025215987116098">
        <ele>138.56999999999999</ele>
        <time>2023-08-25T12:39:33Z</time>
      </trkpt>
      <trkpt lat="57.758912974968553" lon="-5.024845004081726">
        <ele>140.49000000000001</ele>
        <time>2023-08-25T12:39:35Z</time>
      </trkpt>
      <trkpt lat="57.758724968880415" lon="-5.024674013257027">
        <ele>140.97</ele>
        <time>2023-08-25T12:39:36Z</time>
      </trkpt>
      <trkpt lat="57.758531011641026" lon="-5.024507967755199">
        <ele>140.49000000000001</ele>
        <time>2023-08-25T12:39:37Z</time>
      </trkpt>
      <trkpt lat="57.757461983710527" lon="-5.023146998137236">
        <ele>139.53</ele>
        <time>2023-08-25T12:39:44Z</time>
      </trkpt>
      <trkpt lat="57.756431009620428" lon="-5.020955968648195">
        <ele>148.18000000000001</ele>
        <time>2023-08-25T12:39:52Z</time>
      </trkpt>
      <trkpt lat="57.7552530169487" lon="-5.018397979438305">
        <ele>154.91</ele>
        <time>2023-08-25T12:40:01Z</time>
      </trkpt>
      <trkpt lat="57.754270993173122" lon="-5.015994971618056">
        <ele>159.72</ele>
        <time>2023-08-25T12:40:09Z</time>
      </trkpt>
      <trkpt lat="57.753232978284359" lon="-5.012959968298674">
        <ele>169.81</ele>
        <time>2023-08-25T12:40:19Z</time>
      </trkpt>
      <trkpt lat="57.75306299328804" lon="-5.012313975021243">
        <ele>172.69</ele>
        <time>2023-08-25T12:40:21Z</time>
      </trkpt>
      <trkpt lat="57.752993004396558" lon="-5.011995965614915">
        <ele>173.66</ele>
        <time>2023-08-25T12:40:22Z</time>
      </trkpt>
      <trkpt lat="57.75278203189373" lon="-5.010857032611966">
        <ele>178.94</ele>
        <time>2023-08-25T12:40:27Z</time>
      </trkpt>
      <trkpt lat="57.752764010801911" lon="-5.010747984051704">
        <ele>179.90000000000001</ele>
        <time>2023-08-25T12:40:28Z</time>
      </trkpt>
      <trkpt lat="57.752751018851995" lon="-5.010671960189939">
        <ele>180.87</ele>
        <time>2023-08-25T12:40:29Z</time>
      </trkpt>
      <trkpt lat="57.752664014697075" lon="-5.010582022368908">
        <ele>181.34999999999999</ele>
        <time>2023-08-25T12:40:30Z</time>
      </trkpt>
      <trkpt lat="57.752623027190566" lon="-5.010626027360559">
        <ele>182.31</ele>
        <time>2023-08-25T12:40:31Z</time>
      </trkpt>
      <trkpt lat="57.75256996974349" lon="-5.010683024302125">
        <ele>183.27000000000001</ele>
        <time>2023-08-25T12:40:32Z</time>
      </trkpt>
      <trkpt lat="57.752501992508769" lon="-5.010756030678749">
        <ele>183.75</ele>
        <time>2023-08-25T12:40:33Z</time>
      </trkpt>
      <trkpt lat="57.752427980303764" lon="-5.010850997641683">
        <ele>184.71000000000001</ele>
        <time>2023-08-25T12:40:34Z</time>
      </trkpt>
      <trkpt lat="57.752364026382565" lon="-5.010978989303112">
        <ele>184.71000000000001</ele>
        <time>2023-08-25T12:40:35Z</time>
      </trkpt>
      <trkpt lat="57.752297976985574" lon="-5.011112010106444">
        <ele>184.71000000000001</ele>
        <time>2023-08-25T12:40:36Z</time>
      </trkpt>
      <trkpt lat="57.752261012792587" lon="-5.01127403229475">
        <ele>184.71000000000001</ele>
        <time>2023-08-25T12:40:37Z</time>
      </trkpt>
      <trkpt lat="57.752240980044007" lon="-5.011451980099082">
        <ele>185.19</ele>
        <time>2023-08-25T12:40:38Z</time>
      </trkpt>
      <trkpt lat="57.752221031114459" lon="-5.011635962873697">
        <ele>184.71000000000001</ele>
        <time>2023-08-25T12:40:39Z</time>
      </trkpt>
      <trkpt lat="57.752198986709118" lon="-5.011831009760499">
        <ele>184.71000000000001</ele>
        <time>2023-08-25T12:40:40Z</time>
      </trkpt>
      <trkpt lat="57.752091027796268" lon="-5.014134021475911">
        <ele>181.83000000000001</ele>
        <time>2023-08-25T12:40:50Z</time>
      </trkpt>
      <trkpt lat="57.752327984198928" lon="-5.016802987083793">
        <ele>182.31</ele>
        <time>2023-08-25T12:41:01Z</time>
      </trkpt>
      <trkpt lat="57.753067016601563" lon="-5.01872998662293">
        <ele>182.78999999999999</ele>
        <time>2023-08-25T12:41:09Z</time>
      </trkpt>
      <trkpt lat="57.754102014005184" lon="-5.021402975544334">
        <ele>183.75</ele>
        <time>2023-08-25T12:41:20Z</time>
      </trkpt>
      <trkpt lat="57.75441600009799" lon="-5.022303024306893">
        <ele>183.75</ele>
        <time>2023-08-25T12:41:24Z</time>
      </trkpt>
      <trkpt lat="57.754504010081291" lon="-5.02249002456665">
        <ele>184.22999999999999</ele>
        <time>2023-08-25T12:41:25Z</time>
      </trkpt>
      <trkpt lat="57.75461096316576" lon="-5.022653974592686">
        <ele>184.71000000000001</ele>
        <time>2023-08-25T12:41:26Z</time>
      </trkpt>
      <trkpt lat="57.754720011726022" lon="-5.022822031751275">
        <ele>184.71000000000001</ele>
        <time>2023-08-25T12:41:27Z</time>
      </trkpt>
      <trkpt lat="57.754840040579438" lon="-5.022955974563956">
        <ele>185.19</ele>
        <time>2023-08-25T12:41:28Z</time>
      </trkpt>
      <trkpt lat="57.754970965906978" lon="-5.02309201285243">
        <ele>185.19</ele>
        <time>2023-08-25T12:41:29Z</time>
      </trkpt>
      <trkpt lat="57.755990037694573" lon="-5.024439990520477">
        <ele>184.71000000000001</ele>
        <time>2023-08-25T12:41:38Z</time>
      </trkpt>
      <trkpt lat="57.756840968504548" lon="-5.026473021134734">
        <ele>182.78999999999999</ele>
        <time>2023-08-25T12:41:48Z</time>
      </trkpt>
      <trkpt lat="57.757764989510179" lon="-5.029184985905886">
        <ele>183.27000000000001</ele>
        <time>2023-08-25T12:42:00Z</time>
      </trkpt>
      <trkpt lat="57.75806799530983" lon="-5.03041997551918">
        <ele>184.71000000000001</ele>
        <time>2023-08-25T12:42:07Z</time>
      </trkpt>
      <trkpt lat="57.758104959502816" lon="-5.030570011585951">
        <ele>185.19</ele>
        <time>2023-08-25T12:42:13Z</time>
      </trkpt>
      <trkpt lat="57.758200010284781" lon="-5.030959015712142">
        <ele>187.11000000000001</ele>
        <time>2023-08-25T12:42:34Z</time>
      </trkpt>
      <trkpt lat="57.75862698443234" lon="-5.032489970326424">
        <ele>189.03999999999999</ele>
        <time>2023-08-25T12:42:42Z</time>
      </trkpt>
      <trkpt lat="57.758953040465713" lon="-5.033958982676268">
        <ele>192.88</ele>
        <time>2023-08-25T12:42:48Z</time>
      </trkpt>
      <trkpt lat="57.758990004658699" lon="-5.034204991534352">
        <ele>192.88</ele>
        <time>2023-08-25T12:42:49Z</time>
      </trkpt>
      <trkpt lat="57.758990004658699" lon="-5.034476984292269">
        <ele>192.88</ele>
        <time>2023-08-25T12:42:50Z</time>
      </trkpt>
      <trkpt lat="57.758990004658699" lon="-5.034756017848849">
        <ele>192.88</ele>
        <time>2023-08-25T12:42:51Z</time>
      </trkpt>
      <trkpt lat="57.75897198356688" lon="-5.035035973414779">
        <ele>192.88</ele>
        <time>2023-08-25T12:42:52Z</time>
      </trkpt>
      <trkpt lat="57.758944993838668" lon="-5.035323975607753">
        <ele>192.88</ele>
        <time>2023-08-25T12:42:53Z</time>
      </trkpt>
      <trkpt lat="57.7586480230093" lon="-5.038424022495747">
        <ele>192.40000000000001</ele>
        <time>2023-08-25T12:43:03Z</time>
      </trkpt>
      <trkpt lat="57.758070006966591" lon="-5.040740026161075">
        <ele>190.96000000000001</ele>
        <time>2023-08-25T12:43:11Z</time>
      </trkpt>
      <trkpt lat="57.757128970697522" lon="-5.043037002906203">
        <ele>189.52000000000001</ele>
        <time>2023-08-25T12:43:20Z</time>
      </trkpt>
      <trkpt lat="57.756040999665856" lon="-5.044389003887773">
        <ele>192.40000000000001</ele>
        <time>2023-08-25T12:43:28Z</time>
      </trkpt>
      <trkpt lat="57.754217013716698" lon="-5.04601500928402">
        <ele>192.40000000000001</ele>
        <time>2023-08-25T12:43:39Z</time>
      </trkpt>
      <trkpt lat="57.752508027479053" lon="-5.04786497913301">
        <ele>190.96000000000001</ele>
        <time>2023-08-25T12:43:49Z</time>
      </trkpt>
      <trkpt lat="57.751134987920523" lon="-5.049807988107204">
        <ele>197.21000000000001</ele>
        <time>2023-08-25T12:43:58Z</time>
      </trkpt>
      <trkpt lat="57.749570002779365" lon="-5.052307974547148">
        <ele>195.28</ele>
        <time>2023-08-25T12:44:08Z</time>
      </trkpt>
      <trkpt lat="57.748109037056565" lon="-5.055049024522305">
        <ele>196.25</ele>
        <time>2023-08-25T12:44:18Z</time>
      </trkpt>
      <trkpt lat="57.746928026899695" lon="-5.056510996073484">
        <ele>198.65000000000001</ele>
        <time>2023-08-25T12:44:25Z</time>
      </trkpt>
      <trkpt lat="57.745415009558201" lon="-5.057537024840713">
        <ele>200.56999999999999</ele>
        <time>2023-08-25T12:44:33Z</time>
      </trkpt>
      <trkpt lat="57.74526497349143" lon="-5.057740034535527">
        <ele>200.56999999999999</ele>
        <time>2023-08-25T12:44:34Z</time>
      </trkpt>
      <trkpt lat="57.745127007365227" lon="-5.057950001209974">
        <ele>201.05000000000001</ele>
        <time>2023-08-25T12:44:35Z</time>
      </trkpt>
      <trkpt lat="57.745012007653713" lon="-5.058224005624652">
        <ele>201.05000000000001</ele>
        <time>2023-08-25T12:44:36Z</time>
      </trkpt>
      <trkpt lat="57.744891978800297" lon="-5.058509996160865">
        <ele>201.53</ele>
        <time>2023-08-25T12:44:37Z</time>
      </trkpt>
      <trkpt lat="57.744798017665744" lon="-5.058825993910432">
        <ele>201.53</ele>
        <time>2023-08-25T12:44:38Z</time>
      </trkpt>
      <trkpt lat="57.744706990197301" lon="-5.059159006923437">
        <ele>201.53</ele>
        <time>2023-08-25T12:44:39Z</time>
      </trkpt>
      <trkpt lat="57.744615040719509" lon="-5.059496965259314">
        <ele>202.00999999999999</ele>
        <time>2023-08-25T12:44:40Z</time>
      </trkpt>
      <trkpt lat="57.743550958111882" lon="-5.062893982976675">
        <ele>206.81999999999999</ele>
        <time>2023-08-25T12:44:50Z</time>
      </trkpt>
      <trkpt lat="57.742470027878881" lon="-5.065742991864681">
        <ele>215.94999999999999</ele>
        <time>2023-08-25T12:44:59Z</time>
      </trkpt>
      <trkpt lat="57.741984967142344" lon="-5.067259026691318">
        <ele>220.28</ele>
        <time>2023-08-25T12:45:05Z</time>
      </trkpt>
      <trkpt lat="57.740985006093979" lon="-5.070383967831731">
        <ele>228.93000000000001</ele>
        <time>2023-08-25T12:45:15Z</time>
      </trkpt>
      <trkpt lat="57.73959000594914" lon="-5.074002016335726">
        <ele>241.91</ele>
        <time>2023-08-25T12:45:26Z</time>
      </trkpt>
      <trkpt lat="57.737930975854397" lon="-5.076463026925921">
        <ele>252.47999999999999</ele>
        <time>2023-08-25T12:45:35Z</time>
      </trkpt>
      <trkpt lat="57.736642006784678" lon="-5.078791016712785">
        <ele>258.25</ele>
        <time>2023-08-25T12:45:43Z</time>
      </trkpt>
      <trkpt lat="57.736039012670517" lon="-5.081555033102632">
        <ele>265.45999999999998</ele>
        <time>2023-08-25T12:45:50Z</time>
      </trkpt>
      <trkpt lat="57.735972963273525" lon="-5.082382997497916">
        <ele>267.86000000000001</ele>
        <time>2023-08-25T12:45:52Z</time>
      </trkpt>
      <trkpt lat="57.735945973545313" lon="-5.082797985523939">
        <ele>269.31</ele>
        <time>2023-08-25T12:45:53Z</time>
      </trkpt>
      <trkpt lat="57.735966006293893" lon="-5.083219008520246">
        <ele>270.75</ele>
        <time>2023-08-25T12:45:54Z</time>
      </trkpt>
      <trkpt lat="57.736267000436783" lon="-5.086117973551154">
        <ele>278.44</ele>
        <time>2023-08-25T12:46:01Z</time>
      </trkpt>
      <trkpt lat="57.73686203174293" lon="-5.088747963309288">
        <ele>284.20999999999998</ele>
        <time>2023-08-25T12:46:08Z</time>
      </trkpt>
      <trkpt lat="57.737136958166957" lon="-5.089643988758326">
        <ele>287.08999999999997</ele>
        <time>2023-08-25T12:46:11Z</time>
      </trkpt>
      <trkpt lat="57.737263021990657" lon="-5.089854961261153">
        <ele>288.05000000000001</ele>
        <time>2023-08-25T12:46:12Z</time>
      </trkpt>
      <trkpt lat="57.737393025308847" lon="-5.090071968734264">
        <ele>288.52999999999997</ele>
        <time>2023-08-25T12:46:13Z</time>
      </trkpt>
      <trkpt lat="57.737542977556586" lon="-5.090245977044106">
        <ele>289.49000000000001</ele>
        <time>2023-08-25T12:46:14Z</time>
      </trkpt>
      <trkpt lat="57.737713968381286" lon="-5.090420991182327">
        <ele>289.97000000000003</ele>
        <time>2023-08-25T12:46:15Z</time>
      </trkpt>
      <trkpt lat="57.73789300583303" lon="-5.090602962300181">
        <ele>290.94</ele>
        <time>2023-08-25T12:46:16Z</time>
      </trkpt>
      <trkpt lat="57.740098033100367" lon="-5.092741018161178">
        <ele>298.63</ele>
        <time>2023-08-25T12:46:27Z</time>
      </trkpt>
      <trkpt lat="57.742488970980048" lon="-5.095086023211479">
        <ele>305.83999999999997</ele>
        <time>2023-08-25T12:46:39Z</time>
      </trkpt>
      <trkpt lat="57.743811970576644" lon="-5.097467992454767">
        <ele>311.60000000000002</ele>
        <time>2023-08-25T12:46:47Z</time>
      </trkpt>
      <trkpt lat="57.745832009240985" lon="-5.10123398154974">
        <ele>314.00999999999999</ele>
        <time>2023-08-25T12:46:59Z</time>
      </trkpt>
      <trkpt lat="57.748064026236534" lon="-5.105269029736519">
        <ele>327.94999999999999</ele>
        <time>2023-08-25T12:47:12Z</time>
      </trkpt>
      <trkpt lat="57.748267035931349" lon="-5.105471033602953">
        <ele>328.43000000000001</ele>
        <time>2023-08-25T12:47:13Z</time>
      </trkpt>
      <trkpt lat="57.751162983477116" lon="-5.108381984755397">
        <ele>338.51999999999998</ele>
        <time>2023-08-25T12:47:27Z</time>
      </trkpt>
      <trkpt lat="57.753649977967143" lon="-5.111560989171267">
        <ele>345.73000000000002</ele>
        <time>2023-08-25T12:47:40Z</time>
      </trkpt>
      <trkpt lat="57.755766995251179" lon="-5.114497002214193">
        <ele>351.5</ele>
        <time>2023-08-25T12:47:52Z</time>
      </trkpt>
      <trkpt lat="57.756042005494237" lon="-5.114988014101982">
        <ele>350.54000000000002</ele>
        <time>2023-08-25T12:47:54Z</time>
      </trkpt>
      <trkpt lat="57.756150970235467" lon="-5.115292025730014">
        <ele>350.06</ele>
        <time>2023-08-25T12:47:55Z</time>
      </trkpt>
      <trkpt lat="57.757201977074146" lon="-5.11822896078229">
        <ele>341.88999999999999</ele>
        <time>2023-08-25T12:48:04Z</time>
      </trkpt>
      <trkpt lat="57.757865991443396" lon="-5.119757987558842">
        <ele>341.41000000000003</ele>
        <time>2023-08-25T12:48:10Z</time>
      </trkpt>
      <trkpt lat="57.758009992539883" lon="-5.11994699947536">
        <ele>341.41000000000003</ele>
        <time>2023-08-25T12:48:11Z</time>
      </trkpt>
      <trkpt lat="57.759666005149484" lon="-5.122106010094285">
        <ele>342.37</ele>
        <time>2023-08-25T12:48:21Z</time>
      </trkpt>
      <trkpt lat="57.760707959532738" lon="-5.123632019385696">
        <ele>341.88999999999999</ele>
        <time>2023-08-25T12:48:28Z</time>
      </trkpt>
      <trkpt lat="57.760827988386154" lon="-5.123905017971993">
        <ele>341.41000000000003</ele>
        <time>2023-08-25T12:48:29Z</time>
      </trkpt>
      <trkpt lat="57.760925972834229" lon="-5.124214980751276">
        <ele>340.92000000000002</ele>
        <time>2023-08-25T12:48:30Z</time>
      </trkpt>
      <trkpt lat="57.761939009651542" lon="-5.127115035429597">
        <ele>339.95999999999998</ele>
        <time>2023-08-25T12:48:39Z</time>
      </trkpt>
      <trkpt lat="57.763574989512563" lon="-5.130063034594059">
        <ele>342.37</ele>
        <time>2023-08-25T12:48:50Z</time>
      </trkpt>
      <trkpt lat="57.765232007950544" lon="-5.133232986554503">
        <ele>336.12</ele>
        <time>2023-08-25T12:49:01Z</time>
      </trkpt>
      <trkpt lat="57.766733039170504" lon="-5.137762986123562">
        <ele>326.01999999999998</ele>
        <time>2023-08-25T12:49:14Z</time>
      </trkpt>
      <trkpt lat="57.767936009913683" lon="-5.141653027385473">
        <ele>315.44999999999999</ele>
        <time>2023-08-25T12:49:25Z</time>
      </trkpt>
      <trkpt lat="57.770030982792377" lon="-5.145974988117814">
        <ele>306.31999999999999</ele>
        <time>2023-08-25T12:49:39Z</time>
      </trkpt>
      <trkpt lat="57.7721849642694" lon="-5.148633979260922">
        <ele>300.06999999999999</ele>
        <time>2023-08-25T12:49:50Z</time>
      </trkpt>
      <trkpt lat="57.774873040616512" lon="-5.151951033622026">
        <ele>296.69999999999999</ele>
        <time>2023-08-25T12:50:04Z</time>
      </trkpt>
      <trkpt lat="57.777562960982323" lon="-5.155271021649241">
        <ele>291.89999999999998</ele>
        <time>2023-08-25T12:50:18Z</time>
      </trkpt>
      <trkpt lat="57.780054984614253" lon="-5.158346006646752">
        <ele>289.49000000000001</ele>
        <time>2023-08-25T12:50:32Z</time>
      </trkpt>
      <trkpt lat="57.782033029943705" lon="-5.16042698174715">
        <ele>289.49000000000001</ele>
        <time>2023-08-25T12:50:43Z</time>
      </trkpt>
      <trkpt lat="57.78314396739006" lon="-5.16195198521018">
        <ele>290.94</ele>
        <time>2023-08-25T12:50:50Z</time>
      </trkpt>
      <trkpt lat="57.784928977489471" lon="-5.164698986336589">
        <ele>288.52999999999997</ele>
        <time>2023-08-25T12:51:02Z</time>
      </trkpt>
      <trkpt lat="57.785098040476441" lon="-5.164817003533244">
        <ele>287.56999999999999</ele>
        <time>2023-08-25T12:51:03Z</time>
      </trkpt>
      <trkpt lat="57.785269031301141" lon="-5.164933009073138">
        <ele>286.61000000000001</ele>
        <time>2023-08-25T12:51:04Z</time>
      </trkpt>
      <trkpt lat="57.786346022039652" lon="-5.165275996550918">
        <ele>278.92000000000002</ele>
        <time>2023-08-25T12:51:10Z</time>
      </trkpt>
      <trkpt lat="57.786506032571197" lon="-5.165253030136228">
        <ele>277.48000000000002</ele>
        <time>2023-08-25T12:51:11Z</time>
      </trkpt>
      <trkpt lat="57.786661013960838" lon="-5.165154961869121">
        <ele>276.04000000000002</ele>
        <time>2023-08-25T12:51:12Z</time>
      </trkpt>
      <trkpt lat="57.786818007007241" lon="-5.165030993521214">
        <ele>274.58999999999997</ele>
        <time>2023-08-25T12:51:13Z</time>
      </trkpt>
      <trkpt lat="57.786982962861657" lon="-5.164901996031404">
        <ele>273.63</ele>
        <time>2023-08-25T12:51:14Z</time>
      </trkpt>
      <trkpt lat="57.787148002535105" lon="-5.164771992713213">
        <ele>272.19</ele>
        <time>2023-08-25T12:51:15Z</time>
      </trkpt>
      <trkpt lat="57.787829032167792" lon="-5.164347030222416">
        <ele>266.89999999999998</ele>
        <time>2023-08-25T12:51:19Z</time>
      </trkpt>
      <trkpt lat="57.788036987185478" lon="-5.164347030222416">
        <ele>265.45999999999998</ele>
        <time>2023-08-25T12:51:20Z</time>
      </trkpt>
      <trkpt lat="57.788230022415519" lon="-5.164347030222416">
        <ele>264.01999999999998</ele>
        <time>2023-08-25T12:51:21Z</time>
      </trkpt>
      <trkpt lat="57.79031996615231" lon="-5.164425987750292">
        <ele>249.59999999999999</ele>
        <time>2023-08-25T12:51:31Z</time>
      </trkpt>
      <trkpt lat="57.790896976366639" lon="-5.164326997473836">
        <ele>245.27000000000001</ele>
        <time>2023-08-25T12:51:34Z</time>
      </trkpt>
      <trkpt lat="57.791078025475144" lon="-5.164208980277181">
        <ele>243.83000000000001</ele>
        <time>2023-08-25T12:51:35Z</time>
      </trkpt>
      <trkpt lat="57.79126301407814" lon="-5.164089035242796">
        <ele>242.38999999999999</ele>
        <time>2023-08-25T12:51:36Z</time>
      </trkpt>
      <trkpt lat="57.793055986985564" lon="-5.163230979815126">
        <ele>228.93000000000001</ele>
        <time>2023-08-25T12:51:45Z</time>
      </trkpt>
      <trkpt lat="57.793837012723088" lon="-5.162887992337346">
        <ele>224.61000000000001</ele>
        <time>2023-08-25T12:51:49Z</time>
      </trkpt>
      <trkpt lat="57.795637026429176" lon="-5.161185041069984">
        <ele>216.91</ele>
        <time>2023-08-25T12:51:59Z</time>
      </trkpt>
      <trkpt lat="57.796789035201073" lon="-5.159698007628322">
        <ele>210.66999999999999</ele>
        <time>2023-08-25T12:52:07Z</time>
      </trkpt>
      <trkpt lat="57.797006964683533" lon="-5.159388966858387">
        <ele>207.30000000000001</ele>
        <time>2023-08-25T12:52:13Z</time>
      </trkpt>
      <trkpt lat="57.797006964683533" lon="-5.159388966858387">
        <ele>206.34</ele>
        <time>2023-08-25T12:52:26Z</time>
      </trkpt>
      <trkpt lat="57.797006964683533" lon="-5.159388966858387">
        <ele>206.34</ele>
        <time>2023-08-25T12:53:14Z</time>
      </trkpt>
      <trkpt lat="57.79702297411859" lon="-5.159367006272078">
        <ele>205.86000000000001</ele>
        <time>2023-08-25T12:53:40Z</time>
      </trkpt>
      <trkpt lat="57.797054992988706" lon="-5.159320989623666">
        <ele>205.38</ele>
        <time>2023-08-25T12:53:41Z</time>
      </trkpt>
      <trkpt lat="57.797098997980356" lon="-5.159259969368577">
        <ele>204.90000000000001</ele>
        <time>2023-08-25T12:53:42Z</time>
      </trkpt>
      <trkpt lat="57.797570982947946" lon="-5.158592015504837">
        <ele>202.97999999999999</ele>
        <time>2023-08-25T12:53:47Z</time>
      </trkpt>
      <trkpt lat="57.798760961741209" lon="-5.156870959326625">
        <ele>200.56999999999999</ele>
        <time>2023-08-25T12:53:55Z</time>
      </trkpt>
      <trkpt lat="57.801030026748776" lon="-5.153353996574879">
        <ele>190.96000000000001</ele>
        <time>2023-08-25T12:54:09Z</time>
      </trkpt>
      <trkpt lat="57.802467020228505" lon="-5.151890013366938">
        <ele>178.94</ele>
        <time>2023-08-25T12:54:17Z</time>
      </trkpt>
      <trkpt lat="57.803704021498561" lon="-5.150966998189688">
        <ele>168.37</ele>
        <time>2023-08-25T12:54:24Z</time>
      </trkpt>
      <trkpt lat="57.805131040513515" lon="-5.15079801902175">
        <ele>158.75</ele>
        <time>2023-08-25T12:54:31Z</time>
      </trkpt>
      <trkpt lat="57.806554036214948" lon="-5.151032963767648">
        <ele>150.58000000000001</ele>
        <time>2023-08-25T12:54:38Z</time>
      </trkpt>
      <trkpt lat="57.806718992069364" lon="-5.151141006499529">
        <ele>149.62</ele>
        <time>2023-08-25T12:54:39Z</time>
      </trkpt>
      <trkpt lat="57.806888977065682" lon="-5.151288025081158">
        <ele>148.18000000000001</ele>
        <time>2023-08-25T12:54:40Z</time>
      </trkpt>
      <trkpt lat="57.807066002860665" lon="-5.151439988985658">
        <ele>147.69999999999999</ele>
        <time>2023-08-25T12:54:41Z</time>
      </trkpt>
      <trkpt lat="57.807246968150139" lon="-5.15159597620368">
        <ele>146.25999999999999</ele>
        <time>2023-08-25T12:54:42Z</time>
      </trkpt>
      <trkpt lat="57.807724988088012" lon="-5.152133004739881">
        <ele>143.84999999999999</ele>
        <time>2023-08-25T12:54:45Z</time>
      </trkpt>
      <trkpt lat="57.807858008891344" lon="-5.152332996949554">
        <ele>143.37</ele>
        <time>2023-08-25T12:54:46Z</time>
      </trkpt>
      <trkpt lat="57.807998992502689" lon="-5.152544975280762">
        <ele>142.88999999999999</ele>
        <time>2023-08-25T12:54:47Z</time>
      </trkpt>
      <trkpt lat="57.808082979172468" lon="-5.152811016887426">
        <ele>141.93000000000001</ele>
        <time>2023-08-25T12:54:48Z</time>
      </trkpt>
      <trkpt lat="57.808177024126053" lon="-5.153113016858697">
        <ele>141.44999999999999</ele>
        <time>2023-08-25T12:54:49Z</time>
      </trkpt>
      <trkpt lat="57.80827802605927" lon="-5.153436977416277">
        <ele>140.49000000000001</ele>
        <time>2023-08-25T12:54:50Z</time>
      </trkpt>
      <trkpt lat="57.80903298407793" lon="-5.155745018273592">
        <ele>135.19999999999999</ele>
        <time>2023-08-25T12:54:57Z</time>
      </trkpt>
      <trkpt lat="57.80916198156774" lon="-5.156017011031508">
        <ele>134.72</ele>
        <time>2023-08-25T12:54:58Z</time>
      </trkpt>
      <trkpt lat="57.810832997784019" lon="-5.158568965271115">
        <ele>133.75999999999999</ele>
        <time>2023-08-25T12:55:08Z</time>
      </trkpt>
      <trkpt lat="57.811362985521555" lon="-5.159637993201613">
        <ele>133.75999999999999</ele>
        <time>2023-08-25T12:55:12Z</time>
      </trkpt>
      <trkpt lat="57.811463987454772" lon="-5.159924989566207">
        <ele>134.24000000000001</ele>
        <time>2023-08-25T12:55:13Z</time>
      </trkpt>
      <trkpt lat="57.811511009931564" lon="-5.160229001194239">
        <ele>134.24000000000001</ele>
        <time>2023-08-25T12:55:14Z</time>
      </trkpt>
      <trkpt lat="57.811556020751595" lon="-5.160523038357496">
        <ele>134.72</ele>
        <time>2023-08-25T12:55:15Z</time>
      </trkpt>
      <trkpt lat="57.811598014086485" lon="-5.160800982266665">
        <ele>134.72</ele>
        <time>2023-08-25T12:55:16Z</time>
      </trkpt>
      <trkpt lat="57.811665991321206" lon="-5.162968039512634">
        <ele>134.24000000000001</ele>
        <time>2023-08-25T12:55:23Z</time>
      </trkpt>
      <trkpt lat="57.811701027676463" lon="-5.163284037262201">
        <ele>133.75999999999999</ele>
        <time>2023-08-25T12:55:24Z</time>
      </trkpt>
      <trkpt lat="57.811990035697818" lon="-5.165887037292123">
        <ele>126.06999999999999</ele>
        <time>2023-08-25T12:55:32Z</time>
      </trkpt>
      <trkpt lat="57.811979977414012" lon="-5.166181996464729">
        <ele>124.63</ele>
        <time>2023-08-25T12:55:33Z</time>
      </trkpt>
      <trkpt lat="57.811967991292477" lon="-5.166491959244013">
        <ele>123.19</ele>
        <time>2023-08-25T12:55:34Z</time>
      </trkpt>
      <trkpt lat="57.811861960217357" lon="-5.169302998110652">
        <ele>109.25</ele>
        <time>2023-08-25T12:55:43Z</time>
      </trkpt>
      <trkpt lat="57.811999004334211" lon="-5.171966012567282">
        <ele>95.310000000000002</ele>
        <time>2023-08-25T12:55:51Z</time>
      </trkpt>
      <trkpt lat="57.812093971297145" lon="-5.172592978924513">
        <ele>91.939999999999998</ele>
        <time>2023-08-25T12:55:53Z</time>
      </trkpt>
      <trkpt lat="57.812164966017008" lon="-5.172877963632345">
        <ele>90.019999999999996</ele>
        <time>2023-08-25T12:55:54Z</time>
      </trkpt>
      <trkpt lat="57.81225498765707" lon="-5.173131013289094">
        <ele>89.060000000000002</ele>
        <time>2023-08-25T12:55:55Z</time>
      </trkpt>
      <trkpt lat="57.812353977933526" lon="-5.173377022147179">
        <ele>87.620000000000005</ele>
        <time>2023-08-25T12:55:56Z</time>
      </trkpt>
      <trkpt lat="57.812480041757226" lon="-5.173563016578555">
        <ele>86.659999999999997</ele>
        <time>2023-08-25T12:55:57Z</time>
      </trkpt>
      <trkpt lat="57.812611972913146" lon="-5.173755967989564">
        <ele>85.209999999999994</ele>
        <time>2023-08-25T12:55:58Z</time>
      </trkpt>
      <trkpt lat="57.813938995823264" lon="-5.17546302638948">
        <ele>71.269999999999996</ele>
        <time>2023-08-25T12:56:07Z</time>
      </trkpt>
      <trkpt lat="57.814276032149792" lon="-5.175712974742055">
        <ele>69.349999999999994</ele>
        <time>2023-08-25T12:56:09Z</time>
      </trkpt>
      <trkpt lat="57.814464038237929" lon="-5.175815988332033">
        <ele>67.909999999999997</ele>
        <time>2023-08-25T12:56:10Z</time>
      </trkpt>
      <trkpt lat="57.816440993919969" lon="-5.17660497687757">
        <ele>60.219999999999999</ele>
        <time>2023-08-25T12:56:20Z</time>
      </trkpt>
      <trkpt lat="57.818630011752248" lon="-5.177467977628112">
        <ele>53.009999999999998</ele>
        <time>2023-08-25T12:56:31Z</time>
      </trkpt>
      <trkpt lat="57.819493012502789" lon="-5.177891012281179">
        <ele>50.609999999999999</ele>
        <time>2023-08-25T12:56:36Z</time>
      </trkpt>
      <trkpt lat="57.820839984342456" lon="-5.17892399802804">
        <ele>45.32</ele>
        <time>2023-08-25T12:56:44Z</time>
      </trkpt>
      <trkpt lat="57.820979040116072" lon="-5.179085014387965">
        <ele>44.359999999999999</ele>
        <time>2023-08-25T12:56:45Z</time>
      </trkpt>
      <trkpt lat="57.821117006242275" lon="-5.179244019091129">
        <ele>43.399999999999999</ele>
        <time>2023-08-25T12:56:46Z</time>
      </trkpt>
      <trkpt lat="57.821221025660634" lon="-5.179463038221002">
        <ele>42.439999999999998</ele>
        <time>2023-08-25T12:56:47Z</time>
      </trkpt>
      <trkpt lat="57.821327978745103" lon="-5.179708041250706">
        <ele>41.950000000000003</ele>
        <time>2023-08-25T12:56:48Z</time>
      </trkpt>
      <trkpt lat="57.821433003991842" lon="-5.179971987381578">
        <ele>41.469999999999999</ele>
        <time>2023-08-25T12:56:49Z</time>
      </trkpt>
      <trkpt lat="57.821840029209852" lon="-5.181061970070005">
        <ele>40.509999999999998</ele>
        <time>2023-08-25T12:56:53Z</time>
      </trkpt>
      <trkpt lat="57.821970032528043" lon="-5.181316025555134">
        <ele>40.509999999999998</ele>
        <time>2023-08-25T12:56:54Z</time>
      </trkpt>
      <trkpt lat="57.822091989219189" lon="-5.181553987786174">
        <ele>40.990000000000002</ele>
        <time>2023-08-25T12:56:55Z</time>
      </trkpt>
      <trkpt lat="57.823292026296258" lon="-5.183297004550695">
        <ele>42.920000000000002</ele>
        <time>2023-08-25T12:57:03Z</time>
      </trkpt>
      <trkpt lat="57.823606012389064" lon="-5.183636974543333">
        <ele>43.399999999999999</ele>
        <time>2023-08-25T12:57:05Z</time>
      </trkpt>
      <trkpt lat="57.824820969253778" lon="-5.184563007205725">
        <ele>44.840000000000003</ele>
        <time>2023-08-25T12:57:12Z</time>
      </trkpt>
      <trkpt lat="57.825988987460732" lon="-5.185152003541589">
        <ele>45.32</ele>
        <time>2023-08-25T12:57:18Z</time>
      </trkpt>
      <trkpt lat="57.827425980940461" lon="-5.185469007119536">
        <ele>44.359999999999999</ele>
        <time>2023-08-25T12:57:25Z</time>
      </trkpt>
      <trkpt lat="57.828679997473955" lon="-5.185629017651081">
        <ele>43.399999999999999</ele>
        <time>2023-08-25T12:57:31Z</time>
      </trkpt>
      <trkpt lat="57.830025041475892" lon="-5.185859017074108">
        <ele>43.399999999999999</ele>
        <time>2023-08-25T12:57:38Z</time>
      </trkpt>
      <trkpt lat="57.830184968188405" lon="-5.185938980430365">
        <ele>43.399999999999999</ele>
        <time>2023-08-25T12:57:39Z</time>
      </trkpt>
      <trkpt lat="57.830337015911937" lon="-5.186039982363582">
        <ele>43.399999999999999</ele>
        <time>2023-08-25T12:57:40Z</time>
      </trkpt>
      <trkpt lat="57.830470958724618" lon="-5.186198987066746">
        <ele>43.880000000000003</ele>
        <time>2023-08-25T12:57:41Z</time>
      </trkpt>
      <trkpt lat="57.830572966486216" lon="-5.186319015920162">
        <ele>43.880000000000003</ele>
        <time>2023-08-25T12:57:42Z</time>
      </trkpt>
      <trkpt lat="57.830670028924942" lon="-5.186580028384924">
        <ele>44.359999999999999</ele>
        <time>2023-08-25T12:57:43Z</time>
      </trkpt>
      <trkpt lat="57.830759966745973" lon="-5.186820002272725">
        <ele>44.840000000000003</ele>
        <time>2023-08-25T12:57:44Z</time>
      </trkpt>
      <trkpt lat="57.830855017527938" lon="-5.187071040272713">
        <ele>45.32</ele>
        <time>2023-08-25T12:57:45Z</time>
      </trkpt>
      <trkpt lat="57.830926012247801" lon="-5.187339009717107">
        <ele>45.32</ele>
        <time>2023-08-25T12:57:46Z</time>
      </trkpt>
      <trkpt lat="57.83098703250289" lon="-5.187654001638293">
        <ele>45.799999999999997</ele>
        <time>2023-08-25T12:57:47Z</time>
      </trkpt>
      <trkpt lat="57.831049980595708" lon="-5.187977040186524">
        <ele>46.280000000000001</ele>
        <time>2023-08-25T12:57:48Z</time>
      </trkpt>
      <trkpt lat="57.831516014412045" lon="-5.190041000023484">
        <ele>46.280000000000001</ele>
        <time>2023-08-25T12:57:54Z</time>
      </trkpt>
      <trkpt lat="57.831603018566966" lon="-5.190395973622799">
        <ele>46.280000000000001</ele>
        <time>2023-08-25T12:57:55Z</time>
      </trkpt>
      <trkpt lat="57.832878995686769" lon="-5.19359802827239">
        <ele>45.32</ele>
        <time>2023-08-25T12:58:05Z</time>
      </trkpt>
      <trkpt lat="57.833989011123776" lon="-5.195401981472969">
        <ele>44.359999999999999</ele>
        <time>2023-08-25T12:58:12Z</time>
      </trkpt>
      <trkpt lat="57.834156984463334" lon="-5.195656958967447">
        <ele>43.880000000000003</ele>
        <time>2023-08-25T12:58:13Z</time>
      </trkpt>
      <trkpt lat="57.835455005988479" lon="-5.197618994861841">
        <ele>38.590000000000003</ele>
        <time>2023-08-25T12:58:21Z</time>
      </trkpt>
      <trkpt lat="57.836409034207463" lon="-5.199366034939885">
        <ele>34.259999999999998</ele>
        <time>2023-08-25T12:58:28Z</time>
      </trkpt>
      <trkpt lat="57.837230041623116" lon="-5.202386034652591">
        <ele>32.82</ele>
        <time>2023-08-25T12:58:37Z</time>
      </trkpt>
      <trkpt lat="57.838018024340272" lon="-5.206448994576931">
        <ele>33.299999999999997</ele>
        <time>2023-08-25T12:58:48Z</time>
      </trkpt>
      <trkpt lat="57.839048998430371" lon="-5.21287196315825">
        <ele>31.379999999999999</ele>
        <time>2023-08-25T12:59:05Z</time>
      </trkpt>
      <trkpt lat="57.839343035593629" lon="-5.213840994983912">
        <ele>30.899999999999999</ele>
        <time>2023-08-25T12:59:08Z</time>
      </trkpt>
      <trkpt lat="57.840531002730131" lon="-5.216611968353391">
        <ele>24.649999999999999</ele>
        <time>2023-08-25T12:59:17Z</time>
      </trkpt>
      <trkpt lat="57.841569017618895" lon="-5.22017796523869">
        <ele>21.77</ele>
        <time>2023-08-25T12:59:28Z</time>
      </trkpt>
      <trkpt lat="57.842091964557767" lon="-5.222141006961465">
        <ele>21.77</ele>
        <time>2023-08-25T12:59:36Z</time>
      </trkpt>
      <trkpt lat="57.842358006164432" lon="-5.224217958748341">
        <ele>20.809999999999999</ele>
        <time>2023-08-25T12:59:43Z</time>
      </trkpt>
      <trkpt lat="57.842929987236857" lon="-5.226867981255055">
        <ele>21.289999999999999</ele>
        <time>2023-08-25T12:59:51Z</time>
      </trkpt>
      <trkpt lat="57.843941012397408" lon="-5.231737028807402">
        <ele>22.25</ele>
        <time>2023-08-25T13:00:05Z</time>
      </trkpt>
      <trkpt lat="57.844220967963338" lon="-5.234658038243651">
        <ele>22.73</ele>
        <time>2023-08-25T13:00:13Z</time>
      </trkpt>
      <trkpt lat="57.844471000134945" lon="-5.236329976469278">
        <ele>24.170000000000002</ele>
        <time>2023-08-25T13:00:18Z</time>
      </trkpt>
      <trkpt lat="57.844566972926259" lon="-5.236657038331032">
        <ele>24.170000000000002</ele>
        <time>2023-08-25T13:00:19Z</time>
      </trkpt>
      <trkpt lat="57.844665041193366" lon="-5.236990973353386">
        <ele>24.649999999999999</ele>
        <time>2023-08-25T13:00:20Z</time>
      </trkpt>
      <trkpt lat="57.845099978148937" lon="-5.238565010949969">
        <ele>26.57</ele>
        <time>2023-08-25T13:00:25Z</time>
      </trkpt>
      <trkpt lat="57.845584033057094" lon="-5.241436986252666">
        <ele>29.940000000000001</ele>
        <time>2023-08-25T13:00:33Z</time>
      </trkpt>
      <trkpt lat="57.846121983602643" lon="-5.244447011500597">
        <ele>33.299999999999997</ele>
        <time>2023-08-25T13:00:41Z</time>
      </trkpt>
      <trkpt lat="57.847305005416274" lon="-5.249660974368453">
        <ele>38.109999999999999</ele>
        <time>2023-08-25T13:00:55Z</time>
      </trkpt>
      <trkpt lat="57.848272025585175" lon="-5.25452901609242">
        <ele>40.509999999999998</ele>
        <time>2023-08-25T13:01:08Z</time>
      </trkpt>
      <trkpt lat="57.849139971658587" lon="-5.259015010669828">
        <ele>35.229999999999997</ele>
        <time>2023-08-25T13:01:20Z</time>
      </trkpt>
      <trkpt lat="57.849658979102969" lon="-5.261016022413969">
        <ele>34.740000000000002</ele>
        <time>2023-08-25T13:01:27Z</time>
      </trkpt>
      <trkpt lat="57.84974698908627" lon="-5.261261025443673">
        <ele>35.229999999999997</ele>
        <time>2023-08-25T13:01:28Z</time>
      </trkpt>
      <trkpt lat="57.849867017939687" lon="-5.261458000168204">
        <ele>35.710000000000001</ele>
        <time>2023-08-25T13:01:29Z</time>
      </trkpt>
      <trkpt lat="57.849988974630833" lon="-5.261655980721116">
        <ele>35.710000000000001</ele>
        <time>2023-08-25T13:01:30Z</time>
      </trkpt>
      <trkpt lat="57.851204015314579" lon="-5.263137985020876">
        <ele>39.549999999999997</ele>
        <time>2023-08-25T13:01:39Z</time>
      </trkpt>
      <trkpt lat="57.851385986432433" lon="-5.263530006632209">
        <ele>40.030000000000001</ele>
        <time>2023-08-25T13:01:41Z</time>
      </trkpt>
      <trkpt lat="57.851461004465818" lon="-5.263743996620178">
        <ele>40.509999999999998</ele>
        <time>2023-08-25T13:01:42Z</time>
      </trkpt>
      <trkpt lat="57.851539039984345" lon="-5.263967039063573">
        <ele>40.990000000000002</ele>
        <time>2023-08-25T13:01:43Z</time>
      </trkpt>
      <trkpt lat="57.851597964763641" lon="-5.264203995466232">
        <ele>41.469999999999999</ele>
        <time>2023-08-25T13:01:44Z</time>
      </trkpt>
      <trkpt lat="57.851638030260801" lon="-5.264470959082246">
        <ele>41.469999999999999</ele>
        <time>2023-08-25T13:01:45Z</time>
      </trkpt>
      <trkpt lat="57.85167801193893" lon="-5.264744041487575">
        <ele>41.950000000000003</ele>
        <time>2023-08-25T13:01:46Z</time>
      </trkpt>
      <trkpt lat="57.851718999445438" lon="-5.265017040073872">
        <ele>41.950000000000003</ele>
        <time>2023-08-25T13:01:47Z</time>
      </trkpt>
      <trkpt lat="57.852025022730231" lon="-5.26740001514554">
        <ele>43.399999999999999</ele>
        <time>2023-08-25T13:01:57Z</time>
      </trkpt>
      <trkpt lat="57.852372033521533" lon="-5.269847027957439">
        <ele>43.880000000000003</ele>
        <time>2023-08-25T13:02:05Z</time>
      </trkpt>
      <trkpt lat="57.852875031530857" lon="-5.273321997374296">
        <ele>42.920000000000002</ele>
        <time>2023-08-25T13:02:16Z</time>
      </trkpt>
      <trkpt lat="57.853146018460393" lon="-5.276806019246578">
        <ele>41.950000000000003</ele>
        <time>2023-08-25T13:02:26Z</time>
      </trkpt>
      <trkpt lat="57.853180970996618" lon="-5.2804209664464">
        <ele>41.950000000000003</ele>
        <time>2023-08-25T13:02:36Z</time>
      </trkpt>
      <trkpt lat="57.853146018460393" lon="-5.282896980643272">
        <ele>40.990000000000002</ele>
        <time>2023-08-25T13:02:43Z</time>
      </trkpt>
      <trkpt lat="57.853181976824999" lon="-5.283225970342755">
        <ele>40.990000000000002</ele>
        <time>2023-08-25T13:02:44Z</time>
      </trkpt>
      <trkpt lat="57.853725040331483" lon="-5.285888984799385">
        <ele>40.030000000000001</ele>
        <time>2023-08-25T13:02:52Z</time>
      </trkpt>
      <trkpt lat="57.854694994166493" lon="-5.289022978395224">
        <ele>38.590000000000003</ele>
        <time>2023-08-25T13:03:02Z</time>
      </trkpt>
      <trkpt lat="57.855553971603513" lon="-5.292524015530944">
        <ele>33.780000000000001</ele>
        <time>2023-08-25T13:03:12Z</time>
      </trkpt>
      <trkpt lat="57.856301972642541" lon="-5.294801965355873">
        <ele>30.899999999999999</ele>
        <time>2023-08-25T13:03:19Z</time>
      </trkpt>
      <trkpt lat="57.857087021693587" lon="-5.297585008665919">
        <ele>30.420000000000002</ele>
        <time>2023-08-25T13:03:27Z</time>
      </trkpt>
      <trkpt lat="57.85786502994597" lon="-5.299860024824739">
        <ele>32.82</ele>
        <time>2023-08-25T13:03:34Z</time>
      </trkpt>
      <trkpt lat="57.859232034534216" lon="-5.303127961233258">
        <ele>29.940000000000001</ele>
        <time>2023-08-25T13:03:45Z</time>
      </trkpt>
      <trkpt lat="57.860170975327492" lon="-5.306622963398695">
        <ele>30.420000000000002</ele>
        <time>2023-08-25T13:03:55Z</time>
      </trkpt>
      <trkpt lat="57.860525026917458" lon="-5.309186987578869">
        <ele>32.340000000000003</ele>
        <time>2023-08-25T13:04:02Z</time>
      </trkpt>
      <trkpt lat="57.860628040507436" lon="-5.310982977971435">
        <ele>33.299999999999997</ele>
        <time>2023-08-25T13:04:07Z</time>
      </trkpt>
      <trkpt lat="57.860656036064029" lon="-5.311287995427847">
        <ele>34.259999999999998</ele>
        <time>2023-08-25T13:04:08Z</time>
      </trkpt>
      <trkpt lat="57.860727030783892" lon="-5.311572980135679">
        <ele>34.740000000000002</ele>
        <time>2023-08-25T13:04:09Z</time>
      </trkpt>
      <trkpt lat="57.861355002969503" lon="-5.314487032592297">
        <ele>43.880000000000003</ele>
        <time>2023-08-25T13:04:18Z</time>
      </trkpt>
      <trkpt lat="57.861559018492699" lon="-5.317019037902355">
        <ele>49.649999999999999</ele>
        <time>2023-08-25T13:04:25Z</time>
      </trkpt>
      <trkpt lat="57.862214986234903" lon="-5.320900026708841">
        <ele>58.780000000000001</ele>
        <time>2023-08-25T13:04:36Z</time>
      </trkpt>
      <trkpt lat="57.862933985888958" lon="-5.324784033000469">
        <ele>60.219999999999999</ele>
        <time>2023-08-25T13:04:47Z</time>
      </trkpt>
      <trkpt lat="57.863144036382437" lon="-5.325912991538644">
        <ele>61.659999999999997</ele>
        <time>2023-08-25T13:04:51Z</time>
      </trkpt>
      <trkpt lat="57.86323799751699" lon="-5.326145002618432">
        <ele>62.140000000000001</ele>
        <time>2023-08-25T13:04:52Z</time>
      </trkpt>
      <trkpt lat="57.863335981965065" lon="-5.326380031183362">
        <ele>62.619999999999997</ele>
        <time>2023-08-25T13:04:53Z</time>
      </trkpt>
      <trkpt lat="57.863455004990101" lon="-5.326597038656473">
        <ele>63.100000000000001</ele>
        <time>2023-08-25T13:04:54Z</time>
      </trkpt>
      <trkpt lat="57.863587019965053" lon="-5.326798958703876">
        <ele>63.579999999999998</ele>
        <time>2023-08-25T13:04:55Z</time>
      </trkpt>
      <trkpt lat="57.863737978041172" lon="-5.326973972842097">
        <ele>64.069999999999993</ele>
        <time>2023-08-25T13:04:56Z</time>
      </trkpt>
      <trkpt lat="57.864799965173006" lon="-5.328286997973919">
        <ele>65.030000000000001</ele>
        <time>2023-08-25T13:05:03Z</time>
      </trkpt>
      <trkpt lat="57.86491496488452" lon="-5.328518003225327">
        <ele>65.030000000000001</ele>
        <time>2023-08-25T13:05:04Z</time>
      </trkpt>
      <trkpt lat="57.865015966817737" lon="-5.32878396101296">
        <ele>65.030000000000001</ele>
        <time>2023-08-25T13:05:05Z</time>
      </trkpt>
      <trkpt lat="57.865114035084844" lon="-5.329068023711443">
        <ele>65.510000000000005</ele>
        <time>2023-08-25T13:05:06Z</time>
      </trkpt>
      <trkpt lat="57.865212019532919" lon="-5.329354014247656">
        <ele>65.989999999999995</ele>
        <time>2023-08-25T13:05:07Z</time>
      </trkpt>
      <trkpt lat="57.865785006433725" lon="-5.331029975786805">
        <ele>66.950000000000003</ele>
        <time>2023-08-25T13:05:13Z</time>
      </trkpt>
      <trkpt lat="57.866605008020997" lon="-5.332868965342641">
        <ele>66.469999999999999</ele>
        <time>2023-08-25T13:05:23Z</time>
      </trkpt>
      <trkpt lat="57.867619972676039" lon="-5.334640983492136">
        <ele>64.069999999999993</ele>
        <time>2023-08-25T13:05:33Z</time>
      </trkpt>
      <trkpt lat="57.868456989526749" lon="-5.335734989494085">
        <ele>65.030000000000001</ele>
        <time>2023-08-25T13:05:40Z</time>
      </trkpt>
      <trkpt lat="57.86856503225863" lon="-5.335936993360519">
        <ele>65.510000000000005</ele>
        <time>2023-08-25T13:05:41Z</time>
      </trkpt>
      <trkpt lat="57.868642983958125" lon="-5.33617302775383">
        <ele>66.469999999999999</ele>
        <time>2023-08-25T13:05:42Z</time>
      </trkpt>
      <trkpt lat="57.868724958971143" lon="-5.336416019126773">
        <ele>66.950000000000003</ele>
        <time>2023-08-25T13:05:43Z</time>
      </trkpt>
      <trkpt lat="57.868786985054612" lon="-5.336691029369831">
        <ele>67.909999999999997</ele>
        <time>2023-08-25T13:05:44Z</time>
      </trkpt>
      <trkpt lat="57.868851022794843" lon="-5.336967967450619">
        <ele>68.870000000000005</ele>
        <time>2023-08-25T13:05:45Z</time>
      </trkpt>
      <trkpt lat="57.868915982544422" lon="-5.337252030149102">
        <ele>69.349999999999994</ele>
        <time>2023-08-25T13:05:46Z</time>
      </trkpt>
      <trkpt lat="57.869592988863587" lon="-5.340186031535268">
        <ele>81.370000000000005</ele>
        <time>2023-08-25T13:05:56Z</time>
      </trkpt>
      <trkpt lat="57.870640978217125" lon="-5.342938983812928">
        <ele>97.230000000000004</ele>
        <time>2023-08-25T13:06:06Z</time>
      </trkpt>
      <trkpt lat="57.872142009437084" lon="-5.346953999251127">
        <ele>114.05</ele>
        <time>2023-08-25T13:06:18Z</time>
      </trkpt>
      <trkpt lat="57.874161964282393" lon="-5.352841028943658">
        <ele>131.36000000000001</ele>
        <time>2023-08-25T13:06:34Z</time>
      </trkpt>
      <trkpt lat="57.87608896382153" lon="-5.357782999053598">
        <ele>153.47</ele>
        <time>2023-08-25T13:06:48Z</time>
      </trkpt>
      <trkpt lat="57.87733300589025" lon="-5.361475981771946">
        <ele>163.08000000000001</ele>
        <time>2023-08-25T13:06:58Z</time>
      </trkpt>
      <trkpt lat="57.879088008776307" lon="-5.368373030796647">
        <ele>177.97999999999999</ele>
        <time>2023-08-25T13:07:15Z</time>
      </trkpt>
      <trkpt lat="57.879504002630711" lon="-5.370274968445301">
        <ele>183.75</ele>
        <time>2023-08-25T13:07:20Z</time>
      </trkpt>
      <trkpt lat="57.879526969045401" lon="-5.370612004771829">
        <ele>184.71000000000001</ele>
        <time>2023-08-25T13:07:21Z</time>
      </trkpt>
      <trkpt lat="57.879525041207671" lon="-5.370934037491679">
        <ele>185.66999999999999</ele>
        <time>2023-08-25T13:07:22Z</time>
      </trkpt>
      <trkpt lat="57.879491010680795" lon="-5.371263027191162">
        <ele>186.63</ele>
        <time>2023-08-25T13:07:23Z</time>
      </trkpt>
      <trkpt lat="57.879456980153918" lon="-5.371599979698658">
        <ele>187.59</ele>
        <time>2023-08-25T13:07:24Z</time>
      </trkpt>
      <trkpt lat="57.879422027617693" lon="-5.37194799631834">
        <ele>188.56</ele>
        <time>2023-08-25T13:07:25Z</time>
      </trkpt>
      <trkpt lat="57.879269979894161" lon="-5.373445004224777">
        <ele>190.47999999999999</ele>
        <time>2023-08-25T13:07:29Z</time>
      </trkpt>
      <trkpt lat="57.879278026521206" lon="-5.373850017786026">
        <ele>190.47999999999999</ele>
        <time>2023-08-25T13:07:30Z</time>
      </trkpt>
      <trkpt lat="57.879300992935896" lon="-5.374260982498527">
        <ele>190.47999999999999</ele>
        <time>2023-08-25T13:07:31Z</time>
      </trkpt>
      <trkpt lat="57.879724027588964" lon="-5.377221973612905">
        <ele>185.19</ele>
        <time>2023-08-25T13:07:38Z</time>
      </trkpt>
      <trkpt lat="57.881219023838639" lon="-5.382281960919499">
        <ele>176.06</ele>
        <time>2023-08-25T13:07:50Z</time>
      </trkpt>
      <trkpt lat="57.883139988407493" lon="-5.387771017849445">
        <ele>171.25</ele>
        <time>2023-08-25T13:08:04Z</time>
      </trkpt>
      <trkpt lat="57.883725967258215" lon="-5.391356041654944">
        <ele>164.52000000000001</ele>
        <time>2023-08-25T13:08:12Z</time>
      </trkpt>
      <trkpt lat="57.884513027966022" lon="-5.397508023306727">
        <ele>143.84999999999999</ele>
        <time>2023-08-25T13:08:25Z</time>
      </trkpt>
      <trkpt lat="57.884667003527284" lon="-5.400686021894217">
        <ele>131.36000000000001</ele>
        <time>2023-08-25T13:08:32Z</time>
      </trkpt>
      <trkpt lat="57.88450799882412" lon="-5.404644962400198">
        <ele>115.01000000000001</ele>
        <time>2023-08-25T13:08:41Z</time>
      </trkpt>
      <trkpt lat="57.884342959150672" lon="-5.409422982484102">
        <ele>95.790000000000006</ele>
        <time>2023-08-25T13:08:52Z</time>
      </trkpt>
      <trkpt lat="57.883665030822158" lon="-5.413752989843488">
        <ele>73.200000000000003</ele>
        <time>2023-08-25T13:09:02Z</time>
      </trkpt>
      <trkpt lat="57.882832959294319" lon="-5.417728023603559">
        <ele>50.609999999999999</ele>
        <time>2023-08-25T13:09:12Z</time>
      </trkpt>
      <trkpt lat="57.882331972941756" lon="-5.419661980122328">
        <ele>38.109999999999999</ele>
        <time>2023-08-25T13:09:18Z</time>
      </trkpt>
      <trkpt lat="57.882280005142093" lon="-5.419984012842178">
        <ele>36.189999999999998</ele>
        <time>2023-08-25T13:09:19Z</time>
      </trkpt>
      <trkpt lat="57.882118988782167" lon="-5.420929994434118">
        <ele>29.940000000000001</ele>
        <time>2023-08-25T13:09:22Z</time>
      </trkpt>
      <trkpt lat="57.882032990455627" lon="-5.421224031597376">
        <ele>28.5</ele>
        <time>2023-08-25T13:09:23Z</time>
      </trkpt>
      <trkpt lat="57.88193098269403" lon="-5.421524019911885">
        <ele>27.050000000000001</ele>
        <time>2023-08-25T13:09:24Z</time>
      </trkpt>
      <trkpt lat="57.881012996658683" lon="-5.423911018297076">
        <ele>17.440000000000001</ele>
        <time>2023-08-25T13:09:32Z</time>
      </trkpt>
      <trkpt lat="57.880938984453678" lon="-5.424216035753489">
        <ele>16.960000000000001</ele>
        <time>2023-08-25T13:09:33Z</time>
      </trkpt>
      <trkpt lat="57.880868995562196" lon="-5.424508983269334">
        <ele>16.48</ele>
        <time>2023-08-25T13:09:34Z</time>
      </trkpt>
      <trkpt lat="57.880849968641996" lon="-5.424829004332423">
        <ele>16</ele>
        <time>2023-08-25T13:09:35Z</time>
      </trkpt>
      <trkpt lat="57.880831025540829" lon="-5.42514500208199">
        <ele>16</ele>
        <time>2023-08-25T13:09:36Z</time>
      </trkpt>
      <trkpt lat="57.880917023867369" lon="-5.428424002602696">
        <ele>15.039999999999999</ele>
        <time>2023-08-25T13:09:46Z</time>
      </trkpt>
      <trkpt lat="57.881080973893404" lon="-5.432186974212527">
        <ele>11.19</ele>
        <time>2023-08-25T13:09:57Z</time>
      </trkpt>
      <trkpt lat="57.881062030792236" lon="-5.432503977790475">
        <ele>11.19</ele>
        <time>2023-08-25T13:09:58Z</time>
      </trkpt>
      <trkpt lat="57.881041998043656" lon="-5.432829027995467">
        <ele>11.19</ele>
        <time>2023-08-25T13:09:59Z</time>
      </trkpt>
      <trkpt lat="57.880979971960187" lon="-5.433150976896286">
        <ele>11.19</ele>
        <time>2023-08-25T13:10:00Z</time>
      </trkpt>
      <trkpt lat="57.880913000553846" lon="-5.433474015444517">
        <ele>11.19</ele>
        <time>2023-08-25T13:10:01Z</time>
      </trkpt>
      <trkpt lat="57.880837982520461" lon="-5.433793030679226">
        <ele>11.19</ele>
        <time>2023-08-25T13:10:02Z</time>
      </trkpt>
      <trkpt lat="57.880219984799623" lon="-5.436609014868736">
        <ele>12.630000000000001</ele>
        <time>2023-08-25T13:10:10Z</time>
      </trkpt>
      <trkpt lat="57.880184026435018" lon="-5.436989972367883">
        <ele>13.119999999999999</ele>
        <time>2023-08-25T13:10:11Z</time>
      </trkpt>
      <trkpt lat="57.880066009238362" lon="-5.438095964491367">
        <ele>14.08</ele>
        <time>2023-08-25T13:10:14Z</time>
      </trkpt>
      <trkpt lat="57.880010018125176" lon="-5.438433000817895">
        <ele>14.56</ele>
        <time>2023-08-25T13:10:15Z</time>
      </trkpt>
      <trkpt lat="57.879921002313495" lon="-5.438716979697347">
        <ele>15.039999999999999</ele>
        <time>2023-08-25T13:10:16Z</time>
      </trkpt>
      <trkpt lat="57.879820000380278" lon="-5.438956031575799">
        <ele>15.52</ele>
        <time>2023-08-25T13:10:17Z</time>
      </trkpt>
      <trkpt lat="57.879722015932202" lon="-5.439188964664936">
        <ele>16</ele>
        <time>2023-08-25T13:10:18Z</time>
      </trkpt>
      <trkpt lat="57.879625037312508" lon="-5.439419969916344">
        <ele>16.960000000000001</ele>
        <time>2023-08-25T13:10:19Z</time>
      </trkpt>
      <trkpt lat="57.878402033820748" lon="-5.441333977505565">
        <ele>20.809999999999999</ele>
        <time>2023-08-25T13:10:28Z</time>
      </trkpt>
      <trkpt lat="57.878250991925597" lon="-5.441504968330264">
        <ele>20.32</ele>
        <time>2023-08-25T13:10:29Z</time>
      </trkpt>
      <trkpt lat="57.878095004707575" lon="-5.441630026325584">
        <ele>20.32</ele>
        <time>2023-08-25T13:10:30Z</time>
      </trkpt>
      <trkpt lat="57.877940023317933" lon="-5.441690962761641">
        <ele>19.84</ele>
        <time>2023-08-25T13:10:31Z</time>
      </trkpt>
      <trkpt lat="57.877788981422782" lon="-5.441751983016729">
        <ele>19.84</ele>
        <time>2023-08-25T13:10:32Z</time>
      </trkpt>
      <trkpt lat="57.877626037225127" lon="-5.44175298884511">
        <ele>19.359999999999999</ele>
        <time>2023-08-25T13:10:33Z</time>
      </trkpt>
      <trkpt lat="57.877463009208441" lon="-5.441722981631756">
        <ele>18.879999999999999</ele>
        <time>2023-08-25T13:10:34Z</time>
      </trkpt>
      <trkpt lat="57.877296963706613" lon="-5.441692974418402">
        <ele>18.879999999999999</ele>
        <time>2023-08-25T13:10:35Z</time>
      </trkpt>
      <trkpt lat="57.877132007852197" lon="-5.441594989970326">
        <ele>18.399999999999999</ele>
        <time>2023-08-25T13:10:36Z</time>
      </trkpt>
      <trkpt lat="57.87696897983551" lon="-5.441482001915574">
        <ele>17.920000000000002</ele>
        <time>2023-08-25T13:10:37Z</time>
      </trkpt>
      <trkpt lat="57.876807041466236" lon="-5.441369013860822">
        <ele>17.440000000000001</ele>
        <time>2023-08-25T13:10:38Z</time>
      </trkpt>
      <trkpt lat="57.876647030934691" lon="-5.441230041906238">
        <ele>16.960000000000001</ele>
        <time>2023-08-25T13:10:39Z</time>
      </trkpt>
      <trkpt lat="57.875422015786171" lon="-5.440278025344014">
        <ele>12.630000000000001</ele>
        <time>2023-08-25T13:10:46Z</time>
      </trkpt>
      <trkpt lat="57.874386012554169" lon="-5.439876029267907">
        <ele>7.83</ele>
        <time>2023-08-25T13:10:51Z</time>
      </trkpt>
      <trkpt lat="57.873991979286075" lon="-5.439723981544375">
        <ele>6.39</ele>
        <time>2023-08-25T13:10:53Z</time>
      </trkpt>
      <trkpt lat="57.873802967369556" lon="-5.439650975167751">
        <ele>5.91</ele>
        <time>2023-08-25T13:10:54Z</time>
      </trkpt>
      <trkpt lat="57.873158985748887" lon="-5.439478978514671">
        <ele>6.39</ele>
        <time>2023-08-25T13:10:58Z</time>
      </trkpt>
      <trkpt lat="57.8730149846524" lon="-5.439505968242884">
        <ele>7.35</ele>
        <time>2023-08-25T13:10:59Z</time>
      </trkpt>
      <trkpt lat="57.872861009091139" lon="-5.43953999876976">
        <ele>8.310000000000001</ele>
        <time>2023-08-25T13:11:00Z</time>
      </trkpt>
      <trkpt lat="57.871453016996384" lon="-5.439638989046216">
        <ele>16</ele>
        <time>2023-08-25T13:11:09Z</time>
      </trkpt>
      <trkpt lat="57.870953036472201" lon="-5.439555002376437">
        <ele>16.960000000000001</ele>
        <time>2023-08-25T13:11:12Z</time>
      </trkpt>
      <trkpt lat="57.870793025940657" lon="-5.439576962962747">
        <ele>16.960000000000001</ele>
        <time>2023-08-25T13:11:13Z</time>
      </trkpt>
      <trkpt lat="57.870641984045506" lon="-5.439647035673261">
        <ele>17.440000000000001</ele>
        <time>2023-08-25T13:11:14Z</time>
      </trkpt>
      <trkpt lat="57.870503012090921" lon="-5.439750971272588">
        <ele>17.440000000000001</ele>
        <time>2023-08-25T13:11:15Z</time>
      </trkpt>
      <trkpt lat="57.870367979630828" lon="-5.439875023439527">
        <ele>17.440000000000001</ele>
        <time>2023-08-25T13:11:16Z</time>
      </trkpt>
      <trkpt lat="57.870235964655876" lon="-5.440021036192775">
        <ele>17.920000000000002</ele>
        <time>2023-08-25T13:11:17Z</time>
      </trkpt>
      <trkpt lat="57.869801027700305" lon="-5.44044298119843">
        <ele>20.32</ele>
        <time>2023-08-25T13:11:20Z</time>
      </trkpt>
      <trkpt lat="57.86964101716876" lon="-5.440537026152015">
        <ele>20.809999999999999</ele>
        <time>2023-08-25T13:11:21Z</time>
      </trkpt>
      <trkpt lat="57.869475977495313" lon="-5.440583964809775">
        <ele>21.289999999999999</ele>
        <time>2023-08-25T13:11:22Z</time>
      </trkpt>
      <trkpt lat="57.869304986670613" lon="-5.440603997558355">
        <ele>21.77</ele>
        <time>2023-08-25T13:11:23Z</time>
      </trkpt>
      <trkpt lat="57.869136007502675" lon="-5.440624030306935">
        <ele>22.25</ele>
        <time>2023-08-25T13:11:24Z</time>
      </trkpt>
      <trkpt lat="57.868370991200209" lon="-5.440589999780059">
        <ele>24.649999999999999</ele>
        <time>2023-08-25T13:11:29Z</time>
      </trkpt>
      <trkpt lat="57.868250040337443" lon="-5.440555969253182">
        <ele>24.649999999999999</ele>
        <time>2023-08-25T13:11:30Z</time>
      </trkpt>
      <trkpt lat="57.868139985948801" lon="-5.440434012562037">
        <ele>24.649999999999999</ele>
        <time>2023-08-25T13:11:31Z</time>
      </trkpt>
      <trkpt lat="57.868031021207571" lon="-5.440293028950691">
        <ele>24.649999999999999</ele>
        <time>2023-08-25T13:11:32Z</time>
      </trkpt>
      <trkpt lat="57.867914009839296" lon="-5.440135030075908">
        <ele>25.129999999999999</ele>
        <time>2023-08-25T13:11:33Z</time>
      </trkpt>
      <trkpt lat="57.867103982716799" lon="-5.438730977475643">
        <ele>26.57</ele>
        <time>2023-08-25T13:11:39Z</time>
      </trkpt>
      <trkpt lat="57.866299990564585" lon="-5.437438990920782">
        <ele>29.460000000000001</ele>
        <time>2023-08-25T13:11:45Z</time>
      </trkpt>
      <trkpt lat="57.866128999739885" lon="-5.437315022572875">
        <ele>29.460000000000001</ele>
        <time>2023-08-25T13:11:46Z</time>
      </trkpt>
      <trkpt lat="57.865963038057089" lon="-5.437195999547839">
        <ele>29.460000000000001</ele>
        <time>2023-08-25T13:11:47Z</time>
      </trkpt>
      <trkpt lat="57.865786012262106" lon="-5.437116036191583">
        <ele>28.98</ele>
        <time>2023-08-25T13:11:48Z</time>
      </trkpt>
      <trkpt lat="57.865608986467123" lon="-5.437055015936494">
        <ele>28.5</ele>
        <time>2023-08-25T13:11:49Z</time>
      </trkpt>
      <trkpt lat="57.864800971001387" lon="-5.436774976551533">
        <ele>28.02</ele>
        <time>2023-08-25T13:11:54Z</time>
      </trkpt>
      <trkpt lat="57.864456977695227" lon="-5.436714962124825">
        <ele>29.460000000000001</ele>
        <time>2023-08-25T13:11:57Z</time>
      </trkpt>
      <trkpt lat="57.86435698159039" lon="-5.436757961288095">
        <ele>29.940000000000001</ele>
        <time>2023-08-25T13:11:58Z</time>
      </trkpt>
      <trkpt lat="57.864267965778708" lon="-5.436838008463383">
        <ele>30.420000000000002</ele>
        <time>2023-08-25T13:11:59Z</time>
      </trkpt>
      <trkpt lat="57.864176016300917" lon="-5.4369390103966">
        <ele>31.379999999999999</ele>
        <time>2023-08-25T13:12:00Z</time>
      </trkpt>
      <trkpt lat="57.864091023802757" lon="-5.437093991786242">
        <ele>31.859999999999999</ele>
        <time>2023-08-25T13:12:01Z</time>
      </trkpt>
      <trkpt lat="57.863150993362069" lon="-5.438789986073971">
        <ele>35.710000000000001</ele>
        <time>2023-08-25T13:12:10Z</time>
      </trkpt>
      <trkpt lat="57.861989010125399" lon="-5.440995013341308">
        <ele>37.149999999999999</ele>
        <time>2023-08-25T13:12:19Z</time>
      </trkpt>
      <trkpt lat="57.860729964450002" lon="-5.443847961723805">
        <ele>43.880000000000003</ele>
        <time>2023-08-25T13:12:29Z</time>
      </trkpt>
      <trkpt lat="57.859725980088115" lon="-5.445569017902017">
        <ele>44.840000000000003</ele>
        <time>2023-08-25T13:12:37Z</time>
      </trkpt>
      <trkpt lat="57.858297033235431" lon="-5.447494005784392">
        <ele>44.359999999999999</ele>
        <time>2023-08-25T13:12:46Z</time>
      </trkpt>
      <trkpt lat="57.85698501393199" lon="-5.448248963803053">
        <ele>43.880000000000003</ele>
        <time>2023-08-25T13:12:53Z</time>
      </trkpt>
      <trkpt lat="57.855395972728729" lon="-5.448688007891178">
        <ele>34.259999999999998</ele>
        <time>2023-08-25T13:13:01Z</time>
      </trkpt>
      <trkpt lat="57.855232022702694" lon="-5.448776017874479">
        <ele>32.340000000000003</ele>
        <time>2023-08-25T13:13:02Z</time>
      </trkpt>
      <trkpt lat="57.855101013556123" lon="-5.448952959850431">
        <ele>30.899999999999999</ele>
        <time>2023-08-25T13:13:03Z</time>
      </trkpt>
      <trkpt lat="57.854981990531087" lon="-5.449139960110188">
        <ele>28.98</ele>
        <time>2023-08-25T13:13:04Z</time>
      </trkpt>
      <trkpt lat="57.854862967506051" lon="-5.449326038360596">
        <ele>27.530000000000001</ele>
        <time>2023-08-25T13:13:05Z</time>
      </trkpt>
      <trkpt lat="57.854778980836272" lon="-5.449587972834706">
        <ele>26.09</ele>
        <time>2023-08-25T13:13:06Z</time>
      </trkpt>
      <trkpt lat="57.854688037186861" lon="-5.44987203553319">
        <ele>24.170000000000002</ele>
        <time>2023-08-25T13:13:07Z</time>
      </trkpt>
      <trkpt lat="57.854594998061657" lon="-5.450163977220655">
        <ele>22.25</ele>
        <time>2023-08-25T13:13:08Z</time>
      </trkpt>
      <trkpt lat="57.854314958676696" lon="-5.450988002121449">
        <ele>16.960000000000001</ele>
        <time>2023-08-25T13:13:11Z</time>
      </trkpt>
      <trkpt lat="57.85419300198555" lon="-5.451183971017599">
        <ele>15.52</ele>
        <time>2023-08-25T13:13:12Z</time>
      </trkpt>
      <trkpt lat="57.854075990617275" lon="-5.451373988762498">
        <ele>13.6</ele>
        <time>2023-08-25T13:13:13Z</time>
      </trkpt>
      <trkpt lat="57.853961996734142" lon="-5.451557971537113">
        <ele>12.15</ele>
        <time>2023-08-25T13:13:14Z</time>
      </trkpt>
      <trkpt lat="57.853827970102429" lon="-5.451641036197543">
        <ele>11.19</ele>
        <time>2023-08-25T13:13:15Z</time>
      </trkpt>
      <trkpt lat="57.853682041168213" lon="-5.451729968190193">
        <ele>10.23</ele>
        <time>2023-08-25T13:13:16Z</time>
      </trkpt>
      <trkpt lat="57.853510966524482" lon="-5.451837005093694">
        <ele>9.27</ele>
        <time>2023-08-25T13:13:17Z</time>
      </trkpt>
      <trkpt lat="57.853345004841685" lon="-5.451861983165145">
        <ele>8.789999999999999</ele>
        <time>2023-08-25T13:13:18Z</time>
      </trkpt>
      <trkpt lat="57.853165967389941" lon="-5.451889978721738">
        <ele>8.310000000000001</ele>
        <time>2023-08-25T13:13:19Z</time>
      </trkpt>
      <trkpt lat="57.852511005476117" lon="-5.451989974826574">
        <ele>7.83</ele>
        <time>2023-08-25T13:13:23Z</time>
      </trkpt>
      <trkpt lat="57.852375973016024" lon="-5.452019982039928">
        <ele>8.310000000000001</ele>
        <time>2023-08-25T13:13:24Z</time>
      </trkpt>
      <trkpt lat="57.852252004668117" lon="-5.452093994244933">
        <ele>8.789999999999999</ele>
        <time>2023-08-25T13:13:25Z</time>
      </trkpt>
      <trkpt lat="57.852127030491829" lon="-5.452169012278318">
        <ele>9.27</ele>
        <time>2023-08-25T13:13:26Z</time>
      </trkpt>
      <trkpt lat="57.852008007466793" lon="-5.452285017818213">
        <ele>9.27</ele>
        <time>2023-08-25T13:13:27Z</time>
      </trkpt>
      <trkpt lat="57.85189401358366" lon="-5.45243002474308">
        <ele>9.75</ele>
        <time>2023-08-25T13:13:28Z</time>
      </trkpt>
      <trkpt lat="57.85178697668016" lon="-5.452597998082638">
        <ele>9.75</ele>
        <time>2023-08-25T13:13:29Z</time>
      </trkpt>
      <trkpt lat="57.851686980575323" lon="-5.452789021655917">
        <ele>9.75</ele>
        <time>2023-08-25T13:13:30Z</time>
      </trkpt>
      <trkpt lat="57.85099002532661" lon="-5.454260967671871">
        <ele>8.789999999999999</ele>
        <time>2023-08-25T13:13:37Z</time>
      </trkpt>
      <trkpt lat="57.850917018949986" lon="-5.454473029822111">
        <ele>8.310000000000001</ele>
        <time>2023-08-25T13:13:38Z</time>
      </trkpt>
      <trkpt lat="57.850863039493561" lon="-5.454713003709912">
        <ele>8.310000000000001</ele>
        <time>2023-08-25T13:13:39Z</time>
      </trkpt>
      <trkpt lat="57.85084099508822" lon="-5.454968987032771">
        <ele>8.310000000000001</ele>
        <time>2023-08-25T13:13:40Z</time>
      </trkpt>
      <trkpt lat="57.850836971774697" lon="-5.455242991447449">
        <ele>8.310000000000001</ele>
        <time>2023-08-25T13:13:41Z</time>
      </trkpt>
      <trkpt lat="57.850855998694897" lon="-5.455510038882494">
        <ele>8.310000000000001</ele>
        <time>2023-08-25T13:13:42Z</time>
      </trkpt>
      <trkpt lat="57.850876031443477" lon="-5.455784965306521">
        <ele>7.83</ele>
        <time>2023-08-25T13:13:43Z</time>
      </trkpt>
      <trkpt lat="57.850895980373025" lon="-5.456074979156256">
        <ele>7.83</ele>
        <time>2023-08-25T13:13:44Z</time>
      </trkpt>
      <trkpt lat="57.850920958444476" lon="-5.457202009856701">
        <ele>8.310000000000001</ele>
        <time>2023-08-25T13:13:48Z</time>
      </trkpt>
      <trkpt lat="57.85090503282845" lon="-5.45747802592814">
        <ele>8.789999999999999</ele>
        <time>2023-08-25T13:13:49Z</time>
      </trkpt>
      <trkpt lat="57.850860022008419" lon="-5.457753958180547">
        <ele>8.789999999999999</ele>
        <time>2023-08-25T13:13:50Z</time>
      </trkpt>
      <trkpt lat="57.850436987355351" lon="-5.460370033979416">
        <ele>12.15</ele>
        <time>2023-08-25T13:13:59Z</time>
      </trkpt>
      <trkpt lat="57.850164994597435" lon="-5.462798019871116">
        <ele>14.56</ele>
        <time>2023-08-25T13:14:07Z</time>
      </trkpt>
      <trkpt lat="57.850056029856205" lon="-5.464131999760866">
        <ele>16.960000000000001</ele>
        <time>2023-08-25T13:14:12Z</time>
      </trkpt>
      <trkpt lat="57.850005989894271" lon="-5.464385971426964">
        <ele>17.920000000000002</ele>
        <time>2023-08-25T13:14:13Z</time>
      </trkpt>
      <trkpt lat="57.849420011043549" lon="-5.46663299202919">
        <ele>20.32</ele>
        <time>2023-08-25T13:14:22Z</time>
      </trkpt>
      <trkpt lat="57.849387992173433" lon="-5.466855028644204">
        <ele>20.809999999999999</ele>
        <time>2023-08-25T13:14:23Z</time>
      </trkpt>
      <trkpt lat="57.849376006051898" lon="-5.467086033895612">
        <ele>21.289999999999999</ele>
        <time>2023-08-25T13:14:24Z</time>
      </trkpt>
      <trkpt lat="57.849391009658575" lon="-5.467321984469891">
        <ele>22.25</ele>
        <time>2023-08-25T13:14:25Z</time>
      </trkpt>
      <trkpt lat="57.849431997165084" lon="-5.467531029134989">
        <ele>23.210000000000001</ele>
        <time>2023-08-25T13:14:26Z</time>
      </trkpt>
      <trkpt lat="57.849477007985115" lon="-5.467758011072874">
        <ele>24.170000000000002</ele>
        <time>2023-08-25T13:14:27Z</time>
      </trkpt>
      <trkpt lat="57.849556971341372" lon="-5.467910980805755">
        <ele>25.129999999999999</ele>
        <time>2023-08-25T13:14:28Z</time>
      </trkpt>
      <trkpt lat="57.849654033780098" lon="-5.468096975237131">
        <ele>26.57</ele>
        <time>2023-08-25T13:14:29Z</time>
      </trkpt>
      <trkpt lat="57.849756041541696" lon="-5.468268971890211">
        <ele>28.02</ele>
        <time>2023-08-25T13:14:30Z</time>
      </trkpt>
      <trkpt lat="57.849872969090939" lon="-5.46843602322042">
        <ele>28.98</ele>
        <time>2023-08-25T13:14:31Z</time>
      </trkpt>
      <trkpt lat="57.851050961762667" lon="-5.470061022788286">
        <ele>47.240000000000002</ele>
        <time>2023-08-25T13:14:40Z</time>
      </trkpt>
      <trkpt lat="57.85114198923111" lon="-5.470281969755888">
        <ele>49.649999999999999</ele>
        <time>2023-08-25T13:14:41Z</time>
      </trkpt>
      <trkpt lat="57.851229999214411" lon="-5.470495959743857">
        <ele>52.049999999999997</ele>
        <time>2023-08-25T13:14:42Z</time>
      </trkpt>
      <trkpt lat="57.851406019181013" lon="-5.470884963870049">
        <ele>56.369999999999997</ele>
        <time>2023-08-25T13:14:44Z</time>
      </trkpt>
      <trkpt lat="57.851514983922243" lon="-5.471041034907103">
        <ele>58.780000000000001</ele>
        <time>2023-08-25T13:14:45Z</time>
      </trkpt>
      <trkpt lat="57.851634006947279" lon="-5.471171960234642">
        <ele>60.700000000000003</ele>
        <time>2023-08-25T13:14:46Z</time>
      </trkpt>
      <trkpt lat="57.852859022095799" lon="-5.472598979249597">
        <ele>79.450000000000003</ele>
        <time>2023-08-25T13:14:55Z</time>
      </trkpt>
      <trkpt lat="57.852972010150552" lon="-5.472806012257934">
        <ele>81.370000000000005</ele>
        <time>2023-08-25T13:14:56Z</time>
      </trkpt>
      <trkpt lat="57.85303202457726" lon="-5.473022013902664">
        <ele>83.769999999999996</ele>
        <time>2023-08-25T13:14:57Z</time>
      </trkpt>
      <trkpt lat="57.853067982941866" lon="-5.47327296808362">
        <ele>85.689999999999998</ele>
        <time>2023-08-25T13:14:58Z</time>
      </trkpt>
      <trkpt lat="57.853078963235021" lon="-5.473504979163408">
        <ele>87.620000000000005</ele>
        <time>2023-08-25T13:14:59Z</time>
      </trkpt>
      <trkpt lat="57.853058008477092" lon="-5.473746964707971">
        <ele>89.540000000000006</ele>
        <time>2023-08-25T13:15:00Z</time>
      </trkpt>
      <trkpt lat="57.853023977950215" lon="-5.473981993272901">
        <ele>91.459999999999994</ele>
        <time>2023-08-25T13:15:01Z</time>
      </trkpt>
      <trkpt lat="57.852991037070751" lon="-5.474218027666211">
        <ele>93.870000000000005</ele>
        <time>2023-08-25T13:15:02Z</time>
      </trkpt>
      <trkpt lat="57.852464988827705" lon="-5.476414002478123">
        <ele>103.48</ele>
        <time>2023-08-25T13:15:11Z</time>
      </trkpt>
      <trkpt lat="57.851512972265482" lon="-5.478300014510751">
        <ele>93.390000000000001</ele>
        <time>2023-08-25T13:15:19Z</time>
      </trkpt>
      <trkpt lat="57.851424962282181" lon="-5.478547029197216">
        <ele>91.939999999999998</ele>
        <time>2023-08-25T13:15:20Z</time>
      </trkpt>
      <trkpt lat="57.851380035281181" lon="-5.478839976713061">
        <ele>90.5</ele>
        <time>2023-08-25T13:15:21Z</time>
      </trkpt>
      <trkpt lat="57.851349022239447" lon="-5.479105012491345">
        <ele>89.060000000000002</ele>
        <time>2023-08-25T13:15:22Z</time>
      </trkpt>
      <trkpt lat="57.85137701779604" lon="-5.47937398776412">
        <ele>87.620000000000005</ele>
        <time>2023-08-25T13:15:23Z</time>
      </trkpt>
      <trkpt lat="57.851412976160645" lon="-5.479619996622205">
        <ele>86.180000000000007</ele>
        <time>2023-08-25T13:15:24Z</time>
      </trkpt>
      <trkpt lat="57.851477013900876" lon="-5.479854019358754">
        <ele>85.209999999999994</ele>
        <time>2023-08-25T13:15:25Z</time>
      </trkpt>
      <trkpt lat="57.851557983085513" lon="-5.48006197437644">
        <ele>83.769999999999996</ele>
        <time>2023-08-25T13:15:26Z</time>
      </trkpt>
      <trkpt lat="57.851665019989014" lon="-5.480231959372759">
        <ele>82.329999999999998</ele>
        <time>2023-08-25T13:15:27Z</time>
      </trkpt>
      <trkpt lat="57.851772978901863" lon="-5.480375038459897">
        <ele>81.370000000000005</ele>
        <time>2023-08-25T13:15:28Z</time>
      </trkpt>
      <trkpt lat="57.851928966119885" lon="-5.480459025129676">
        <ele>79.930000000000007</ele>
        <time>2023-08-25T13:15:29Z</time>
      </trkpt>
      <trkpt lat="57.852077996358275" lon="-5.480530019849539">
        <ele>78.969999999999999</ele>
        <time>2023-08-25T13:15:30Z</time>
      </trkpt>
      <trkpt lat="57.85223700106144" lon="-5.480559021234512">
        <ele>78</ele>
        <time>2023-08-25T13:15:31Z</time>
      </trkpt>
      <trkpt lat="57.852396005764604" lon="-5.480587016791105">
        <ele>76.560000000000002</ele>
        <time>2023-08-25T13:15:32Z</time>
      </trkpt>
      <trkpt lat="57.853149035945535" lon="-5.480796983465552">
        <ele>71.760000000000005</ele>
        <time>2023-08-25T13:15:37Z</time>
      </trkpt>
      <trkpt lat="57.853267975151539" lon="-5.480899997055531">
        <ele>70.790000000000006</ele>
        <time>2023-08-25T13:15:38Z</time>
      </trkpt>
      <trkpt lat="57.853378029540181" lon="-5.481040980666876">
        <ele>69.829999999999998</ele>
        <time>2023-08-25T13:15:39Z</time>
      </trkpt>
      <trkpt lat="57.853489005938172" lon="-5.481183975934982">
        <ele>68.870000000000005</ele>
        <time>2023-08-25T13:15:40Z</time>
      </trkpt>
      <trkpt lat="57.853566035628319" lon="-5.481382040306926">
        <ele>67.430000000000007</ele>
        <time>2023-08-25T13:15:41Z</time>
      </trkpt>
      <trkpt lat="57.853639964014292" lon="-5.481608016416431">
        <ele>66.469999999999999</ele>
        <time>2023-08-25T13:15:42Z</time>
      </trkpt>
      <trkpt lat="57.853716993704438" lon="-5.481845978647471">
        <ele>65.989999999999995</ele>
        <time>2023-08-25T13:15:43Z</time>
      </trkpt>
      <trkpt lat="57.853782037273049" lon="-5.482107996940613">
        <ele>65.030000000000001</ele>
        <time>2023-08-25T13:15:44Z</time>
      </trkpt>
      <trkpt lat="57.853820007294416" lon="-5.482405973598361">
        <ele>64.069999999999993</ele>
        <time>2023-08-25T13:15:45Z</time>
      </trkpt>
      <trkpt lat="57.853859988972545" lon="-5.482713002711535">
        <ele>63.100000000000001</ele>
        <time>2023-08-25T13:15:46Z</time>
      </trkpt>
      <trkpt lat="57.853999966755509" lon="-5.484157958999276">
        <ele>57.82</ele>
        <time>2023-08-25T13:15:51Z</time>
      </trkpt>
      <trkpt lat="57.853985968977213" lon="-5.484402040019631">
        <ele>57.340000000000003</ele>
        <time>2023-08-25T13:15:52Z</time>
      </trkpt>
      <trkpt lat="57.853950010612607" lon="-5.484638996422291">
        <ele>56.859999999999999</ele>
        <time>2023-08-25T13:15:53Z</time>
      </trkpt>
      <trkpt lat="57.853912962600589" lon="-5.484876036643982">
        <ele>56.369999999999997</ele>
        <time>2023-08-25T13:15:54Z</time>
      </trkpt>
      <trkpt lat="57.853875998407602" lon="-5.485117016360164">
        <ele>55.890000000000001</ele>
        <time>2023-08-25T13:15:55Z</time>
      </trkpt>
      <trkpt lat="57.853811960667372" lon="-5.485341986641288">
        <ele>55.890000000000001</ele>
        <time>2023-08-25T13:15:56Z</time>
      </trkpt>
      <trkpt lat="57.853464027866721" lon="-5.486559960991144">
        <ele>53.009999999999998</ele>
        <time>2023-08-25T13:16:01Z</time>
      </trkpt>
      <trkpt lat="57.853433014824986" lon="-5.486846035346389">
        <ele>52.049999999999997</ele>
        <time>2023-08-25T13:16:02Z</time>
      </trkpt>
      <trkpt lat="57.853415999561548" lon="-5.487111993134022">
        <ele>51.57</ele>
        <time>2023-08-25T13:16:03Z</time>
      </trkpt>
      <trkpt lat="57.853417005389929" lon="-5.487393038347364">
        <ele>50.130000000000003</ele>
        <time>2023-08-25T13:16:04Z</time>
      </trkpt>
      <trkpt lat="57.853454975411296" lon="-5.487641980871558">
        <ele>49.159999999999997</ele>
        <time>2023-08-25T13:16:05Z</time>
      </trkpt>
      <trkpt lat="57.853503003716469" lon="-5.48790299333632">
        <ele>47.719999999999999</ele>
        <time>2023-08-25T13:16:06Z</time>
      </trkpt>
      <trkpt lat="57.853582967072725" lon="-5.488133998587728">
        <ele>46.280000000000001</ele>
        <time>2023-08-25T13:16:07Z</time>
      </trkpt>
      <trkpt lat="57.853666031733155" lon="-5.488374978303909">
        <ele>44.840000000000003</ele>
        <time>2023-08-25T13:16:08Z</time>
      </trkpt>
      <trkpt lat="57.853749012574553" lon="-5.488616041839123">
        <ele>43.399999999999999</ele>
        <time>2023-08-25T13:16:09Z</time>
      </trkpt>
      <trkpt lat="57.854007007554173" lon="-5.489253988489509">
        <ele>40.509999999999998</ele>
        <time>2023-08-25T13:16:12Z</time>
      </trkpt>
      <trkpt lat="57.854100968688726" lon="-5.489434031769633">
        <ele>39.549999999999997</ele>
        <time>2023-08-25T13:16:13Z</time>
      </trkpt>
      <trkpt lat="57.854199036955833" lon="-5.489570992067456">
        <ele>39.07</ele>
        <time>2023-08-25T13:16:14Z</time>
      </trkpt>
      <trkpt lat="57.854319987818599" lon="-5.489660007879138">
        <ele>38.109999999999999</ele>
        <time>2023-08-25T13:16:15Z</time>
      </trkpt>
      <trkpt lat="57.854444039985538" lon="-5.489751035347581">
        <ele>37.149999999999999</ele>
        <time>2023-08-25T13:16:16Z</time>
      </trkpt>
      <trkpt lat="57.854570019990206" lon="-5.489844996482134">
        <ele>36.670000000000002</ele>
        <time>2023-08-25T13:16:17Z</time>
      </trkpt>
      <trkpt lat="57.854698011651635" lon="-5.48992495983839">
        <ele>35.710000000000001</ele>
        <time>2023-08-25T13:16:18Z</time>
      </trkpt>
      <trkpt lat="57.855814984068274" lon="-5.490594003349543">
        <ele>36.670000000000002</ele>
        <time>2023-08-25T13:16:26Z</time>
      </trkpt>
      <trkpt lat="57.857863018289208" lon="-5.492433998733759">
        <ele>43.880000000000003</ele>
        <time>2023-08-25T13:16:40Z</time>
      </trkpt>
      <trkpt lat="57.858663992956281" lon="-5.493654990568757">
        <ele>45.799999999999997</ele>
        <time>2023-08-25T13:16:47Z</time>
      </trkpt>
      <trkpt lat="57.859234968200326" lon="-5.495605040341616">
        <ele>40.030000000000001</ele>
        <time>2023-08-25T13:16:54Z</time>
      </trkpt>
      <trkpt lat="57.860221015289426" lon="-5.500053986907005">
        <ele>18.399999999999999</ele>
        <time>2023-08-25T13:17:07Z</time>
      </trkpt>
      <trkpt lat="57.860532989725471" lon="-5.502588003873825">
        <ele>14.56</ele>
        <time>2023-08-25T13:17:15Z</time>
      </trkpt>
      <trkpt lat="57.860657041892409" lon="-5.505883013829589">
        <ele>17.440000000000001</ele>
        <time>2023-08-25T13:17:25Z</time>
      </trkpt>
      <trkpt lat="57.860676990821958" lon="-5.507231997326016">
        <ele>20.32</ele>
        <time>2023-08-25T13:17:29Z</time>
      </trkpt>
      <trkpt lat="57.860733987763524" lon="-5.507568027824163">
        <ele>21.77</ele>
        <time>2023-08-25T13:17:30Z</time>
      </trkpt>
      <trkpt lat="57.860796013846993" lon="-5.507911015301943">
        <ele>23.210000000000001</ele>
        <time>2023-08-25T13:17:31Z</time>
      </trkpt>
      <trkpt lat="57.860859967768192" lon="-5.508261965587735">
        <ele>24.170000000000002</ele>
        <time>2023-08-25T13:17:32Z</time>
      </trkpt>
      <trkpt lat="57.860924005508423" lon="-5.508616017177701">
        <ele>25.129999999999999</ele>
        <time>2023-08-25T13:17:33Z</time>
      </trkpt>
      <trkpt lat="57.861550971865654" lon="-5.5109559930861">
        <ele>30.899999999999999</ele>
        <time>2023-08-25T13:17:40Z</time>
      </trkpt>
      <trkpt lat="57.861677035689354" lon="-5.51123502664268">
        <ele>31.379999999999999</ele>
        <time>2023-08-25T13:17:41Z</time>
      </trkpt>
      <trkpt lat="57.862784033641219" lon="-5.51319002173841">
        <ele>32.340000000000003</ele>
        <time>2023-08-25T13:17:49Z</time>
      </trkpt>
      <trkpt lat="57.863490963354707" lon="-5.515334028750658">
        <ele>33.780000000000001</ele>
        <time>2023-08-25T13:17:56Z</time>
      </trkpt>
      <trkpt lat="57.8640559874475" lon="-5.51810902543366">
        <ele>34.740000000000002</ele>
        <time>2023-08-25T13:18:04Z</time>
      </trkpt>
      <trkpt lat="57.864195965230465" lon="-5.519519029185176">
        <ele>33.299999999999997</ele>
        <time>2023-08-25T13:18:08Z</time>
      </trkpt>
      <trkpt lat="57.864178027957678" lon="-5.519851036369801">
        <ele>32.82</ele>
        <time>2023-08-25T13:18:09Z</time>
      </trkpt>
      <trkpt lat="57.864157995209098" lon="-5.520177008584142">
        <ele>31.859999999999999</ele>
        <time>2023-08-25T13:18:10Z</time>
      </trkpt>
      <trkpt lat="57.863961020484567" lon="-5.522074000909925">
        <ele>27.050000000000001</ele>
        <time>2023-08-25T13:18:16Z</time>
      </trkpt>
      <trkpt lat="57.863961020484567" lon="-5.522353034466505">
        <ele>26.57</ele>
        <time>2023-08-25T13:18:17Z</time>
      </trkpt>
      <trkpt lat="57.864005025476217" lon="-5.522588985040784">
        <ele>26.09</ele>
        <time>2023-08-25T13:18:18Z</time>
      </trkpt>
      <trkpt lat="57.864060010761023" lon="-5.522806998342276">
        <ele>25.609999999999999</ele>
        <time>2023-08-25T13:18:19Z</time>
      </trkpt>
      <trkpt lat="57.864145003259182" lon="-5.523004978895187">
        <ele>25.609999999999999</ele>
        <time>2023-08-25T13:18:20Z</time>
      </trkpt>
      <trkpt lat="57.864237958565354" lon="-5.523205976933241">
        <ele>25.129999999999999</ele>
        <time>2023-08-25T13:18:21Z</time>
      </trkpt>
      <trkpt lat="57.864335021004081" lon="-5.523412004113197">
        <ele>25.129999999999999</ele>
        <time>2023-08-25T13:18:22Z</time>
      </trkpt>
      <trkpt lat="57.864873977378011" lon="-5.524725029245019">
        <ele>24.170000000000002</ele>
        <time>2023-08-25T13:18:28Z</time>
      </trkpt>
      <trkpt lat="57.864931980147958" lon="-5.524938013404608">
        <ele>24.170000000000002</ele>
        <time>2023-08-25T13:18:29Z</time>
      </trkpt>
      <trkpt lat="57.864976990967989" lon="-5.525148985907435">
        <ele>24.170000000000002</ele>
        <time>2023-08-25T13:18:30Z</time>
      </trkpt>
      <trkpt lat="57.865369012579322" lon="-5.527469012886286">
        <ele>19.359999999999999</ele>
        <time>2023-08-25T13:18:39Z</time>
      </trkpt>
      <trkpt lat="57.866030009463429" lon="-5.531545970588923">
        <ele>11.19</ele>
        <time>2023-08-25T13:18:52Z</time>
      </trkpt>
      <trkpt lat="57.866539964452386" lon="-5.533618982881308">
        <ele>11.19</ele>
        <time>2023-08-25T13:19:00Z</time>
      </trkpt>
      <trkpt lat="57.866678014397621" lon="-5.534526994451881">
        <ele>11.19</ele>
        <time>2023-08-25T13:19:04Z</time>
      </trkpt>
      <trkpt lat="57.866680026054382" lon="-5.534773003309965">
        <ele>11.19</ele>
        <time>2023-08-25T13:19:05Z</time>
      </trkpt>
      <trkpt lat="57.866670973598957" lon="-5.53501901216805">
        <ele>11.19</ele>
        <time>2023-08-25T13:19:06Z</time>
      </trkpt>
      <trkpt lat="57.866662004962564" lon="-5.535263009369373">
        <ele>11.19</ele>
        <time>2023-08-25T13:19:07Z</time>
      </trkpt>
      <trkpt lat="57.866652030497789" lon="-5.535509018227458">
        <ele>10.710000000000001</ele>
        <time>2023-08-25T13:19:08Z</time>
      </trkpt>
      <trkpt lat="57.86626897752285" lon="-5.538519965484738">
        <ele>7.83</ele>
        <time>2023-08-25T13:19:20Z</time>
      </trkpt>
      <trkpt lat="57.866208963096142" lon="-5.538760023191571">
        <ele>7.83</ele>
        <time>2023-08-25T13:19:21Z</time>
      </trkpt>
      <trkpt lat="57.866148026660085" lon="-5.539001002907753">
        <ele>7.83</ele>
        <time>2023-08-25T13:19:22Z</time>
      </trkpt>
      <trkpt lat="57.865369012579322" lon="-5.540825994685292">
        <ele>14.56</ele>
        <time>2023-08-25T13:19:32Z</time>
      </trkpt>
      <trkpt lat="57.864513974636793" lon="-5.542284026741982">
        <ele>22.25</ele>
        <time>2023-08-25T13:19:42Z</time>
      </trkpt>
      <trkpt lat="57.863169014453888" lon="-5.544095020741224">
        <ele>34.259999999999998</ele>
        <time>2023-08-25T13:19:55Z</time>
      </trkpt>
      <trkpt lat="57.862175004556775" lon="-5.545434029772878">
        <ele>40.030000000000001</ele>
        <time>2023-08-25T13:20:03Z</time>
      </trkpt>
      <trkpt lat="57.860965998843312" lon="-5.547393970191479">
        <ele>45.32</ele>
        <time>2023-08-25T13:20:13Z</time>
      </trkpt>
      <trkpt lat="57.860055975615978" lon="-5.549167999997735">
        <ele>43.399999999999999</ele>
        <time>2023-08-25T13:20:21Z</time>
      </trkpt>
      <trkpt lat="57.859799992293119" lon="-5.549582988023758">
        <ele>43.399999999999999</ele>
        <time>2023-08-25T13:20:23Z</time>
      </trkpt>
      <trkpt lat="57.859658002853394" lon="-5.5497379694134">
        <ele>43.399999999999999</ele>
        <time>2023-08-25T13:20:24Z</time>
      </trkpt>
      <trkpt lat="57.859509978443384" lon="-5.549885993823409">
        <ele>43.399999999999999</ele>
        <time>2023-08-25T13:20:25Z</time>
      </trkpt>
      <trkpt lat="57.859353991225362" lon="-5.550013985484839">
        <ele>43.880000000000003</ele>
        <time>2023-08-25T13:20:26Z</time>
      </trkpt>
      <trkpt lat="57.859190041199327" lon="-5.550120016559959">
        <ele>43.880000000000003</ele>
        <time>2023-08-25T13:20:27Z</time>
      </trkpt>
      <trkpt lat="57.857977012172341" lon="-5.550906993448734">
        <ele>46.759999999999998</ele>
        <time>2023-08-25T13:20:34Z</time>
      </trkpt>
      <trkpt lat="57.856203988194466" lon="-5.552192023023963">
        <ele>53.969999999999999</ele>
        <time>2023-08-25T13:20:44Z</time>
      </trkpt>
      <trkpt lat="57.854803958907723" lon="-5.553609989583492">
        <ele>57.82</ele>
        <time>2023-08-25T13:20:52Z</time>
      </trkpt>
      <trkpt lat="57.853467967361212" lon="-5.554075017571449">
        <ele>60.700000000000003</ele>
        <time>2023-08-25T13:20:59Z</time>
      </trkpt>
      <trkpt lat="57.853299994021654" lon="-5.55416302755475">
        <ele>61.18</ele>
        <time>2023-08-25T13:21:00Z</time>
      </trkpt>
      <trkpt lat="57.853133026510477" lon="-5.554277021437883">
        <ele>61.659999999999997</ele>
        <time>2023-08-25T13:21:01Z</time>
      </trkpt>
      <trkpt lat="57.852985002100468" lon="-5.554467039182782">
        <ele>61.659999999999997</ele>
        <time>2023-08-25T13:21:02Z</time>
      </trkpt>
      <trkpt lat="57.851403001695871" lon="-5.55650400929153">
        <ele>65.989999999999995</ele>
        <time>2023-08-25T13:21:12Z</time>
      </trkpt>
      <trkpt lat="57.849955027922988" lon="-5.558192040771246">
        <ele>72.719999999999999</ele>
        <time>2023-08-25T13:21:21Z</time>
      </trkpt>
      <trkpt lat="57.849782025441527" lon="-5.55826404131949">
        <ele>73.200000000000003</ele>
        <time>2023-08-25T13:21:22Z</time>
      </trkpt>
      <trkpt lat="57.847529975697398" lon="-5.559281017631292">
        <ele>73.200000000000003</ele>
        <time>2023-08-25T13:21:34Z</time>
      </trkpt>
      <trkpt lat="57.847346998751163" lon="-5.559394005686045">
        <ele>72.719999999999999</ele>
        <time>2023-08-25T13:21:35Z</time>
      </trkpt>
      <trkpt lat="57.847185982391238" lon="-5.559590980410576">
        <ele>72.239999999999995</ele>
        <time>2023-08-25T13:21:36Z</time>
      </trkpt>
      <trkpt lat="57.847026977688074" lon="-5.559796001762152">
        <ele>71.760000000000005</ele>
        <time>2023-08-25T13:21:37Z</time>
      </trkpt>
      <trkpt lat="57.845537010580301" lon="-5.561540024355054">
        <ele>68.390000000000001</ele>
        <time>2023-08-25T13:21:46Z</time>
      </trkpt>
      <trkpt lat="57.843906981870532" lon="-5.563197964802384">
        <ele>64.069999999999993</ele>
        <time>2023-08-25T13:21:56Z</time>
      </trkpt>
      <trkpt lat="57.843759963288903" lon="-5.563426958397031">
        <ele>63.100000000000001</ele>
        <time>2023-08-25T13:21:57Z</time>
      </trkpt>
      <trkpt lat="57.843619985505939" lon="-5.563687970861793">
        <ele>62.140000000000001</ele>
        <time>2023-08-25T13:21:58Z</time>
      </trkpt>
      <trkpt lat="57.84349400550127" lon="-5.563968010246754">
        <ele>61.18</ele>
        <time>2023-08-25T13:21:59Z</time>
      </trkpt>
      <trkpt lat="57.843368025496602" lon="-5.564248971641064">
        <ele>60.219999999999999</ele>
        <time>2023-08-25T13:22:00Z</time>
      </trkpt>
      <trkpt lat="57.843108018860221" lon="-5.564758004620671">
        <ele>58.299999999999997</ele>
        <time>2023-08-25T13:22:02Z</time>
      </trkpt>
      <trkpt lat="57.842972986400127" lon="-5.56496998295188">
        <ele>57.340000000000003</ele>
        <time>2023-08-25T13:22:03Z</time>
      </trkpt>
      <trkpt lat="57.842841977253556" lon="-5.565155977383256">
        <ele>56.859999999999999</ele>
        <time>2023-08-25T13:22:04Z</time>
      </trkpt>
      <trkpt lat="57.842694036662579" lon="-5.56529201567173">
        <ele>56.369999999999997</ele>
        <time>2023-08-25T13:22:05Z</time>
      </trkpt>
      <trkpt lat="57.842542994767427" lon="-5.565429981797934">
        <ele>55.890000000000001</ele>
        <time>2023-08-25T13:22:06Z</time>
      </trkpt>
      <trkpt lat="57.840749016031623" lon="-5.567175010219216">
        <ele>53.009999999999998</ele>
        <time>2023-08-25T13:22:17Z</time>
      </trkpt>
      <trkpt lat="57.840009983628988" lon="-5.568564981222153">
        <ele>50.130000000000003</ele>
        <time>2023-08-25T13:22:23Z</time>
      </trkpt>
      <trkpt lat="57.839631959795952" lon="-5.570796998217702">
        <ele>41.950000000000003</ele>
        <time>2023-08-25T13:22:30Z</time>
      </trkpt>
      <trkpt lat="57.839402966201305" lon="-5.573575012385845">
        <ele>29.940000000000001</ele>
        <time>2023-08-25T13:22:38Z</time>
      </trkpt>
      <trkpt lat="57.839361978694797" lon="-5.573824038729072">
        <ele>28.5</ele>
        <time>2023-08-25T13:22:39Z</time>
      </trkpt>
      <trkpt lat="57.839281009510159" lon="-5.574043979868293">
        <ele>27.530000000000001</ele>
        <time>2023-08-25T13:22:40Z</time>
      </trkpt>
      <trkpt lat="57.839203979820013" lon="-5.574250007048249">
        <ele>26.09</ele>
        <time>2023-08-25T13:22:41Z</time>
      </trkpt>
      <trkpt lat="57.839129967615008" lon="-5.574425021186471">
        <ele>25.129999999999999</ele>
        <time>2023-08-25T13:22:42Z</time>
      </trkpt>
      <trkpt lat="57.839042041450739" lon="-5.574571033939719">
        <ele>24.649999999999999</ele>
        <time>2023-08-25T13:22:43Z</time>
      </trkpt>
      <trkpt lat="57.838955037295818" lon="-5.574716040864587">
        <ele>24.170000000000002</ele>
        <time>2023-08-25T13:22:44Z</time>
      </trkpt>
      <trkpt lat="57.838131012395024" lon="-5.576197039335966">
        <ele>23.210000000000001</ele>
        <time>2023-08-25T13:22:54Z</time>
      </trkpt>
      <trkpt lat="57.838064040988684" lon="-5.57640097104013">
        <ele>23.210000000000001</ele>
        <time>2023-08-25T13:22:55Z</time>
      </trkpt>
      <trkpt lat="57.837996985763311" lon="-5.576611021533608">
        <ele>22.73</ele>
        <time>2023-08-25T13:22:56Z</time>
      </trkpt>
      <trkpt lat="57.837934959679842" lon="-5.576836997643113">
        <ele>22.25</ele>
        <time>2023-08-25T13:22:57Z</time>
      </trkpt>
      <trkpt lat="57.83788500353694" lon="-5.577083006501198">
        <ele>21.77</ele>
        <time>2023-08-25T13:22:58Z</time>
      </trkpt>
      <trkpt lat="57.837675036862493" lon="-5.578114986419678">
        <ele>19.84</ele>
        <time>2023-08-25T13:23:02Z</time>
      </trkpt>
      <trkpt lat="57.837579986080527" lon="-5.578314978629351">
        <ele>19.359999999999999</ele>
        <time>2023-08-25T13:23:03Z</time>
      </trkpt>
      <trkpt lat="57.837485019117594" lon="-5.578512037172914">
        <ele>18.879999999999999</ele>
        <time>2023-08-25T13:23:04Z</time>
      </trkpt>
      <trkpt lat="57.837361972779036" lon="-5.578669030219317">
        <ele>17.920000000000002</ele>
        <time>2023-08-25T13:23:05Z</time>
      </trkpt>
      <trkpt lat="57.837228029966354" lon="-5.578772965818644">
        <ele>17.440000000000001</ele>
        <time>2023-08-25T13:23:06Z</time>
      </trkpt>
      <trkpt lat="57.83709199167788" lon="-5.578878996893764">
        <ele>16.960000000000001</ele>
        <time>2023-08-25T13:23:07Z</time>
      </trkpt>
      <trkpt lat="57.836953019723296" lon="-5.578954014927149">
        <ele>16.48</ele>
        <time>2023-08-25T13:23:08Z</time>
      </trkpt>
      <trkpt lat="57.835631025955081" lon="-5.579551979899406">
        <ele>14.08</ele>
        <time>2023-08-25T13:23:19Z</time>
      </trkpt>
      <trkpt lat="57.834712034091353" lon="-5.57992204092443">
        <ele>16</ele>
        <time>2023-08-25T13:23:27Z</time>
      </trkpt>
      <trkpt lat="57.83307203091681" lon="-5.580112980678678">
        <ele>16.960000000000001</ele>
        <time>2023-08-25T13:23:37Z</time>
      </trkpt>
      <trkpt lat="57.831987999379635" lon="-5.580106023699045">
        <ele>21.289999999999999</ele>
        <time>2023-08-25T13:23:43Z</time>
      </trkpt>
      <trkpt lat="57.831846009939909" lon="-5.580022959038615">
        <ele>22.25</ele>
        <time>2023-08-25T13:23:44Z</time>
      </trkpt>
      <trkpt lat="57.831724975258112" lon="-5.579918017610908">
        <ele>23.210000000000001</ele>
        <time>2023-08-25T13:23:45Z</time>
      </trkpt>
      <trkpt lat="57.831617016345263" lon="-5.579761024564505">
        <ele>23.690000000000001</ele>
        <time>2023-08-25T13:23:46Z</time>
      </trkpt>
      <trkpt lat="57.831559013575315" lon="-5.579551979899406">
        <ele>24.649999999999999</ele>
        <time>2023-08-25T13:23:47Z</time>
      </trkpt>
      <trkpt lat="57.831520959734917" lon="-5.579306976869702">
        <ele>25.609999999999999</ele>
        <time>2023-08-25T13:23:48Z</time>
      </trkpt>
      <trkpt lat="57.831530012190342" lon="-5.579071026295424">
        <ele>26.57</ele>
        <time>2023-08-25T13:23:49Z</time>
      </trkpt>
      <trkpt lat="57.83154996111989" lon="-5.578801967203617">
        <ele>27.530000000000001</ele>
        <time>2023-08-25T13:23:50Z</time>
      </trkpt>
      <trkpt lat="57.831618022173643" lon="-5.578553024679422">
        <ele>28.5</ele>
        <time>2023-08-25T13:23:51Z</time>
      </trkpt>
      <trkpt lat="57.831693962216377" lon="-5.578277008607984">
        <ele>29.940000000000001</ele>
        <time>2023-08-25T13:23:52Z</time>
      </trkpt>
      <trkpt lat="57.832161001861095" lon="-5.5765700340271">
        <ele>35.710000000000001</ele>
        <time>2023-08-25T13:23:58Z</time>
      </trkpt>
      <trkpt lat="57.832180028781295" lon="-5.576313966885209">
        <ele>36.670000000000002</ele>
        <time>2023-08-25T13:23:59Z</time>
      </trkpt>
      <trkpt lat="57.832172987982631" lon="-5.5761210154742">
        <ele>37.149999999999999</ele>
        <time>2023-08-25T13:24:00Z</time>
      </trkpt>
      <trkpt lat="57.832164019346237" lon="-5.575943989679217">
        <ele>38.109999999999999</ele>
        <time>2023-08-25T13:24:01Z</time>
      </trkpt>
      <trkpt lat="57.832120014354587" lon="-5.575834019109607">
        <ele>39.07</ele>
        <time>2023-08-25T13:24:02Z</time>
      </trkpt>
      <trkpt lat="57.832050025463104" lon="-5.575748020783067">
        <ele>39.549999999999997</ele>
        <time>2023-08-25T13:24:03Z</time>
      </trkpt>
      <trkpt lat="57.83197701908648" lon="-5.575659004971385">
        <ele>40.509999999999998</ele>
        <time>2023-08-25T13:24:04Z</time>
      </trkpt>
      <trkpt lat="57.831880962476134" lon="-5.57564701884985">
        <ele>40.990000000000002</ele>
        <time>2023-08-25T13:24:05Z</time>
      </trkpt>
      <trkpt lat="57.83178398385644" lon="-5.575677026063204">
        <ele>41.469999999999999</ele>
        <time>2023-08-25T13:24:06Z</time>
      </trkpt>
      <trkpt lat="57.831683987751603" lon="-5.575766041874886">
        <ele>42.439999999999998</ele>
        <time>2023-08-25T13:24:07Z</time>
      </trkpt>
      <trkpt lat="57.831588014960289" lon="-5.575900990515947">
        <ele>42.920000000000002</ele>
        <time>2023-08-25T13:24:08Z</time>
      </trkpt>
      <trkpt lat="57.831501010805368" lon="-5.576096959412098">
        <ele>43.399999999999999</ele>
        <time>2023-08-25T13:24:09Z</time>
      </trkpt>
      <trkpt lat="57.831405038014054" lon="-5.576313966885209">
        <ele>44.359999999999999</ele>
        <time>2023-08-25T13:24:10Z</time>
      </trkpt>
      <trkpt lat="57.830695006996393" lon="-5.577919017523527">
        <ele>51.090000000000003</ele>
        <time>2023-08-25T13:24:17Z</time>
      </trkpt>
      <trkpt lat="57.830601967871189" lon="-5.578082967549563">
        <ele>51.57</ele>
        <time>2023-08-25T13:24:18Z</time>
      </trkpt>
      <trkpt lat="57.830493003129959" lon="-5.578182963654399">
        <ele>52.530000000000001</ele>
        <time>2023-08-25T13:24:19Z</time>
      </trkpt>
      <trkpt lat="57.830374985933304" lon="-5.578287988901138">
        <ele>53.009999999999998</ele>
        <time>2023-08-25T13:24:20Z</time>
      </trkpt>
      <trkpt lat="57.8302370198071" lon="-5.578328976407647">
        <ele>53.490000000000002</ele>
        <time>2023-08-25T13:24:21Z</time>
      </trkpt>
      <trkpt lat="57.830079020932317" lon="-5.57837700471282">
        <ele>54.450000000000003</ele>
        <time>2023-08-25T13:24:22Z</time>
      </trkpt>
      <trkpt lat="57.829735027626157" lon="-5.578402988612652">
        <ele>55.890000000000001</ele>
        <time>2023-08-25T13:24:24Z</time>
      </trkpt>
      <trkpt lat="57.82957199960947" lon="-5.578384967520833">
        <ele>56.859999999999999</ele>
        <time>2023-08-25T13:24:25Z</time>
      </trkpt>
      <trkpt lat="57.829414000734687" lon="-5.578276002779603">
        <ele>57.340000000000003</ele>
        <time>2023-08-25T13:24:26Z</time>
      </trkpt>
      <trkpt lat="57.829239992424846" lon="-5.578155973926187">
        <ele>57.82</ele>
        <time>2023-08-25T13:24:27Z</time>
      </trkpt>
      <trkpt lat="57.829058021306992" lon="-5.578029993921518">
        <ele>58.780000000000001</ele>
        <time>2023-08-25T13:24:28Z</time>
      </trkpt>
      <trkpt lat="57.828866997733712" lon="-5.577933015301824">
        <ele>59.740000000000002</ele>
        <time>2023-08-25T13:24:29Z</time>
      </trkpt>
      <trkpt lat="57.828672034665942" lon="-5.577875012531877">
        <ele>60.700000000000003</ele>
        <time>2023-08-25T13:24:30Z</time>
      </trkpt>
      <trkpt lat="57.828468019142747" lon="-5.577852968126535">
        <ele>61.659999999999997</ele>
        <time>2023-08-25T13:24:31Z</time>
      </trkpt>
      <trkpt lat="57.826390983536839" lon="-5.577621962875128">
        <ele>73.200000000000003</ele>
        <time>2023-08-25T13:24:41Z</time>
      </trkpt>
      <trkpt lat="57.826186968013644" lon="-5.577594973146915">
        <ele>74.640000000000001</ele>
        <time>2023-08-25T13:24:42Z</time>
      </trkpt>
      <trkpt lat="57.825992004945874" lon="-5.577480979263783">
        <ele>75.599999999999994</ele>
        <time>2023-08-25T13:24:43Z</time>
      </trkpt>
      <trkpt lat="57.825805004686117" lon="-5.577363967895508">
        <ele>76.560000000000002</ele>
        <time>2023-08-25T13:24:44Z</time>
      </trkpt>
      <trkpt lat="57.825347017496824" lon="-5.57697999291122">
        <ele>80.890000000000001</ele>
        <time>2023-08-25T13:24:47Z</time>
      </trkpt>
      <trkpt lat="57.825245009735227" lon="-5.57689500041306">
        <ele>82.329999999999998</ele>
        <time>2023-08-25T13:24:48Z</time>
      </trkpt>
      <trkpt lat="57.825156999751925" lon="-5.576826017349958">
        <ele>83.290000000000006</ele>
        <time>2023-08-25T13:24:49Z</time>
      </trkpt>
      <trkpt lat="57.825096985325217" lon="-5.576816964894533">
        <ele>84.25</ele>
        <time>2023-08-25T13:24:50Z</time>
      </trkpt>
      <trkpt lat="57.825054991990328" lon="-5.576811013743281">
        <ele>85.209999999999994</ele>
        <time>2023-08-25T13:24:51Z</time>
      </trkpt>
      <trkpt lat="57.825021967291832" lon="-5.576805984601378">
        <ele>86.180000000000007</ele>
        <time>2023-08-25T13:24:52Z</time>
      </trkpt>
      <trkpt lat="57.824997995048761" lon="-5.576802967116237">
        <ele>87.140000000000001</ele>
        <time>2023-08-25T13:24:53Z</time>
      </trkpt>
      <trkpt lat="57.824977040290833" lon="-5.576799027621746">
        <ele>88.099999999999994</ele>
        <time>2023-08-25T13:24:54Z</time>
      </trkpt>
      <trkpt lat="57.824958013370633" lon="-5.576797015964985">
        <ele>89.060000000000002</ele>
        <time>2023-08-25T13:24:55Z</time>
      </trkpt>
      <trkpt lat="57.824942003935575" lon="-5.576793998479843">
        <ele>90.980000000000004</ele>
        <time>2023-08-25T13:25:07Z</time>
      </trkpt>
      <trkpt lat="57.824942003935575" lon="-5.576793998479843">
        <ele>91.459999999999994</ele>
        <time>2023-08-25T13:25:42Z</time>
      </trkpt>
      <trkpt lat="57.824942003935575" lon="-5.576793998479843">
        <ele>90.980000000000004</ele>
        <time>2023-08-25T13:26:38Z</time>
      </trkpt>
      <trkpt lat="57.824942003935575" lon="-5.576793998479843">
        <ele>90.5</ele>
        <time>2023-08-25T13:27:39Z</time>
      </trkpt>
      <trkpt lat="57.824942003935575" lon="-5.576793998479843">
        <ele>90.019999999999996</ele>
        <time>2023-08-25T13:28:31Z</time>
      </trkpt>
      <trkpt lat="57.824942003935575" lon="-5.576793998479843">
        <ele>89.540000000000006</ele>
        <time>2023-08-25T13:29:23Z</time>
      </trkpt>
      <trkpt lat="57.824942003935575" lon="-5.576793998479843">
        <ele>89.060000000000002</ele>
        <time>2023-08-25T13:29:44Z</time>
      </trkpt>
      <trkpt lat="57.824915014207363" lon="-5.576789975166321">
        <ele>84.730000000000004</ele>
        <time>2023-08-25T13:30:24Z</time>
      </trkpt>
      <trkpt lat="57.824905039742589" lon="-5.57678896933794">
        <ele>83.290000000000006</ele>
        <time>2023-08-25T13:30:25Z</time>
      </trkpt>
      <trkpt lat="57.824890958145261" lon="-5.576787041500211">
        <ele>82.810000000000002</ele>
        <time>2023-08-25T13:30:26Z</time>
      </trkpt>
      <trkpt lat="57.824871009215713" lon="-5.576784024015069">
        <ele>82.329999999999998</ele>
        <time>2023-08-25T13:30:27Z</time>
      </trkpt>
      <trkpt lat="57.824852988123894" lon="-5.576781006529927">
        <ele>81.849999999999994</ele>
        <time>2023-08-25T13:30:28Z</time>
      </trkpt>
      <trkpt lat="57.824836978688836" lon="-5.576778994873166">
        <ele>82.329999999999998</ele>
        <time>2023-08-25T13:30:29Z</time>
      </trkpt>
      <trkpt lat="57.824824992567301" lon="-5.576776983216405">
        <ele>82.329999999999998</ele>
        <time>2023-08-25T13:30:30Z</time>
      </trkpt>
      <trkpt lat="57.824816023930907" lon="-5.576775977388024">
        <ele>82.329999999999998</ele>
        <time>2023-08-25T13:30:33Z</time>
      </trkpt>
      <trkpt lat="57.824802026152611" lon="-5.576772959902883">
        <ele>82.329999999999998</ele>
        <time>2023-08-25T13:30:34Z</time>
      </trkpt>
      <trkpt lat="57.824761038646102" lon="-5.576767008751631">
        <ele>81.849999999999994</ele>
        <time>2023-08-25T13:30:35Z</time>
      </trkpt>
      <trkpt lat="57.824735976755619" lon="-5.576762985438108">
        <ele>81.849999999999994</ele>
        <time>2023-08-25T13:30:36Z</time>
      </trkpt>
      <trkpt lat="57.824669005349278" lon="-5.576822999864817">
        <ele>81.849999999999994</ele>
        <time>2023-08-25T13:30:37Z</time>
      </trkpt>
      <trkpt lat="57.824602033942938" lon="-5.576882008463144">
        <ele>81.849999999999994</ele>
        <time>2023-08-25T13:30:38Z</time>
      </trkpt>
      <trkpt lat="57.824531039223075" lon="-5.576945962384343">
        <ele>81.370000000000005</ele>
        <time>2023-08-25T13:30:39Z</time>
      </trkpt>
      <trkpt lat="57.824451997876167" lon="-5.577016035094857">
        <ele>81.370000000000005</ele>
        <time>2023-08-25T13:30:40Z</time>
      </trkpt>
      <trkpt lat="57.824362982064486" lon="-5.577094992622733">
        <ele>81.370000000000005</ele>
        <time>2023-08-25T13:30:41Z</time>
      </trkpt>
      <trkpt lat="57.824288969859481" lon="-5.577206974849105">
        <ele>81.370000000000005</ele>
        <time>2023-08-25T13:30:42Z</time>
      </trkpt>
      <trkpt lat="57.823528982698917" lon="-5.578465014696121">
        <ele>81.849999999999994</ele>
        <time>2023-08-25T13:30:49Z</time>
      </trkpt>
      <trkpt lat="57.822276977822185" lon="-5.579966967925429">
        <ele>83.290000000000006</ele>
        <time>2023-08-25T13:30:58Z</time>
      </trkpt>
      <trkpt lat="57.822130965068936" lon="-5.580039974302054">
        <ele>83.769999999999996</ele>
        <time>2023-08-25T13:30:59Z</time>
      </trkpt>
      <trkpt lat="57.821979001164436" lon="-5.580109963193536">
        <ele>83.769999999999996</ele>
        <time>2023-08-25T13:31:00Z</time>
      </trkpt>
      <trkpt lat="57.821830976754427" lon="-5.580102000385523">
        <ele>83.769999999999996</ele>
        <time>2023-08-25T13:31:01Z</time>
      </trkpt>
      <trkpt lat="57.821683036163449" lon="-5.58009403757751">
        <ele>83.769999999999996</ele>
        <time>2023-08-25T13:31:02Z</time>
      </trkpt>
      <trkpt lat="57.821527970954776" lon="-5.580062018707395">
        <ele>84.25</ele>
        <time>2023-08-25T13:31:03Z</time>
      </trkpt>
      <trkpt lat="57.821377012878656" lon="-5.58000803925097">
        <ele>84.730000000000004</ele>
        <time>2023-08-25T13:31:04Z</time>
      </trkpt>
      <trkpt lat="57.820946015417576" lon="-5.57987904176116">
        <ele>86.659999999999997</ele>
        <time>2023-08-25T13:31:07Z</time>
      </trkpt>
      <trkpt lat="57.820818023756146" lon="-5.579889016225934">
        <ele>87.620000000000005</ele>
        <time>2023-08-25T13:31:08Z</time>
      </trkpt>
      <trkpt lat="57.820691959932446" lon="-5.579931009560823">
        <ele>87.620000000000005</ele>
        <time>2023-08-25T13:31:09Z</time>
      </trkpt>
      <trkpt lat="57.820580983534455" lon="-5.580055983737111">
        <ele>88.099999999999994</ele>
        <time>2023-08-25T13:31:10Z</time>
      </trkpt>
      <trkpt lat="57.820472018793225" lon="-5.580201996490359">
        <ele>88.579999999999998</ele>
        <time>2023-08-25T13:31:11Z</time>
      </trkpt>
      <trkpt lat="57.820356013253331" lon="-5.580365024507046">
        <ele>89.060000000000002</ele>
        <time>2023-08-25T13:31:12Z</time>
      </trkpt>
      <trkpt lat="57.820113021880388" lon="-5.580708011984825">
        <ele>90.019999999999996</ele>
        <time>2023-08-25T13:31:14Z</time>
      </trkpt>
      <trkpt lat="57.819966003298759" lon="-5.580846983939409">
        <ele>90.5</ele>
        <time>2023-08-25T13:31:15Z</time>
      </trkpt>
      <trkpt lat="57.819808004423976" lon="-5.580974975600839">
        <ele>90.980000000000004</ele>
        <time>2023-08-25T13:31:16Z</time>
      </trkpt>
      <trkpt lat="57.819339036941528" lon="-5.581399016082287">
        <ele>91.939999999999998</ele>
        <time>2023-08-25T13:31:19Z</time>
      </trkpt>
      <trkpt lat="57.819213978946209" lon="-5.581596996635199">
        <ele>91.939999999999998</ele>
        <time>2023-08-25T13:31:20Z</time>
      </trkpt>
      <trkpt lat="57.81897702254355" lon="-5.581974014639854">
        <ele>91.459999999999994</ele>
        <time>2023-08-25T13:31:22Z</time>
      </trkpt>
      <trkpt lat="57.818855987861753" lon="-5.582121033221483">
        <ele>90.980000000000004</ele>
        <time>2023-08-25T13:31:23Z</time>
      </trkpt>
      <trkpt lat="57.818731013685465" lon="-5.582232009619474">
        <ele>90.980000000000004</ele>
        <time>2023-08-25T13:31:24Z</time>
      </trkpt>
      <trkpt lat="57.818600004538894" lon="-5.582251036539674">
        <ele>90.980000000000004</ele>
        <time>2023-08-25T13:31:25Z</time>
      </trkpt>
      <trkpt lat="57.81846103258431" lon="-5.58226796798408">
        <ele>90.980000000000004</ele>
        <time>2023-08-25T13:31:26Z</time>
      </trkpt>
      <trkpt lat="57.818316025659442" lon="-5.582263022661209">
        <ele>90.980000000000004</ele>
        <time>2023-08-25T13:31:27Z</time>
      </trkpt>
      <trkpt lat="57.817885028198361" lon="-5.582125978544354">
        <ele>91.459999999999994</ele>
        <time>2023-08-25T13:31:30Z</time>
      </trkpt>
      <trkpt lat="57.817741027101874" lon="-5.582041991874576">
        <ele>91.459999999999994</ele>
        <time>2023-08-25T13:31:31Z</time>
      </trkpt>
      <trkpt lat="57.817644970491529" lon="-5.581914000213146">
        <ele>91.939999999999998</ele>
        <time>2023-08-25T13:31:32Z</time>
      </trkpt>
      <trkpt lat="57.817536005750299" lon="-5.581760024651885">
        <ele>92.420000000000002</ele>
        <time>2023-08-25T13:31:33Z</time>
      </trkpt>
      <trkpt lat="57.817442966625094" lon="-5.581561960279942">
        <ele>92.420000000000002</ele>
        <time>2023-08-25T13:31:34Z</time>
      </trkpt>
      <trkpt lat="57.81713199801743" lon="-5.580930970609188">
        <ele>94.349999999999994</ele>
        <time>2023-08-25T13:31:37Z</time>
      </trkpt>
      <trkpt lat="57.816995037719607" lon="-5.580754028633237">
        <ele>94.829999999999998</ele>
        <time>2023-08-25T13:31:38Z</time>
      </trkpt>
      <trkpt lat="57.815531976521015" lon="-5.579123999923468">
        <ele>99.150000000000006</ele>
        <time>2023-08-25T13:31:47Z</time>
      </trkpt>
      <trkpt lat="57.814887994900346" lon="-5.578574985265732">
        <ele>101.56</ele>
        <time>2023-08-25T13:31:51Z</time>
      </trkpt>
      <trkpt lat="57.814752040430903" lon="-5.578424027189612">
        <ele>102.04000000000001</ele>
        <time>2023-08-25T13:31:52Z</time>
      </trkpt>
      <trkpt lat="57.814621031284332" lon="-5.578218000009656">
        <ele>102.52</ele>
        <time>2023-08-25T13:31:53Z</time>
      </trkpt>
      <trkpt lat="57.814488010481" lon="-5.578010967001319">
        <ele>103</ele>
        <time>2023-08-25T13:31:54Z</time>
      </trkpt>
      <trkpt lat="57.81435901299119" lon="-5.577808041125536">
        <ele>103</ele>
        <time>2023-08-25T13:31:55Z</time>
      </trkpt>
      <trkpt lat="57.813986018300056" lon="-5.577304037287831">
        <ele>103.48</ele>
        <time>2023-08-25T13:31:58Z</time>
      </trkpt>
      <trkpt lat="57.813859032467008" lon="-5.57721502147615">
        <ele>103.95999999999999</ele>
        <time>2023-08-25T13:31:59Z</time>
      </trkpt>
      <trkpt lat="57.813743026927114" lon="-5.577157018706203">
        <ele>103.95999999999999</ele>
        <time>2023-08-25T13:32:00Z</time>
      </trkpt>
      <trkpt lat="57.813625009730458" lon="-5.577222984284163">
        <ele>103.95999999999999</ele>
        <time>2023-08-25T13:32:01Z</time>
      </trkpt>
      <trkpt lat="57.813529036939144" lon="-5.577341001480818">
        <ele>103.95999999999999</ele>
        <time>2023-08-25T13:32:02Z</time>
      </trkpt>
      <trkpt lat="57.813437003642321" lon="-5.577499000355601">
        <ele>103.95999999999999</ele>
        <time>2023-08-25T13:32:03Z</time>
      </trkpt>
      <trkpt lat="57.813382018357515" lon="-5.577722964808345">
        <ele>103.95999999999999</ele>
        <time>2023-08-25T13:32:04Z</time>
      </trkpt>
      <trkpt lat="57.81332703307271" lon="-5.577972996979952">
        <ele>103.48</ele>
        <time>2023-08-25T13:32:05Z</time>
      </trkpt>
      <trkpt lat="57.813268024474382" lon="-5.578239038586617">
        <ele>103</ele>
        <time>2023-08-25T13:32:06Z</time>
      </trkpt>
      <trkpt lat="57.813209015876055" lon="-5.578509019687772">
        <ele>102.04000000000001</ele>
        <time>2023-08-25T13:32:07Z</time>
      </trkpt>
      <trkpt lat="57.813090998679399" lon="-5.579039007425308">
        <ele>101.08</ele>
        <time>2023-08-25T13:32:09Z</time>
      </trkpt>
      <trkpt lat="57.813029978424311" lon="-5.579232964664698">
        <ele>100.59999999999999</ele>
        <time>2023-08-25T13:32:10Z</time>
      </trkpt>
      <trkpt lat="57.812949009239674" lon="-5.579395992681384">
        <ele>100.11</ele>
        <time>2023-08-25T13:32:11Z</time>
      </trkpt>
      <trkpt lat="57.812323970720172" lon="-5.580837009474635">
        <ele>95.790000000000006</ele>
        <time>2023-08-25T13:32:18Z</time>
      </trkpt>
      <trkpt lat="57.811717037111521" lon="-5.582240978255868">
        <ele>94.349999999999994</ele>
        <time>2023-08-25T13:32:24Z</time>
      </trkpt>
      <trkpt lat="57.810941962525249" lon="-5.583161981776357">
        <ele>90.980000000000004</ele>
        <time>2023-08-25T13:32:30Z</time>
      </trkpt>
      <trkpt lat="57.810797961428761" lon="-5.58323297649622">
        <ele>90.5</ele>
        <time>2023-08-25T13:32:31Z</time>
      </trkpt>
      <trkpt lat="57.810650020837784" lon="-5.583282010629773">
        <ele>90.019999999999996</ele>
        <time>2023-08-25T13:32:32Z</time>
      </trkpt>
      <trkpt lat="57.810497973114252" lon="-5.583315035328269">
        <ele>89.540000000000006</ele>
        <time>2023-08-25T13:32:33Z</time>
      </trkpt>
      <trkpt lat="57.810336034744978" lon="-5.583330038934946">
        <ele>89.060000000000002</ele>
        <time>2023-08-25T13:32:34Z</time>
      </trkpt>
      <trkpt lat="57.808641968294978" lon="-5.583415031433106">
        <ele>86.180000000000007</ele>
        <time>2023-08-25T13:32:44Z</time>
      </trkpt>
      <trkpt lat="57.808499978855252" lon="-5.583394998684526">
        <ele>85.689999999999998</ele>
        <time>2023-08-25T13:32:45Z</time>
      </trkpt>
      <trkpt lat="57.808367041870952" lon="-5.583375971764326">
        <ele>85.689999999999998</ele>
        <time>2023-08-25T13:32:46Z</time>
      </trkpt>
      <trkpt lat="57.808253969997168" lon="-5.583273964002729">
        <ele>85.209999999999994</ele>
        <time>2023-08-25T13:32:47Z</time>
      </trkpt>
      <trkpt lat="57.80815003439784" lon="-5.583157958462834">
        <ele>84.730000000000004</ele>
        <time>2023-08-25T13:32:48Z</time>
      </trkpt>
      <trkpt lat="57.808061018586159" lon="-5.583010017871857">
        <ele>84.25</ele>
        <time>2023-08-25T13:32:49Z</time>
      </trkpt>
      <trkpt lat="57.807981977239251" lon="-5.582813965156674">
        <ele>84.25</ele>
        <time>2023-08-25T13:32:50Z</time>
      </trkpt>
      <trkpt lat="57.80791400000453" lon="-5.582590000703931">
        <ele>83.769999999999996</ele>
        <time>2023-08-25T13:32:51Z</time>
      </trkpt>
      <trkpt lat="57.807843005284667" lon="-5.58235396631062">
        <ele>83.290000000000006</ele>
        <time>2023-08-25T13:32:52Z</time>
      </trkpt>
      <trkpt lat="57.807769998908043" lon="-5.582110974937677">
        <ele>83.290000000000006</ele>
        <time>2023-08-25T13:32:53Z</time>
      </trkpt>
      <trkpt lat="57.807541005313396" lon="-5.581414019688964">
        <ele>82.810000000000002</ele>
        <time>2023-08-25T13:32:56Z</time>
      </trkpt>
      <trkpt lat="57.807458024471998" lon="-5.58121201582253">
        <ele>82.329999999999998</ele>
        <time>2023-08-25T13:32:57Z</time>
      </trkpt>
      <trkpt lat="57.807349981740117" lon="-5.581059968098998">
        <ele>82.329999999999998</ele>
        <time>2023-08-25T13:32:58Z</time>
      </trkpt>
      <trkpt lat="57.807227019220591" lon="-5.580956032499671">
        <ele>82.329999999999998</ele>
        <time>2023-08-25T13:32:59Z</time>
      </trkpt>
      <trkpt lat="57.807096010074019" lon="-5.580875985324383">
        <ele>82.329999999999998</ele>
        <time>2023-08-25T13:33:00Z</time>
      </trkpt>
      <trkpt lat="57.806957960128784" lon="-5.580855030566454">
        <ele>81.849999999999994</ele>
        <time>2023-08-25T13:33:01Z</time>
      </trkpt>
      <trkpt lat="57.806820999830961" lon="-5.580870034173131">
        <ele>81.849999999999994</ele>
        <time>2023-08-25T13:33:02Z</time>
      </trkpt>
      <trkpt lat="57.806712035089731" lon="-5.580946980044246">
        <ele>81.849999999999994</ele>
        <time>2023-08-25T13:33:03Z</time>
      </trkpt>
      <trkpt lat="57.806572979316115" lon="-5.581110008060932">
        <ele>81.370000000000005</ele>
        <time>2023-08-25T13:33:04Z</time>
      </trkpt>
      <trkpt lat="57.806451022624969" lon="-5.5812550149858">
        <ele>80.890000000000001</ele>
        <time>2023-08-25T13:33:05Z</time>
      </trkpt>
      <trkpt lat="57.806340968236327" lon="-5.581451989710331">
        <ele>80.409999999999997</ele>
        <time>2023-08-25T13:33:06Z</time>
      </trkpt>
      <trkpt lat="57.804790986701846" lon="-5.584129001945257">
        <ele>76.079999999999998</ele>
        <time>2023-08-25T13:33:19Z</time>
      </trkpt>
      <trkpt lat="57.804170977324247" lon="-5.584717998281121">
        <ele>74.159999999999997</ele>
        <time>2023-08-25T13:33:24Z</time>
      </trkpt>
      <trkpt lat="57.804052038118243" lon="-5.584743982180953">
        <ele>74.159999999999997</ele>
        <time>2023-08-25T13:33:25Z</time>
      </trkpt>
      <trkpt lat="57.803943995386362" lon="-5.584767032414675">
        <ele>73.680000000000007</ele>
        <time>2023-08-25T13:33:26Z</time>
      </trkpt>
      <trkpt lat="57.803834024816751" lon="-5.584694026038051">
        <ele>73.680000000000007</ele>
        <time>2023-08-25T13:33:27Z</time>
      </trkpt>
      <trkpt lat="57.803734028711915" lon="-5.584626970812678">
        <ele>73.680000000000007</ele>
        <time>2023-08-25T13:33:28Z</time>
      </trkpt>
      <trkpt lat="57.803634032607079" lon="-5.584528986364603">
        <ele>73.680000000000007</ele>
        <time>2023-08-25T13:33:29Z</time>
      </trkpt>
      <trkpt lat="57.803536970168352" lon="-5.584405018016696">
        <ele>73.680000000000007</ele>
        <time>2023-08-25T13:33:30Z</time>
      </trkpt>
      <trkpt lat="57.803437979891896" lon="-5.584271997213364">
        <ele>73.680000000000007</ele>
        <time>2023-08-25T13:33:31Z</time>
      </trkpt>
      <trkpt lat="57.802874967455864" lon="-5.583273964002729">
        <ele>77.519999999999996</ele>
        <time>2023-08-25T13:33:37Z</time>
      </trkpt>
      <trkpt lat="57.802775977179408" lon="-5.583074977621436">
        <ele>77.519999999999996</ele>
        <time>2023-08-25T13:33:38Z</time>
      </trkpt>
      <trkpt lat="57.802720991894603" lon="-5.582830980420113">
        <ele>77.519999999999996</ele>
        <time>2023-08-25T13:33:39Z</time>
      </trkpt>
      <trkpt lat="57.802260993048549" lon="-5.580620002001524">
        <ele>73.200000000000003</ele>
        <time>2023-08-25T13:33:47Z</time>
      </trkpt>
      <trkpt lat="57.801885986700654" lon="-5.577565971761942">
        <ele>70.790000000000006</ele>
        <time>2023-08-25T13:33:57Z</time>
      </trkpt>
      <trkpt lat="57.801696974784136" lon="-5.575975002720952">
        <ele>67.430000000000007</ele>
        <time>2023-08-25T13:34:02Z</time>
      </trkpt>
      <trkpt lat="57.801633020862937" lon="-5.575671996921301">
        <ele>66.950000000000003</ele>
        <time>2023-08-25T13:34:03Z</time>
      </trkpt>
      <trkpt lat="57.801562026143074" lon="-5.575380977243185">
        <ele>66.469999999999999</ele>
        <time>2023-08-25T13:34:04Z</time>
      </trkpt>
      <trkpt lat="57.801449960097671" lon="-5.575116025283933">
        <ele>65.510000000000005</ele>
        <time>2023-08-25T13:34:05Z</time>
      </trkpt>
      <trkpt lat="57.801332026720047" lon="-5.574836991727352">
        <ele>65.030000000000001</ele>
        <time>2023-08-25T13:34:06Z</time>
      </trkpt>
      <trkpt lat="57.801199005916715" lon="-5.574558963999152">
        <ele>64.549999999999997</ele>
        <time>2023-08-25T13:34:07Z</time>
      </trkpt>
      <trkpt lat="57.801035977900028" lon="-5.574329970404506">
        <ele>64.069999999999993</ele>
        <time>2023-08-25T13:34:08Z</time>
      </trkpt>
      <trkpt lat="57.79953695833683" lon="-5.572250001132488">
        <ele>60.700000000000003</ele>
        <time>2023-08-25T13:34:17Z</time>
      </trkpt>
      <trkpt lat="57.798817036673427" lon="-5.571379037573934">
        <ele>60.219999999999999</ele>
        <time>2023-08-25T13:34:22Z</time>
      </trkpt>
      <trkpt lat="57.798671023920178" lon="-5.571274012327194">
        <ele>59.740000000000002</ele>
        <time>2023-08-25T13:34:23Z</time>
      </trkpt>
      <trkpt lat="57.79850497841835" lon="-5.571246016770601">
        <ele>59.259999999999998</ele>
        <time>2023-08-25T13:34:24Z</time>
      </trkpt>
      <trkpt lat="57.798328958451748" lon="-5.57122003287077">
        <ele>58.299999999999997</ele>
        <time>2023-08-25T13:34:25Z</time>
      </trkpt>
      <trkpt lat="57.798146987333894" lon="-5.571206035092473">
        <ele>57.82</ele>
        <time>2023-08-25T13:34:26Z</time>
      </trkpt>
      <trkpt lat="57.797437040135264" lon="-5.57124299928546">
        <ele>54.450000000000003</ele>
        <time>2023-08-25T13:34:30Z</time>
      </trkpt>
      <trkpt lat="57.797295972704887" lon="-5.571319023147225">
        <ele>53.490000000000002</ele>
        <time>2023-08-25T13:34:31Z</time>
      </trkpt>
      <trkpt lat="57.797173010185361" lon="-5.571429999545217">
        <ele>52.530000000000001</ele>
        <time>2023-08-25T13:34:32Z</time>
      </trkpt>
      <trkpt lat="57.797057004645467" lon="-5.571589004248381">
        <ele>51.57</ele>
        <time>2023-08-25T13:34:33Z</time>
      </trkpt>
      <trkpt lat="57.796952985227108" lon="-5.571769969537854">
        <ele>50.130000000000003</ele>
        <time>2023-08-25T13:34:34Z</time>
      </trkpt>
      <trkpt lat="57.796857012435794" lon="-5.571999968960881">
        <ele>49.159999999999997</ele>
        <time>2023-08-25T13:34:35Z</time>
      </trkpt>
      <trkpt lat="57.796755004674196" lon="-5.572242960333824">
        <ele>47.719999999999999</ele>
        <time>2023-08-25T13:34:36Z</time>
      </trkpt>
      <trkpt lat="57.795575000345707" lon="-5.575114013627172">
        <ele>28.5</ele>
        <time>2023-08-25T13:34:47Z</time>
      </trkpt>
      <trkpt lat="57.795326979830861" lon="-5.575507041066885">
        <ele>25.609999999999999</ele>
        <time>2023-08-25T13:34:49Z</time>
      </trkpt>
      <trkpt lat="57.795202005654573" lon="-5.575696974992752">
        <ele>24.649999999999999</ele>
        <time>2023-08-25T13:34:50Z</time>
      </trkpt>
      <trkpt lat="57.795059010386467" lon="-5.575809963047504">
        <ele>23.690000000000001</ele>
        <time>2023-08-25T13:34:51Z</time>
      </trkpt>
      <trkpt lat="57.79491500928998" lon="-5.575922029092908">
        <ele>22.73</ele>
        <time>2023-08-25T13:34:52Z</time>
      </trkpt>
      <trkpt lat="57.794762961566448" lon="-5.575963016599417">
        <ele>22.25</ele>
        <time>2023-08-25T13:34:53Z</time>
      </trkpt>
      <trkpt lat="57.79461401514709" lon="-5.575999980792403">
        <ele>21.77</ele>
        <time>2023-08-25T13:34:54Z</time>
      </trkpt>
      <trkpt lat="57.794471019878983" lon="-5.575981959700584">
        <ele>21.77</ele>
        <time>2023-08-25T13:34:55Z</time>
      </trkpt>
      <trkpt lat="57.794329030439258" lon="-5.575936026871204">
        <ele>21.289999999999999</ele>
        <time>2023-08-25T13:34:56Z</time>
      </trkpt>
      <trkpt lat="57.79418402351439" lon="-5.575889004394412">
        <ele>20.809999999999999</ele>
        <time>2023-08-25T13:34:57Z</time>
      </trkpt>
      <trkpt lat="57.794039016589522" lon="-5.57584198191762">
        <ele>20.32</ele>
        <time>2023-08-25T13:34:58Z</time>
      </trkpt>
      <trkpt lat="57.793890992179513" lon="-5.575792025774717">
        <ele>20.32</ele>
        <time>2023-08-25T13:34:59Z</time>
      </trkpt>
      <trkpt lat="57.792183011770248" lon="-5.575007982552052">
        <ele>18.879999999999999</ele>
        <time>2023-08-25T13:35:12Z</time>
      </trkpt>
      <trkpt lat="57.791023962199688" lon="-5.574973030015826">
        <ele>20.32</ele>
        <time>2023-08-25T13:35:20Z</time>
      </trkpt>
      <trkpt lat="57.789625022560358" lon="-5.5747049767524">
        <ele>19.359999999999999</ele>
        <time>2023-08-25T13:35:29Z</time>
      </trkpt>
      <trkpt lat="57.789344983175397" lon="-5.574604980647564">
        <ele>18.879999999999999</ele>
        <time>2023-08-25T13:35:31Z</time>
      </trkpt>
      <trkpt lat="57.789219003170729" lon="-5.574560975655913">
        <ele>18.879999999999999</ele>
        <time>2023-08-25T13:35:32Z</time>
      </trkpt>
      <trkpt lat="57.789102997630835" lon="-5.574543038383126">
        <ele>18.879999999999999</ele>
        <time>2023-08-25T13:35:33Z</time>
      </trkpt>
      <trkpt lat="57.788967965170741" lon="-5.574586037546396">
        <ele>18.879999999999999</ele>
        <time>2023-08-25T13:35:34Z</time>
      </trkpt>
      <trkpt lat="57.788829999044538" lon="-5.574630964547396">
        <ele>18.879999999999999</ele>
        <time>2023-08-25T13:35:35Z</time>
      </trkpt>
      <trkpt lat="57.787707997485995" lon="-5.57509196922183">
        <ele>19.359999999999999</ele>
        <time>2023-08-25T13:35:43Z</time>
      </trkpt>
      <trkpt lat="57.787475986406207" lon="-5.575334038585424">
        <ele>19.359999999999999</ele>
        <time>2023-08-25T13:35:45Z</time>
      </trkpt>
      <trkpt lat="57.787371966987848" lon="-5.575482985004783">
        <ele>19.359999999999999</ele>
        <time>2023-08-25T13:35:46Z</time>
      </trkpt>
      <trkpt lat="57.786392038688064" lon="-5.576890977099538">
        <ele>21.77</ele>
        <time>2023-08-25T13:35:54Z</time>
      </trkpt>
      <trkpt lat="57.78518202714622" lon="-5.579111007973552">
        <ele>24.649999999999999</ele>
        <time>2023-08-25T13:36:03Z</time>
      </trkpt>
      <trkpt lat="57.78430100530386" lon="-5.580409029498696">
        <ele>26.09</ele>
        <time>2023-08-25T13:36:09Z</time>
      </trkpt>
      <trkpt lat="57.784165972843766" lon="-5.580658977851272">
        <ele>26.09</ele>
        <time>2023-08-25T13:36:10Z</time>
      </trkpt>
      <trkpt lat="57.784034041687846" lon="-5.580928036943078">
        <ele>26.09</ele>
        <time>2023-08-25T13:36:11Z</time>
      </trkpt>
      <trkpt lat="57.783036008477211" lon="-5.582707012072206">
        <ele>27.530000000000001</ele>
        <time>2023-08-25T13:36:18Z</time>
      </trkpt>
      <trkpt lat="57.782926959916949" lon="-5.582950003445149">
        <ele>28.02</ele>
        <time>2023-08-25T13:36:19Z</time>
      </trkpt>
      <trkpt lat="57.78283903375268" lon="-5.583214033395052">
        <ele>28.02</ele>
        <time>2023-08-25T13:36:20Z</time>
      </trkpt>
      <trkpt lat="57.782765021547675" lon="-5.583500023931265">
        <ele>28.02</ele>
        <time>2023-08-25T13:36:21Z</time>
      </trkpt>
      <trkpt lat="57.782687991857529" lon="-5.583803029730916">
        <ele>28.5</ele>
        <time>2023-08-25T13:36:22Z</time>
      </trkpt>
      <trkpt lat="57.782609034329653" lon="-5.584115004166961">
        <ele>28.5</ele>
        <time>2023-08-25T13:36:23Z</time>
      </trkpt>
      <trkpt lat="57.78200302273035" lon="-5.586781958118081">
        <ele>33.299999999999997</ele>
        <time>2023-08-25T13:36:31Z</time>
      </trkpt>
      <trkpt lat="57.781722983345389" lon="-5.587857021018863">
        <ele>34.740000000000002</ele>
        <time>2023-08-25T13:36:35Z</time>
      </trkpt>
      <trkpt lat="57.781630028039217" lon="-5.588058019056916">
        <ele>34.740000000000002</ele>
        <time>2023-08-25T13:36:36Z</time>
      </trkpt>
      <trkpt lat="57.781585017219186" lon="-5.588157009333372">
        <ele>34.740000000000002</ele>
        <time>2023-08-25T13:36:37Z</time>
      </trkpt>
      <trkpt lat="57.781396005302668" lon="-5.588307967409492">
        <ele>35.229999999999997</ele>
        <time>2023-08-25T13:36:38Z</time>
      </trkpt>
      <trkpt lat="57.781238006427884" lon="-5.588434031233192">
        <ele>35.229999999999997</ele>
        <time>2023-08-25T13:36:39Z</time>
      </trkpt>
      <trkpt lat="57.781070033088326" lon="-5.588566968217492">
        <ele>35.710000000000001</ele>
        <time>2023-08-25T13:36:40Z</time>
      </trkpt>
      <trkpt lat="57.779673021286726" lon="-5.589383030310273">
        <ele>37.149999999999999</ele>
        <time>2023-08-25T13:36:48Z</time>
      </trkpt>
      <trkpt lat="57.778701977804303" lon="-5.589855015277863">
        <ele>38.109999999999999</ele>
        <time>2023-08-25T13:36:54Z</time>
      </trkpt>
      <trkpt lat="57.778581026941538" lon="-5.589960040524602">
        <ele>38.109999999999999</ele>
        <time>2023-08-25T13:36:55Z</time>
      </trkpt>
      <trkpt lat="57.77845898643136" lon="-5.590179981663823">
        <ele>38.590000000000003</ele>
        <time>2023-08-25T13:36:56Z</time>
      </trkpt>
      <trkpt lat="57.778348010033369" lon="-5.59038701467216">
        <ele>38.590000000000003</ele>
        <time>2023-08-25T13:36:57Z</time>
      </trkpt>
      <trkpt lat="57.778240973129869" lon="-5.590630006045103">
        <ele>38.590000000000003</ele>
        <time>2023-08-25T13:36:58Z</time>
      </trkpt>
      <trkpt lat="57.778127985075116" lon="-5.590884983539581">
        <ele>38.590000000000003</ele>
        <time>2023-08-25T13:36:59Z</time>
      </trkpt>
      <trkpt lat="57.77729700319469" lon="-5.592630011960864">
        <ele>35.229999999999997</ele>
        <time>2023-08-25T13:37:06Z</time>
      </trkpt>
      <trkpt lat="57.776128984987736" lon="-5.594208994880319">
        <ele>29.460000000000001</ele>
        <time>2023-08-25T13:37:15Z</time>
      </trkpt>
      <trkpt lat="57.775979032739997" lon="-5.594352995976806">
        <ele>28.98</ele>
        <time>2023-08-25T13:37:16Z</time>
      </trkpt>
      <trkpt lat="57.774667013436556" lon="-5.595325967296958">
        <ele>21.77</ele>
        <time>2023-08-25T13:37:25Z</time>
      </trkpt>
      <trkpt lat="57.773435963317752" lon="-5.595790995284915">
        <ele>13.6</ele>
        <time>2023-08-25T13:37:34Z</time>
      </trkpt>
      <trkpt lat="57.77201103977859" lon="-5.595920998603106">
        <ele>9.75</ele>
        <time>2023-08-25T13:37:43Z</time>
      </trkpt>
      <trkpt lat="57.770990040153265" lon="-5.596388960257173">
        <ele>8.789999999999999</ele>
        <time>2023-08-25T13:37:50Z</time>
      </trkpt>
      <trkpt lat="57.770102983340621" lon="-5.597214996814728">
        <ele>7.83</ele>
        <time>2023-08-25T13:37:58Z</time>
      </trkpt>
      <trkpt lat="57.769882958382368" lon="-5.597426975145936">
        <ele>7.35</ele>
        <time>2023-08-25T13:38:00Z</time>
      </trkpt>
      <trkpt lat="57.769767036661506" lon="-5.597512973472476">
        <ele>7.35</ele>
        <time>2023-08-25T13:38:01Z</time>
      </trkpt>
      <trkpt lat="57.768805967643857" lon="-5.59844302944839">
        <ele>5.91</ele>
        <time>2023-08-25T13:38:10Z</time>
      </trkpt>
      <trkpt lat="57.767847999930382" lon="-5.599855966866016">
        <ele>4.94</ele>
        <time>2023-08-25T13:38:21Z</time>
      </trkpt>
      <trkpt lat="57.767079966142774" lon="-5.601315004751086">
        <ele>4.94</ele>
        <time>2023-08-25T13:38:31Z</time>
      </trkpt>
      <trkpt lat="57.766243033111095" lon="-5.602539014071226">
        <ele>5.91</ele>
        <time>2023-08-25T13:38:41Z</time>
      </trkpt>
      <trkpt lat="57.765149027109146" lon="-5.604078015312553">
        <ele>6.87</ele>
        <time>2023-08-25T13:38:53Z</time>
      </trkpt>
      <trkpt lat="57.765061017125845" lon="-5.604126965627074">
        <ele>6.87</ele>
        <time>2023-08-25T13:38:54Z</time>
      </trkpt>
      <trkpt lat="57.764974012970924" lon="-5.604138029739261">
        <ele>7.35</ele>
        <time>2023-08-25T13:38:55Z</time>
      </trkpt>
      <trkpt lat="57.764889020472765" lon="-5.604149010032415">
        <ele>7.35</ele>
        <time>2023-08-25T13:38:56Z</time>
      </trkpt>
      <trkpt lat="57.764804027974606" lon="-5.60415898449719">
        <ele>7.83</ele>
        <time>2023-08-25T13:38:57Z</time>
      </trkpt>
      <trkpt lat="57.764716017991304" lon="-5.604141969233751">
        <ele>8.310000000000001</ele>
        <time>2023-08-25T13:38:58Z</time>
      </trkpt>
      <trkpt lat="57.764619961380959" lon="-5.60409301891923">
        <ele>8.789999999999999</ele>
        <time>2023-08-25T13:38:59Z</time>
      </trkpt>
      <trkpt lat="57.764521976932883" lon="-5.604040967300534">
        <ele>9.27</ele>
        <time>2023-08-25T13:39:00Z</time>
      </trkpt>
      <trkpt lat="57.763669034466147" lon="-5.60358096845448">
        <ele>10.710000000000001</ele>
        <time>2023-08-25T13:39:07Z</time>
      </trkpt>
      <trkpt lat="57.762323990464211" lon="-5.602790974080563">
        <ele>11.19</ele>
        <time>2023-08-25T13:39:17Z</time>
      </trkpt>
      <trkpt lat="57.762230029329658" lon="-5.602662982419133">
        <ele>11.67</ele>
        <time>2023-08-25T13:39:18Z</time>
      </trkpt>
      <trkpt lat="57.762148976325989" lon="-5.602497020736337">
        <ele>12.15</ele>
        <time>2023-08-25T13:39:19Z</time>
      </trkpt>
      <trkpt lat="57.762063983827829" lon="-5.602322006598115">
        <ele>12.15</ele>
        <time>2023-08-25T13:39:20Z</time>
      </trkpt>
      <trkpt lat="57.761975973844528" lon="-5.602143974974752">
        <ele>12.630000000000001</ele>
        <time>2023-08-25T13:39:21Z</time>
      </trkpt>
      <trkpt lat="57.761087995022535" lon="-5.600133994594216">
        <ele>14.08</ele>
        <time>2023-08-25T13:39:30Z</time>
      </trkpt>
      <trkpt lat="57.760942988097668" lon="-5.599786983802915">
        <ele>14.56</ele>
        <time>2023-08-25T13:39:32Z</time>
      </trkpt>
      <trkpt lat="57.760771997272968" lon="-5.599579028785229">
        <ele>14.56</ele>
        <time>2023-08-25T13:39:33Z</time>
      </trkpt>
      <trkpt lat="57.760750036686659" lon="-5.599551033228636">
        <ele>14.56</ele>
        <time>2023-08-25T13:39:34Z</time>
      </trkpt>
      <trkpt lat="57.760558007284999" lon="-5.599543992429972">
        <ele>14.56</ele>
        <time>2023-08-25T13:39:35Z</time>
      </trkpt>
      <trkpt lat="57.760430015623569" lon="-5.59953804127872">
        <ele>14.56</ele>
        <time>2023-08-25T13:39:36Z</time>
      </trkpt>
      <trkpt lat="57.760291965678334" lon="-5.599533012136817">
        <ele>14.08</ele>
        <time>2023-08-25T13:39:37Z</time>
      </trkpt>
      <trkpt lat="57.760141007602215" lon="-5.599526977166534">
        <ele>14.08</ele>
        <time>2023-08-25T13:39:38Z</time>
      </trkpt>
      <trkpt lat="57.759974962100387" lon="-5.599520020186901">
        <ele>13.6</ele>
        <time>2023-08-25T13:39:39Z</time>
      </trkpt>
      <trkpt lat="57.759801037609577" lon="-5.599512979388237">
        <ele>13.119999999999999</ele>
        <time>2023-08-25T13:39:40Z</time>
      </trkpt>
      <trkpt lat="57.75817503221333" lon="-5.599312987178564">
        <ele>9.75</ele>
        <time>2023-08-25T13:39:49Z</time>
      </trkpt>
      <trkpt lat="57.756933001801372" lon="-5.598732037469745">
        <ele>10.710000000000001</ele>
        <time>2023-08-25T13:39:56Z</time>
      </trkpt>
      <trkpt lat="57.756128003820777" lon="-5.59822996146977">
        <ele>10.23</ele>
        <time>2023-08-25T13:40:01Z</time>
      </trkpt>
      <trkpt lat="57.755107004195452" lon="-5.597093040123582">
        <ele>12.630000000000001</ele>
        <time>2023-08-25T13:40:08Z</time>
      </trkpt>
      <trkpt lat="57.754941964522004" lon="-5.59696001932025">
        <ele>13.119999999999999</ele>
        <time>2023-08-25T13:40:09Z</time>
      </trkpt>
      <trkpt lat="57.754760999232531" lon="-5.596863040700555">
        <ele>13.6</ele>
        <time>2023-08-25T13:40:10Z</time>
      </trkpt>
      <trkpt lat="57.754589002579451" lon="-5.596836972981691">
        <ele>13.6</ele>
        <time>2023-08-25T13:40:11Z</time>
      </trkpt>
      <trkpt lat="57.754411976784468" lon="-5.596809983253479">
        <ele>14.08</ele>
        <time>2023-08-25T13:40:12Z</time>
      </trkpt>
      <trkpt lat="57.754222964867949" lon="-5.596840996295214">
        <ele>15.039999999999999</ele>
        <time>2023-08-25T13:40:13Z</time>
      </trkpt>
      <trkpt lat="57.754044011235237" lon="-5.596883995458484">
        <ele>15.039999999999999</ele>
        <time>2023-08-25T13:40:14Z</time>
      </trkpt>
      <trkpt lat="57.753488961607218" lon="-5.597016010433435">
        <ele>16.48</ele>
        <time>2023-08-25T13:40:17Z</time>
      </trkpt>
      <trkpt lat="57.753317970782518" lon="-5.596949961036444">
        <ele>16.960000000000001</ele>
        <time>2023-08-25T13:40:18Z</time>
      </trkpt>
      <trkpt lat="57.753135999664664" lon="-5.596869997680187">
        <ele>17.920000000000002</ele>
        <time>2023-08-25T13:40:19Z</time>
      </trkpt>
      <trkpt lat="57.751561962068081" lon="-5.596340009942651">
        <ele>28.98</ele>
        <time>2023-08-25T13:40:27Z</time>
      </trkpt>
      <trkpt lat="57.750597959384322" lon="-5.59610104188323">
        <ele>38.590000000000003</ele>
        <time>2023-08-25T13:40:32Z</time>
      </trkpt>
      <trkpt lat="57.750410037115216" lon="-5.59610003605485">
        <ele>40.990000000000002</ele>
        <time>2023-08-25T13:40:33Z</time>
      </trkpt>
      <trkpt lat="57.750238962471485" lon="-5.596153009682894">
        <ele>42.920000000000002</ele>
        <time>2023-08-25T13:40:34Z</time>
      </trkpt>
      <trkpt lat="57.750091021880507" lon="-5.596262980252504">
        <ele>45.32</ele>
        <time>2023-08-25T13:40:35Z</time>
      </trkpt>
      <trkpt lat="57.749940985813737" lon="-5.596400024369359">
        <ele>48.200000000000003</ele>
        <time>2023-08-25T13:40:36Z</time>
      </trkpt>
      <trkpt lat="57.749811988323927" lon="-5.596606973558664">
        <ele>50.609999999999999</ele>
        <time>2023-08-25T13:40:37Z</time>
      </trkpt>
      <trkpt lat="57.749679973348975" lon="-5.596847031265497">
        <ele>53.490000000000002</ele>
        <time>2023-08-25T13:40:38Z</time>
      </trkpt>
      <trkpt lat="57.749553993344307" lon="-5.597107959911227">
        <ele>55.890000000000001</ele>
        <time>2023-08-25T13:40:39Z</time>
      </trkpt>
      <trkpt lat="57.749101035296917" lon="-5.598175982013345">
        <ele>63.579999999999998</ele>
        <time>2023-08-25T13:40:43Z</time>
      </trkpt>
      <trkpt lat="57.74904403835535" lon="-5.598439006134868">
        <ele>65.030000000000001</ele>
        <time>2023-08-25T13:40:44Z</time>
      </trkpt>
      <trkpt lat="57.74900103919208" lon="-5.598695995286107">
        <ele>66.950000000000003</ele>
        <time>2023-08-25T13:40:45Z</time>
      </trkpt>
      <trkpt lat="57.748990980908275" lon="-5.598960025236011">
        <ele>68.870000000000005</ele>
        <time>2023-08-25T13:40:46Z</time>
      </trkpt>
      <trkpt lat="57.749011013656855" lon="-5.599227994680405">
        <ele>70.790000000000006</ele>
        <time>2023-08-25T13:40:47Z</time>
      </trkpt>
      <trkpt lat="57.749036997556686" lon="-5.599521026015282">
        <ele>72.719999999999999</ele>
        <time>2023-08-25T13:40:48Z</time>
      </trkpt>
      <trkpt lat="57.749075973406434" lon="-5.599820008501411">
        <ele>74.159999999999997</ele>
        <time>2023-08-25T13:40:49Z</time>
      </trkpt>
      <trkpt lat="57.749142022803426" lon="-5.600122008472681">
        <ele>75.599999999999994</ele>
        <time>2023-08-25T13:40:50Z</time>
      </trkpt>
      <trkpt lat="57.749504959210753" lon="-5.602081026881933">
        <ele>85.209999999999994</ele>
        <time>2023-08-25T13:40:56Z</time>
      </trkpt>
      <trkpt lat="57.749518034979701" lon="-5.60243901796639">
        <ele>86.180000000000007</ele>
        <time>2023-08-25T13:40:57Z</time>
      </trkpt>
      <trkpt lat="57.749543013051152" lon="-5.605609975755215">
        <ele>90.980000000000004</ele>
        <time>2023-08-25T13:41:06Z</time>
      </trkpt>
      <trkpt lat="57.749379985034466" lon="-5.608103005215526">
        <ele>95.790000000000006</ele>
        <time>2023-08-25T13:41:13Z</time>
      </trkpt>
      <trkpt lat="57.749322988092899" lon="-5.60845403932035">
        <ele>96.75</ele>
        <time>2023-08-25T13:41:14Z</time>
      </trkpt>
      <trkpt lat="57.748345993459225" lon="-5.612280964851379">
        <ele>114.05</ele>
        <time>2023-08-25T13:41:25Z</time>
      </trkpt>
      <trkpt lat="57.747620036825538" lon="-5.614924030378461">
        <ele>125.11</ele>
        <time>2023-08-25T13:41:33Z</time>
      </trkpt>
      <trkpt lat="57.747568991035223" lon="-5.615247990936041">
        <ele>126.06999999999999</ele>
        <time>2023-08-25T13:41:34Z</time>
      </trkpt>
      <trkpt lat="57.747509982436895" lon="-5.615622997283936">
        <ele>126.55</ele>
        <time>2023-08-25T13:41:35Z</time>
      </trkpt>
      <trkpt lat="57.747492967173457" lon="-5.615972019731998">
        <ele>127.51000000000001</ele>
        <time>2023-08-25T13:41:36Z</time>
      </trkpt>
      <trkpt lat="57.747474024072289" lon="-5.616357000544667">
        <ele>127.98999999999999</ele>
        <time>2023-08-25T13:41:37Z</time>
      </trkpt>
      <trkpt lat="57.74726196192205" lon="-5.620652977377176">
        <ele>131.84</ele>
        <time>2023-08-25T13:41:48Z</time>
      </trkpt>
      <trkpt lat="57.747145034372807" lon="-5.623078029602766">
        <ele>131.84</ele>
        <time>2023-08-25T13:41:55Z</time>
      </trkpt>
      <trkpt lat="57.747298004105687" lon="-5.627223970368505">
        <ele>128.94999999999999</ele>
        <time>2023-08-25T13:42:05Z</time>
      </trkpt>
      <trkpt lat="57.747532026842237" lon="-5.629827976226807">
        <ele>128.47</ele>
        <time>2023-08-25T13:42:12Z</time>
      </trkpt>
      <trkpt lat="57.747610984370112" lon="-5.630170963704586">
        <ele>128.47</ele>
        <time>2023-08-25T13:42:13Z</time>
      </trkpt>
      <trkpt lat="57.747756997123361" lon="-5.630836989730597">
        <ele>128.47</ele>
        <time>2023-08-25T13:42:15Z</time>
      </trkpt>
      <trkpt lat="57.747797984629869" lon="-5.631179977208376">
        <ele>127.98999999999999</ele>
        <time>2023-08-25T13:42:16Z</time>
      </trkpt>
      <trkpt lat="57.747831009328365" lon="-5.6315310113132">
        <ele>128.47</ele>
        <time>2023-08-25T13:42:17Z</time>
      </trkpt>
      <trkpt lat="57.747823968529701" lon="-5.631877016276121">
        <ele>128.47</ele>
        <time>2023-08-25T13:42:18Z</time>
      </trkpt>
      <trkpt lat="57.747816005721688" lon="-5.632225032895804">
        <ele>128.47</ele>
        <time>2023-08-25T13:42:19Z</time>
      </trkpt>
      <trkpt lat="57.74779899045825" lon="-5.632574977353215">
        <ele>128.94999999999999</ele>
        <time>2023-08-25T13:42:20Z</time>
      </trkpt>
      <trkpt lat="57.747742999345064" lon="-5.63290698453784">
        <ele>128.94999999999999</ele>
        <time>2023-08-25T13:42:21Z</time>
      </trkpt>
      <trkpt lat="57.747683990746737" lon="-5.633250977844">
        <ele>129.43000000000001</ele>
        <time>2023-08-25T13:42:22Z</time>
      </trkpt>
      <trkpt lat="57.747582988813519" lon="-5.633559012785554">
        <ele>129.43000000000001</ele>
        <time>2023-08-25T13:42:23Z</time>
      </trkpt>
      <trkpt lat="57.747477041557431" lon="-5.633876016363502">
        <ele>129.91999999999999</ele>
        <time>2023-08-25T13:42:24Z</time>
      </trkpt>
      <trkpt lat="57.747358018532395" lon="-5.63419402576983">
        <ele>130.40000000000001</ele>
        <time>2023-08-25T13:42:25Z</time>
      </trkpt>
      <trkpt lat="57.747233966365457" lon="-5.634512035176158">
        <ele>130.88</ele>
        <time>2023-08-25T13:42:26Z</time>
      </trkpt>
      <trkpt lat="57.745681973174214" lon="-5.638619000092149">
        <ele>136.16</ele>
        <time>2023-08-25T13:42:38Z</time>
      </trkpt>
      <trkpt lat="57.744513032957911" lon="-5.641405982896686">
        <ele>138.09</ele>
        <time>2023-08-25T13:42:46Z</time>
      </trkpt>
      <trkpt lat="57.743084002286196" lon="-5.643194010481238">
        <ele>141.44999999999999</ele>
        <time>2023-08-25T13:42:53Z</time>
      </trkpt>
      <trkpt lat="57.741302009671926" lon="-5.645371964201331">
        <ele>144.81999999999999</ele>
        <time>2023-08-25T13:43:02Z</time>
      </trkpt>
      <trkpt lat="57.740859026089311" lon="-5.646078977733851">
        <ele>145.30000000000001</ele>
        <time>2023-08-25T13:43:05Z</time>
      </trkpt>
      <trkpt lat="57.740730028599501" lon="-5.646329009905458">
        <ele>145.78</ele>
        <time>2023-08-25T13:43:06Z</time>
      </trkpt>
      <trkpt lat="57.740633971989155" lon="-5.646595973521471">
        <ele>145.78</ele>
        <time>2023-08-25T13:43:07Z</time>
      </trkpt>
      <trkpt lat="57.740555014461279" lon="-5.646913982927799">
        <ele>145.78</ele>
        <time>2023-08-25T13:43:08Z</time>
      </trkpt>
      <trkpt lat="57.740476978942752" lon="-5.647240038961172">
        <ele>145.78</ele>
        <time>2023-08-25T13:43:09Z</time>
      </trkpt>
      <trkpt lat="57.739917989820242" lon="-5.649769026786089">
        <ele>143.84999999999999</ele>
        <time>2023-08-25T13:43:16Z</time>
      </trkpt>
      <trkpt lat="57.73987197317183" lon="-5.650102961808443">
        <ele>142.88999999999999</ele>
        <time>2023-08-25T13:43:17Z</time>
      </trkpt>
      <trkpt lat="57.73987096734345" lon="-5.650404961779714">
        <ele>141.44999999999999</ele>
        <time>2023-08-25T13:43:18Z</time>
      </trkpt>
      <trkpt lat="57.73987096734345" lon="-5.650706039741635">
        <ele>140.97</ele>
        <time>2023-08-25T13:43:19Z</time>
      </trkpt>
      <trkpt lat="57.739896029233932" lon="-5.651037963107228">
        <ele>139.53</ele>
        <time>2023-08-25T13:43:20Z</time>
      </trkpt>
      <trkpt lat="57.740072971209884" lon="-5.653282972052693">
        <ele>131.84</ele>
        <time>2023-08-25T13:43:26Z</time>
      </trkpt>
      <trkpt lat="57.740046987310052" lon="-5.653666025027633">
        <ele>129.91999999999999</ele>
        <time>2023-08-25T13:43:27Z</time>
      </trkpt>
      <trkpt lat="57.74001999758184" lon="-5.654066009446979">
        <ele>128.47</ele>
        <time>2023-08-25T13:43:28Z</time>
      </trkpt>
      <trkpt lat="57.739738030359149" lon="-5.658230977132917">
        <ele>111.17</ele>
        <time>2023-08-25T13:43:38Z</time>
      </trkpt>
      <trkpt lat="57.739589000120759" lon="-5.659767966717482">
        <ele>104.92</ele>
        <time>2023-08-25T13:43:42Z</time>
      </trkpt>
      <trkpt lat="57.739515993744135" lon="-5.660122018307447">
        <ele>103.95999999999999</ele>
        <time>2023-08-25T13:43:43Z</time>
      </trkpt>
      <trkpt lat="57.739396970719099" lon="-5.660424018278718">
        <ele>102.52</ele>
        <time>2023-08-25T13:43:44Z</time>
      </trkpt>
      <trkpt lat="57.739266967400908" lon="-5.66072802990675">
        <ele>101.08</ele>
        <time>2023-08-25T13:43:45Z</time>
      </trkpt>
      <trkpt lat="57.739132018759847" lon="-5.661044027656317">
        <ele>100.11</ele>
        <time>2023-08-25T13:43:46Z</time>
      </trkpt>
      <trkpt lat="57.738652992993593" lon="-5.662321010604501">
        <ele>96.269999999999996</ele>
        <time>2023-08-25T13:43:50Z</time>
      </trkpt>
      <trkpt lat="57.738600019365549" lon="-5.662657963111997">
        <ele>95.310000000000002</ele>
        <time>2023-08-25T13:43:51Z</time>
      </trkpt>
      <trkpt lat="57.738083023577929" lon="-5.66610200330615">
        <ele>91.459999999999994</ele>
        <time>2023-08-25T13:44:00Z</time>
      </trkpt>
      <trkpt lat="57.737573990598321" lon="-5.66861498169601">
        <ele>88.579999999999998</ele>
        <time>2023-08-25T13:44:07Z</time>
      </trkpt>
      <trkpt lat="57.737531997263432" lon="-5.668983031064272">
        <ele>88.099999999999994</ele>
        <time>2023-08-25T13:44:08Z</time>
      </trkpt>
      <trkpt lat="57.737531997263432" lon="-5.669370023533702">
        <ele>87.620000000000005</ele>
        <time>2023-08-25T13:44:09Z</time>
      </trkpt>
      <trkpt lat="57.737537026405334" lon="-5.669762967154384">
        <ele>87.620000000000005</ele>
        <time>2023-08-25T13:44:10Z</time>
      </trkpt>
      <trkpt lat="57.737567033618689" lon="-5.670157000422478">
        <ele>87.140000000000001</ele>
        <time>2023-08-25T13:44:11Z</time>
      </trkpt>
      <trkpt lat="57.737596035003662" lon="-5.670541981235147">
        <ele>87.140000000000001</ele>
        <time>2023-08-25T13:44:12Z</time>
      </trkpt>
      <trkpt lat="57.737586982548237" lon="-5.673461984843016">
        <ele>87.620000000000005</ele>
        <time>2023-08-25T13:44:19Z</time>
      </trkpt>
      <trkpt lat="57.737450022250414" lon="-5.67675699479878">
        <ele>89.060000000000002</ele>
        <time>2023-08-25T13:44:27Z</time>
      </trkpt>
      <trkpt lat="57.737424960359931" lon="-5.677012978121638">
        <ele>89.060000000000002</ele>
        <time>2023-08-25T13:44:28Z</time>
      </trkpt>
      <trkpt lat="57.737338040024042" lon="-5.677276002243161">
        <ele>89.060000000000002</ele>
        <time>2023-08-25T13:44:29Z</time>
      </trkpt>
      <trkpt lat="57.737254975363612" lon="-5.677523016929627">
        <ele>89.060000000000002</ele>
        <time>2023-08-25T13:44:30Z</time>
      </trkpt>
      <trkpt lat="57.737160008400679" lon="-5.677737006917596">
        <ele>88.579999999999998</ele>
        <time>2023-08-25T13:44:31Z</time>
      </trkpt>
      <trkpt lat="57.737065041437745" lon="-5.677927024662495">
        <ele>88.099999999999994</ele>
        <time>2023-08-25T13:44:32Z</time>
      </trkpt>
      <trkpt lat="57.736980970948935" lon="-5.678030960261822">
        <ele>88.099999999999994</ele>
        <time>2023-08-25T13:44:33Z</time>
      </trkpt>
      <trkpt lat="57.736910982057452" lon="-5.678115030750632">
        <ele>87.620000000000005</ele>
        <time>2023-08-25T13:44:34Z</time>
      </trkpt>
      <trkpt lat="57.736860020086169" lon="-5.678175967186689">
        <ele>87.140000000000001</ele>
        <time>2023-08-25T13:44:35Z</time>
      </trkpt>
      <trkpt lat="57.736820038408041" lon="-5.678225001320243">
        <ele>86.180000000000007</ele>
        <time>2023-08-25T13:44:36Z</time>
      </trkpt>
      <trkpt lat="57.736794976517558" lon="-5.678254002705216">
        <ele>85.689999999999998</ele>
        <time>2023-08-25T13:44:37Z</time>
      </trkpt>
      <trkpt lat="57.736757006496191" lon="-5.678300019353628">
        <ele>84.25</ele>
        <time>2023-08-25T13:44:45Z</time>
      </trkpt>
      <trkpt lat="57.736645024269819" lon="-5.67843496799469">
        <ele>82.810000000000002</ele>
        <time>2023-08-25T13:44:47Z</time>
      </trkpt>
      <trkpt lat="57.736121993511915" lon="-5.679180035367608">
        <ele>79.450000000000003</ele>
        <time>2023-08-25T13:44:53Z</time>
      </trkpt>
      <trkpt lat="57.736039012670517" lon="-5.679399976506829">
        <ele>78.969999999999999</ele>
        <time>2023-08-25T13:44:54Z</time>
      </trkpt>
      <trkpt lat="57.735984027385712" lon="-5.679632993414998">
        <ele>78.480000000000004</ele>
        <time>2023-08-25T13:44:55Z</time>
      </trkpt>
      <trkpt lat="57.735940022394061" lon="-5.679904986172915">
        <ele>78</ele>
        <time>2023-08-25T13:44:56Z</time>
      </trkpt>
      <trkpt lat="57.735894005745649" lon="-5.680187037214637">
        <ele>77.519999999999996</ele>
        <time>2023-08-25T13:44:57Z</time>
      </trkpt>
      <trkpt lat="57.735785963013768" lon="-5.680693974718452">
        <ele>77.040000000000006</ele>
        <time>2023-08-25T13:44:59Z</time>
      </trkpt>
      <trkpt lat="57.735729971900582" lon="-5.680917017161846">
        <ele>77.040000000000006</ele>
        <time>2023-08-25T13:45:00Z</time>
      </trkpt>
      <trkpt lat="57.735628969967365" lon="-5.681114997714758">
        <ele>77.040000000000006</ele>
        <time>2023-08-25T13:45:01Z</time>
      </trkpt>
      <trkpt lat="57.734829001128674" lon="-5.682763969525695">
        <ele>74.640000000000001</ele>
        <time>2023-08-25T13:45:08Z</time>
      </trkpt>
      <trkpt lat="57.734750965610147" lon="-5.683088013902307">
        <ele>74.159999999999997</ele>
        <time>2023-08-25T13:45:09Z</time>
      </trkpt>
      <trkpt lat="57.734534963965416" lon="-5.683990996330977">
        <ele>74.640000000000001</ele>
        <time>2023-08-25T13:45:12Z</time>
      </trkpt>
      <trkpt lat="57.734474027529359" lon="-5.684245973825455">
        <ele>75.120000000000005</ele>
        <time>2023-08-25T13:45:13Z</time>
      </trkpt>
      <trkpt lat="57.734372019767761" lon="-5.684450995177031">
        <ele>76.079999999999998</ele>
        <time>2023-08-25T13:45:14Z</time>
      </trkpt>
      <trkpt lat="57.734275963157415" lon="-5.684620980173349">
        <ele>76.560000000000002</ele>
        <time>2023-08-25T13:45:15Z</time>
      </trkpt>
      <trkpt lat="57.734174961224198" lon="-5.684800017625094">
        <ele>78</ele>
        <time>2023-08-25T13:45:16Z</time>
      </trkpt>
      <trkpt lat="57.734072031453252" lon="-5.684981988742948">
        <ele>78.969999999999999</ele>
        <time>2023-08-25T13:45:17Z</time>
      </trkpt>
      <trkpt lat="57.733394019305706" lon="-5.686184959486127">
        <ele>82.329999999999998</ele>
        <time>2023-08-25T13:45:23Z</time>
      </trkpt>
      <trkpt lat="57.73329796269536" lon="-5.686414958909154">
        <ele>81.849999999999994</ele>
        <time>2023-08-25T13:45:24Z</time>
      </trkpt>
      <trkpt lat="57.733233002945781" lon="-5.686667002737522">
        <ele>81.370000000000005</ele>
        <time>2023-08-25T13:45:25Z</time>
      </trkpt>
      <trkpt lat="57.73316795937717" lon="-5.686919968575239">
        <ele>80.890000000000001</ele>
        <time>2023-08-25T13:45:26Z</time>
      </trkpt>
      <trkpt lat="57.733124038204551" lon="-5.687183998525143">
        <ele>79.930000000000007</ele>
        <time>2023-08-25T13:45:27Z</time>
      </trkpt>
      <trkpt lat="57.733085984364152" lon="-5.687450040131807">
        <ele>79.450000000000003</ele>
        <time>2023-08-25T13:45:28Z</time>
      </trkpt>
      <trkpt lat="57.732820026576519" lon="-5.688964985311031">
        <ele>75.599999999999994</ele>
        <time>2023-08-25T13:45:35Z</time>
      </trkpt>
      <trkpt lat="57.732748026028275" lon="-5.689132958650589">
        <ele>75.120000000000005</ele>
        <time>2023-08-25T13:45:36Z</time>
      </trkpt>
      <trkpt lat="57.732675019651651" lon="-5.689301015809178">
        <ele>74.159999999999997</ele>
        <time>2023-08-25T13:45:37Z</time>
      </trkpt>
      <trkpt lat="57.732603019103408" lon="-5.689466977491975">
        <ele>73.200000000000003</ele>
        <time>2023-08-25T13:45:38Z</time>
      </trkpt>
      <trkpt lat="57.732508974149823" lon="-5.689551969990134">
        <ele>72.239999999999995</ele>
        <time>2023-08-25T13:45:39Z</time>
      </trkpt>
      <trkpt lat="57.732407972216606" lon="-5.689634028822184">
        <ele>71.269999999999996</ele>
        <time>2023-08-25T13:45:40Z</time>
      </trkpt>
      <trkpt lat="57.732305964455009" lon="-5.689717009663582">
        <ele>69.829999999999998</ele>
        <time>2023-08-25T13:45:41Z</time>
      </trkpt>
      <trkpt lat="57.732203034684062" lon="-5.689781969413161">
        <ele>68.870000000000005</ele>
        <time>2023-08-25T13:45:42Z</time>
      </trkpt>
      <trkpt lat="57.730852961540222" lon="-5.690390998497605">
        <ele>55.890000000000001</ele>
        <time>2023-08-25T13:45:53Z</time>
      </trkpt>
      <trkpt lat="57.730135973542929" lon="-5.690476996824145">
        <ele>49.159999999999997</ele>
        <time>2023-08-25T13:45:59Z</time>
      </trkpt>
      <trkpt lat="57.728769974783063" lon="-5.690159993246198">
        <ele>35.710000000000001</ele>
        <time>2023-08-25T13:46:10Z</time>
      </trkpt>
      <trkpt lat="57.728463029488921" lon="-5.690144989639521">
        <ele>31.379999999999999</ele>
        <time>2023-08-25T13:46:13Z</time>
      </trkpt>
      <trkpt lat="57.728374013677239" lon="-5.690182037651539">
        <ele>29.940000000000001</ele>
        <time>2023-08-25T13:46:14Z</time>
      </trkpt>
      <trkpt lat="57.728293966501951" lon="-5.690215984359384">
        <ele>28.5</ele>
        <time>2023-08-25T13:46:15Z</time>
      </trkpt>
      <trkpt lat="57.727518975734711" lon="-5.690582022070885">
        <ele>22.73</ele>
        <time>2023-08-25T13:46:25Z</time>
      </trkpt>
      <trkpt lat="57.72685001604259" lon="-5.690804980695248">
        <ele>22.73</ele>
        <time>2023-08-25T13:46:32Z</time>
      </trkpt>
      <trkpt lat="57.726752031594515" lon="-5.69078603759408">
        <ele>22.73</ele>
        <time>2023-08-25T13:46:33Z</time>
      </trkpt>
      <trkpt lat="57.726653963327408" lon="-5.690740020945668">
        <ele>23.210000000000001</ele>
        <time>2023-08-25T13:46:34Z</time>
      </trkpt>
      <trkpt lat="57.7256890386343" lon="-5.690042981877923">
        <ele>21.77</ele>
        <time>2023-08-25T13:46:45Z</time>
      </trkpt>
      <trkpt lat="57.724623028188944" lon="-5.689187021926045">
        <ele>18.399999999999999</ele>
        <time>2023-08-25T13:46:56Z</time>
      </trkpt>
      <trkpt lat="57.723657013848424" lon="-5.688590984791517">
        <ele>14.08</ele>
        <time>2023-08-25T13:47:05Z</time>
      </trkpt>
      <trkpt lat="57.72255496121943" lon="-5.687528997659683">
        <ele>15.039999999999999</ele>
        <time>2023-08-25T13:47:17Z</time>
      </trkpt>
      <trkpt lat="57.721937969326973" lon="-5.686953999102116">
        <ele>14.56</ele>
        <time>2023-08-25T13:47:25Z</time>
      </trkpt>
      <trkpt lat="57.720823008567095" lon="-5.686500035226345">
        <ele>15.52</ele>
        <time>2023-08-25T13:47:36Z</time>
      </trkpt>
      <trkpt lat="57.720376001670957" lon="-5.686395009979606">
        <ele>18.879999999999999</ele>
        <time>2023-08-25T13:47:40Z</time>
      </trkpt>
      <trkpt lat="57.720135021954775" lon="-5.686375983059406">
        <ele>20.32</ele>
        <time>2023-08-25T13:47:42Z</time>
      </trkpt>
      <trkpt lat="57.719227010384202" lon="-5.686507998034358">
        <ele>26.09</ele>
        <time>2023-08-25T13:47:49Z</time>
      </trkpt>
      <trkpt lat="57.719112010672688" lon="-5.686478996649385">
        <ele>27.050000000000001</ele>
        <time>2023-08-25T13:47:50Z</time>
      </trkpt>
      <trkpt lat="57.71900799125433" lon="-5.686446977779269">
        <ele>27.530000000000001</ele>
        <time>2023-08-25T13:47:51Z</time>
      </trkpt>
      <trkpt lat="57.718913024291396" lon="-5.68631898611784">
        <ele>27.530000000000001</ele>
        <time>2023-08-25T13:47:52Z</time>
      </trkpt>
      <trkpt lat="57.718811016529799" lon="-5.686183031648397">
        <ele>27.530000000000001</ele>
        <time>2023-08-25T13:47:53Z</time>
      </trkpt>
      <trkpt lat="57.718719989061356" lon="-5.68603903055191">
        <ele>27.530000000000001</ele>
        <time>2023-08-25T13:47:54Z</time>
      </trkpt>
      <trkpt lat="57.718650000169873" lon="-5.685897041112185">
        <ele>27.530000000000001</ele>
        <time>2023-08-25T13:47:55Z</time>
      </trkpt>
      <trkpt lat="57.7186019718647" lon="-5.685671987012029">
        <ele>27.530000000000001</ele>
        <time>2023-08-25T13:47:56Z</time>
      </trkpt>
      <trkpt lat="57.71855603903532" lon="-5.685455985367298">
        <ele>27.530000000000001</ele>
        <time>2023-08-25T13:47:57Z</time>
      </trkpt>
      <trkpt lat="57.718505999073386" lon="-5.685229003429413">
        <ele>27.050000000000001</ele>
        <time>2023-08-25T13:47:58Z</time>
      </trkpt>
      <trkpt lat="57.718455037102103" lon="-5.684999004006386">
        <ele>27.050000000000001</ele>
        <time>2023-08-25T13:47:59Z</time>
      </trkpt>
      <trkpt lat="57.718404997140169" lon="-5.684775961562991">
        <ele>26.57</ele>
        <time>2023-08-25T13:48:00Z</time>
      </trkpt>
      <trkpt lat="57.718356968834996" lon="-5.684559037908912">
        <ele>26.09</ele>
        <time>2023-08-25T13:48:01Z</time>
      </trkpt>
      <trkpt lat="57.71816804073751" lon="-5.68421496078372">
        <ele>25.609999999999999</ele>
        <time>2023-08-25T13:48:03Z</time>
      </trkpt>
      <trkpt lat="57.718077013269067" lon="-5.684058973565698">
        <ele>25.609999999999999</ele>
        <time>2023-08-25T13:48:04Z</time>
      </trkpt>
      <trkpt lat="57.717583989724517" lon="-5.683260010555387">
        <ele>26.09</ele>
        <time>2023-08-25T13:48:09Z</time>
      </trkpt>
      <trkpt lat="57.7174639608711" lon="-5.683195972815156">
        <ele>26.09</ele>
        <time>2023-08-25T13:48:10Z</time>
      </trkpt>
      <trkpt lat="57.717346027493477" lon="-5.683132018893957">
        <ele>25.609999999999999</ele>
        <time>2023-08-25T13:48:11Z</time>
      </trkpt>
      <trkpt lat="57.71722599864006" lon="-5.683149034157395">
        <ele>25.609999999999999</ele>
        <time>2023-08-25T13:48:12Z</time>
      </trkpt>
      <trkpt lat="57.717100018635392" lon="-5.683170994743705">
        <ele>25.129999999999999</ele>
        <time>2023-08-25T13:48:13Z</time>
      </trkpt>
      <trkpt lat="57.716972026973963" lon="-5.683193961158395">
        <ele>24.649999999999999</ele>
        <time>2023-08-25T13:48:14Z</time>
      </trkpt>
      <trkpt lat="57.716386970132589" lon="-5.68320200778544">
        <ele>22.73</ele>
        <time>2023-08-25T13:48:19Z</time>
      </trkpt>
      <trkpt lat="57.716289991512895" lon="-5.683125983923674">
        <ele>22.25</ele>
        <time>2023-08-25T13:48:20Z</time>
      </trkpt>
      <trkpt lat="57.716181026771665" lon="-5.683012995868921">
        <ele>22.25</ele>
        <time>2023-08-25T13:48:21Z</time>
      </trkpt>
      <trkpt lat="57.71606401540339" lon="-5.682890033349395">
        <ele>21.289999999999999</ele>
        <time>2023-08-25T13:48:22Z</time>
      </trkpt>
      <trkpt lat="57.715941974893212" lon="-5.682762963697314">
        <ele>20.809999999999999</ele>
        <time>2023-08-25T13:48:23Z</time>
      </trkpt>
      <trkpt lat="57.715813983231783" lon="-5.682630026713014">
        <ele>19.84</ele>
        <time>2023-08-25T13:48:24Z</time>
      </trkpt>
      <trkpt lat="57.715547019615769" lon="-5.682350993156433">
        <ele>18.879999999999999</ele>
        <time>2023-08-25T13:48:26Z</time>
      </trkpt>
      <trkpt lat="57.714531971141696" lon="-5.681251036003232">
        <ele>16</ele>
        <time>2023-08-25T13:48:34Z</time>
      </trkpt>
      <trkpt lat="57.713437965139747" lon="-5.679863998666406">
        <ele>17.920000000000002</ele>
        <time>2023-08-25T13:48:45Z</time>
      </trkpt>
      <trkpt lat="57.713352972641587" lon="-5.679688984528184">
        <ele>17.920000000000002</ele>
        <time>2023-08-25T13:48:46Z</time>
      </trkpt>
      <trkpt lat="57.713278038427234" lon="-5.679485974833369">
        <ele>17.440000000000001</ele>
        <time>2023-08-25T13:48:47Z</time>
      </trkpt>
      <trkpt lat="57.713203020393848" lon="-5.679281037300825">
        <ele>16.960000000000001</ele>
        <time>2023-08-25T13:48:48Z</time>
      </trkpt>
      <trkpt lat="57.713129008188844" lon="-5.679080039262772">
        <ele>16</ele>
        <time>2023-08-25T13:48:49Z</time>
      </trkpt>
      <trkpt lat="57.712685018777847" lon="-5.677991984412074">
        <ele>12.15</ele>
        <time>2023-08-25T13:48:55Z</time>
      </trkpt>
      <trkpt lat="57.712599020451307" lon="-5.677824011072516">
        <ele>11.67</ele>
        <time>2023-08-25T13:48:56Z</time>
      </trkpt>
      <trkpt lat="57.712289979681373" lon="-5.67740298807621">
        <ele>11.19</ele>
        <time>2023-08-25T13:48:59Z</time>
      </trkpt>
      <trkpt lat="57.712181014940143" lon="-5.677288994193077">
        <ele>11.19</ele>
        <time>2023-08-25T13:49:00Z</time>
      </trkpt>
      <trkpt lat="57.712076995521784" lon="-5.677179023623467">
        <ele>11.19</ele>
        <time>2023-08-25T13:49:01Z</time>
      </trkpt>
      <trkpt lat="57.71185596473515" lon="-5.677084978669882">
        <ele>11.67</ele>
        <time>2023-08-25T13:49:03Z</time>
      </trkpt>
      <trkpt lat="57.710659028962255" lon="-5.676773004233837">
        <ele>17.440000000000001</ele>
        <time>2023-08-25T13:49:13Z</time>
      </trkpt>
      <trkpt lat="57.709745988249779" lon="-5.676520960405469">
        <ele>21.77</ele>
        <time>2023-08-25T13:49:20Z</time>
      </trkpt>
      <trkpt lat="57.708643013611436" lon="-5.675842026248574">
        <ele>24.170000000000002</ele>
        <time>2023-08-25T13:49:29Z</time>
      </trkpt>
      <trkpt lat="57.708529019728303" lon="-5.675709005445242">
        <ele>24.170000000000002</ele>
        <time>2023-08-25T13:49:30Z</time>
      </trkpt>
      <trkpt lat="57.708421982824802" lon="-5.675556035712361">
        <ele>24.649999999999999</ele>
        <time>2023-08-25T13:49:31Z</time>
      </trkpt>
      <trkpt lat="57.70830899477005" lon="-5.675396025180817">
        <ele>24.649999999999999</ele>
        <time>2023-08-25T13:49:32Z</time>
      </trkpt>
      <trkpt lat="57.707868022844195" lon="-5.674766963347793">
        <ele>25.609999999999999</ele>
        <time>2023-08-25T13:49:36Z</time>
      </trkpt>
      <trkpt lat="57.707760985940695" lon="-5.674614999443293">
        <ele>26.09</ele>
        <time>2023-08-25T13:49:37Z</time>
      </trkpt>
      <trkpt lat="57.707419004291296" lon="-5.674190958961844">
        <ele>26.57</ele>
        <time>2023-08-25T13:49:40Z</time>
      </trkpt>
      <trkpt lat="57.707286989316344" lon="-5.674057016149163">
        <ele>27.050000000000001</ele>
        <time>2023-08-25T13:49:41Z</time>
      </trkpt>
      <trkpt lat="57.707154974341393" lon="-5.67392198368907">
        <ele>27.530000000000001</ele>
        <time>2023-08-25T13:49:42Z</time>
      </trkpt>
      <trkpt lat="57.706445027142763" lon="-5.673193009570241">
        <ele>29.460000000000001</ele>
        <time>2023-08-25T13:49:47Z</time>
      </trkpt>
      <trkpt lat="57.705253958702087" lon="-5.671711005270481">
        <ele>33.780000000000001</ele>
        <time>2023-08-25T13:49:55Z</time>
      </trkpt>
      <trkpt lat="57.704477962106466" lon="-5.670509962365031">
        <ele>38.109999999999999</ele>
        <time>2023-08-25T13:50:03Z</time>
      </trkpt>
      <trkpt lat="57.704405039548874" lon="-5.670325979590416">
        <ele>38.109999999999999</ele>
        <time>2023-08-25T13:50:04Z</time>
      </trkpt>
      <trkpt lat="57.704345025122166" lon="-5.670145014300942">
        <ele>38.109999999999999</ele>
        <time>2023-08-25T13:50:05Z</time>
      </trkpt>
      <trkpt lat="57.704301020130515" lon="-5.669935969635844">
        <ele>38.109999999999999</ele>
        <time>2023-08-25T13:50:06Z</time>
      </trkpt>
      <trkpt lat="57.704250980168581" lon="-5.669695995748043">
        <ele>38.109999999999999</ele>
        <time>2023-08-25T13:50:07Z</time>
      </trkpt>
      <trkpt lat="57.704233964905143" lon="-5.669484017416835">
        <ele>38.109999999999999</ele>
        <time>2023-08-25T13:50:08Z</time>
      </trkpt>
      <trkpt lat="57.704131035134196" lon="-5.668211979791522">
        <ele>37.149999999999999</ele>
        <time>2023-08-25T13:50:13Z</time>
      </trkpt>
      <trkpt lat="57.704049982130527" lon="-5.66769003868103">
        <ele>36.670000000000002</ele>
        <time>2023-08-25T13:50:15Z</time>
      </trkpt>
      <trkpt lat="57.703973036259413" lon="-5.667446963489056">
        <ele>36.189999999999998</ele>
        <time>2023-08-25T13:50:16Z</time>
      </trkpt>
      <trkpt lat="57.703878991305828" lon="-5.66721897572279">
        <ele>35.229999999999997</ele>
        <time>2023-08-25T13:50:17Z</time>
      </trkpt>
      <trkpt lat="57.703790981322527" lon="-5.66702401265502">
        <ele>34.740000000000002</ele>
        <time>2023-08-25T13:50:18Z</time>
      </trkpt>
      <trkpt lat="57.703672964125872" lon="-5.66687498241663">
        <ele>34.740000000000002</ele>
        <time>2023-08-25T13:50:19Z</time>
      </trkpt>
      <trkpt lat="57.703566011041403" lon="-5.666782027110457">
        <ele>34.740000000000002</ele>
        <time>2023-08-25T13:50:20Z</time>
      </trkpt>
      <trkpt lat="57.703457968309522" lon="-5.666687982156873">
        <ele>34.740000000000002</ele>
        <time>2023-08-25T13:50:21Z</time>
      </trkpt>
      <trkpt lat="57.703327964991331" lon="-5.666620004922152">
        <ele>34.259999999999998</ele>
        <time>2023-08-25T13:50:22Z</time>
      </trkpt>
      <trkpt lat="57.703193016350269" lon="-5.666572982445359">
        <ele>34.259999999999998</ele>
        <time>2023-08-25T13:50:23Z</time>
      </trkpt>
      <trkpt lat="57.703059995546937" lon="-5.666526965796948">
        <ele>34.259999999999998</ele>
        <time>2023-08-25T13:50:24Z</time>
      </trkpt>
      <trkpt lat="57.702924041077495" lon="-5.666480027139187">
        <ele>33.299999999999997</ele>
        <time>2023-08-25T13:50:25Z</time>
      </trkpt>
      <trkpt lat="57.70278699696064" lon="-5.666405009105802">
        <ele>32.340000000000003</ele>
        <time>2023-08-25T13:50:26Z</time>
      </trkpt>
      <trkpt lat="57.702358011156321" lon="-5.666110971942544">
        <ele>29.460000000000001</ele>
        <time>2023-08-25T13:50:29Z</time>
      </trkpt>
      <trkpt lat="57.701842021197081" lon="-5.665811989456415">
        <ele>25.609999999999999</ele>
        <time>2023-08-25T13:50:33Z</time>
      </trkpt>
      <trkpt lat="57.70173498429358" lon="-5.66567100584507">
        <ele>25.129999999999999</ele>
        <time>2023-08-25T13:50:34Z</time>
      </trkpt>
      <trkpt lat="57.701624007895589" lon="-5.665524993091822">
        <ele>23.690000000000001</ele>
        <time>2023-08-25T13:50:35Z</time>
      </trkpt>
      <trkpt lat="57.701514959335327" lon="-5.665380991995335">
        <ele>23.210000000000001</ele>
        <time>2023-08-25T13:50:36Z</time>
      </trkpt>
      <trkpt lat="57.701403982937336" lon="-5.665234979242086">
        <ele>22.25</ele>
        <time>2023-08-25T13:50:37Z</time>
      </trkpt>
      <trkpt lat="57.701180018484592" lon="-5.664941025897861">
        <ele>20.809999999999999</ele>
        <time>2023-08-25T13:50:39Z</time>
      </trkpt>
      <trkpt lat="57.70106895826757" lon="-5.664794007316232">
        <ele>20.32</ele>
        <time>2023-08-25T13:50:40Z</time>
      </trkpt>
      <trkpt lat="57.700949013233185" lon="-5.664681019261479">
        <ele>19.84</ele>
        <time>2023-08-25T13:50:41Z</time>
      </trkpt>
      <trkpt lat="57.699998002499342" lon="-5.664080958813429">
        <ele>16.960000000000001</ele>
        <time>2023-08-25T13:50:48Z</time>
      </trkpt>
      <trkpt lat="57.699776971712708" lon="-5.663832016289234">
        <ele>16</ele>
        <time>2023-08-25T13:50:50Z</time>
      </trkpt>
      <trkpt lat="57.699665995314717" lon="-5.663706958293915">
        <ele>16</ele>
        <time>2023-08-25T13:50:51Z</time>
      </trkpt>
      <trkpt lat="57.698680032044649" lon="-5.66182698123157">
        <ele>13.119999999999999</ele>
        <time>2023-08-25T13:51:01Z</time>
      </trkpt>
      <trkpt lat="57.698116013780236" lon="-5.660319998860359">
        <ele>13.119999999999999</ele>
        <time>2023-08-25T13:51:08Z</time>
      </trkpt>
      <trkpt lat="57.697843015193939" lon="-5.659595970064402">
        <ele>12.630000000000001</ele>
        <time>2023-08-25T13:51:13Z</time>
      </trkpt>
      <trkpt lat="57.697815019637346" lon="-5.659528998658061">
        <ele>12.15</ele>
        <time>2023-08-25T13:51:14Z</time>
      </trkpt>
      <trkpt lat="57.697796998545527" lon="-5.659482982009649">
        <ele>12.15</ele>
        <time>2023-08-25T13:51:15Z</time>
      </trkpt>
      <trkpt lat="57.697784006595612" lon="-5.659450963139534">
        <ele>12.15</ele>
        <time>2023-08-25T13:51:16Z</time>
      </trkpt>
      <trkpt lat="57.697775037959218" lon="-5.659427996724844">
        <ele>12.15</ele>
        <time>2023-08-25T13:51:17Z</time>
      </trkpt>
      <trkpt lat="57.697775037959218" lon="-5.659427996724844">
        <ele>11.67</ele>
        <time>2023-08-25T13:51:34Z</time>
      </trkpt>
      <trkpt lat="57.697775037959218" lon="-5.659427996724844">
        <ele>12.15</ele>
        <time>2023-08-25T13:52:22Z</time>
      </trkpt>
      <trkpt lat="57.697775037959218" lon="-5.659427996724844">
        <ele>11.67</ele>
        <time>2023-08-25T13:53:16Z</time>
      </trkpt>
      <trkpt lat="57.697784006595612" lon="-5.659450963139534">
        <ele>15.52</ele>
        <time>2023-08-25T13:53:36Z</time>
      </trkpt>
      <trkpt lat="57.697764979675412" lon="-5.659403018653393">
        <ele>15.52</ele>
        <time>2023-08-25T13:53:37Z</time>
      </trkpt>
      <trkpt lat="57.697467003017664" lon="-5.658657029271126">
        <ele>14.08</ele>
        <time>2023-08-25T13:53:43Z</time>
      </trkpt>
      <trkpt lat="57.697406988590956" lon="-5.658506993204355">
        <ele>14.08</ele>
        <time>2023-08-25T13:53:44Z</time>
      </trkpt>
      <trkpt lat="57.697346974164248" lon="-5.658357040956616">
        <ele>13.6</ele>
        <time>2023-08-25T13:53:45Z</time>
      </trkpt>
      <trkpt lat="57.69728503189981" lon="-5.658202981576324">
        <ele>13.119999999999999</ele>
        <time>2023-08-25T13:53:46Z</time>
      </trkpt>
      <trkpt lat="57.69722199998796" lon="-5.658043976873159">
        <ele>13.119999999999999</ele>
        <time>2023-08-25T13:53:47Z</time>
      </trkpt>
      <trkpt lat="57.697155028581619" lon="-5.657878015190363">
        <ele>12.630000000000001</ele>
        <time>2023-08-25T13:53:48Z</time>
      </trkpt>
      <trkpt lat="57.697085039690137" lon="-5.657701995223761">
        <ele>12.630000000000001</ele>
        <time>2023-08-25T13:53:49Z</time>
      </trkpt>
      <trkpt lat="57.696994012221694" lon="-5.657566040754318">
        <ele>12.15</ele>
        <time>2023-08-25T13:53:50Z</time>
      </trkpt>
      <trkpt lat="57.69657801836729" lon="-5.656941002234817">
        <ele>11.19</ele>
        <time>2023-08-25T13:53:54Z</time>
      </trkpt>
      <trkpt lat="57.69647098146379" lon="-5.656818961724639">
        <ele>11.19</ele>
        <time>2023-08-25T13:53:55Z</time>
      </trkpt>
      <trkpt lat="57.696351958438754" lon="-5.656749978661537">
        <ele>11.19</ele>
        <time>2023-08-25T13:53:56Z</time>
      </trkpt>
      <trkpt lat="57.696223966777325" lon="-5.65673103556037">
        <ele>11.19</ele>
        <time>2023-08-25T13:53:57Z</time>
      </trkpt>
      <trkpt lat="57.696092035621405" lon="-5.656717959791422">
        <ele>11.67</ele>
        <time>2023-08-25T13:53:58Z</time>
      </trkpt>
      <trkpt lat="57.695958008989692" lon="-5.656736986711621">
        <ele>11.67</ele>
        <time>2023-08-25T13:53:59Z</time>
      </trkpt>
      <trkpt lat="57.694810023531318" lon="-5.656879981979728">
        <ele>15.52</ele>
        <time>2023-08-25T13:54:09Z</time>
      </trkpt>
      <trkpt lat="57.693798998370767" lon="-5.657039992511272">
        <ele>17.440000000000001</ele>
        <time>2023-08-25T13:54:19Z</time>
      </trkpt>
      <trkpt lat="57.693705959245563" lon="-5.657106041908264">
        <ele>17.920000000000002</ele>
        <time>2023-08-25T13:54:20Z</time>
      </trkpt>
      <trkpt lat="57.693650973960757" lon="-5.657144011929631">
        <ele>17.920000000000002</ele>
        <time>2023-08-25T13:54:21Z</time>
      </trkpt>
      <trkpt lat="57.693529017269611" lon="-5.657276026904583">
        <ele>18.399999999999999</ele>
        <time>2023-08-25T13:54:22Z</time>
      </trkpt>
      <trkpt lat="57.693432038649917" lon="-5.65737996250391">
        <ele>18.399999999999999</ele>
        <time>2023-08-25T13:54:23Z</time>
      </trkpt>
      <trkpt lat="57.69333497621119" lon="-5.657495968043804">
        <ele>18.399999999999999</ele>
        <time>2023-08-25T13:54:24Z</time>
      </trkpt>
      <trkpt lat="57.692025974392891" lon="-5.659310985356569">
        <ele>18.399999999999999</ele>
        <time>2023-08-25T13:54:37Z</time>
      </trkpt>
      <trkpt lat="57.691019978374243" lon="-5.660628033801913">
        <ele>19.84</ele>
        <time>2023-08-25T13:54:47Z</time>
      </trkpt>
      <trkpt lat="57.690925011411309" lon="-5.660710008814931">
        <ele>20.32</ele>
        <time>2023-08-25T13:54:48Z</time>
      </trkpt>
      <trkpt lat="57.690823003649712" lon="-5.660719983279705">
        <ele>20.32</ele>
        <time>2023-08-25T13:54:49Z</time>
      </trkpt>
      <trkpt lat="57.690723007544875" lon="-5.660712020471692">
        <ele>20.809999999999999</ele>
        <time>2023-08-25T13:54:50Z</time>
      </trkpt>
      <trkpt lat="57.6906250230968" lon="-5.660686958581209">
        <ele>20.809999999999999</ele>
        <time>2023-08-25T13:54:51Z</time>
      </trkpt>
      <trkpt lat="57.690527038648725" lon="-5.660606995224953">
        <ele>21.289999999999999</ele>
        <time>2023-08-25T13:54:52Z</time>
      </trkpt>
      <trkpt lat="57.690426958724856" lon="-5.660526026040316">
        <ele>21.289999999999999</ele>
        <time>2023-08-25T13:54:53Z</time>
      </trkpt>
      <trkpt lat="57.690212968736887" lon="-5.660351011902094">
        <ele>21.77</ele>
        <time>2023-08-25T13:54:55Z</time>
      </trkpt>
      <trkpt lat="57.690097969025373" lon="-5.66025897860527">
        <ele>22.25</ele>
        <time>2023-08-25T13:54:56Z</time>
      </trkpt>
      <trkpt lat="57.688892986625433" lon="-5.659404024481773">
        <ele>24.649999999999999</ele>
        <time>2023-08-25T13:55:05Z</time>
      </trkpt>
      <trkpt lat="57.688318993896246" lon="-5.659023988991976">
        <ele>24.649999999999999</ele>
        <time>2023-08-25T13:55:09Z</time>
      </trkpt>
      <trkpt lat="57.688185973092914" lon="-5.658919969573617">
        <ele>24.649999999999999</ele>
        <time>2023-08-25T13:55:10Z</time>
      </trkpt>
      <trkpt lat="57.688081031665206" lon="-5.658740010112524">
        <ele>24.649999999999999</ele>
        <time>2023-08-25T13:55:11Z</time>
      </trkpt>
      <trkpt lat="57.687985980883241" lon="-5.658529959619045">
        <ele>25.129999999999999</ele>
        <time>2023-08-25T13:55:12Z</time>
      </trkpt>
      <trkpt lat="57.687892019748688" lon="-5.658301971852779">
        <ele>25.129999999999999</ele>
        <time>2023-08-25T13:55:13Z</time>
      </trkpt>
      <trkpt lat="57.687795963138342" lon="-5.658069038763642">
        <ele>25.129999999999999</ele>
        <time>2023-08-25T13:55:14Z</time>
      </trkpt>
      <trkpt lat="57.687380975112319" lon="-5.656446972861886">
        <ele>26.09</ele>
        <time>2023-08-25T13:55:20Z</time>
      </trkpt>
      <trkpt lat="57.687046034261584" lon="-5.654363986104727">
        <ele>28.5</ele>
        <time>2023-08-25T13:55:27Z</time>
      </trkpt>
      <trkpt lat="57.686422001570463" lon="-5.651899036020041">
        <ele>31.859999999999999</ele>
        <time>2023-08-25T13:55:36Z</time>
      </trkpt>
      <trkpt lat="57.686293004080653" lon="-5.651342980563641">
        <ele>32.340000000000003</ele>
        <time>2023-08-25T13:55:38Z</time>
      </trkpt>
      <trkpt lat="57.686256961897016" lon="-5.65106101334095">
        <ele>32.82</ele>
        <time>2023-08-25T13:55:39Z</time>
      </trkpt>
      <trkpt lat="57.686235001310706" lon="-5.650769993662834">
        <ele>32.82</ele>
        <time>2023-08-25T13:55:40Z</time>
      </trkpt>
      <trkpt lat="57.686213962733746" lon="-5.650477968156338">
        <ele>33.780000000000001</ele>
        <time>2023-08-25T13:55:41Z</time>
      </trkpt>
      <trkpt lat="57.686193007975817" lon="-5.650183008983731">
        <ele>33.780000000000001</ele>
        <time>2023-08-25T13:55:42Z</time>
      </trkpt>
      <trkpt lat="57.685937024652958" lon="-5.647221012040973">
        <ele>39.07</ele>
        <time>2023-08-25T13:55:52Z</time>
      </trkpt>
      <trkpt lat="57.685467973351479" lon="-5.644048964604735">
        <ele>44.840000000000003</ele>
        <time>2023-08-25T13:56:03Z</time>
      </trkpt>
      <trkpt lat="57.68531902693212" lon="-5.642642984166741">
        <ele>49.159999999999997</ele>
        <time>2023-08-25T13:56:09Z</time>
      </trkpt>
      <trkpt lat="57.685304023325443" lon="-5.642449026927352">
        <ele>49.649999999999999</ele>
        <time>2023-08-25T13:56:10Z</time>
      </trkpt>
      <trkpt lat="57.685304023325443" lon="-5.642250962555409">
        <ele>49.649999999999999</ele>
        <time>2023-08-25T13:56:11Z</time>
      </trkpt>
      <trkpt lat="57.685304023325443" lon="-5.642063040286303">
        <ele>50.130000000000003</ele>
        <time>2023-08-25T13:56:12Z</time>
      </trkpt>
      <trkpt lat="57.685304023325443" lon="-5.641889031976461">
        <ele>50.130000000000003</ele>
        <time>2023-08-25T13:56:13Z</time>
      </trkpt>
      <trkpt lat="57.685337970033288" lon="-5.641688033938408">
        <ele>50.609999999999999</ele>
        <time>2023-08-25T13:56:14Z</time>
      </trkpt>
      <trkpt lat="57.685392033308744" lon="-5.64154202118516">
        <ele>50.609999999999999</ele>
        <time>2023-08-25T13:56:15Z</time>
      </trkpt>
      <trkpt lat="57.68544802442193" lon="-5.641388967633247">
        <ele>51.090000000000003</ele>
        <time>2023-08-25T13:56:16Z</time>
      </trkpt>
      <trkpt lat="57.685503009706736" lon="-5.641238009557128">
        <ele>51.57</ele>
        <time>2023-08-25T13:56:17Z</time>
      </trkpt>
      <trkpt lat="57.68566302023828" lon="-5.640802988782525">
        <ele>52.049999999999997</ele>
        <time>2023-08-25T13:56:20Z</time>
      </trkpt>
      <trkpt lat="57.685714988037944" lon="-5.640658987686038">
        <ele>52.530000000000001</ele>
        <time>2023-08-25T13:56:21Z</time>
      </trkpt>
      <trkpt lat="57.686012964695692" lon="-5.639844015240669">
        <ele>53.969999999999999</ele>
        <time>2023-08-25T13:56:27Z</time>
      </trkpt>
      <trkpt lat="57.686037020757794" lon="-5.639679981395602">
        <ele>54.450000000000003</ele>
        <time>2023-08-25T13:56:28Z</time>
      </trkpt>
      <trkpt lat="57.686241958290339" lon="-5.638371985405684">
        <ele>58.780000000000001</ele>
        <time>2023-08-25T13:56:36Z</time>
      </trkpt>
      <trkpt lat="57.686503976583481" lon="-5.63730999827385">
        <ele>62.619999999999997</ele>
        <time>2023-08-25T13:56:42Z</time>
      </trkpt>
      <trkpt lat="57.68654596991837" lon="-5.637135989964008">
        <ele>63.579999999999998</ele>
        <time>2023-08-25T13:56:43Z</time>
      </trkpt>
      <trkpt lat="57.68658896908164" lon="-5.636963993310928">
        <ele>64.069999999999993</ele>
        <time>2023-08-25T13:56:44Z</time>
      </trkpt>
      <trkpt lat="57.686617970466614" lon="-5.636800965294242">
        <ele>64.549999999999997</ele>
        <time>2023-08-25T13:56:45Z</time>
      </trkpt>
      <trkpt lat="57.686647977679968" lon="-5.636626034975052">
        <ele>65.510000000000005</ele>
        <time>2023-08-25T13:56:46Z</time>
      </trkpt>
      <trkpt lat="57.686699023470283" lon="-5.636329986155033">
        <ele>66.950000000000003</ele>
        <time>2023-08-25T13:56:48Z</time>
      </trkpt>
      <trkpt lat="57.686731964349747" lon="-5.636095963418484">
        <ele>67.430000000000007</ele>
        <time>2023-08-25T13:56:49Z</time>
      </trkpt>
      <trkpt lat="57.686755014583468" lon="-5.635936036705971">
        <ele>67.909999999999997</ele>
        <time>2023-08-25T13:56:50Z</time>
      </trkpt>
      <trkpt lat="57.686798013746738" lon="-5.635708970949054">
        <ele>68.870000000000005</ele>
        <time>2023-08-25T13:56:51Z</time>
      </trkpt>
      <trkpt lat="57.686870014294982" lon="-5.635595982894301">
        <ele>69.349999999999994</ele>
        <time>2023-08-25T13:56:52Z</time>
      </trkpt>
      <trkpt lat="57.686943020671606" lon="-5.635479977354407">
        <ele>70.310000000000002</ele>
        <time>2023-08-25T13:56:53Z</time>
      </trkpt>
      <trkpt lat="57.68701896071434" lon="-5.635361038148403">
        <ele>71.269999999999996</ele>
        <time>2023-08-25T13:56:54Z</time>
      </trkpt>
      <trkpt lat="57.687087021768093" lon="-5.635252995416522">
        <ele>72.239999999999995</ele>
        <time>2023-08-25T13:56:55Z</time>
      </trkpt>
      <trkpt lat="57.687147036194801" lon="-5.635132966563106">
        <ele>73.200000000000003</ele>
        <time>2023-08-25T13:56:56Z</time>
      </trkpt>
      <trkpt lat="57.687235968187451" lon="-5.634956024587154">
        <ele>73.680000000000007</ele>
        <time>2023-08-25T13:56:57Z</time>
      </trkpt>
      <trkpt lat="57.687248960137367" lon="-5.634895004332066">
        <ele>74.640000000000001</ele>
        <time>2023-08-25T13:56:58Z</time>
      </trkpt>
      <trkpt lat="57.687277961522341" lon="-5.634712027385831">
        <ele>75.120000000000005</ele>
        <time>2023-08-25T13:56:59Z</time>
      </trkpt>
      <trkpt lat="57.687277961522341" lon="-5.634484039619565">
        <ele>76.079999999999998</ele>
        <time>2023-08-25T13:57:00Z</time>
      </trkpt>
      <trkpt lat="57.687248038128018" lon="-5.634299973025918">
        <ele>76.560000000000002</ele>
        <time>2023-08-25T13:57:01Z</time>
      </trkpt>
      <trkpt lat="57.687214007601142" lon="-5.634092018008232">
        <ele>77.040000000000006</ele>
        <time>2023-08-25T13:57:02Z</time>
      </trkpt>
      <trkpt lat="57.686855010688305" lon="-5.63189503736794">
        <ele>84.730000000000004</ele>
        <time>2023-08-25T13:57:12Z</time>
      </trkpt>
      <trkpt lat="57.686574971303344" lon="-5.629647010937333">
        <ele>93.390000000000001</ele>
        <time>2023-08-25T13:57:23Z</time>
      </trkpt>
      <trkpt lat="57.686580000445247" lon="-5.629475014284253">
        <ele>93.870000000000005</ele>
        <time>2023-08-25T13:57:24Z</time>
      </trkpt>
      <trkpt lat="57.686598021537066" lon="-5.629292037338018">
        <ele>94.349999999999994</ele>
        <time>2023-08-25T13:57:25Z</time>
      </trkpt>
      <trkpt lat="57.686616964638233" lon="-5.629107970744371">
        <ele>94.829999999999998</ele>
        <time>2023-08-25T13:57:26Z</time>
      </trkpt>
      <trkpt lat="57.686633979901671" lon="-5.628921976312995">
        <ele>95.310000000000002</ele>
        <time>2023-08-25T13:57:27Z</time>
      </trkpt>
      <trkpt lat="57.686621993780136" lon="-5.62873799353838">
        <ele>95.790000000000006</ele>
        <time>2023-08-25T13:57:28Z</time>
      </trkpt>
      <trkpt lat="57.686610007658601" lon="-5.628558034077287">
        <ele>96.269999999999996</ele>
        <time>2023-08-25T13:57:29Z</time>
      </trkpt>
      <trkpt lat="57.686599027365446" lon="-5.628387965261936">
        <ele>97.230000000000004</ele>
        <time>2023-08-25T13:57:30Z</time>
      </trkpt>
      <trkpt lat="57.686597015708685" lon="-5.628227032721043">
        <ele>97.709999999999994</ele>
        <time>2023-08-25T13:57:31Z</time>
      </trkpt>
      <trkpt lat="57.686613025143743" lon="-5.628053024411202">
        <ele>97.709999999999994</ele>
        <time>2023-08-25T13:57:32Z</time>
      </trkpt>
      <trkpt lat="57.6866290345788" lon="-5.627870969474316">
        <ele>98.189999999999998</ele>
        <time>2023-08-25T13:57:33Z</time>
      </trkpt>
      <trkpt lat="57.686644960194826" lon="-5.627693021669984">
        <ele>98.670000000000002</ele>
        <time>2023-08-25T13:57:34Z</time>
      </trkpt>
      <trkpt lat="57.686635991558433" lon="-5.627511972561479">
        <ele>99.150000000000006</ele>
        <time>2023-08-25T13:57:35Z</time>
      </trkpt>
      <trkpt lat="57.68658603541553" lon="-5.627361014485359">
        <ele>99.150000000000006</ele>
        <time>2023-08-25T13:57:36Z</time>
      </trkpt>
      <trkpt lat="57.686530966311693" lon="-5.627192035317421">
        <ele>99.629999999999995</ele>
        <time>2023-08-25T13:57:37Z</time>
      </trkpt>
      <trkpt lat="57.685838034376502" lon="-5.624939985573292">
        <ele>103</ele>
        <time>2023-08-25T13:57:49Z</time>
      </trkpt>
      <trkpt lat="57.685810960829258" lon="-5.624779975041747">
        <ele>103.48</ele>
        <time>2023-08-25T13:57:50Z</time>
      </trkpt>
      <trkpt lat="57.685805009678006" lon="-5.624623987823725">
        <ele>103.48</ele>
        <time>2023-08-25T13:57:51Z</time>
      </trkpt>
      <trkpt lat="57.685823030769825" lon="-5.624446040019393">
        <ele>103.95999999999999</ele>
        <time>2023-08-25T13:57:52Z</time>
      </trkpt>
      <trkpt lat="57.685840968042612" lon="-5.624271025881171">
        <ele>103.95999999999999</ele>
        <time>2023-08-25T13:57:53Z</time>
      </trkpt>
      <trkpt lat="57.685907017439604" lon="-5.624157031998038">
        <ele>103.48</ele>
        <time>2023-08-25T13:57:54Z</time>
      </trkpt>
      <trkpt lat="57.685991004109383" lon="-5.624013030901551">
        <ele>103.48</ele>
        <time>2023-08-25T13:57:55Z</time>
      </trkpt>
      <trkpt lat="57.686054036021233" lon="-5.623975982889533">
        <ele>103</ele>
        <time>2023-08-25T13:57:56Z</time>
      </trkpt>
      <trkpt lat="57.686152020469308" lon="-5.623943964019418">
        <ele>103</ele>
        <time>2023-08-25T13:57:57Z</time>
      </trkpt>
      <trkpt lat="57.686258973553777" lon="-5.623934995383024">
        <ele>102.52</ele>
        <time>2023-08-25T13:57:58Z</time>
      </trkpt>
      <trkpt lat="57.68637103959918" lon="-5.623926026746631">
        <ele>102.52</ele>
        <time>2023-08-25T13:57:59Z</time>
      </trkpt>
      <trkpt lat="57.686755014583468" lon="-5.623893002048135">
        <ele>102.04000000000001</ele>
        <time>2023-08-25T13:58:03Z</time>
      </trkpt>
      <trkpt lat="57.68682299181819" lon="-5.623886967077851">
        <ele>102.04000000000001</ele>
        <time>2023-08-25T13:58:04Z</time>
      </trkpt>
      <trkpt lat="57.686873031780124" lon="-5.623844973742962">
        <ele>102.04000000000001</ele>
        <time>2023-08-25T13:58:05Z</time>
      </trkpt>
      <trkpt lat="57.686917036771774" lon="-5.623771967366338">
        <ele>102.04000000000001</ele>
        <time>2023-08-25T13:58:06Z</time>
      </trkpt>
      <trkpt lat="57.686950983479619" lon="-5.623713964596391">
        <ele>102.04000000000001</ele>
        <time>2023-08-25T13:58:07Z</time>
      </trkpt>
      <trkpt lat="57.686978979036212" lon="-5.623665014281869">
        <ele>101.08</ele>
        <time>2023-08-25T13:58:14Z</time>
      </trkpt>
      <trkpt lat="57.686978979036212" lon="-5.623665014281869">
        <ele>101.08</ele>
        <time>2023-08-25T13:58:54Z</time>
      </trkpt>
      <trkpt lat="57.686978979036212" lon="-5.623665014281869">
        <ele>101.08</ele>
        <time>2023-08-25T13:59:47Z</time>
      </trkpt>
      <trkpt lat="57.687005968764424" lon="-5.62353702262044">
        <ele>102.04000000000001</ele>
        <time>2023-08-25T13:59:49Z</time>
      </trkpt>
      <trkpt lat="57.687029018998146" lon="-5.6234319973737">
        <ele>101.56</ele>
        <time>2023-08-25T13:59:50Z</time>
      </trkpt>
      <trkpt lat="57.687045028433204" lon="-5.623297970741987">
        <ele>101.56</ele>
        <time>2023-08-25T13:59:51Z</time>
      </trkpt>
      <trkpt lat="57.687093978747725" lon="-5.62192996032536">
        <ele>100.59999999999999</ele>
        <time>2023-08-25T13:59:57Z</time>
      </trkpt>
      <trkpt lat="57.687119962647557" lon="-5.619102995842695">
        <ele>99.629999999999995</ele>
        <time>2023-08-25T14:00:06Z</time>
      </trkpt>
      <trkpt lat="57.68680396489799" lon="-5.616683978587389">
        <ele>100.11</ele>
        <time>2023-08-25T14:00:14Z</time>
      </trkpt>
      <trkpt lat="57.686789967119694" lon="-5.613743020221591">
        <ele>103.48</ele>
        <time>2023-08-25T14:00:24Z</time>
      </trkpt>
      <trkpt lat="57.68680396489799" lon="-5.613475972786546">
        <ele>103.95999999999999</ele>
        <time>2023-08-25T14:00:25Z</time>
      </trkpt>
      <trkpt lat="57.686845036223531" lon="-5.613229963928461">
        <ele>104.44</ele>
        <time>2023-08-25T14:00:26Z</time>
      </trkpt>
      <trkpt lat="57.686892980709672" lon="-5.612978003919125">
        <ele>104.92</ele>
        <time>2023-08-25T14:00:27Z</time>
      </trkpt>
      <trkpt lat="57.686943020671606" lon="-5.612716991454363">
        <ele>105.40000000000001</ele>
        <time>2023-08-25T14:00:28Z</time>
      </trkpt>
      <trkpt lat="57.687042010948062" lon="-5.612190021201968">
        <ele>106.84</ele>
        <time>2023-08-25T14:00:30Z</time>
      </trkpt>
      <trkpt lat="57.687055002897978" lon="-5.611871005967259">
        <ele>107.81</ele>
        <time>2023-08-25T14:00:31Z</time>
      </trkpt>
      <trkpt lat="57.687047962099314" lon="-5.611560037359595">
        <ele>108.77</ele>
        <time>2023-08-25T14:00:32Z</time>
      </trkpt>
      <trkpt lat="57.68699498847127" lon="-5.611242027953267">
        <ele>109.73</ele>
        <time>2023-08-25T14:00:33Z</time>
      </trkpt>
      <trkpt lat="57.686934974044561" lon="-5.610881019383669">
        <ele>110.20999999999999</ele>
        <time>2023-08-25T14:00:34Z</time>
      </trkpt>
      <trkpt lat="57.686842018738389" lon="-5.610608020797372">
        <ele>111.17</ele>
        <time>2023-08-25T14:00:35Z</time>
      </trkpt>
      <trkpt lat="57.686730958521366" lon="-5.61028397642076">
        <ele>112.13</ele>
        <time>2023-08-25T14:00:36Z</time>
      </trkpt>
      <trkpt lat="57.686614030972123" lon="-5.609944006428123">
        <ele>113.09</ele>
        <time>2023-08-25T14:00:37Z</time>
      </trkpt>
      <trkpt lat="57.685807021334767" lon="-5.608024969696999">
        <ele>117.90000000000001</ele>
        <time>2023-08-25T14:00:43Z</time>
      </trkpt>
      <trkpt lat="57.685710964724422" lon="-5.607653986662626">
        <ele>118.86</ele>
        <time>2023-08-25T14:00:44Z</time>
      </trkpt>
      <trkpt lat="57.685656985267997" lon="-5.607266994193196">
        <ele>119.81999999999999</ele>
        <time>2023-08-25T14:00:45Z</time>
      </trkpt>
      <trkpt lat="57.685600994154811" lon="-5.60686700977385">
        <ele>120.3</ele>
        <time>2023-08-25T14:00:46Z</time>
      </trkpt>
      <trkpt lat="57.685562018305063" lon="-5.606452021747828">
        <ele>120.3</ele>
        <time>2023-08-25T14:00:47Z</time>
      </trkpt>
      <trkpt lat="57.685562018305063" lon="-5.606026975437999">
        <ele>120.3</ele>
        <time>2023-08-25T14:00:48Z</time>
      </trkpt>
      <trkpt lat="57.685562018305063" lon="-5.605596983805299">
        <ele>120.3</ele>
        <time>2023-08-25T14:00:49Z</time>
      </trkpt>
      <trkpt lat="57.685575010254979" lon="-5.605174032971263">
        <ele>119.81999999999999</ele>
        <time>2023-08-25T14:00:50Z</time>
      </trkpt>
      <trkpt lat="57.685607029125094" lon="-5.604742029681802">
        <ele>119.34</ele>
        <time>2023-08-25T14:00:51Z</time>
      </trkpt>
      <trkpt lat="57.68570501357317" lon="-5.603440990671516">
        <ele>117.90000000000001</ele>
        <time>2023-08-25T14:00:54Z</time>
      </trkpt>
      <trkpt lat="57.68579101189971" lon="-5.603022985160351">
        <ele>117.42</ele>
        <time>2023-08-25T14:00:55Z</time>
      </trkpt>
      <trkpt lat="57.685887990519404" lon="-5.602620989084244">
        <ele>117.90000000000001</ele>
        <time>2023-08-25T14:00:56Z</time>
      </trkpt>
      <trkpt lat="57.686792984604836" lon="-5.599147025495768">
        <ele>117.90000000000001</ele>
        <time>2023-08-25T14:01:05Z</time>
      </trkpt>
      <trkpt lat="57.68688996322453" lon="-5.598789034411311">
        <ele>117.90000000000001</ele>
        <time>2023-08-25T14:01:06Z</time>
      </trkpt>
      <trkpt lat="57.68695299513638" lon="-5.598401036113501">
        <ele>117.90000000000001</ele>
        <time>2023-08-25T14:01:07Z</time>
      </trkpt>
      <trkpt lat="57.687018038704991" lon="-5.597999962046742">
        <ele>117.90000000000001</ele>
        <time>2023-08-25T14:01:08Z</time>
      </trkpt>
      <trkpt lat="57.687643999233842" lon="-5.594293987378478">
        <ele>116.45999999999999</ele>
        <time>2023-08-25T14:01:17Z</time>
      </trkpt>
      <trkpt lat="57.68871302716434" lon="-5.589888961985707">
        <ele>118.38</ele>
        <time>2023-08-25T14:01:28Z</time>
      </trkpt>
      <trkpt lat="57.688951995223761" lon="-5.588800990954042">
        <ele>118.86</ele>
        <time>2023-08-25T14:01:31Z</time>
      </trkpt>
      <trkpt lat="57.689069006592035" lon="-5.588522963225842">
        <ele>118.86</ele>
        <time>2023-08-25T14:01:32Z</time>
      </trkpt>
      <trkpt lat="57.689198004081845" lon="-5.58821702376008">
        <ele>119.34</ele>
        <time>2023-08-25T14:01:33Z</time>
      </trkpt>
      <trkpt lat="57.689336976036429" lon="-5.587914017960429">
        <ele>119.81999999999999</ele>
        <time>2023-08-25T14:01:34Z</time>
      </trkpt>
      <trkpt lat="57.689495980739594" lon="-5.58763800188899">
        <ele>120.3</ele>
        <time>2023-08-25T14:01:35Z</time>
      </trkpt>
      <trkpt lat="57.690083971247077" lon="-5.586615996435285">
        <ele>124.63</ele>
        <time>2023-08-25T14:01:39Z</time>
      </trkpt>
      <trkpt lat="57.690201988443732" lon="-5.58632698841393">
        <ele>126.06999999999999</ele>
        <time>2023-08-25T14:01:40Z</time>
      </trkpt>
      <trkpt lat="57.690838007256389" lon="-5.584383979439735">
        <ele>129.91999999999999</ele>
        <time>2023-08-25T14:01:46Z</time>
      </trkpt>
      <trkpt lat="57.690917970612645" lon="-5.584036968648434">
        <ele>130.40000000000001</ele>
        <time>2023-08-25T14:01:47Z</time>
      </trkpt>
      <trkpt lat="57.691408982500434" lon="-5.580502990633249">
        <ele>130.40000000000001</ele>
        <time>2023-08-25T14:01:56Z</time>
      </trkpt>
      <trkpt lat="57.691655997186899" lon="-5.5758620146662">
        <ele>124.15000000000001</ele>
        <time>2023-08-25T14:02:06Z</time>
      </trkpt>
      <trkpt lat="57.692031003534794" lon="-5.568799003958702">
        <ele>107.81</ele>
        <time>2023-08-25T14:02:20Z</time>
      </trkpt>
      <trkpt lat="57.692367034032941" lon="-5.562463961541653">
        <ele>92.420000000000002</ele>
        <time>2023-08-25T14:02:33Z</time>
      </trkpt>
      <trkpt lat="57.692459989339113" lon="-5.558927971869707">
        <ele>85.209999999999994</ele>
        <time>2023-08-25T14:02:41Z</time>
      </trkpt>
      <trkpt lat="57.692039972171187" lon="-5.555910989642143">
        <ele>78</ele>
        <time>2023-08-25T14:02:48Z</time>
      </trkpt>
      <trkpt lat="57.691204966977239" lon="-5.553589034825563">
        <ele>69.829999999999998</ele>
        <time>2023-08-25T14:02:54Z</time>
      </trkpt>
      <trkpt lat="57.69101201556623" lon="-5.553250992670655">
        <ele>68.870000000000005</ele>
        <time>2023-08-25T14:02:55Z</time>
      </trkpt>
      <trkpt lat="57.69062602892518" lon="-5.552603993564844">
        <ele>65.989999999999995</ele>
        <time>2023-08-25T14:02:57Z</time>
      </trkpt>
      <trkpt lat="57.688490990549326" lon="-5.549894040450454">
        <ele>53.969999999999999</ele>
        <time>2023-08-25T14:03:07Z</time>
      </trkpt>
      <trkpt lat="57.686302978545427" lon="-5.54761097766459">
        <ele>47.719999999999999</ele>
        <time>2023-08-25T14:03:17Z</time>
      </trkpt>
      <trkpt lat="57.68489096313715" lon="-5.546303987503052">
        <ele>42.439999999999998</ele>
        <time>2023-08-25T14:03:24Z</time>
      </trkpt>
      <trkpt lat="57.68471703864634" lon="-5.546094020828605">
        <ele>41.469999999999999</ele>
        <time>2023-08-25T14:03:25Z</time>
      </trkpt>
      <trkpt lat="57.684548981487751" lon="-5.545830996707082">
        <ele>40.509999999999998</ele>
        <time>2023-08-25T14:03:26Z</time>
      </trkpt>
      <trkpt lat="57.684382013976574" lon="-5.545567972585559">
        <ele>40.030000000000001</ele>
        <time>2023-08-25T14:03:27Z</time>
      </trkpt>
      <trkpt lat="57.684242958202958" lon="-5.545259015634656">
        <ele>39.549999999999997</ele>
        <time>2023-08-25T14:03:28Z</time>
      </trkpt>
      <trkpt lat="57.684107003733516" lon="-5.544918961822987">
        <ele>39.07</ele>
        <time>2023-08-25T14:03:29Z</time>
      </trkpt>
      <trkpt lat="57.683970965445042" lon="-5.544578991830349">
        <ele>38.590000000000003</ele>
        <time>2023-08-25T14:03:30Z</time>
      </trkpt>
      <trkpt lat="57.683845991268754" lon="-5.544233992695808">
        <ele>38.109999999999999</ele>
        <time>2023-08-25T14:03:31Z</time>
      </trkpt>
      <trkpt lat="57.683753035962582" lon="-5.543838031589985">
        <ele>37.630000000000003</ele>
        <time>2023-08-25T14:03:32Z</time>
      </trkpt>
      <trkpt lat="57.683657985180616" lon="-5.543437041342259">
        <ele>37.149999999999999</ele>
        <time>2023-08-25T14:03:33Z</time>
      </trkpt>
      <trkpt lat="57.682712003588676" lon="-5.538728004321456">
        <ele>28.02</ele>
        <time>2023-08-25T14:03:44Z</time>
      </trkpt>
      <trkpt lat="57.681998033076525" lon="-5.53512898273766">
        <ele>20.32</ele>
        <time>2023-08-25T14:03:53Z</time>
      </trkpt>
      <trkpt lat="57.681887978687882" lon="-5.532633019611239">
        <ele>15.52</ele>
        <time>2023-08-25T14:03:59Z</time>
      </trkpt>
      <trkpt lat="57.682239012792706" lon="-5.530107971280813">
        <ele>11.67</ele>
        <time>2023-08-25T14:04:05Z</time>
      </trkpt>
      <trkpt lat="57.682593986392021" lon="-5.527206994593144">
        <ele>10.710000000000001</ele>
        <time>2023-08-25T14:04:12Z</time>
      </trkpt>
      <trkpt lat="57.682347977533937" lon="-5.52464003674686">
        <ele>11.67</ele>
        <time>2023-08-25T14:04:18Z</time>
      </trkpt>
      <trkpt lat="57.681990992277861" lon="-5.522570963948965">
        <ele>12.630000000000001</ele>
        <time>2023-08-25T14:04:23Z</time>
      </trkpt>
      <trkpt lat="57.681962996721268" lon="-5.52215002477169">
        <ele>12.630000000000001</ele>
        <time>2023-08-25T14:04:24Z</time>
      </trkpt>
      <trkpt lat="57.681886972859502" lon="-5.519620031118393">
        <ele>10.710000000000001</ele>
        <time>2023-08-25T14:04:30Z</time>
      </trkpt>
      <trkpt lat="57.68183802254498" lon="-5.519251981750131">
        <ele>10.23</ele>
        <time>2023-08-25T14:04:31Z</time>
      </trkpt>
      <trkpt lat="57.681265035644174" lon="-5.516665996983647">
        <ele>7.83</ele>
        <time>2023-08-25T14:04:38Z</time>
      </trkpt>
      <trkpt lat="57.681212984025478" lon="-5.516297025606036">
        <ele>7.35</ele>
        <time>2023-08-25T14:04:39Z</time>
      </trkpt>
      <trkpt lat="57.681169984862208" lon="-5.515930987894535">
        <ele>7.35</ele>
        <time>2023-08-25T14:04:40Z</time>
      </trkpt>
      <trkpt lat="57.681138971820474" lon="-5.515549024567008">
        <ele>6.87</ele>
        <time>2023-08-25T14:04:41Z</time>
      </trkpt>
      <trkpt lat="57.68113000318408" lon="-5.515165971592069">
        <ele>6.87</ele>
        <time>2023-08-25T14:04:42Z</time>
      </trkpt>
      <trkpt lat="57.681120028719306" lon="-5.513999965041876">
        <ele>5.91</ele>
        <time>2023-08-25T14:04:45Z</time>
      </trkpt>
      <trkpt lat="57.681078035384417" lon="-5.513265039771795">
        <ele>5.42</ele>
        <time>2023-08-25T14:04:47Z</time>
      </trkpt>
      <trkpt lat="57.681036964058876" lon="-5.512905037030578">
        <ele>5.42</ele>
        <time>2023-08-25T14:04:48Z</time>
      </trkpt>
      <trkpt lat="57.680876031517982" lon="-5.512205986306071">
        <ele>4.94</ele>
        <time>2023-08-25T14:04:50Z</time>
      </trkpt>
      <trkpt lat="57.680791039019823" lon="-5.511843971908093">
        <ele>4.46</ele>
        <time>2023-08-25T14:04:51Z</time>
      </trkpt>
      <trkpt lat="57.680705040693283" lon="-5.511479023844004">
        <ele>3.98</ele>
        <time>2023-08-25T14:04:52Z</time>
      </trkpt>
      <trkpt lat="57.680621976032853" lon="-5.511122960597277">
        <ele>3.98</ele>
        <time>2023-08-25T14:04:53Z</time>
      </trkpt>
      <trkpt lat="57.68054997548461" lon="-5.510775027796626">
        <ele>3.98</ele>
        <time>2023-08-25T14:04:54Z</time>
      </trkpt>
      <trkpt lat="57.680288041010499" lon="-5.508171021938324">
        <ele>4.46</ele>
        <time>2023-08-25T14:05:01Z</time>
      </trkpt>
      <trkpt lat="57.680138004943728" lon="-5.507454033941031">
        <ele>4.46</ele>
        <time>2023-08-25T14:05:03Z</time>
      </trkpt>
      <trkpt lat="57.680056029930711" lon="-5.507100988179445">
        <ele>4.94</ele>
        <time>2023-08-25T14:05:04Z</time>
      </trkpt>
      <trkpt lat="57.679929966107011" lon="-5.506775015965104">
        <ele>4.94</ele>
        <time>2023-08-25T14:05:05Z</time>
      </trkpt>
      <trkpt lat="57.679799040779471" lon="-5.506445020437241">
        <ele>4.94</ele>
        <time>2023-08-25T14:05:06Z</time>
      </trkpt>
      <trkpt lat="57.679641963914037" lon="-5.506157018244267">
        <ele>5.42</ele>
        <time>2023-08-25T14:05:07Z</time>
      </trkpt>
      <trkpt lat="57.678154008463025" lon="-5.503447987139225">
        <ele>7.35</ele>
        <time>2023-08-25T14:05:16Z</time>
      </trkpt>
      <trkpt lat="57.677358984947205" lon="-5.502107972279191">
        <ele>8.789999999999999</ele>
        <time>2023-08-25T14:05:21Z</time>
      </trkpt>
      <trkpt lat="57.677171984687448" lon="-5.501812007278204">
        <ele>9.27</ele>
        <time>2023-08-25T14:05:22Z</time>
      </trkpt>
      <trkpt lat="57.675543967634439" lon="-5.4998470377177">
        <ele>13.119999999999999</ele>
        <time>2023-08-25T14:05:31Z</time>
      </trkpt>
      <trkpt lat="57.674687001854181" lon="-5.498298984020948">
        <ele>13.119999999999999</ele>
        <time>2023-08-25T14:05:37Z</time>
      </trkpt>
      <trkpt lat="57.674562027677894" lon="-5.497997989878058">
        <ele>12.630000000000001</ele>
        <time>2023-08-25T14:05:38Z</time>
      </trkpt>
      <trkpt lat="57.674467982724309" lon="-5.497661037370563">
        <ele>12.630000000000001</ele>
        <time>2023-08-25T14:05:39Z</time>
      </trkpt>
      <trkpt lat="57.674075039103627" lon="-5.495512001216412">
        <ele>11.67</ele>
        <time>2023-08-25T14:05:45Z</time>
      </trkpt>
      <trkpt lat="57.674063974991441" lon="-5.493161967024207">
        <ele>13.119999999999999</ele>
        <time>2023-08-25T14:05:51Z</time>
      </trkpt>
      <trkpt lat="57.674173023551702" lon="-5.489034969359636">
        <ele>14.08</ele>
        <time>2023-08-25T14:06:01Z</time>
      </trkpt>
      <trkpt lat="57.674218034371734" lon="-5.488658035174012">
        <ele>14.08</ele>
        <time>2023-08-25T14:06:02Z</time>
      </trkpt>
      <trkpt lat="57.674263967201114" lon="-5.488273976370692">
        <ele>14.08</ele>
        <time>2023-08-25T14:06:03Z</time>
      </trkpt>
      <trkpt lat="57.674350971356034" lon="-5.487919002771378">
        <ele>14.08</ele>
        <time>2023-08-25T14:06:04Z</time>
      </trkpt>
      <trkpt lat="57.674450967460871" lon="-5.487564029172063">
        <ele>14.08</ele>
        <time>2023-08-25T14:06:05Z</time>
      </trkpt>
      <trkpt lat="57.674561021849513" lon="-5.487222969532013">
        <ele>13.6</ele>
        <time>2023-08-25T14:06:06Z</time>
      </trkpt>
      <trkpt lat="57.674693958833814" lon="-5.486891968175769">
        <ele>14.08</ele>
        <time>2023-08-25T14:06:07Z</time>
      </trkpt>
      <trkpt lat="57.675626026466489" lon="-5.484146978706121">
        <ele>13.6</ele>
        <time>2023-08-25T14:06:15Z</time>
      </trkpt>
      <trkpt lat="57.675699032843113" lon="-5.483772978186607">
        <ele>13.6</ele>
        <time>2023-08-25T14:06:16Z</time>
      </trkpt>
      <trkpt lat="57.675763992592692" lon="-5.4833900090307">
        <ele>13.6</ele>
        <time>2023-08-25T14:06:17Z</time>
      </trkpt>
      <trkpt lat="57.675799028947949" lon="-5.482992958277464">
        <ele>14.08</ele>
        <time>2023-08-25T14:06:18Z</time>
      </trkpt>
      <trkpt lat="57.675807997584343" lon="-5.482578976079822">
        <ele>14.56</ele>
        <time>2023-08-25T14:06:19Z</time>
      </trkpt>
      <trkpt lat="57.675816966220737" lon="-5.482161976397038">
        <ele>14.56</ele>
        <time>2023-08-25T14:06:20Z</time>
      </trkpt>
      <trkpt lat="57.675733985379338" lon="-5.477846972644329">
        <ele>20.809999999999999</ele>
        <time>2023-08-25T14:06:30Z</time>
      </trkpt>
      <trkpt lat="57.675775978714228" lon="-5.472077038139105">
        <ele>33.299999999999997</ele>
        <time>2023-08-25T14:06:44Z</time>
      </trkpt>
      <trkpt lat="57.675726022571325" lon="-5.46775097027421">
        <ele>41.950000000000003</ele>
        <time>2023-08-25T14:06:55Z</time>
      </trkpt>
      <trkpt lat="57.675657961517572" lon="-5.467379987239838">
        <ele>42.439999999999998</ele>
        <time>2023-08-25T14:06:56Z</time>
      </trkpt>
      <trkpt lat="57.675570035353303" lon="-5.467028031125665">
        <ele>42.920000000000002</ele>
        <time>2023-08-25T14:06:57Z</time>
      </trkpt>
      <trkpt lat="57.675470039248466" lon="-5.466684959828854">
        <ele>43.399999999999999</ele>
        <time>2023-08-25T14:06:58Z</time>
      </trkpt>
      <trkpt lat="57.675340035930276" lon="-5.466387988999486">
        <ele>44.359999999999999</ele>
        <time>2023-08-25T14:06:59Z</time>
      </trkpt>
      <trkpt lat="57.675208020955324" lon="-5.466084983199835">
        <ele>44.840000000000003</ele>
        <time>2023-08-25T14:07:00Z</time>
      </trkpt>
      <trkpt lat="57.675053039565682" lon="-5.465821037068963">
        <ele>45.32</ele>
        <time>2023-08-25T14:07:01Z</time>
      </trkpt>
      <trkpt lat="57.674881964921951" lon="-5.465592965483666">
        <ele>45.799999999999997</ele>
        <time>2023-08-25T14:07:02Z</time>
      </trkpt>
      <trkpt lat="57.67470401711762" lon="-5.465376963838935">
        <ele>46.280000000000001</ele>
        <time>2023-08-25T14:07:03Z</time>
      </trkpt>
      <trkpt lat="57.674516011029482" lon="-5.465179989114404">
        <ele>46.280000000000001</ele>
        <time>2023-08-25T14:07:04Z</time>
      </trkpt>
      <trkpt lat="57.67431803047657" lon="-5.465013021603227">
        <ele>46.280000000000001</ele>
        <time>2023-08-25T14:07:05Z</time>
      </trkpt>
      <trkpt lat="57.673375988379121" lon="-5.464212968945503">
        <ele>46.280000000000001</ele>
        <time>2023-08-25T14:07:10Z</time>
      </trkpt>
      <trkpt lat="57.67322201281786" lon="-5.464008031412959">
        <ele>46.280000000000001</ele>
        <time>2023-08-25T14:07:11Z</time>
      </trkpt>
      <trkpt lat="57.673067031428218" lon="-5.463802004233003">
        <ele>46.759999999999998</ele>
        <time>2023-08-25T14:07:12Z</time>
      </trkpt>
      <trkpt lat="57.67292202450335" lon="-5.463557001203299">
        <ele>46.759999999999998</ele>
        <time>2023-08-25T14:07:13Z</time>
      </trkpt>
      <trkpt lat="57.672782968729734" lon="-5.463287020102143">
        <ele>46.759999999999998</ele>
        <time>2023-08-25T14:07:14Z</time>
      </trkpt>
      <trkpt lat="57.672659000381827" lon="-5.462992982938886">
        <ele>46.759999999999998</ele>
        <time>2023-08-25T14:07:15Z</time>
      </trkpt>
      <trkpt lat="57.672553975135088" lon="-5.462668016552925">
        <ele>47.240000000000002</ele>
        <time>2023-08-25T14:07:16Z</time>
      </trkpt>
      <trkpt lat="57.672450039535761" lon="-5.462349001318216">
        <ele>47.240000000000002</ele>
        <time>2023-08-25T14:07:17Z</time>
      </trkpt>
      <trkpt lat="57.672379966825247" lon="-5.461999978870153">
        <ele>47.240000000000002</ele>
        <time>2023-08-25T14:07:18Z</time>
      </trkpt>
      <trkpt lat="57.672316012904048" lon="-5.461627990007401">
        <ele>47.240000000000002</ele>
        <time>2023-08-25T14:07:19Z</time>
      </trkpt>
      <trkpt lat="57.672250969335437" lon="-5.461246026679874">
        <ele>46.759999999999998</ele>
        <time>2023-08-25T14:07:20Z</time>
      </trkpt>
      <trkpt lat="57.671417975798249" lon="-5.45728700235486">
        <ele>43.399999999999999</ele>
        <time>2023-08-25T14:07:30Z</time>
      </trkpt>
      <trkpt lat="57.670445004478097" lon="-5.454350989311934">
        <ele>40.030000000000001</ele>
        <time>2023-08-25T14:07:38Z</time>
      </trkpt>
      <trkpt lat="57.670291028916836" lon="-5.454062987118959">
        <ele>39.549999999999997</ele>
        <time>2023-08-25T14:07:39Z</time>
      </trkpt>
      <trkpt lat="57.669070959091187" lon="-5.452305972576141">
        <ele>37.149999999999999</ele>
        <time>2023-08-25T14:07:46Z</time>
      </trkpt>
      <trkpt lat="57.667638994753361" lon="-5.450277971103787">
        <ele>32.340000000000003</ele>
        <time>2023-08-25T14:07:54Z</time>
      </trkpt>
      <trkpt lat="57.667002975940704" lon="-5.44822096824646">
        <ele>29.940000000000001</ele>
        <time>2023-08-25T14:08:00Z</time>
      </trkpt>
      <trkpt lat="57.666160007938743" lon="-5.444935010746121">
        <ele>27.530000000000001</ele>
        <time>2023-08-25T14:08:09Z</time>
      </trkpt>
      <trkpt lat="57.664829967543483" lon="-5.440765013918281">
        <ele>24.170000000000002</ele>
        <time>2023-08-25T14:08:21Z</time>
      </trkpt>
      <trkpt lat="57.664112979546189" lon="-5.437688017264009">
        <ele>23.690000000000001</ele>
        <time>2023-08-25T14:08:30Z</time>
      </trkpt>
      <trkpt lat="57.663395991548896" lon="-5.434630969539285">
        <ele>23.210000000000001</ele>
        <time>2023-08-25T14:08:39Z</time>
      </trkpt>
      <trkpt lat="57.662067962810397" lon="-5.429561007767916">
        <ele>30.899999999999999</ele>
        <time>2023-08-25T14:08:53Z</time>
      </trkpt>
      <trkpt lat="57.660914026200771" lon="-5.425182972103357">
        <ele>27.050000000000001</ele>
        <time>2023-08-25T14:09:05Z</time>
      </trkpt>
      <trkpt lat="57.659826977178454" lon="-5.422378974035382">
        <ele>23.210000000000001</ele>
        <time>2023-08-25T14:09:13Z</time>
      </trkpt>
      <trkpt lat="57.658169036731124" lon="-5.42003002949059">
        <ele>18.879999999999999</ele>
        <time>2023-08-25T14:09:22Z</time>
      </trkpt>
      <trkpt lat="57.656936980783939" lon="-5.418362030759454">
        <ele>18.399999999999999</ele>
        <time>2023-08-25T14:09:29Z</time>
      </trkpt>
      <trkpt lat="57.655277028679848" lon="-5.416112998500466">
        <ele>20.32</ele>
        <time>2023-08-25T14:09:36Z</time>
      </trkpt>
      <trkpt lat="57.65390801243484" lon="-5.414049960672855">
        <ele>22.73</ele>
        <time>2023-08-25T14:09:43Z</time>
      </trkpt>
      <trkpt lat="57.653756970539689" lon="-5.413729017600417">
        <ele>23.210000000000001</ele>
        <time>2023-08-25T14:09:44Z</time>
      </trkpt>
      <trkpt lat="57.653417000547051" lon="-5.41270500048995">
        <ele>24.170000000000002</ele>
        <time>2023-08-25T14:09:47Z</time>
      </trkpt>
      <trkpt lat="57.65334801748395" lon="-5.412392020225525">
        <ele>24.649999999999999</ele>
        <time>2023-08-25T14:09:48Z</time>
      </trkpt>
      <trkpt lat="57.653302000835538" lon="-5.412080967798829">
        <ele>24.649999999999999</ele>
        <time>2023-08-25T14:09:49Z</time>
      </trkpt>
      <trkpt lat="57.653281968086958" lon="-5.411749966442585">
        <ele>24.649999999999999</ele>
        <time>2023-08-25T14:09:50Z</time>
      </trkpt>
      <trkpt lat="57.653276016935706" lon="-5.41141401976347">
        <ele>25.609999999999999</ele>
        <time>2023-08-25T14:09:51Z</time>
      </trkpt>
      <trkpt lat="57.653300995007157" lon="-5.411067008972168">
        <ele>26.09</ele>
        <time>2023-08-25T14:09:52Z</time>
      </trkpt>
      <trkpt lat="57.653351034969091" lon="-5.410730978474021">
        <ele>26.57</ele>
        <time>2023-08-25T14:09:53Z</time>
      </trkpt>
      <trkpt lat="57.65341498889029" lon="-5.410400982946158">
        <ele>27.050000000000001</ele>
        <time>2023-08-25T14:09:54Z</time>
      </trkpt>
      <trkpt lat="57.653491012752056" lon="-5.410091020166874">
        <ele>27.050000000000001</ele>
        <time>2023-08-25T14:09:55Z</time>
      </trkpt>
      <trkpt lat="57.653601989150047" lon="-5.409811986610293">
        <ele>27.050000000000001</ele>
        <time>2023-08-25T14:09:56Z</time>
      </trkpt>
      <trkpt lat="57.653720006346703" lon="-5.409519039094448">
        <ele>27.530000000000001</ele>
        <time>2023-08-25T14:09:57Z</time>
      </trkpt>
      <trkpt lat="57.653857972472906" lon="-5.409222990274429">
        <ele>27.530000000000001</ele>
        <time>2023-08-25T14:09:58Z</time>
      </trkpt>
      <trkpt lat="57.654396006837487" lon="-5.408061007037759">
        <ele>28.02</ele>
        <time>2023-08-25T14:10:02Z</time>
      </trkpt>
      <trkpt lat="57.654477981850505" lon="-5.407727994024754">
        <ele>28.02</ele>
        <time>2023-08-25T14:10:03Z</time>
      </trkpt>
      <trkpt lat="57.654555011540651" lon="-5.407399004325271">
        <ele>28.02</ele>
        <time>2023-08-25T14:10:04Z</time>
      </trkpt>
      <trkpt lat="57.654588036239147" lon="-5.407045036554337">
        <ele>28.02</ele>
        <time>2023-08-25T14:10:05Z</time>
      </trkpt>
      <trkpt lat="57.654621982946992" lon="-5.406682016327977">
        <ele>28.02</ele>
        <time>2023-08-25T14:10:06Z</time>
      </trkpt>
      <trkpt lat="57.654656013473868" lon="-5.406311033293605">
        <ele>28.02</ele>
        <time>2023-08-25T14:10:07Z</time>
      </trkpt>
      <trkpt lat="57.655096985399723" lon="-5.402297023683786">
        <ele>24.649999999999999</ele>
        <time>2023-08-25T14:10:17Z</time>
      </trkpt>
      <trkpt lat="57.655370989814401" lon="-5.399078037589788">
        <ele>19.84</ele>
        <time>2023-08-25T14:10:25Z</time>
      </trkpt>
      <trkpt lat="57.655246015638113" lon="-5.397431999444962">
        <ele>17.920000000000002</ele>
        <time>2023-08-25T14:10:29Z</time>
      </trkpt>
      <trkpt lat="57.654634974896908" lon="-5.394588019698858">
        <ele>15.52</ele>
        <time>2023-08-25T14:10:36Z</time>
      </trkpt>
      <trkpt lat="57.65435803681612" lon="-5.39356199093163">
        <ele>14.56</ele>
        <time>2023-08-25T14:10:39Z</time>
      </trkpt>
      <trkpt lat="57.654232978820801" lon="-5.393258985131979">
        <ele>14.08</ele>
        <time>2023-08-25T14:10:40Z</time>
      </trkpt>
      <trkpt lat="57.65410297550261" lon="-5.392964025959373">
        <ele>13.6</ele>
        <time>2023-08-25T14:10:41Z</time>
      </trkpt>
      <trkpt lat="57.653933996334672" lon="-5.392706030979753">
        <ele>13.119999999999999</ele>
        <time>2023-08-25T14:10:42Z</time>
      </trkpt>
      <trkpt lat="57.65375898219645" lon="-5.392439989373088">
        <ele>12.630000000000001</ele>
        <time>2023-08-25T14:10:43Z</time>
      </trkpt>
      <trkpt lat="57.652229033410549" lon="-5.390337975695729">
        <ele>12.630000000000001</ele>
        <time>2023-08-25T14:10:51Z</time>
      </trkpt>
      <trkpt lat="57.650312008336186" lon="-5.388035969808698">
        <ele>19.359999999999999</ele>
        <time>2023-08-25T14:11:01Z</time>
      </trkpt>
      <trkpt lat="57.649177014827728" lon="-5.386005034670234">
        <ele>25.129999999999999</ele>
        <time>2023-08-25T14:11:08Z</time>
      </trkpt>
      <trkpt lat="57.64778696000576" lon="-5.382782025262713">
        <ele>28.02</ele>
        <time>2023-08-25T14:11:17Z</time>
      </trkpt>
      <trkpt lat="57.64700903557241" lon="-5.38092995993793">
        <ele>28.02</ele>
        <time>2023-08-25T14:11:22Z</time>
      </trkpt>
      <trkpt lat="57.645715959370136" lon="-5.377406040206552">
        <ele>31.379999999999999</ele>
        <time>2023-08-25T14:11:32Z</time>
      </trkpt>
      <trkpt lat="57.644576020538807" lon="-5.374463992193341">
        <ele>29.940000000000001</ele>
        <time>2023-08-25T14:11:40Z</time>
      </trkpt>
      <trkpt lat="57.643086975440383" lon="-5.371419014409185">
        <ele>28.98</ele>
        <time>2023-08-25T14:11:49Z</time>
      </trkpt>
      <trkpt lat="57.641663979738951" lon="-5.36906898021698">
        <ele>28.5</ele>
        <time>2023-08-25T14:11:57Z</time>
      </trkpt>
      <trkpt lat="57.641465999186039" lon="-5.368852978572249">
        <ele>28.5</ele>
        <time>2023-08-25T14:11:58Z</time>
      </trkpt>
      <trkpt lat="57.63998600654304" lon="-5.367637015879154">
        <ele>28.5</ele>
        <time>2023-08-25T14:12:05Z</time>
      </trkpt>
      <trkpt lat="57.638075016438961" lon="-5.366261964663863">
        <ele>25.609999999999999</ele>
        <time>2023-08-25T14:12:14Z</time>
      </trkpt>
      <trkpt lat="57.637004982680082" lon="-5.36545998416841">
        <ele>21.77</ele>
        <time>2023-08-25T14:12:19Z</time>
      </trkpt>
      <trkpt lat="57.636108035221696" lon="-5.364379975944758">
        <ele>18.399999999999999</ele>
        <time>2023-08-25T14:12:24Z</time>
      </trkpt>
      <trkpt lat="57.635978031903505" lon="-5.364074036478996">
        <ele>17.920000000000002</ele>
        <time>2023-08-25T14:12:25Z</time>
      </trkpt>
      <trkpt lat="57.635848028585315" lon="-5.363770024850965">
        <ele>17.440000000000001</ele>
        <time>2023-08-25T14:12:26Z</time>
      </trkpt>
      <trkpt lat="57.635735962539911" lon="-5.363456038758159">
        <ele>16.960000000000001</ele>
        <time>2023-08-25T14:12:27Z</time>
      </trkpt>
      <trkpt lat="57.635654993355274" lon="-5.363088995218277">
        <ele>16.48</ele>
        <time>2023-08-25T14:12:28Z</time>
      </trkpt>
      <trkpt lat="57.635570000857115" lon="-5.362703008577228">
        <ele>16.48</ele>
        <time>2023-08-25T14:12:29Z</time>
      </trkpt>
      <trkpt lat="57.635491965338588" lon="-5.362306041643024">
        <ele>16</ele>
        <time>2023-08-25T14:12:30Z</time>
      </trkpt>
      <trkpt lat="57.635420970618725" lon="-5.361893987283111">
        <ele>16</ele>
        <time>2023-08-25T14:12:31Z</time>
      </trkpt>
      <trkpt lat="57.635281998664141" lon="-5.361078009009361">
        <ele>15.52</ele>
        <time>2023-08-25T14:12:33Z</time>
      </trkpt>
      <trkpt lat="57.634898023679852" lon="-5.359668005257845">
        <ele>13.6</ele>
        <time>2023-08-25T14:12:37Z</time>
      </trkpt>
      <trkpt lat="57.634470965713263" lon="-5.358624961227179">
        <ele>11.67</ele>
        <time>2023-08-25T14:12:40Z</time>
      </trkpt>
      <trkpt lat="57.634311961010098" lon="-5.35836897790432">
        <ele>11.19</ele>
        <time>2023-08-25T14:12:41Z</time>
      </trkpt>
      <trkpt lat="57.633261037990451" lon="-5.356227988377214">
        <ele>7.83</ele>
        <time>2023-08-25T14:12:48Z</time>
      </trkpt>
      <trkpt lat="57.633169004693627" lon="-5.355893969535828">
        <ele>7.83</ele>
        <time>2023-08-25T14:12:49Z</time>
      </trkpt>
      <trkpt lat="57.632280020043254" lon="-5.353013025596738">
        <ele>5.91</ele>
        <time>2023-08-25T14:12:58Z</time>
      </trkpt>
      <trkpt lat="57.632140964269638" lon="-5.35280498676002">
        <ele>5.91</ele>
        <time>2023-08-25T14:12:59Z</time>
      </trkpt>
      <trkpt lat="57.631984977051616" lon="-5.352622009813786">
        <ele>4.94</ele>
        <time>2023-08-25T14:13:00Z</time>
      </trkpt>
      <trkpt lat="57.631800994277" lon="-5.35246099345386">
        <ele>4.94</ele>
        <time>2023-08-25T14:13:01Z</time>
      </trkpt>
      <trkpt lat="57.631616005674005" lon="-5.352298971265554">
        <ele>4.46</ele>
        <time>2023-08-25T14:13:02Z</time>
      </trkpt>
      <trkpt lat="57.631265977397561" lon="-5.351946009323001">
        <ele>4.46</ele>
        <time>2023-08-25T14:13:04Z</time>
      </trkpt>
      <trkpt lat="57.631133962422609" lon="-5.35170896910131">
        <ele>4.46</ele>
        <time>2023-08-25T14:13:05Z</time>
      </trkpt>
      <trkpt lat="57.631000019609928" lon="-5.35147100687027">
        <ele>4.46</ele>
        <time>2023-08-25T14:13:06Z</time>
      </trkpt>
      <trkpt lat="57.630884014070034" lon="-5.351217035204172">
        <ele>3.98</ele>
        <time>2023-08-25T14:13:07Z</time>
      </trkpt>
      <trkpt lat="57.630803966894746" lon="-5.350924003869295">
        <ele>3.98</ele>
        <time>2023-08-25T14:13:08Z</time>
      </trkpt>
      <trkpt lat="57.630722997710109" lon="-5.350630972534418">
        <ele>3.5</ele>
        <time>2023-08-25T14:13:09Z</time>
      </trkpt>
      <trkpt lat="57.630655020475388" lon="-5.350330984219909">
        <ele>3.02</ele>
        <time>2023-08-25T14:13:10Z</time>
      </trkpt>
      <trkpt lat="57.630603974685073" lon="-5.350007023662329">
        <ele>3.02</ele>
        <time>2023-08-25T14:13:11Z</time>
      </trkpt>
      <trkpt lat="57.629985976964235" lon="-5.346376989036799">
        <ele>1.1</ele>
        <time>2023-08-25T14:13:22Z</time>
      </trkpt>
      <trkpt lat="57.629756983369589" lon="-5.345555981621146">
        <ele>1.1</ele>
        <time>2023-08-25T14:13:25Z</time>
      </trkpt>
      <trkpt lat="57.629674002528191" lon="-5.345316007733345">
        <ele>1.1</ele>
        <time>2023-08-25T14:13:26Z</time>
      </trkpt>
      <trkpt lat="57.629498988389969" lon="-5.344902025535703">
        <ele>1.58</ele>
        <time>2023-08-25T14:13:28Z</time>
      </trkpt>
      <trkpt lat="57.629393963143229" lon="-5.344718964770436">
        <ele>1.58</ele>
        <time>2023-08-25T14:13:29Z</time>
      </trkpt>
      <trkpt lat="57.629271000623703" lon="-5.344541016966105">
        <ele>1.58</ele>
        <time>2023-08-25T14:13:30Z</time>
      </trkpt>
      <trkpt lat="57.62913596816361" lon="-5.344406990334392">
        <ele>2.06</ele>
        <time>2023-08-25T14:13:31Z</time>
      </trkpt>
      <trkpt lat="57.628995990380645" lon="-5.344281010329723">
        <ele>2.06</ele>
        <time>2023-08-25T14:13:32Z</time>
      </trkpt>
      <trkpt lat="57.628849977627397" lon="-5.344184031710029">
        <ele>2.54</ele>
        <time>2023-08-25T14:13:33Z</time>
      </trkpt>
      <trkpt lat="57.628702959045768" lon="-5.344085963442922">
        <ele>2.54</ele>
        <time>2023-08-25T14:13:34Z</time>
      </trkpt>
      <trkpt lat="57.628558035939932" lon="-5.343988984823227">
        <ele>2.54</ele>
        <time>2023-08-25T14:13:35Z</time>
      </trkpt>
      <trkpt lat="57.628415040671825" lon="-5.343894017860293">
        <ele>2.06</ele>
        <time>2023-08-25T14:13:36Z</time>
      </trkpt>
      <trkpt lat="57.627883041277528" lon="-5.343494033440948">
        <ele>2.54</ele>
        <time>2023-08-25T14:13:40Z</time>
      </trkpt>
      <trkpt lat="57.627767035737634" lon="-5.343338968232274">
        <ele>3.02</ele>
        <time>2023-08-25T14:13:41Z</time>
      </trkpt>
      <trkpt lat="57.627646001055837" lon="-5.343174012377858">
        <ele>3.5</ele>
        <time>2023-08-25T14:13:42Z</time>
      </trkpt>
      <trkpt lat="57.627520021051168" lon="-5.34300503320992">
        <ele>3.98</ele>
        <time>2023-08-25T14:13:43Z</time>
      </trkpt>
      <trkpt lat="57.627424970269203" lon="-5.342785008251667">
        <ele>3.98</ele>
        <time>2023-08-25T14:13:44Z</time>
      </trkpt>
      <trkpt lat="57.627322962507606" lon="-5.342546962201595">
        <ele>3.98</ele>
        <time>2023-08-25T14:13:45Z</time>
      </trkpt>
      <trkpt lat="57.627220032736659" lon="-5.342306988313794">
        <ele>4.46</ele>
        <time>2023-08-25T14:13:46Z</time>
      </trkpt>
      <trkpt lat="57.626117980107665" lon="-5.339736007153988">
        <ele>6.39</ele>
        <time>2023-08-25T14:13:57Z</time>
      </trkpt>
      <trkpt lat="57.625165963545442" lon="-5.337149016559124">
        <ele>6.87</ele>
        <time>2023-08-25T14:14:07Z</time>
      </trkpt>
      <trkpt lat="57.624607980251312" lon="-5.335539020597935">
        <ele>5.91</ele>
        <time>2023-08-25T14:14:13Z</time>
      </trkpt>
      <trkpt lat="57.624484011903405" lon="-5.335331987589598">
        <ele>5.42</ele>
        <time>2023-08-25T14:14:14Z</time>
      </trkpt>
      <trkpt lat="57.624347973614931" lon="-5.335133001208305">
        <ele>5.42</ele>
        <time>2023-08-25T14:14:15Z</time>
      </trkpt>
      <trkpt lat="57.623209040611982" lon="-5.334176039323211">
        <ele>4.94</ele>
        <time>2023-08-25T14:14:22Z</time>
      </trkpt>
      <trkpt lat="57.622212013229728" lon="-5.332875000312924">
        <ele>3.98</ele>
        <time>2023-08-25T14:14:29Z</time>
      </trkpt>
      <trkpt lat="57.62094802223146" lon="-5.33101899549365">
        <ele>2.54</ele>
        <time>2023-08-25T14:14:37Z</time>
      </trkpt>
      <trkpt lat="57.619560984894633" lon="-5.328869037330151">
        <ele>1.1</ele>
        <time>2023-08-25T14:14:44Z</time>
      </trkpt>
      <trkpt lat="57.618762021884322" lon="-5.327524999156594">
        <ele>0.62</ele>
        <time>2023-08-25T14:14:49Z</time>
      </trkpt>
      <trkpt lat="57.618650961667299" lon="-5.327221993356943">
        <ele>1.1</ele>
        <time>2023-08-25T14:14:50Z</time>
      </trkpt>
      <trkpt lat="57.618539985269308" lon="-5.326899038627744">
        <ele>1.1</ele>
        <time>2023-08-25T14:14:51Z</time>
      </trkpt>
      <trkpt lat="57.618450969457626" lon="-5.326553033664823">
        <ele>1.1</ele>
        <time>2023-08-25T14:14:52Z</time>
      </trkpt>
      <trkpt lat="57.61837100610137" lon="-5.326195964589715">
        <ele>1.1</ele>
        <time>2023-08-25T14:14:53Z</time>
      </trkpt>
      <trkpt lat="57.618290958926082" lon="-5.325835039839149">
        <ele>1.1</ele>
        <time>2023-08-25T14:14:54Z</time>
      </trkpt>
      <trkpt lat="57.617958029732108" lon="-5.324369966983795">
        <ele>0.14</ele>
        <time>2023-08-25T14:14:58Z</time>
      </trkpt>
      <trkpt lat="57.61695496737957" lon="-5.322270970791578">
        <ele>-2.75</ele>
        <time>2023-08-25T14:15:05Z</time>
      </trkpt>
      <trkpt lat="57.615582011640072" lon="-5.319826975464821">
        <ele>-1.79</ele>
        <time>2023-08-25T14:15:14Z</time>
      </trkpt>
      <trkpt lat="57.614262029528618" lon="-5.317703001201153">
        <ele>2.54</ele>
        <time>2023-08-25T14:15:22Z</time>
      </trkpt>
      <trkpt lat="57.613136004656553" lon="-5.315952021628618">
        <ele>4.94</ele>
        <time>2023-08-25T14:15:29Z</time>
      </trkpt>
      <trkpt lat="57.611263990402222" lon="-5.313050039112568">
        <ele>6.39</ele>
        <time>2023-08-25T14:15:40Z</time>
      </trkpt>
      <trkpt lat="57.609797995537519" lon="-5.310640996322036">
        <ele>10.710000000000001</ele>
        <time>2023-08-25T14:15:49Z</time>
      </trkpt>
      <trkpt lat="57.608387991786003" lon="-5.308312000706792">
        <ele>13.6</ele>
        <time>2023-08-25T14:15:58Z</time>
      </trkpt>
      <trkpt lat="57.607364980503917" lon="-5.307392003014684">
        <ele>16</ele>
        <time>2023-08-25T14:16:04Z</time>
      </trkpt>
      <trkpt lat="57.606392009183764" lon="-5.306905014440417">
        <ele>20.32</ele>
        <time>2023-08-25T14:16:12Z</time>
      </trkpt>
      <trkpt lat="57.605972997844219" lon="-5.306521961465478">
        <ele>21.77</ele>
        <time>2023-08-25T14:16:16Z</time>
      </trkpt>
      <trkpt lat="57.605885993689299" lon="-5.306411990895867">
        <ele>22.25</ele>
        <time>2023-08-25T14:16:17Z</time>
      </trkpt>
      <trkpt lat="57.605461031198502" lon="-5.305669018998742">
        <ele>26.09</ele>
        <time>2023-08-25T14:16:23Z</time>
      </trkpt>
      <trkpt lat="57.605302026495337" lon="-5.305330976843834">
        <ele>27.050000000000001</ele>
        <time>2023-08-25T14:16:26Z</time>
      </trkpt>
      <trkpt lat="57.604697020724416" lon="-5.303970007225871">
        <ele>31.859999999999999</ele>
        <time>2023-08-25T14:16:37Z</time>
      </trkpt>
      <trkpt lat="57.604643041267991" lon="-5.303835980594158">
        <ele>32.340000000000003</ele>
        <time>2023-08-25T14:16:38Z</time>
      </trkpt>
      <trkpt lat="57.604548996314406" lon="-5.303473966196179">
        <ele>32.340000000000003</ele>
        <time>2023-08-25T14:16:41Z</time>
      </trkpt>
      <trkpt lat="57.604528963565826" lon="-5.303399031981826">
        <ele>31.859999999999999</ele>
        <time>2023-08-25T14:16:42Z</time>
      </trkpt>
      <trkpt lat="57.604489987716079" lon="-5.303371958434582">
        <ele>31.859999999999999</ele>
        <time>2023-08-25T14:16:43Z</time>
      </trkpt>
      <trkpt lat="57.604453023523092" lon="-5.303404983133078">
        <ele>31.379999999999999</ele>
        <time>2023-08-25T14:16:44Z</time>
      </trkpt>
      <trkpt lat="57.604402983561158" lon="-5.303447982296348">
        <ele>31.379999999999999</ele>
        <time>2023-08-25T14:16:45Z</time>
      </trkpt>
      <trkpt lat="57.604341963306069" lon="-5.303501961752772">
        <ele>31.379999999999999</ele>
        <time>2023-08-25T14:16:46Z</time>
      </trkpt>
      <trkpt lat="57.604269040748477" lon="-5.303565999493003">
        <ele>31.379999999999999</ele>
        <time>2023-08-25T14:16:47Z</time>
      </trkpt>
      <trkpt lat="57.60419100522995" lon="-5.303634982556105">
        <ele>31.379999999999999</ele>
        <time>2023-08-25T14:16:48Z</time>
      </trkpt>
      <trkpt lat="57.603941978886724" lon="-5.303848972544074">
        <ele>33.780000000000001</ele>
        <time>2023-08-25T14:16:54Z</time>
      </trkpt>
      <trkpt lat="57.603690018877387" lon="-5.304054999724031">
        <ele>35.229999999999997</ele>
        <time>2023-08-25T14:16:58Z</time>
      </trkpt>
      <trkpt lat="57.603606032207608" lon="-5.304122976958752">
        <ele>35.710000000000001</ele>
        <time>2023-08-25T14:16:59Z</time>
      </trkpt>
      <trkpt lat="57.602487970143557" lon="-5.305001987144351">
        <ele>36.670000000000002</ele>
        <time>2023-08-25T14:17:11Z</time>
      </trkpt>
      <trkpt lat="57.602072982117534" lon="-5.305311027914286">
        <ele>36.670000000000002</ele>
        <time>2023-08-25T14:17:15Z</time>
      </trkpt>
      <trkpt lat="57.600872023031116" lon="-5.305525017902255">
        <ele>36.670000000000002</ele>
        <time>2023-08-25T14:17:25Z</time>
      </trkpt>
      <trkpt lat="57.598847039043903" lon="-5.305742025375366">
        <ele>37.149999999999999</ele>
        <time>2023-08-25T14:17:38Z</time>
      </trkpt>
      <trkpt lat="57.596847033128142" lon="-5.305956015363336">
        <ele>40.030000000000001</ele>
        <time>2023-08-25T14:17:49Z</time>
      </trkpt>
      <trkpt lat="57.596094002947211" lon="-5.306150978431106">
        <ele>43.399999999999999</ele>
        <time>2023-08-25T14:17:54Z</time>
      </trkpt>
      <trkpt lat="57.595959976315498" lon="-5.306259021162987">
        <ele>44.359999999999999</ele>
        <time>2023-08-25T14:17:55Z</time>
      </trkpt>
      <trkpt lat="57.595268972218037" lon="-5.306949019432068">
        <ele>47.240000000000002</ele>
        <time>2023-08-25T14:18:00Z</time>
      </trkpt>
      <trkpt lat="57.595123965293169" lon="-5.307064019143581">
        <ele>47.719999999999999</ele>
        <time>2023-08-25T14:18:01Z</time>
      </trkpt>
      <trkpt lat="57.594968983903527" lon="-5.307125961408019">
        <ele>47.719999999999999</ele>
        <time>2023-08-25T14:18:02Z</time>
      </trkpt>
      <trkpt lat="57.593981008976698" lon="-5.307542961090803">
        <ele>50.130000000000003</ele>
        <time>2023-08-25T14:18:09Z</time>
      </trkpt>
      <trkpt lat="57.593711027875543" lon="-5.307697020471096">
        <ele>53.009999999999998</ele>
        <time>2023-08-25T14:18:13Z</time>
      </trkpt>
      <trkpt lat="57.593633998185396" lon="-5.307740019634366">
        <ele>53.969999999999999</ele>
        <time>2023-08-25T14:18:14Z</time>
      </trkpt>
      <trkpt lat="57.593386983498931" lon="-5.307881003245711">
        <ele>56.369999999999997</ele>
        <time>2023-08-25T14:18:17Z</time>
      </trkpt>
      <trkpt lat="57.593286987394094" lon="-5.307938000187278">
        <ele>57.340000000000003</ele>
        <time>2023-08-25T14:18:18Z</time>
      </trkpt>
      <trkpt lat="57.592301024124026" lon="-5.30850000679493">
        <ele>60.700000000000003</ele>
        <time>2023-08-25T14:18:25Z</time>
      </trkpt>
      <trkpt lat="57.590304035693407" lon="-5.309368958696723">
        <ele>63.100000000000001</ele>
        <time>2023-08-25T14:18:37Z</time>
      </trkpt>
      <trkpt lat="57.588315010070801" lon="-5.310014029964805">
        <ele>61.659999999999997</ele>
        <time>2023-08-25T14:18:47Z</time>
      </trkpt>
      <trkpt lat="57.586805010214448" lon="-5.310527002438903">
        <ele>62.619999999999997</ele>
        <time>2023-08-25T14:18:55Z</time>
      </trkpt>
      <trkpt lat="57.584470985457301" lon="-5.311634000390768">
        <ele>63.579999999999998</ele>
        <time>2023-08-25T14:19:07Z</time>
      </trkpt>
      <trkpt lat="57.583186961710453" lon="-5.312278987839818">
        <ele>65.510000000000005</ele>
        <time>2023-08-25T14:19:15Z</time>
      </trkpt>
      <trkpt lat="57.583186961710453" lon="-5.312278987839818">
        <ele>65.510000000000005</ele>
        <time>2023-08-25T14:19:20Z</time>
      </trkpt>
      <trkpt lat="57.583004990592599" lon="-5.312469005584717">
        <ele>65.989999999999995</ele>
        <time>2023-08-25T14:19:32Z</time>
      </trkpt>
      <trkpt lat="57.582903988659382" lon="-5.312575958669186">
        <ele>66.469999999999999</ele>
        <time>2023-08-25T14:19:34Z</time>
      </trkpt>
      <trkpt lat="57.582846991717815" lon="-5.312634967267513">
        <ele>66.950000000000003</ele>
        <time>2023-08-25T14:19:35Z</time>
      </trkpt>
      <trkpt lat="57.582165962085128" lon="-5.313373999670148">
        <ele>66.950000000000003</ele>
        <time>2023-08-25T14:19:45Z</time>
      </trkpt>
      <trkpt lat="57.582116005942225" lon="-5.313433008268476">
        <ele>67.430000000000007</ele>
        <time>2023-08-25T14:19:46Z</time>
      </trkpt>
      <trkpt lat="57.582064960151911" lon="-5.313494028523564">
        <ele>67.430000000000007</ele>
        <time>2023-08-25T14:19:47Z</time>
      </trkpt>
      <trkpt lat="57.581392982974648" lon="-5.314287962391973">
        <ele>68.390000000000001</ele>
        <time>2023-08-25T14:19:56Z</time>
      </trkpt>
      <trkpt lat="57.580193029716611" lon="-5.315708024427295">
        <ele>70.790000000000006</ele>
        <time>2023-08-25T14:20:07Z</time>
      </trkpt>
      <trkpt lat="57.578949993476272" lon="-5.317177958786488">
        <ele>72.239999999999995</ele>
        <time>2023-08-25T14:20:18Z</time>
      </trkpt>
      <trkpt lat="57.578631984069943" lon="-5.317658996209502">
        <ele>72.239999999999995</ele>
        <time>2023-08-25T14:20:21Z</time>
      </trkpt>
      <trkpt lat="57.577980039641261" lon="-5.319098001345992">
        <ele>73.200000000000003</ele>
        <time>2023-08-25T14:20:28Z</time>
      </trkpt>
      <trkpt lat="57.577238995581865" lon="-5.320731969550252">
        <ele>74.159999999999997</ele>
        <time>2023-08-25T14:20:36Z</time>
      </trkpt>
      <trkpt lat="57.575969975441694" lon="-5.323143023997545">
        <ele>74.640000000000001</ele>
        <time>2023-08-25T14:20:48Z</time>
      </trkpt>
      <trkpt lat="57.575577031821012" lon="-5.323820030316711">
        <ele>74.159999999999997</ele>
        <time>2023-08-25T14:20:52Z</time>
      </trkpt>
      <trkpt lat="57.575502013787627" lon="-5.324031002819538">
        <ele>73.680000000000007</ele>
        <time>2023-08-25T14:20:53Z</time>
      </trkpt>
      <trkpt lat="57.574760969728231" lon="-5.326111977919936">
        <ele>75.120000000000005</ele>
        <time>2023-08-25T14:21:02Z</time>
      </trkpt>
      <trkpt lat="57.574376994743943" lon="-5.326744979247451">
        <ele>76.560000000000002</ele>
        <time>2023-08-25T14:21:07Z</time>
      </trkpt>
      <trkpt lat="57.574309017509222" lon="-5.326835000887513">
        <ele>78.480000000000004</ele>
        <time>2023-08-25T14:21:12Z</time>
      </trkpt>
      <trkpt lat="57.574288984760642" lon="-5.326860984787345">
        <ele>78.969999999999999</ele>
        <time>2023-08-25T14:21:13Z</time>
      </trkpt>
      <trkpt lat="57.574250008910894" lon="-5.326911024749279">
        <ele>78.969999999999999</ele>
        <time>2023-08-25T14:21:14Z</time>
      </trkpt>
      <trkpt lat="57.574194017797709" lon="-5.326983025297523">
        <ele>78.969999999999999</ele>
        <time>2023-08-25T14:21:15Z</time>
      </trkpt>
      <trkpt lat="57.574122017249465" lon="-5.327075980603695">
        <ele>79.450000000000003</ele>
        <time>2023-08-25T14:21:16Z</time>
      </trkpt>
      <trkpt lat="57.573365969583392" lon="-5.328046018257737">
        <ele>81.370000000000005</ele>
        <time>2023-08-25T14:21:23Z</time>
      </trkpt>
      <trkpt lat="57.572966990992427" lon="-5.328726964071393">
        <ele>82.810000000000002</ele>
        <time>2023-08-25T14:21:27Z</time>
      </trkpt>
      <trkpt lat="57.572899013757706" lon="-5.32891295850277">
        <ele>83.290000000000006</ele>
        <time>2023-08-25T14:21:28Z</time>
      </trkpt>
      <trkpt lat="57.57284302264452" lon="-5.329119991511107">
        <ele>83.769999999999996</ele>
        <time>2023-08-25T14:21:29Z</time>
      </trkpt>
      <trkpt lat="57.572799017652869" lon="-5.329314032569528">
        <ele>83.769999999999996</ele>
        <time>2023-08-25T14:21:30Z</time>
      </trkpt>
      <trkpt lat="57.572786025702953" lon="-5.329505978152156">
        <ele>84.25</ele>
        <time>2023-08-25T14:21:31Z</time>
      </trkpt>
      <trkpt lat="57.572669014334679" lon="-5.33060803078115">
        <ele>85.209999999999994</ele>
        <time>2023-08-25T14:21:38Z</time>
      </trkpt>
      <trkpt lat="57.572630038484931" lon="-5.330834006890655">
        <ele>85.689999999999998</ele>
        <time>2023-08-25T14:21:39Z</time>
      </trkpt>
      <trkpt lat="57.572458041831851" lon="-5.331567004323006">
        <ele>86.180000000000007</ele>
        <time>2023-08-25T14:21:42Z</time>
      </trkpt>
      <trkpt lat="57.572031989693642" lon="-5.333067029714584">
        <ele>90.019999999999996</ele>
        <time>2023-08-25T14:21:49Z</time>
      </trkpt>
      <trkpt lat="57.571952026337385" lon="-5.333455028012395">
        <ele>90.980000000000004</ele>
        <time>2023-08-25T14:21:53Z</time>
      </trkpt>
      <trkpt lat="57.571906009688973" lon="-5.333674969151616">
        <ele>91.459999999999994</ele>
        <time>2023-08-25T14:21:55Z</time>
      </trkpt>
      <trkpt lat="57.571627981960773" lon="-5.335006015375257">
        <ele>93.390000000000001</ele>
        <time>2023-08-25T14:22:01Z</time>
      </trkpt>
      <trkpt lat="57.5708909612149" lon="-5.337618989869952">
        <ele>97.230000000000004</ele>
        <time>2023-08-25T14:22:10Z</time>
      </trkpt>
      <trkpt lat="57.569888988509774" lon="-5.339937005192041">
        <ele>101.08</ele>
        <time>2023-08-25T14:22:19Z</time>
      </trkpt>
      <trkpt lat="57.568819038569927" lon="-5.342606976628304">
        <ele>103.95999999999999</ele>
        <time>2023-08-25T14:22:29Z</time>
      </trkpt>
      <trkpt lat="57.568428022786975" lon="-5.343679022043943">
        <ele>106.36</ele>
        <time>2023-08-25T14:22:36Z</time>
      </trkpt>
      <trkpt lat="57.567745987325907" lon="-5.345422038808465">
        <ele>109.25</ele>
        <time>2023-08-25T14:22:46Z</time>
      </trkpt>
      <trkpt lat="57.567080967128277" lon="-5.346780996769667">
        <ele>107.81</ele>
        <time>2023-08-25T14:22:57Z</time>
      </trkpt>
      <trkpt lat="57.566644018515944" lon="-5.34831496886909">
        <ele>108.77</ele>
        <time>2023-08-25T14:23:07Z</time>
      </trkpt>
      <trkpt lat="57.566604036837816" lon="-5.348715959116817">
        <ele>108.77</ele>
        <time>2023-08-25T14:23:10Z</time>
      </trkpt>
      <trkpt lat="57.566594984382391" lon="-5.348846968263388">
        <ele>108.77</ele>
        <time>2023-08-25T14:23:11Z</time>
      </trkpt>
      <trkpt lat="57.566585009917617" lon="-5.349002033472061">
        <ele>109.25</ele>
        <time>2023-08-25T14:23:12Z</time>
      </trkpt>
      <trkpt lat="57.566649969667196" lon="-5.350280022248626">
        <ele>110.20999999999999</ele>
        <time>2023-08-25T14:23:19Z</time>
      </trkpt>
      <trkpt lat="57.567041991278529" lon="-5.35203100182116">
        <ele>109.25</ele>
        <time>2023-08-25T14:23:27Z</time>
      </trkpt>
      <trkpt lat="57.567332005128264" lon="-5.352871036157012">
        <ele>108.77</ele>
        <time>2023-08-25T14:23:31Z</time>
      </trkpt>
      <trkpt lat="57.567341979593039" lon="-5.353100029751658">
        <ele>108.77</ele>
        <time>2023-08-25T14:23:32Z</time>
      </trkpt>
      <trkpt lat="57.567351032048464" lon="-5.353318965062499">
        <ele>108.29000000000001</ele>
        <time>2023-08-25T14:23:33Z</time>
      </trkpt>
      <trkpt lat="57.567306021228433" lon="-5.353504959493876">
        <ele>108.29000000000001</ele>
        <time>2023-08-25T14:23:34Z</time>
      </trkpt>
      <trkpt lat="57.567252041772008" lon="-5.353701012209058">
        <ele>108.77</ele>
        <time>2023-08-25T14:23:35Z</time>
      </trkpt>
      <trkpt lat="57.56717199459672" lon="-5.353894969448447">
        <ele>108.77</ele>
        <time>2023-08-25T14:23:36Z</time>
      </trkpt>
      <trkpt lat="57.567089013755322" lon="-5.354098984971643">
        <ele>108.29000000000001</ele>
        <time>2023-08-25T14:23:37Z</time>
      </trkpt>
      <trkpt lat="57.567004021257162" lon="-5.35430601797998">
        <ele>108.29000000000001</ele>
        <time>2023-08-25T14:23:38Z</time>
      </trkpt>
      <trkpt lat="57.566836969926953" lon="-5.354712037369609">
        <ele>107.31999999999999</ele>
        <time>2023-08-25T14:23:40Z</time>
      </trkpt>
      <trkpt lat="57.566761029884219" lon="-5.354948993772268">
        <ele>107.31999999999999</ele>
        <time>2023-08-25T14:23:41Z</time>
      </trkpt>
      <trkpt lat="57.566726999357343" lon="-5.355205982923508">
        <ele>106.84</ele>
        <time>2023-08-25T14:23:42Z</time>
      </trkpt>
      <trkpt lat="57.566690035164356" lon="-5.355477975681424">
        <ele>106.84</ele>
        <time>2023-08-25T14:23:43Z</time>
      </trkpt>
      <trkpt lat="57.566651981323957" lon="-5.355757009238005">
        <ele>106.36</ele>
        <time>2023-08-25T14:23:44Z</time>
      </trkpt>
      <trkpt lat="57.566160969436169" lon="-5.358920004218817">
        <ele>103.48</ele>
        <time>2023-08-25T14:23:55Z</time>
      </trkpt>
      <trkpt lat="57.565674986690283" lon="-5.360356997698546">
        <ele>103.95999999999999</ele>
        <time>2023-08-25T14:24:02Z</time>
      </trkpt>
      <trkpt lat="57.565414980053902" lon="-5.361285964027047">
        <ele>104.92</ele>
        <time>2023-08-25T14:24:10Z</time>
      </trkpt>
      <trkpt lat="57.565084984526038" lon="-5.363007020205259">
        <ele>104.44</ele>
        <time>2023-08-25T14:24:17Z</time>
      </trkpt>
      <trkpt lat="57.564909970387816" lon="-5.363968005403876">
        <ele>103.48</ele>
        <time>2023-08-25T14:24:21Z</time>
      </trkpt>
      <trkpt lat="57.564841993153095" lon="-5.364200016483665">
        <ele>103.48</ele>
        <time>2023-08-25T14:24:22Z</time>
      </trkpt>
      <trkpt lat="57.564765969291329" lon="-5.36442800424993">
        <ele>103.48</ele>
        <time>2023-08-25T14:24:23Z</time>
      </trkpt>
      <trkpt lat="57.564674019813538" lon="-5.364646017551422">
        <ele>103.48</ele>
        <time>2023-08-25T14:24:24Z</time>
      </trkpt>
      <trkpt lat="57.564571006223559" lon="-5.364855984225869">
        <ele>103.48</ele>
        <time>2023-08-25T14:24:25Z</time>
      </trkpt>
      <trkpt lat="57.563627958297729" lon="-5.367228984832764">
        <ele>103.48</ele>
        <time>2023-08-25T14:24:36Z</time>
      </trkpt>
      <trkpt lat="57.563611026853323" lon="-5.367468958720565">
        <ele>103</ele>
        <time>2023-08-25T14:24:37Z</time>
      </trkpt>
      <trkpt lat="57.563593005761504" lon="-5.367737011983991">
        <ele>102.52</ele>
        <time>2023-08-25T14:24:38Z</time>
      </trkpt>
      <trkpt lat="57.563511030748487" lon="-5.370238004252315">
        <ele>97.709999999999994</ele>
        <time>2023-08-25T14:24:46Z</time>
      </trkpt>
      <trkpt lat="57.563513964414597" lon="-5.370729016140103">
        <ele>98.189999999999998</ele>
        <time>2023-08-25T14:24:48Z</time>
      </trkpt>
      <trkpt lat="57.563551012426615" lon="-5.370955998077989">
        <ele>98.670000000000002</ele>
        <time>2023-08-25T14:24:49Z</time>
      </trkpt>
      <trkpt lat="57.563587976619601" lon="-5.371190020814538">
        <ele>98.670000000000002</ele>
        <time>2023-08-25T14:24:50Z</time>
      </trkpt>
      <trkpt lat="57.563625024631619" lon="-5.371426977217197">
        <ele>99.150000000000006</ele>
        <time>2023-08-25T14:24:51Z</time>
      </trkpt>
      <trkpt lat="57.563668023794889" lon="-5.371665023267269">
        <ele>99.629999999999995</ele>
        <time>2023-08-25T14:24:52Z</time>
      </trkpt>
      <trkpt lat="57.563753016293049" lon="-5.371858980506659">
        <ele>99.629999999999995</ele>
        <time>2023-08-25T14:24:53Z</time>
      </trkpt>
      <trkpt lat="57.564595984295011" lon="-5.37340602837503">
        <ele>102.52</ele>
        <time>2023-08-25T14:25:01Z</time>
      </trkpt>
      <trkpt lat="57.564905025064945" lon="-5.373868960887194">
        <ele>105.88</ele>
        <time>2023-08-25T14:25:06Z</time>
      </trkpt>
      <trkpt lat="57.565117003396153" lon="-5.374187976121903">
        <ele>107.31999999999999</ele>
        <time>2023-08-25T14:25:10Z</time>
      </trkpt>
      <trkpt lat="57.56517400033772" lon="-5.374322002753615">
        <ele>107.31999999999999</ele>
        <time>2023-08-25T14:25:11Z</time>
      </trkpt>
      <trkpt lat="57.565223034471273" lon="-5.374470027163625">
        <ele>107.81</ele>
        <time>2023-08-25T14:25:12Z</time>
      </trkpt>
      <trkpt lat="57.565269973129034" lon="-5.37461000494659">
        <ele>107.81</ele>
        <time>2023-08-25T14:25:13Z</time>
      </trkpt>
      <trkpt lat="57.565292017534375" lon="-5.37480496801436">
        <ele>108.29000000000001</ele>
        <time>2023-08-25T14:25:14Z</time>
      </trkpt>
      <trkpt lat="57.565313978120685" lon="-5.375005966052413">
        <ele>108.77</ele>
        <time>2023-08-25T14:25:15Z</time>
      </trkpt>
      <trkpt lat="57.565376004204154" lon="-5.375660005956888">
        <ele>109.25</ele>
        <time>2023-08-25T14:25:18Z</time>
      </trkpt>
      <trkpt lat="57.565370975062251" lon="-5.375892017036676">
        <ele>109.73</ele>
        <time>2023-08-25T14:25:19Z</time>
      </trkpt>
      <trkpt lat="57.56536602973938" lon="-5.376122016459703">
        <ele>110.20999999999999</ele>
        <time>2023-08-25T14:25:20Z</time>
      </trkpt>
      <trkpt lat="57.565201995894313" lon="-5.377621036022902">
        <ele>113.09</ele>
        <time>2023-08-25T14:25:27Z</time>
      </trkpt>
      <trkpt lat="57.565066963434219" lon="-5.378512032330036">
        <ele>114.05</ele>
        <time>2023-08-25T14:25:31Z</time>
      </trkpt>
      <trkpt lat="57.565033016726375" lon="-5.378771033138037">
        <ele>113.56999999999999</ele>
        <time>2023-08-25T14:25:32Z</time>
      </trkpt>
      <trkpt lat="57.564926985651255" lon="-5.381763959303498">
        <ele>108.29000000000001</ele>
        <time>2023-08-25T14:25:41Z</time>
      </trkpt>
      <trkpt lat="57.564718024805188" lon="-5.384374000132084">
        <ele>105.40000000000001</ele>
        <time>2023-08-25T14:25:49Z</time>
      </trkpt>
      <trkpt lat="57.564132967963815" lon="-5.386220030486584">
        <ele>104.92</ele>
        <time>2023-08-25T14:25:57Z</time>
      </trkpt>
      <trkpt lat="57.563099982216954" lon="-5.389021011069417">
        <ele>101.56</ele>
        <time>2023-08-25T14:26:08Z</time>
      </trkpt>
      <trkpt lat="57.562217032536864" lon="-5.39141396060586">
        <ele>102.04000000000001</ele>
        <time>2023-08-25T14:26:18Z</time>
      </trkpt>
      <trkpt lat="57.56117700599134" lon="-5.393880000337958">
        <ele>99.150000000000006</ele>
        <time>2023-08-25T14:26:28Z</time>
      </trkpt>
      <trkpt lat="57.560703009366989" lon="-5.394461033865809">
        <ele>98.670000000000002</ele>
        <time>2023-08-25T14:26:32Z</time>
      </trkpt>
      <trkpt lat="57.56057501770556" lon="-5.394560024142265">
        <ele>98.670000000000002</ele>
        <time>2023-08-25T14:26:33Z</time>
      </trkpt>
      <trkpt lat="57.560235969722271" lon="-5.394856994971633">
        <ele>98.189999999999998</ele>
        <time>2023-08-25T14:26:36Z</time>
      </trkpt>
      <trkpt lat="57.56014896556735" lon="-5.394977023825049">
        <ele>98.189999999999998</ele>
        <time>2023-08-25T14:26:37Z</time>
      </trkpt>
      <trkpt lat="57.56008199416101" lon="-5.395114989951253">
        <ele>97.709999999999994</ele>
        <time>2023-08-25T14:26:38Z</time>
      </trkpt>
      <trkpt lat="57.560023991391063" lon="-5.395263014361262">
        <ele>97.709999999999994</ele>
        <time>2023-08-25T14:26:39Z</time>
      </trkpt>
      <trkpt lat="57.559969006106257" lon="-5.395407015457749">
        <ele>97.709999999999994</ele>
        <time>2023-08-25T14:26:40Z</time>
      </trkpt>
      <trkpt lat="57.559914020821452" lon="-5.395545987412334">
        <ele>97.709999999999994</ele>
        <time>2023-08-25T14:26:41Z</time>
      </trkpt>
      <trkpt lat="57.559722997248173" lon="-5.396087039262056">
        <ele>97.230000000000004</ele>
        <time>2023-08-25T14:26:48Z</time>
      </trkpt>
      <trkpt lat="57.559670023620129" lon="-5.396249983459711">
        <ele>96.75</ele>
        <time>2023-08-25T14:27:06Z</time>
      </trkpt>
      <trkpt lat="57.559310020878911" lon="-5.397358993068337">
        <ele>95.310000000000002</ele>
        <time>2023-08-25T14:27:12Z</time>
      </trkpt>
      <trkpt lat="57.558304024860263" lon="-5.399475004523993">
        <ele>93.390000000000001</ele>
        <time>2023-08-25T14:27:21Z</time>
      </trkpt>
      <trkpt lat="57.557644033804536" lon="-5.400379998609424">
        <ele>93.390000000000001</ele>
        <time>2023-08-25T14:27:26Z</time>
      </trkpt>
      <trkpt lat="57.557549988850951" lon="-5.400562975555658">
        <ele>93.390000000000001</ele>
        <time>2023-08-25T14:27:27Z</time>
      </trkpt>
      <trkpt lat="57.557476982474327" lon="-5.400794986635447">
        <ele>93.390000000000001</ele>
        <time>2023-08-25T14:27:28Z</time>
      </trkpt>
      <trkpt lat="57.556846998631954" lon="-5.402425015345216">
        <ele>92.420000000000002</ele>
        <time>2023-08-25T14:27:35Z</time>
      </trkpt>
      <trkpt lat="57.556796036660671" lon="-5.402626013383269">
        <ele>91.939999999999998</ele>
        <time>2023-08-25T14:27:36Z</time>
      </trkpt>
      <trkpt lat="57.556748008355498" lon="-5.402854001149535">
        <ele>91.939999999999998</ele>
        <time>2023-08-25T14:27:37Z</time>
      </trkpt>
      <trkpt lat="57.55672998726368" lon="-5.403120964765549">
        <ele>91.459999999999994</ele>
        <time>2023-08-25T14:27:38Z</time>
      </trkpt>
      <trkpt lat="57.556710038334131" lon="-5.403403015807271">
        <ele>91.459999999999994</ele>
        <time>2023-08-25T14:27:39Z</time>
      </trkpt>
      <trkpt lat="57.556659998372197" lon="-5.403689006343484">
        <ele>90.980000000000004</ele>
        <time>2023-08-25T14:27:40Z</time>
      </trkpt>
      <trkpt lat="57.556607024744153" lon="-5.403974996879697">
        <ele>90.980000000000004</ele>
        <time>2023-08-25T14:27:41Z</time>
      </trkpt>
      <trkpt lat="57.556479033082724" lon="-5.404811007902026">
        <ele>90.019999999999996</ele>
        <time>2023-08-25T14:27:44Z</time>
      </trkpt>
      <trkpt lat="57.556451037526131" lon="-5.405036984011531">
        <ele>89.540000000000006</ele>
        <time>2023-08-25T14:27:45Z</time>
      </trkpt>
      <trkpt lat="57.55647199228406" lon="-5.405261032283306">
        <ele>89.540000000000006</ele>
        <time>2023-08-25T14:27:46Z</time>
      </trkpt>
      <trkpt lat="57.556491019204259" lon="-5.40546303614974">
        <ele>89.060000000000002</ele>
        <time>2023-08-25T14:27:47Z</time>
      </trkpt>
      <trkpt lat="57.556526977568865" lon="-5.405666967853904">
        <ele>89.060000000000002</ele>
        <time>2023-08-25T14:27:48Z</time>
      </trkpt>
      <trkpt lat="57.556564025580883" lon="-5.405863020569086">
        <ele>89.060000000000002</ele>
        <time>2023-08-25T14:27:49Z</time>
      </trkpt>
      <trkpt lat="57.556668967008591" lon="-5.406421003863215">
        <ele>88.099999999999994</ele>
        <time>2023-08-25T14:27:52Z</time>
      </trkpt>
      <trkpt lat="57.556682964786887" lon="-5.406591994687915">
        <ele>88.099999999999994</ele>
        <time>2023-08-25T14:27:53Z</time>
      </trkpt>
      <trkpt lat="57.556661004200578" lon="-5.407060040161014">
        <ele>87.140000000000001</ele>
        <time>2023-08-25T14:27:56Z</time>
      </trkpt>
      <trkpt lat="57.556653963401914" lon="-5.407193982973695">
        <ele>87.140000000000001</ele>
        <time>2023-08-25T14:27:57Z</time>
      </trkpt>
      <trkpt lat="57.556419018656015" lon="-5.408529974520207">
        <ele>85.689999999999998</ele>
        <time>2023-08-25T14:28:04Z</time>
      </trkpt>
      <trkpt lat="57.555970000103116" lon="-5.410799961537123">
        <ele>84.730000000000004</ele>
        <time>2023-08-25T14:28:11Z</time>
      </trkpt>
      <trkpt lat="57.555328030139208" lon="-5.413834964856505">
        <ele>82.810000000000002</ele>
        <time>2023-08-25T14:28:21Z</time>
      </trkpt>
      <trkpt lat="57.555028963834047" lon="-5.414598975330591">
        <ele>81.849999999999994</ele>
        <time>2023-08-25T14:28:24Z</time>
      </trkpt>
      <trkpt lat="57.554910024628043" lon="-5.414803996682167">
        <ele>81.370000000000005</ele>
        <time>2023-08-25T14:28:25Z</time>
      </trkpt>
      <trkpt lat="57.55479896441102" lon="-5.414994014427066">
        <ele>80.890000000000001</ele>
        <time>2023-08-25T14:28:26Z</time>
      </trkpt>
      <trkpt lat="57.554596038535237" lon="-5.415341025218368">
        <ele>80.890000000000001</ele>
        <time>2023-08-25T14:28:28Z</time>
      </trkpt>
      <trkpt lat="57.554511968046427" lon="-5.415485026314855">
        <ele>80.409999999999997</ele>
        <time>2023-08-25T14:28:29Z</time>
      </trkpt>
      <trkpt lat="57.554472992196679" lon="-5.415630033239722">
        <ele>80.409999999999997</ele>
        <time>2023-08-25T14:28:30Z</time>
      </trkpt>
      <trkpt lat="57.554443990811706" lon="-5.415769005194306">
        <ele>79.930000000000007</ele>
        <time>2023-08-25T14:28:31Z</time>
      </trkpt>
      <trkpt lat="57.554421024397016" lon="-5.415880987420678">
        <ele>79.930000000000007</ele>
        <time>2023-08-25T14:28:32Z</time>
      </trkpt>
      <trkpt lat="57.554403003305197" lon="-5.415966985747218">
        <ele>79.930000000000007</ele>
        <time>2023-08-25T14:28:33Z</time>
      </trkpt>
      <trkpt lat="57.554386993870139" lon="-5.416043009608984">
        <ele>79.450000000000003</ele>
        <time>2023-08-25T14:28:34Z</time>
      </trkpt>
      <trkpt lat="57.554366961121559" lon="-5.416137976571918">
        <ele>79.450000000000003</ele>
        <time>2023-08-25T14:28:35Z</time>
      </trkpt>
      <trkpt lat="57.554339971393347" lon="-5.416266974061728">
        <ele>79.450000000000003</ele>
        <time>2023-08-25T14:28:36Z</time>
      </trkpt>
      <trkpt lat="57.554305018857121" lon="-5.416433019563556">
        <ele>79.450000000000003</ele>
        <time>2023-08-25T14:28:37Z</time>
      </trkpt>
      <trkpt lat="57.554265037178993" lon="-5.416627982631326">
        <ele>79.450000000000003</ele>
        <time>2023-08-25T14:28:38Z</time>
      </trkpt>
      <trkpt lat="57.554222038015723" lon="-5.416831998154521">
        <ele>79.450000000000003</ele>
        <time>2023-08-25T14:28:39Z</time>
      </trkpt>
      <trkpt lat="57.554176021367311" lon="-5.417020004242659">
        <ele>79.450000000000003</ele>
        <time>2023-08-25T14:28:40Z</time>
      </trkpt>
      <trkpt lat="57.554123969748616" lon="-5.417192000895739">
        <ele>78.969999999999999</ele>
        <time>2023-08-25T14:28:41Z</time>
      </trkpt>
      <trkpt lat="57.554072001948953" lon="-5.417368020862341">
        <ele>78.480000000000004</ele>
        <time>2023-08-25T14:28:42Z</time>
      </trkpt>
      <trkpt lat="57.553501026704907" lon="-5.419074995443225">
        <ele>77.519999999999996</ele>
        <time>2023-08-25T14:28:50Z</time>
      </trkpt>
      <trkpt lat="57.553460961207747" lon="-5.419351011514664">
        <ele>77.040000000000006</ele>
        <time>2023-08-25T14:28:51Z</time>
      </trkpt>
      <trkpt lat="57.553302040323615" lon="-5.420261034741998">
        <ele>76.560000000000002</ele>
        <time>2023-08-25T14:28:54Z</time>
      </trkpt>
      <trkpt lat="57.553222998976707" lon="-5.420563034713268">
        <ele>76.560000000000002</ele>
        <time>2023-08-25T14:28:55Z</time>
      </trkpt>
      <trkpt lat="57.553039016202092" lon="-5.421258984133601">
        <ele>76.079999999999998</ele>
        <time>2023-08-25T14:28:58Z</time>
      </trkpt>
      <trkpt lat="57.553053013980389" lon="-5.421561989933252">
        <ele>76.079999999999998</ele>
        <time>2023-08-25T14:28:59Z</time>
      </trkpt>
      <trkpt lat="57.553062988445163" lon="-5.421742033213377">
        <ele>76.079999999999998</ele>
        <time>2023-08-25T14:29:00Z</time>
      </trkpt>
      <trkpt lat="57.553433971479535" lon="-5.423528971150518">
        <ele>74.159999999999997</ele>
        <time>2023-08-25T14:29:07Z</time>
      </trkpt>
      <trkpt lat="57.553463978692889" lon="-5.423832982778549">
        <ele>73.680000000000007</ele>
        <time>2023-08-25T14:29:08Z</time>
      </trkpt>
      <trkpt lat="57.55348501726985" lon="-5.424141017720103">
        <ele>73.680000000000007</ele>
        <time>2023-08-25T14:29:09Z</time>
      </trkpt>
      <trkpt lat="57.553458027541637" lon="-5.424433965235949">
        <ele>73.680000000000007</ele>
        <time>2023-08-25T14:29:10Z</time>
      </trkpt>
      <trkpt lat="57.553430031985044" lon="-5.424729008227587">
        <ele>73.200000000000003</ele>
        <time>2023-08-25T14:29:11Z</time>
      </trkpt>
      <trkpt lat="57.553402036428452" lon="-5.425034025683999">
        <ele>73.200000000000003</ele>
        <time>2023-08-25T14:29:12Z</time>
      </trkpt>
      <trkpt lat="57.553085032850504" lon="-5.427423035725951">
        <ele>71.269999999999996</ele>
        <time>2023-08-25T14:29:20Z</time>
      </trkpt>
      <trkpt lat="57.55305896513164" lon="-5.427706008777022">
        <ele>70.790000000000006</ele>
        <time>2023-08-25T14:29:21Z</time>
      </trkpt>
      <trkpt lat="57.553128032013774" lon="-5.430357037112117">
        <ele>67.909999999999997</ele>
        <time>2023-08-25T14:29:29Z</time>
      </trkpt>
      <trkpt lat="57.553513012826443" lon="-5.433293972164393">
        <ele>65.030000000000001</ele>
        <time>2023-08-25T14:29:38Z</time>
      </trkpt>
      <trkpt lat="57.553499015048146" lon="-5.434570033103228">
        <ele>65.989999999999995</ele>
        <time>2023-08-25T14:29:42Z</time>
      </trkpt>
      <trkpt lat="57.553469007834792" lon="-5.434888964518905">
        <ele>65.989999999999995</ele>
        <time>2023-08-25T14:29:43Z</time>
      </trkpt>
      <trkpt lat="57.553409999236465" lon="-5.435194987803698">
        <ele>66.469999999999999</ele>
        <time>2023-08-25T14:29:44Z</time>
      </trkpt>
      <trkpt lat="57.553354008123279" lon="-5.435491036623716">
        <ele>66.469999999999999</ele>
        <time>2023-08-25T14:29:45Z</time>
      </trkpt>
      <trkpt lat="57.553300028666854" lon="-5.435773003846407">
        <ele>66.469999999999999</ele>
        <time>2023-08-25T14:29:46Z</time>
      </trkpt>
      <trkpt lat="57.553155021741986" lon="-5.436530979350209">
        <ele>65.989999999999995</ele>
        <time>2023-08-25T14:29:49Z</time>
      </trkpt>
      <trkpt lat="57.553125014528632" lon="-5.436753015965223">
        <ele>65.510000000000005</ele>
        <time>2023-08-25T14:29:50Z</time>
      </trkpt>
      <trkpt lat="57.553125014528632" lon="-5.43698200955987">
        <ele>65.030000000000001</ele>
        <time>2023-08-25T14:29:51Z</time>
      </trkpt>
      <trkpt lat="57.553162984549999" lon="-5.437201028689742">
        <ele>65.030000000000001</ele>
        <time>2023-08-25T14:29:52Z</time>
      </trkpt>
      <trkpt lat="57.553205983713269" lon="-5.43743597343564">
        <ele>64.549999999999997</ele>
        <time>2023-08-25T14:29:53Z</time>
      </trkpt>
      <trkpt lat="57.55324998870492" lon="-5.437681982293725">
        <ele>64.549999999999997</ele>
        <time>2023-08-25T14:29:54Z</time>
      </trkpt>
      <trkpt lat="57.553284019231796" lon="-5.437941988930106">
        <ele>64.069999999999993</ele>
        <time>2023-08-25T14:29:55Z</time>
      </trkpt>
      <trkpt lat="57.553303968161345" lon="-5.438204007223249">
        <ele>64.069999999999993</ele>
        <time>2023-08-25T14:29:56Z</time>
      </trkpt>
      <trkpt lat="57.553307991474867" lon="-5.438477005809546">
        <ele>63.579999999999998</ele>
        <time>2023-08-25T14:29:57Z</time>
      </trkpt>
      <trkpt lat="57.553279995918274" lon="-5.438753021880984">
        <ele>63.579999999999998</ele>
        <time>2023-08-25T14:29:58Z</time>
      </trkpt>
      <trkpt lat="57.553247977048159" lon="-5.439041024073958">
        <ele>63.100000000000001</ele>
        <time>2023-08-25T14:29:59Z</time>
      </trkpt>
      <trkpt lat="57.553199026733637" lon="-5.439329026266933">
        <ele>63.100000000000001</ele>
        <time>2023-08-25T14:30:00Z</time>
      </trkpt>
      <trkpt lat="57.552726035937667" lon="-5.442345002666116">
        <ele>62.140000000000001</ele>
        <time>2023-08-25T14:30:10Z</time>
      </trkpt>
      <trkpt lat="57.552712960168719" lon="-5.442630993202329">
        <ele>62.140000000000001</ele>
        <time>2023-08-25T14:30:11Z</time>
      </trkpt>
      <trkpt lat="57.552587985992432" lon="-5.445573041215539">
        <ele>61.659999999999997</ele>
        <time>2023-08-25T14:30:20Z</time>
      </trkpt>
      <trkpt lat="57.552634002640843" lon="-5.448839971795678">
        <ele>61.18</ele>
        <time>2023-08-25T14:30:29Z</time>
      </trkpt>
      <trkpt lat="57.552634002640843" lon="-5.452200025320053">
        <ele>60.219999999999999</ele>
        <time>2023-08-25T14:30:39Z</time>
      </trkpt>
      <trkpt lat="57.552683958783746" lon="-5.452894968912005">
        <ele>59.740000000000002</ele>
        <time>2023-08-25T14:30:43Z</time>
      </trkpt>
      <trkpt lat="57.552707009017467" lon="-5.453064031898975">
        <ele>60.219999999999999</ele>
        <time>2023-08-25T14:30:45Z</time>
      </trkpt>
      <trkpt lat="57.552722012624145" lon="-5.453162016347051">
        <ele>60.219999999999999</ele>
        <time>2023-08-25T14:30:46Z</time>
      </trkpt>
      <trkpt lat="57.552752019837499" lon="-5.45326603576541">
        <ele>60.219999999999999</ele>
        <time>2023-08-25T14:30:47Z</time>
      </trkpt>
      <trkpt lat="57.552830977365375" lon="-5.453542973846197">
        <ele>58.780000000000001</ele>
        <time>2023-08-25T14:30:49Z</time>
      </trkpt>
      <trkpt lat="57.552880011498928" lon="-5.453714970499277">
        <ele>58.780000000000001</ele>
        <time>2023-08-25T14:30:50Z</time>
      </trkpt>
      <trkpt lat="57.552931979298592" lon="-5.453897025436163">
        <ele>58.780000000000001</ele>
        <time>2023-08-25T14:30:51Z</time>
      </trkpt>
      <trkpt lat="57.552931979298592" lon="-5.454117972403765">
        <ele>58.780000000000001</ele>
        <time>2023-08-25T14:30:52Z</time>
      </trkpt>
      <trkpt lat="57.552931979298592" lon="-5.454340009018779">
        <ele>58.299999999999997</ele>
        <time>2023-08-25T14:30:53Z</time>
      </trkpt>
      <trkpt lat="57.552909012883902" lon="-5.45453698374331">
        <ele>58.780000000000001</ele>
        <time>2023-08-25T14:30:54Z</time>
      </trkpt>
      <trkpt lat="57.552875988185406" lon="-5.454733958467841">
        <ele>58.780000000000001</ele>
        <time>2023-08-25T14:30:55Z</time>
      </trkpt>
      <trkpt lat="57.552629979327321" lon="-5.455982023850083">
        <ele>58.780000000000001</ele>
        <time>2023-08-25T14:31:03Z</time>
      </trkpt>
      <trkpt lat="57.552377013489604" lon="-5.457635018974543">
        <ele>58.299999999999997</ele>
        <time>2023-08-25T14:31:10Z</time>
      </trkpt>
      <trkpt lat="57.552276011556387" lon="-5.45812301337719">
        <ele>57.82</ele>
        <time>2023-08-25T14:31:12Z</time>
      </trkpt>
      <trkpt lat="57.552194036543369" lon="-5.458305990323424">
        <ele>57.82</ele>
        <time>2023-08-25T14:31:13Z</time>
      </trkpt>
      <trkpt lat="57.552103009074926" lon="-5.458482010290027">
        <ele>57.82</ele>
        <time>2023-08-25T14:31:14Z</time>
      </trkpt>
      <trkpt lat="57.552010975778103" lon="-5.45865903608501">
        <ele>57.82</ele>
        <time>2023-08-25T14:31:15Z</time>
      </trkpt>
      <trkpt lat="57.551911985501647" lon="-5.458800019696355">
        <ele>57.340000000000003</ele>
        <time>2023-08-25T14:31:16Z</time>
      </trkpt>
      <trkpt lat="57.551791034638882" lon="-5.45892097055912">
        <ele>57.340000000000003</ele>
        <time>2023-08-25T14:31:17Z</time>
      </trkpt>
      <trkpt lat="57.551667988300323" lon="-5.459040999412537">
        <ele>56.859999999999999</ele>
        <time>2023-08-25T14:31:18Z</time>
      </trkpt>
      <trkpt lat="57.551280995830894" lon="-5.459368983283639">
        <ele>56.859999999999999</ele>
        <time>2023-08-25T14:31:21Z</time>
      </trkpt>
      <trkpt lat="57.551149986684322" lon="-5.45947995968163">
        <ele>57.340000000000003</ele>
        <time>2023-08-25T14:31:22Z</time>
      </trkpt>
      <trkpt lat="57.550282962620258" lon="-5.460405992344022">
        <ele>59.259999999999998</ele>
        <time>2023-08-25T14:31:29Z</time>
      </trkpt>
      <trkpt lat="57.550192018970847" lon="-5.460569020360708">
        <ele>59.740000000000002</ele>
        <time>2023-08-25T14:31:30Z</time>
      </trkpt>
      <trkpt lat="57.550107026472688" lon="-5.460730036720634">
        <ele>60.219999999999999</ele>
        <time>2023-08-25T14:31:31Z</time>
      </trkpt>
      <trkpt lat="57.549922959879041" lon="-5.461077969521284">
        <ele>60.700000000000003</ele>
        <time>2023-08-25T14:31:33Z</time>
      </trkpt>
      <trkpt lat="57.549827992916107" lon="-5.461256001144648">
        <ele>61.18</ele>
        <time>2023-08-25T14:31:34Z</time>
      </trkpt>
      <trkpt lat="57.549524987116456" lon="-5.461865030229092">
        <ele>62.619999999999997</ele>
        <time>2023-08-25T14:31:39Z</time>
      </trkpt>
      <trkpt lat="57.549165990203619" lon="-5.462619988247752">
        <ele>62.619999999999997</ele>
        <time>2023-08-25T14:31:44Z</time>
      </trkpt>
      <trkpt lat="57.548288991674781" lon="-5.464845970273018">
        <ele>58.299999999999997</ele>
        <time>2023-08-25T14:31:53Z</time>
      </trkpt>
      <trkpt lat="57.547076968476176" lon="-5.468571977689862">
        <ele>49.649999999999999</ele>
        <time>2023-08-25T14:32:05Z</time>
      </trkpt>
      <trkpt lat="57.545671993866563" lon="-5.472327992320061">
        <ele>41.950000000000003</ele>
        <time>2023-08-25T14:32:17Z</time>
      </trkpt>
      <trkpt lat="57.544777980074286" lon="-5.474108979105949">
        <ele>38.109999999999999</ele>
        <time>2023-08-25T14:32:24Z</time>
      </trkpt>
      <trkpt lat="57.544635990634561" lon="-5.474292961880565">
        <ele>37.630000000000003</ele>
        <time>2023-08-25T14:32:25Z</time>
      </trkpt>
      <trkpt lat="57.544480003416538" lon="-5.474439980462194">
        <ele>37.149999999999999</ele>
        <time>2023-08-25T14:32:26Z</time>
      </trkpt>
      <trkpt lat="57.543338974937797" lon="-5.47576499171555">
        <ele>34.259999999999998</ele>
        <time>2023-08-25T14:32:34Z</time>
      </trkpt>
      <trkpt lat="57.543254988268018" lon="-5.475933970883489">
        <ele>34.259999999999998</ele>
        <time>2023-08-25T14:32:35Z</time>
      </trkpt>
      <trkpt lat="57.543210983276367" lon="-5.476176962256432">
        <ele>33.780000000000001</ele>
        <time>2023-08-25T14:32:36Z</time>
      </trkpt>
      <trkpt lat="57.543165972456336" lon="-5.47643001191318">
        <ele>33.780000000000001</ele>
        <time>2023-08-25T14:32:37Z</time>
      </trkpt>
      <trkpt lat="57.543131019920111" lon="-5.476704016327858">
        <ele>33.299999999999997</ele>
        <time>2023-08-25T14:32:38Z</time>
      </trkpt>
      <trkpt lat="57.543103024363518" lon="-5.47698799520731">
        <ele>33.299999999999997</ele>
        <time>2023-08-25T14:32:39Z</time>
      </trkpt>
      <trkpt lat="57.543048961088061" lon="-5.477552013471723">
        <ele>32.82</ele>
        <time>2023-08-25T14:32:41Z</time>
      </trkpt>
      <trkpt lat="57.543020965531468" lon="-5.477840015664697">
        <ele>32.340000000000003</ele>
        <time>2023-08-25T14:32:42Z</time>
      </trkpt>
      <trkpt lat="57.542941002175212" lon="-5.478116031736136">
        <ele>31.859999999999999</ele>
        <time>2023-08-25T14:32:43Z</time>
      </trkpt>
      <trkpt lat="57.542858021333814" lon="-5.478387018665671">
        <ele>31.379999999999999</ele>
        <time>2023-08-25T14:32:44Z</time>
      </trkpt>
      <trkpt lat="57.542754001915455" lon="-5.478646019473672">
        <ele>30.899999999999999</ele>
        <time>2023-08-25T14:32:45Z</time>
      </trkpt>
      <trkpt lat="57.541551031172276" lon="-5.481701977550983">
        <ele>26.57</ele>
        <time>2023-08-25T14:32:56Z</time>
      </trkpt>
      <trkpt lat="57.54145598039031" lon="-5.481998026371002">
        <ele>26.57</ele>
        <time>2023-08-25T14:32:57Z</time>
      </trkpt>
      <trkpt lat="57.540762964636087" lon="-5.484737986698747">
        <ele>25.129999999999999</ele>
        <time>2023-08-25T14:33:06Z</time>
      </trkpt>
      <trkpt lat="57.540442021563649" lon="-5.487155998125672">
        <ele>20.32</ele>
        <time>2023-08-25T14:33:14Z</time>
      </trkpt>
      <trkpt lat="57.54050899296999" lon="-5.488866996020079">
        <ele>15.52</ele>
        <time>2023-08-25T14:33:20Z</time>
      </trkpt>
      <trkpt lat="57.541036969050765" lon="-5.491978023201227">
        <ele>13.6</ele>
        <time>2023-08-25T14:33:30Z</time>
      </trkpt>
      <trkpt lat="57.541342992335558" lon="-5.494719995185733">
        <ele>11.67</ele>
        <time>2023-08-25T14:33:38Z</time>
      </trkpt>
      <trkpt lat="57.541816988959908" lon="-5.497777964919806">
        <ele>8.789999999999999</ele>
        <time>2023-08-25T14:33:47Z</time>
      </trkpt>
      <trkpt lat="57.541980016976595" lon="-5.498280040919781">
        <ele>8.310000000000001</ele>
        <time>2023-08-25T14:33:50Z</time>
      </trkpt>
      <trkpt lat="57.54201203584671" lon="-5.498380959033966">
        <ele>8.310000000000001</ele>
        <time>2023-08-25T14:33:51Z</time>
      </trkpt>
      <trkpt lat="57.542331973090768" lon="-5.499374968931079">
        <ele>6.39</ele>
        <time>2023-08-25T14:33:57Z</time>
      </trkpt>
      <trkpt lat="57.542715026065707" lon="-5.500791007652879">
        <ele>5.42</ele>
        <time>2023-08-25T14:34:04Z</time>
      </trkpt>
      <trkpt lat="57.542749978601933" lon="-5.501012038439512">
        <ele>5.42</ele>
        <time>2023-08-25T14:34:05Z</time>
      </trkpt>
      <trkpt lat="57.542756013572216" lon="-5.501239020377398">
        <ele>5.91</ele>
        <time>2023-08-25T14:34:06Z</time>
      </trkpt>
      <trkpt lat="57.542746961116791" lon="-5.501480000093579">
        <ele>5.91</ele>
        <time>2023-08-25T14:34:07Z</time>
      </trkpt>
      <trkpt lat="57.542735980823636" lon="-5.501725003123283">
        <ele>5.91</ele>
        <time>2023-08-25T14:34:08Z</time>
      </trkpt>
      <trkpt lat="57.542691975831985" lon="-5.501960031688213">
        <ele>5.91</ele>
        <time>2023-08-25T14:34:09Z</time>
      </trkpt>
      <trkpt lat="57.542647970840335" lon="-5.502196988090873">
        <ele>5.91</ele>
        <time>2023-08-25T14:34:10Z</time>
      </trkpt>
      <trkpt lat="57.542573036625981" lon="-5.502418018877506">
        <ele>5.91</ele>
        <time>2023-08-25T14:34:11Z</time>
      </trkpt>
      <trkpt lat="57.542486032471061" lon="-5.502615999430418">
        <ele>5.42</ele>
        <time>2023-08-25T14:34:12Z</time>
      </trkpt>
      <trkpt lat="57.542391987517476" lon="-5.502824960276485">
        <ele>5.42</ele>
        <time>2023-08-25T14:34:13Z</time>
      </trkpt>
      <trkpt lat="57.54227003082633" lon="-5.502962004393339">
        <ele>4.94</ele>
        <time>2023-08-25T14:34:14Z</time>
      </trkpt>
      <trkpt lat="57.542139021679759" lon="-5.50307298079133">
        <ele>4.94</ele>
        <time>2023-08-25T14:34:15Z</time>
      </trkpt>
      <trkpt lat="57.542001977562904" lon="-5.503169959411025">
        <ele>4.94</ele>
        <time>2023-08-25T14:34:16Z</time>
      </trkpt>
      <trkpt lat="57.54186199977994" lon="-5.503269033506513">
        <ele>4.94</ele>
        <time>2023-08-25T14:34:17Z</time>
      </trkpt>
      <trkpt lat="57.541721016168594" lon="-5.503368023782969">
        <ele>4.94</ele>
        <time>2023-08-25T14:34:18Z</time>
      </trkpt>
      <trkpt lat="57.541572991758585" lon="-5.503451004624367">
        <ele>4.94</ele>
        <time>2023-08-25T14:34:19Z</time>
      </trkpt>
      <trkpt lat="57.539421021938324" lon="-5.504365973174572">
        <ele>3.02</ele>
        <time>2023-08-25T14:34:32Z</time>
      </trkpt>
      <trkpt lat="57.537163021042943" lon="-5.505140963941813">
        <ele>3.02</ele>
        <time>2023-08-25T14:34:46Z</time>
      </trkpt>
      <trkpt lat="57.53670796751976" lon="-5.50536802969873">
        <ele>2.54</ele>
        <time>2023-08-25T14:34:49Z</time>
      </trkpt>
      <trkpt lat="57.536537982523441" lon="-5.505458973348141">
        <ele>2.54</ele>
        <time>2023-08-25T14:34:50Z</time>
      </trkpt>
      <trkpt lat="57.53541799262166" lon="-5.506417024880648">
        <ele>4.94</ele>
        <time>2023-08-25T14:34:58Z</time>
      </trkpt>
      <trkpt lat="57.534187026321888" lon="-5.506867971271277">
        <ele>5.42</ele>
        <time>2023-08-25T14:35:06Z</time>
      </trkpt>
      <trkpt lat="57.534054005518556" lon="-5.506979031488299">
        <ele>5.42</ele>
        <time>2023-08-25T14:35:07Z</time>
      </trkpt>
      <trkpt lat="57.5339359883219" lon="-5.507161002606154">
        <ele>5.42</ele>
        <time>2023-08-25T14:35:08Z</time>
      </trkpt>
      <trkpt lat="57.533830041065812" lon="-5.507372980937362">
        <ele>4.94</ele>
        <time>2023-08-25T14:35:09Z</time>
      </trkpt>
      <trkpt lat="57.533729039132595" lon="-5.507595017552376">
        <ele>4.94</ele>
        <time>2023-08-25T14:35:10Z</time>
      </trkpt>
      <trkpt lat="57.533630970865488" lon="-5.507813030853868">
        <ele>4.94</ele>
        <time>2023-08-25T14:35:11Z</time>
      </trkpt>
      <trkpt lat="57.533573973923922" lon="-5.508058033883572">
        <ele>5.42</ele>
        <time>2023-08-25T14:35:12Z</time>
      </trkpt>
      <trkpt lat="57.533538015559316" lon="-5.508319968357682">
        <ele>5.42</ele>
        <time>2023-08-25T14:35:13Z</time>
      </trkpt>
      <trkpt lat="57.533502979204059" lon="-5.508570000529289">
        <ele>5.91</ele>
        <time>2023-08-25T14:35:14Z</time>
      </trkpt>
      <trkpt lat="57.533490993082523" lon="-5.508807962760329">
        <ele>5.42</ele>
        <time>2023-08-25T14:35:15Z</time>
      </trkpt>
      <trkpt lat="57.533490993082523" lon="-5.509081967175007">
        <ele>5.42</ele>
        <time>2023-08-25T14:35:16Z</time>
      </trkpt>
      <trkpt lat="57.533490993082523" lon="-5.509367035701871">
        <ele>5.42</ele>
        <time>2023-08-25T14:35:17Z</time>
      </trkpt>
      <trkpt lat="57.533499039709568" lon="-5.509653026238084">
        <ele>4.94</ele>
        <time>2023-08-25T14:35:18Z</time>
      </trkpt>
      <trkpt lat="57.533662989735603" lon="-5.511564016342163">
        <ele>3.02</ele>
        <time>2023-08-25T14:35:26Z</time>
      </trkpt>
      <trkpt lat="57.533663995563984" lon="-5.51200901158154">
        <ele>3.02</ele>
        <time>2023-08-25T14:35:28Z</time>
      </trkpt>
      <trkpt lat="57.533637005835772" lon="-5.512225013226271">
        <ele>3.02</ele>
        <time>2023-08-25T14:35:29Z</time>
      </trkpt>
      <trkpt lat="57.533609010279179" lon="-5.512442020699382">
        <ele>3.02</ele>
        <time>2023-08-25T14:35:30Z</time>
      </trkpt>
      <trkpt lat="57.533582020550966" lon="-5.512656010687351">
        <ele>3.02</ele>
        <time>2023-08-25T14:35:31Z</time>
      </trkpt>
      <trkpt lat="57.533522006124258" lon="-5.512852985411882">
        <ele>3.02</ele>
        <time>2023-08-25T14:35:32Z</time>
      </trkpt>
      <trkpt lat="57.533452017232776" lon="-5.513054989278317">
        <ele>3.02</ele>
        <time>2023-08-25T14:35:33Z</time>
      </trkpt>
      <trkpt lat="57.533315978944302" lon="-5.513453967869282">
        <ele>3.02</ele>
        <time>2023-08-25T14:35:35Z</time>
      </trkpt>
      <trkpt lat="57.532563032582402" lon="-5.51514501683414">
        <ele>3.02</ele>
        <time>2023-08-25T14:35:44Z</time>
      </trkpt>
      <trkpt lat="57.532505029812455" lon="-5.515363030135632">
        <ele>3.02</ele>
        <time>2023-08-25T14:35:45Z</time>
      </trkpt>
      <trkpt lat="57.532040001824498" lon="-5.517369993031025">
        <ele>2.54</ele>
        <time>2023-08-25T14:35:54Z</time>
      </trkpt>
      <trkpt lat="57.531904969364405" lon="-5.517782969400287">
        <ele>2.54</ele>
        <time>2023-08-25T14:35:56Z</time>
      </trkpt>
      <trkpt lat="57.531832968816161" lon="-5.517977010458708">
        <ele>2.54</ele>
        <time>2023-08-25T14:35:57Z</time>
      </trkpt>
      <trkpt lat="57.531265011057258" lon="-5.51892600953579">
        <ele>4.46</ele>
        <time>2023-08-25T14:36:03Z</time>
      </trkpt>
      <trkpt lat="57.530698981136084" lon="-5.52047498524189">
        <ele>5.42</ele>
        <time>2023-08-25T14:36:10Z</time>
      </trkpt>
      <trkpt lat="57.529817037284374" lon="-5.523434970527887">
        <ele>3.5</ele>
        <time>2023-08-25T14:36:21Z</time>
      </trkpt>
      <trkpt lat="57.52957102842629" lon="-5.524209039285779">
        <ele>2.54</ele>
        <time>2023-08-25T14:36:24Z</time>
      </trkpt>
      <trkpt lat="57.529471032321453" lon="-5.524430992081761">
        <ele>2.06</ele>
        <time>2023-08-25T14:36:25Z</time>
      </trkpt>
      <trkpt lat="57.529152017086744" lon="-5.5248779989779">
        <ele>1.58</ele>
        <time>2023-08-25T14:36:28Z</time>
      </trkpt>
      <trkpt lat="57.529030982404947" lon="-5.524989981204271">
        <ele>1.1</ele>
        <time>2023-08-25T14:36:29Z</time>
      </trkpt>
      <trkpt lat="57.528901984915137" lon="-5.525110010057688">
        <ele>0.14</ele>
        <time>2023-08-25T14:36:30Z</time>
      </trkpt>
      <trkpt lat="57.528621023520827" lon="-5.525370016694069">
        <ele>-0.82</ele>
        <time>2023-08-25T14:36:32Z</time>
      </trkpt>
      <trkpt lat="57.527526011690497" lon="-5.526519007980824">
        <ele>2.06</ele>
        <time>2023-08-25T14:36:40Z</time>
      </trkpt>
      <trkpt lat="57.527413023635745" lon="-5.526697961613536">
        <ele>2.54</ele>
        <time>2023-08-25T14:36:41Z</time>
      </trkpt>
      <trkpt lat="57.527314033359289" lon="-5.526906000450254">
        <ele>3.5</ele>
        <time>2023-08-25T14:36:42Z</time>
      </trkpt>
      <trkpt lat="57.52722904086113" lon="-5.527116972953081">
        <ele>4.46</ele>
        <time>2023-08-25T14:36:43Z</time>
      </trkpt>
      <trkpt lat="57.527168020606041" lon="-5.527354013174772">
        <ele>5.42</ele>
        <time>2023-08-25T14:36:44Z</time>
      </trkpt>
      <trkpt lat="57.527104988694191" lon="-5.527594992890954">
        <ele>6.39</ele>
        <time>2023-08-25T14:36:45Z</time>
      </trkpt>
      <trkpt lat="57.527066012844443" lon="-5.527849970385432">
        <ele>7.35</ele>
        <time>2023-08-25T14:36:46Z</time>
      </trkpt>
      <trkpt lat="57.527047991752625" lon="-5.528116011992097">
        <ele>7.83</ele>
        <time>2023-08-25T14:36:47Z</time>
      </trkpt>
      <trkpt lat="57.527034999802709" lon="-5.528378030285239">
        <ele>9.27</ele>
        <time>2023-08-25T14:36:48Z</time>
      </trkpt>
      <trkpt lat="57.527068024501204" lon="-5.528635019436479">
        <ele>10.710000000000001</ele>
        <time>2023-08-25T14:36:49Z</time>
      </trkpt>
      <trkpt lat="57.527116974815726" lon="-5.528892008587718">
        <ele>11.67</ele>
        <time>2023-08-25T14:36:50Z</time>
      </trkpt>
      <trkpt lat="57.527172965928912" lon="-5.52915302105248">
        <ele>12.15</ele>
        <time>2023-08-25T14:36:51Z</time>
      </trkpt>
      <trkpt lat="57.527247983962297" lon="-5.529401963576675">
        <ele>13.119999999999999</ele>
        <time>2023-08-25T14:36:52Z</time>
      </trkpt>
      <trkpt lat="57.527348985895514" lon="-5.529639003798366">
        <ele>14.08</ele>
        <time>2023-08-25T14:36:53Z</time>
      </trkpt>
      <trkpt lat="57.527878973633051" lon="-5.531009025871754">
        <ele>16</ele>
        <time>2023-08-25T14:36:59Z</time>
      </trkpt>
      <trkpt lat="57.527981987223029" lon="-5.531564997509122">
        <ele>16</ele>
        <time>2023-08-25T14:37:01Z</time>
      </trkpt>
      <trkpt lat="57.527965977787971" lon="-5.532795041799545">
        <ele>15.52</ele>
        <time>2023-08-25T14:37:05Z</time>
      </trkpt>
      <trkpt lat="57.527927001938224" lon="-5.533097963780165">
        <ele>15.52</ele>
        <time>2023-08-25T14:37:06Z</time>
      </trkpt>
      <trkpt lat="57.527804039418697" lon="-5.534047968685627">
        <ele>16</ele>
        <time>2023-08-25T14:37:09Z</time>
      </trkpt>
      <trkpt lat="57.527671018615365" lon="-5.537069980055094">
        <ele>21.77</ele>
        <time>2023-08-25T14:37:18Z</time>
      </trkpt>
      <trkpt lat="57.527600023895502" lon="-5.540273962542415">
        <ele>24.170000000000002</ele>
        <time>2023-08-25T14:37:27Z</time>
      </trkpt>
      <trkpt lat="57.527827005833387" lon="-5.542872017249465">
        <ele>37.149999999999999</ele>
        <time>2023-08-25T14:37:35Z</time>
      </trkpt>
      <trkpt lat="57.527827005833387" lon="-5.543461013585329">
        <ele>44.840000000000003</ele>
        <time>2023-08-25T14:37:37Z</time>
      </trkpt>
      <trkpt lat="57.527623996138573" lon="-5.545748015865684">
        <ele>65.510000000000005</ele>
        <time>2023-08-25T14:37:44Z</time>
      </trkpt>
      <trkpt lat="57.527627013623714" lon="-5.546376993879676">
        <ele>69.349999999999994</ele>
        <time>2023-08-25T14:37:46Z</time>
      </trkpt>
      <trkpt lat="57.527668001130223" lon="-5.54668502882123">
        <ele>71.269999999999996</ele>
        <time>2023-08-25T14:37:47Z</time>
      </trkpt>
      <trkpt lat="57.527741007506847" lon="-5.546960961073637">
        <ele>73.200000000000003</ele>
        <time>2023-08-25T14:37:48Z</time>
      </trkpt>
      <trkpt lat="57.528554974123836" lon="-5.549334967508912">
        <ele>83.290000000000006</ele>
        <time>2023-08-25T14:37:56Z</time>
      </trkpt>
      <trkpt lat="57.528704004362226" lon="-5.549947014078498">
        <ele>85.209999999999994</ele>
        <time>2023-08-25T14:37:58Z</time>
      </trkpt>
      <trkpt lat="57.528753038495779" lon="-5.550239961594343">
        <ele>86.180000000000007</ele>
        <time>2023-08-25T14:37:59Z</time>
      </trkpt>
      <trkpt lat="57.528794026002288" lon="-5.550520000979304">
        <ele>87.140000000000001</ele>
        <time>2023-08-25T14:38:00Z</time>
      </trkpt>
      <trkpt lat="57.528807017952204" lon="-5.550809009000659">
        <ele>88.099999999999994</ele>
        <time>2023-08-25T14:38:01Z</time>
      </trkpt>
      <trkpt lat="57.528805006295443" lon="-5.551096005365253">
        <ele>89.060000000000002</ele>
        <time>2023-08-25T14:38:02Z</time>
      </trkpt>
      <trkpt lat="57.528786985203624" lon="-5.55138903670013">
        <ele>90.5</ele>
        <time>2023-08-25T14:38:03Z</time>
      </trkpt>
      <trkpt lat="57.528763012960553" lon="-5.551694976165891">
        <ele>90.980000000000004</ele>
        <time>2023-08-25T14:38:04Z</time>
      </trkpt>
      <trkpt lat="57.528704004362226" lon="-5.552003011107445">
        <ele>91.459999999999994</ele>
        <time>2023-08-25T14:38:05Z</time>
      </trkpt>
      <trkpt lat="57.528641978278756" lon="-5.552316997200251">
        <ele>91.459999999999994</ele>
        <time>2023-08-25T14:38:06Z</time>
      </trkpt>
      <trkpt lat="57.528558997437358" lon="-5.552624026313424">
        <ele>91.459999999999994</ele>
        <time>2023-08-25T14:38:07Z</time>
      </trkpt>
      <trkpt lat="57.528463024646044" lon="-5.552926026284695">
        <ele>91.459999999999994</ele>
        <time>2023-08-25T14:38:08Z</time>
      </trkpt>
      <trkpt lat="57.528181979432702" lon="-5.553854992613196">
        <ele>93.390000000000001</ele>
        <time>2023-08-25T14:38:11Z</time>
      </trkpt>
      <trkpt lat="57.52811199054122" lon="-5.554173002019525">
        <ele>94.349999999999994</ele>
        <time>2023-08-25T14:38:12Z</time>
      </trkpt>
      <trkpt lat="57.528043007478118" lon="-5.554483970627189">
        <ele>95.310000000000002</ele>
        <time>2023-08-25T14:38:13Z</time>
      </trkpt>
      <trkpt lat="57.528020041063428" lon="-5.554822012782097">
        <ele>96.269999999999996</ele>
        <time>2023-08-25T14:38:14Z</time>
      </trkpt>
      <trkpt lat="57.527999002486467" lon="-5.555168017745018">
        <ele>96.75</ele>
        <time>2023-08-25T14:38:15Z</time>
      </trkpt>
      <trkpt lat="57.527977041900158" lon="-5.555521985515952">
        <ele>98.189999999999998</ele>
        <time>2023-08-25T14:38:16Z</time>
      </trkpt>
      <trkpt lat="57.527953991666436" lon="-5.555887017399073">
        <ele>99.150000000000006</ele>
        <time>2023-08-25T14:38:17Z</time>
      </trkpt>
      <trkpt lat="57.527564987540245" lon="-5.558698978275061">
        <ele>102.04000000000001</ele>
        <time>2023-08-25T14:38:25Z</time>
      </trkpt>
      <trkpt lat="57.527300035580993" lon="-5.560188023373485">
        <ele>97.230000000000004</ele>
        <time>2023-08-25T14:38:29Z</time>
      </trkpt>
      <trkpt lat="57.527263993397355" lon="-5.560588007792831">
        <ele>96.269999999999996</ele>
        <time>2023-08-25T14:38:30Z</time>
      </trkpt>
      <trkpt lat="57.527254018932581" lon="-5.56099503301084">
        <ele>94.829999999999998</ele>
        <time>2023-08-25T14:38:31Z</time>
      </trkpt>
      <trkpt lat="57.527267010882497" lon="-5.561386970803142">
        <ele>94.349999999999994</ele>
        <time>2023-08-25T14:38:32Z</time>
      </trkpt>
      <trkpt lat="57.527280002832413" lon="-5.561779998242855">
        <ele>93.870000000000005</ele>
        <time>2023-08-25T14:38:33Z</time>
      </trkpt>
      <trkpt lat="57.527301963418722" lon="-5.562180988490582">
        <ele>93.390000000000001</ele>
        <time>2023-08-25T14:38:34Z</time>
      </trkpt>
      <trkpt lat="57.527348985895514" lon="-5.56256596930325">
        <ele>93.390000000000001</ele>
        <time>2023-08-25T14:38:35Z</time>
      </trkpt>
      <trkpt lat="57.527637993916869" lon="-5.565412966534495">
        <ele>93.390000000000001</ele>
        <time>2023-08-25T14:38:43Z</time>
      </trkpt>
      <trkpt lat="57.527652997523546" lon="-5.565717983990908">
        <ele>93.390000000000001</ele>
        <time>2023-08-25T14:38:44Z</time>
      </trkpt>
      <trkpt lat="57.527641011402011" lon="-5.566011015325785">
        <ele>93.390000000000001</ele>
        <time>2023-08-25T14:38:45Z</time>
      </trkpt>
      <trkpt lat="57.527614021673799" lon="-5.566277978941798">
        <ele>93.870000000000005</ele>
        <time>2023-08-25T14:38:46Z</time>
      </trkpt>
      <trkpt lat="57.527559036388993" lon="-5.566537985578179">
        <ele>93.870000000000005</ele>
        <time>2023-08-25T14:38:47Z</time>
      </trkpt>
      <trkpt lat="57.527485024183989" lon="-5.566788017749786">
        <ele>93.870000000000005</ele>
        <time>2023-08-25T14:38:48Z</time>
      </trkpt>
      <trkpt lat="57.526913965120912" lon="-5.568587025627494">
        <ele>88.579999999999998</ele>
        <time>2023-08-25T14:38:56Z</time>
      </trkpt>
      <trkpt lat="57.52686602063477" lon="-5.56885801255703">
        <ele>87.620000000000005</ele>
        <time>2023-08-25T14:38:57Z</time>
      </trkpt>
      <trkpt lat="57.526813969016075" lon="-5.569147020578384">
        <ele>86.180000000000007</ele>
        <time>2023-08-25T14:38:58Z</time>
      </trkpt>
      <trkpt lat="57.526760995388031" lon="-5.569450026378036">
        <ele>84.730000000000004</ele>
        <time>2023-08-25T14:38:59Z</time>
      </trkpt>
      <trkpt lat="57.52675998955965" lon="-5.569786978885531">
        <ele>83.290000000000006</ele>
        <time>2023-08-25T14:39:00Z</time>
      </trkpt>
      <trkpt lat="57.526767030358315" lon="-5.570128038525581">
        <ele>81.370000000000005</ele>
        <time>2023-08-25T14:39:01Z</time>
      </trkpt>
      <trkpt lat="57.526773987337947" lon="-5.570472031831741">
        <ele>79.930000000000007</ele>
        <time>2023-08-25T14:39:02Z</time>
      </trkpt>
      <trkpt lat="57.526797037571669" lon="-5.57081300765276">
        <ele>78</ele>
        <time>2023-08-25T14:39:03Z</time>
      </trkpt>
      <trkpt lat="57.526912037283182" lon="-5.574074992910028">
        <ele>59.740000000000002</ele>
        <time>2023-08-25T14:39:12Z</time>
      </trkpt>
      <trkpt lat="57.52705997787416" lon="-5.577012011781335">
        <ele>49.159999999999997</ele>
        <time>2023-08-25T14:39:20Z</time>
      </trkpt>
      <trkpt lat="57.526882030069828" lon="-5.580004015937448">
        <ele>39.549999999999997</ele>
        <time>2023-08-25T14:39:28Z</time>
      </trkpt>
      <trkpt lat="57.526423959061503" lon="-5.582827040925622">
        <ele>36.670000000000002</ele>
        <time>2023-08-25T14:39:36Z</time>
      </trkpt>
      <trkpt lat="57.526367967948318" lon="-5.583154018968344">
        <ele>36.670000000000002</ele>
        <time>2023-08-25T14:39:37Z</time>
      </trkpt>
      <trkpt lat="57.526338966563344" lon="-5.583486026152968">
        <ele>37.149999999999999</ele>
        <time>2023-08-25T14:39:38Z</time>
      </trkpt>
      <trkpt lat="57.526325974613428" lon="-5.583833958953619">
        <ele>36.670000000000002</ele>
        <time>2023-08-25T14:39:39Z</time>
      </trkpt>
      <trkpt lat="57.526333015412092" lon="-5.584182981401682">
        <ele>36.670000000000002</ele>
        <time>2023-08-25T14:39:40Z</time>
      </trkpt>
      <trkpt lat="57.526342989876866" lon="-5.584540972486138">
        <ele>36.189999999999998</ele>
        <time>2023-08-25T14:39:41Z</time>
      </trkpt>
      <trkpt lat="57.526360005140305" lon="-5.586772989481688">
        <ele>29.940000000000001</ele>
        <time>2023-08-25T14:39:47Z</time>
      </trkpt>
      <trkpt lat="57.526310971006751" lon="-5.58712100610137">
        <ele>28.98</ele>
        <time>2023-08-25T14:39:48Z</time>
      </trkpt>
      <trkpt lat="57.526004025712609" lon="-5.589532982558012">
        <ele>19.84</ele>
        <time>2023-08-25T14:39:55Z</time>
      </trkpt>
      <trkpt lat="57.52598600462079" lon="-5.589863983914256">
        <ele>18.399999999999999</ele>
        <time>2023-08-25T14:39:56Z</time>
      </trkpt>
      <trkpt lat="57.526016011834145" lon="-5.590202026069164">
        <ele>17.440000000000001</ele>
        <time>2023-08-25T14:39:57Z</time>
      </trkpt>
      <trkpt lat="57.526064040139318" lon="-5.59053797274828">
        <ele>16</ele>
        <time>2023-08-25T14:39:58Z</time>
      </trkpt>
      <trkpt lat="57.526133023202419" lon="-5.59087903238833">
        <ele>14.56</ele>
        <time>2023-08-25T14:39:59Z</time>
      </trkpt>
      <trkpt lat="57.52622396685183" lon="-5.591221014037728">
        <ele>13.6</ele>
        <time>2023-08-25T14:40:00Z</time>
      </trkpt>
      <trkpt lat="57.527346974238753" lon="-5.594851970672607">
        <ele>5.91</ele>
        <time>2023-08-25T14:40:11Z</time>
      </trkpt>
      <trkpt lat="57.527483012527227" lon="-5.595453036949039">
        <ele>4.94</ele>
        <time>2023-08-25T14:40:13Z</time>
      </trkpt>
      <trkpt lat="57.527529029175639" lon="-5.595773980021477">
        <ele>4.46</ele>
        <time>2023-08-25T14:40:14Z</time>
      </trkpt>
      <trkpt lat="57.52757403999567" lon="-5.596088971942663">
        <ele>3.5</ele>
        <time>2023-08-25T14:40:15Z</time>
      </trkpt>
      <trkpt lat="57.527589965611696" lon="-5.596419973298907">
        <ele>3.5</ele>
        <time>2023-08-25T14:40:16Z</time>
      </trkpt>
      <trkpt lat="57.527589965611696" lon="-5.596754997968674">
        <ele>3.02</ele>
        <time>2023-08-25T14:40:17Z</time>
      </trkpt>
      <trkpt lat="57.527589965611696" lon="-5.599354980513454">
        <ele>3.5</ele>
        <time>2023-08-25T14:40:26Z</time>
      </trkpt>
      <trkpt lat="57.527650985866785" lon="-5.599815985187888">
        <ele>3.98</ele>
        <time>2023-08-25T14:40:28Z</time>
      </trkpt>
      <trkpt lat="57.527686022222042" lon="-5.600045984610915">
        <ele>4.46</ele>
        <time>2023-08-25T14:40:29Z</time>
      </trkpt>
      <trkpt lat="57.527728015556931" lon="-5.600287970155478">
        <ele>4.94</ele>
        <time>2023-08-25T14:40:30Z</time>
      </trkpt>
      <trkpt lat="57.527801021933556" lon="-5.600544037297368">
        <ele>5.91</ele>
        <time>2023-08-25T14:40:31Z</time>
      </trkpt>
      <trkpt lat="57.527919039130211" lon="-5.600766995921731">
        <ele>5.91</ele>
        <time>2023-08-25T14:40:32Z</time>
      </trkpt>
      <trkpt lat="57.528040995821357" lon="-5.600989032536745">
        <ele>6.39</ele>
        <time>2023-08-25T14:40:33Z</time>
      </trkpt>
      <trkpt lat="57.528207041323185" lon="-5.601196987554431">
        <ele>6.87</ele>
        <time>2023-08-25T14:40:34Z</time>
      </trkpt>
      <trkpt lat="57.528377026319504" lon="-5.60140997171402">
        <ele>8.310000000000001</ele>
        <time>2023-08-25T14:40:35Z</time>
      </trkpt>
      <trkpt lat="57.529688961803913" lon="-5.603259019553661">
        <ele>17.440000000000001</ele>
        <time>2023-08-25T14:40:43Z</time>
      </trkpt>
      <trkpt lat="57.530353982001543" lon="-5.604676986113191">
        <ele>20.32</ele>
        <time>2023-08-25T14:40:48Z</time>
      </trkpt>
      <trkpt lat="57.530508041381836" lon="-5.604891981929541">
        <ele>20.809999999999999</ele>
        <time>2023-08-25T14:40:49Z</time>
      </trkpt>
      <trkpt lat="57.530665034428239" lon="-5.605109995231032">
        <ele>21.289999999999999</ele>
        <time>2023-08-25T14:40:50Z</time>
      </trkpt>
      <trkpt lat="57.531270040199161" lon="-5.605951035395265">
        <ele>23.690000000000001</ele>
        <time>2023-08-25T14:40:54Z</time>
      </trkpt>
      <trkpt lat="57.531367018818855" lon="-5.606201989576221">
        <ele>24.170000000000002</ele>
        <time>2023-08-25T14:40:55Z</time>
      </trkpt>
      <trkpt lat="57.531453017145395" lon="-5.606439029797912">
        <ele>25.129999999999999</ele>
        <time>2023-08-25T14:40:56Z</time>
      </trkpt>
      <trkpt lat="57.531505990773439" lon="-5.606747986748815">
        <ele>25.609999999999999</ele>
        <time>2023-08-25T14:40:57Z</time>
      </trkpt>
      <trkpt lat="57.531557036563754" lon="-5.607045041397214">
        <ele>26.57</ele>
        <time>2023-08-25T14:40:58Z</time>
      </trkpt>
      <trkpt lat="57.531574973836541" lon="-5.607364978641272">
        <ele>27.050000000000001</ele>
        <time>2023-08-25T14:40:59Z</time>
      </trkpt>
      <trkpt lat="57.531561981886625" lon="-5.607678964734078">
        <ele>28.02</ele>
        <time>2023-08-25T14:41:00Z</time>
      </trkpt>
      <trkpt lat="57.531503979116678" lon="-5.60798498801887">
        <ele>28.5</ele>
        <time>2023-08-25T14:41:01Z</time>
      </trkpt>
      <trkpt lat="57.531431978568435" lon="-5.608272990211844">
        <ele>29.460000000000001</ele>
        <time>2023-08-25T14:41:02Z</time>
      </trkpt>
      <trkpt lat="57.531329970806837" lon="-5.608526039868593">
        <ele>30.420000000000002</ele>
        <time>2023-08-25T14:41:03Z</time>
      </trkpt>
      <trkpt lat="57.531211031600833" lon="-5.608751010149717">
        <ele>30.899999999999999</ele>
        <time>2023-08-25T14:41:04Z</time>
      </trkpt>
      <trkpt lat="57.531073987483978" lon="-5.60895100235939">
        <ele>30.899999999999999</ele>
        <time>2023-08-25T14:41:05Z</time>
      </trkpt>
      <trkpt lat="57.530916994437575" lon="-5.60910296626389">
        <ele>30.899999999999999</ele>
        <time>2023-08-25T14:41:06Z</time>
      </trkpt>
      <trkpt lat="57.530748015269637" lon="-5.609248979017139">
        <ele>30.899999999999999</ele>
        <time>2023-08-25T14:41:07Z</time>
      </trkpt>
      <trkpt lat="57.530573001131415" lon="-5.60940102674067">
        <ele>31.379999999999999</ele>
        <time>2023-08-25T14:41:08Z</time>
      </trkpt>
      <trkpt lat="57.529581002891064" lon="-5.610525039955974">
        <ele>30.899999999999999</ele>
        <time>2023-08-25T14:41:14Z</time>
      </trkpt>
      <trkpt lat="57.529439013451338" lon="-5.610774988308549">
        <ele>30.899999999999999</ele>
        <time>2023-08-25T14:41:15Z</time>
      </trkpt>
      <trkpt lat="57.528368979692459" lon="-5.612403005361557">
        <ele>29.460000000000001</ele>
        <time>2023-08-25T14:41:22Z</time>
      </trkpt>
      <trkpt lat="57.526721013709903" lon="-5.613770009949803">
        <ele>26.57</ele>
        <time>2023-08-25T14:41:31Z</time>
      </trkpt>
      <trkpt lat="57.525047985836864" lon="-5.615486036986113">
        <ele>23.690000000000001</ele>
        <time>2023-08-25T14:41:41Z</time>
      </trkpt>
      <trkpt lat="57.523527005687356" lon="-5.616781963035464">
        <ele>19.359999999999999</ele>
        <time>2023-08-25T14:41:50Z</time>
      </trkpt>
      <trkpt lat="57.522023040801287" lon="-5.617911005392671">
        <ele>12.630000000000001</ele>
        <time>2023-08-25T14:41:59Z</time>
      </trkpt>
      <trkpt lat="57.520943032577634" lon="-5.619442965835333">
        <ele>6.39</ele>
        <time>2023-08-25T14:42:06Z</time>
      </trkpt>
      <trkpt lat="57.520832978188992" lon="-5.619729040190578">
        <ele>5.91</ele>
        <time>2023-08-25T14:42:07Z</time>
      </trkpt>
      <trkpt lat="57.520735999569297" lon="-5.620019976049662">
        <ele>5.42</ele>
        <time>2023-08-25T14:42:08Z</time>
      </trkpt>
      <trkpt lat="57.520685037598014" lon="-5.620342008769512">
        <ele>4.94</ele>
        <time>2023-08-25T14:42:09Z</time>
      </trkpt>
      <trkpt lat="57.520638015121222" lon="-5.620644008740783">
        <ele>4.46</ele>
        <time>2023-08-25T14:42:10Z</time>
      </trkpt>
      <trkpt lat="57.520638015121222" lon="-5.620966041460633">
        <ele>3.98</ele>
        <time>2023-08-25T14:42:11Z</time>
      </trkpt>
      <trkpt lat="57.520684031769633" lon="-5.621268041431904">
        <ele>3.5</ele>
        <time>2023-08-25T14:42:12Z</time>
      </trkpt>
      <trkpt lat="57.520731976255774" lon="-5.62158496119082">
        <ele>3.5</ele>
        <time>2023-08-25T14:42:13Z</time>
      </trkpt>
      <trkpt lat="57.520781010389328" lon="-5.621904982253909">
        <ele>3.02</ele>
        <time>2023-08-25T14:42:14Z</time>
      </trkpt>
      <trkpt lat="57.520860973745584" lon="-5.622188039124012">
        <ele>3.5</ele>
        <time>2023-08-25T14:42:15Z</time>
      </trkpt>
      <trkpt lat="57.520954012870789" lon="-5.622488027438521">
        <ele>3.02</ele>
        <time>2023-08-25T14:42:16Z</time>
      </trkpt>
      <trkpt lat="57.521571004763246" lon="-5.625034030526876">
        <ele>1.58</ele>
        <time>2023-08-25T14:42:24Z</time>
      </trkpt>
      <trkpt lat="57.521831011399627" lon="-5.628070961683989">
        <ele>3.98</ele>
        <time>2023-08-25T14:42:33Z</time>
      </trkpt>
      <trkpt lat="57.521863030269742" lon="-5.631245020776987">
        <ele>11.19</ele>
        <time>2023-08-25T14:42:42Z</time>
      </trkpt>
      <trkpt lat="57.521910974755883" lon="-5.631602006033063">
        <ele>11.67</ele>
        <time>2023-08-25T14:42:43Z</time>
      </trkpt>
      <trkpt lat="57.522179028019309" lon="-5.632944032549858">
        <ele>11.19</ele>
        <time>2023-08-25T14:42:47Z</time>
      </trkpt>
      <trkpt lat="57.522264020517468" lon="-5.633204039186239">
        <ele>11.19</ele>
        <time>2023-08-25T14:42:48Z</time>
      </trkpt>
      <trkpt lat="57.522369967773557" lon="-5.633407970890403">
        <ele>10.23</ele>
        <time>2023-08-25T14:42:49Z</time>
      </trkpt>
      <trkpt lat="57.522499971091747" lon="-5.63363797031343">
        <ele>9.75</ele>
        <time>2023-08-25T14:42:50Z</time>
      </trkpt>
      <trkpt lat="57.52265696413815" lon="-5.633755987510085">
        <ele>9.27</ele>
        <time>2023-08-25T14:42:51Z</time>
      </trkpt>
      <trkpt lat="57.522820997983217" lon="-5.633879033848643">
        <ele>8.310000000000001</ele>
        <time>2023-08-25T14:42:52Z</time>
      </trkpt>
      <trkpt lat="57.523005986586213" lon="-5.63389596529305">
        <ele>8.310000000000001</ele>
        <time>2023-08-25T14:42:53Z</time>
      </trkpt>
      <trkpt lat="57.523189969360828" lon="-5.633909041061997">
        <ele>8.310000000000001</ele>
        <time>2023-08-25T14:42:54Z</time>
      </trkpt>
      <trkpt lat="57.523373030126095" lon="-5.633922033011913">
        <ele>8.789999999999999</ele>
        <time>2023-08-25T14:42:55Z</time>
      </trkpt>
      <trkpt lat="57.524183979257941" lon="-5.634072991088033">
        <ele>11.19</ele>
        <time>2023-08-25T14:43:00Z</time>
      </trkpt>
      <trkpt lat="57.524319011718035" lon="-5.634190002456307">
        <ele>11.19</ele>
        <time>2023-08-25T14:43:01Z</time>
      </trkpt>
      <trkpt lat="57.524434011429548" lon="-5.634374991059303">
        <ele>11.19</ele>
        <time>2023-08-25T14:43:02Z</time>
      </trkpt>
      <trkpt lat="57.524544987827539" lon="-5.634601972997189">
        <ele>11.67</ele>
        <time>2023-08-25T14:43:03Z</time>
      </trkpt>
      <trkpt lat="57.524659987539053" lon="-5.63483901321888">
        <ele>12.15</ele>
        <time>2023-08-25T14:43:04Z</time>
      </trkpt>
      <trkpt lat="57.524778004735708" lon="-5.635079992935062">
        <ele>12.15</ele>
        <time>2023-08-25T14:43:05Z</time>
      </trkpt>
      <trkpt lat="57.524881018325686" lon="-5.635337987914681">
        <ele>12.630000000000001</ele>
        <time>2023-08-25T14:43:06Z</time>
      </trkpt>
      <trkpt lat="57.525828005746007" lon="-5.637944005429745">
        <ele>22.25</ele>
        <time>2023-08-25T14:43:16Z</time>
      </trkpt>
      <trkpt lat="57.525940993800759" lon="-5.638536019250751">
        <ele>24.170000000000002</ele>
        <time>2023-08-25T14:43:18Z</time>
      </trkpt>
      <trkpt lat="57.525981981307268" lon="-5.63885604031384">
        <ele>25.129999999999999</ele>
        <time>2023-08-25T14:43:19Z</time>
      </trkpt>
      <trkpt lat="57.526023974642158" lon="-5.639184024184942">
        <ele>25.609999999999999</ele>
        <time>2023-08-25T14:43:20Z</time>
      </trkpt>
      <trkpt lat="57.526036966592073" lon="-5.639509996399283">
        <ele>26.57</ele>
        <time>2023-08-25T14:43:21Z</time>
      </trkpt>
      <trkpt lat="57.526018023490906" lon="-5.639853989705443">
        <ele>27.050000000000001</ele>
        <time>2023-08-25T14:43:22Z</time>
      </trkpt>
      <trkpt lat="57.525808978825808" lon="-5.641755005344749">
        <ele>28.02</ele>
        <time>2023-08-25T14:43:28Z</time>
      </trkpt>
      <trkpt lat="57.525589037686586" lon="-5.643056966364384">
        <ele>25.609999999999999</ele>
        <time>2023-08-25T14:43:33Z</time>
      </trkpt>
      <trkpt lat="57.525465991348028" lon="-5.643401965498924">
        <ele>24.649999999999999</ele>
        <time>2023-08-25T14:43:35Z</time>
      </trkpt>
      <trkpt lat="57.525339005514979" lon="-5.643675969913602">
        <ele>24.170000000000002</ele>
        <time>2023-08-25T14:43:37Z</time>
      </trkpt>
      <trkpt lat="57.525135995820165" lon="-5.644047036767006">
        <ele>23.690000000000001</ele>
        <time>2023-08-25T14:43:40Z</time>
      </trkpt>
      <trkpt lat="57.524002008140087" lon="-5.645687039941549">
        <ele>19.359999999999999</ele>
        <time>2023-08-25T14:43:53Z</time>
      </trkpt>
      <trkpt lat="57.523734960705042" lon="-5.645817965269089">
        <ele>18.879999999999999</ele>
        <time>2023-08-25T14:43:55Z</time>
      </trkpt>
      <trkpt lat="57.523334976285696" lon="-5.645947968587279">
        <ele>18.399999999999999</ele>
        <time>2023-08-25T14:43:58Z</time>
      </trkpt>
      <trkpt lat="57.523207990452647" lon="-5.645918967202306">
        <ele>18.399999999999999</ele>
        <time>2023-08-25T14:43:59Z</time>
      </trkpt>
      <trkpt lat="57.523079998791218" lon="-5.645888959988952">
        <ele>18.399999999999999</ele>
        <time>2023-08-25T14:44:00Z</time>
      </trkpt>
      <trkpt lat="57.522563003003597" lon="-5.645670024678111">
        <ele>18.879999999999999</ele>
        <time>2023-08-25T14:44:04Z</time>
      </trkpt>
      <trkpt lat="57.52179597504437" lon="-5.645275991410017">
        <ele>20.32</ele>
        <time>2023-08-25T14:44:10Z</time>
      </trkpt>
      <trkpt lat="57.521525993943214" lon="-5.645247995853424">
        <ele>20.32</ele>
        <time>2023-08-25T14:44:12Z</time>
      </trkpt>
      <trkpt lat="57.521164985373616" lon="-5.645408006384969">
        <ele>20.809999999999999</ele>
        <time>2023-08-25T14:44:15Z</time>
      </trkpt>
      <trkpt lat="57.520941020920873" lon="-5.645600035786629">
        <ele>21.289999999999999</ele>
        <time>2023-08-25T14:44:17Z</time>
      </trkpt>
      <trkpt lat="57.520745974034071" lon="-5.645916033536196">
        <ele>21.77</ele>
        <time>2023-08-25T14:44:19Z</time>
      </trkpt>
      <trkpt lat="57.520579006522894" lon="-5.64629103988409">
        <ele>22.25</ele>
        <time>2023-08-25T14:44:21Z</time>
      </trkpt>
      <trkpt lat="57.520005013793707" lon="-5.647700037807226">
        <ele>24.170000000000002</ele>
        <time>2023-08-25T14:44:28Z</time>
      </trkpt>
      <trkpt lat="57.519807033240795" lon="-5.648058028891683">
        <ele>23.690000000000001</ele>
        <time>2023-08-25T14:44:30Z</time>
      </trkpt>
      <trkpt lat="57.519567981362343" lon="-5.648349970579147">
        <ele>22.73</ele>
        <time>2023-08-25T14:44:32Z</time>
      </trkpt>
      <trkpt lat="57.519142013043165" lon="-5.648557003587484">
        <ele>19.84</ele>
        <time>2023-08-25T14:44:35Z</time>
      </trkpt>
      <trkpt lat="57.518842024728656" lon="-5.648548034951091">
        <ele>17.440000000000001</ele>
        <time>2023-08-25T14:44:37Z</time>
      </trkpt>
      <trkpt lat="57.517145024612546" lon="-5.64807697199285">
        <ele>4.94</ele>
        <time>2023-08-25T14:44:47Z</time>
      </trkpt>
      <trkpt lat="57.516677984967828" lon="-5.647733984515071">
        <ele>2.54</ele>
        <time>2023-08-25T14:44:50Z</time>
      </trkpt>
      <trkpt lat="57.515763016417623" lon="-5.647048009559512">
        <ele>-1.79</ele>
        <time>2023-08-25T14:44:56Z</time>
      </trkpt>
      <trkpt lat="57.515468979254365" lon="-5.646844999864698">
        <ele>-2.75</ele>
        <time>2023-08-25T14:44:58Z</time>
      </trkpt>
      <trkpt lat="57.515218025073409" lon="-5.646645007655025">
        <ele>-3.71</ele>
        <time>2023-08-25T14:45:00Z</time>
      </trkpt>
      <trkpt lat="57.51470597460866" lon="-5.64592600800097">
        <ele>-5.15</ele>
        <time>2023-08-25T14:45:05Z</time>
      </trkpt>
      <trkpt lat="57.514277994632721" lon="-5.64534698612988">
        <ele>-4.19</ele>
        <time>2023-08-25T14:45:09Z</time>
      </trkpt>
      <trkpt lat="57.51393299549818" lon="-5.645114975050092">
        <ele>-2.27</ele>
        <time>2023-08-25T14:45:12Z</time>
      </trkpt>
      <trkpt lat="57.51371699385345" lon="-5.645021013915539">
        <ele>-1.3</ele>
        <time>2023-08-25T14:45:14Z</time>
      </trkpt>
      <trkpt lat="57.513534016907215" lon="-5.644940966740251">
        <ele>-0.82</ele>
        <time>2023-08-25T14:45:16Z</time>
      </trkpt>
      <trkpt lat="57.513368977233768" lon="-5.644868966192007">
        <ele>-0.34</ele>
        <time>2023-08-25T14:45:18Z</time>
      </trkpt>
      <trkpt lat="57.513059014454484" lon="-5.644734017550945">
        <ele>0.62</ele>
        <time>2023-08-25T14:45:22Z</time>
      </trkpt>
      <trkpt lat="57.512914007529616" lon="-5.644670985639095">
        <ele>1.58</ele>
        <time>2023-08-25T14:45:24Z</time>
      </trkpt>
      <trkpt lat="57.512491978704929" lon="-5.64448700286448">
        <ele>3.02</ele>
        <time>2023-08-25T14:45:29Z</time>
      </trkpt>
      <trkpt lat="57.512395000085235" lon="-5.64444400370121">
        <ele>3.5</ele>
        <time>2023-08-25T14:45:30Z</time>
      </trkpt>
      <trkpt lat="57.512296009808779" lon="-5.64440100453794">
        <ele>3.5</ele>
        <time>2023-08-25T14:45:31Z</time>
      </trkpt>
      <trkpt lat="57.511689998209476" lon="-5.644139992073178">
        <ele>3.02</ele>
        <time>2023-08-25T14:45:38Z</time>
      </trkpt>
      <trkpt lat="57.511554965749383" lon="-5.644043013453484">
        <ele>3.02</ele>
        <time>2023-08-25T14:45:39Z</time>
      </trkpt>
      <trkpt lat="57.511467039585114" lon="-5.643978975713253">
        <ele>3.02</ele>
        <time>2023-08-25T14:45:40Z</time>
      </trkpt>
      <trkpt lat="57.511381963267922" lon="-5.643918039277196">
        <ele>3.02</ele>
        <time>2023-08-25T14:45:41Z</time>
      </trkpt>
      <trkpt lat="57.511292025446892" lon="-5.643834974616766">
        <ele>3.5</ele>
        <time>2023-08-25T14:45:42Z</time>
      </trkpt>
      <trkpt lat="57.511227987706661" lon="-5.643696002662182">
        <ele>3.98</ele>
        <time>2023-08-25T14:45:43Z</time>
      </trkpt>
      <trkpt lat="57.511165961623192" lon="-5.643559964373708">
        <ele>3.98</ele>
        <time>2023-08-25T14:45:44Z</time>
      </trkpt>
      <trkpt lat="57.511104019358754" lon="-5.643426021561027">
        <ele>4.46</ele>
        <time>2023-08-25T14:45:45Z</time>
      </trkpt>
      <trkpt lat="57.511052973568439" lon="-5.643285037949681">
        <ele>4.46</ele>
        <time>2023-08-25T14:45:46Z</time>
      </trkpt>
      <trkpt lat="57.511020032688975" lon="-5.643152017146349">
        <ele>4.46</ele>
        <time>2023-08-25T14:45:47Z</time>
      </trkpt>
      <trkpt lat="57.510993964970112" lon="-5.64304799772799">
        <ele>4.46</ele>
        <time>2023-08-25T14:45:48Z</time>
      </trkpt>
      <trkpt lat="57.510974016040564" lon="-5.642970968037844">
        <ele>4.94</ele>
        <time>2023-08-25T14:45:49Z</time>
      </trkpt>
      <trkpt lat="57.510961024090648" lon="-5.642916988581419">
        <ele>4.94</ele>
        <time>2023-08-25T14:45:50Z</time>
      </trkpt>
      <trkpt lat="57.510961024090648" lon="-5.642916988581419">
        <ele>4.94</ele>
        <time>2023-08-25T14:45:51Z</time>
      </trkpt>
      <trkpt lat="57.510949959978461" lon="-5.642927968874574">
        <ele>5.42</ele>
        <time>2023-08-25T14:45:52Z</time>
      </trkpt>
      <trkpt lat="57.510930011048913" lon="-5.642948001623154">
        <ele>5.42</ele>
        <time>2023-08-25T14:45:53Z</time>
      </trkpt>
      <trkpt lat="57.510900003835559" lon="-5.642978008836508">
        <ele>5.91</ele>
        <time>2023-08-25T14:45:54Z</time>
      </trkpt>
      <trkpt lat="57.510852981358767" lon="-5.6430250313133">
        <ele>5.91</ele>
        <time>2023-08-25T14:45:55Z</time>
      </trkpt>
      <trkpt lat="57.510851975530386" lon="-5.643032994121313">
        <ele>6.39</ele>
        <time>2023-08-25T14:45:56Z</time>
      </trkpt>
      <trkpt lat="57.510832026600838" lon="-5.643121004104614">
        <ele>6.87</ele>
        <time>2023-08-25T14:45:57Z</time>
      </trkpt>
      <trkpt lat="57.510807970538735" lon="-5.643228041008115">
        <ele>6.87</ele>
        <time>2023-08-25T14:45:58Z</time>
      </trkpt>
      <trkpt lat="57.510781986638904" lon="-5.643344968557358">
        <ele>6.87</ele>
        <time>2023-08-25T14:45:59Z</time>
      </trkpt>
      <trkpt lat="57.51075298525393" lon="-5.64347698353231">
        <ele>7.35</ele>
        <time>2023-08-25T14:46:00Z</time>
      </trkpt>
      <trkpt lat="57.510724989697337" lon="-5.643603969365358">
        <ele>7.35</ele>
        <time>2023-08-25T14:46:01Z</time>
      </trkpt>
      <trkpt lat="57.510618958622217" lon="-5.643673958256841">
        <ele>7.35</ele>
        <time>2023-08-25T14:46:02Z</time>
      </trkpt>
      <trkpt lat="57.510595992207527" lon="-5.643689967691898">
        <ele>7.35</ele>
        <time>2023-08-25T14:46:03Z</time>
      </trkpt>
      <trkpt lat="57.510510999709368" lon="-5.643680999055505">
        <ele>7.35</ele>
        <time>2023-08-25T14:46:04Z</time>
      </trkpt>
      <trkpt lat="57.510446961969137" lon="-5.643674964085221">
        <ele>7.35</ele>
        <time>2023-08-25T14:46:05Z</time>
      </trkpt>
      <trkpt lat="57.510391976684332" lon="-5.64366901293397">
        <ele>6.87</ele>
        <time>2023-08-25T14:46:06Z</time>
      </trkpt>
      <trkpt lat="57.510263985022902" lon="-5.643516965210438">
        <ele>6.87</ele>
        <time>2023-08-25T14:46:10Z</time>
      </trkpt>
      <trkpt lat="57.509981011971831" lon="-5.643152017146349">
        <ele>6.39</ele>
        <time>2023-08-25T14:46:15Z</time>
      </trkpt>
      <trkpt lat="57.509860983118415" lon="-5.642987983301282">
        <ele>6.39</ele>
        <time>2023-08-25T14:46:17Z</time>
      </trkpt>
      <trkpt lat="57.509770961478353" lon="-5.642319023609161">
        <ele>5.42</ele>
        <time>2023-08-25T14:46:21Z</time>
      </trkpt>
      <trkpt lat="57.509557977318764" lon="-5.642018029466271">
        <ele>5.42</ele>
        <time>2023-08-25T14:46:24Z</time>
      </trkpt>
      <trkpt lat="57.509382963180542" lon="-5.642134035006166">
        <ele>5.91</ele>
        <time>2023-08-25T14:46:26Z</time>
      </trkpt>
      <trkpt lat="57.509307023137808" lon="-5.642318017780781">
        <ele>6.39</ele>
        <time>2023-08-25T14:46:28Z</time>
      </trkpt>
      <trkpt lat="57.509275004267693" lon="-5.642464030534029">
        <ele>6.87</ele>
        <time>2023-08-25T14:46:29Z</time>
      </trkpt>
      <trkpt lat="57.509281039237976" lon="-5.642715990543366">
        <ele>8.789999999999999</ele>
        <time>2023-08-25T14:46:31Z</time>
      </trkpt>
      <trkpt lat="57.509300988167524" lon="-5.642839036881924">
        <ele>9.75</ele>
        <time>2023-08-25T14:46:32Z</time>
      </trkpt>
      <trkpt lat="57.50939603894949" lon="-5.643178001046181">
        <ele>11.67</ele>
        <time>2023-08-25T14:46:34Z</time>
      </trkpt>
      <trkpt lat="57.509628972038627" lon="-5.644107973203063">
        <ele>13.6</ele>
        <time>2023-08-25T14:46:39Z</time>
      </trkpt>
      <trkpt lat="57.509507015347481" lon="-5.644741980358958">
        <ele>14.08</ele>
        <time>2023-08-25T14:46:42Z</time>
      </trkpt>
      <trkpt lat="57.508987002074718" lon="-5.64659496769309">
        <ele>16</ele>
        <time>2023-08-25T14:46:53Z</time>
      </trkpt>
      <trkpt lat="57.508870996534824" lon="-5.64680996350944">
        <ele>16.48</ele>
        <time>2023-08-25T14:46:55Z</time>
      </trkpt>
      <trkpt lat="57.508762031793594" lon="-5.646969974040985">
        <ele>16.960000000000001</ele>
        <time>2023-08-25T14:46:57Z</time>
      </trkpt>
      <trkpt lat="57.508231960237026" lon="-5.647565005347133">
        <ele>15.52</ele>
        <time>2023-08-25T14:47:04Z</time>
      </trkpt>
      <trkpt lat="57.508050994947553" lon="-5.64764597453177">
        <ele>14.56</ele>
        <time>2023-08-25T14:47:06Z</time>
      </trkpt>
      <trkpt lat="57.507952004671097" lon="-5.647798022255302">
        <ele>13.6</ele>
        <time>2023-08-25T14:47:08Z</time>
      </trkpt>
      <trkpt lat="57.507891990244389" lon="-5.647916961461306">
        <ele>13.119999999999999</ele>
        <time>2023-08-25T14:47:10Z</time>
      </trkpt>
      <trkpt lat="57.50791403464973" lon="-5.648131035268307">
        <ele>13.119999999999999</ele>
        <time>2023-08-25T14:47:12Z</time>
      </trkpt>
      <trkpt lat="57.508041020482779" lon="-5.648409985005856">
        <ele>12.15</ele>
        <time>2023-08-25T14:47:15Z</time>
      </trkpt>
      <trkpt lat="57.508284011855721" lon="-5.649173995479941">
        <ele>12.15</ele>
        <time>2023-08-25T14:47:19Z</time>
      </trkpt>
      <trkpt lat="57.50825903378427" lon="-5.64959803596139">
        <ele>13.119999999999999</ele>
        <time>2023-08-25T14:47:21Z</time>
      </trkpt>
      <trkpt lat="57.508192984387279" lon="-5.649998020380735">
        <ele>14.56</ele>
        <time>2023-08-25T14:47:24Z</time>
      </trkpt>
      <trkpt lat="57.508240006864071" lon="-5.650250986218453">
        <ele>15.52</ele>
        <time>2023-08-25T14:47:26Z</time>
      </trkpt>
      <trkpt lat="57.508338997140527" lon="-5.650422982871532">
        <ele>16.960000000000001</ele>
        <time>2023-08-25T14:47:28Z</time>
      </trkpt>
      <trkpt lat="57.508399011567235" lon="-5.650484003126621">
        <ele>17.440000000000001</ele>
        <time>2023-08-25T14:47:29Z</time>
      </trkpt>
      <trkpt lat="57.508570002391934" lon="-5.65054401755333">
        <ele>18.879999999999999</ele>
        <time>2023-08-25T14:47:31Z</time>
      </trkpt>
      <trkpt lat="57.509021032601595" lon="-5.650602020323277">
        <ele>21.77</ele>
        <time>2023-08-25T14:47:35Z</time>
      </trkpt>
      <trkpt lat="57.509208032861352" lon="-5.650817016139627">
        <ele>23.690000000000001</ele>
        <time>2023-08-25T14:47:37Z</time>
      </trkpt>
      <trkpt lat="57.50950500369072" lon="-5.651367958635092">
        <ele>27.530000000000001</ele>
        <time>2023-08-25T14:47:41Z</time>
      </trkpt>
      <trkpt lat="57.509715976193547" lon="-5.651928959414363">
        <ele>31.859999999999999</ele>
        <time>2023-08-25T14:47:45Z</time>
      </trkpt>
      <trkpt lat="57.509738020598888" lon="-5.651955027133226">
        <ele>34.259999999999998</ele>
        <time>2023-08-25T14:47:47Z</time>
      </trkpt>
      <trkpt lat="57.509984029456973" lon="-5.652246968820691">
        <ele>38.590000000000003</ele>
        <time>2023-08-25T14:47:52Z</time>
      </trkpt>
      <trkpt lat="57.510198019444942" lon="-5.652501024305821">
        <ele>44.840000000000003</ele>
        <time>2023-08-25T14:48:04Z</time>
      </trkpt>
      <trkpt lat="57.510198019444942" lon="-5.652501024305821">
        <ele>44.840000000000003</ele>
        <time>2023-08-25T14:48:39Z</time>
      </trkpt>
      <trkpt lat="57.510198019444942" lon="-5.652501024305821">
        <ele>47.240000000000002</ele>
        <time>2023-08-25T14:50:12Z</time>
      </trkpt>
      <trkpt lat="57.510198019444942" lon="-5.652501024305821">
        <ele>47.240000000000002</ele>
        <time>2023-08-25T14:51:10Z</time>
      </trkpt>
      <trkpt lat="57.510261973366141" lon="-5.652577970176935">
        <ele>47.240000000000002</ele>
        <time>2023-08-25T14:51:42Z</time>
      </trkpt>
      <trkpt lat="57.51034596003592" lon="-5.652676960453391">
        <ele>46.759999999999998</ele>
        <time>2023-08-25T14:51:44Z</time>
      </trkpt>
      <trkpt lat="57.510848036035895" lon="-5.653615985065699">
        <ele>44.359999999999999</ele>
        <time>2023-08-25T14:51:52Z</time>
      </trkpt>
      <trkpt lat="57.511103013530374" lon="-5.654427018016577">
        <ele>40.509999999999998</ele>
        <time>2023-08-25T14:51:58Z</time>
      </trkpt>
      <trkpt lat="57.511409958824515" lon="-5.654849968850613">
        <ele>38.590000000000003</ele>
        <time>2023-08-25T14:52:02Z</time>
      </trkpt>
      <trkpt lat="57.51159000210464" lon="-5.654992964118719">
        <ele>38.109999999999999</ele>
        <time>2023-08-25T14:52:04Z</time>
      </trkpt>
      <trkpt lat="57.511968025937676" lon="-5.65529303625226">
        <ele>40.030000000000001</ele>
        <time>2023-08-25T14:52:08Z</time>
      </trkpt>
      <trkpt lat="57.512162989005446" lon="-5.655492022633553">
        <ele>40.990000000000002</ele>
        <time>2023-08-25T14:52:10Z</time>
      </trkpt>
      <trkpt lat="57.51247001811862" lon="-5.656036008149386">
        <ele>41.950000000000003</ele>
        <time>2023-08-25T14:52:14Z</time>
      </trkpt>
      <trkpt lat="57.512618964537978" lon="-5.656344965100288">
        <ele>42.439999999999998</ele>
        <time>2023-08-25T14:52:16Z</time>
      </trkpt>
      <trkpt lat="57.512891041114926" lon="-5.657003028318286">
        <ele>43.399999999999999</ele>
        <time>2023-08-25T14:52:20Z</time>
      </trkpt>
      <trkpt lat="57.512938985601068" lon="-5.657379040494561">
        <ele>43.399999999999999</ele>
        <time>2023-08-25T14:52:22Z</time>
      </trkpt>
      <trkpt lat="57.513129003345966" lon="-5.657854964956641">
        <ele>44.840000000000003</ele>
        <time>2023-08-25T14:52:28Z</time>
      </trkpt>
      <trkpt lat="57.513346010819077" lon="-5.658357962965965">
        <ele>46.759999999999998</ele>
        <time>2023-08-25T14:52:32Z</time>
      </trkpt>
      <trkpt lat="57.513451036065817" lon="-5.658632973209024">
        <ele>47.240000000000002</ele>
        <time>2023-08-25T14:52:34Z</time>
      </trkpt>
      <trkpt lat="57.513505015522242" lon="-5.659000016748905">
        <ele>47.240000000000002</ele>
        <time>2023-08-25T14:52:36Z</time>
      </trkpt>
      <trkpt lat="57.513477019965649" lon="-5.659599993377924">
        <ele>46.280000000000001</ele>
        <time>2023-08-25T14:52:39Z</time>
      </trkpt>
      <trkpt lat="57.51335103996098" lon="-5.662355963140726">
        <ele>39.549999999999997</ele>
        <time>2023-08-25T14:52:50Z</time>
      </trkpt>
      <trkpt lat="57.513333018869162" lon="-5.662737004458904">
        <ele>38.590000000000003</ele>
        <time>2023-08-25T14:52:52Z</time>
      </trkpt>
      <trkpt lat="57.513325978070498" lon="-5.663063982501626">
        <ele>36.670000000000002</ele>
        <time>2023-08-25T14:52:54Z</time>
      </trkpt>
      <trkpt lat="57.51335397362709" lon="-5.663403030484915">
        <ele>34.259999999999998</ele>
        <time>2023-08-25T14:52:56Z</time>
      </trkpt>
      <trkpt lat="57.513404013589025" lon="-5.66371500492096">
        <ele>31.859999999999999</ele>
        <time>2023-08-25T14:52:58Z</time>
      </trkpt>
      <trkpt lat="57.51348196528852" lon="-5.663885995745659">
        <ele>29.460000000000001</ele>
        <time>2023-08-25T14:53:00Z</time>
      </trkpt>
      <trkpt lat="57.513622026890516" lon="-5.664009964093566">
        <ele>28.02</ele>
        <time>2023-08-25T14:53:02Z</time>
      </trkpt>
      <trkpt lat="57.513813972473145" lon="-5.663922959938645">
        <ele>26.09</ele>
        <time>2023-08-25T14:53:05Z</time>
      </trkpt>
      <trkpt lat="57.513915980234742" lon="-5.66391097381711">
        <ele>25.609999999999999</ele>
        <time>2023-08-25T14:53:06Z</time>
      </trkpt>
      <trkpt lat="57.514105997979641" lon="-5.664041982963681">
        <ele>26.57</ele>
        <time>2023-08-25T14:53:08Z</time>
      </trkpt>
      <trkpt lat="57.514281012117863" lon="-5.664291009306908">
        <ele>28.02</ele>
        <time>2023-08-25T14:53:10Z</time>
      </trkpt>
      <trkpt lat="57.514910995960236" lon="-5.665462967008352">
        <ele>32.340000000000003</ele>
        <time>2023-08-25T14:53:17Z</time>
      </trkpt>
      <trkpt lat="57.515494963154197" lon="-5.666548004373908">
        <ele>31.859999999999999</ele>
        <time>2023-08-25T14:53:23Z</time>
      </trkpt>
      <trkpt lat="57.515571992844343" lon="-5.666690999642015">
        <ele>31.859999999999999</ele>
        <time>2023-08-25T14:53:24Z</time>
      </trkpt>
      <trkpt lat="57.515624966472387" lon="-5.666890991851687">
        <ele>31.379999999999999</ele>
        <time>2023-08-25T14:53:25Z</time>
      </trkpt>
      <trkpt lat="57.515660002827644" lon="-5.667081009596586">
        <ele>31.379999999999999</ele>
        <time>2023-08-25T14:53:26Z</time>
      </trkpt>
      <trkpt lat="57.515699984505773" lon="-5.667292987927795">
        <ele>30.420000000000002</ele>
        <time>2023-08-25T14:53:27Z</time>
      </trkpt>
      <trkpt lat="57.516069039702415" lon="-5.668634008616209">
        <ele>25.129999999999999</ele>
        <time>2023-08-25T14:53:33Z</time>
      </trkpt>
      <trkpt lat="57.516354024410248" lon="-5.669333981350064">
        <ele>22.73</ele>
        <time>2023-08-25T14:53:37Z</time>
      </trkpt>
      <trkpt lat="57.516442034393549" lon="-5.66947496496141">
        <ele>22.25</ele>
        <time>2023-08-25T14:53:38Z</time>
      </trkpt>
      <trkpt lat="57.516546975821257" lon="-5.669590970501304">
        <ele>22.25</ele>
        <time>2023-08-25T14:53:39Z</time>
      </trkpt>
      <trkpt lat="57.516675973311067" lon="-5.66969096660614">
        <ele>22.25</ele>
        <time>2023-08-25T14:53:40Z</time>
      </trkpt>
      <trkpt lat="57.516813017427921" lon="-5.669761961326003">
        <ele>22.73</ele>
        <time>2023-08-25T14:53:41Z</time>
      </trkpt>
      <trkpt lat="57.517732009291649" lon="-5.670267976820469">
        <ele>28.98</ele>
        <time>2023-08-25T14:53:47Z</time>
      </trkpt>
      <trkpt lat="57.517870981246233" lon="-5.670379037037492">
        <ele>30.899999999999999</ele>
        <time>2023-08-25T14:53:48Z</time>
      </trkpt>
      <trkpt lat="57.518298039212823" lon="-5.670823026448488">
        <ele>38.590000000000003</ele>
        <time>2023-08-25T14:53:52Z</time>
      </trkpt>
      <trkpt lat="57.519199009984732" lon="-5.671176994219422">
        <ele>55.409999999999997</ele>
        <time>2023-08-25T14:54:00Z</time>
      </trkpt>
      <trkpt lat="57.519321972504258" lon="-5.671117985621095">
        <ele>56.859999999999999</ele>
        <time>2023-08-25T14:54:01Z</time>
      </trkpt>
      <trkpt lat="57.519424986094236" lon="-5.67104103974998">
        <ele>57.340000000000003</ele>
        <time>2023-08-25T14:54:02Z</time>
      </trkpt>
      <trkpt lat="57.519615003839135" lon="-5.671020001173019">
        <ele>58.299999999999997</ele>
        <time>2023-08-25T14:54:04Z</time>
      </trkpt>
      <trkpt lat="57.519704019650817" lon="-5.671049002557993">
        <ele>59.259999999999998</ele>
        <time>2023-08-25T14:54:05Z</time>
      </trkpt>
      <trkpt lat="57.51979898661375" lon="-5.671080015599728">
        <ele>59.259999999999998</ele>
        <time>2023-08-25T14:54:06Z</time>
      </trkpt>
      <trkpt lat="57.51990401186049" lon="-5.671113040298224">
        <ele>59.259999999999998</ele>
        <time>2023-08-25T14:54:07Z</time>
      </trkpt>
      <trkpt lat="57.520006019622087" lon="-5.671145981177688">
        <ele>59.259999999999998</ele>
        <time>2023-08-25T14:54:08Z</time>
      </trkpt>
      <trkpt lat="57.520229984074831" lon="-5.671333987265825">
        <ele>58.780000000000001</ele>
        <time>2023-08-25T14:54:11Z</time>
      </trkpt>
      <trkpt lat="57.520295027643442" lon="-5.671413028612733">
        <ele>58.299999999999997</ele>
        <time>2023-08-25T14:54:12Z</time>
      </trkpt>
      <trkpt lat="57.520359987393022" lon="-5.671560969203711">
        <ele>57.82</ele>
        <time>2023-08-25T14:54:13Z</time>
      </trkpt>
      <trkpt lat="57.520637009292841" lon="-5.672185001894832">
        <ele>53.490000000000002</ele>
        <time>2023-08-25T14:54:16Z</time>
      </trkpt>
      <trkpt lat="57.520745974034071" lon="-5.672432016581297">
        <ele>52.049999999999997</ele>
        <time>2023-08-25T14:54:17Z</time>
      </trkpt>
      <trkpt lat="57.521457010880113" lon="-5.674038995057344">
        <ele>42.920000000000002</ele>
        <time>2023-08-25T14:54:23Z</time>
      </trkpt>
      <trkpt lat="57.521878033876419" lon="-5.674990005791187">
        <ele>40.030000000000001</ele>
        <time>2023-08-25T14:54:27Z</time>
      </trkpt>
      <trkpt lat="57.522134017199278" lon="-5.675770025700331">
        <ele>38.109999999999999</ele>
        <time>2023-08-25T14:54:31Z</time>
      </trkpt>
      <trkpt lat="57.522315988317132" lon="-5.67647603340447">
        <ele>37.630000000000003</ele>
        <time>2023-08-25T14:54:35Z</time>
      </trkpt>
      <trkpt lat="57.522373991087079" lon="-5.676635038107634">
        <ele>37.630000000000003</ele>
        <time>2023-08-25T14:54:36Z</time>
      </trkpt>
      <trkpt lat="57.522840024903417" lon="-5.677859969437122">
        <ele>35.710000000000001</ele>
        <time>2023-08-25T14:54:42Z</time>
      </trkpt>
      <trkpt lat="57.523662960156798" lon="-5.679414980113506">
        <ele>31.379999999999999</ele>
        <time>2023-08-25T14:54:50Z</time>
      </trkpt>
      <trkpt lat="57.52383504062891" lon="-5.679773977026343">
        <ele>30.899999999999999</ele>
        <time>2023-08-25T14:54:52Z</time>
      </trkpt>
      <trkpt lat="57.52392103895545" lon="-5.679953014478087">
        <ele>30.899999999999999</ele>
        <time>2023-08-25T14:54:53Z</time>
      </trkpt>
      <trkpt lat="57.523981975391507" lon="-5.680027026683092">
        <ele>30.899999999999999</ele>
        <time>2023-08-25T14:54:54Z</time>
      </trkpt>
      <trkpt lat="57.524071997031569" lon="-5.680093998089433">
        <ele>31.379999999999999</ele>
        <time>2023-08-25T14:54:55Z</time>
      </trkpt>
      <trkpt lat="57.524165036156774" lon="-5.680120987817645">
        <ele>31.859999999999999</ele>
        <time>2023-08-25T14:54:56Z</time>
      </trkpt>
      <trkpt lat="57.524260003119707" lon="-5.680147977545857">
        <ele>32.340000000000003</ele>
        <time>2023-08-25T14:54:57Z</time>
      </trkpt>
      <trkpt lat="57.524346001446247" lon="-5.680189970880747">
        <ele>32.82</ele>
        <time>2023-08-25T14:54:58Z</time>
      </trkpt>
      <trkpt lat="57.524420013651252" lon="-5.680285021662712">
        <ele>33.299999999999997</ele>
        <time>2023-08-25T14:54:59Z</time>
      </trkpt>
      <trkpt lat="57.524492014199495" lon="-5.680377976968885">
        <ele>33.780000000000001</ele>
        <time>2023-08-25T14:55:00Z</time>
      </trkpt>
      <trkpt lat="57.524564014747739" lon="-5.680469004437327">
        <ele>34.259999999999998</ele>
        <time>2023-08-25T14:55:01Z</time>
      </trkpt>
      <trkpt lat="57.524640038609505" lon="-5.680614011362195">
        <ele>34.740000000000002</ele>
        <time>2023-08-25T14:55:02Z</time>
      </trkpt>
      <trkpt lat="57.524672979488969" lon="-5.680801011621952">
        <ele>35.229999999999997</ele>
        <time>2023-08-25T14:55:03Z</time>
      </trkpt>
      <trkpt lat="57.524710027500987" lon="-5.681004021316767">
        <ele>35.710000000000001</ele>
        <time>2023-08-25T14:55:04Z</time>
      </trkpt>
      <trkpt lat="57.524746991693974" lon="-5.681210970506072">
        <ele>36.189999999999998</ele>
        <time>2023-08-25T14:55:05Z</time>
      </trkpt>
      <trkpt lat="57.525028036907315" lon="-5.682788025587797">
        <ele>35.229999999999997</ele>
        <time>2023-08-25T14:55:12Z</time>
      </trkpt>
      <trkpt lat="57.525100959464908" lon="-5.683316001668572">
        <ele>33.299999999999997</ele>
        <time>2023-08-25T14:55:14Z</time>
      </trkpt>
      <trkpt lat="57.525163991376758" lon="-5.683857975527644">
        <ele>30.899999999999999</ele>
        <time>2023-08-25T14:55:16Z</time>
      </trkpt>
      <trkpt lat="57.525195004418492" lon="-5.684609999880195">
        <ele>29.460000000000001</ele>
        <time>2023-08-25T14:55:19Z</time>
      </trkpt>
      <trkpt lat="57.525199027732015" lon="-5.684843016788364">
        <ele>29.940000000000001</ele>
        <time>2023-08-25T14:55:20Z</time>
      </trkpt>
      <trkpt lat="57.525201961398125" lon="-5.685047032311559">
        <ele>29.940000000000001</ele>
        <time>2023-08-25T14:55:21Z</time>
      </trkpt>
      <trkpt lat="57.525206990540028" lon="-5.685388008132577">
        <ele>30.420000000000002</ele>
        <time>2023-08-25T14:55:23Z</time>
      </trkpt>
      <trkpt lat="57.525218976661563" lon="-5.685533015057445">
        <ele>30.899999999999999</ele>
        <time>2023-08-25T14:55:24Z</time>
      </trkpt>
      <trkpt lat="57.525271028280258" lon="-5.685640973970294">
        <ele>31.379999999999999</ele>
        <time>2023-08-25T14:55:25Z</time>
      </trkpt>
      <trkpt lat="57.525331964716315" lon="-5.685769971460104">
        <ele>31.379999999999999</ele>
        <time>2023-08-25T14:55:26Z</time>
      </trkpt>
      <trkpt lat="57.525399019941688" lon="-5.68590902723372">
        <ele>31.859999999999999</ele>
        <time>2023-08-25T14:55:27Z</time>
      </trkpt>
      <trkpt lat="57.52546900883317" lon="-5.686056967824698">
        <ele>32.340000000000003</ele>
        <time>2023-08-25T14:55:28Z</time>
      </trkpt>
      <trkpt lat="57.526001008227468" lon="-5.687210988253355">
        <ele>37.630000000000003</ele>
        <time>2023-08-25T14:55:35Z</time>
      </trkpt>
      <trkpt lat="57.526068985462189" lon="-5.687375022098422">
        <ele>38.109999999999999</ele>
        <time>2023-08-25T14:55:36Z</time>
      </trkpt>
      <trkpt lat="57.526118019595742" lon="-5.687634022906423">
        <ele>38.590000000000003</ele>
        <time>2023-08-25T14:55:37Z</time>
      </trkpt>
      <trkpt lat="57.526149032637477" lon="-5.687857987359166">
        <ele>39.07</ele>
        <time>2023-08-25T14:55:38Z</time>
      </trkpt>
      <trkpt lat="57.52617996186018" lon="-5.688082035630941">
        <ele>39.549999999999997</ele>
        <time>2023-08-25T14:55:39Z</time>
      </trkpt>
      <trkpt lat="57.52626596018672" lon="-5.688702967017889">
        <ele>40.509999999999998</ele>
        <time>2023-08-25T14:55:42Z</time>
      </trkpt>
      <trkpt lat="57.52630602568388" lon="-5.688850991427898">
        <ele>40.990000000000002</ele>
        <time>2023-08-25T14:55:43Z</time>
      </trkpt>
      <trkpt lat="57.526380959898233" lon="-5.688964985311031">
        <ele>41.469999999999999</ele>
        <time>2023-08-25T14:55:44Z</time>
      </trkpt>
      <trkpt lat="57.526468969881535" lon="-5.68904503248632">
        <ele>41.950000000000003</ele>
        <time>2023-08-25T14:55:45Z</time>
      </trkpt>
      <trkpt lat="57.526575000956655" lon="-5.689109992235899">
        <ele>42.920000000000002</ele>
        <time>2023-08-25T14:55:46Z</time>
      </trkpt>
      <trkpt lat="57.526684971526265" lon="-5.689178975299001">
        <ele>43.399999999999999</ele>
        <time>2023-08-25T14:55:47Z</time>
      </trkpt>
      <trkpt lat="57.526791002601385" lon="-5.689244018867612">
        <ele>44.359999999999999</ele>
        <time>2023-08-25T14:55:48Z</time>
      </trkpt>
      <trkpt lat="57.526958975940943" lon="-5.68934896029532">
        <ele>45.799999999999997</ele>
        <time>2023-08-25T14:55:50Z</time>
      </trkpt>
      <trkpt lat="57.527039023116231" lon="-5.68941199220717">
        <ele>46.759999999999998</ele>
        <time>2023-08-25T14:55:51Z</time>
      </trkpt>
      <trkpt lat="57.527076993137598" lon="-5.689511988312006">
        <ele>47.240000000000002</ele>
        <time>2023-08-25T14:55:52Z</time>
      </trkpt>
      <trkpt lat="57.527097025886178" lon="-5.68966998718679">
        <ele>48.68</ele>
        <time>2023-08-25T14:55:53Z</time>
      </trkpt>
      <trkpt lat="57.527097025886178" lon="-5.689824968576431">
        <ele>49.649999999999999</ele>
        <time>2023-08-25T14:55:54Z</time>
      </trkpt>
      <trkpt lat="57.527097025886178" lon="-5.689995037391782">
        <ele>50.130000000000003</ele>
        <time>2023-08-25T14:55:55Z</time>
      </trkpt>
      <trkpt lat="57.527054026722908" lon="-5.690216990187764">
        <ele>50.609999999999999</ele>
        <time>2023-08-25T14:55:56Z</time>
      </trkpt>
      <trkpt lat="57.527000969275832" lon="-5.690382029861212">
        <ele>51.090000000000003</ele>
        <time>2023-08-25T14:55:57Z</time>
      </trkpt>
      <trkpt lat="57.526947995647788" lon="-5.690547991544008">
        <ele>51.57</ele>
        <time>2023-08-25T14:55:58Z</time>
      </trkpt>
      <trkpt lat="57.526797037571669" lon="-5.691016959026456">
        <ele>50.609999999999999</ele>
        <time>2023-08-25T14:56:01Z</time>
      </trkpt>
      <trkpt lat="57.526754960417747" lon="-5.69117596372962">
        <ele>50.130000000000003</ele>
        <time>2023-08-25T14:56:02Z</time>
      </trkpt>
      <trkpt lat="57.526764012873173" lon="-5.691333962604404">
        <ele>50.130000000000003</ele>
        <time>2023-08-25T14:56:03Z</time>
      </trkpt>
      <trkpt lat="57.526774993166327" lon="-5.69153998978436">
        <ele>50.130000000000003</ele>
        <time>2023-08-25T14:56:04Z</time>
      </trkpt>
      <trkpt lat="57.526827966794372" lon="-5.691592963412404">
        <ele>49.649999999999999</ele>
        <time>2023-08-25T14:56:05Z</time>
      </trkpt>
      <trkpt lat="57.526882030069828" lon="-5.691648032516241">
        <ele>49.649999999999999</ele>
        <time>2023-08-25T14:56:06Z</time>
      </trkpt>
      <trkpt lat="57.527000969275832" lon="-5.691655995324254">
        <ele>49.649999999999999</ele>
        <time>2023-08-25T14:56:07Z</time>
      </trkpt>
      <trkpt lat="57.527095014229417" lon="-5.691663036122918">
        <ele>49.649999999999999</ele>
        <time>2023-08-25T14:56:08Z</time>
      </trkpt>
      <trkpt lat="57.527203978970647" lon="-5.691655995324254">
        <ele>49.649999999999999</ele>
        <time>2023-08-25T14:56:09Z</time>
      </trkpt>
      <trkpt lat="57.527291988953948" lon="-5.691601010039449">
        <ele>50.130000000000003</ele>
        <time>2023-08-25T14:56:10Z</time>
      </trkpt>
      <trkpt lat="57.527687028050423" lon="-5.691356007009745">
        <ele>52.530000000000001</ele>
        <time>2023-08-25T14:56:15Z</time>
      </trkpt>
      <trkpt lat="57.527757016941905" lon="-5.691313007846475">
        <ele>52.049999999999997</ele>
        <time>2023-08-25T14:56:16Z</time>
      </trkpt>
      <trkpt lat="57.52783396281302" lon="-5.691290963441134">
        <ele>51.57</ele>
        <time>2023-08-25T14:56:17Z</time>
      </trkpt>
      <trkpt lat="57.527910992503166" lon="-5.691313007846475">
        <ele>51.090000000000003</ele>
        <time>2023-08-25T14:56:18Z</time>
      </trkpt>
      <trkpt lat="57.527994979172945" lon="-5.691335974261165">
        <ele>50.609999999999999</ele>
        <time>2023-08-25T14:56:19Z</time>
      </trkpt>
      <trkpt lat="57.52808902412653" lon="-5.691362963989377">
        <ele>50.130000000000003</ele>
        <time>2023-08-25T14:56:20Z</time>
      </trkpt>
      <trkpt lat="57.528194971382618" lon="-5.691392971202731">
        <ele>50.130000000000003</ele>
        <time>2023-08-25T14:56:21Z</time>
      </trkpt>
      <trkpt lat="57.528312988579273" lon="-5.691425995901227">
        <ele>49.649999999999999</ele>
        <time>2023-08-25T14:56:22Z</time>
      </trkpt>
      <trkpt lat="57.528825961053371" lon="-5.691572008654475">
        <ele>47.719999999999999</ele>
        <time>2023-08-25T14:56:26Z</time>
      </trkpt>
      <trkpt lat="57.528941966593266" lon="-5.691605033352971">
        <ele>46.759999999999998</ele>
        <time>2023-08-25T14:56:27Z</time>
      </trkpt>
      <trkpt lat="57.529037017375231" lon="-5.691698994487524">
        <ele>46.280000000000001</ele>
        <time>2023-08-25T14:56:28Z</time>
      </trkpt>
      <trkpt lat="57.529132990166545" lon="-5.691821034997702">
        <ele>45.799999999999997</ele>
        <time>2023-08-25T14:56:29Z</time>
      </trkpt>
      <trkpt lat="57.529224017634988" lon="-5.691968975588679">
        <ele>45.799999999999997</ele>
        <time>2023-08-25T14:56:30Z</time>
      </trkpt>
      <trkpt lat="57.529312027618289" lon="-5.692111970856786">
        <ele>45.799999999999997</ele>
        <time>2023-08-25T14:56:31Z</time>
      </trkpt>
      <trkpt lat="57.529397020116448" lon="-5.69224901497364">
        <ele>45.32</ele>
        <time>2023-08-25T14:56:32Z</time>
      </trkpt>
      <trkpt lat="57.529630959033966" lon="-5.692809009924531">
        <ele>42.920000000000002</ele>
        <time>2023-08-25T14:56:35Z</time>
      </trkpt>
      <trkpt lat="57.529715029522777" lon="-5.693020988255739">
        <ele>41.469999999999999</ele>
        <time>2023-08-25T14:56:36Z</time>
      </trkpt>
      <trkpt lat="57.529759034514427" lon="-5.693204971030355">
        <ele>39.549999999999997</ele>
        <time>2023-08-25T14:56:37Z</time>
      </trkpt>
      <trkpt lat="57.529806979000568" lon="-5.693404963240027">
        <ele>38.109999999999999</ele>
        <time>2023-08-25T14:56:38Z</time>
      </trkpt>
      <trkpt lat="57.529844027012587" lon="-5.693631023168564">
        <ele>36.189999999999998</ele>
        <time>2023-08-25T14:56:39Z</time>
      </trkpt>
      <trkpt lat="57.529844027012587" lon="-5.693850964307785">
        <ele>34.740000000000002</ele>
        <time>2023-08-25T14:56:40Z</time>
      </trkpt>
      <trkpt lat="57.529844027012587" lon="-5.694071995094419">
        <ele>33.299999999999997</ele>
        <time>2023-08-25T14:56:41Z</time>
      </trkpt>
      <trkpt lat="57.529844027012587" lon="-5.694294031709433">
        <ele>31.379999999999999</ele>
        <time>2023-08-25T14:56:42Z</time>
      </trkpt>
      <trkpt lat="57.529850983992219" lon="-5.694521013647318">
        <ele>29.460000000000001</ele>
        <time>2023-08-25T14:56:43Z</time>
      </trkpt>
      <trkpt lat="57.529965983703732" lon="-5.695160971954465">
        <ele>23.210000000000001</ele>
        <time>2023-08-25T14:56:46Z</time>
      </trkpt>
      <trkpt lat="57.529990039765835" lon="-5.695290975272656">
        <ele>21.289999999999999</ele>
        <time>2023-08-25T14:56:47Z</time>
      </trkpt>
      <trkpt lat="57.53000495955348" lon="-5.695377979427576">
        <ele>18.879999999999999</ele>
        <time>2023-08-25T14:56:48Z</time>
      </trkpt>
      <trkpt lat="57.53002398647368" lon="-5.695480993017554">
        <ele>16.960000000000001</ele>
        <time>2023-08-25T14:56:49Z</time>
      </trkpt>
      <trkpt lat="57.53004502505064" lon="-5.69559901021421">
        <ele>15.039999999999999</ele>
        <time>2023-08-25T14:56:50Z</time>
      </trkpt>
      <trkpt lat="57.530068997293711" lon="-5.695733036845923">
        <ele>13.119999999999999</ele>
        <time>2023-08-25T14:56:51Z</time>
      </trkpt>
      <trkpt lat="57.530094981193542" lon="-5.696227988228202">
        <ele>7.83</ele>
        <time>2023-08-25T14:56:54Z</time>
      </trkpt>
      <trkpt lat="57.530099004507065" lon="-5.696398979052901">
        <ele>5.91</ele>
        <time>2023-08-25T14:56:55Z</time>
      </trkpt>
      <trkpt lat="57.530072014778852" lon="-5.696535017341375">
        <ele>4.46</ele>
        <time>2023-08-25T14:56:56Z</time>
      </trkpt>
      <trkpt lat="57.530046030879021" lon="-5.696666026487947">
        <ele>3.02</ele>
        <time>2023-08-25T14:56:57Z</time>
      </trkpt>
      <trkpt lat="57.530012000352144" lon="-5.696826037019491">
        <ele>1.58</ele>
        <time>2023-08-25T14:56:58Z</time>
      </trkpt>
      <trkpt lat="57.529955003410578" lon="-5.696945982053876">
        <ele>0.14</ele>
        <time>2023-08-25T14:56:59Z</time>
      </trkpt>
      <trkpt lat="57.529833968728781" lon="-5.697201965376735">
        <ele>-2.75</ele>
        <time>2023-08-25T14:57:01Z</time>
      </trkpt>
      <trkpt lat="57.529772026464343" lon="-5.697333980351687">
        <ele>-4.67</ele>
        <time>2023-08-25T14:57:02Z</time>
      </trkpt>
      <trkpt lat="57.529713017866015" lon="-5.697459038347006">
        <ele>-5.63</ele>
        <time>2023-08-25T14:57:03Z</time>
      </trkpt>
      <trkpt lat="57.529649985954165" lon="-5.697590969502926">
        <ele>-7.07</ele>
        <time>2023-08-25T14:57:04Z</time>
      </trkpt>
      <trkpt lat="57.529649985954165" lon="-5.697665987536311">
        <ele>-8.029999999999999</ele>
        <time>2023-08-25T14:57:05Z</time>
      </trkpt>
      <trkpt lat="57.529649985954165" lon="-5.697793979197741">
        <ele>-9.48</ele>
        <time>2023-08-25T14:57:06Z</time>
      </trkpt>
      <trkpt lat="57.529649985954165" lon="-5.697934962809086">
        <ele>-10.44</ele>
        <time>2023-08-25T14:57:07Z</time>
      </trkpt>
      <trkpt lat="57.529694996774197" lon="-5.698067983612418">
        <ele>-11.880000000000001</ele>
        <time>2023-08-25T14:57:08Z</time>
      </trkpt>
      <trkpt lat="57.529748976230621" lon="-5.69819999858737">
        <ele>-11.880000000000001</ele>
        <time>2023-08-25T14:57:09Z</time>
      </trkpt>
      <trkpt lat="57.529843021184206" lon="-5.698258001357317">
        <ele>-12.84</ele>
        <time>2023-08-25T14:57:10Z</time>
      </trkpt>
      <trkpt lat="57.529942011460662" lon="-5.698321033269167">
        <ele>-13.32</ele>
        <time>2023-08-25T14:57:11Z</time>
      </trkpt>
      <trkpt lat="57.530047036707401" lon="-5.698385993018746">
        <ele>-14.279999999999999</ele>
        <time>2023-08-25T14:57:12Z</time>
      </trkpt>
      <trkpt lat="57.530154995620251" lon="-5.698453970253468">
        <ele>-14.76</ele>
        <time>2023-08-25T14:57:13Z</time>
      </trkpt>
      <trkpt lat="57.530268989503384" lon="-5.698524964973331">
        <ele>-14.76</ele>
        <time>2023-08-25T14:57:14Z</time>
      </trkpt>
      <trkpt lat="57.530422965064645" lon="-5.698621021583676">
        <ele>-14.76</ele>
        <time>2023-08-25T14:57:15Z</time>
      </trkpt>
      <trkpt lat="57.530503012239933" lon="-5.698709031566978">
        <ele>-15.24</ele>
        <time>2023-08-25T14:57:16Z</time>
      </trkpt>
      <trkpt lat="57.531038029119372" lon="-5.699216974899173">
        <ele>-17.170000000000002</ele>
        <time>2023-08-25T14:57:22Z</time>
      </trkpt>
      <trkpt lat="57.531190998852253" lon="-5.69931898266077">
        <ele>-18.129999999999999</ele>
        <time>2023-08-25T14:57:26Z</time>
      </trkpt>
      <trkpt lat="57.531200973317027" lon="-5.699326023459435">
        <ele>-19.09</ele>
        <time>2023-08-25T14:57:33Z</time>
      </trkpt>
      <trkpt lat="57.531221006065607" lon="-5.69933901540935">
        <ele>-19.09</ele>
        <time>2023-08-25T14:57:34Z</time>
      </trkpt>
      <trkpt lat="57.531313961371779" lon="-5.69940104149282">
        <ele>-19.57</ele>
        <time>2023-08-25T14:57:36Z</time>
      </trkpt>
      <trkpt lat="57.531440025195479" lon="-5.699485028162599">
        <ele>-20.050000000000001</ele>
        <time>2023-08-25T14:57:38Z</time>
      </trkpt>
      <trkpt lat="57.531511019915342" lon="-5.69953297264874">
        <ele>-20.050000000000001</ele>
        <time>2023-08-25T14:57:39Z</time>
      </trkpt>
      <trkpt lat="57.531598024070263" lon="-5.699629029259086">
        <ele>-20.050000000000001</ele>
        <time>2023-08-25T14:57:40Z</time>
      </trkpt>
      <trkpt lat="57.531655021011829" lon="-5.6997250020504">
        <ele>-20.050000000000001</ele>
        <time>2023-08-25T14:57:41Z</time>
      </trkpt>
      <trkpt lat="57.531715035438538" lon="-5.699826003983617">
        <ele>-20.050000000000001</ele>
        <time>2023-08-25T14:57:42Z</time>
      </trkpt>
      <trkpt lat="57.531779995188117" lon="-5.699934968724847">
        <ele>-20.050000000000001</ele>
        <time>2023-08-25T14:57:43Z</time>
      </trkpt>
      <trkpt lat="57.531966995447874" lon="-5.700250966474414">
        <ele>-19.57</ele>
        <time>2023-08-25T14:57:46Z</time>
      </trkpt>
      <trkpt lat="57.532107979059219" lon="-5.700435033068061">
        <ele>-19.57</ele>
        <time>2023-08-25T14:57:48Z</time>
      </trkpt>
      <trkpt lat="57.53219498321414" lon="-5.70052295923233">
        <ele>-19.57</ele>
        <time>2023-08-25T14:57:49Z</time>
      </trkpt>
      <trkpt lat="57.532286010682583" lon="-5.700577022507787">
        <ele>-19.57</ele>
        <time>2023-08-25T14:57:50Z</time>
      </trkpt>
      <trkpt lat="57.533282032236457" lon="-5.701133999973536">
        <ele>-13.32</ele>
        <time>2023-08-25T14:57:58Z</time>
      </trkpt>
      <trkpt lat="57.533717975020409" lon="-5.701271966099739">
        <ele>-10.92</ele>
        <time>2023-08-25T14:58:01Z</time>
      </trkpt>
      <trkpt lat="57.533872034400702" lon="-5.701255034655333">
        <ele>-10.44</ele>
        <time>2023-08-25T14:58:02Z</time>
      </trkpt>
      <trkpt lat="57.534025004133582" lon="-5.701185967773199">
        <ele>-9.960000000000001</ele>
        <time>2023-08-25T14:58:03Z</time>
      </trkpt>
      <trkpt lat="57.534167999401689" lon="-5.701072979718447">
        <ele>-9</ele>
        <time>2023-08-25T14:58:04Z</time>
      </trkpt>
      <trkpt lat="57.53430001437664" lon="-5.700968038290739">
        <ele>-8.51</ele>
        <time>2023-08-25T14:58:05Z</time>
      </trkpt>
      <trkpt lat="57.534539988264441" lon="-5.70077701471746">
        <ele>-7.55</ele>
        <time>2023-08-25T14:58:07Z</time>
      </trkpt>
      <trkpt lat="57.534655993804336" lon="-5.700727980583906">
        <ele>-7.55</ele>
        <time>2023-08-25T14:58:08Z</time>
      </trkpt>
      <trkpt lat="57.534777028486133" lon="-5.700738960877061">
        <ele>-7.55</ele>
        <time>2023-08-25T14:58:09Z</time>
      </trkpt>
      <trkpt lat="57.534863026812673" lon="-5.700746001675725">
        <ele>-7.55</ele>
        <time>2023-08-25T14:58:10Z</time>
      </trkpt>
      <trkpt lat="57.534916000440717" lon="-5.700751030817628">
        <ele>-7.55</ele>
        <time>2023-08-25T14:58:11Z</time>
      </trkpt>
      <trkpt lat="57.534956987947226" lon="-5.700753964483738">
        <ele>-7.55</ele>
        <time>2023-08-25T14:58:12Z</time>
      </trkpt>
      <trkpt lat="57.534983977675438" lon="-5.70075698196888">
        <ele>-7.55</ele>
        <time>2023-08-25T14:58:13Z</time>
      </trkpt>
      <trkpt lat="57.535091014578938" lon="-5.700766034424305">
        <ele>-7.07</ele>
        <time>2023-08-25T14:58:20Z</time>
      </trkpt>
      <trkpt lat="57.535486975684762" lon="-5.701040038838983">
        <ele>-7.55</ele>
        <time>2023-08-25T14:58:25Z</time>
      </trkpt>
      <trkpt lat="57.535535003989935" lon="-5.701107010245323">
        <ele>-7.55</ele>
        <time>2023-08-25T14:58:26Z</time>
      </trkpt>
      <trkpt lat="57.535568028688431" lon="-5.701154032722116">
        <ele>-6.11</ele>
        <time>2023-08-25T14:58:31Z</time>
      </trkpt>
      <trkpt lat="57.53558998927474" lon="-5.701185967773199">
        <ele>-5.63</ele>
        <time>2023-08-25T14:58:32Z</time>
      </trkpt>
      <trkpt lat="57.535628965124488" lon="-5.701240031048656">
        <ele>-5.63</ele>
        <time>2023-08-25T14:58:33Z</time>
      </trkpt>
      <trkpt lat="57.535744970664382" lon="-5.701403981074691">
        <ele>-4.67</ele>
        <time>2023-08-25T14:58:35Z</time>
      </trkpt>
      <trkpt lat="57.536401022225618" lon="-5.702708959579468">
        <ele>3.02</ele>
        <time>2023-08-25T14:58:44Z</time>
      </trkpt>
      <trkpt lat="57.536624986678362" lon="-5.703351013362408">
        <ele>7.83</ele>
        <time>2023-08-25T14:58:48Z</time>
      </trkpt>
      <trkpt lat="57.536883987486362" lon="-5.704360026866198">
        <ele>10.23</ele>
        <time>2023-08-25T14:58:54Z</time>
      </trkpt>
      <trkpt lat="57.536974009126425" lon="-5.704521965235472">
        <ele>10.23</ele>
        <time>2023-08-25T14:58:55Z</time>
      </trkpt>
      <trkpt lat="57.537055984139442" lon="-5.704621039330959">
        <ele>10.23</ele>
        <time>2023-08-25T14:58:56Z</time>
      </trkpt>
      <trkpt lat="57.537147011607885" lon="-5.704730004072189">
        <ele>10.23</ele>
        <time>2023-08-25T14:58:57Z</time>
      </trkpt>
      <trkpt lat="57.537248013541102" lon="-5.704851038753986">
        <ele>9.75</ele>
        <time>2023-08-25T14:58:58Z</time>
      </trkpt>
      <trkpt lat="57.538115959614515" lon="-5.705897016450763">
        <ele>7.83</ele>
        <time>2023-08-25T14:59:06Z</time>
      </trkpt>
      <trkpt lat="57.539101000875235" lon="-5.707081966102123">
        <ele>7.83</ele>
        <time>2023-08-25T14:59:15Z</time>
      </trkpt>
      <trkpt lat="57.53924198448658" lon="-5.707280030474067">
        <ele>6.39</ele>
        <time>2023-08-25T14:59:19Z</time>
      </trkpt>
      <trkpt lat="57.539309961721301" lon="-5.707433000206947">
        <ele>6.87</ele>
        <time>2023-08-25T14:59:23Z</time>
      </trkpt>
      <trkpt lat="57.539360001683235" lon="-5.707565015181899">
        <ele>6.87</ele>
        <time>2023-08-25T14:59:24Z</time>
      </trkpt>
      <trkpt lat="57.539415992796421" lon="-5.707711027935147">
        <ele>7.35</ele>
        <time>2023-08-25T14:59:25Z</time>
      </trkpt>
      <trkpt lat="57.539467960596085" lon="-5.707877995446324">
        <ele>7.35</ele>
        <time>2023-08-25T14:59:26Z</time>
      </trkpt>
      <trkpt lat="57.53952001221478" lon="-5.708060972392559">
        <ele>7.83</ele>
        <time>2023-08-25T14:59:27Z</time>
      </trkpt>
      <trkpt lat="57.539637023583055" lon="-5.708471015095711">
        <ele>9.75</ele>
        <time>2023-08-25T14:59:32Z</time>
      </trkpt>
      <trkpt lat="57.539652027189732" lon="-5.708526000380516">
        <ele>11.19</ele>
        <time>2023-08-25T14:59:48Z</time>
      </trkpt>
      <trkpt lat="57.53990700468421" lon="-5.709424037486315">
        <ele>14.56</ele>
        <time>2023-08-25T14:59:54Z</time>
      </trkpt>
      <trkpt lat="57.539954027161002" lon="-5.709589999169111">
        <ele>15.039999999999999</ele>
        <time>2023-08-25T14:59:55Z</time>
      </trkpt>
      <trkpt lat="57.539998032152653" lon="-5.709742968901992">
        <ele>15.52</ele>
        <time>2023-08-25T14:59:56Z</time>
      </trkpt>
      <trkpt lat="57.54001404158771" lon="-5.709800971671939">
        <ele>15.52</ele>
        <time>2023-08-25T14:59:57Z</time>
      </trkpt>
      <trkpt lat="57.54001404158771" lon="-5.710015967488289">
        <ele>15.52</ele>
        <time>2023-08-25T14:59:58Z</time>
      </trkpt>
      <trkpt lat="57.54001404158771" lon="-5.710123004391789">
        <ele>16</ele>
        <time>2023-08-25T14:59:59Z</time>
      </trkpt>
      <trkpt lat="57.539982022717595" lon="-5.710171032696962">
        <ele>16</ele>
        <time>2023-08-25T15:00:00Z</time>
      </trkpt>
      <trkpt lat="57.539915973320603" lon="-5.710270022973418">
        <ele>15.52</ele>
        <time>2023-08-25T15:00:01Z</time>
      </trkpt>
      <trkpt lat="57.539840033277869" lon="-5.710385022684932">
        <ele>16</ele>
        <time>2023-08-25T15:00:02Z</time>
      </trkpt>
      <trkpt lat="57.539756968617439" lon="-5.710508991032839">
        <ele>16</ele>
        <time>2023-08-25T15:00:03Z</time>
      </trkpt>
      <trkpt lat="57.53964900970459" lon="-5.710575040429831">
        <ele>16</ele>
        <time>2023-08-25T15:00:04Z</time>
      </trkpt>
      <trkpt lat="57.539527975022793" lon="-5.710648968815804">
        <ele>16</ele>
        <time>2023-08-25T15:00:05Z</time>
      </trkpt>
      <trkpt lat="57.538489038124681" lon="-5.711487997323275">
        <ele>18.879999999999999</ele>
        <time>2023-08-25T15:00:13Z</time>
      </trkpt>
      <trkpt lat="57.538379989564419" lon="-5.711640967056155">
        <ele>19.359999999999999</ele>
        <time>2023-08-25T15:00:14Z</time>
      </trkpt>
      <trkpt lat="57.538040019571781" lon="-5.712031982839108">
        <ele>19.84</ele>
        <time>2023-08-25T15:00:17Z</time>
      </trkpt>
      <trkpt lat="57.537922002375126" lon="-5.712133990600705">
        <ele>19.84</ele>
        <time>2023-08-25T15:00:18Z</time>
      </trkpt>
      <trkpt lat="57.537808008491993" lon="-5.712157962843776">
        <ele>20.809999999999999</ele>
        <time>2023-08-25T15:00:19Z</time>
      </trkpt>
      <trkpt lat="57.537687979638577" lon="-5.712152011692524">
        <ele>21.77</ele>
        <time>2023-08-25T15:00:20Z</time>
      </trkpt>
      <trkpt lat="57.537569962441921" lon="-5.712146982550621">
        <ele>22.73</ele>
        <time>2023-08-25T15:00:21Z</time>
      </trkpt>
      <trkpt lat="57.537219012156129" lon="-5.71216500364244">
        <ele>26.57</ele>
        <time>2023-08-25T15:00:24Z</time>
      </trkpt>
      <trkpt lat="57.537095965817571" lon="-5.712183024734259">
        <ele>27.530000000000001</ele>
        <time>2023-08-25T15:00:25Z</time>
      </trkpt>
      <trkpt lat="57.536996975541115" lon="-5.712249996140599">
        <ele>28.98</ele>
        <time>2023-08-25T15:00:26Z</time>
      </trkpt>
      <trkpt lat="57.536623980849981" lon="-5.712503967806697">
        <ele>31.379999999999999</ele>
        <time>2023-08-25T15:00:29Z</time>
      </trkpt>
      <trkpt lat="57.536184014752507" lon="-5.71261896751821">
        <ele>32.340000000000003</ele>
        <time>2023-08-25T15:00:33Z</time>
      </trkpt>
      <trkpt lat="57.536099022254348" lon="-5.712691973894835">
        <ele>32.340000000000003</ele>
        <time>2023-08-25T15:00:34Z</time>
      </trkpt>
      <trkpt lat="57.536050993949175" lon="-5.712780989706516">
        <ele>32.340000000000003</ele>
        <time>2023-08-25T15:00:35Z</time>
      </trkpt>
      <trkpt lat="57.536015035584569" lon="-5.712847039103508">
        <ele>32.340000000000003</ele>
        <time>2023-08-25T15:00:36Z</time>
      </trkpt>
      <trkpt lat="57.535990979522467" lon="-5.712891966104507">
        <ele>32.82</ele>
        <time>2023-08-25T15:00:37Z</time>
      </trkpt>
      <trkpt lat="57.535979999229312" lon="-5.712911998853087">
        <ele>32.340000000000003</ele>
        <time>2023-08-25T15:00:38Z</time>
      </trkpt>
      <trkpt lat="57.535979999229312" lon="-5.713029010221362">
        <ele>32.82</ele>
        <time>2023-08-25T15:00:41Z</time>
      </trkpt>
      <trkpt lat="57.535979999229312" lon="-5.713212992995977">
        <ele>32.82</ele>
        <time>2023-08-25T15:00:45Z</time>
      </trkpt>
      <trkpt lat="57.535979999229312" lon="-5.713212992995977">
        <ele>33.299999999999997</ele>
        <time>2023-08-25T15:00:46Z</time>
      </trkpt>
      <trkpt lat="57.535992991179228" lon="-5.713237971067429">
        <ele>34.259999999999998</ele>
        <time>2023-08-25T15:01:01Z</time>
      </trkpt>
      <trkpt lat="57.536068009212613" lon="-5.713391024619341">
        <ele>35.710000000000001</ele>
        <time>2023-08-25T15:01:21Z</time>
      </trkpt>
      <trkpt lat="57.536100028082728" lon="-5.713456990197301">
        <ele>35.710000000000001</ele>
        <time>2023-08-25T15:01:22Z</time>
      </trkpt>
      <trkpt lat="57.536197006702423" lon="-5.713653964921832">
        <ele>37.149999999999999</ele>
        <time>2023-08-25T15:01:24Z</time>
      </trkpt>
      <trkpt lat="57.536257021129131" lon="-5.71377701126039">
        <ele>37.149999999999999</ele>
        <time>2023-08-25T15:01:25Z</time>
      </trkpt>
      <trkpt lat="57.536821961402893" lon="-5.71474595926702">
        <ele>42.920000000000002</ele>
        <time>2023-08-25T15:01:31Z</time>
      </trkpt>
      <trkpt lat="57.537770038470626" lon="-5.715776011347771">
        <ele>53.969999999999999</ele>
        <time>2023-08-25T15:01:39Z</time>
      </trkpt>
      <trkpt lat="57.53844503313303" lon="-5.716511020436883">
        <ele>64.069999999999993</ele>
        <time>2023-08-25T15:01:46Z</time>
      </trkpt>
      <trkpt lat="57.538522984832525" lon="-5.716667007654905">
        <ele>65.510000000000005</ele>
        <time>2023-08-25T15:01:47Z</time>
      </trkpt>
      <trkpt lat="57.538676960393786" lon="-5.716975964605808">
        <ele>68.390000000000001</ele>
        <time>2023-08-25T15:01:49Z</time>
      </trkpt>
      <trkpt lat="57.538742003962398" lon="-5.717121977359057">
        <ele>69.829999999999998</ele>
        <time>2023-08-25T15:01:50Z</time>
      </trkpt>
      <trkpt lat="57.539046015590429" lon="-5.717936027795076">
        <ele>78</ele>
        <time>2023-08-25T15:01:55Z</time>
      </trkpt>
      <trkpt lat="57.539135031402111" lon="-5.718105006963015">
        <ele>78.969999999999999</ele>
        <time>2023-08-25T15:01:56Z</time>
      </trkpt>
      <trkpt lat="57.539223041385412" lon="-5.718201985582709">
        <ele>79.930000000000007</ele>
        <time>2023-08-25T15:01:57Z</time>
      </trkpt>
      <trkpt lat="57.539678011089563" lon="-5.718627031892538">
        <ele>82.329999999999998</ele>
        <time>2023-08-25T15:02:01Z</time>
      </trkpt>
      <trkpt lat="57.539793010801077" lon="-5.718677993863821">
        <ele>83.290000000000006</ele>
        <time>2023-08-25T15:02:02Z</time>
      </trkpt>
      <trkpt lat="57.539989985525608" lon="-5.718763992190361">
        <ele>84.730000000000004</ele>
        <time>2023-08-25T15:02:04Z</time>
      </trkpt>
      <trkpt lat="57.540062991902232" lon="-5.718797016888857">
        <ele>85.209999999999994</ele>
        <time>2023-08-25T15:02:05Z</time>
      </trkpt>
      <trkpt lat="57.540116971358657" lon="-5.718838004395366">
        <ele>85.689999999999998</ele>
        <time>2023-08-25T15:02:06Z</time>
      </trkpt>
      <trkpt lat="57.540313024073839" lon="-5.719145033508539">
        <ele>89.060000000000002</ele>
        <time>2023-08-25T15:02:12Z</time>
      </trkpt>
      <trkpt lat="57.54044403322041" lon="-5.719348965212703">
        <ele>90.019999999999996</ele>
        <time>2023-08-25T15:02:14Z</time>
      </trkpt>
      <trkpt lat="57.54055299796164" lon="-5.719405962154269">
        <ele>90.5</ele>
        <time>2023-08-25T15:02:15Z</time>
      </trkpt>
      <trkpt lat="57.540666991844773" lon="-5.719463964924216">
        <ele>90.980000000000004</ele>
        <time>2023-08-25T15:02:16Z</time>
      </trkpt>
      <trkpt lat="57.540790038183331" lon="-5.719526996836066">
        <ele>91.459999999999994</ele>
        <time>2023-08-25T15:02:17Z</time>
      </trkpt>
      <trkpt lat="57.540915012359619" lon="-5.719592040404677">
        <ele>91.939999999999998</ele>
        <time>2023-08-25T15:02:18Z</time>
      </trkpt>
      <trkpt lat="57.541334023699164" lon="-5.719853974878788">
        <ele>94.349999999999994</ele>
        <time>2023-08-25T15:02:22Z</time>
      </trkpt>
      <trkpt lat="57.541397977620363" lon="-5.719980960711837">
        <ele>94.829999999999998</ele>
        <time>2023-08-25T15:02:23Z</time>
      </trkpt>
      <trkpt lat="57.541462015360594" lon="-5.720155974850059">
        <ele>95.310000000000002</ele>
        <time>2023-08-25T15:02:24Z</time>
      </trkpt>
      <trkpt lat="57.541652033105493" lon="-5.720495022833347">
        <ele>97.230000000000004</ele>
        <time>2023-08-25T15:02:27Z</time>
      </trkpt>
      <trkpt lat="57.541680028662086" lon="-5.720629971474409">
        <ele>97.709999999999994</ele>
        <time>2023-08-25T15:02:28Z</time>
      </trkpt>
      <trkpt lat="57.541711963713169" lon="-5.72078000754118">
        <ele>98.670000000000002</ele>
        <time>2023-08-25T15:02:29Z</time>
      </trkpt>
      <trkpt lat="57.541728978976607" lon="-5.72093297727406">
        <ele>99.629999999999995</ele>
        <time>2023-08-25T15:02:30Z</time>
      </trkpt>
      <trkpt lat="57.541723027825356" lon="-5.721143027767539">
        <ele>100.59999999999999</ele>
        <time>2023-08-25T15:02:31Z</time>
      </trkpt>
      <trkpt lat="57.54166703671217" lon="-5.722589995712042">
        <ele>109.73</ele>
        <time>2023-08-25T15:02:38Z</time>
      </trkpt>
      <trkpt lat="57.541619008406997" lon="-5.722756963223219">
        <ele>111.17</ele>
        <time>2023-08-25T15:02:39Z</time>
      </trkpt>
      <trkpt lat="57.541524041444063" lon="-5.723089976236224">
        <ele>113.09</ele>
        <time>2023-08-25T15:02:41Z</time>
      </trkpt>
      <trkpt lat="57.541489005088806" lon="-5.72327496483922">
        <ele>114.05</ele>
        <time>2023-08-25T15:02:42Z</time>
      </trkpt>
      <trkpt lat="57.541474001482129" lon="-5.723461965098977">
        <ele>115.01000000000001</ele>
        <time>2023-08-25T15:02:43Z</time>
      </trkpt>
      <trkpt lat="57.541460003703833" lon="-5.723645025864244">
        <ele>115.98</ele>
        <time>2023-08-25T15:02:44Z</time>
      </trkpt>
      <trkpt lat="57.541447011753917" lon="-5.723821967840195">
        <ele>116.45999999999999</ele>
        <time>2023-08-25T15:02:45Z</time>
      </trkpt>
      <trkpt lat="57.541434019804001" lon="-5.723991030827165">
        <ele>117.42</ele>
        <time>2023-08-25T15:02:46Z</time>
      </trkpt>
      <trkpt lat="57.541395965963602" lon="-5.724136959761381">
        <ele>117.90000000000001</ele>
        <time>2023-08-25T15:02:47Z</time>
      </trkpt>
      <trkpt lat="57.54134701564908" lon="-5.724291019141674">
        <ele>118.86</ele>
        <time>2023-08-25T15:02:48Z</time>
      </trkpt>
      <trkpt lat="57.541295969858766" lon="-5.724450023844838">
        <ele>120.3</ele>
        <time>2023-08-25T15:02:49Z</time>
      </trkpt>
      <trkpt lat="57.541049038991332" lon="-5.725094005465508">
        <ele>124.15000000000001</ele>
        <time>2023-08-25T15:02:53Z</time>
      </trkpt>
      <trkpt lat="57.540966980159283" lon="-5.725195007398725">
        <ele>125.59</ele>
        <time>2023-08-25T15:02:54Z</time>
      </trkpt>
      <trkpt lat="57.540875030681491" lon="-5.725279999896884">
        <ele>126.55</ele>
        <time>2023-08-25T15:02:55Z</time>
      </trkpt>
      <trkpt lat="57.540780985727906" lon="-5.725364992395043">
        <ele>127.51000000000001</ele>
        <time>2023-08-25T15:02:56Z</time>
      </trkpt>
      <trkpt lat="57.540685012936592" lon="-5.725394999608398">
        <ele>128.47</ele>
        <time>2023-08-25T15:02:57Z</time>
      </trkpt>
      <trkpt lat="57.540578981861472" lon="-5.725416038185358">
        <ele>129.43000000000001</ele>
        <time>2023-08-25T15:02:58Z</time>
      </trkpt>
      <trkpt lat="57.540471022948623" lon="-5.725389970466495">
        <ele>130.40000000000001</ele>
        <time>2023-08-25T15:02:59Z</time>
      </trkpt>
      <trkpt lat="57.540367003530264" lon="-5.725348982959986">
        <ele>131.84</ele>
        <time>2023-08-25T15:03:00Z</time>
      </trkpt>
      <trkpt lat="57.540256027132273" lon="-5.725359041243792">
        <ele>132.80000000000001</ele>
        <time>2023-08-25T15:03:01Z</time>
      </trkpt>
      <trkpt lat="57.540149996057153" lon="-5.725405979901552">
        <ele>133.75999999999999</ele>
        <time>2023-08-25T15:03:02Z</time>
      </trkpt>
      <trkpt lat="57.540046982467175" lon="-5.725483009591699">
        <ele>134.24000000000001</ele>
        <time>2023-08-25T15:03:03Z</time>
      </trkpt>
      <trkpt lat="57.539942041039467" lon="-5.725561967119575">
        <ele>134.72</ele>
        <time>2023-08-25T15:03:04Z</time>
      </trkpt>
      <trkpt lat="57.539840033277869" lon="-5.72563799098134">
        <ele>135.19999999999999</ele>
        <time>2023-08-25T15:03:05Z</time>
      </trkpt>
      <trkpt lat="57.539644986391068" lon="-5.725776040926576">
        <ele>134.72</ele>
        <time>2023-08-25T15:03:07Z</time>
      </trkpt>
      <trkpt lat="57.539528980851173" lon="-5.725823985412717">
        <ele>134.24000000000001</ele>
        <time>2023-08-25T15:03:08Z</time>
      </trkpt>
      <trkpt lat="57.53881199285388" lon="-5.726121040061116">
        <ele>127.51000000000001</ele>
        <time>2023-08-25T15:03:14Z</time>
      </trkpt>
      <trkpt lat="57.538733035326004" lon="-5.726227993145585">
        <ele>126.55</ele>
        <time>2023-08-25T15:03:15Z</time>
      </trkpt>
      <trkpt lat="57.538670003414154" lon="-5.726333018392324">
        <ele>125.59</ele>
        <time>2023-08-25T15:03:16Z</time>
      </trkpt>
      <trkpt lat="57.538605965673923" lon="-5.726438965648413">
        <ele>124.63</ele>
        <time>2023-08-25T15:03:17Z</time>
      </trkpt>
      <trkpt lat="57.538537988439202" lon="-5.726552959531546">
        <ele>123.67</ele>
        <time>2023-08-25T15:03:18Z</time>
      </trkpt>
      <trkpt lat="57.538270018994808" lon="-5.726952021941543">
        <ele>119.81999999999999</ele>
        <time>2023-08-25T15:03:21Z</time>
      </trkpt>
      <trkpt lat="57.538150995969772" lon="-5.727070039138198">
        <ele>118.38</ele>
        <time>2023-08-25T15:03:22Z</time>
      </trkpt>
      <trkpt lat="57.537339963018894" lon="-5.727933961898089">
        <ele>106.84</ele>
        <time>2023-08-25T15:03:29Z</time>
      </trkpt>
      <trkpt lat="57.537252036854625" lon="-5.728080980479717">
        <ele>104.92</ele>
        <time>2023-08-25T15:03:30Z</time>
      </trkpt>
      <trkpt lat="57.537201996892691" lon="-5.728284996002913">
        <ele>103.48</ele>
        <time>2023-08-25T15:03:31Z</time>
      </trkpt>
      <trkpt lat="57.537167966365814" lon="-5.728512983769178">
        <ele>102.52</ele>
        <time>2023-08-25T15:03:32Z</time>
      </trkpt>
      <trkpt lat="57.537134019657969" lon="-5.728746000677347">
        <ele>101.56</ele>
        <time>2023-08-25T15:03:33Z</time>
      </trkpt>
      <trkpt lat="57.536932015791535" lon="-5.729887029156089">
        <ele>100.59999999999999</ele>
        <time>2023-08-25T15:03:38Z</time>
      </trkpt>
      <trkpt lat="57.536865966394544" lon="-5.730061959475279">
        <ele>100.11</ele>
        <time>2023-08-25T15:03:39Z</time>
      </trkpt>
      <trkpt lat="57.536767981946468" lon="-5.730197997763753">
        <ele>100.11</ele>
        <time>2023-08-25T15:03:40Z</time>
      </trkpt>
      <trkpt lat="57.536668991670012" lon="-5.730326995253563">
        <ele>99.629999999999995</ele>
        <time>2023-08-25T15:03:41Z</time>
      </trkpt>
      <trkpt lat="57.536550974473357" lon="-5.730432020500302">
        <ele>99.150000000000006</ele>
        <time>2023-08-25T15:03:42Z</time>
      </trkpt>
      <trkpt lat="57.536301026120782" lon="-5.730628995224834">
        <ele>97.709999999999994</ele>
        <time>2023-08-25T15:03:44Z</time>
      </trkpt>
      <trkpt lat="57.536184014752507" lon="-5.730677023530006">
        <ele>97.709999999999994</ele>
        <time>2023-08-25T15:03:45Z</time>
      </trkpt>
      <trkpt lat="57.536058034747839" lon="-5.730670988559723">
        <ele>97.230000000000004</ele>
        <time>2023-08-25T15:03:46Z</time>
      </trkpt>
      <trkpt lat="57.535928031429648" lon="-5.730665037408471">
        <ele>96.75</ele>
        <time>2023-08-25T15:03:47Z</time>
      </trkpt>
      <trkpt lat="57.535800039768219" lon="-5.730659002438188">
        <ele>97.230000000000004</ele>
        <time>2023-08-25T15:03:48Z</time>
      </trkpt>
      <trkpt lat="57.535670958459377" lon="-5.730653973296285">
        <ele>97.230000000000004</ele>
        <time>2023-08-25T15:03:49Z</time>
      </trkpt>
      <trkpt lat="57.53462397493422" lon="-5.730812977999449">
        <ele>96.75</ele>
        <time>2023-08-25T15:03:57Z</time>
      </trkpt>
      <trkpt lat="57.534508975222707" lon="-5.730884978547692">
        <ele>97.230000000000004</ele>
        <time>2023-08-25T15:03:58Z</time>
      </trkpt>
      <trkpt lat="57.53440503962338" lon="-5.730988997966051">
        <ele>97.230000000000004</ele>
        <time>2023-08-25T15:03:59Z</time>
      </trkpt>
      <trkpt lat="57.534295991063118" lon="-5.731097962707281">
        <ele>97.230000000000004</ele>
        <time>2023-08-25T15:04:00Z</time>
      </trkpt>
      <trkpt lat="57.533572968095541" lon="-5.731881000101566">
        <ele>93.390000000000001</ele>
        <time>2023-08-25T15:04:07Z</time>
      </trkpt>
      <trkpt lat="57.533497028052807" lon="-5.732007985934615">
        <ele>92.900000000000006</ele>
        <time>2023-08-25T15:04:08Z</time>
      </trkpt>
      <trkpt lat="57.533427039161325" lon="-5.732159027829766">
        <ele>92.420000000000002</ele>
        <time>2023-08-25T15:04:09Z</time>
      </trkpt>
      <trkpt lat="57.533086985349655" lon="-5.733064021915197">
        <ele>89.060000000000002</ele>
        <time>2023-08-25T15:04:14Z</time>
      </trkpt>
      <trkpt lat="57.533058989793062" lon="-5.733277006074786">
        <ele>88.579999999999998</ele>
        <time>2023-08-25T15:04:15Z</time>
      </trkpt>
      <trkpt lat="57.533050021156669" lon="-5.733511028811336">
        <ele>88.099999999999994</ele>
        <time>2023-08-25T15:04:16Z</time>
      </trkpt>
      <trkpt lat="57.533041974529624" lon="-5.733743961900473">
        <ele>88.099999999999994</ele>
        <time>2023-08-25T15:04:17Z</time>
      </trkpt>
      <trkpt lat="57.533053960651159" lon="-5.73399399407208">
        <ele>87.140000000000001</ele>
        <time>2023-08-25T15:04:18Z</time>
      </trkpt>
      <trkpt lat="57.533067036420107" lon="-5.734255006536841">
        <ele>87.140000000000001</ele>
        <time>2023-08-25T15:04:19Z</time>
      </trkpt>
      <trkpt lat="57.533080028370023" lon="-5.734519036486745">
        <ele>86.659999999999997</ele>
        <time>2023-08-25T15:04:20Z</time>
      </trkpt>
      <trkpt lat="57.533125039190054" lon="-5.734772002324462">
        <ele>86.659999999999997</ele>
        <time>2023-08-25T15:04:21Z</time>
      </trkpt>
      <trkpt lat="57.533178012818098" lon="-5.735009964555502">
        <ele>86.180000000000007</ele>
        <time>2023-08-25T15:04:22Z</time>
      </trkpt>
      <trkpt lat="57.533229980617762" lon="-5.735242981463671">
        <ele>86.180000000000007</ele>
        <time>2023-08-25T15:04:23Z</time>
      </trkpt>
      <trkpt lat="57.533278008922935" lon="-5.735459988936782">
        <ele>85.689999999999998</ele>
        <time>2023-08-25T15:04:24Z</time>
      </trkpt>
      <trkpt lat="57.533345986157656" lon="-5.735667021945119">
        <ele>85.689999999999998</ele>
        <time>2023-08-25T15:04:25Z</time>
      </trkpt>
      <trkpt lat="57.533426033332944" lon="-5.735858967527747">
        <ele>85.689999999999998</ele>
        <time>2023-08-25T15:04:26Z</time>
      </trkpt>
      <trkpt lat="57.533509014174342" lon="-5.73605895973742">
        <ele>85.689999999999998</ele>
        <time>2023-08-25T15:04:27Z</time>
      </trkpt>
      <trkpt lat="57.53402098082006" lon="-5.737295961007476">
        <ele>86.180000000000007</ele>
        <time>2023-08-25T15:04:33Z</time>
      </trkpt>
      <trkpt lat="57.534103039652109" lon="-5.737462006509304">
        <ele>86.180000000000007</ele>
        <time>2023-08-25T15:04:34Z</time>
      </trkpt>
      <trkpt lat="57.534203035756946" lon="-5.73758102953434">
        <ele>86.659999999999997</ele>
        <time>2023-08-25T15:04:35Z</time>
      </trkpt>
      <trkpt lat="57.534314012154937" lon="-5.737642971798778">
        <ele>87.140000000000001</ele>
        <time>2023-08-25T15:04:36Z</time>
      </trkpt>
      <trkpt lat="57.534444015473127" lon="-5.737683959305286">
        <ele>87.140000000000001</ele>
        <time>2023-08-25T15:04:37Z</time>
      </trkpt>
      <trkpt lat="57.534582987427711" lon="-5.737701980397105">
        <ele>87.620000000000005</ele>
        <time>2023-08-25T15:04:38Z</time>
      </trkpt>
      <trkpt lat="57.534861015155911" lon="-5.737738022580743">
        <ele>87.620000000000005</ele>
        <time>2023-08-25T15:04:40Z</time>
      </trkpt>
      <trkpt lat="57.534977020695806" lon="-5.737859979271889">
        <ele>87.620000000000005</ele>
        <time>2023-08-25T15:04:41Z</time>
      </trkpt>
      <trkpt lat="57.535086991265416" lon="-5.737979002296925">
        <ele>87.620000000000005</ele>
        <time>2023-08-25T15:04:42Z</time>
      </trkpt>
      <trkpt lat="57.535183969885111" lon="-5.738110011443496">
        <ele>87.620000000000005</ele>
        <time>2023-08-25T15:04:43Z</time>
      </trkpt>
      <trkpt lat="57.535262005403638" lon="-5.738260969519615">
        <ele>87.620000000000005</ele>
        <time>2023-08-25T15:04:44Z</time>
      </trkpt>
      <trkpt lat="57.535302992910147" lon="-5.738450987264514">
        <ele>88.099999999999994</ele>
        <time>2023-08-25T15:04:45Z</time>
      </trkpt>
      <trkpt lat="57.535342974588275" lon="-5.738638993352652">
        <ele>88.579999999999998</ele>
        <time>2023-08-25T15:04:46Z</time>
      </trkpt>
      <trkpt lat="57.535383040085435" lon="-5.738823981955648">
        <ele>88.579999999999998</ele>
        <time>2023-08-25T15:04:47Z</time>
      </trkpt>
      <trkpt lat="57.535421010106802" lon="-5.738996984437108">
        <ele>89.060000000000002</ele>
        <time>2023-08-25T15:04:48Z</time>
      </trkpt>
      <trkpt lat="57.535484964028001" lon="-5.739122964441776">
        <ele>89.060000000000002</ele>
        <time>2023-08-25T15:04:49Z</time>
      </trkpt>
      <trkpt lat="57.535565011203289" lon="-5.739274006336927">
        <ele>89.060000000000002</ele>
        <time>2023-08-25T15:04:50Z</time>
      </trkpt>
      <trkpt lat="57.535665007308125" lon="-5.73943099938333">
        <ele>88.579999999999998</ele>
        <time>2023-08-25T15:04:51Z</time>
      </trkpt>
      <trkpt lat="57.536272024735808" lon="-5.740185035392642">
        <ele>85.209999999999994</ele>
        <time>2023-08-25T15:04:56Z</time>
      </trkpt>
      <trkpt lat="57.536377971991897" lon="-5.740339010953903">
        <ele>84.25</ele>
        <time>2023-08-25T15:04:57Z</time>
      </trkpt>
      <trkpt lat="57.536784997209907" lon="-5.741005958989263">
        <ele>79.930000000000007</ele>
        <time>2023-08-25T15:05:01Z</time>
      </trkpt>
      <trkpt lat="57.536903014406562" lon="-5.741152977570891">
        <ele>78.480000000000004</ele>
        <time>2023-08-25T15:05:02Z</time>
      </trkpt>
      <trkpt lat="57.537043998017907" lon="-5.741232018917799">
        <ele>77.519999999999996</ele>
        <time>2023-08-25T15:05:03Z</time>
      </trkpt>
      <trkpt lat="57.537984028458595" lon="-5.741757983341813">
        <ele>70.310000000000002</ele>
        <time>2023-08-25T15:05:10Z</time>
      </trkpt>
      <trkpt lat="57.538110008463264" lon="-5.741828978061676">
        <ele>69.829999999999998</ele>
        <time>2023-08-25T15:05:11Z</time>
      </trkpt>
      <trkpt lat="57.538241017609835" lon="-5.7419019844383">
        <ele>68.870000000000005</ele>
        <time>2023-08-25T15:05:12Z</time>
      </trkpt>
      <trkpt lat="57.538372026756406" lon="-5.741975996643305">
        <ele>68.390000000000001</ele>
        <time>2023-08-25T15:05:13Z</time>
      </trkpt>
      <trkpt lat="57.538495995104313" lon="-5.742068029940128">
        <ele>67.430000000000007</ele>
        <time>2023-08-25T15:05:14Z</time>
      </trkpt>
      <trkpt lat="57.538591967895627" lon="-5.742208007723093">
        <ele>67.430000000000007</ele>
        <time>2023-08-25T15:05:15Z</time>
      </trkpt>
      <trkpt lat="57.538689030334353" lon="-5.742323007434607">
        <ele>66.950000000000003</ele>
        <time>2023-08-25T15:05:16Z</time>
      </trkpt>
      <trkpt lat="57.538794977590442" lon="-5.742383021861315">
        <ele>66.950000000000003</ele>
        <time>2023-08-25T15:05:17Z</time>
      </trkpt>
      <trkpt lat="57.538915006443858" lon="-5.742400037124753">
        <ele>66.469999999999999</ele>
        <time>2023-08-25T15:05:18Z</time>
      </trkpt>
      <trkpt lat="57.539039980620146" lon="-5.742365000769496">
        <ele>66.469999999999999</ele>
        <time>2023-08-25T15:05:19Z</time>
      </trkpt>
      <trkpt lat="57.539170989766717" lon="-5.742328958585858">
        <ele>65.989999999999995</ele>
        <time>2023-08-25T15:05:20Z</time>
      </trkpt>
      <trkpt lat="57.539308033883572" lon="-5.742255030199885">
        <ele>65.989999999999995</ele>
        <time>2023-08-25T15:05:21Z</time>
      </trkpt>
      <trkpt lat="57.539428984746337" lon="-5.742154028266668">
        <ele>65.510000000000005</ele>
        <time>2023-08-25T15:05:22Z</time>
      </trkpt>
      <trkpt lat="57.540302965790033" lon="-5.741737028583884">
        <ele>59.259999999999998</ele>
        <time>2023-08-25T15:05:30Z</time>
      </trkpt>
      <trkpt lat="57.540393993258476" lon="-5.741757983341813">
        <ele>56.859999999999999</ele>
        <time>2023-08-25T15:05:34Z</time>
      </trkpt>
      <trkpt lat="57.540431963279843" lon="-5.741768041625619">
        <ele>56.369999999999997</ele>
        <time>2023-08-25T15:05:36Z</time>
      </trkpt>
      <trkpt lat="57.540484014898539" lon="-5.741780027747154">
        <ele>55.890000000000001</ele>
        <time>2023-08-25T15:05:37Z</time>
      </trkpt>
      <trkpt lat="57.540557021275163" lon="-5.741796959191561">
        <ele>55.409999999999997</ele>
        <time>2023-08-25T15:05:38Z</time>
      </trkpt>
      <trkpt lat="57.541362019255757" lon="-5.742054032161832">
        <ele>49.649999999999999</ele>
        <time>2023-08-25T15:05:45Z</time>
      </trkpt>
      <trkpt lat="57.542632967233658" lon="-5.742659959942102">
        <ele>39.549999999999997</ele>
        <time>2023-08-25T15:05:54Z</time>
      </trkpt>
      <trkpt lat="57.54302398301661" lon="-5.742803039029241">
        <ele>35.229999999999997</ele>
        <time>2023-08-25T15:05:57Z</time>
      </trkpt>
      <trkpt lat="57.543144011870027" lon="-5.742803039029241">
        <ele>33.780000000000001</ele>
        <time>2023-08-25T15:05:58Z</time>
      </trkpt>
      <trkpt lat="57.543351966887712" lon="-5.742803039029241">
        <ele>30.899999999999999</ele>
        <time>2023-08-25T15:06:00Z</time>
      </trkpt>
      <trkpt lat="57.54343000240624" lon="-5.742871016263962">
        <ele>29.460000000000001</ele>
        <time>2023-08-25T15:06:01Z</time>
      </trkpt>
      <trkpt lat="57.543502002954483" lon="-5.742977969348431">
        <ele>28.5</ele>
        <time>2023-08-25T15:06:02Z</time>
      </trkpt>
      <trkpt lat="57.543590012937784" lon="-5.743107972666621">
        <ele>27.530000000000001</ele>
        <time>2023-08-25T15:06:03Z</time>
      </trkpt>
      <trkpt lat="57.543691014871001" lon="-5.743258008733392">
        <ele>26.57</ele>
        <time>2023-08-25T15:06:04Z</time>
      </trkpt>
      <trkpt lat="57.544327033683658" lon="-5.744197033345699">
        <ele>20.809999999999999</ele>
        <time>2023-08-25T15:06:09Z</time>
      </trkpt>
      <trkpt lat="57.544386964291334" lon="-5.744346985593438">
        <ele>20.32</ele>
        <time>2023-08-25T15:06:10Z</time>
      </trkpt>
      <trkpt lat="57.544460976496339" lon="-5.744543960317969">
        <ele>19.84</ele>
        <time>2023-08-25T15:06:11Z</time>
      </trkpt>
      <trkpt lat="57.544501964002848" lon="-5.744732972234488">
        <ele>19.84</ele>
        <time>2023-08-25T15:06:12Z</time>
      </trkpt>
      <trkpt lat="57.544537000358105" lon="-5.744896000251174">
        <ele>20.32</ele>
        <time>2023-08-25T15:06:13Z</time>
      </trkpt>
      <trkpt lat="57.544566001743078" lon="-5.745031032711268">
        <ele>20.809999999999999</ele>
        <time>2023-08-25T15:06:14Z</time>
      </trkpt>
      <trkpt lat="57.544601960107684" lon="-5.745133962482214">
        <ele>21.289999999999999</ele>
        <time>2023-08-25T15:06:15Z</time>
      </trkpt>
      <trkpt lat="57.544688964262605" lon="-5.745200011879206">
        <ele>21.289999999999999</ele>
        <time>2023-08-25T15:06:16Z</time>
      </trkpt>
      <trkpt lat="57.544786026701331" lon="-5.74527402408421">
        <ele>21.77</ele>
        <time>2023-08-25T15:06:17Z</time>
      </trkpt>
      <trkpt lat="57.544889962300658" lon="-5.745389023795724">
        <ele>21.77</ele>
        <time>2023-08-25T15:06:18Z</time>
      </trkpt>
      <trkpt lat="57.544970009475946" lon="-5.74555397965014">
        <ele>22.25</ele>
        <time>2023-08-25T15:06:19Z</time>
      </trkpt>
      <trkpt lat="57.545058019459248" lon="-5.745734022930265">
        <ele>22.73</ele>
        <time>2023-08-25T15:06:20Z</time>
      </trkpt>
      <trkpt lat="57.545631006360054" lon="-5.746705988422036">
        <ele>28.5</ele>
        <time>2023-08-25T15:06:27Z</time>
      </trkpt>
      <trkpt lat="57.545705018565059" lon="-5.746830962598324">
        <ele>28.98</ele>
        <time>2023-08-25T15:06:28Z</time>
      </trkpt>
      <trkpt lat="57.545745000243187" lon="-5.746969012543559">
        <ele>29.940000000000001</ele>
        <time>2023-08-25T15:06:29Z</time>
      </trkpt>
      <trkpt lat="57.545785987749696" lon="-5.747113013640046">
        <ele>30.420000000000002</ele>
        <time>2023-08-25T15:06:30Z</time>
      </trkpt>
      <trkpt lat="57.54579696804285" lon="-5.747312000021339">
        <ele>30.899999999999999</ele>
        <time>2023-08-25T15:06:31Z</time>
      </trkpt>
      <trkpt lat="57.545807026326656" lon="-5.74750604107976">
        <ele>31.379999999999999</ele>
        <time>2023-08-25T15:06:32Z</time>
      </trkpt>
      <trkpt lat="57.545936023816466" lon="-5.748907998204231">
        <ele>30.420000000000002</ele>
        <time>2023-08-25T15:06:38Z</time>
      </trkpt>
      <trkpt lat="57.545957984402776" lon="-5.749046970158815">
        <ele>29.940000000000001</ele>
        <time>2023-08-25T15:06:39Z</time>
      </trkpt>
      <trkpt lat="57.546047000214458" lon="-5.74926900677383">
        <ele>29.940000000000001</ele>
        <time>2023-08-25T15:06:40Z</time>
      </trkpt>
      <trkpt lat="57.54611799493432" lon="-5.749446032568812">
        <ele>29.460000000000001</ele>
        <time>2023-08-25T15:06:41Z</time>
      </trkpt>
      <trkpt lat="57.546215979382396" lon="-5.749691035598517">
        <ele>28.98</ele>
        <time>2023-08-25T15:06:42Z</time>
      </trkpt>
      <trkpt lat="57.546299966052175" lon="-5.749803017824888">
        <ele>28.98</ele>
        <time>2023-08-25T15:06:43Z</time>
      </trkpt>
      <trkpt lat="57.547374023124576" lon="-5.750909009948373">
        <ele>27.050000000000001</ele>
        <time>2023-08-25T15:06:51Z</time>
      </trkpt>
      <trkpt lat="57.548561990261078" lon="-5.752263022586703">
        <ele>27.530000000000001</ele>
        <time>2023-08-25T15:07:00Z</time>
      </trkpt>
      <trkpt lat="57.549177976325154" lon="-5.753599014133215">
        <ele>27.050000000000001</ele>
        <time>2023-08-25T15:07:07Z</time>
      </trkpt>
      <trkpt lat="57.549982974305749" lon="-5.755541017279029">
        <ele>22.25</ele>
        <time>2023-08-25T15:07:15Z</time>
      </trkpt>
      <trkpt lat="57.550507010892034" lon="-5.756441988050938">
        <ele>24.649999999999999</ele>
        <time>2023-08-25T15:07:20Z</time>
      </trkpt>
      <trkpt lat="57.550628967583179" lon="-5.756555981934071">
        <ele>25.129999999999999</ele>
        <time>2023-08-25T15:07:21Z</time>
      </trkpt>
      <trkpt lat="57.550770035013556" lon="-5.756636029109359">
        <ele>26.09</ele>
        <time>2023-08-25T15:07:22Z</time>
      </trkpt>
      <trkpt lat="57.550910012796521" lon="-5.756665030494332">
        <ele>27.050000000000001</ele>
        <time>2023-08-25T15:07:23Z</time>
      </trkpt>
      <trkpt lat="57.55105996504426" lon="-5.756695959717035">
        <ele>28.02</ele>
        <time>2023-08-25T15:07:24Z</time>
      </trkpt>
      <trkpt lat="57.551214024424553" lon="-5.756727978587151">
        <ele>28.98</ele>
        <time>2023-08-25T15:07:25Z</time>
      </trkpt>
      <trkpt lat="57.551376968622208" lon="-5.756730996072292">
        <ele>30.420000000000002</ele>
        <time>2023-08-25T15:07:26Z</time>
      </trkpt>
      <trkpt lat="57.551532033830881" lon="-5.756676010787487">
        <ele>31.379999999999999</ele>
        <time>2023-08-25T15:07:27Z</time>
      </trkpt>
      <trkpt lat="57.551694978028536" lon="-5.756595963612199">
        <ele>32.82</ele>
        <time>2023-08-25T15:07:28Z</time>
      </trkpt>
      <trkpt lat="57.553080003708601" lon="-5.755759030580521">
        <ele>46.280000000000001</ele>
        <time>2023-08-25T15:07:37Z</time>
      </trkpt>
      <trkpt lat="57.554409960284829" lon="-5.755374971777201">
        <ele>52.530000000000001</ele>
        <time>2023-08-25T15:07:47Z</time>
      </trkpt>
      <trkpt lat="57.5545409694314" lon="-5.755398022010922">
        <ele>52.530000000000001</ele>
        <time>2023-08-25T15:07:48Z</time>
      </trkpt>
      <trkpt lat="57.554691005498171" lon="-5.755454013124108">
        <ele>52.530000000000001</ele>
        <time>2023-08-25T15:07:49Z</time>
      </trkpt>
      <trkpt lat="57.555059976875782" lon="-5.755589967593551">
        <ele>53.009999999999998</ele>
        <time>2023-08-25T15:07:52Z</time>
      </trkpt>
      <trkpt lat="57.555163996294141" lon="-5.75567496009171">
        <ele>53.490000000000002</ele>
        <time>2023-08-25T15:07:53Z</time>
      </trkpt>
      <trkpt lat="57.555240020155907" lon="-5.755785014480352">
        <ele>53.490000000000002</ele>
        <time>2023-08-25T15:07:54Z</time>
      </trkpt>
      <trkpt lat="57.555547971278429" lon="-5.756338974460959">
        <ele>53.969999999999999</ele>
        <time>2023-08-25T15:07:58Z</time>
      </trkpt>
      <trkpt lat="57.555617960169911" lon="-5.756534021347761">
        <ele>53.969999999999999</ele>
        <time>2023-08-25T15:07:59Z</time>
      </trkpt>
      <trkpt lat="57.555688032880425" lon="-5.756727978587151">
        <ele>53.969999999999999</ele>
        <time>2023-08-25T15:08:00Z</time>
      </trkpt>
      <trkpt lat="57.555755004286766" lon="-5.756924031302333">
        <ele>53.009999999999998</ele>
        <time>2023-08-25T15:08:01Z</time>
      </trkpt>
      <trkpt lat="57.555810995399952" lon="-5.757131986320019">
        <ele>52.530000000000001</ele>
        <time>2023-08-25T15:08:02Z</time>
      </trkpt>
      <trkpt lat="57.55612900480628" lon="-5.758491028100252">
        <ele>43.880000000000003</ele>
        <time>2023-08-25T15:08:08Z</time>
      </trkpt>
      <trkpt lat="57.556168986484408" lon="-5.75874600559473">
        <ele>41.950000000000003</ele>
        <time>2023-08-25T15:08:09Z</time>
      </trkpt>
      <trkpt lat="57.556297983974218" lon="-5.759384036064148">
        <ele>36.670000000000002</ele>
        <time>2023-08-25T15:08:12Z</time>
      </trkpt>
      <trkpt lat="57.556351041421294" lon="-5.759546980261803">
        <ele>34.740000000000002</ele>
        <time>2023-08-25T15:08:13Z</time>
      </trkpt>
      <trkpt lat="57.556443996727467" lon="-5.759640019387007">
        <ele>33.299999999999997</ele>
        <time>2023-08-25T15:08:14Z</time>
      </trkpt>
      <trkpt lat="57.556548016145825" lon="-5.759728029370308">
        <ele>31.859999999999999</ele>
        <time>2023-08-25T15:08:15Z</time>
      </trkpt>
      <trkpt lat="57.556673996150494" lon="-5.759792989119887">
        <ele>30.420000000000002</ele>
        <time>2023-08-25T15:08:16Z</time>
      </trkpt>
      <trkpt lat="57.556811040267348" lon="-5.759864989668131">
        <ele>28.98</ele>
        <time>2023-08-25T15:08:17Z</time>
      </trkpt>
      <trkpt lat="57.55799800157547" lon="-5.760561022907496">
        <ele>16.48</ele>
        <time>2023-08-25T15:08:25Z</time>
      </trkpt>
      <trkpt lat="57.558096991851926" lon="-5.760685997083783">
        <ele>16</ele>
        <time>2023-08-25T15:08:26Z</time>
      </trkpt>
      <trkpt lat="57.558193970471621" lon="-5.760846007615328">
        <ele>15.039999999999999</ele>
        <time>2023-08-25T15:08:27Z</time>
      </trkpt>
      <trkpt lat="57.558296984061599" lon="-5.761014986783266">
        <ele>14.56</ele>
        <time>2023-08-25T15:08:28Z</time>
      </trkpt>
      <trkpt lat="57.558403015136719" lon="-5.761188995093107">
        <ele>14.08</ele>
        <time>2023-08-25T15:08:29Z</time>
      </trkpt>
      <trkpt lat="57.55851399153471" lon="-5.761371972039342">
        <ele>14.08</ele>
        <time>2023-08-25T15:08:30Z</time>
      </trkpt>
      <trkpt lat="57.558624967932701" lon="-5.761556038632989">
        <ele>14.56</ele>
        <time>2023-08-25T15:08:31Z</time>
      </trkpt>
      <trkpt lat="57.559206001460552" lon="-5.762598998844624">
        <ele>17.920000000000002</ele>
        <time>2023-08-25T15:08:37Z</time>
      </trkpt>
      <trkpt lat="57.559268027544022" lon="-5.762803014367819">
        <ele>18.399999999999999</ele>
        <time>2023-08-25T15:08:38Z</time>
      </trkpt>
      <trkpt lat="57.55930800922215" lon="-5.76299998909235">
        <ele>18.399999999999999</ele>
        <time>2023-08-25T15:08:39Z</time>
      </trkpt>
      <trkpt lat="57.559347990900278" lon="-5.763193024322391">
        <ele>18.879999999999999</ele>
        <time>2023-08-25T15:08:40Z</time>
      </trkpt>
      <trkpt lat="57.559371963143349" lon="-5.763402990996838">
        <ele>18.879999999999999</ele>
        <time>2023-08-25T15:08:41Z</time>
      </trkpt>
      <trkpt lat="57.559376992285252" lon="-5.763598959892988">
        <ele>19.359999999999999</ele>
        <time>2023-08-25T15:08:42Z</time>
      </trkpt>
      <trkpt lat="57.559382021427155" lon="-5.763784032315016">
        <ele>19.84</ele>
        <time>2023-08-25T15:08:43Z</time>
      </trkpt>
      <trkpt lat="57.559343967586756" lon="-5.76428996399045">
        <ele>21.289999999999999</ele>
        <time>2023-08-25T15:08:46Z</time>
      </trkpt>
      <trkpt lat="57.55930901505053" lon="-5.764442011713982">
        <ele>21.77</ele>
        <time>2023-08-25T15:08:47Z</time>
      </trkpt>
      <trkpt lat="57.559275990352035" lon="-5.764581989496946">
        <ele>22.25</ele>
        <time>2023-08-25T15:08:48Z</time>
      </trkpt>
      <trkpt lat="57.55924598313868" lon="-5.764711992815137">
        <ele>22.73</ele>
        <time>2023-08-25T15:08:49Z</time>
      </trkpt>
      <trkpt lat="57.559213964268565" lon="-5.764849036931992">
        <ele>23.690000000000001</ele>
        <time>2023-08-25T15:08:50Z</time>
      </trkpt>
      <trkpt lat="57.559181023389101" lon="-5.764991026371718">
        <ele>24.170000000000002</ele>
        <time>2023-08-25T15:08:51Z</time>
      </trkpt>
      <trkpt lat="57.559113968163729" lon="-5.765107031911612">
        <ele>24.649999999999999</ele>
        <time>2023-08-25T15:08:52Z</time>
      </trkpt>
      <trkpt lat="57.559040039777756" lon="-5.765222031623125">
        <ele>25.129999999999999</ele>
        <time>2023-08-25T15:08:53Z</time>
      </trkpt>
      <trkpt lat="57.55896401591599" lon="-5.765339965000749">
        <ele>26.09</ele>
        <time>2023-08-25T15:08:54Z</time>
      </trkpt>
      <trkpt lat="57.558884974569082" lon="-5.765460999682546">
        <ele>26.57</ele>
        <time>2023-08-25T15:08:55Z</time>
      </trkpt>
      <trkpt lat="57.557874033227563" lon="-5.767022967338562">
        <ele>38.109999999999999</ele>
        <time>2023-08-25T15:09:08Z</time>
      </trkpt>
      <trkpt lat="57.557507995516062" lon="-5.767587991431356">
        <ele>42.920000000000002</ele>
        <time>2023-08-25T15:09:13Z</time>
      </trkpt>
      <trkpt lat="57.557400036603212" lon="-5.767754958942533">
        <ele>44.359999999999999</ele>
        <time>2023-08-25T15:09:15Z</time>
      </trkpt>
      <trkpt lat="57.556969961151481" lon="-5.768483011052012">
        <ele>45.799999999999997</ele>
        <time>2023-08-25T15:09:22Z</time>
      </trkpt>
      <trkpt lat="57.556910030543804" lon="-5.768675962463021">
        <ele>45.32</ele>
        <time>2023-08-25T15:09:23Z</time>
      </trkpt>
      <trkpt lat="57.556849010288715" lon="-5.768874026834965">
        <ele>44.359999999999999</ele>
        <time>2023-08-25T15:09:24Z</time>
      </trkpt>
      <trkpt lat="57.556807016953826" lon="-5.769089022651315">
        <ele>43.399999999999999</ele>
        <time>2023-08-25T15:09:25Z</time>
      </trkpt>
      <trkpt lat="57.556785978376865" lon="-5.769326984882355">
        <ele>41.950000000000003</ele>
        <time>2023-08-25T15:09:26Z</time>
      </trkpt>
      <trkpt lat="57.556766029447317" lon="-5.769568970426917">
        <ele>40.509999999999998</ele>
        <time>2023-08-25T15:09:27Z</time>
      </trkpt>
      <trkpt lat="57.556744990870357" lon="-5.769811039790511">
        <ele>39.07</ele>
        <time>2023-08-25T15:09:28Z</time>
      </trkpt>
      <trkpt lat="57.556734010577202" lon="-5.770047996193171">
        <ele>37.630000000000003</ele>
        <time>2023-08-25T15:09:29Z</time>
      </trkpt>
      <trkpt lat="57.556752031669021" lon="-5.770288975909352">
        <ele>36.189999999999998</ele>
        <time>2023-08-25T15:09:30Z</time>
      </trkpt>
      <trkpt lat="57.556769968941808" lon="-5.770527021959424">
        <ele>34.740000000000002</ele>
        <time>2023-08-25T15:09:31Z</time>
      </trkpt>
      <trkpt lat="57.556828977540135" lon="-5.770756015554071">
        <ele>33.299999999999997</ele>
        <time>2023-08-25T15:09:32Z</time>
      </trkpt>
      <trkpt lat="57.556901983916759" lon="-5.770993977785111">
        <ele>31.859999999999999</ele>
        <time>2023-08-25T15:09:33Z</time>
      </trkpt>
      <trkpt lat="57.556975996121764" lon="-5.771239986643195">
        <ele>30.899999999999999</ele>
        <time>2023-08-25T15:09:34Z</time>
      </trkpt>
      <trkpt lat="57.557065011933446" lon="-5.771470991894603">
        <ele>29.940000000000001</ele>
        <time>2023-08-25T15:09:35Z</time>
      </trkpt>
      <trkpt lat="57.557158973067999" lon="-5.771707026287913">
        <ele>29.460000000000001</ele>
        <time>2023-08-25T15:09:36Z</time>
      </trkpt>
      <trkpt lat="57.557653002440929" lon="-5.772704975679517">
        <ele>28.5</ele>
        <time>2023-08-25T15:09:41Z</time>
      </trkpt>
      <trkpt lat="57.558133034035563" lon="-5.773438978940249">
        <ele>28.98</ele>
        <time>2023-08-25T15:09:47Z</time>
      </trkpt>
      <trkpt lat="57.558997962623835" lon="-5.775004969909787">
        <ele>28.02</ele>
        <time>2023-08-25T15:09:55Z</time>
      </trkpt>
      <trkpt lat="57.560494970530272" lon="-5.77795397490263">
        <ele>32.82</ele>
        <time>2023-08-25T15:10:08Z</time>
      </trkpt>
      <trkpt lat="57.56180296652019" lon="-5.780385984107852">
        <ele>35.710000000000001</ele>
        <time>2023-08-25T15:10:20Z</time>
      </trkpt>
      <trkpt lat="57.562884986400604" lon="-5.782267972826958">
        <ele>39.07</ele>
        <time>2023-08-25T15:10:30Z</time>
      </trkpt>
      <trkpt lat="57.563050026074052" lon="-5.782549018040299">
        <ele>39.549999999999997</ele>
        <time>2023-08-25T15:10:32Z</time>
      </trkpt>
      <trkpt lat="57.563960971310735" lon="-5.784063041210175">
        <ele>38.590000000000003</ele>
        <time>2023-08-25T15:10:40Z</time>
      </trkpt>
      <trkpt lat="57.564883986487985" lon="-5.785545967519283">
        <ele>44.359999999999999</ele>
        <time>2023-08-25T15:10:47Z</time>
      </trkpt>
      <trkpt lat="57.565026981756091" lon="-5.785661973059177">
        <ele>45.799999999999997</ele>
        <time>2023-08-25T15:10:48Z</time>
      </trkpt>
      <trkpt lat="57.565569961443543" lon="-5.786120966076851">
        <ele>51.090000000000003</ele>
        <time>2023-08-25T15:10:52Z</time>
      </trkpt>
      <trkpt lat="57.565673980861902" lon="-5.786306960508227">
        <ele>52.049999999999997</ele>
        <time>2023-08-25T15:10:53Z</time>
      </trkpt>
      <trkpt lat="57.566491970792413" lon="-5.787744959816337">
        <ele>53.009999999999998</ele>
        <time>2023-08-25T15:11:01Z</time>
      </trkpt>
      <trkpt lat="57.566663967445493" lon="-5.787983005866408">
        <ele>49.649999999999999</ele>
        <time>2023-08-25T15:11:09Z</time>
      </trkpt>
      <trkpt lat="57.566738985478878" lon="-5.788070010021329">
        <ele>48.68</ele>
        <time>2023-08-25T15:11:11Z</time>
      </trkpt>
      <trkpt lat="57.567100999876857" lon="-5.788446022197604">
        <ele>46.280000000000001</ele>
        <time>2023-08-25T15:11:15Z</time>
      </trkpt>
      <trkpt lat="57.567233014851809" lon="-5.788494972512126">
        <ele>46.280000000000001</ele>
        <time>2023-08-25T15:11:16Z</time>
      </trkpt>
      <trkpt lat="57.567370980978012" lon="-5.788547024130821">
        <ele>46.280000000000001</ele>
        <time>2023-08-25T15:11:17Z</time>
      </trkpt>
      <trkpt lat="57.567512970417738" lon="-5.788583988323808">
        <ele>46.759999999999998</ele>
        <time>2023-08-25T15:11:18Z</time>
      </trkpt>
      <trkpt lat="57.567655965685844" lon="-5.788607960566878">
        <ele>46.759999999999998</ele>
        <time>2023-08-25T15:11:19Z</time>
      </trkpt>
      <trkpt lat="57.568329032510519" lon="-5.788640985265374">
        <ele>45.799999999999997</ele>
        <time>2023-08-25T15:11:24Z</time>
      </trkpt>
      <trkpt lat="57.568445960059762" lon="-5.788584994152188">
        <ele>45.32</ele>
        <time>2023-08-25T15:11:25Z</time>
      </trkpt>
      <trkpt lat="57.569086002185941" lon="-5.788273019716144">
        <ele>40.990000000000002</ele>
        <time>2023-08-25T15:11:31Z</time>
      </trkpt>
      <trkpt lat="57.569184992462397" lon="-5.788259021937847">
        <ele>40.030000000000001</ele>
        <time>2023-08-25T15:11:32Z</time>
      </trkpt>
      <trkpt lat="57.569291023537517" lon="-5.788276037201285">
        <ele>38.590000000000003</ele>
        <time>2023-08-25T15:11:33Z</time>
      </trkpt>
      <trkpt lat="57.570278998464346" lon="-5.78882496803999">
        <ele>29.460000000000001</ele>
        <time>2023-08-25T15:11:42Z</time>
      </trkpt>
      <trkpt lat="57.570377988740802" lon="-5.788949020206928">
        <ele>29.460000000000001</ele>
        <time>2023-08-25T15:11:43Z</time>
      </trkpt>
      <trkpt lat="57.570473039522767" lon="-5.789091009646654">
        <ele>28.98</ele>
        <time>2023-08-25T15:11:44Z</time>
      </trkpt>
      <trkpt lat="57.570560965687037" lon="-5.789268035441637">
        <ele>28.98</ele>
        <time>2023-08-25T15:11:45Z</time>
      </trkpt>
      <trkpt lat="57.570635983720422" lon="-5.789475990459323">
        <ele>29.460000000000001</ele>
        <time>2023-08-25T15:11:46Z</time>
      </trkpt>
      <trkpt lat="57.570717036724091" lon="-5.789686040952802">
        <ele>29.460000000000001</ele>
        <time>2023-08-25T15:11:47Z</time>
      </trkpt>
      <trkpt lat="57.571634016931057" lon="-5.792042026296258">
        <ele>25.129999999999999</ele>
        <time>2023-08-25T15:11:57Z</time>
      </trkpt>
      <trkpt lat="57.57269499823451" lon="-5.793858971446753">
        <ele>22.73</ele>
        <time>2023-08-25T15:12:05Z</time>
      </trkpt>
      <trkpt lat="57.573302015662193" lon="-5.794920036569238">
        <ele>30.899999999999999</ele>
        <time>2023-08-25T15:12:11Z</time>
      </trkpt>
      <trkpt lat="57.573415003716946" lon="-5.795257994905114">
        <ele>33.299999999999997</ele>
        <time>2023-08-25T15:12:13Z</time>
      </trkpt>
      <trkpt lat="57.573433024808764" lon="-5.795403001829982">
        <ele>34.740000000000002</ele>
        <time>2023-08-25T15:12:14Z</time>
      </trkpt>
      <trkpt lat="57.573434030637145" lon="-5.795600982382894">
        <ele>35.710000000000001</ele>
        <time>2023-08-25T15:12:15Z</time>
      </trkpt>
      <trkpt lat="57.573415003716946" lon="-5.795768033713102">
        <ele>36.189999999999998</ele>
        <time>2023-08-25T15:12:16Z</time>
      </trkpt>
      <trkpt lat="57.573393965139985" lon="-5.795953022316098">
        <ele>36.670000000000002</ele>
        <time>2023-08-25T15:12:17Z</time>
      </trkpt>
      <trkpt lat="57.573343003168702" lon="-5.796163994818926">
        <ele>36.670000000000002</ele>
        <time>2023-08-25T15:12:18Z</time>
      </trkpt>
      <trkpt lat="57.573275025933981" lon="-5.796344960108399">
        <ele>36.670000000000002</ele>
        <time>2023-08-25T15:12:19Z</time>
      </trkpt>
      <trkpt lat="57.573205037042499" lon="-5.796530032530427">
        <ele>36.189999999999998</ele>
        <time>2023-08-25T15:12:20Z</time>
      </trkpt>
      <trkpt lat="57.573137981817126" lon="-5.79670999199152">
        <ele>35.710000000000001</ele>
        <time>2023-08-25T15:12:21Z</time>
      </trkpt>
      <trkpt lat="57.573024993762374" lon="-5.796819040551782">
        <ele>35.710000000000001</ele>
        <time>2023-08-25T15:12:22Z</time>
      </trkpt>
      <trkpt lat="57.57290999405086" lon="-5.796903027221561">
        <ele>35.710000000000001</ele>
        <time>2023-08-25T15:12:23Z</time>
      </trkpt>
      <trkpt lat="57.572788959369063" lon="-5.796936973929405">
        <ele>36.189999999999998</ele>
        <time>2023-08-25T15:12:24Z</time>
      </trkpt>
      <trkpt lat="57.572661973536015" lon="-5.796960024163127">
        <ele>36.189999999999998</ele>
        <time>2023-08-25T15:12:25Z</time>
      </trkpt>
      <trkpt lat="57.57254303433001" lon="-5.796981984749436">
        <ele>37.149999999999999</ele>
        <time>2023-08-25T15:12:26Z</time>
      </trkpt>
      <trkpt lat="57.57241596467793" lon="-5.797005034983158">
        <ele>38.109999999999999</ele>
        <time>2023-08-25T15:12:27Z</time>
      </trkpt>
      <trkpt lat="57.572314962744713" lon="-5.797064965590835">
        <ele>39.549999999999997</ele>
        <time>2023-08-25T15:12:28Z</time>
      </trkpt>
      <trkpt lat="57.572184037417173" lon="-5.797162028029561">
        <ele>40.990000000000002</ele>
        <time>2023-08-25T15:12:29Z</time>
      </trkpt>
      <trkpt lat="57.57209200412035" lon="-5.797316003590822">
        <ele>41.950000000000003</ele>
        <time>2023-08-25T15:12:30Z</time>
      </trkpt>
      <trkpt lat="57.572027966380119" lon="-5.797556983307004">
        <ele>43.399999999999999</ele>
        <time>2023-08-25T15:12:31Z</time>
      </trkpt>
      <trkpt lat="57.571983961388469" lon="-5.797765022143722">
        <ele>43.880000000000003</ele>
        <time>2023-08-25T15:12:32Z</time>
      </trkpt>
      <trkpt lat="57.571940962225199" lon="-5.797966020181775">
        <ele>44.359999999999999</ele>
        <time>2023-08-25T15:12:33Z</time>
      </trkpt>
      <trkpt lat="57.571932999417186" lon="-5.798199037089944">
        <ele>44.359999999999999</ele>
        <time>2023-08-25T15:12:34Z</time>
      </trkpt>
      <trkpt lat="57.571949008852243" lon="-5.798413027077913">
        <ele>43.880000000000003</ele>
        <time>2023-08-25T15:12:35Z</time>
      </trkpt>
      <trkpt lat="57.571980021893978" lon="-5.798669010400772">
        <ele>43.399999999999999</ele>
        <time>2023-08-25T15:12:36Z</time>
      </trkpt>
      <trkpt lat="57.572042969986796" lon="-5.79890102148056">
        <ele>42.439999999999998</ele>
        <time>2023-08-25T15:12:37Z</time>
      </trkpt>
      <trkpt lat="57.572141038253903" lon="-5.799144012853503">
        <ele>41.950000000000003</ele>
        <time>2023-08-25T15:12:38Z</time>
      </trkpt>
      <trkpt lat="57.572260983288288" lon="-5.799291031435132">
        <ele>40.990000000000002</ele>
        <time>2023-08-25T15:12:39Z</time>
      </trkpt>
      <trkpt lat="57.572387969121337" lon="-5.799410976469517">
        <ele>40.509999999999998</ele>
        <time>2023-08-25T15:12:40Z</time>
      </trkpt>
      <trkpt lat="57.572517972439528" lon="-5.799523964524269">
        <ele>40.990000000000002</ele>
        <time>2023-08-25T15:12:41Z</time>
      </trkpt>
      <trkpt lat="57.57265099324286" lon="-5.799640975892544">
        <ele>41.469999999999999</ele>
        <time>2023-08-25T15:12:42Z</time>
      </trkpt>
      <trkpt lat="57.572786025702953" lon="-5.799757987260819">
        <ele>41.950000000000003</ele>
        <time>2023-08-25T15:12:43Z</time>
      </trkpt>
      <trkpt lat="57.573800990357995" lon="-5.800644960254431">
        <ele>47.719999999999999</ele>
        <time>2023-08-25T15:12:51Z</time>
      </trkpt>
      <trkpt lat="57.574588973075151" lon="-5.801464039832354">
        <ele>47.240000000000002</ele>
        <time>2023-08-25T15:12:58Z</time>
      </trkpt>
      <trkpt lat="57.574688969179988" lon="-5.801601000130177">
        <ele>47.240000000000002</ele>
        <time>2023-08-25T15:12:59Z</time>
      </trkpt>
      <trkpt lat="57.574774967506528" lon="-5.801783977076411">
        <ele>46.759999999999998</ele>
        <time>2023-08-25T15:13:00Z</time>
      </trkpt>
      <trkpt lat="57.575546018779278" lon="-5.804049018770456">
        <ele>39.549999999999997</ele>
        <time>2023-08-25T15:13:09Z</time>
      </trkpt>
      <trkpt lat="57.576263006776571" lon="-5.806124964728952">
        <ele>37.149999999999999</ele>
        <time>2023-08-25T15:13:17Z</time>
      </trkpt>
      <trkpt lat="57.576341964304447" lon="-5.806339038535953">
        <ele>37.149999999999999</ele>
        <time>2023-08-25T15:13:18Z</time>
      </trkpt>
      <trkpt lat="57.576454030349851" lon="-5.806499971076846">
        <ele>37.630000000000003</ele>
        <time>2023-08-25T15:13:19Z</time>
      </trkpt>
      <trkpt lat="57.576580010354519" lon="-5.806649001315236">
        <ele>38.109999999999999</ele>
        <time>2023-08-25T15:13:20Z</time>
      </trkpt>
      <trkpt lat="57.576715964823961" lon="-5.806746985763311">
        <ele>38.590000000000003</ele>
        <time>2023-08-25T15:13:21Z</time>
      </trkpt>
      <trkpt lat="57.577477963641286" lon="-5.807437989860773">
        <ele>45.32</ele>
        <time>2023-08-25T15:13:28Z</time>
      </trkpt>
      <trkpt lat="57.577559016644955" lon="-5.807542009279132">
        <ele>46.280000000000001</ele>
        <time>2023-08-25T15:13:29Z</time>
      </trkpt>
      <trkpt lat="57.577616013586521" lon="-5.80762398429215">
        <ele>46.759999999999998</ele>
        <time>2023-08-25T15:13:30Z</time>
      </trkpt>
      <trkpt lat="57.577666975557804" lon="-5.807740995660424">
        <ele>47.240000000000002</ele>
        <time>2023-08-25T15:13:31Z</time>
      </trkpt>
      <trkpt lat="57.577688014134765" lon="-5.807880973443389">
        <ele>47.719999999999999</ele>
        <time>2023-08-25T15:13:32Z</time>
      </trkpt>
      <trkpt lat="57.577706035226583" lon="-5.808035032823682">
        <ele>47.240000000000002</ele>
        <time>2023-08-25T15:13:33Z</time>
      </trkpt>
      <trkpt lat="57.577723972499371" lon="-5.808191020041704">
        <ele>46.759999999999998</ele>
        <time>2023-08-25T15:13:34Z</time>
      </trkpt>
      <trkpt lat="57.577812988311052" lon="-5.808941032737494">
        <ele>43.399999999999999</ele>
        <time>2023-08-25T15:13:38Z</time>
      </trkpt>
      <trkpt lat="57.577817011624575" lon="-5.809134989976883">
        <ele>42.439999999999998</ele>
        <time>2023-08-25T15:13:39Z</time>
      </trkpt>
      <trkpt lat="57.57780603133142" lon="-5.80936498939991">
        <ele>41.469999999999999</ele>
        <time>2023-08-25T15:13:40Z</time>
      </trkpt>
      <trkpt lat="57.57750797085464" lon="-5.81116802059114">
        <ele>40.509999999999998</ele>
        <time>2023-08-25T15:13:48Z</time>
      </trkpt>
      <trkpt lat="57.576786959543824" lon="-5.813450999557972">
        <ele>40.509999999999998</ele>
        <time>2023-08-25T15:13:59Z</time>
      </trkpt>
      <trkpt lat="57.576723005622625" lon="-5.813648980110884">
        <ele>40.509999999999998</ele>
        <time>2023-08-25T15:14:00Z</time>
      </trkpt>
      <trkpt lat="57.576662991195917" lon="-5.81385400146246">
        <ele>39.549999999999997</ele>
        <time>2023-08-25T15:14:01Z</time>
      </trkpt>
      <trkpt lat="57.57660498842597" lon="-5.81404997035861">
        <ele>39.07</ele>
        <time>2023-08-25T15:14:02Z</time>
      </trkpt>
      <trkpt lat="57.576546985656023" lon="-5.814235964789987">
        <ele>38.109999999999999</ele>
        <time>2023-08-25T15:14:03Z</time>
      </trkpt>
      <trkpt lat="57.576476996764541" lon="-5.814394969493151">
        <ele>37.149999999999999</ele>
        <time>2023-08-25T15:14:04Z</time>
      </trkpt>
      <trkpt lat="57.576373983174562" lon="-5.81449898891151">
        <ele>35.710000000000001</ele>
        <time>2023-08-25T15:14:05Z</time>
      </trkpt>
      <trkpt lat="57.576263006776571" lon="-5.81460501998663">
        <ele>34.259999999999998</ele>
        <time>2023-08-25T15:14:06Z</time>
      </trkpt>
      <trkpt lat="57.576143983751535" lon="-5.814718008041382">
        <ele>32.82</ele>
        <time>2023-08-25T15:14:07Z</time>
      </trkpt>
      <trkpt lat="57.575196996331215" lon="-5.815935982391238">
        <ele>23.690000000000001</ele>
        <time>2023-08-25T15:14:14Z</time>
      </trkpt>
      <trkpt lat="57.574321003630757" lon="-5.816811975091696">
        <ele>19.359999999999999</ele>
        <time>2023-08-25T15:14:20Z</time>
      </trkpt>
      <trkpt lat="57.573902998119593" lon="-5.817022025585175">
        <ele>21.289999999999999</ele>
        <time>2023-08-25T15:14:23Z</time>
      </trkpt>
      <trkpt lat="57.573792021721601" lon="-5.817166026681662">
        <ele>22.25</ele>
        <time>2023-08-25T15:14:24Z</time>
      </trkpt>
      <trkpt lat="57.573686996474862" lon="-5.817308016121388">
        <ele>23.210000000000001</ele>
        <time>2023-08-25T15:14:25Z</time>
      </trkpt>
      <trkpt lat="57.572818966582417" lon="-5.818327004089952">
        <ele>28.02</ele>
        <time>2023-08-25T15:14:32Z</time>
      </trkpt>
      <trkpt lat="57.57267496548593" lon="-5.818428006023169">
        <ele>28.98</ele>
        <time>2023-08-25T15:14:33Z</time>
      </trkpt>
      <trkpt lat="57.572531970217824" lon="-5.818520961329341">
        <ele>29.460000000000001</ele>
        <time>2023-08-25T15:14:34Z</time>
      </trkpt>
      <trkpt lat="57.571368981152773" lon="-5.819193022325635">
        <ele>33.780000000000001</ele>
        <time>2023-08-25T15:14:42Z</time>
      </trkpt>
      <trkpt lat="57.571235038340092" lon="-5.819298969581723">
        <ele>34.259999999999998</ele>
        <time>2023-08-25T15:14:43Z</time>
      </trkpt>
      <trkpt lat="57.569976998493075" lon="-5.819899030029774">
        <ele>40.990000000000002</ele>
        <time>2023-08-25T15:14:52Z</time>
      </trkpt>
      <trkpt lat="57.569466959685087" lon="-5.820304965600371">
        <ele>42.920000000000002</ele>
        <time>2023-08-25T15:14:56Z</time>
      </trkpt>
      <trkpt lat="57.569332011044025" lon="-5.820442009717226">
        <ele>42.439999999999998</ele>
        <time>2023-08-25T15:14:57Z</time>
      </trkpt>
      <trkpt lat="57.569222962483764" lon="-5.820635966956615">
        <ele>42.439999999999998</ele>
        <time>2023-08-25T15:14:58Z</time>
      </trkpt>
      <trkpt lat="57.568800011649728" lon="-5.821386985480785">
        <ele>41.950000000000003</ele>
        <time>2023-08-25T15:15:02Z</time>
      </trkpt>
      <trkpt lat="57.56869699805975" lon="-5.821457980200648">
        <ele>41.950000000000003</ele>
        <time>2023-08-25T15:15:03Z</time>
      </trkpt>
      <trkpt lat="57.568589961156249" lon="-5.821479018777609">
        <ele>42.439999999999998</ele>
        <time>2023-08-25T15:15:04Z</time>
      </trkpt>
      <trkpt lat="57.568478984758258" lon="-5.821499973535538">
        <ele>42.439999999999998</ele>
        <time>2023-08-25T15:15:05Z</time>
      </trkpt>
      <trkpt lat="57.568359039723873" lon="-5.82152302376926">
        <ele>42.920000000000002</ele>
        <time>2023-08-25T15:15:06Z</time>
      </trkpt>
      <trkpt lat="57.567307027056813" lon="-5.821681022644043">
        <ele>45.32</ele>
        <time>2023-08-25T15:15:13Z</time>
      </trkpt>
      <trkpt lat="57.566130040213466" lon="-5.821737013757229">
        <ele>48.200000000000003</ele>
        <time>2023-08-25T15:15:21Z</time>
      </trkpt>
      <trkpt lat="57.565008960664272" lon="-5.822113025933504">
        <ele>48.200000000000003</ele>
        <time>2023-08-25T15:15:29Z</time>
      </trkpt>
      <trkpt lat="57.564902007579803" lon="-5.822184020653367">
        <ele>47.719999999999999</ele>
        <time>2023-08-25T15:15:30Z</time>
      </trkpt>
      <trkpt lat="57.564815003424883" lon="-5.822333972901106">
        <ele>47.719999999999999</ele>
        <time>2023-08-25T15:15:31Z</time>
      </trkpt>
      <trkpt lat="57.564729005098343" lon="-5.822505969554186">
        <ele>47.240000000000002</ele>
        <time>2023-08-25T15:15:32Z</time>
      </trkpt>
      <trkpt lat="57.5646379776299" lon="-5.822688024491072">
        <ele>47.240000000000002</ele>
        <time>2023-08-25T15:15:33Z</time>
      </trkpt>
      <trkpt lat="57.564536975696683" lon="-5.822862032800913">
        <ele>47.240000000000002</ele>
        <time>2023-08-25T15:15:34Z</time>
      </trkpt>
      <trkpt lat="57.564417030662298" lon="-5.822964040562511">
        <ele>46.759999999999998</ele>
        <time>2023-08-25T15:15:35Z</time>
      </trkpt>
      <trkpt lat="57.564291972666979" lon="-5.82307199947536">
        <ele>46.759999999999998</ele>
        <time>2023-08-25T15:15:36Z</time>
      </trkpt>
      <trkpt lat="57.563007026910782" lon="-5.823958972468972">
        <ele>48.68</ele>
        <time>2023-08-25T15:15:46Z</time>
      </trkpt>
      <trkpt lat="57.562348963692784" lon="-5.824123006314039">
        <ele>49.649999999999999</ele>
        <time>2023-08-25T15:15:51Z</time>
      </trkpt>
      <trkpt lat="57.562247961759567" lon="-5.824221996590495">
        <ele>49.649999999999999</ele>
        <time>2023-08-25T15:15:52Z</time>
      </trkpt>
      <trkpt lat="57.562148971483111" lon="-5.824336996302009">
        <ele>49.649999999999999</ele>
        <time>2023-08-25T15:15:53Z</time>
      </trkpt>
      <trkpt lat="57.562061967328191" lon="-5.824436992406845">
        <ele>50.130000000000003</ele>
        <time>2023-08-25T15:15:54Z</time>
      </trkpt>
      <trkpt lat="57.562030032277107" lon="-5.824602032080293">
        <ele>50.609999999999999</ele>
        <time>2023-08-25T15:15:55Z</time>
      </trkpt>
      <trkpt lat="57.562003964558244" lon="-5.824782997369766">
        <ele>51.090000000000003</ele>
        <time>2023-08-25T15:15:56Z</time>
      </trkpt>
      <trkpt lat="57.561988960951567" lon="-5.824975026771426">
        <ele>51.57</ele>
        <time>2023-08-25T15:15:57Z</time>
      </trkpt>
      <trkpt lat="57.561992984265089" lon="-5.825181975960732">
        <ele>52.049999999999997</ele>
        <time>2023-08-25T15:15:58Z</time>
      </trkpt>
      <trkpt lat="57.561919977888465" lon="-5.826475974172354">
        <ele>55.409999999999997</ele>
        <time>2023-08-25T15:16:04Z</time>
      </trkpt>
      <trkpt lat="57.561887037009001" lon="-5.826645037159324">
        <ele>55.409999999999997</ele>
        <time>2023-08-25T15:16:05Z</time>
      </trkpt>
      <trkpt lat="57.561844037845731" lon="-5.826795995235443">
        <ele>55.409999999999997</ele>
        <time>2023-08-25T15:16:06Z</time>
      </trkpt>
      <trkpt lat="57.561774970963597" lon="-5.826941002160311">
        <ele>54.93</ele>
        <time>2023-08-25T15:16:07Z</time>
      </trkpt>
      <trkpt lat="57.561685033142567" lon="-5.827042004093528">
        <ele>53.969999999999999</ele>
        <time>2023-08-25T15:16:08Z</time>
      </trkpt>
      <trkpt lat="57.561572967097163" lon="-5.827123979106545">
        <ele>53.490000000000002</ele>
        <time>2023-08-25T15:16:09Z</time>
      </trkpt>
      <trkpt lat="57.561447992920876" lon="-5.827189022675157">
        <ele>52.049999999999997</ele>
        <time>2023-08-25T15:16:10Z</time>
      </trkpt>
      <trkpt lat="57.561311032623053" lon="-5.827259011566639">
        <ele>51.090000000000003</ele>
        <time>2023-08-25T15:16:11Z</time>
      </trkpt>
      <trkpt lat="57.560129016637802" lon="-5.827984968200326">
        <ele>44.840000000000003</ele>
        <time>2023-08-25T15:16:18Z</time>
      </trkpt>
      <trkpt lat="57.558446014299989" lon="-5.829307967796922">
        <ele>40.509999999999998</ele>
        <time>2023-08-25T15:16:28Z</time>
      </trkpt>
      <trkpt lat="57.557202978059649" lon="-5.830331984907389">
        <ele>32.340000000000003</ele>
        <time>2023-08-25T15:16:36Z</time>
      </trkpt>
      <trkpt lat="57.556455982849002" lon="-5.831112004816532">
        <ele>26.09</ele>
        <time>2023-08-25T15:16:41Z</time>
      </trkpt>
      <trkpt lat="57.555673029273748" lon="-5.831640986725688">
        <ele>23.210000000000001</ele>
        <time>2023-08-25T15:16:46Z</time>
      </trkpt>
      <trkpt lat="57.55539801903069" lon="-5.831757998093963">
        <ele>23.210000000000001</ele>
        <time>2023-08-25T15:16:48Z</time>
      </trkpt>
      <trkpt lat="57.555288970470428" lon="-5.831883978098631">
        <ele>23.210000000000001</ele>
        <time>2023-08-25T15:16:49Z</time>
      </trkpt>
      <trkpt lat="57.555187968537211" lon="-5.832019010558724">
        <ele>23.690000000000001</ele>
        <time>2023-08-25T15:16:50Z</time>
      </trkpt>
      <trkpt lat="57.555117979645729" lon="-5.832213973626494">
        <ele>23.690000000000001</ele>
        <time>2023-08-25T15:16:51Z</time>
      </trkpt>
      <trkpt lat="57.555043967440724" lon="-5.832426035776734">
        <ele>24.170000000000002</ele>
        <time>2023-08-25T15:16:52Z</time>
      </trkpt>
      <trkpt lat="57.554969033226371" lon="-5.832641031593084">
        <ele>24.170000000000002</ele>
        <time>2023-08-25T15:16:53Z</time>
      </trkpt>
      <trkpt lat="57.55488496273756" lon="-5.832882011309266">
        <ele>24.649999999999999</ele>
        <time>2023-08-25T15:16:54Z</time>
      </trkpt>
      <trkpt lat="57.554785972461104" lon="-5.833059037104249">
        <ele>25.129999999999999</ele>
        <time>2023-08-25T15:16:55Z</time>
      </trkpt>
      <trkpt lat="57.554660998284817" lon="-5.833208989351988">
        <ele>25.609999999999999</ele>
        <time>2023-08-25T15:16:56Z</time>
      </trkpt>
      <trkpt lat="57.554534012451768" lon="-5.833356007933617">
        <ele>26.57</ele>
        <time>2023-08-25T15:16:57Z</time>
      </trkpt>
      <trkpt lat="57.554405014961958" lon="-5.833505038172007">
        <ele>27.050000000000001</ele>
        <time>2023-08-25T15:16:58Z</time>
      </trkpt>
      <trkpt lat="57.554274005815387" lon="-5.833655996248126">
        <ele>27.050000000000001</ele>
        <time>2023-08-25T15:16:59Z</time>
      </trkpt>
      <trkpt lat="57.553412010893226" lon="-5.834277011454105">
        <ele>29.940000000000001</ele>
        <time>2023-08-25T15:17:06Z</time>
      </trkpt>
      <trkpt lat="57.552461000159383" lon="-5.835129031911492">
        <ele>25.609999999999999</ele>
        <time>2023-08-25T15:17:13Z</time>
      </trkpt>
      <trkpt lat="57.552352035418153" lon="-5.835282001644373">
        <ele>24.170000000000002</ele>
        <time>2023-08-25T15:17:14Z</time>
      </trkpt>
      <trkpt lat="57.552273999899626" lon="-5.835449974983931">
        <ele>23.210000000000001</ele>
        <time>2023-08-25T15:17:15Z</time>
      </trkpt>
      <trkpt lat="57.552237035706639" lon="-5.835652984678745">
        <ele>22.73</ele>
        <time>2023-08-25T15:17:16Z</time>
      </trkpt>
      <trkpt lat="57.552196970209479" lon="-5.835872003808618">
        <ele>22.25</ele>
        <time>2023-08-25T15:17:17Z</time>
      </trkpt>
      <trkpt lat="57.552156988531351" lon="-5.836094962432981">
        <ele>21.77</ele>
        <time>2023-08-25T15:17:18Z</time>
      </trkpt>
      <trkpt lat="57.552117006853223" lon="-5.836314987391233">
        <ele>21.289999999999999</ele>
        <time>2023-08-25T15:17:19Z</time>
      </trkpt>
      <trkpt lat="57.552141984924674" lon="-5.836562002077699">
        <ele>21.289999999999999</ele>
        <time>2023-08-25T15:17:20Z</time>
      </trkpt>
      <trkpt lat="57.552166040986776" lon="-5.836790995672345">
        <ele>20.809999999999999</ele>
        <time>2023-08-25T15:17:21Z</time>
      </trkpt>
      <trkpt lat="57.552188001573086" lon="-5.837010014802218">
        <ele>20.809999999999999</ele>
        <time>2023-08-25T15:17:22Z</time>
      </trkpt>
      <trkpt lat="57.552210967987776" lon="-5.83722903393209">
        <ele>20.809999999999999</ele>
        <time>2023-08-25T15:17:23Z</time>
      </trkpt>
      <trkpt lat="57.552239969372749" lon="-5.838783038780093">
        <ele>18.399999999999999</ele>
        <time>2023-08-25T15:17:29Z</time>
      </trkpt>
      <trkpt lat="57.552185989916325" lon="-5.839042039588094">
        <ele>17.920000000000002</ele>
        <time>2023-08-25T15:17:30Z</time>
      </trkpt>
      <trkpt lat="57.551970994099975" lon="-5.839967988431454">
        <ele>19.84</ele>
        <time>2023-08-25T15:17:34Z</time>
      </trkpt>
      <trkpt lat="57.551899999380112" lon="-5.84017401561141">
        <ele>20.809999999999999</ele>
        <time>2023-08-25T15:17:35Z</time>
      </trkpt>
      <trkpt lat="57.551451986655593" lon="-5.841491986066103">
        <ele>24.170000000000002</ele>
        <time>2023-08-25T15:17:41Z</time>
      </trkpt>
      <trkpt lat="57.551383003592491" lon="-5.841691978275776">
        <ele>24.170000000000002</ele>
        <time>2023-08-25T15:17:42Z</time>
      </trkpt>
      <trkpt lat="57.551283007487655" lon="-5.841827010735869">
        <ele>24.649999999999999</ele>
        <time>2023-08-25T15:17:43Z</time>
      </trkpt>
      <trkpt lat="57.551190974190831" lon="-5.841918038204312">
        <ele>25.609999999999999</ele>
        <time>2023-08-25T15:17:44Z</time>
      </trkpt>
      <trkpt lat="57.551085026934743" lon="-5.841909991577268">
        <ele>26.57</ele>
        <time>2023-08-25T15:17:45Z</time>
      </trkpt>
      <trkpt lat="57.550992993637919" lon="-5.841881996020675">
        <ele>27.530000000000001</ele>
        <time>2023-08-25T15:17:46Z</time>
      </trkpt>
      <trkpt lat="57.550891991704702" lon="-5.841849977150559">
        <ele>28.5</ele>
        <time>2023-08-25T15:17:47Z</time>
      </trkpt>
      <trkpt lat="57.550782021135092" lon="-5.841783005744219">
        <ele>29.460000000000001</ele>
        <time>2023-08-25T15:17:48Z</time>
      </trkpt>
      <trkpt lat="57.549978028982878" lon="-5.841289982199669">
        <ele>35.229999999999997</ele>
        <time>2023-08-25T15:17:57Z</time>
      </trkpt>
      <trkpt lat="57.549848025664687" lon="-5.841211024671793">
        <ele>36.670000000000002</ele>
        <time>2023-08-25T15:17:59Z</time>
      </trkpt>
      <trkpt lat="57.548879999667406" lon="-5.84077499806881">
        <ele>45.32</ele>
        <time>2023-08-25T15:18:14Z</time>
      </trkpt>
      <trkpt lat="57.548133004456758" lon="-5.840610964223743">
        <ele>44.359999999999999</ele>
        <time>2023-08-25T15:18:26Z</time>
      </trkpt>
      <trkpt lat="57.547725979238749" lon="-5.840522032231093">
        <ele>42.920000000000002</ele>
        <time>2023-08-25T15:18:32Z</time>
      </trkpt>
      <trkpt lat="57.547659007832408" lon="-5.840507028624415">
        <ele>42.920000000000002</ele>
        <time>2023-08-25T15:18:33Z</time>
      </trkpt>
      <trkpt lat="57.54684898070991" lon="-5.840439973399043">
        <ele>44.359999999999999</ele>
        <time>2023-08-25T15:18:45Z</time>
      </trkpt>
      <trkpt lat="57.545936023816466" lon="-5.840828977525234">
        <ele>47.719999999999999</ele>
        <time>2023-08-25T15:18:59Z</time>
      </trkpt>
      <trkpt lat="57.545170001685619" lon="-5.841176994144917">
        <ele>51.57</ele>
        <time>2023-08-25T15:19:07Z</time>
      </trkpt>
      <trkpt lat="57.543864017352462" lon="-5.842038989067078">
        <ele>64.069999999999993</ele>
        <time>2023-08-25T15:19:17Z</time>
      </trkpt>
      <trkpt lat="57.543757986277342" lon="-5.842125993221998">
        <ele>65.510000000000005</ele>
        <time>2023-08-25T15:19:18Z</time>
      </trkpt>
      <trkpt lat="57.543681040406227" lon="-5.842248033732176">
        <ele>66.950000000000003</ele>
        <time>2023-08-25T15:19:19Z</time>
      </trkpt>
      <trkpt lat="57.543619014322758" lon="-5.842378037050366">
        <ele>68.390000000000001</ele>
        <time>2023-08-25T15:19:20Z</time>
      </trkpt>
      <trkpt lat="57.543554976582527" lon="-5.842514997348189">
        <ele>69.349999999999994</ele>
        <time>2023-08-25T15:19:21Z</time>
      </trkpt>
      <trkpt lat="57.543502002954483" lon="-5.842691017314792">
        <ele>70.310000000000002</ele>
        <time>2023-08-25T15:19:22Z</time>
      </trkpt>
      <trkpt lat="57.5434510409832" lon="-5.842899978160858">
        <ele>71.269999999999996</ele>
        <time>2023-08-25T15:19:23Z</time>
      </trkpt>
      <trkpt lat="57.542989030480385" lon="-5.84481599740684">
        <ele>70.790000000000006</ele>
        <time>2023-08-25T15:19:30Z</time>
      </trkpt>
      <trkpt lat="57.542346976697445" lon="-5.847167959436774">
        <ele>75.599999999999994</ele>
        <time>2023-08-25T15:19:39Z</time>
      </trkpt>
      <trkpt lat="57.541972976177931" lon="-5.847956025972962">
        <ele>75.120000000000005</ele>
        <time>2023-08-25T15:19:45Z</time>
      </trkpt>
      <trkpt lat="57.541924025863409" lon="-5.848010005429387">
        <ele>74.640000000000001</ele>
        <time>2023-08-25T15:19:46Z</time>
      </trkpt>
      <trkpt lat="57.541865017265081" lon="-5.848069014027715">
        <ele>74.159999999999997</ele>
        <time>2023-08-25T15:19:47Z</time>
      </trkpt>
      <trkpt lat="57.541794022545218" lon="-5.848119975998998">
        <ele>73.680000000000007</ele>
        <time>2023-08-25T15:19:48Z</time>
      </trkpt>
      <trkpt lat="57.541696960106492" lon="-5.848135985434055">
        <ele>73.200000000000003</ele>
        <time>2023-08-25T15:19:49Z</time>
      </trkpt>
      <trkpt lat="57.541585983708501" lon="-5.848153000697494">
        <ele>72.719999999999999</ele>
        <time>2023-08-25T15:19:50Z</time>
      </trkpt>
      <trkpt lat="57.540588034316897" lon="-5.84818703122437">
        <ele>65.030000000000001</ele>
        <time>2023-08-25T15:19:57Z</time>
      </trkpt>
      <trkpt lat="57.540451996028423" lon="-5.84816699847579">
        <ele>64.069999999999993</ele>
        <time>2023-08-25T15:19:58Z</time>
      </trkpt>
      <trkpt lat="57.54031696356833" lon="-5.848202034831047">
        <ele>62.619999999999997</ele>
        <time>2023-08-25T15:19:59Z</time>
      </trkpt>
      <trkpt lat="57.540196012705564" lon="-5.848318040370941">
        <ele>61.18</ele>
        <time>2023-08-25T15:20:00Z</time>
      </trkpt>
      <trkpt lat="57.540081012994051" lon="-5.848458018153906">
        <ele>60.219999999999999</ele>
        <time>2023-08-25T15:20:01Z</time>
      </trkpt>
      <trkpt lat="57.539960984140635" lon="-5.848605036735535">
        <ele>58.780000000000001</ele>
        <time>2023-08-25T15:20:02Z</time>
      </trkpt>
      <trkpt lat="57.539698965847492" lon="-5.848874012008309">
        <ele>56.369999999999997</ele>
        <time>2023-08-25T15:20:04Z</time>
      </trkpt>
      <trkpt lat="57.538327015936375" lon="-5.849828040227294">
        <ele>46.280000000000001</ele>
        <time>2023-08-25T15:20:12Z</time>
      </trkpt>
      <trkpt lat="57.536303959786892" lon="-5.85081098601222">
        <ele>42.439999999999998</ele>
        <time>2023-08-25T15:20:23Z</time>
      </trkpt>
      <trkpt lat="57.534503024071455" lon="-5.850989017635584">
        <ele>46.280000000000001</ele>
        <time>2023-08-25T15:20:34Z</time>
      </trkpt>
      <trkpt lat="57.532522967085242" lon="-5.850889021530747">
        <ele>48.200000000000003</ele>
        <time>2023-08-25T15:20:46Z</time>
      </trkpt>
      <trkpt lat="57.532382989302278" lon="-5.850968984887004">
        <ele>48.200000000000003</ele>
        <time>2023-08-25T15:20:47Z</time>
      </trkpt>
      <trkpt lat="57.531262999400496" lon="-5.851566027849913">
        <ele>45.32</ele>
        <time>2023-08-25T15:20:55Z</time>
      </trkpt>
      <trkpt lat="57.530559003353119" lon="-5.851779012009502">
        <ele>41.950000000000003</ele>
        <time>2023-08-25T15:21:01Z</time>
      </trkpt>
      <trkpt lat="57.530365968123078" lon="-5.851824022829533">
        <ele>40.030000000000001</ele>
        <time>2023-08-25T15:21:14Z</time>
      </trkpt>
      <trkpt lat="57.529301969334483" lon="-5.851722015067935">
        <ele>38.590000000000003</ele>
        <time>2023-08-25T15:21:24Z</time>
      </trkpt>
      <trkpt lat="57.52826202660799" lon="-5.851806001737714">
        <ele>36.189999999999998</ele>
        <time>2023-08-25T15:21:33Z</time>
      </trkpt>
      <trkpt lat="57.528014006093144" lon="-5.85179896093905">
        <ele>36.189999999999998</ele>
        <time>2023-08-25T15:21:35Z</time>
      </trkpt>
      <trkpt lat="57.527891965582967" lon="-5.851725032553077">
        <ele>36.189999999999998</ele>
        <time>2023-08-25T15:21:36Z</time>
      </trkpt>
      <trkpt lat="57.526452038437128" lon="-5.851169982925057">
        <ele>40.990000000000002</ele>
        <time>2023-08-25T15:21:46Z</time>
      </trkpt>
      <trkpt lat="57.525287959724665" lon="-5.851284982636571">
        <ele>43.880000000000003</ele>
        <time>2023-08-25T15:21:54Z</time>
      </trkpt>
      <trkpt lat="57.525169020518661" lon="-5.851269979029894">
        <ele>44.359999999999999</ele>
        <time>2023-08-25T15:21:55Z</time>
      </trkpt>
      <trkpt lat="57.525055026635528" lon="-5.851226979866624">
        <ele>44.840000000000003</ele>
        <time>2023-08-25T15:21:56Z</time>
      </trkpt>
      <trkpt lat="57.524426970630884" lon="-5.851062024012208">
        <ele>44.840000000000003</ele>
        <time>2023-08-25T15:22:01Z</time>
      </trkpt>
      <trkpt lat="57.524297973141074" lon="-5.851093037053943">
        <ele>44.840000000000003</ele>
        <time>2023-08-25T15:22:02Z</time>
      </trkpt>
      <trkpt lat="57.52286902628839" lon="-5.851485980674624">
        <ele>43.880000000000003</ele>
        <time>2023-08-25T15:22:12Z</time>
      </trkpt>
      <trkpt lat="57.52248396165669" lon="-5.851742969825864">
        <ele>43.399999999999999</ele>
        <time>2023-08-25T15:22:15Z</time>
      </trkpt>
      <trkpt lat="57.522345995530486" lon="-5.85175302810967">
        <ele>43.399999999999999</ele>
        <time>2023-08-25T15:22:16Z</time>
      </trkpt>
      <trkpt lat="57.522224960848689" lon="-5.851761996746063">
        <ele>43.399999999999999</ele>
        <time>2023-08-25T15:22:17Z</time>
      </trkpt>
      <trkpt lat="57.522101998329163" lon="-5.851727966219187">
        <ele>43.399999999999999</ele>
        <time>2023-08-25T15:22:18Z</time>
      </trkpt>
      <trkpt lat="57.521976018324494" lon="-5.851671975106001">
        <ele>43.399999999999999</ele>
        <time>2023-08-25T15:22:19Z</time>
      </trkpt>
      <trkpt lat="57.521708970889449" lon="-5.851588994264603">
        <ele>43.399999999999999</ele>
        <time>2023-08-25T15:22:21Z</time>
      </trkpt>
      <trkpt lat="57.521596988663077" lon="-5.851631993427873">
        <ele>43.399999999999999</ele>
        <time>2023-08-25T15:22:22Z</time>
      </trkpt>
      <trkpt lat="57.521489029750228" lon="-5.851672980934382">
        <ele>43.880000000000003</ele>
        <time>2023-08-25T15:22:23Z</time>
      </trkpt>
      <trkpt lat="57.521373024210334" lon="-5.851716985926032">
        <ele>43.880000000000003</ele>
        <time>2023-08-25T15:22:24Z</time>
      </trkpt>
      <trkpt lat="57.521249977871776" lon="-5.851765014231205">
        <ele>43.399999999999999</ele>
        <time>2023-08-25T15:22:25Z</time>
      </trkpt>
      <trkpt lat="57.520985025912523" lon="-5.851866016164422">
        <ele>42.920000000000002</ele>
        <time>2023-08-25T15:22:27Z</time>
      </trkpt>
      <trkpt lat="57.520846975967288" lon="-5.851918989792466">
        <ele>41.950000000000003</ele>
        <time>2023-08-25T15:22:28Z</time>
      </trkpt>
      <trkpt lat="57.52070196904242" lon="-5.85199199616909">
        <ele>40.990000000000002</ele>
        <time>2023-08-25T15:22:29Z</time>
      </trkpt>
      <trkpt lat="57.519592037424445" lon="-5.853103017434478">
        <ele>31.379999999999999</ele>
        <time>2023-08-25T15:22:37Z</time>
      </trkpt>
      <trkpt lat="57.519478965550661" lon="-5.853249030187726">
        <ele>30.420000000000002</ele>
        <time>2023-08-25T15:22:38Z</time>
      </trkpt>
      <trkpt lat="57.519237985834479" lon="-5.853784969076514">
        <ele>28.98</ele>
        <time>2023-08-25T15:22:41Z</time>
      </trkpt>
      <trkpt lat="57.5191730260849" lon="-5.853993007913232">
        <ele>28.98</ele>
        <time>2023-08-25T15:22:42Z</time>
      </trkpt>
      <trkpt lat="57.518781004473567" lon="-5.855099000036717">
        <ele>28.02</ele>
        <time>2023-08-25T15:22:48Z</time>
      </trkpt>
      <trkpt lat="57.518714033067226" lon="-5.855248030275106">
        <ele>27.530000000000001</ele>
        <time>2023-08-25T15:22:49Z</time>
      </trkpt>
      <trkpt lat="57.518606996163726" lon="-5.855345008894801">
        <ele>27.050000000000001</ele>
        <time>2023-08-25T15:22:50Z</time>
      </trkpt>
      <trkpt lat="57.518496019765735" lon="-5.855436036363244">
        <ele>26.57</ele>
        <time>2023-08-25T15:22:51Z</time>
      </trkpt>
      <trkpt lat="57.518374985083938" lon="-5.855536032468081">
        <ele>26.57</ele>
        <time>2023-08-25T15:22:52Z</time>
      </trkpt>
      <trkpt lat="57.518249005079269" lon="-5.855639968067408">
        <ele>26.57</ele>
        <time>2023-08-25T15:22:53Z</time>
      </trkpt>
      <trkpt lat="57.517051985487342" lon="-5.856836987659335">
        <ele>32.340000000000003</ele>
        <time>2023-08-25T15:23:02Z</time>
      </trkpt>
      <trkpt lat="57.516103992238641" lon="-5.85757702589035">
        <ele>37.149999999999999</ele>
        <time>2023-08-25T15:23:09Z</time>
      </trkpt>
      <trkpt lat="57.514515034854412" lon="-5.858023026958108">
        <ele>40.990000000000002</ele>
        <time>2023-08-25T15:23:19Z</time>
      </trkpt>
      <trkpt lat="57.511643981561065" lon="-5.858827019110322">
        <ele>45.32</ele>
        <time>2023-08-25T15:23:35Z</time>
      </trkpt>
      <trkpt lat="57.509466027840972" lon="-5.859422972425818">
        <ele>49.159999999999997</ele>
        <time>2023-08-25T15:23:48Z</time>
      </trkpt>
      <trkpt lat="57.508053006604314" lon="-5.859577031806111">
        <ele>52.049999999999997</ele>
        <time>2023-08-25T15:23:58Z</time>
      </trkpt>
      <trkpt lat="57.506033973768353" lon="-5.859733019024134">
        <ele>55.409999999999997</ele>
        <time>2023-08-25T15:24:10Z</time>
      </trkpt>
      <trkpt lat="57.504367986693978" lon="-5.859862016513944">
        <ele>59.259999999999998</ele>
        <time>2023-08-25T15:24:20Z</time>
      </trkpt>
      <trkpt lat="57.502105040475726" lon="-5.859971987083554">
        <ele>55.409999999999997</ele>
        <time>2023-08-25T15:24:33Z</time>
      </trkpt>
      <trkpt lat="57.500192038714886" lon="-5.859796972945333">
        <ele>53.009999999999998</ele>
        <time>2023-08-25T15:24:45Z</time>
      </trkpt>
      <trkpt lat="57.498621018603444" lon="-5.860008029267192">
        <ele>54.450000000000003</ele>
        <time>2023-08-25T15:24:54Z</time>
      </trkpt>
      <trkpt lat="57.495663966983557" lon="-5.860699033364654">
        <ele>58.299999999999997</ele>
        <time>2023-08-25T15:25:10Z</time>
      </trkpt>
      <trkpt lat="57.493571005761623" lon="-5.861188033595681">
        <ele>57.82</ele>
        <time>2023-08-25T15:25:22Z</time>
      </trkpt>
      <trkpt lat="57.491869982331991" lon="-5.860994998365641">
        <ele>58.780000000000001</ele>
        <time>2023-08-25T15:25:32Z</time>
      </trkpt>
      <trkpt lat="57.490088995546103" lon="-5.860857032239437">
        <ele>65.030000000000001</ele>
        <time>2023-08-25T15:25:43Z</time>
      </trkpt>
      <trkpt lat="57.488787034526467" lon="-5.861162971705198">
        <ele>69.349999999999994</ele>
        <time>2023-08-25T15:25:51Z</time>
      </trkpt>
      <trkpt lat="57.48630297370255" lon="-5.862472979351878">
        <ele>65.030000000000001</ele>
        <time>2023-08-25T15:26:06Z</time>
      </trkpt>
      <trkpt lat="57.484054025262594" lon="-5.863616019487381">
        <ele>57.82</ele>
        <time>2023-08-25T15:26:19Z</time>
      </trkpt>
      <trkpt lat="57.482788022607565" lon="-5.863717021420598">
        <ele>56.369999999999997</ele>
        <time>2023-08-25T15:26:27Z</time>
      </trkpt>
      <trkpt lat="57.481220019981265" lon="-5.863256016746163">
        <ele>54.450000000000003</ele>
        <time>2023-08-25T15:26:37Z</time>
      </trkpt>
      <trkpt lat="57.4805239867419" lon="-5.863179992884398">
        <ele>52.049999999999997</ele>
        <time>2023-08-25T15:26:43Z</time>
      </trkpt>
      <trkpt lat="57.480321982875466" lon="-5.863202959299088">
        <ele>49.649999999999999</ele>
        <time>2023-08-25T15:26:50Z</time>
      </trkpt>
      <trkpt lat="57.480254005640745" lon="-5.863192984834313">
        <ele>47.240000000000002</ele>
        <time>2023-08-25T15:30:52Z</time>
      </trkpt>
      <trkpt lat="57.480188040062785" lon="-5.863219974562526">
        <ele>47.719999999999999</ele>
        <time>2023-08-25T15:31:10Z</time>
      </trkpt>
      <trkpt lat="57.479626033455133" lon="-5.863289041444659">
        <ele>47.240000000000002</ele>
        <time>2023-08-25T15:31:17Z</time>
      </trkpt>
      <trkpt lat="57.478543007746339" lon="-5.863577965646982">
        <ele>41.469999999999999</ele>
        <time>2023-08-25T15:31:26Z</time>
      </trkpt>
      <trkpt lat="57.476972993463278" lon="-5.864037964493036">
        <ele>29.460000000000001</ele>
        <time>2023-08-25T15:31:36Z</time>
      </trkpt>
      <trkpt lat="57.476063976064324" lon="-5.863979961723089">
        <ele>24.649999999999999</ele>
        <time>2023-08-25T15:31:43Z</time>
      </trkpt>
      <trkpt lat="57.474374016746879" lon="-5.86342298425734">
        <ele>26.09</ele>
        <time>2023-08-25T15:31:55Z</time>
      </trkpt>
      <trkpt lat="57.473381012678146" lon="-5.862924009561539">
        <ele>33.780000000000001</ele>
        <time>2023-08-25T15:32:02Z</time>
      </trkpt>
      <trkpt lat="57.473241034895182" lon="-5.862835999578238">
        <ele>35.229999999999997</ele>
        <time>2023-08-25T15:32:03Z</time>
      </trkpt>
      <trkpt lat="57.47197100892663" lon="-5.861130030825734">
        <ele>45.32</ele>
        <time>2023-08-25T15:32:13Z</time>
      </trkpt>
      <trkpt lat="57.471324009820819" lon="-5.860361997038126">
        <ele>50.609999999999999</ele>
        <time>2023-08-25T15:32:18Z</time>
      </trkpt>
      <trkpt lat="57.471182020381093" lon="-5.86028203368187">
        <ele>51.57</ele>
        <time>2023-08-25T15:32:19Z</time>
      </trkpt>
      <trkpt lat="57.471040030941367" lon="-5.860222019255161">
        <ele>52.530000000000001</ele>
        <time>2023-08-25T15:32:20Z</time>
      </trkpt>
      <trkpt lat="57.470889994874597" lon="-5.860190000385046">
        <ele>53.490000000000002</ele>
        <time>2023-08-25T15:32:21Z</time>
      </trkpt>
      <trkpt lat="57.470738030970097" lon="-5.860179020091891">
        <ele>54.450000000000003</ele>
        <time>2023-08-25T15:32:22Z</time>
      </trkpt>
      <trkpt lat="57.470585983246565" lon="-5.860224030911923">
        <ele>55.409999999999997</ele>
        <time>2023-08-25T15:32:23Z</time>
      </trkpt>
      <trkpt lat="57.470433013513684" lon="-5.860283961519599">
        <ele>56.369999999999997</ele>
        <time>2023-08-25T15:32:24Z</time>
      </trkpt>
      <trkpt lat="57.468801978975534" lon="-5.86093096062541">
        <ele>65.030000000000001</ele>
        <time>2023-08-25T15:32:34Z</time>
      </trkpt>
      <trkpt lat="57.467349981889129" lon="-5.861506965011358">
        <ele>56.859999999999999</ele>
        <time>2023-08-25T15:32:44Z</time>
      </trkpt>
      <trkpt lat="57.465174039825797" lon="-5.862093027681112">
        <ele>29.460000000000001</ele>
        <time>2023-08-25T15:32:57Z</time>
      </trkpt>
      <trkpt lat="57.463767975568771" lon="-5.862069977447391">
        <ele>17.920000000000002</ele>
        <time>2023-08-25T15:33:06Z</time>
      </trkpt>
      <trkpt lat="57.462125960737467" lon="-5.861360030248761">
        <ele>15.039999999999999</ele>
        <time>2023-08-25T15:33:16Z</time>
      </trkpt>
      <trkpt lat="57.460655020549893" lon="-5.860840016975999">
        <ele>25.129999999999999</ele>
        <time>2023-08-25T15:33:25Z</time>
      </trkpt>
      <trkpt lat="57.458461979404092" lon="-5.860801041126251">
        <ele>28.5</ele>
        <time>2023-08-25T15:33:37Z</time>
      </trkpt>
      <trkpt lat="57.456358037889004" lon="-5.861390959471464">
        <ele>28.5</ele>
        <time>2023-08-25T15:33:49Z</time>
      </trkpt>
      <trkpt lat="57.454819958657026" lon="-5.861200019717217">
        <ele>25.609999999999999</ele>
        <time>2023-08-25T15:33:58Z</time>
      </trkpt>
      <trkpt lat="57.452217964455485" lon="-5.86026200093329">
        <ele>26.57</ele>
        <time>2023-08-25T15:34:13Z</time>
      </trkpt>
      <trkpt lat="57.449629968032241" lon="-5.859476029872894">
        <ele>25.609999999999999</ele>
        <time>2023-08-25T15:34:28Z</time>
      </trkpt>
      <trkpt lat="57.448335969820619" lon="-5.858517978340387">
        <ele>25.609999999999999</ele>
        <time>2023-08-25T15:34:36Z</time>
      </trkpt>
      <trkpt lat="57.446953039616346" lon="-5.857335962355137">
        <ele>27.050000000000001</ele>
        <time>2023-08-25T15:34:45Z</time>
      </trkpt>
      <trkpt lat="57.445535995066166" lon="-5.856661973521113">
        <ele>27.050000000000001</ele>
        <time>2023-08-25T15:34:54Z</time>
      </trkpt>
      <trkpt lat="57.444191034883261" lon="-5.855340985581279">
        <ele>26.57</ele>
        <time>2023-08-25T15:35:03Z</time>
      </trkpt>
      <trkpt lat="57.443198030814528" lon="-5.853810030966997">
        <ele>29.940000000000001</ele>
        <time>2023-08-25T15:35:12Z</time>
      </trkpt>
      <trkpt lat="57.442374005913734" lon="-5.851530991494656">
        <ele>29.940000000000001</ele>
        <time>2023-08-25T15:35:24Z</time>
      </trkpt>
      <trkpt lat="57.442163033410907" lon="-5.850348975509405">
        <ele>28.98</ele>
        <time>2023-08-25T15:35:29Z</time>
      </trkpt>
      <trkpt lat="57.442152975127101" lon="-5.850105984136462">
        <ele>28.98</ele>
        <time>2023-08-25T15:35:30Z</time>
      </trkpt>
      <trkpt lat="57.442017020657659" lon="-5.846937038004398">
        <ele>27.050000000000001</ele>
        <time>2023-08-25T15:35:42Z</time>
      </trkpt>
      <trkpt lat="57.441586023196578" lon="-5.844393968582153">
        <ele>28.98</ele>
        <time>2023-08-25T15:35:52Z</time>
      </trkpt>
      <trkpt lat="57.441342025995255" lon="-5.842364961281419">
        <ele>27.530000000000001</ele>
        <time>2023-08-25T15:36:00Z</time>
      </trkpt>
      <trkpt lat="57.441365998238325" lon="-5.842090034857392">
        <ele>27.050000000000001</ele>
        <time>2023-08-25T15:36:01Z</time>
      </trkpt>
      <trkpt lat="57.441566996276379" lon="-5.839339010417461">
        <ele>28.5</ele>
        <time>2023-08-25T15:36:11Z</time>
      </trkpt>
      <trkpt lat="57.441626004874706" lon="-5.836931979283691">
        <ele>30.420000000000002</ele>
        <time>2023-08-25T15:36:20Z</time>
      </trkpt>
      <trkpt lat="57.441665986552835" lon="-5.836683958768845">
        <ele>29.940000000000001</ele>
        <time>2023-08-25T15:36:21Z</time>
      </trkpt>
      <trkpt lat="57.441723989322782" lon="-5.836439039558172">
        <ele>29.940000000000001</ele>
        <time>2023-08-25T15:36:22Z</time>
      </trkpt>
      <trkpt lat="57.442060019820929" lon="-5.835114028304815">
        <ele>31.379999999999999</ele>
        <time>2023-08-25T15:36:28Z</time>
      </trkpt>
      <trkpt lat="57.442119028419256" lon="-5.834656963124871">
        <ele>32.340000000000003</ele>
        <time>2023-08-25T15:36:30Z</time>
      </trkpt>
      <trkpt lat="57.442146018147469" lon="-5.834445990622044">
        <ele>32.82</ele>
        <time>2023-08-25T15:36:31Z</time>
      </trkpt>
      <trkpt lat="57.442159010097384" lon="-5.8342220261693">
        <ele>33.299999999999997</ele>
        <time>2023-08-25T15:36:32Z</time>
      </trkpt>
      <trkpt lat="57.442178959026933" lon="-5.831586001440883">
        <ele>36.189999999999998</ele>
        <time>2023-08-25T15:36:43Z</time>
      </trkpt>
      <trkpt lat="57.442538039758801" lon="-5.829219035804272">
        <ele>37.149999999999999</ele>
        <time>2023-08-25T15:36:53Z</time>
      </trkpt>
      <trkpt lat="57.443047994747758" lon="-5.826353011652827">
        <ele>37.149999999999999</ele>
        <time>2023-08-25T15:37:05Z</time>
      </trkpt>
      <trkpt lat="57.443645959720016" lon="-5.823736013844609">
        <ele>34.740000000000002</ele>
        <time>2023-08-25T15:37:15Z</time>
      </trkpt>
      <trkpt lat="57.44421299546957" lon="-5.820741998031735">
        <ele>30.420000000000002</ele>
        <time>2023-08-25T15:37:26Z</time>
      </trkpt>
      <trkpt lat="57.444174019619823" lon="-5.817801961675286">
        <ele>16.960000000000001</ele>
        <time>2023-08-25T15:37:36Z</time>
      </trkpt>
      <trkpt lat="57.443950977176428" lon="-5.81426396034658">
        <ele>1.58</ele>
        <time>2023-08-25T15:37:49Z</time>
      </trkpt>
      <trkpt lat="57.443573959171772" lon="-5.811310010030866">
        <ele>1.1</ele>
        <time>2023-08-25T15:38:00Z</time>
      </trkpt>
      <trkpt lat="57.443140028044581" lon="-5.809980975463986">
        <ele>1.1</ele>
        <time>2023-08-25T15:38:07Z</time>
      </trkpt>
      <trkpt lat="57.44311798363924" lon="-5.809928001835942">
        <ele>1.1</ele>
        <time>2023-08-25T15:38:08Z</time>
      </trkpt>
      <trkpt lat="57.442871974781156" lon="-5.809335988014936">
        <ele>2.54</ele>
        <time>2023-08-25T15:38:18Z</time>
      </trkpt>
      <trkpt lat="57.442693021148443" lon="-5.808903984725475">
        <ele>3.02</ele>
        <time>2023-08-25T15:38:22Z</time>
      </trkpt>
      <trkpt lat="57.442661002278328" lon="-5.808827960863709">
        <ele>3.02</ele>
        <time>2023-08-25T15:38:23Z</time>
      </trkpt>
      <trkpt lat="57.442565029487014" lon="-5.808839024975896">
        <ele>2.54</ele>
        <time>2023-08-25T15:38:24Z</time>
      </trkpt>
      <trkpt lat="57.442490011453629" lon="-5.808846987783909">
        <ele>2.54</ele>
        <time>2023-08-25T15:38:25Z</time>
      </trkpt>
      <trkpt lat="57.442437037825584" lon="-5.80889199860394">
        <ele>2.06</ele>
        <time>2023-08-25T15:38:26Z</time>
      </trkpt>
      <trkpt lat="57.44236403144896" lon="-5.808996018022299">
        <ele>2.06</ele>
        <time>2023-08-25T15:38:27Z</time>
      </trkpt>
      <trkpt lat="57.442281972616911" lon="-5.809111017733812">
        <ele>1.58</ele>
        <time>2023-08-25T15:38:28Z</time>
      </trkpt>
      <trkpt lat="57.44219396263361" lon="-5.809234986081719">
        <ele>1.58</ele>
        <time>2023-08-25T15:38:29Z</time>
      </trkpt>
      <trkpt lat="57.441906966269016" lon="-5.809565987437964">
        <ele>1.58</ele>
        <time>2023-08-25T15:38:32Z</time>
      </trkpt>
      <trkpt lat="57.441808981820941" lon="-5.80962298437953">
        <ele>1.58</ele>
        <time>2023-08-25T15:38:33Z</time>
      </trkpt>
      <trkpt lat="57.441703034564853" lon="-5.809659026563168">
        <ele>1.58</ele>
        <time>2023-08-25T15:38:34Z</time>
      </trkpt>
      <trkpt lat="57.441603038460016" lon="-5.809642011299729">
        <ele>1.58</ele>
        <time>2023-08-25T15:38:35Z</time>
      </trkpt>
      <trkpt lat="57.441504970192909" lon="-5.809626001864672">
        <ele>2.06</ele>
        <time>2023-08-25T15:38:36Z</time>
      </trkpt>
      <trkpt lat="57.441415032371879" lon="-5.80953698605299">
        <ele>2.06</ele>
        <time>2023-08-25T15:38:37Z</time>
      </trkpt>
      <trkpt lat="57.441335991024971" lon="-5.809433972463012">
        <ele>2.06</ele>
        <time>2023-08-25T15:38:38Z</time>
      </trkpt>
      <trkpt lat="57.441266002133489" lon="-5.809343028813601">
        <ele>2.06</ele>
        <time>2023-08-25T15:38:39Z</time>
      </trkpt>
      <trkpt lat="57.441223002970219" lon="-5.809164997190237">
        <ele>2.54</ele>
        <time>2023-08-25T15:38:40Z</time>
      </trkpt>
      <trkpt lat="57.441186960786581" lon="-5.80902099609375">
        <ele>2.54</ele>
        <time>2023-08-25T15:38:41Z</time>
      </trkpt>
      <trkpt lat="57.441148990765214" lon="-5.808864003047347">
        <ele>2.54</ele>
        <time>2023-08-25T15:38:42Z</time>
      </trkpt>
      <trkpt lat="57.440969031304121" lon="-5.808134023100138">
        <ele>3.02</ele>
        <time>2023-08-25T15:38:46Z</time>
      </trkpt>
      <trkpt lat="57.440905999392271" lon="-5.807950962334871">
        <ele>3.02</ele>
        <time>2023-08-25T15:38:47Z</time>
      </trkpt>
      <trkpt lat="57.440831987187266" lon="-5.807791035622358">
        <ele>3.5</ele>
        <time>2023-08-25T15:38:48Z</time>
      </trkpt>
      <trkpt lat="57.440745988860726" lon="-5.807657008990645">
        <ele>3.5</ele>
        <time>2023-08-25T15:38:49Z</time>
      </trkpt>
      <trkpt lat="57.440653033554554" lon="-5.807527005672455">
        <ele>3.5</ele>
        <time>2023-08-25T15:38:50Z</time>
      </trkpt>
      <trkpt lat="57.439527008682489" lon="-5.806127982214093">
        <ele>3.5</ele>
        <time>2023-08-25T15:39:01Z</time>
      </trkpt>
      <trkpt lat="57.438525035977364" lon="-5.805558012798429">
        <ele>3.02</ele>
        <time>2023-08-25T15:39:10Z</time>
      </trkpt>
      <trkpt lat="57.437962023541331" lon="-5.805351985618472">
        <ele>3.02</ele>
        <time>2023-08-25T15:39:16Z</time>
      </trkpt>
      <trkpt lat="57.437869990244508" lon="-5.805439995601773">
        <ele>3.02</ele>
        <time>2023-08-25T15:39:17Z</time>
      </trkpt>
      <trkpt lat="57.437804024666548" lon="-5.805503027513623">
        <ele>3.02</ele>
        <time>2023-08-25T15:39:18Z</time>
      </trkpt>
      <trkpt lat="57.437646025791764" lon="-5.805652979761362">
        <ele>3.5</ele>
        <time>2023-08-25T15:39:20Z</time>
      </trkpt>
      <trkpt lat="57.436860976740718" lon="-5.806842958554626">
        <ele>5.91</ele>
        <time>2023-08-25T15:39:29Z</time>
      </trkpt>
      <trkpt lat="57.436782019212842" lon="-5.806992994621396">
        <ele>5.91</ele>
        <time>2023-08-25T15:39:30Z</time>
      </trkpt>
      <trkpt lat="57.43654003366828" lon="-5.80745299346745">
        <ele>5.91</ele>
        <time>2023-08-25T15:39:33Z</time>
      </trkpt>
      <trkpt lat="57.436467027291656" lon="-5.807591965422034">
        <ele>5.91</ele>
        <time>2023-08-25T15:39:34Z</time>
      </trkpt>
      <trkpt lat="57.436406007036567" lon="-5.807708976790309">
        <ele>5.91</ele>
        <time>2023-08-25T15:39:35Z</time>
      </trkpt>
      <trkpt lat="57.436357978731394" lon="-5.807801010087133">
        <ele>5.91</ele>
        <time>2023-08-25T15:39:36Z</time>
      </trkpt>
      <trkpt lat="57.436322020366788" lon="-5.807869993150234">
        <ele>5.91</ele>
        <time>2023-08-25T15:39:37Z</time>
      </trkpt>
      <trkpt lat="57.436259994283319" lon="-5.807987004518509">
        <ele>5.91</ele>
        <time>2023-08-25T15:39:45Z</time>
      </trkpt>
      <trkpt lat="57.436037035658956" lon="-5.808410961180925">
        <ele>5.42</ele>
        <time>2023-08-25T15:39:52Z</time>
      </trkpt>
      <trkpt lat="57.435344019904733" lon="-5.80972901545465">
        <ele>4.94</ele>
        <time>2023-08-25T15:40:00Z</time>
      </trkpt>
      <trkpt lat="57.434164015576243" lon="-5.811982993036509">
        <ele>9.75</ele>
        <time>2023-08-25T15:40:13Z</time>
      </trkpt>
      <trkpt lat="57.433751961216331" lon="-5.81282202154398">
        <ele>10.710000000000001</ele>
        <time>2023-08-25T15:40:20Z</time>
      </trkpt>
      <trkpt lat="57.433583987876773" lon="-5.813333988189697">
        <ele>11.19</ele>
        <time>2023-08-25T15:40:26Z</time>
      </trkpt>
      <trkpt lat="57.43357895873487" lon="-5.813357038423419">
        <ele>11.67</ele>
        <time>2023-08-25T15:40:27Z</time>
      </trkpt>
      <trkpt lat="57.433523973450065" lon="-5.813571028411388">
        <ele>11.67</ele>
        <time>2023-08-25T15:40:29Z</time>
      </trkpt>
      <trkpt lat="57.433495977893472" lon="-5.813677981495857">
        <ele>11.67</ele>
        <time>2023-08-25T15:40:30Z</time>
      </trkpt>
      <trkpt lat="57.433448033407331" lon="-5.813864981755614">
        <ele>11.67</ele>
        <time>2023-08-25T15:40:32Z</time>
      </trkpt>
      <trkpt lat="57.433416014537215" lon="-5.813989033922553">
        <ele>11.19</ele>
        <time>2023-08-25T15:40:39Z</time>
      </trkpt>
    </trkseg>
  </trk>

</gpx>